<?xml version="1.0" encoding="UTF-8" standalone="no" ?>
<gpx xmlns="http://www.topografix.com/GPX/1/1" xmlns:xsi="http://www.w3.org/2001/XMLSchema-instance" xsi:schemaLocation="http://www.topografix.com/GPX/1/1 http://www.topografix.com/GPX/1/1/gpx.xsd" version="1.1" creator="VisuGPX - https://www.visugpx.com">
  <metadata>
    <name>Foret de Dreux 39 kms</name>
  </metadata>
  <trk>
    <name><![CDATA[Foret de Dreux 39 kms_1]]></name>
    <trkseg>
      <trkpt lat="48.81264" lon="1.45538">
        <ele>141</ele>
        <time>2023-08-17T12:43:22Z</time>
      </trkpt>
      <trkpt lat="48.81261" lon="1.45545">
        <ele>137.6</ele>
        <time>2023-08-17T12:43:39Z</time>
      </trkpt>
      <trkpt lat="48.81264" lon="1.45544">
        <ele>137.6</ele>
        <time>2023-08-17T12:43:41Z</time>
      </trkpt>
      <trkpt lat="48.81265" lon="1.45544">
        <ele>137.6</ele>
        <time>2023-08-17T12:43:42Z</time>
      </trkpt>
      <trkpt lat="48.81266" lon="1.45545">
        <ele>137.4</ele>
        <time>2023-08-17T12:43:43Z</time>
      </trkpt>
      <trkpt lat="48.81266" lon="1.45547">
        <ele>137.4</ele>
        <time>2023-08-17T12:43:44Z</time>
      </trkpt>
      <trkpt lat="48.81265" lon="1.45551">
        <ele>137.4</ele>
        <time>2023-08-17T12:43:46Z</time>
      </trkpt>
      <trkpt lat="48.81261" lon="1.45553">
        <ele>137.6</ele>
        <time>2023-08-17T12:43:48Z</time>
      </trkpt>
      <trkpt lat="48.8126" lon="1.45553">
        <ele>137.6</ele>
        <time>2023-08-17T12:43:49Z</time>
      </trkpt>
      <trkpt lat="48.81255" lon="1.4555">
        <ele>137.6</ele>
        <time>2023-08-17T12:43:52Z</time>
      </trkpt>
      <trkpt lat="48.81253" lon="1.45548">
        <ele>137.8</ele>
        <time>2023-08-17T12:43:53Z</time>
      </trkpt>
      <trkpt lat="48.81252" lon="1.45546">
        <ele>137.8</ele>
        <time>2023-08-17T12:43:54Z</time>
      </trkpt>
      <trkpt lat="48.81251" lon="1.45544">
        <ele>137.8</ele>
        <time>2023-08-17T12:43:55Z</time>
      </trkpt>
      <trkpt lat="48.8125" lon="1.45542">
        <ele>137.8</ele>
        <time>2023-08-17T12:43:56Z</time>
      </trkpt>
      <trkpt lat="48.81249" lon="1.45534">
        <ele>138</ele>
        <time>2023-08-17T12:43:59Z</time>
      </trkpt>
      <trkpt lat="48.81248" lon="1.45531">
        <ele>138</ele>
        <time>2023-08-17T12:44:00Z</time>
      </trkpt>
      <trkpt lat="48.81247" lon="1.45524">
        <ele>138</ele>
        <time>2023-08-17T12:44:02Z</time>
      </trkpt>
      <trkpt lat="48.81246" lon="1.45521">
        <ele>138</ele>
        <time>2023-08-17T12:44:03Z</time>
      </trkpt>
      <trkpt lat="48.81245" lon="1.45519">
        <ele>138</ele>
        <time>2023-08-17T12:44:04Z</time>
      </trkpt>
      <trkpt lat="48.81244" lon="1.45517">
        <ele>138</ele>
        <time>2023-08-17T12:44:05Z</time>
      </trkpt>
      <trkpt lat="48.81242" lon="1.45516">
        <ele>138</ele>
        <time>2023-08-17T12:44:06Z</time>
      </trkpt>
      <trkpt lat="48.81239" lon="1.45512">
        <ele>138</ele>
        <time>2023-08-17T12:44:08Z</time>
      </trkpt>
      <trkpt lat="48.81236" lon="1.45509">
        <ele>138</ele>
        <time>2023-08-17T12:44:10Z</time>
      </trkpt>
      <trkpt lat="48.81229" lon="1.45501">
        <ele>138</ele>
        <time>2023-08-17T12:44:14Z</time>
      </trkpt>
      <trkpt lat="48.81221" lon="1.45492">
        <ele>138.2</ele>
        <time>2023-08-17T12:44:18Z</time>
      </trkpt>
      <trkpt lat="48.81219" lon="1.4549">
        <ele>138.2</ele>
        <time>2023-08-17T12:44:19Z</time>
      </trkpt>
      <trkpt lat="48.81209" lon="1.45483">
        <ele>138.2</ele>
        <time>2023-08-17T12:44:23Z</time>
      </trkpt>
      <trkpt lat="48.81208" lon="1.45481">
        <ele>138.2</ele>
        <time>2023-08-17T12:44:24Z</time>
      </trkpt>
      <trkpt lat="48.81206" lon="1.45478">
        <ele>138.2</ele>
        <time>2023-08-17T12:44:25Z</time>
      </trkpt>
      <trkpt lat="48.81204" lon="1.45477">
        <ele>138.2</ele>
        <time>2023-08-17T12:44:26Z</time>
      </trkpt>
      <trkpt lat="48.81202" lon="1.45473">
        <ele>138.2</ele>
        <time>2023-08-17T12:44:27Z</time>
      </trkpt>
      <trkpt lat="48.812" lon="1.4547">
        <ele>138.2</ele>
        <time>2023-08-17T12:44:28Z</time>
      </trkpt>
      <trkpt lat="48.81197" lon="1.45467">
        <ele>138.2</ele>
        <time>2023-08-17T12:44:29Z</time>
      </trkpt>
      <trkpt lat="48.81194" lon="1.45463">
        <ele>138.2</ele>
        <time>2023-08-17T12:44:30Z</time>
      </trkpt>
      <trkpt lat="48.81185" lon="1.45453">
        <ele>138.2</ele>
        <time>2023-08-17T12:44:33Z</time>
      </trkpt>
      <trkpt lat="48.81176" lon="1.45444">
        <ele>138.4</ele>
        <time>2023-08-17T12:44:36Z</time>
      </trkpt>
      <trkpt lat="48.81166" lon="1.45431">
        <ele>138.4</ele>
        <time>2023-08-17T12:44:41Z</time>
      </trkpt>
      <trkpt lat="48.81163" lon="1.45427">
        <ele>138.4</ele>
        <time>2023-08-17T12:44:42Z</time>
      </trkpt>
      <trkpt lat="48.81161" lon="1.45424">
        <ele>138.4</ele>
        <time>2023-08-17T12:44:43Z</time>
      </trkpt>
      <trkpt lat="48.81155" lon="1.45417">
        <ele>138.4</ele>
        <time>2023-08-17T12:44:45Z</time>
      </trkpt>
      <trkpt lat="48.81153" lon="1.45415">
        <ele>138.4</ele>
        <time>2023-08-17T12:44:46Z</time>
      </trkpt>
      <trkpt lat="48.81143" lon="1.45404">
        <ele>138.6</ele>
        <time>2023-08-17T12:44:50Z</time>
      </trkpt>
      <trkpt lat="48.81141" lon="1.45401">
        <ele>138.6</ele>
        <time>2023-08-17T12:44:51Z</time>
      </trkpt>
      <trkpt lat="48.81134" lon="1.45392">
        <ele>138.6</ele>
        <time>2023-08-17T12:44:54Z</time>
      </trkpt>
      <trkpt lat="48.81129" lon="1.45386">
        <ele>138.6</ele>
        <time>2023-08-17T12:44:56Z</time>
      </trkpt>
      <trkpt lat="48.81126" lon="1.45384">
        <ele>138.6</ele>
        <time>2023-08-17T12:44:57Z</time>
      </trkpt>
      <trkpt lat="48.81124" lon="1.45382">
        <ele>138.6</ele>
        <time>2023-08-17T12:44:58Z</time>
      </trkpt>
      <trkpt lat="48.81122" lon="1.4538">
        <ele>138.6</ele>
        <time>2023-08-17T12:44:59Z</time>
      </trkpt>
      <trkpt lat="48.8112" lon="1.45378">
        <ele>138.8</ele>
        <time>2023-08-17T12:45:00Z</time>
      </trkpt>
      <trkpt lat="48.81104" lon="1.45356">
        <ele>138.8</ele>
        <time>2023-08-17T12:45:06Z</time>
      </trkpt>
      <trkpt lat="48.81096" lon="1.45349">
        <ele>138.8</ele>
        <time>2023-08-17T12:45:09Z</time>
      </trkpt>
      <trkpt lat="48.81092" lon="1.45347">
        <ele>139</ele>
        <time>2023-08-17T12:45:10Z</time>
      </trkpt>
      <trkpt lat="48.81089" lon="1.45345">
        <ele>139</ele>
        <time>2023-08-17T12:45:11Z</time>
      </trkpt>
      <trkpt lat="48.81087" lon="1.45342">
        <ele>139</ele>
        <time>2023-08-17T12:45:12Z</time>
      </trkpt>
      <trkpt lat="48.81085" lon="1.4534">
        <ele>139</ele>
        <time>2023-08-17T12:45:13Z</time>
      </trkpt>
      <trkpt lat="48.81083" lon="1.45337">
        <ele>139</ele>
        <time>2023-08-17T12:45:14Z</time>
      </trkpt>
      <trkpt lat="48.81082" lon="1.45334">
        <ele>139</ele>
        <time>2023-08-17T12:45:15Z</time>
      </trkpt>
      <trkpt lat="48.8108" lon="1.45332">
        <ele>139.2</ele>
        <time>2023-08-17T12:45:16Z</time>
      </trkpt>
      <trkpt lat="48.81077" lon="1.45328">
        <ele>139.2</ele>
        <time>2023-08-17T12:45:17Z</time>
      </trkpt>
      <trkpt lat="48.81076" lon="1.45324">
        <ele>139.2</ele>
        <time>2023-08-17T12:45:18Z</time>
      </trkpt>
      <trkpt lat="48.81073" lon="1.45321">
        <ele>139.2</ele>
        <time>2023-08-17T12:45:19Z</time>
      </trkpt>
      <trkpt lat="48.8107" lon="1.45318">
        <ele>139.4</ele>
        <time>2023-08-17T12:45:20Z</time>
      </trkpt>
      <trkpt lat="48.81067" lon="1.45314">
        <ele>139.4</ele>
        <time>2023-08-17T12:45:21Z</time>
      </trkpt>
      <trkpt lat="48.81053" lon="1.45299">
        <ele>139.6</ele>
        <time>2023-08-17T12:45:26Z</time>
      </trkpt>
      <trkpt lat="48.81051" lon="1.45297">
        <ele>139.6</ele>
        <time>2023-08-17T12:45:27Z</time>
      </trkpt>
      <trkpt lat="48.81049" lon="1.45295">
        <ele>139.6</ele>
        <time>2023-08-17T12:45:28Z</time>
      </trkpt>
      <trkpt lat="48.81042" lon="1.45287">
        <ele>139.8</ele>
        <time>2023-08-17T12:45:31Z</time>
      </trkpt>
      <trkpt lat="48.81038" lon="1.45283">
        <ele>139.8</ele>
        <time>2023-08-17T12:45:32Z</time>
      </trkpt>
      <trkpt lat="48.81036" lon="1.45281">
        <ele>139.8</ele>
        <time>2023-08-17T12:45:33Z</time>
      </trkpt>
      <trkpt lat="48.81034" lon="1.45279">
        <ele>139.8</ele>
        <time>2023-08-17T12:45:34Z</time>
      </trkpt>
      <trkpt lat="48.81032" lon="1.45278">
        <ele>139.8</ele>
        <time>2023-08-17T12:45:35Z</time>
      </trkpt>
      <trkpt lat="48.8103" lon="1.45277">
        <ele>139.8</ele>
        <time>2023-08-17T12:45:36Z</time>
      </trkpt>
      <trkpt lat="48.81027" lon="1.45273">
        <ele>139.8</ele>
        <time>2023-08-17T12:45:37Z</time>
      </trkpt>
      <trkpt lat="48.81024" lon="1.45269">
        <ele>140</ele>
        <time>2023-08-17T12:45:39Z</time>
      </trkpt>
      <trkpt lat="48.81022" lon="1.45266">
        <ele>140</ele>
        <time>2023-08-17T12:45:40Z</time>
      </trkpt>
      <trkpt lat="48.81019" lon="1.45263">
        <ele>140</ele>
        <time>2023-08-17T12:45:41Z</time>
      </trkpt>
      <trkpt lat="48.81015" lon="1.45258">
        <ele>140.2</ele>
        <time>2023-08-17T12:45:43Z</time>
      </trkpt>
      <trkpt lat="48.81007" lon="1.45242">
        <ele>140.2</ele>
        <time>2023-08-17T12:45:47Z</time>
      </trkpt>
      <trkpt lat="48.81" lon="1.45236">
        <ele>140.4</ele>
        <time>2023-08-17T12:45:49Z</time>
      </trkpt>
      <trkpt lat="48.80998" lon="1.45233">
        <ele>140.4</ele>
        <time>2023-08-17T12:45:50Z</time>
      </trkpt>
      <trkpt lat="48.80991" lon="1.45228">
        <ele>140.6</ele>
        <time>2023-08-17T12:45:53Z</time>
      </trkpt>
      <trkpt lat="48.80988" lon="1.45225">
        <ele>140.6</ele>
        <time>2023-08-17T12:45:54Z</time>
      </trkpt>
      <trkpt lat="48.80979" lon="1.45217">
        <ele>140.6</ele>
        <time>2023-08-17T12:45:57Z</time>
      </trkpt>
      <trkpt lat="48.80977" lon="1.45215">
        <ele>140.6</ele>
        <time>2023-08-17T12:45:58Z</time>
      </trkpt>
      <trkpt lat="48.80972" lon="1.45209">
        <ele>140.6</ele>
        <time>2023-08-17T12:46:00Z</time>
      </trkpt>
      <trkpt lat="48.8097" lon="1.45207">
        <ele>140.8</ele>
        <time>2023-08-17T12:46:01Z</time>
      </trkpt>
      <trkpt lat="48.8096" lon="1.45194">
        <ele>140.8</ele>
        <time>2023-08-17T12:46:05Z</time>
      </trkpt>
      <trkpt lat="48.80957" lon="1.45189">
        <ele>141</ele>
        <time>2023-08-17T12:46:07Z</time>
      </trkpt>
      <trkpt lat="48.80951" lon="1.45182">
        <ele>141</ele>
        <time>2023-08-17T12:46:10Z</time>
      </trkpt>
      <trkpt lat="48.80946" lon="1.45175">
        <ele>141.4</ele>
        <time>2023-08-17T12:46:12Z</time>
      </trkpt>
      <trkpt lat="48.80943" lon="1.45171">
        <ele>141.4</ele>
        <time>2023-08-17T12:46:13Z</time>
      </trkpt>
      <trkpt lat="48.80938" lon="1.45166">
        <ele>141.2</ele>
        <time>2023-08-17T12:46:15Z</time>
      </trkpt>
      <trkpt lat="48.80935" lon="1.45164">
        <ele>141.2</ele>
        <time>2023-08-17T12:46:16Z</time>
      </trkpt>
      <trkpt lat="48.80934" lon="1.45161">
        <ele>141.2</ele>
        <time>2023-08-17T12:46:17Z</time>
      </trkpt>
      <trkpt lat="48.80928" lon="1.45153">
        <ele>141.6</ele>
        <time>2023-08-17T12:46:19Z</time>
      </trkpt>
      <trkpt lat="48.80925" lon="1.4515">
        <ele>141.6</ele>
        <time>2023-08-17T12:46:20Z</time>
      </trkpt>
      <trkpt lat="48.80922" lon="1.45147">
        <ele>141.6</ele>
        <time>2023-08-17T12:46:21Z</time>
      </trkpt>
      <trkpt lat="48.8092" lon="1.45145">
        <ele>141.6</ele>
        <time>2023-08-17T12:46:22Z</time>
      </trkpt>
      <trkpt lat="48.80917" lon="1.45142">
        <ele>141.6</ele>
        <time>2023-08-17T12:46:23Z</time>
      </trkpt>
      <trkpt lat="48.80902" lon="1.45126">
        <ele>141.8</ele>
        <time>2023-08-17T12:46:28Z</time>
      </trkpt>
      <trkpt lat="48.80899" lon="1.45124">
        <ele>141.8</ele>
        <time>2023-08-17T12:46:29Z</time>
      </trkpt>
      <trkpt lat="48.80897" lon="1.45121">
        <ele>141.8</ele>
        <time>2023-08-17T12:46:30Z</time>
      </trkpt>
      <trkpt lat="48.80893" lon="1.45113">
        <ele>142</ele>
        <time>2023-08-17T12:46:32Z</time>
      </trkpt>
      <trkpt lat="48.80886" lon="1.45106">
        <ele>142</ele>
        <time>2023-08-17T12:46:34Z</time>
      </trkpt>
      <trkpt lat="48.80875" lon="1.45088">
        <ele>142.2</ele>
        <time>2023-08-17T12:46:39Z</time>
      </trkpt>
      <trkpt lat="48.80873" lon="1.45086">
        <ele>142.2</ele>
        <time>2023-08-17T12:46:40Z</time>
      </trkpt>
      <trkpt lat="48.80866" lon="1.45078">
        <ele>142.2</ele>
        <time>2023-08-17T12:46:42Z</time>
      </trkpt>
      <trkpt lat="48.80862" lon="1.45072">
        <ele>142.2</ele>
        <time>2023-08-17T12:46:44Z</time>
      </trkpt>
      <trkpt lat="48.8086" lon="1.45069">
        <ele>142.2</ele>
        <time>2023-08-17T12:46:45Z</time>
      </trkpt>
      <trkpt lat="48.80856" lon="1.45065">
        <ele>142.4</ele>
        <time>2023-08-17T12:46:46Z</time>
      </trkpt>
      <trkpt lat="48.80846" lon="1.45057">
        <ele>142.4</ele>
        <time>2023-08-17T12:46:49Z</time>
      </trkpt>
      <trkpt lat="48.80843" lon="1.45056">
        <ele>142.4</ele>
        <time>2023-08-17T12:46:50Z</time>
      </trkpt>
      <trkpt lat="48.80841" lon="1.45053">
        <ele>142.4</ele>
        <time>2023-08-17T12:46:51Z</time>
      </trkpt>
      <trkpt lat="48.80827" lon="1.45035">
        <ele>142.6</ele>
        <time>2023-08-17T12:46:57Z</time>
      </trkpt>
      <trkpt lat="48.80822" lon="1.45029">
        <ele>142.6</ele>
        <time>2023-08-17T12:46:59Z</time>
      </trkpt>
      <trkpt lat="48.80812" lon="1.45015">
        <ele>142.6</ele>
        <time>2023-08-17T12:47:03Z</time>
      </trkpt>
      <trkpt lat="48.80808" lon="1.4501">
        <ele>142.6</ele>
        <time>2023-08-17T12:47:04Z</time>
      </trkpt>
      <trkpt lat="48.80805" lon="1.45007">
        <ele>142.6</ele>
        <time>2023-08-17T12:47:05Z</time>
      </trkpt>
      <trkpt lat="48.80787" lon="1.44988">
        <ele>142.6</ele>
        <time>2023-08-17T12:47:11Z</time>
      </trkpt>
      <trkpt lat="48.80777" lon="1.44978">
        <ele>142.6</ele>
        <time>2023-08-17T12:47:14Z</time>
      </trkpt>
      <trkpt lat="48.80763" lon="1.44963">
        <ele>142.6</ele>
        <time>2023-08-17T12:47:18Z</time>
      </trkpt>
      <trkpt lat="48.80749" lon="1.44949">
        <ele>142.4</ele>
        <time>2023-08-17T12:47:23Z</time>
      </trkpt>
      <trkpt lat="48.80746" lon="1.44946">
        <ele>142.4</ele>
        <time>2023-08-17T12:47:24Z</time>
      </trkpt>
      <trkpt lat="48.80743" lon="1.44943">
        <ele>142.4</ele>
        <time>2023-08-17T12:47:25Z</time>
      </trkpt>
      <trkpt lat="48.8074" lon="1.44939">
        <ele>142.2</ele>
        <time>2023-08-17T12:47:26Z</time>
      </trkpt>
      <trkpt lat="48.80736" lon="1.44935">
        <ele>142.2</ele>
        <time>2023-08-17T12:47:27Z</time>
      </trkpt>
      <trkpt lat="48.80729" lon="1.44928">
        <ele>142.2</ele>
        <time>2023-08-17T12:47:29Z</time>
      </trkpt>
      <trkpt lat="48.80713" lon="1.44912">
        <ele>142.2</ele>
        <time>2023-08-17T12:47:34Z</time>
      </trkpt>
      <trkpt lat="48.80695" lon="1.44893">
        <ele>142</ele>
        <time>2023-08-17T12:47:39Z</time>
      </trkpt>
      <trkpt lat="48.80693" lon="1.44888">
        <ele>142</ele>
        <time>2023-08-17T12:47:40Z</time>
      </trkpt>
      <trkpt lat="48.80691" lon="1.44882">
        <ele>142</ele>
        <time>2023-08-17T12:47:41Z</time>
      </trkpt>
      <trkpt lat="48.80685" lon="1.44874">
        <ele>141.8</ele>
        <time>2023-08-17T12:47:43Z</time>
      </trkpt>
      <trkpt lat="48.80682" lon="1.44873">
        <ele>141.8</ele>
        <time>2023-08-17T12:47:44Z</time>
      </trkpt>
      <trkpt lat="48.80678" lon="1.44873">
        <ele>141.8</ele>
        <time>2023-08-17T12:47:45Z</time>
      </trkpt>
      <trkpt lat="48.80676" lon="1.44873">
        <ele>141.8</ele>
        <time>2023-08-17T12:47:46Z</time>
      </trkpt>
      <trkpt lat="48.80673" lon="1.44873">
        <ele>141.8</ele>
        <time>2023-08-17T12:47:47Z</time>
      </trkpt>
      <trkpt lat="48.8067" lon="1.44874">
        <ele>141.8</ele>
        <time>2023-08-17T12:47:48Z</time>
      </trkpt>
      <trkpt lat="48.80667" lon="1.44873">
        <ele>141.8</ele>
        <time>2023-08-17T12:47:49Z</time>
      </trkpt>
      <trkpt lat="48.80663" lon="1.44873">
        <ele>141.8</ele>
        <time>2023-08-17T12:47:50Z</time>
      </trkpt>
      <trkpt lat="48.8066" lon="1.44873">
        <ele>141.6</ele>
        <time>2023-08-17T12:47:51Z</time>
      </trkpt>
      <trkpt lat="48.80657" lon="1.44874">
        <ele>141.6</ele>
        <time>2023-08-17T12:47:52Z</time>
      </trkpt>
      <trkpt lat="48.80653" lon="1.44874">
        <ele>141.6</ele>
        <time>2023-08-17T12:47:53Z</time>
      </trkpt>
      <trkpt lat="48.80649" lon="1.44873">
        <ele>141.6</ele>
        <time>2023-08-17T12:47:54Z</time>
      </trkpt>
      <trkpt lat="48.80636" lon="1.44873">
        <ele>141.8</ele>
        <time>2023-08-17T12:47:58Z</time>
      </trkpt>
      <trkpt lat="48.80629" lon="1.44872">
        <ele>141.8</ele>
        <time>2023-08-17T12:48:00Z</time>
      </trkpt>
      <trkpt lat="48.8061" lon="1.44876">
        <ele>141.8</ele>
        <time>2023-08-17T12:48:05Z</time>
      </trkpt>
      <trkpt lat="48.80607" lon="1.44876">
        <ele>142</ele>
        <time>2023-08-17T12:48:06Z</time>
      </trkpt>
      <trkpt lat="48.80604" lon="1.44877">
        <ele>142</ele>
        <time>2023-08-17T12:48:07Z</time>
      </trkpt>
      <trkpt lat="48.80581" lon="1.44881">
        <ele>142</ele>
        <time>2023-08-17T12:48:14Z</time>
      </trkpt>
      <trkpt lat="48.80575" lon="1.44883">
        <ele>142</ele>
        <time>2023-08-17T12:48:16Z</time>
      </trkpt>
      <trkpt lat="48.8055" lon="1.44888">
        <ele>142.4</ele>
        <time>2023-08-17T12:48:24Z</time>
      </trkpt>
      <trkpt lat="48.80547" lon="1.44889">
        <ele>142.4</ele>
        <time>2023-08-17T12:48:25Z</time>
      </trkpt>
      <trkpt lat="48.80545" lon="1.44889">
        <ele>142.6</ele>
        <time>2023-08-17T12:48:26Z</time>
      </trkpt>
      <trkpt lat="48.80542" lon="1.4489">
        <ele>142.6</ele>
        <time>2023-08-17T12:48:27Z</time>
      </trkpt>
      <trkpt lat="48.80538" lon="1.4489">
        <ele>142.6</ele>
        <time>2023-08-17T12:48:28Z</time>
      </trkpt>
      <trkpt lat="48.80535" lon="1.44891">
        <ele>142.6</ele>
        <time>2023-08-17T12:48:29Z</time>
      </trkpt>
      <trkpt lat="48.80529" lon="1.44892">
        <ele>142.8</ele>
        <time>2023-08-17T12:48:31Z</time>
      </trkpt>
      <trkpt lat="48.80526" lon="1.44892">
        <ele>142.8</ele>
        <time>2023-08-17T12:48:32Z</time>
      </trkpt>
      <trkpt lat="48.80519" lon="1.44892">
        <ele>142.8</ele>
        <time>2023-08-17T12:48:34Z</time>
      </trkpt>
      <trkpt lat="48.80516" lon="1.44892">
        <ele>143</ele>
        <time>2023-08-17T12:48:35Z</time>
      </trkpt>
      <trkpt lat="48.80511" lon="1.44892">
        <ele>143</ele>
        <time>2023-08-17T12:48:36Z</time>
      </trkpt>
      <trkpt lat="48.80496" lon="1.44892">
        <ele>143</ele>
        <time>2023-08-17T12:48:40Z</time>
      </trkpt>
      <trkpt lat="48.80477" lon="1.44894">
        <ele>143.4</ele>
        <time>2023-08-17T12:48:45Z</time>
      </trkpt>
      <trkpt lat="48.80475" lon="1.44895">
        <ele>143.4</ele>
        <time>2023-08-17T12:48:46Z</time>
      </trkpt>
      <trkpt lat="48.80473" lon="1.44895">
        <ele>143.4</ele>
        <time>2023-08-17T12:48:47Z</time>
      </trkpt>
      <trkpt lat="48.80467" lon="1.44896">
        <ele>143.6</ele>
        <time>2023-08-17T12:48:49Z</time>
      </trkpt>
      <trkpt lat="48.80462" lon="1.44897">
        <ele>143.8</ele>
        <time>2023-08-17T12:48:50Z</time>
      </trkpt>
      <trkpt lat="48.80453" lon="1.44898">
        <ele>143.8</ele>
        <time>2023-08-17T12:48:53Z</time>
      </trkpt>
      <trkpt lat="48.80444" lon="1.449">
        <ele>144</ele>
        <time>2023-08-17T12:48:56Z</time>
      </trkpt>
      <trkpt lat="48.80433" lon="1.44902">
        <ele>144.2</ele>
        <time>2023-08-17T12:48:59Z</time>
      </trkpt>
      <trkpt lat="48.80409" lon="1.44908">
        <ele>144.4</ele>
        <time>2023-08-17T12:49:06Z</time>
      </trkpt>
      <trkpt lat="48.80407" lon="1.44908">
        <ele>144.4</ele>
        <time>2023-08-17T12:49:07Z</time>
      </trkpt>
      <trkpt lat="48.80403" lon="1.44909">
        <ele>144.6</ele>
        <time>2023-08-17T12:49:08Z</time>
      </trkpt>
      <trkpt lat="48.80399" lon="1.4491">
        <ele>144.6</ele>
        <time>2023-08-17T12:49:09Z</time>
      </trkpt>
      <trkpt lat="48.80396" lon="1.44911">
        <ele>144.8</ele>
        <time>2023-08-17T12:49:10Z</time>
      </trkpt>
      <trkpt lat="48.80388" lon="1.44912">
        <ele>144.8</ele>
        <time>2023-08-17T12:49:12Z</time>
      </trkpt>
      <trkpt lat="48.80366" lon="1.44915">
        <ele>145.2</ele>
        <time>2023-08-17T12:49:18Z</time>
      </trkpt>
      <trkpt lat="48.8034" lon="1.4492">
        <ele>145.6</ele>
        <time>2023-08-17T12:49:25Z</time>
      </trkpt>
      <trkpt lat="48.80337" lon="1.44919">
        <ele>145.6</ele>
        <time>2023-08-17T12:49:26Z</time>
      </trkpt>
      <trkpt lat="48.80334" lon="1.4492">
        <ele>145.6</ele>
        <time>2023-08-17T12:49:27Z</time>
      </trkpt>
      <trkpt lat="48.80331" lon="1.44921">
        <ele>145.6</ele>
        <time>2023-08-17T12:49:28Z</time>
      </trkpt>
      <trkpt lat="48.80327" lon="1.44922">
        <ele>145.8</ele>
        <time>2023-08-17T12:49:29Z</time>
      </trkpt>
      <trkpt lat="48.80323" lon="1.44922">
        <ele>145.8</ele>
        <time>2023-08-17T12:49:30Z</time>
      </trkpt>
      <trkpt lat="48.80315" lon="1.44924">
        <ele>145.8</ele>
        <time>2023-08-17T12:49:32Z</time>
      </trkpt>
      <trkpt lat="48.80312" lon="1.44925">
        <ele>146</ele>
        <time>2023-08-17T12:49:33Z</time>
      </trkpt>
      <trkpt lat="48.8031" lon="1.44925">
        <ele>146</ele>
        <time>2023-08-17T12:49:34Z</time>
      </trkpt>
      <trkpt lat="48.80307" lon="1.44926">
        <ele>146</ele>
        <time>2023-08-17T12:49:35Z</time>
      </trkpt>
      <trkpt lat="48.80304" lon="1.44926">
        <ele>146</ele>
        <time>2023-08-17T12:49:36Z</time>
      </trkpt>
      <trkpt lat="48.80291" lon="1.44929">
        <ele>146.2</ele>
        <time>2023-08-17T12:49:40Z</time>
      </trkpt>
      <trkpt lat="48.80288" lon="1.4493">
        <ele>146.2</ele>
        <time>2023-08-17T12:49:41Z</time>
      </trkpt>
      <trkpt lat="48.80285" lon="1.4493">
        <ele>146.2</ele>
        <time>2023-08-17T12:49:42Z</time>
      </trkpt>
      <trkpt lat="48.80283" lon="1.44931">
        <ele>146.2</ele>
        <time>2023-08-17T12:49:43Z</time>
      </trkpt>
      <trkpt lat="48.80265" lon="1.44936">
        <ele>146.4</ele>
        <time>2023-08-17T12:49:48Z</time>
      </trkpt>
      <trkpt lat="48.80262" lon="1.44936">
        <ele>146.4</ele>
        <time>2023-08-17T12:49:49Z</time>
      </trkpt>
      <trkpt lat="48.80245" lon="1.44939">
        <ele>146.6</ele>
        <time>2023-08-17T12:49:54Z</time>
      </trkpt>
      <trkpt lat="48.80242" lon="1.4494">
        <ele>146.6</ele>
        <time>2023-08-17T12:49:55Z</time>
      </trkpt>
      <trkpt lat="48.80238" lon="1.44941">
        <ele>146.6</ele>
        <time>2023-08-17T12:49:56Z</time>
      </trkpt>
      <trkpt lat="48.8023" lon="1.44941">
        <ele>146.6</ele>
        <time>2023-08-17T12:49:58Z</time>
      </trkpt>
      <trkpt lat="48.80209" lon="1.44945">
        <ele>146.6</ele>
        <time>2023-08-17T12:50:03Z</time>
      </trkpt>
      <trkpt lat="48.80184" lon="1.44948">
        <ele>146.6</ele>
        <time>2023-08-17T12:50:09Z</time>
      </trkpt>
      <trkpt lat="48.80144" lon="1.44956">
        <ele>146.4</ele>
        <time>2023-08-17T12:50:18Z</time>
      </trkpt>
      <trkpt lat="48.80127" lon="1.44958">
        <ele>146</ele>
        <time>2023-08-17T12:50:22Z</time>
      </trkpt>
      <trkpt lat="48.8012" lon="1.4496">
        <ele>146</ele>
        <time>2023-08-17T12:50:24Z</time>
      </trkpt>
      <trkpt lat="48.8009" lon="1.44966">
        <ele>145.8</ele>
        <time>2023-08-17T12:50:31Z</time>
      </trkpt>
      <trkpt lat="48.80087" lon="1.44967">
        <ele>145.8</ele>
        <time>2023-08-17T12:50:32Z</time>
      </trkpt>
      <trkpt lat="48.80084" lon="1.44969">
        <ele>145.8</ele>
        <time>2023-08-17T12:50:33Z</time>
      </trkpt>
      <trkpt lat="48.80081" lon="1.44971">
        <ele>145.8</ele>
        <time>2023-08-17T12:50:34Z</time>
      </trkpt>
      <trkpt lat="48.80079" lon="1.44972">
        <ele>145.8</ele>
        <time>2023-08-17T12:50:35Z</time>
      </trkpt>
      <trkpt lat="48.80078" lon="1.44972">
        <ele>145.8</ele>
        <time>2023-08-17T12:50:36Z</time>
      </trkpt>
      <trkpt lat="48.80076" lon="1.44971">
        <ele>145.8</ele>
        <time>2023-08-17T12:50:37Z</time>
      </trkpt>
      <trkpt lat="48.80074" lon="1.44968">
        <ele>145.8</ele>
        <time>2023-08-17T12:50:38Z</time>
      </trkpt>
      <trkpt lat="48.80074" lon="1.44965">
        <ele>145.8</ele>
        <time>2023-08-17T12:50:39Z</time>
      </trkpt>
      <trkpt lat="48.80074" lon="1.44961">
        <ele>145.8</ele>
        <time>2023-08-17T12:50:40Z</time>
      </trkpt>
      <trkpt lat="48.80074" lon="1.44958">
        <ele>145.8</ele>
        <time>2023-08-17T12:50:41Z</time>
      </trkpt>
      <trkpt lat="48.80072" lon="1.44915">
        <ele>145.6</ele>
        <time>2023-08-17T12:50:50Z</time>
      </trkpt>
      <trkpt lat="48.80074" lon="1.44879">
        <ele>145.2</ele>
        <time>2023-08-17T12:50:57Z</time>
      </trkpt>
      <trkpt lat="48.8008" lon="1.4485">
        <ele>145</ele>
        <time>2023-08-17T12:51:02Z</time>
      </trkpt>
      <trkpt lat="48.80081" lon="1.44844">
        <ele>145</ele>
        <time>2023-08-17T12:51:03Z</time>
      </trkpt>
      <trkpt lat="48.80082" lon="1.44838">
        <ele>145</ele>
        <time>2023-08-17T12:51:04Z</time>
      </trkpt>
      <trkpt lat="48.80091" lon="1.44808">
        <ele>144.8</ele>
        <time>2023-08-17T12:51:09Z</time>
      </trkpt>
      <trkpt lat="48.80092" lon="1.44794">
        <ele>144.6</ele>
        <time>2023-08-17T12:51:11Z</time>
      </trkpt>
      <trkpt lat="48.80097" lon="1.44763">
        <ele>144.2</ele>
        <time>2023-08-17T12:51:16Z</time>
      </trkpt>
      <trkpt lat="48.80098" lon="1.44758">
        <ele>144.2</ele>
        <time>2023-08-17T12:51:17Z</time>
      </trkpt>
      <trkpt lat="48.80099" lon="1.44753">
        <ele>144.2</ele>
        <time>2023-08-17T12:51:18Z</time>
      </trkpt>
      <trkpt lat="48.80105" lon="1.44722">
        <ele>144.2</ele>
        <time>2023-08-17T12:51:23Z</time>
      </trkpt>
      <trkpt lat="48.80111" lon="1.44699">
        <ele>144</ele>
        <time>2023-08-17T12:51:26Z</time>
      </trkpt>
      <trkpt lat="48.80113" lon="1.44693">
        <ele>143.8</ele>
        <time>2023-08-17T12:51:27Z</time>
      </trkpt>
      <trkpt lat="48.80115" lon="1.44686">
        <ele>143.8</ele>
        <time>2023-08-17T12:51:28Z</time>
      </trkpt>
      <trkpt lat="48.80116" lon="1.44662">
        <ele>143.8</ele>
        <time>2023-08-17T12:51:31Z</time>
      </trkpt>
      <trkpt lat="48.80118" lon="1.44655">
        <ele>143.8</ele>
        <time>2023-08-17T12:51:32Z</time>
      </trkpt>
      <trkpt lat="48.80119" lon="1.44648">
        <ele>143.8</ele>
        <time>2023-08-17T12:51:33Z</time>
      </trkpt>
      <trkpt lat="48.8012" lon="1.44641">
        <ele>143.6</ele>
        <time>2023-08-17T12:51:34Z</time>
      </trkpt>
      <trkpt lat="48.80122" lon="1.44634">
        <ele>143.4</ele>
        <time>2023-08-17T12:51:35Z</time>
      </trkpt>
      <trkpt lat="48.80124" lon="1.44616">
        <ele>143</ele>
        <time>2023-08-17T12:51:38Z</time>
      </trkpt>
      <trkpt lat="48.80126" lon="1.44611">
        <ele>143</ele>
        <time>2023-08-17T12:51:39Z</time>
      </trkpt>
      <trkpt lat="48.80129" lon="1.44606">
        <ele>142.8</ele>
        <time>2023-08-17T12:51:40Z</time>
      </trkpt>
      <trkpt lat="48.80131" lon="1.44599">
        <ele>142.8</ele>
        <time>2023-08-17T12:51:41Z</time>
      </trkpt>
      <trkpt lat="48.80132" lon="1.44591">
        <ele>142.8</ele>
        <time>2023-08-17T12:51:42Z</time>
      </trkpt>
      <trkpt lat="48.80132" lon="1.44584">
        <ele>142.8</ele>
        <time>2023-08-17T12:51:43Z</time>
      </trkpt>
      <trkpt lat="48.80133" lon="1.44578">
        <ele>142.8</ele>
        <time>2023-08-17T12:51:44Z</time>
      </trkpt>
      <trkpt lat="48.80138" lon="1.44559">
        <ele>142.6</ele>
        <time>2023-08-17T12:51:47Z</time>
      </trkpt>
      <trkpt lat="48.80137" lon="1.44552">
        <ele>142.6</ele>
        <time>2023-08-17T12:51:48Z</time>
      </trkpt>
      <trkpt lat="48.80136" lon="1.44546">
        <ele>142.6</ele>
        <time>2023-08-17T12:51:49Z</time>
      </trkpt>
      <trkpt lat="48.80137" lon="1.44539">
        <ele>142.6</ele>
        <time>2023-08-17T12:51:50Z</time>
      </trkpt>
      <trkpt lat="48.80141" lon="1.44525">
        <ele>142.6</ele>
        <time>2023-08-17T12:51:52Z</time>
      </trkpt>
      <trkpt lat="48.80143" lon="1.44519">
        <ele>142.8</ele>
        <time>2023-08-17T12:51:53Z</time>
      </trkpt>
      <trkpt lat="48.80144" lon="1.44513">
        <ele>142.8</ele>
        <time>2023-08-17T12:51:54Z</time>
      </trkpt>
      <trkpt lat="48.80145" lon="1.44508">
        <ele>142.8</ele>
        <time>2023-08-17T12:51:55Z</time>
      </trkpt>
      <trkpt lat="48.80145" lon="1.44501">
        <ele>142.8</ele>
        <time>2023-08-17T12:51:56Z</time>
      </trkpt>
      <trkpt lat="48.80146" lon="1.44495">
        <ele>142.8</ele>
        <time>2023-08-17T12:51:57Z</time>
      </trkpt>
      <trkpt lat="48.80146" lon="1.44481">
        <ele>142.8</ele>
        <time>2023-08-17T12:51:59Z</time>
      </trkpt>
      <trkpt lat="48.80147" lon="1.44476">
        <ele>142.8</ele>
        <time>2023-08-17T12:52:00Z</time>
      </trkpt>
      <trkpt lat="48.80152" lon="1.44464">
        <ele>143</ele>
        <time>2023-08-17T12:52:02Z</time>
      </trkpt>
      <trkpt lat="48.80154" lon="1.44458">
        <ele>143</ele>
        <time>2023-08-17T12:52:03Z</time>
      </trkpt>
      <trkpt lat="48.80155" lon="1.4445">
        <ele>143</ele>
        <time>2023-08-17T12:52:04Z</time>
      </trkpt>
      <trkpt lat="48.80156" lon="1.44442">
        <ele>143</ele>
        <time>2023-08-17T12:52:05Z</time>
      </trkpt>
      <trkpt lat="48.80156" lon="1.44435">
        <ele>143.2</ele>
        <time>2023-08-17T12:52:06Z</time>
      </trkpt>
      <trkpt lat="48.80158" lon="1.44428">
        <ele>143.2</ele>
        <time>2023-08-17T12:52:07Z</time>
      </trkpt>
      <trkpt lat="48.80163" lon="1.4441">
        <ele>143.2</ele>
        <time>2023-08-17T12:52:10Z</time>
      </trkpt>
      <trkpt lat="48.80167" lon="1.44399">
        <ele>143.2</ele>
        <time>2023-08-17T12:52:12Z</time>
      </trkpt>
      <trkpt lat="48.80168" lon="1.44393">
        <ele>143.4</ele>
        <time>2023-08-17T12:52:13Z</time>
      </trkpt>
      <trkpt lat="48.80168" lon="1.44389">
        <ele>143.4</ele>
        <time>2023-08-17T12:52:14Z</time>
      </trkpt>
      <trkpt lat="48.80168" lon="1.44385">
        <ele>143.4</ele>
        <time>2023-08-17T12:52:15Z</time>
      </trkpt>
      <trkpt lat="48.8017" lon="1.44382">
        <ele>143.6</ele>
        <time>2023-08-17T12:52:16Z</time>
      </trkpt>
      <trkpt lat="48.80173" lon="1.4438">
        <ele>143.6</ele>
        <time>2023-08-17T12:52:17Z</time>
      </trkpt>
      <trkpt lat="48.80176" lon="1.44379">
        <ele>143.8</ele>
        <time>2023-08-17T12:52:18Z</time>
      </trkpt>
      <trkpt lat="48.80179" lon="1.44378">
        <ele>143.8</ele>
        <time>2023-08-17T12:52:19Z</time>
      </trkpt>
      <trkpt lat="48.80183" lon="1.44377">
        <ele>143.8</ele>
        <time>2023-08-17T12:52:20Z</time>
      </trkpt>
      <trkpt lat="48.80185" lon="1.44376">
        <ele>143.8</ele>
        <time>2023-08-17T12:52:21Z</time>
      </trkpt>
      <trkpt lat="48.80187" lon="1.44375">
        <ele>144</ele>
        <time>2023-08-17T12:52:22Z</time>
      </trkpt>
      <trkpt lat="48.80195" lon="1.44374">
        <ele>144.2</ele>
        <time>2023-08-17T12:52:24Z</time>
      </trkpt>
      <trkpt lat="48.80199" lon="1.44373">
        <ele>144.2</ele>
        <time>2023-08-17T12:52:25Z</time>
      </trkpt>
      <trkpt lat="48.80202" lon="1.44373">
        <ele>144.2</ele>
        <time>2023-08-17T12:52:26Z</time>
      </trkpt>
      <trkpt lat="48.80207" lon="1.44371">
        <ele>144.2</ele>
        <time>2023-08-17T12:52:27Z</time>
      </trkpt>
      <trkpt lat="48.80211" lon="1.4437">
        <ele>144.2</ele>
        <time>2023-08-17T12:52:28Z</time>
      </trkpt>
      <trkpt lat="48.80214" lon="1.4437">
        <ele>144.2</ele>
        <time>2023-08-17T12:52:29Z</time>
      </trkpt>
      <trkpt lat="48.80217" lon="1.44369">
        <ele>144.2</ele>
        <time>2023-08-17T12:52:30Z</time>
      </trkpt>
      <trkpt lat="48.80224" lon="1.44368">
        <ele>144.4</ele>
        <time>2023-08-17T12:52:32Z</time>
      </trkpt>
      <trkpt lat="48.80227" lon="1.44367">
        <ele>144.4</ele>
        <time>2023-08-17T12:52:33Z</time>
      </trkpt>
      <trkpt lat="48.80241" lon="1.44363">
        <ele>144.2</ele>
        <time>2023-08-17T12:52:36Z</time>
      </trkpt>
      <trkpt lat="48.80244" lon="1.44362">
        <ele>144.2</ele>
        <time>2023-08-17T12:52:37Z</time>
      </trkpt>
      <trkpt lat="48.80256" lon="1.44362">
        <ele>144.2</ele>
        <time>2023-08-17T12:52:40Z</time>
      </trkpt>
      <trkpt lat="48.80282" lon="1.44369">
        <ele>143.8</ele>
        <time>2023-08-17T12:52:46Z</time>
      </trkpt>
      <trkpt lat="48.80286" lon="1.44369">
        <ele>143.8</ele>
        <time>2023-08-17T12:52:47Z</time>
      </trkpt>
      <trkpt lat="48.80291" lon="1.44368">
        <ele>143.8</ele>
        <time>2023-08-17T12:52:48Z</time>
      </trkpt>
      <trkpt lat="48.80297" lon="1.44368">
        <ele>143.8</ele>
        <time>2023-08-17T12:52:49Z</time>
      </trkpt>
      <trkpt lat="48.80303" lon="1.44367">
        <ele>143.8</ele>
        <time>2023-08-17T12:52:50Z</time>
      </trkpt>
      <trkpt lat="48.80308" lon="1.44367">
        <ele>143.8</ele>
        <time>2023-08-17T12:52:51Z</time>
      </trkpt>
      <trkpt lat="48.80313" lon="1.44367">
        <ele>143.6</ele>
        <time>2023-08-17T12:52:52Z</time>
      </trkpt>
      <trkpt lat="48.80317" lon="1.44366">
        <ele>143.6</ele>
        <time>2023-08-17T12:52:53Z</time>
      </trkpt>
      <trkpt lat="48.80331" lon="1.44356">
        <ele>143.6</ele>
        <time>2023-08-17T12:52:56Z</time>
      </trkpt>
      <trkpt lat="48.80331" lon="1.44351">
        <ele>143.6</ele>
        <time>2023-08-17T12:52:57Z</time>
      </trkpt>
      <trkpt lat="48.80331" lon="1.44346">
        <ele>143.6</ele>
        <time>2023-08-17T12:52:58Z</time>
      </trkpt>
      <trkpt lat="48.80332" lon="1.44342">
        <ele>143.6</ele>
        <time>2023-08-17T12:52:59Z</time>
      </trkpt>
      <trkpt lat="48.80333" lon="1.44337">
        <ele>143.6</ele>
        <time>2023-08-17T12:53:00Z</time>
      </trkpt>
      <trkpt lat="48.80333" lon="1.44332">
        <ele>143.6</ele>
        <time>2023-08-17T12:53:01Z</time>
      </trkpt>
      <trkpt lat="48.80333" lon="1.44326">
        <ele>143.6</ele>
        <time>2023-08-17T12:53:02Z</time>
      </trkpt>
      <trkpt lat="48.80334" lon="1.44321">
        <ele>143.6</ele>
        <time>2023-08-17T12:53:03Z</time>
      </trkpt>
      <trkpt lat="48.80335" lon="1.44315">
        <ele>143.6</ele>
        <time>2023-08-17T12:53:04Z</time>
      </trkpt>
      <trkpt lat="48.80336" lon="1.44308">
        <ele>143.8</ele>
        <time>2023-08-17T12:53:05Z</time>
      </trkpt>
      <trkpt lat="48.80336" lon="1.44302">
        <ele>143.8</ele>
        <time>2023-08-17T12:53:06Z</time>
      </trkpt>
      <trkpt lat="48.80336" lon="1.44296">
        <ele>143.8</ele>
        <time>2023-08-17T12:53:07Z</time>
      </trkpt>
      <trkpt lat="48.80336" lon="1.44268">
        <ele>143.8</ele>
        <time>2023-08-17T12:53:12Z</time>
      </trkpt>
      <trkpt lat="48.80336" lon="1.44262">
        <ele>143.8</ele>
        <time>2023-08-17T12:53:13Z</time>
      </trkpt>
      <trkpt lat="48.80336" lon="1.44256">
        <ele>144</ele>
        <time>2023-08-17T12:53:14Z</time>
      </trkpt>
      <trkpt lat="48.80339" lon="1.44243">
        <ele>144</ele>
        <time>2023-08-17T12:53:16Z</time>
      </trkpt>
      <trkpt lat="48.80339" lon="1.44237">
        <ele>144</ele>
        <time>2023-08-17T12:53:17Z</time>
      </trkpt>
      <trkpt lat="48.80338" lon="1.44232">
        <ele>144</ele>
        <time>2023-08-17T12:53:18Z</time>
      </trkpt>
      <trkpt lat="48.80339" lon="1.44227">
        <ele>144.2</ele>
        <time>2023-08-17T12:53:19Z</time>
      </trkpt>
      <trkpt lat="48.8034" lon="1.44216">
        <ele>144.2</ele>
        <time>2023-08-17T12:53:21Z</time>
      </trkpt>
      <trkpt lat="48.8034" lon="1.4421">
        <ele>144.2</ele>
        <time>2023-08-17T12:53:22Z</time>
      </trkpt>
      <trkpt lat="48.80344" lon="1.44195">
        <ele>144.2</ele>
        <time>2023-08-17T12:53:25Z</time>
      </trkpt>
      <trkpt lat="48.80345" lon="1.4419">
        <ele>144.2</ele>
        <time>2023-08-17T12:53:26Z</time>
      </trkpt>
      <trkpt lat="48.80348" lon="1.44164">
        <ele>144.2</ele>
        <time>2023-08-17T12:53:31Z</time>
      </trkpt>
      <trkpt lat="48.80352" lon="1.44137">
        <ele>144.2</ele>
        <time>2023-08-17T12:53:36Z</time>
      </trkpt>
      <trkpt lat="48.80351" lon="1.44132">
        <ele>144.2</ele>
        <time>2023-08-17T12:53:37Z</time>
      </trkpt>
      <trkpt lat="48.8035" lon="1.44127">
        <ele>144.2</ele>
        <time>2023-08-17T12:53:38Z</time>
      </trkpt>
      <trkpt lat="48.80352" lon="1.44121">
        <ele>144.2</ele>
        <time>2023-08-17T12:53:39Z</time>
      </trkpt>
      <trkpt lat="48.80352" lon="1.44109">
        <ele>144.2</ele>
        <time>2023-08-17T12:53:41Z</time>
      </trkpt>
      <trkpt lat="48.80354" lon="1.44105">
        <ele>144.2</ele>
        <time>2023-08-17T12:53:42Z</time>
      </trkpt>
      <trkpt lat="48.80355" lon="1.441">
        <ele>144.2</ele>
        <time>2023-08-17T12:53:43Z</time>
      </trkpt>
      <trkpt lat="48.80358" lon="1.44095">
        <ele>144.2</ele>
        <time>2023-08-17T12:53:44Z</time>
      </trkpt>
      <trkpt lat="48.8036" lon="1.4409">
        <ele>144.2</ele>
        <time>2023-08-17T12:53:45Z</time>
      </trkpt>
      <trkpt lat="48.80366" lon="1.44075">
        <ele>144.2</ele>
        <time>2023-08-17T12:53:48Z</time>
      </trkpt>
      <trkpt lat="48.80369" lon="1.44071">
        <ele>144.2</ele>
        <time>2023-08-17T12:53:49Z</time>
      </trkpt>
      <trkpt lat="48.80371" lon="1.4407">
        <ele>144.4</ele>
        <time>2023-08-17T12:53:50Z</time>
      </trkpt>
      <trkpt lat="48.80372" lon="1.44072">
        <ele>144.4</ele>
        <time>2023-08-17T12:53:51Z</time>
      </trkpt>
      <trkpt lat="48.80373" lon="1.44074">
        <ele>144.4</ele>
        <time>2023-08-17T12:53:52Z</time>
      </trkpt>
      <trkpt lat="48.8038" lon="1.44083">
        <ele>144.4</ele>
        <time>2023-08-17T12:53:55Z</time>
      </trkpt>
      <trkpt lat="48.80383" lon="1.44084">
        <ele>144.4</ele>
        <time>2023-08-17T12:53:56Z</time>
      </trkpt>
      <trkpt lat="48.80392" lon="1.44087">
        <ele>144.4</ele>
        <time>2023-08-17T12:53:58Z</time>
      </trkpt>
      <trkpt lat="48.80394" lon="1.44088">
        <ele>144.4</ele>
        <time>2023-08-17T12:53:59Z</time>
      </trkpt>
      <trkpt lat="48.80402" lon="1.4409">
        <ele>144.4</ele>
        <time>2023-08-17T12:54:01Z</time>
      </trkpt>
      <trkpt lat="48.80406" lon="1.4409">
        <ele>144.4</ele>
        <time>2023-08-17T12:54:02Z</time>
      </trkpt>
      <trkpt lat="48.8041" lon="1.44089">
        <ele>144.4</ele>
        <time>2023-08-17T12:54:03Z</time>
      </trkpt>
      <trkpt lat="48.80427" lon="1.4409">
        <ele>144.4</ele>
        <time>2023-08-17T12:54:08Z</time>
      </trkpt>
      <trkpt lat="48.80433" lon="1.44089">
        <ele>144.4</ele>
        <time>2023-08-17T12:54:09Z</time>
      </trkpt>
      <trkpt lat="48.80438" lon="1.44087">
        <ele>144.4</ele>
        <time>2023-08-17T12:54:10Z</time>
      </trkpt>
      <trkpt lat="48.80442" lon="1.44084">
        <ele>144.4</ele>
        <time>2023-08-17T12:54:11Z</time>
      </trkpt>
      <trkpt lat="48.80445" lon="1.44081">
        <ele>144.4</ele>
        <time>2023-08-17T12:54:12Z</time>
      </trkpt>
      <trkpt lat="48.80448" lon="1.44079">
        <ele>144.4</ele>
        <time>2023-08-17T12:54:13Z</time>
      </trkpt>
      <trkpt lat="48.80452" lon="1.44077">
        <ele>144.4</ele>
        <time>2023-08-17T12:54:14Z</time>
      </trkpt>
      <trkpt lat="48.80455" lon="1.44077">
        <ele>144.4</ele>
        <time>2023-08-17T12:54:15Z</time>
      </trkpt>
      <trkpt lat="48.80459" lon="1.44079">
        <ele>144.4</ele>
        <time>2023-08-17T12:54:16Z</time>
      </trkpt>
      <trkpt lat="48.80461" lon="1.4408">
        <ele>144.4</ele>
        <time>2023-08-17T12:54:17Z</time>
      </trkpt>
      <trkpt lat="48.80465" lon="1.44081">
        <ele>144.4</ele>
        <time>2023-08-17T12:54:18Z</time>
      </trkpt>
      <trkpt lat="48.80478" lon="1.44083">
        <ele>144.4</ele>
        <time>2023-08-17T12:54:21Z</time>
      </trkpt>
      <trkpt lat="48.80495" lon="1.44087">
        <ele>144.2</ele>
        <time>2023-08-17T12:54:25Z</time>
      </trkpt>
      <trkpt lat="48.80499" lon="1.4409">
        <ele>144.2</ele>
        <time>2023-08-17T12:54:26Z</time>
      </trkpt>
      <trkpt lat="48.80504" lon="1.44093">
        <ele>144.2</ele>
        <time>2023-08-17T12:54:27Z</time>
      </trkpt>
      <trkpt lat="48.80528" lon="1.44098">
        <ele>144.2</ele>
        <time>2023-08-17T12:54:33Z</time>
      </trkpt>
      <trkpt lat="48.8053" lon="1.44098">
        <ele>144.2</ele>
        <time>2023-08-17T12:54:34Z</time>
      </trkpt>
      <trkpt lat="48.80542" lon="1.44096">
        <ele>144</ele>
        <time>2023-08-17T12:54:37Z</time>
      </trkpt>
      <trkpt lat="48.80553" lon="1.44097">
        <ele>143.8</ele>
        <time>2023-08-17T12:54:40Z</time>
      </trkpt>
      <trkpt lat="48.80561" lon="1.441">
        <ele>143.8</ele>
        <time>2023-08-17T12:54:42Z</time>
      </trkpt>
      <trkpt lat="48.80564" lon="1.441">
        <ele>143.8</ele>
        <time>2023-08-17T12:54:43Z</time>
      </trkpt>
      <trkpt lat="48.80572" lon="1.44096">
        <ele>143.8</ele>
        <time>2023-08-17T12:54:45Z</time>
      </trkpt>
      <trkpt lat="48.80575" lon="1.44092">
        <ele>143.8</ele>
        <time>2023-08-17T12:54:46Z</time>
      </trkpt>
      <trkpt lat="48.8058" lon="1.44084">
        <ele>143.6</ele>
        <time>2023-08-17T12:54:48Z</time>
      </trkpt>
      <trkpt lat="48.80582" lon="1.4408">
        <ele>143.6</ele>
        <time>2023-08-17T12:54:49Z</time>
      </trkpt>
      <trkpt lat="48.80586" lon="1.4407">
        <ele>143.6</ele>
        <time>2023-08-17T12:54:51Z</time>
      </trkpt>
      <trkpt lat="48.80588" lon="1.44065">
        <ele>143.6</ele>
        <time>2023-08-17T12:54:52Z</time>
      </trkpt>
      <trkpt lat="48.80588" lon="1.44061">
        <ele>143.6</ele>
        <time>2023-08-17T12:54:53Z</time>
      </trkpt>
      <trkpt lat="48.80588" lon="1.44057">
        <ele>143.6</ele>
        <time>2023-08-17T12:54:54Z</time>
      </trkpt>
      <trkpt lat="48.80591" lon="1.44052">
        <ele>143.6</ele>
        <time>2023-08-17T12:54:55Z</time>
      </trkpt>
      <trkpt lat="48.80592" lon="1.44047">
        <ele>143.6</ele>
        <time>2023-08-17T12:54:56Z</time>
      </trkpt>
      <trkpt lat="48.80592" lon="1.44042">
        <ele>143.6</ele>
        <time>2023-08-17T12:54:57Z</time>
      </trkpt>
      <trkpt lat="48.80591" lon="1.44037">
        <ele>143.6</ele>
        <time>2023-08-17T12:54:58Z</time>
      </trkpt>
      <trkpt lat="48.80589" lon="1.44034">
        <ele>143.6</ele>
        <time>2023-08-17T12:54:59Z</time>
      </trkpt>
      <trkpt lat="48.80586" lon="1.44027">
        <ele>143.6</ele>
        <time>2023-08-17T12:55:00Z</time>
      </trkpt>
      <trkpt lat="48.80581" lon="1.44018">
        <ele>143.6</ele>
        <time>2023-08-17T12:55:02Z</time>
      </trkpt>
      <trkpt lat="48.8058" lon="1.44013">
        <ele>143.6</ele>
        <time>2023-08-17T12:55:03Z</time>
      </trkpt>
      <trkpt lat="48.80581" lon="1.44009">
        <ele>143.6</ele>
        <time>2023-08-17T12:55:04Z</time>
      </trkpt>
      <trkpt lat="48.80581" lon="1.44003">
        <ele>143.6</ele>
        <time>2023-08-17T12:55:05Z</time>
      </trkpt>
      <trkpt lat="48.8058" lon="1.43997">
        <ele>143.6</ele>
        <time>2023-08-17T12:55:06Z</time>
      </trkpt>
      <trkpt lat="48.80577" lon="1.43986">
        <ele>143.6</ele>
        <time>2023-08-17T12:55:08Z</time>
      </trkpt>
      <trkpt lat="48.80577" lon="1.43981">
        <ele>143.6</ele>
        <time>2023-08-17T12:55:09Z</time>
      </trkpt>
      <trkpt lat="48.80575" lon="1.43975">
        <ele>143.6</ele>
        <time>2023-08-17T12:55:10Z</time>
      </trkpt>
      <trkpt lat="48.80573" lon="1.43969">
        <ele>143.6</ele>
        <time>2023-08-17T12:55:11Z</time>
      </trkpt>
      <trkpt lat="48.80571" lon="1.43955">
        <ele>143.6</ele>
        <time>2023-08-17T12:55:13Z</time>
      </trkpt>
      <trkpt lat="48.80566" lon="1.43928">
        <ele>143.6</ele>
        <time>2023-08-17T12:55:17Z</time>
      </trkpt>
      <trkpt lat="48.80567" lon="1.4392">
        <ele>143.6</ele>
        <time>2023-08-17T12:55:18Z</time>
      </trkpt>
      <trkpt lat="48.80564" lon="1.43904">
        <ele>143.6</ele>
        <time>2023-08-17T12:55:21Z</time>
      </trkpt>
      <trkpt lat="48.80564" lon="1.43902">
        <ele>143.6</ele>
        <time>2023-08-17T12:55:22Z</time>
      </trkpt>
      <trkpt lat="48.80565" lon="1.43901">
        <ele>143.6</ele>
        <time>2023-08-17T12:55:23Z</time>
      </trkpt>
      <trkpt lat="48.80567" lon="1.43898">
        <ele>143.6</ele>
        <time>2023-08-17T12:55:24Z</time>
      </trkpt>
      <trkpt lat="48.80567" lon="1.43895">
        <ele>143.6</ele>
        <time>2023-08-17T12:55:25Z</time>
      </trkpt>
      <trkpt lat="48.80565" lon="1.43894">
        <ele>143.6</ele>
        <time>2023-08-17T12:55:26Z</time>
      </trkpt>
      <trkpt lat="48.80563" lon="1.43894">
        <ele>143.6</ele>
        <time>2023-08-17T12:55:27Z</time>
      </trkpt>
      <trkpt lat="48.8056" lon="1.4389">
        <ele>143.6</ele>
        <time>2023-08-17T12:55:29Z</time>
      </trkpt>
      <trkpt lat="48.8056" lon="1.43887">
        <ele>143.8</ele>
        <time>2023-08-17T12:55:30Z</time>
      </trkpt>
      <trkpt lat="48.8056" lon="1.43884">
        <ele>143.8</ele>
        <time>2023-08-17T12:55:31Z</time>
      </trkpt>
      <trkpt lat="48.8056" lon="1.43881">
        <ele>143.8</ele>
        <time>2023-08-17T12:55:32Z</time>
      </trkpt>
      <trkpt lat="48.80559" lon="1.43878">
        <ele>143.8</ele>
        <time>2023-08-17T12:55:33Z</time>
      </trkpt>
      <trkpt lat="48.80557" lon="1.43858">
        <ele>143.8</ele>
        <time>2023-08-17T12:55:38Z</time>
      </trkpt>
      <trkpt lat="48.80554" lon="1.43837">
        <ele>143.6</ele>
        <time>2023-08-17T12:55:43Z</time>
      </trkpt>
      <trkpt lat="48.80553" lon="1.43827">
        <ele>143.6</ele>
        <time>2023-08-17T12:55:45Z</time>
      </trkpt>
      <trkpt lat="48.80552" lon="1.43819">
        <ele>143.6</ele>
        <time>2023-08-17T12:55:47Z</time>
      </trkpt>
      <trkpt lat="48.80552" lon="1.43815">
        <ele>143.6</ele>
        <time>2023-08-17T12:55:48Z</time>
      </trkpt>
      <trkpt lat="48.8055" lon="1.438">
        <ele>143.6</ele>
        <time>2023-08-17T12:55:51Z</time>
      </trkpt>
      <trkpt lat="48.8055" lon="1.43791">
        <ele>143.6</ele>
        <time>2023-08-17T12:55:53Z</time>
      </trkpt>
      <trkpt lat="48.8055" lon="1.43787">
        <ele>143.6</ele>
        <time>2023-08-17T12:55:54Z</time>
      </trkpt>
      <trkpt lat="48.80548" lon="1.43781">
        <ele>143.6</ele>
        <time>2023-08-17T12:55:55Z</time>
      </trkpt>
      <trkpt lat="48.80548" lon="1.43778">
        <ele>143.6</ele>
        <time>2023-08-17T12:55:56Z</time>
      </trkpt>
      <trkpt lat="48.80548" lon="1.43773">
        <ele>143.6</ele>
        <time>2023-08-17T12:55:57Z</time>
      </trkpt>
      <trkpt lat="48.80547" lon="1.43769">
        <ele>143.6</ele>
        <time>2023-08-17T12:55:58Z</time>
      </trkpt>
      <trkpt lat="48.80544" lon="1.43755">
        <ele>143.6</ele>
        <time>2023-08-17T12:56:00Z</time>
      </trkpt>
      <trkpt lat="48.80543" lon="1.43749">
        <ele>143.6</ele>
        <time>2023-08-17T12:56:01Z</time>
      </trkpt>
      <trkpt lat="48.80543" lon="1.43744">
        <ele>143.8</ele>
        <time>2023-08-17T12:56:02Z</time>
      </trkpt>
      <trkpt lat="48.80543" lon="1.4374">
        <ele>143.8</ele>
        <time>2023-08-17T12:56:03Z</time>
      </trkpt>
      <trkpt lat="48.80536" lon="1.43718">
        <ele>143.8</ele>
        <time>2023-08-17T12:56:07Z</time>
      </trkpt>
      <trkpt lat="48.80534" lon="1.43717">
        <ele>143.8</ele>
        <time>2023-08-17T12:56:08Z</time>
      </trkpt>
      <trkpt lat="48.80531" lon="1.43716">
        <ele>143.8</ele>
        <time>2023-08-17T12:56:09Z</time>
      </trkpt>
      <trkpt lat="48.80528" lon="1.43716">
        <ele>143.6</ele>
        <time>2023-08-17T12:56:10Z</time>
      </trkpt>
      <trkpt lat="48.80525" lon="1.43717">
        <ele>143.8</ele>
        <time>2023-08-17T12:56:11Z</time>
      </trkpt>
      <trkpt lat="48.80523" lon="1.43718">
        <ele>143.8</ele>
        <time>2023-08-17T12:56:12Z</time>
      </trkpt>
      <trkpt lat="48.80517" lon="1.43719">
        <ele>143.8</ele>
        <time>2023-08-17T12:56:14Z</time>
      </trkpt>
      <trkpt lat="48.80514" lon="1.43719">
        <ele>143.8</ele>
        <time>2023-08-17T12:56:15Z</time>
      </trkpt>
      <trkpt lat="48.80512" lon="1.43721">
        <ele>143.8</ele>
        <time>2023-08-17T12:56:16Z</time>
      </trkpt>
      <trkpt lat="48.80493" lon="1.43728">
        <ele>143.8</ele>
        <time>2023-08-17T12:56:22Z</time>
      </trkpt>
      <trkpt lat="48.80491" lon="1.4373">
        <ele>143.8</ele>
        <time>2023-08-17T12:56:23Z</time>
      </trkpt>
      <trkpt lat="48.80489" lon="1.43731">
        <ele>143.8</ele>
        <time>2023-08-17T12:56:24Z</time>
      </trkpt>
      <trkpt lat="48.80488" lon="1.43731">
        <ele>143.8</ele>
        <time>2023-08-17T12:56:25Z</time>
      </trkpt>
      <trkpt lat="48.80487" lon="1.43731">
        <ele>143.8</ele>
        <time>2023-08-17T12:56:26Z</time>
      </trkpt>
      <trkpt lat="48.80487" lon="1.43731">
        <ele>143.8</ele>
        <time>2023-08-17T12:56:27Z</time>
      </trkpt>
      <trkpt lat="48.80485" lon="1.43732">
        <ele>143.8</ele>
        <time>2023-08-17T12:56:31Z</time>
      </trkpt>
      <trkpt lat="48.80481" lon="1.43735">
        <ele>144</ele>
        <time>2023-08-17T12:56:36Z</time>
      </trkpt>
      <trkpt lat="48.80479" lon="1.43736">
        <ele>144</ele>
        <time>2023-08-17T12:56:37Z</time>
      </trkpt>
      <trkpt lat="48.80463" lon="1.43746">
        <ele>144</ele>
        <time>2023-08-17T12:56:43Z</time>
      </trkpt>
      <trkpt lat="48.8045" lon="1.43752">
        <ele>144</ele>
        <time>2023-08-17T12:56:47Z</time>
      </trkpt>
      <trkpt lat="48.80446" lon="1.43754">
        <ele>144</ele>
        <time>2023-08-17T12:56:48Z</time>
      </trkpt>
      <trkpt lat="48.80443" lon="1.43756">
        <ele>144</ele>
        <time>2023-08-17T12:56:49Z</time>
      </trkpt>
      <trkpt lat="48.80437" lon="1.4376">
        <ele>144</ele>
        <time>2023-08-17T12:56:51Z</time>
      </trkpt>
      <trkpt lat="48.80434" lon="1.43762">
        <ele>144</ele>
        <time>2023-08-17T12:56:52Z</time>
      </trkpt>
      <trkpt lat="48.80432" lon="1.43764">
        <ele>144</ele>
        <time>2023-08-17T12:56:53Z</time>
      </trkpt>
      <trkpt lat="48.80429" lon="1.43766">
        <ele>144</ele>
        <time>2023-08-17T12:56:54Z</time>
      </trkpt>
      <trkpt lat="48.80425" lon="1.43768">
        <ele>144</ele>
        <time>2023-08-17T12:56:55Z</time>
      </trkpt>
      <trkpt lat="48.80422" lon="1.4377">
        <ele>144</ele>
        <time>2023-08-17T12:56:56Z</time>
      </trkpt>
      <trkpt lat="48.8042" lon="1.43771">
        <ele>144</ele>
        <time>2023-08-17T12:56:57Z</time>
      </trkpt>
      <trkpt lat="48.80417" lon="1.43773">
        <ele>144</ele>
        <time>2023-08-17T12:56:58Z</time>
      </trkpt>
      <trkpt lat="48.80414" lon="1.43774">
        <ele>144</ele>
        <time>2023-08-17T12:56:59Z</time>
      </trkpt>
      <trkpt lat="48.8041" lon="1.43777">
        <ele>144</ele>
        <time>2023-08-17T12:57:00Z</time>
      </trkpt>
      <trkpt lat="48.80406" lon="1.43779">
        <ele>144</ele>
        <time>2023-08-17T12:57:01Z</time>
      </trkpt>
      <trkpt lat="48.80389" lon="1.43787">
        <ele>144.2</ele>
        <time>2023-08-17T12:57:06Z</time>
      </trkpt>
      <trkpt lat="48.80373" lon="1.43796">
        <ele>144.4</ele>
        <time>2023-08-17T12:57:11Z</time>
      </trkpt>
      <trkpt lat="48.8037" lon="1.43797">
        <ele>144.4</ele>
        <time>2023-08-17T12:57:12Z</time>
      </trkpt>
      <trkpt lat="48.80346" lon="1.43806">
        <ele>144.6</ele>
        <time>2023-08-17T12:57:18Z</time>
      </trkpt>
      <trkpt lat="48.8034" lon="1.43809">
        <ele>144.6</ele>
        <time>2023-08-17T12:57:20Z</time>
      </trkpt>
      <trkpt lat="48.80331" lon="1.43815">
        <ele>144.6</ele>
        <time>2023-08-17T12:57:23Z</time>
      </trkpt>
      <trkpt lat="48.80327" lon="1.43817">
        <ele>144.6</ele>
        <time>2023-08-17T12:57:24Z</time>
      </trkpt>
      <trkpt lat="48.80323" lon="1.4382">
        <ele>144.4</ele>
        <time>2023-08-17T12:57:25Z</time>
      </trkpt>
      <trkpt lat="48.8032" lon="1.43822">
        <ele>144.4</ele>
        <time>2023-08-17T12:57:26Z</time>
      </trkpt>
      <trkpt lat="48.80312" lon="1.43826">
        <ele>144.6</ele>
        <time>2023-08-17T12:57:27Z</time>
      </trkpt>
      <trkpt lat="48.80309" lon="1.43827">
        <ele>144.6</ele>
        <time>2023-08-17T12:57:29Z</time>
      </trkpt>
      <trkpt lat="48.80284" lon="1.43824">
        <ele>144.4</ele>
        <time>2023-08-17T12:57:36Z</time>
      </trkpt>
      <trkpt lat="48.80278" lon="1.43823">
        <ele>144.4</ele>
        <time>2023-08-17T12:57:38Z</time>
      </trkpt>
      <trkpt lat="48.80274" lon="1.43824">
        <ele>144.6</ele>
        <time>2023-08-17T12:57:39Z</time>
      </trkpt>
      <trkpt lat="48.80266" lon="1.43822">
        <ele>144.6</ele>
        <time>2023-08-17T12:57:41Z</time>
      </trkpt>
      <trkpt lat="48.80257" lon="1.43818">
        <ele>144.6</ele>
        <time>2023-08-17T12:57:43Z</time>
      </trkpt>
      <trkpt lat="48.80254" lon="1.43814">
        <ele>144.6</ele>
        <time>2023-08-17T12:57:44Z</time>
      </trkpt>
      <trkpt lat="48.8025" lon="1.4381">
        <ele>144.6</ele>
        <time>2023-08-17T12:57:45Z</time>
      </trkpt>
      <trkpt lat="48.80248" lon="1.43805">
        <ele>144.6</ele>
        <time>2023-08-17T12:57:46Z</time>
      </trkpt>
      <trkpt lat="48.80245" lon="1.43802">
        <ele>144.6</ele>
        <time>2023-08-17T12:57:47Z</time>
      </trkpt>
      <trkpt lat="48.80241" lon="1.43799">
        <ele>144.6</ele>
        <time>2023-08-17T12:57:49Z</time>
      </trkpt>
      <trkpt lat="48.8024" lon="1.43795">
        <ele>144.6</ele>
        <time>2023-08-17T12:57:50Z</time>
      </trkpt>
      <trkpt lat="48.80238" lon="1.43792">
        <ele>144.6</ele>
        <time>2023-08-17T12:57:51Z</time>
      </trkpt>
      <trkpt lat="48.80234" lon="1.43787">
        <ele>144.6</ele>
        <time>2023-08-17T12:57:53Z</time>
      </trkpt>
      <trkpt lat="48.80233" lon="1.43785">
        <ele>144.6</ele>
        <time>2023-08-17T12:57:54Z</time>
      </trkpt>
      <trkpt lat="48.80231" lon="1.43781">
        <ele>144.6</ele>
        <time>2023-08-17T12:57:55Z</time>
      </trkpt>
      <trkpt lat="48.8023" lon="1.43778">
        <ele>144.6</ele>
        <time>2023-08-17T12:57:56Z</time>
      </trkpt>
      <trkpt lat="48.80228" lon="1.43775">
        <ele>144.6</ele>
        <time>2023-08-17T12:57:57Z</time>
      </trkpt>
      <trkpt lat="48.80225" lon="1.43772">
        <ele>144.6</ele>
        <time>2023-08-17T12:57:58Z</time>
      </trkpt>
      <trkpt lat="48.80223" lon="1.43768">
        <ele>144.6</ele>
        <time>2023-08-17T12:57:59Z</time>
      </trkpt>
      <trkpt lat="48.80221" lon="1.43764">
        <ele>144.6</ele>
        <time>2023-08-17T12:58:00Z</time>
      </trkpt>
      <trkpt lat="48.80219" lon="1.4376">
        <ele>144.6</ele>
        <time>2023-08-17T12:58:01Z</time>
      </trkpt>
      <trkpt lat="48.80216" lon="1.43753">
        <ele>144.6</ele>
        <time>2023-08-17T12:58:02Z</time>
      </trkpt>
      <trkpt lat="48.80216" lon="1.43753">
        <ele>144.6</ele>
        <time>2023-08-17T12:58:03Z</time>
      </trkpt>
      <trkpt lat="48.80214" lon="1.43749">
        <ele>144.6</ele>
        <time>2023-08-17T12:58:04Z</time>
      </trkpt>
      <trkpt lat="48.80213" lon="1.43747">
        <ele>144.6</ele>
        <time>2023-08-17T12:58:05Z</time>
      </trkpt>
      <trkpt lat="48.80212" lon="1.43743">
        <ele>144.6</ele>
        <time>2023-08-17T12:58:06Z</time>
      </trkpt>
      <trkpt lat="48.80212" lon="1.43739">
        <ele>144.6</ele>
        <time>2023-08-17T12:58:07Z</time>
      </trkpt>
      <trkpt lat="48.80212" lon="1.4373">
        <ele>144.4</ele>
        <time>2023-08-17T12:58:08Z</time>
      </trkpt>
      <trkpt lat="48.80212" lon="1.4373">
        <ele>144.4</ele>
        <time>2023-08-17T12:58:09Z</time>
      </trkpt>
      <trkpt lat="48.8021" lon="1.4372">
        <ele>144.4</ele>
        <time>2023-08-17T12:58:11Z</time>
      </trkpt>
      <trkpt lat="48.80209" lon="1.43716">
        <ele>144.4</ele>
        <time>2023-08-17T12:58:12Z</time>
      </trkpt>
      <trkpt lat="48.80207" lon="1.43706">
        <ele>144.4</ele>
        <time>2023-08-17T12:58:14Z</time>
      </trkpt>
      <trkpt lat="48.80199" lon="1.43691">
        <ele>144.4</ele>
        <time>2023-08-17T12:58:18Z</time>
      </trkpt>
      <trkpt lat="48.80196" lon="1.43688">
        <ele>144.6</ele>
        <time>2023-08-17T12:58:19Z</time>
      </trkpt>
      <trkpt lat="48.80193" lon="1.43683">
        <ele>144.6</ele>
        <time>2023-08-17T12:58:20Z</time>
      </trkpt>
      <trkpt lat="48.80174" lon="1.43653">
        <ele>144.6</ele>
        <time>2023-08-17T12:58:25Z</time>
      </trkpt>
      <trkpt lat="48.80171" lon="1.43647">
        <ele>144.6</ele>
        <time>2023-08-17T12:58:26Z</time>
      </trkpt>
      <trkpt lat="48.80155" lon="1.43622">
        <ele>144.6</ele>
        <time>2023-08-17T12:58:31Z</time>
      </trkpt>
      <trkpt lat="48.80138" lon="1.43605">
        <ele>144.4</ele>
        <time>2023-08-17T12:58:36Z</time>
      </trkpt>
      <trkpt lat="48.80134" lon="1.43603">
        <ele>144.4</ele>
        <time>2023-08-17T12:58:37Z</time>
      </trkpt>
      <trkpt lat="48.80109" lon="1.4359">
        <ele>144.2</ele>
        <time>2023-08-17T12:58:43Z</time>
      </trkpt>
      <trkpt lat="48.80083" lon="1.43579">
        <ele>144</ele>
        <time>2023-08-17T12:58:50Z</time>
      </trkpt>
      <trkpt lat="48.80083" lon="1.43579">
        <ele>144</ele>
        <time>2023-08-17T12:58:51Z</time>
      </trkpt>
      <trkpt lat="48.8008" lon="1.43577">
        <ele>144</ele>
        <time>2023-08-17T12:58:52Z</time>
      </trkpt>
      <trkpt lat="48.80078" lon="1.43572">
        <ele>144</ele>
        <time>2023-08-17T12:58:53Z</time>
      </trkpt>
      <trkpt lat="48.80078" lon="1.43572">
        <ele>144</ele>
        <time>2023-08-17T12:58:54Z</time>
      </trkpt>
      <trkpt lat="48.80073" lon="1.43567">
        <ele>144</ele>
        <time>2023-08-17T12:58:55Z</time>
      </trkpt>
      <trkpt lat="48.80068" lon="1.43563">
        <ele>144</ele>
        <time>2023-08-17T12:58:58Z</time>
      </trkpt>
      <trkpt lat="48.80064" lon="1.43562">
        <ele>144</ele>
        <time>2023-08-17T12:58:59Z</time>
      </trkpt>
      <trkpt lat="48.8005" lon="1.43555">
        <ele>144</ele>
        <time>2023-08-17T12:59:03Z</time>
      </trkpt>
      <trkpt lat="48.80043" lon="1.43551">
        <ele>144</ele>
        <time>2023-08-17T12:59:04Z</time>
      </trkpt>
      <trkpt lat="48.80038" lon="1.43547">
        <ele>144</ele>
        <time>2023-08-17T12:59:07Z</time>
      </trkpt>
      <trkpt lat="48.80036" lon="1.43543">
        <ele>144</ele>
        <time>2023-08-17T12:59:08Z</time>
      </trkpt>
      <trkpt lat="48.80036" lon="1.43539">
        <ele>144</ele>
        <time>2023-08-17T12:59:09Z</time>
      </trkpt>
      <trkpt lat="48.80037" lon="1.43528">
        <ele>144</ele>
        <time>2023-08-17T12:59:11Z</time>
      </trkpt>
      <trkpt lat="48.80039" lon="1.43524">
        <ele>144</ele>
        <time>2023-08-17T12:59:12Z</time>
      </trkpt>
      <trkpt lat="48.8004" lon="1.43518">
        <ele>144</ele>
        <time>2023-08-17T12:59:13Z</time>
      </trkpt>
      <trkpt lat="48.80042" lon="1.43512">
        <ele>144</ele>
        <time>2023-08-17T12:59:14Z</time>
      </trkpt>
      <trkpt lat="48.80043" lon="1.43495">
        <ele>144</ele>
        <time>2023-08-17T12:59:17Z</time>
      </trkpt>
      <trkpt lat="48.80047" lon="1.43471">
        <ele>144</ele>
        <time>2023-08-17T12:59:21Z</time>
      </trkpt>
      <trkpt lat="48.80049" lon="1.43466">
        <ele>144.2</ele>
        <time>2023-08-17T12:59:22Z</time>
      </trkpt>
      <trkpt lat="48.80051" lon="1.43452">
        <ele>144.2</ele>
        <time>2023-08-17T12:59:23Z</time>
      </trkpt>
      <trkpt lat="48.80054" lon="1.43435">
        <ele>144</ele>
        <time>2023-08-17T12:59:27Z</time>
      </trkpt>
      <trkpt lat="48.80055" lon="1.43429">
        <ele>144</ele>
        <time>2023-08-17T12:59:28Z</time>
      </trkpt>
      <trkpt lat="48.80059" lon="1.43414">
        <ele>144</ele>
        <time>2023-08-17T12:59:29Z</time>
      </trkpt>
      <trkpt lat="48.80059" lon="1.43414">
        <ele>144</ele>
        <time>2023-08-17T12:59:30Z</time>
      </trkpt>
      <trkpt lat="48.80065" lon="1.43377">
        <ele>143.8</ele>
        <time>2023-08-17T12:59:35Z</time>
      </trkpt>
      <trkpt lat="48.80066" lon="1.43368">
        <ele>143.8</ele>
        <time>2023-08-17T12:59:37Z</time>
      </trkpt>
      <trkpt lat="48.8007" lon="1.43351">
        <ele>143.6</ele>
        <time>2023-08-17T12:59:40Z</time>
      </trkpt>
      <trkpt lat="48.80072" lon="1.4334">
        <ele>143.6</ele>
        <time>2023-08-17T12:59:41Z</time>
      </trkpt>
      <trkpt lat="48.80073" lon="1.43335">
        <ele>143.6</ele>
        <time>2023-08-17T12:59:42Z</time>
      </trkpt>
      <trkpt lat="48.80074" lon="1.43331">
        <ele>143.6</ele>
        <time>2023-08-17T12:59:43Z</time>
      </trkpt>
      <trkpt lat="48.80074" lon="1.43331">
        <ele>143.6</ele>
        <time>2023-08-17T12:59:44Z</time>
      </trkpt>
      <trkpt lat="48.80079" lon="1.43314">
        <ele>143.4</ele>
        <time>2023-08-17T12:59:46Z</time>
      </trkpt>
      <trkpt lat="48.8008" lon="1.4331">
        <ele>143.4</ele>
        <time>2023-08-17T12:59:47Z</time>
      </trkpt>
      <trkpt lat="48.80079" lon="1.43306">
        <ele>143.4</ele>
        <time>2023-08-17T12:59:48Z</time>
      </trkpt>
      <trkpt lat="48.80079" lon="1.43297">
        <ele>143.2</ele>
        <time>2023-08-17T12:59:49Z</time>
      </trkpt>
      <trkpt lat="48.80082" lon="1.43291">
        <ele>143.2</ele>
        <time>2023-08-17T12:59:50Z</time>
      </trkpt>
      <trkpt lat="48.80083" lon="1.43285">
        <ele>143.4</ele>
        <time>2023-08-17T12:59:51Z</time>
      </trkpt>
      <trkpt lat="48.80084" lon="1.43279">
        <ele>143.4</ele>
        <time>2023-08-17T12:59:52Z</time>
      </trkpt>
      <trkpt lat="48.80084" lon="1.43274">
        <ele>143.4</ele>
        <time>2023-08-17T12:59:53Z</time>
      </trkpt>
      <trkpt lat="48.80084" lon="1.43274">
        <ele>143.6</ele>
        <time>2023-08-17T12:59:54Z</time>
      </trkpt>
      <trkpt lat="48.80091" lon="1.43233">
        <ele>143.4</ele>
        <time>2023-08-17T13:00:02Z</time>
      </trkpt>
      <trkpt lat="48.80096" lon="1.43211">
        <ele>143.6</ele>
        <time>2023-08-17T13:00:06Z</time>
      </trkpt>
      <trkpt lat="48.801" lon="1.43187">
        <ele>143.6</ele>
        <time>2023-08-17T13:00:09Z</time>
      </trkpt>
      <trkpt lat="48.80108" lon="1.43145">
        <ele>143.8</ele>
        <time>2023-08-17T13:00:17Z</time>
      </trkpt>
      <trkpt lat="48.80109" lon="1.43139">
        <ele>143.8</ele>
        <time>2023-08-17T13:00:18Z</time>
      </trkpt>
      <trkpt lat="48.8011" lon="1.43133">
        <ele>143.8</ele>
        <time>2023-08-17T13:00:19Z</time>
      </trkpt>
      <trkpt lat="48.80118" lon="1.43099">
        <ele>143.8</ele>
        <time>2023-08-17T13:00:23Z</time>
      </trkpt>
      <trkpt lat="48.80128" lon="1.43043">
        <ele>143.8</ele>
        <time>2023-08-17T13:00:31Z</time>
      </trkpt>
      <trkpt lat="48.80132" lon="1.43028">
        <ele>143.8</ele>
        <time>2023-08-17T13:00:33Z</time>
      </trkpt>
      <trkpt lat="48.80133" lon="1.43023">
        <ele>143.8</ele>
        <time>2023-08-17T13:00:35Z</time>
      </trkpt>
      <trkpt lat="48.80135" lon="1.43015">
        <ele>143.8</ele>
        <time>2023-08-17T13:00:36Z</time>
      </trkpt>
      <trkpt lat="48.80135" lon="1.43001">
        <ele>143.8</ele>
        <time>2023-08-17T13:00:37Z</time>
      </trkpt>
      <trkpt lat="48.80135" lon="1.43001">
        <ele>143.8</ele>
        <time>2023-08-17T13:00:38Z</time>
      </trkpt>
      <trkpt lat="48.80135" lon="1.42995">
        <ele>143.8</ele>
        <time>2023-08-17T13:00:39Z</time>
      </trkpt>
      <trkpt lat="48.80136" lon="1.42989">
        <ele>143.8</ele>
        <time>2023-08-17T13:00:40Z</time>
      </trkpt>
      <trkpt lat="48.80139" lon="1.42984">
        <ele>143.8</ele>
        <time>2023-08-17T13:00:41Z</time>
      </trkpt>
      <trkpt lat="48.80143" lon="1.42977">
        <ele>143.8</ele>
        <time>2023-08-17T13:00:42Z</time>
      </trkpt>
      <trkpt lat="48.80144" lon="1.42975">
        <ele>143.8</ele>
        <time>2023-08-17T13:00:43Z</time>
      </trkpt>
      <trkpt lat="48.80143" lon="1.42972">
        <ele>143.8</ele>
        <time>2023-08-17T13:00:44Z</time>
      </trkpt>
      <trkpt lat="48.80143" lon="1.42969">
        <ele>144</ele>
        <time>2023-08-17T13:00:45Z</time>
      </trkpt>
      <trkpt lat="48.80144" lon="1.42966">
        <ele>144</ele>
        <time>2023-08-17T13:00:46Z</time>
      </trkpt>
      <trkpt lat="48.80144" lon="1.42966">
        <ele>144</ele>
        <time>2023-08-17T13:00:47Z</time>
      </trkpt>
      <trkpt lat="48.80147" lon="1.4296">
        <ele>144</ele>
        <time>2023-08-17T13:00:48Z</time>
      </trkpt>
      <trkpt lat="48.80149" lon="1.42955">
        <ele>144</ele>
        <time>2023-08-17T13:00:49Z</time>
      </trkpt>
      <trkpt lat="48.80149" lon="1.42947">
        <ele>144.2</ele>
        <time>2023-08-17T13:00:51Z</time>
      </trkpt>
      <trkpt lat="48.80152" lon="1.42932">
        <ele>144.2</ele>
        <time>2023-08-17T13:00:55Z</time>
      </trkpt>
      <trkpt lat="48.80152" lon="1.42927">
        <ele>144.2</ele>
        <time>2023-08-17T13:00:56Z</time>
      </trkpt>
      <trkpt lat="48.80155" lon="1.42919">
        <ele>144.2</ele>
        <time>2023-08-17T13:00:57Z</time>
      </trkpt>
      <trkpt lat="48.80162" lon="1.42879">
        <ele>144.4</ele>
        <time>2023-08-17T13:01:06Z</time>
      </trkpt>
      <trkpt lat="48.80169" lon="1.42845">
        <ele>144.2</ele>
        <time>2023-08-17T13:01:12Z</time>
      </trkpt>
      <trkpt lat="48.80178" lon="1.42797">
        <ele>143.8</ele>
        <time>2023-08-17T13:01:21Z</time>
      </trkpt>
      <trkpt lat="48.80188" lon="1.42749">
        <ele>143.6</ele>
        <time>2023-08-17T13:01:28Z</time>
      </trkpt>
      <trkpt lat="48.80191" lon="1.42734">
        <ele>143.6</ele>
        <time>2023-08-17T13:01:30Z</time>
      </trkpt>
      <trkpt lat="48.80194" lon="1.4272">
        <ele>143.6</ele>
        <time>2023-08-17T13:01:32Z</time>
      </trkpt>
      <trkpt lat="48.80201" lon="1.42684">
        <ele>143.4</ele>
        <time>2023-08-17T13:01:37Z</time>
      </trkpt>
      <trkpt lat="48.80203" lon="1.42669">
        <ele>142.8</ele>
        <time>2023-08-17T13:01:40Z</time>
      </trkpt>
      <trkpt lat="48.80208" lon="1.42649">
        <ele>142.8</ele>
        <time>2023-08-17T13:01:42Z</time>
      </trkpt>
      <trkpt lat="48.80211" lon="1.42627">
        <ele>142.6</ele>
        <time>2023-08-17T13:01:45Z</time>
      </trkpt>
      <trkpt lat="48.80216" lon="1.42594">
        <ele>142.4</ele>
        <time>2023-08-17T13:01:50Z</time>
      </trkpt>
      <trkpt lat="48.80218" lon="1.42586">
        <ele>142.4</ele>
        <time>2023-08-17T13:01:51Z</time>
      </trkpt>
      <trkpt lat="48.80219" lon="1.42579">
        <ele>142.4</ele>
        <time>2023-08-17T13:01:52Z</time>
      </trkpt>
      <trkpt lat="48.80219" lon="1.42579">
        <ele>142.4</ele>
        <time>2023-08-17T13:01:53Z</time>
      </trkpt>
      <trkpt lat="48.80219" lon="1.42572">
        <ele>142.4</ele>
        <time>2023-08-17T13:01:54Z</time>
      </trkpt>
      <trkpt lat="48.8022" lon="1.42563">
        <ele>142.6</ele>
        <time>2023-08-17T13:01:55Z</time>
      </trkpt>
      <trkpt lat="48.80229" lon="1.42523">
        <ele>142.6</ele>
        <time>2023-08-17T13:02:01Z</time>
      </trkpt>
      <trkpt lat="48.80229" lon="1.42523">
        <ele>142.6</ele>
        <time>2023-08-17T13:02:02Z</time>
      </trkpt>
      <trkpt lat="48.80232" lon="1.4251">
        <ele>142.6</ele>
        <time>2023-08-17T13:02:03Z</time>
      </trkpt>
      <trkpt lat="48.80233" lon="1.42505">
        <ele>142.6</ele>
        <time>2023-08-17T13:02:04Z</time>
      </trkpt>
      <trkpt lat="48.80234" lon="1.425">
        <ele>142.4</ele>
        <time>2023-08-17T13:02:06Z</time>
      </trkpt>
      <trkpt lat="48.80235" lon="1.42493">
        <ele>142.4</ele>
        <time>2023-08-17T13:02:07Z</time>
      </trkpt>
      <trkpt lat="48.80238" lon="1.42482">
        <ele>142.4</ele>
        <time>2023-08-17T13:02:08Z</time>
      </trkpt>
      <trkpt lat="48.80239" lon="1.42476">
        <ele>142.6</ele>
        <time>2023-08-17T13:02:10Z</time>
      </trkpt>
      <trkpt lat="48.80242" lon="1.42464">
        <ele>142.8</ele>
        <time>2023-08-17T13:02:11Z</time>
      </trkpt>
      <trkpt lat="48.80243" lon="1.42453">
        <ele>142.6</ele>
        <time>2023-08-17T13:02:13Z</time>
      </trkpt>
      <trkpt lat="48.80242" lon="1.42451">
        <ele>142.6</ele>
        <time>2023-08-17T13:02:14Z</time>
      </trkpt>
      <trkpt lat="48.80242" lon="1.42451">
        <ele>142.8</ele>
        <time>2023-08-17T13:02:15Z</time>
      </trkpt>
      <trkpt lat="48.80238" lon="1.42449">
        <ele>142.8</ele>
        <time>2023-08-17T13:02:16Z</time>
      </trkpt>
      <trkpt lat="48.80236" lon="1.42449">
        <ele>142.8</ele>
        <time>2023-08-17T13:02:17Z</time>
      </trkpt>
      <trkpt lat="48.80234" lon="1.42448">
        <ele>142.8</ele>
        <time>2023-08-17T13:02:18Z</time>
      </trkpt>
      <trkpt lat="48.80232" lon="1.42447">
        <ele>142.8</ele>
        <time>2023-08-17T13:02:19Z</time>
      </trkpt>
      <trkpt lat="48.80232" lon="1.42447">
        <ele>143</ele>
        <time>2023-08-17T13:02:20Z</time>
      </trkpt>
      <trkpt lat="48.80224" lon="1.42445">
        <ele>143.4</ele>
        <time>2023-08-17T13:02:23Z</time>
      </trkpt>
      <trkpt lat="48.80222" lon="1.42445">
        <ele>143.4</ele>
        <time>2023-08-17T13:02:24Z</time>
      </trkpt>
      <trkpt lat="48.8022" lon="1.42444">
        <ele>143.4</ele>
        <time>2023-08-17T13:02:25Z</time>
      </trkpt>
      <trkpt lat="48.80211" lon="1.42444">
        <ele>143.6</ele>
        <time>2023-08-17T13:02:28Z</time>
      </trkpt>
      <trkpt lat="48.80208" lon="1.42444">
        <ele>143.6</ele>
        <time>2023-08-17T13:02:29Z</time>
      </trkpt>
      <trkpt lat="48.80196" lon="1.42443">
        <ele>143.6</ele>
        <time>2023-08-17T13:02:32Z</time>
      </trkpt>
      <trkpt lat="48.80193" lon="1.42443">
        <ele>143.6</ele>
        <time>2023-08-17T13:02:33Z</time>
      </trkpt>
      <trkpt lat="48.80189" lon="1.42443">
        <ele>143.8</ele>
        <time>2023-08-17T13:02:34Z</time>
      </trkpt>
      <trkpt lat="48.8018" lon="1.42443">
        <ele>143.8</ele>
        <time>2023-08-17T13:02:37Z</time>
      </trkpt>
      <trkpt lat="48.80132" lon="1.42444">
        <ele>143.8</ele>
        <time>2023-08-17T13:02:48Z</time>
      </trkpt>
      <trkpt lat="48.80123" lon="1.42445">
        <ele>143.6</ele>
        <time>2023-08-17T13:02:51Z</time>
      </trkpt>
      <trkpt lat="48.801" lon="1.42444">
        <ele>143.4</ele>
        <time>2023-08-17T13:02:57Z</time>
      </trkpt>
      <trkpt lat="48.80073" lon="1.42443">
        <ele>142.8</ele>
        <time>2023-08-17T13:03:04Z</time>
      </trkpt>
      <trkpt lat="48.8007" lon="1.42443">
        <ele>142.8</ele>
        <time>2023-08-17T13:03:05Z</time>
      </trkpt>
      <trkpt lat="48.80062" lon="1.42443">
        <ele>142.8</ele>
        <time>2023-08-17T13:03:06Z</time>
      </trkpt>
      <trkpt lat="48.80062" lon="1.42443">
        <ele>142.8</ele>
        <time>2023-08-17T13:03:07Z</time>
      </trkpt>
      <trkpt lat="48.80056" lon="1.42443">
        <ele>142.8</ele>
        <time>2023-08-17T13:03:08Z</time>
      </trkpt>
      <trkpt lat="48.80053" lon="1.42443">
        <ele>142.6</ele>
        <time>2023-08-17T13:03:09Z</time>
      </trkpt>
      <trkpt lat="48.80053" lon="1.42443">
        <ele>142.6</ele>
        <time>2023-08-17T13:03:10Z</time>
      </trkpt>
      <trkpt lat="48.80049" lon="1.42443">
        <ele>142.6</ele>
        <time>2023-08-17T13:03:11Z</time>
      </trkpt>
      <trkpt lat="48.80038" lon="1.42442">
        <ele>142.4</ele>
        <time>2023-08-17T13:03:15Z</time>
      </trkpt>
      <trkpt lat="48.80038" lon="1.42442">
        <ele>142.6</ele>
        <time>2023-08-17T13:03:16Z</time>
      </trkpt>
      <trkpt lat="48.80037" lon="1.42443">
        <ele>142.4</ele>
        <time>2023-08-17T13:03:21Z</time>
      </trkpt>
      <trkpt lat="48.80036" lon="1.42443">
        <ele>142.2</ele>
        <time>2023-08-17T13:03:25Z</time>
      </trkpt>
      <trkpt lat="48.80035" lon="1.42441">
        <ele>142</ele>
        <time>2023-08-17T13:03:32Z</time>
      </trkpt>
      <trkpt lat="48.80033" lon="1.42442">
        <ele>142</ele>
        <time>2023-08-17T13:03:34Z</time>
      </trkpt>
      <trkpt lat="48.80028" lon="1.42442">
        <ele>142</ele>
        <time>2023-08-17T13:03:37Z</time>
      </trkpt>
      <trkpt lat="48.80007" lon="1.42442">
        <ele>142.2</ele>
        <time>2023-08-17T13:03:44Z</time>
      </trkpt>
      <trkpt lat="48.79998" lon="1.4244">
        <ele>142.2</ele>
        <time>2023-08-17T13:03:47Z</time>
      </trkpt>
      <trkpt lat="48.79996" lon="1.42437">
        <ele>142.2</ele>
        <time>2023-08-17T13:03:48Z</time>
      </trkpt>
      <trkpt lat="48.79996" lon="1.42434">
        <ele>142.4</ele>
        <time>2023-08-17T13:03:49Z</time>
      </trkpt>
      <trkpt lat="48.80004" lon="1.42422">
        <ele>142.4</ele>
        <time>2023-08-17T13:03:53Z</time>
      </trkpt>
      <trkpt lat="48.80006" lon="1.4242">
        <ele>142.4</ele>
        <time>2023-08-17T13:03:54Z</time>
      </trkpt>
      <trkpt lat="48.80008" lon="1.42418">
        <ele>142.4</ele>
        <time>2023-08-17T13:03:55Z</time>
      </trkpt>
      <trkpt lat="48.80011" lon="1.42416">
        <ele>142.4</ele>
        <time>2023-08-17T13:03:56Z</time>
      </trkpt>
      <trkpt lat="48.80014" lon="1.42413">
        <ele>142.4</ele>
        <time>2023-08-17T13:03:57Z</time>
      </trkpt>
      <trkpt lat="48.80016" lon="1.42411">
        <ele>142.4</ele>
        <time>2023-08-17T13:03:58Z</time>
      </trkpt>
      <trkpt lat="48.80016" lon="1.42411">
        <ele>142.6</ele>
        <time>2023-08-17T13:03:59Z</time>
      </trkpt>
      <trkpt lat="48.80029" lon="1.42403">
        <ele>142.6</ele>
        <time>2023-08-17T13:04:02Z</time>
      </trkpt>
      <trkpt lat="48.80066" lon="1.42381">
        <ele>142.8</ele>
        <time>2023-08-17T13:04:13Z</time>
      </trkpt>
      <trkpt lat="48.80071" lon="1.42378">
        <ele>142.6</ele>
        <time>2023-08-17T13:04:16Z</time>
      </trkpt>
      <trkpt lat="48.80077" lon="1.42374">
        <ele>142.6</ele>
        <time>2023-08-17T13:04:17Z</time>
      </trkpt>
      <trkpt lat="48.8008" lon="1.42372">
        <ele>142.6</ele>
        <time>2023-08-17T13:04:18Z</time>
      </trkpt>
      <trkpt lat="48.8008" lon="1.42372">
        <ele>142.6</ele>
        <time>2023-08-17T13:04:19Z</time>
      </trkpt>
      <trkpt lat="48.80083" lon="1.42371">
        <ele>142.6</ele>
        <time>2023-08-17T13:04:20Z</time>
      </trkpt>
      <trkpt lat="48.80089" lon="1.42368">
        <ele>142.8</ele>
        <time>2023-08-17T13:04:21Z</time>
      </trkpt>
      <trkpt lat="48.80092" lon="1.42366">
        <ele>142.6</ele>
        <time>2023-08-17T13:04:22Z</time>
      </trkpt>
      <trkpt lat="48.80092" lon="1.42366">
        <ele>142.8</ele>
        <time>2023-08-17T13:04:23Z</time>
      </trkpt>
      <trkpt lat="48.80098" lon="1.42362">
        <ele>143</ele>
        <time>2023-08-17T13:04:24Z</time>
      </trkpt>
      <trkpt lat="48.80098" lon="1.42362">
        <ele>143</ele>
        <time>2023-08-17T13:04:25Z</time>
      </trkpt>
      <trkpt lat="48.80109" lon="1.42353">
        <ele>143</ele>
        <time>2023-08-17T13:04:28Z</time>
      </trkpt>
      <trkpt lat="48.80112" lon="1.42351">
        <ele>143</ele>
        <time>2023-08-17T13:04:29Z</time>
      </trkpt>
      <trkpt lat="48.80115" lon="1.42348">
        <ele>143</ele>
        <time>2023-08-17T13:04:30Z</time>
      </trkpt>
      <trkpt lat="48.80117" lon="1.42346">
        <ele>142.8</ele>
        <time>2023-08-17T13:04:31Z</time>
      </trkpt>
      <trkpt lat="48.80117" lon="1.42346">
        <ele>143</ele>
        <time>2023-08-17T13:04:32Z</time>
      </trkpt>
      <trkpt lat="48.80121" lon="1.42337">
        <ele>143</ele>
        <time>2023-08-17T13:04:33Z</time>
      </trkpt>
      <trkpt lat="48.80121" lon="1.42331">
        <ele>143</ele>
        <time>2023-08-17T13:04:34Z</time>
      </trkpt>
      <trkpt lat="48.8012" lon="1.42319">
        <ele>143.2</ele>
        <time>2023-08-17T13:04:36Z</time>
      </trkpt>
      <trkpt lat="48.80118" lon="1.42313">
        <ele>143.4</ele>
        <time>2023-08-17T13:04:37Z</time>
      </trkpt>
      <trkpt lat="48.80118" lon="1.42307">
        <ele>143.2</ele>
        <time>2023-08-17T13:04:38Z</time>
      </trkpt>
      <trkpt lat="48.80117" lon="1.42301">
        <ele>143.4</ele>
        <time>2023-08-17T13:04:39Z</time>
      </trkpt>
      <trkpt lat="48.80114" lon="1.42291">
        <ele>143.6</ele>
        <time>2023-08-17T13:04:42Z</time>
      </trkpt>
      <trkpt lat="48.80108" lon="1.42269">
        <ele>143.6</ele>
        <time>2023-08-17T13:04:45Z</time>
      </trkpt>
      <trkpt lat="48.80106" lon="1.42258">
        <ele>143.6</ele>
        <time>2023-08-17T13:04:47Z</time>
      </trkpt>
      <trkpt lat="48.80105" lon="1.42253">
        <ele>143.6</ele>
        <time>2023-08-17T13:04:48Z</time>
      </trkpt>
      <trkpt lat="48.80101" lon="1.42241">
        <ele>143.6</ele>
        <time>2023-08-17T13:04:50Z</time>
      </trkpt>
      <trkpt lat="48.80099" lon="1.42236">
        <ele>143.6</ele>
        <time>2023-08-17T13:04:51Z</time>
      </trkpt>
      <trkpt lat="48.80087" lon="1.42198">
        <ele>143.6</ele>
        <time>2023-08-17T13:04:58Z</time>
      </trkpt>
      <trkpt lat="48.80075" lon="1.42159">
        <ele>143.6</ele>
        <time>2023-08-17T13:05:05Z</time>
      </trkpt>
      <trkpt lat="48.80072" lon="1.42148">
        <ele>143.6</ele>
        <time>2023-08-17T13:05:07Z</time>
      </trkpt>
      <trkpt lat="48.80067" lon="1.42138">
        <ele>143.6</ele>
        <time>2023-08-17T13:05:10Z</time>
      </trkpt>
      <trkpt lat="48.80065" lon="1.42134">
        <ele>143.6</ele>
        <time>2023-08-17T13:05:11Z</time>
      </trkpt>
      <trkpt lat="48.80061" lon="1.42122">
        <ele>143.6</ele>
        <time>2023-08-17T13:05:12Z</time>
      </trkpt>
      <trkpt lat="48.80056" lon="1.42108">
        <ele>143.6</ele>
        <time>2023-08-17T13:05:15Z</time>
      </trkpt>
      <trkpt lat="48.80053" lon="1.42103">
        <ele>143.6</ele>
        <time>2023-08-17T13:05:16Z</time>
      </trkpt>
      <trkpt lat="48.80053" lon="1.42103">
        <ele>143.8</ele>
        <time>2023-08-17T13:05:17Z</time>
      </trkpt>
      <trkpt lat="48.80051" lon="1.42098">
        <ele>143.8</ele>
        <time>2023-08-17T13:05:18Z</time>
      </trkpt>
      <trkpt lat="48.8005" lon="1.42092">
        <ele>143.8</ele>
        <time>2023-08-17T13:05:19Z</time>
      </trkpt>
      <trkpt lat="48.80049" lon="1.42088">
        <ele>143.8</ele>
        <time>2023-08-17T13:05:20Z</time>
      </trkpt>
      <trkpt lat="48.80048" lon="1.42084">
        <ele>143.8</ele>
        <time>2023-08-17T13:05:21Z</time>
      </trkpt>
      <trkpt lat="48.80045" lon="1.42073">
        <ele>143.8</ele>
        <time>2023-08-17T13:05:22Z</time>
      </trkpt>
      <trkpt lat="48.80045" lon="1.42069">
        <ele>143.8</ele>
        <time>2023-08-17T13:05:23Z</time>
      </trkpt>
      <trkpt lat="48.80045" lon="1.42069">
        <ele>143.8</ele>
        <time>2023-08-17T13:05:24Z</time>
      </trkpt>
      <trkpt lat="48.80045" lon="1.42064">
        <ele>143.8</ele>
        <time>2023-08-17T13:05:25Z</time>
      </trkpt>
      <trkpt lat="48.80046" lon="1.42059">
        <ele>143.8</ele>
        <time>2023-08-17T13:05:26Z</time>
      </trkpt>
      <trkpt lat="48.80048" lon="1.42052">
        <ele>143.8</ele>
        <time>2023-08-17T13:05:27Z</time>
      </trkpt>
      <trkpt lat="48.80048" lon="1.42048">
        <ele>143.8</ele>
        <time>2023-08-17T13:05:28Z</time>
      </trkpt>
      <trkpt lat="48.80048" lon="1.42043">
        <ele>143.8</ele>
        <time>2023-08-17T13:05:29Z</time>
      </trkpt>
      <trkpt lat="48.80048" lon="1.42043">
        <ele>143.8</ele>
        <time>2023-08-17T13:05:30Z</time>
      </trkpt>
      <trkpt lat="48.80046" lon="1.42032">
        <ele>143.8</ele>
        <time>2023-08-17T13:05:31Z</time>
      </trkpt>
      <trkpt lat="48.80044" lon="1.42027">
        <ele>143.8</ele>
        <time>2023-08-17T13:05:32Z</time>
      </trkpt>
      <trkpt lat="48.80043" lon="1.42022">
        <ele>143.8</ele>
        <time>2023-08-17T13:05:33Z</time>
      </trkpt>
      <trkpt lat="48.80041" lon="1.42008">
        <ele>143.8</ele>
        <time>2023-08-17T13:05:36Z</time>
      </trkpt>
      <trkpt lat="48.80034" lon="1.41968">
        <ele>143.8</ele>
        <time>2023-08-17T13:05:44Z</time>
      </trkpt>
      <trkpt lat="48.80035" lon="1.41964">
        <ele>143.8</ele>
        <time>2023-08-17T13:05:45Z</time>
      </trkpt>
      <trkpt lat="48.80032" lon="1.41937">
        <ele>143.8</ele>
        <time>2023-08-17T13:05:50Z</time>
      </trkpt>
      <trkpt lat="48.80031" lon="1.41931">
        <ele>143.6</ele>
        <time>2023-08-17T13:05:51Z</time>
      </trkpt>
      <trkpt lat="48.80026" lon="1.41893">
        <ele>143.6</ele>
        <time>2023-08-17T13:05:59Z</time>
      </trkpt>
      <trkpt lat="48.80025" lon="1.4187">
        <ele>143.6</ele>
        <time>2023-08-17T13:06:03Z</time>
      </trkpt>
      <trkpt lat="48.80024" lon="1.41863">
        <ele>143.6</ele>
        <time>2023-08-17T13:06:04Z</time>
      </trkpt>
      <trkpt lat="48.80024" lon="1.41852">
        <ele>143.6</ele>
        <time>2023-08-17T13:06:05Z</time>
      </trkpt>
      <trkpt lat="48.80024" lon="1.41831">
        <ele>143.8</ele>
        <time>2023-08-17T13:06:08Z</time>
      </trkpt>
      <trkpt lat="48.80023" lon="1.41779">
        <ele>143.8</ele>
        <time>2023-08-17T13:06:17Z</time>
      </trkpt>
      <trkpt lat="48.80023" lon="1.41779">
        <ele>143.8</ele>
        <time>2023-08-17T13:06:18Z</time>
      </trkpt>
      <trkpt lat="48.80023" lon="1.41774">
        <ele>143.8</ele>
        <time>2023-08-17T13:06:19Z</time>
      </trkpt>
      <trkpt lat="48.80023" lon="1.41766">
        <ele>143.8</ele>
        <time>2023-08-17T13:06:20Z</time>
      </trkpt>
      <trkpt lat="48.80023" lon="1.41762">
        <ele>143.8</ele>
        <time>2023-08-17T13:06:21Z</time>
      </trkpt>
      <trkpt lat="48.80023" lon="1.41758">
        <ele>143.8</ele>
        <time>2023-08-17T13:06:22Z</time>
      </trkpt>
      <trkpt lat="48.80023" lon="1.41758">
        <ele>143.8</ele>
        <time>2023-08-17T13:06:23Z</time>
      </trkpt>
      <trkpt lat="48.80024" lon="1.41757">
        <ele>144</ele>
        <time>2023-08-17T13:06:24Z</time>
      </trkpt>
      <trkpt lat="48.80024" lon="1.41756">
        <ele>144</ele>
        <time>2023-08-17T13:06:26Z</time>
      </trkpt>
      <trkpt lat="48.80024" lon="1.41756">
        <ele>144</ele>
        <time>2023-08-17T13:06:27Z</time>
      </trkpt>
      <trkpt lat="48.80026" lon="1.41756">
        <ele>143.8</ele>
        <time>2023-08-17T13:07:13Z</time>
      </trkpt>
      <trkpt lat="48.80026" lon="1.41749">
        <ele>144.2</ele>
        <time>2023-08-17T13:07:19Z</time>
      </trkpt>
      <trkpt lat="48.80025" lon="1.41725">
        <ele>144.4</ele>
        <time>2023-08-17T13:07:25Z</time>
      </trkpt>
      <trkpt lat="48.80025" lon="1.41716">
        <ele>144.4</ele>
        <time>2023-08-17T13:07:26Z</time>
      </trkpt>
      <trkpt lat="48.80025" lon="1.41716">
        <ele>144.4</ele>
        <time>2023-08-17T13:07:27Z</time>
      </trkpt>
      <trkpt lat="48.80025" lon="1.41707">
        <ele>144.2</ele>
        <time>2023-08-17T13:07:28Z</time>
      </trkpt>
      <trkpt lat="48.80022" lon="1.41694">
        <ele>144.2</ele>
        <time>2023-08-17T13:07:31Z</time>
      </trkpt>
      <trkpt lat="48.8002" lon="1.41687">
        <ele>144.2</ele>
        <time>2023-08-17T13:07:33Z</time>
      </trkpt>
      <trkpt lat="48.8002" lon="1.41682">
        <ele>144.2</ele>
        <time>2023-08-17T13:07:34Z</time>
      </trkpt>
      <trkpt lat="48.8002" lon="1.41677">
        <ele>144.2</ele>
        <time>2023-08-17T13:07:35Z</time>
      </trkpt>
      <trkpt lat="48.80019" lon="1.41672">
        <ele>144.2</ele>
        <time>2023-08-17T13:07:36Z</time>
      </trkpt>
      <trkpt lat="48.80013" lon="1.41631">
        <ele>144.2</ele>
        <time>2023-08-17T13:07:43Z</time>
      </trkpt>
      <trkpt lat="48.80013" lon="1.41631">
        <ele>144.2</ele>
        <time>2023-08-17T13:07:44Z</time>
      </trkpt>
      <trkpt lat="48.80005" lon="1.41581">
        <ele>144.4</ele>
        <time>2023-08-17T13:07:51Z</time>
      </trkpt>
      <trkpt lat="48.79999" lon="1.41578">
        <ele>144.4</ele>
        <time>2023-08-17T13:07:53Z</time>
      </trkpt>
      <trkpt lat="48.79999" lon="1.41578">
        <ele>144.4</ele>
        <time>2023-08-17T13:07:54Z</time>
      </trkpt>
      <trkpt lat="48.7998" lon="1.41569">
        <ele>144.4</ele>
        <time>2023-08-17T13:08:00Z</time>
      </trkpt>
      <trkpt lat="48.79979" lon="1.41561">
        <ele>144.4</ele>
        <time>2023-08-17T13:08:01Z</time>
      </trkpt>
      <trkpt lat="48.79978" lon="1.41555">
        <ele>144.4</ele>
        <time>2023-08-17T13:08:02Z</time>
      </trkpt>
      <trkpt lat="48.79979" lon="1.4155">
        <ele>144.4</ele>
        <time>2023-08-17T13:08:03Z</time>
      </trkpt>
      <trkpt lat="48.79979" lon="1.41542">
        <ele>144.4</ele>
        <time>2023-08-17T13:08:05Z</time>
      </trkpt>
      <trkpt lat="48.79978" lon="1.4153">
        <ele>144.4</ele>
        <time>2023-08-17T13:08:07Z</time>
      </trkpt>
      <trkpt lat="48.79978" lon="1.41523">
        <ele>144.4</ele>
        <time>2023-08-17T13:08:08Z</time>
      </trkpt>
      <trkpt lat="48.79977" lon="1.41505">
        <ele>144.6</ele>
        <time>2023-08-17T13:08:11Z</time>
      </trkpt>
      <trkpt lat="48.79976" lon="1.41499">
        <ele>144.6</ele>
        <time>2023-08-17T13:08:12Z</time>
      </trkpt>
      <trkpt lat="48.79975" lon="1.41475">
        <ele>144.6</ele>
        <time>2023-08-17T13:08:16Z</time>
      </trkpt>
      <trkpt lat="48.79975" lon="1.41447">
        <ele>144.6</ele>
        <time>2023-08-17T13:08:20Z</time>
      </trkpt>
      <trkpt lat="48.79972" lon="1.41419">
        <ele>144.6</ele>
        <time>2023-08-17T13:08:25Z</time>
      </trkpt>
      <trkpt lat="48.79972" lon="1.41413">
        <ele>144.6</ele>
        <time>2023-08-17T13:08:26Z</time>
      </trkpt>
      <trkpt lat="48.79972" lon="1.41413">
        <ele>144.6</ele>
        <time>2023-08-17T13:08:27Z</time>
      </trkpt>
      <trkpt lat="48.79973" lon="1.414">
        <ele>144.6</ele>
        <time>2023-08-17T13:08:28Z</time>
      </trkpt>
      <trkpt lat="48.79972" lon="1.41393">
        <ele>144.6</ele>
        <time>2023-08-17T13:08:29Z</time>
      </trkpt>
      <trkpt lat="48.79971" lon="1.41389">
        <ele>144.6</ele>
        <time>2023-08-17T13:08:30Z</time>
      </trkpt>
      <trkpt lat="48.79971" lon="1.41389">
        <ele>144.6</ele>
        <time>2023-08-17T13:08:31Z</time>
      </trkpt>
      <trkpt lat="48.7997" lon="1.41383">
        <ele>144.6</ele>
        <time>2023-08-17T13:08:32Z</time>
      </trkpt>
      <trkpt lat="48.79969" lon="1.41371">
        <ele>144.6</ele>
        <time>2023-08-17T13:08:33Z</time>
      </trkpt>
      <trkpt lat="48.79966" lon="1.41354">
        <ele>144.8</ele>
        <time>2023-08-17T13:08:37Z</time>
      </trkpt>
      <trkpt lat="48.79963" lon="1.41315">
        <ele>145</ele>
        <time>2023-08-17T13:08:42Z</time>
      </trkpt>
      <trkpt lat="48.79962" lon="1.41305">
        <ele>145</ele>
        <time>2023-08-17T13:08:44Z</time>
      </trkpt>
      <trkpt lat="48.79962" lon="1.41305">
        <ele>145</ele>
        <time>2023-08-17T13:08:45Z</time>
      </trkpt>
      <trkpt lat="48.79962" lon="1.41299">
        <ele>145</ele>
        <time>2023-08-17T13:08:46Z</time>
      </trkpt>
      <trkpt lat="48.79961" lon="1.4128">
        <ele>145.2</ele>
        <time>2023-08-17T13:08:48Z</time>
      </trkpt>
      <trkpt lat="48.79961" lon="1.41275">
        <ele>145.2</ele>
        <time>2023-08-17T13:08:49Z</time>
      </trkpt>
      <trkpt lat="48.79961" lon="1.41262">
        <ele>145</ele>
        <time>2023-08-17T13:08:51Z</time>
      </trkpt>
      <trkpt lat="48.7996" lon="1.41257">
        <ele>145</ele>
        <time>2023-08-17T13:08:52Z</time>
      </trkpt>
      <trkpt lat="48.79958" lon="1.41252">
        <ele>145</ele>
        <time>2023-08-17T13:08:53Z</time>
      </trkpt>
      <trkpt lat="48.79957" lon="1.41246">
        <ele>145</ele>
        <time>2023-08-17T13:08:54Z</time>
      </trkpt>
      <trkpt lat="48.79957" lon="1.41246">
        <ele>145.2</ele>
        <time>2023-08-17T13:08:55Z</time>
      </trkpt>
      <trkpt lat="48.79957" lon="1.41228">
        <ele>145.2</ele>
        <time>2023-08-17T13:08:57Z</time>
      </trkpt>
      <trkpt lat="48.79956" lon="1.41222">
        <ele>145</ele>
        <time>2023-08-17T13:08:59Z</time>
      </trkpt>
      <trkpt lat="48.79952" lon="1.41201">
        <ele>145</ele>
        <time>2023-08-17T13:09:02Z</time>
      </trkpt>
      <trkpt lat="48.79949" lon="1.412">
        <ele>145</ele>
        <time>2023-08-17T13:09:03Z</time>
      </trkpt>
      <trkpt lat="48.79946" lon="1.412">
        <ele>145</ele>
        <time>2023-08-17T13:09:04Z</time>
      </trkpt>
      <trkpt lat="48.79943" lon="1.41202">
        <ele>145</ele>
        <time>2023-08-17T13:09:05Z</time>
      </trkpt>
      <trkpt lat="48.79941" lon="1.41205">
        <ele>145</ele>
        <time>2023-08-17T13:09:06Z</time>
      </trkpt>
      <trkpt lat="48.79937" lon="1.41209">
        <ele>145</ele>
        <time>2023-08-17T13:09:07Z</time>
      </trkpt>
      <trkpt lat="48.79934" lon="1.41212">
        <ele>145</ele>
        <time>2023-08-17T13:09:08Z</time>
      </trkpt>
      <trkpt lat="48.7993" lon="1.41215">
        <ele>144.8</ele>
        <time>2023-08-17T13:09:09Z</time>
      </trkpt>
      <trkpt lat="48.79923" lon="1.41221">
        <ele>144.8</ele>
        <time>2023-08-17T13:09:11Z</time>
      </trkpt>
      <trkpt lat="48.79912" lon="1.41232">
        <ele>144.6</ele>
        <time>2023-08-17T13:09:15Z</time>
      </trkpt>
      <trkpt lat="48.79905" lon="1.41238">
        <ele>144.6</ele>
        <time>2023-08-17T13:09:16Z</time>
      </trkpt>
      <trkpt lat="48.79905" lon="1.41238">
        <ele>144.6</ele>
        <time>2023-08-17T13:09:17Z</time>
      </trkpt>
      <trkpt lat="48.79902" lon="1.41241">
        <ele>144.6</ele>
        <time>2023-08-17T13:09:18Z</time>
      </trkpt>
      <trkpt lat="48.79895" lon="1.41248">
        <ele>144.6</ele>
        <time>2023-08-17T13:09:19Z</time>
      </trkpt>
      <trkpt lat="48.79892" lon="1.41251">
        <ele>144.6</ele>
        <time>2023-08-17T13:09:20Z</time>
      </trkpt>
      <trkpt lat="48.7989" lon="1.41254">
        <ele>144.6</ele>
        <time>2023-08-17T13:09:21Z</time>
      </trkpt>
      <trkpt lat="48.7989" lon="1.41254">
        <ele>144.6</ele>
        <time>2023-08-17T13:09:22Z</time>
      </trkpt>
      <trkpt lat="48.79886" lon="1.41261">
        <ele>144.4</ele>
        <time>2023-08-17T13:09:23Z</time>
      </trkpt>
      <trkpt lat="48.79886" lon="1.41261">
        <ele>144.4</ele>
        <time>2023-08-17T13:09:24Z</time>
      </trkpt>
      <trkpt lat="48.79883" lon="1.41265">
        <ele>144.4</ele>
        <time>2023-08-17T13:09:25Z</time>
      </trkpt>
      <trkpt lat="48.79868" lon="1.41283">
        <ele>144.4</ele>
        <time>2023-08-17T13:09:28Z</time>
      </trkpt>
      <trkpt lat="48.79861" lon="1.41291">
        <ele>144.4</ele>
        <time>2023-08-17T13:09:30Z</time>
      </trkpt>
      <trkpt lat="48.79847" lon="1.41305">
        <ele>144.4</ele>
        <time>2023-08-17T13:09:35Z</time>
      </trkpt>
      <trkpt lat="48.79837" lon="1.4132">
        <ele>144.4</ele>
        <time>2023-08-17T13:09:38Z</time>
      </trkpt>
      <trkpt lat="48.79831" lon="1.41329">
        <ele>144.4</ele>
        <time>2023-08-17T13:09:39Z</time>
      </trkpt>
      <trkpt lat="48.79831" lon="1.41329">
        <ele>144.4</ele>
        <time>2023-08-17T13:09:40Z</time>
      </trkpt>
      <trkpt lat="48.79827" lon="1.41334">
        <ele>144.2</ele>
        <time>2023-08-17T13:09:41Z</time>
      </trkpt>
      <trkpt lat="48.7982" lon="1.41345">
        <ele>144.2</ele>
        <time>2023-08-17T13:09:42Z</time>
      </trkpt>
      <trkpt lat="48.79816" lon="1.41351">
        <ele>144.2</ele>
        <time>2023-08-17T13:09:43Z</time>
      </trkpt>
      <trkpt lat="48.79801" lon="1.41375">
        <ele>144.2</ele>
        <time>2023-08-17T13:09:47Z</time>
      </trkpt>
      <trkpt lat="48.79796" lon="1.4138">
        <ele>144.2</ele>
        <time>2023-08-17T13:09:48Z</time>
      </trkpt>
      <trkpt lat="48.79768" lon="1.41417">
        <ele>143.6</ele>
        <time>2023-08-17T13:09:56Z</time>
      </trkpt>
      <trkpt lat="48.79758" lon="1.41431">
        <ele>143.2</ele>
        <time>2023-08-17T13:10:00Z</time>
      </trkpt>
      <trkpt lat="48.79751" lon="1.4144">
        <ele>143</ele>
        <time>2023-08-17T13:10:02Z</time>
      </trkpt>
      <trkpt lat="48.79745" lon="1.4145">
        <ele>143</ele>
        <time>2023-08-17T13:10:03Z</time>
      </trkpt>
      <trkpt lat="48.79742" lon="1.41454">
        <ele>143</ele>
        <time>2023-08-17T13:10:04Z</time>
      </trkpt>
      <trkpt lat="48.79739" lon="1.41459">
        <ele>143</ele>
        <time>2023-08-17T13:10:05Z</time>
      </trkpt>
      <trkpt lat="48.79735" lon="1.41464">
        <ele>142.8</ele>
        <time>2023-08-17T13:10:07Z</time>
      </trkpt>
      <trkpt lat="48.79729" lon="1.41473">
        <ele>142.8</ele>
        <time>2023-08-17T13:10:08Z</time>
      </trkpt>
      <trkpt lat="48.79718" lon="1.41487">
        <ele>142.8</ele>
        <time>2023-08-17T13:10:12Z</time>
      </trkpt>
      <trkpt lat="48.7971" lon="1.41495">
        <ele>142.6</ele>
        <time>2023-08-17T13:10:13Z</time>
      </trkpt>
      <trkpt lat="48.79696" lon="1.41513">
        <ele>142.6</ele>
        <time>2023-08-17T13:10:18Z</time>
      </trkpt>
      <trkpt lat="48.79679" lon="1.41537">
        <ele>142.6</ele>
        <time>2023-08-17T13:10:23Z</time>
      </trkpt>
      <trkpt lat="48.79668" lon="1.4155">
        <ele>142.6</ele>
        <time>2023-08-17T13:10:25Z</time>
      </trkpt>
      <trkpt lat="48.79668" lon="1.4155">
        <ele>142.6</ele>
        <time>2023-08-17T13:10:26Z</time>
      </trkpt>
      <trkpt lat="48.79662" lon="1.41558">
        <ele>142.6</ele>
        <time>2023-08-17T13:10:27Z</time>
      </trkpt>
      <trkpt lat="48.79651" lon="1.41573">
        <ele>142.6</ele>
        <time>2023-08-17T13:10:31Z</time>
      </trkpt>
      <trkpt lat="48.79648" lon="1.41578">
        <ele>142.6</ele>
        <time>2023-08-17T13:10:32Z</time>
      </trkpt>
      <trkpt lat="48.79645" lon="1.41582">
        <ele>142.6</ele>
        <time>2023-08-17T13:10:33Z</time>
      </trkpt>
      <trkpt lat="48.79639" lon="1.41591">
        <ele>142.6</ele>
        <time>2023-08-17T13:10:34Z</time>
      </trkpt>
      <trkpt lat="48.79635" lon="1.41595">
        <ele>142.6</ele>
        <time>2023-08-17T13:10:36Z</time>
      </trkpt>
      <trkpt lat="48.79629" lon="1.41604">
        <ele>142.6</ele>
        <time>2023-08-17T13:10:38Z</time>
      </trkpt>
      <trkpt lat="48.79626" lon="1.41609">
        <ele>142.6</ele>
        <time>2023-08-17T13:10:39Z</time>
      </trkpt>
      <trkpt lat="48.79613" lon="1.41624">
        <ele>142.4</ele>
        <time>2023-08-17T13:10:42Z</time>
      </trkpt>
      <trkpt lat="48.79613" lon="1.41624">
        <ele>142.4</ele>
        <time>2023-08-17T13:10:43Z</time>
      </trkpt>
      <trkpt lat="48.79606" lon="1.41634">
        <ele>142.4</ele>
        <time>2023-08-17T13:10:44Z</time>
      </trkpt>
      <trkpt lat="48.79588" lon="1.41663">
        <ele>142.4</ele>
        <time>2023-08-17T13:10:50Z</time>
      </trkpt>
      <trkpt lat="48.79581" lon="1.41673">
        <ele>142.4</ele>
        <time>2023-08-17T13:10:52Z</time>
      </trkpt>
      <trkpt lat="48.79574" lon="1.41683">
        <ele>142.4</ele>
        <time>2023-08-17T13:10:54Z</time>
      </trkpt>
      <trkpt lat="48.79567" lon="1.41692">
        <ele>142.4</ele>
        <time>2023-08-17T13:10:56Z</time>
      </trkpt>
      <trkpt lat="48.79563" lon="1.41695">
        <ele>142.4</ele>
        <time>2023-08-17T13:10:57Z</time>
      </trkpt>
      <trkpt lat="48.79545" lon="1.41718">
        <ele>142.4</ele>
        <time>2023-08-17T13:11:02Z</time>
      </trkpt>
      <trkpt lat="48.79542" lon="1.41723">
        <ele>142.4</ele>
        <time>2023-08-17T13:11:03Z</time>
      </trkpt>
      <trkpt lat="48.79538" lon="1.41727">
        <ele>142.4</ele>
        <time>2023-08-17T13:11:04Z</time>
      </trkpt>
      <trkpt lat="48.79536" lon="1.41731">
        <ele>142.4</ele>
        <time>2023-08-17T13:11:05Z</time>
      </trkpt>
      <trkpt lat="48.79526" lon="1.41742">
        <ele>142.4</ele>
        <time>2023-08-17T13:11:07Z</time>
      </trkpt>
      <trkpt lat="48.79517" lon="1.41752">
        <ele>142.6</ele>
        <time>2023-08-17T13:11:10Z</time>
      </trkpt>
      <trkpt lat="48.79507" lon="1.41768">
        <ele>142.6</ele>
        <time>2023-08-17T13:11:12Z</time>
      </trkpt>
      <trkpt lat="48.79503" lon="1.41772">
        <ele>142.4</ele>
        <time>2023-08-17T13:11:13Z</time>
      </trkpt>
      <trkpt lat="48.795" lon="1.41776">
        <ele>142.4</ele>
        <time>2023-08-17T13:11:14Z</time>
      </trkpt>
      <trkpt lat="48.79497" lon="1.4178">
        <ele>142.4</ele>
        <time>2023-08-17T13:11:15Z</time>
      </trkpt>
      <trkpt lat="48.7949" lon="1.41787">
        <ele>142.4</ele>
        <time>2023-08-17T13:11:17Z</time>
      </trkpt>
      <trkpt lat="48.79487" lon="1.41792">
        <ele>142.4</ele>
        <time>2023-08-17T13:11:18Z</time>
      </trkpt>
      <trkpt lat="48.79483" lon="1.41797">
        <ele>142.4</ele>
        <time>2023-08-17T13:11:19Z</time>
      </trkpt>
      <trkpt lat="48.7948" lon="1.41801">
        <ele>142.4</ele>
        <time>2023-08-17T13:11:20Z</time>
      </trkpt>
      <trkpt lat="48.7948" lon="1.41801">
        <ele>142.4</ele>
        <time>2023-08-17T13:11:21Z</time>
      </trkpt>
      <trkpt lat="48.79474" lon="1.41807">
        <ele>142.4</ele>
        <time>2023-08-17T13:11:22Z</time>
      </trkpt>
      <trkpt lat="48.79471" lon="1.41812">
        <ele>142.4</ele>
        <time>2023-08-17T13:11:23Z</time>
      </trkpt>
      <trkpt lat="48.79471" lon="1.41812">
        <ele>142.4</ele>
        <time>2023-08-17T13:11:24Z</time>
      </trkpt>
      <trkpt lat="48.79459" lon="1.4183">
        <ele>142.6</ele>
        <time>2023-08-17T13:11:27Z</time>
      </trkpt>
      <trkpt lat="48.79453" lon="1.41838">
        <ele>142.6</ele>
        <time>2023-08-17T13:11:30Z</time>
      </trkpt>
      <trkpt lat="48.79445" lon="1.41847">
        <ele>142.4</ele>
        <time>2023-08-17T13:11:31Z</time>
      </trkpt>
      <trkpt lat="48.79441" lon="1.41853">
        <ele>142.4</ele>
        <time>2023-08-17T13:11:33Z</time>
      </trkpt>
      <trkpt lat="48.79441" lon="1.41853">
        <ele>142.4</ele>
        <time>2023-08-17T13:11:34Z</time>
      </trkpt>
      <trkpt lat="48.79438" lon="1.41855">
        <ele>142.4</ele>
        <time>2023-08-17T13:11:35Z</time>
      </trkpt>
      <trkpt lat="48.79433" lon="1.41853">
        <ele>142.6</ele>
        <time>2023-08-17T13:11:36Z</time>
      </trkpt>
      <trkpt lat="48.79433" lon="1.41853">
        <ele>142.6</ele>
        <time>2023-08-17T13:11:37Z</time>
      </trkpt>
      <trkpt lat="48.79429" lon="1.41846">
        <ele>142.6</ele>
        <time>2023-08-17T13:11:38Z</time>
      </trkpt>
      <trkpt lat="48.79427" lon="1.41843">
        <ele>142.6</ele>
        <time>2023-08-17T13:11:39Z</time>
      </trkpt>
      <trkpt lat="48.79425" lon="1.41839">
        <ele>142.6</ele>
        <time>2023-08-17T13:11:40Z</time>
      </trkpt>
      <trkpt lat="48.79421" lon="1.41832">
        <ele>142.8</ele>
        <time>2023-08-17T13:11:43Z</time>
      </trkpt>
      <trkpt lat="48.79403" lon="1.41797">
        <ele>143.4</ele>
        <time>2023-08-17T13:11:49Z</time>
      </trkpt>
      <trkpt lat="48.79396" lon="1.41786">
        <ele>143.4</ele>
        <time>2023-08-17T13:11:51Z</time>
      </trkpt>
      <trkpt lat="48.79395" lon="1.41783">
        <ele>143.6</ele>
        <time>2023-08-17T13:11:52Z</time>
      </trkpt>
      <trkpt lat="48.79388" lon="1.41778">
        <ele>143.6</ele>
        <time>2023-08-17T13:11:54Z</time>
      </trkpt>
      <trkpt lat="48.79382" lon="1.4178">
        <ele>143.6</ele>
        <time>2023-08-17T13:11:56Z</time>
      </trkpt>
      <trkpt lat="48.7938" lon="1.41781">
        <ele>143.6</ele>
        <time>2023-08-17T13:11:57Z</time>
      </trkpt>
      <trkpt lat="48.7938" lon="1.41781">
        <ele>143.4</ele>
        <time>2023-08-17T13:11:58Z</time>
      </trkpt>
      <trkpt lat="48.79378" lon="1.41783">
        <ele>143.4</ele>
        <time>2023-08-17T13:11:59Z</time>
      </trkpt>
      <trkpt lat="48.79377" lon="1.41785">
        <ele>143.4</ele>
        <time>2023-08-17T13:12:00Z</time>
      </trkpt>
      <trkpt lat="48.79376" lon="1.41788">
        <ele>143.6</ele>
        <time>2023-08-17T13:12:01Z</time>
      </trkpt>
      <trkpt lat="48.79376" lon="1.41788">
        <ele>143.6</ele>
        <time>2023-08-17T13:12:02Z</time>
      </trkpt>
      <trkpt lat="48.79376" lon="1.41788">
        <ele>143.6</ele>
        <time>2023-08-17T13:12:03Z</time>
      </trkpt>
      <trkpt lat="48.79375" lon="1.41789">
        <ele>143.6</ele>
        <time>2023-08-17T13:12:04Z</time>
      </trkpt>
      <trkpt lat="48.79369" lon="1.418">
        <ele>143.6</ele>
        <time>2023-08-17T13:12:08Z</time>
      </trkpt>
      <trkpt lat="48.79364" lon="1.41807">
        <ele>143.6</ele>
        <time>2023-08-17T13:12:09Z</time>
      </trkpt>
      <trkpt lat="48.79362" lon="1.41811">
        <ele>143.6</ele>
        <time>2023-08-17T13:12:10Z</time>
      </trkpt>
      <trkpt lat="48.7936" lon="1.41816">
        <ele>143.6</ele>
        <time>2023-08-17T13:12:13Z</time>
      </trkpt>
      <trkpt lat="48.79357" lon="1.41823">
        <ele>143.6</ele>
        <time>2023-08-17T13:12:14Z</time>
      </trkpt>
      <trkpt lat="48.79351" lon="1.41832">
        <ele>143.8</ele>
        <time>2023-08-17T13:12:17Z</time>
      </trkpt>
      <trkpt lat="48.79349" lon="1.41835">
        <ele>143.8</ele>
        <time>2023-08-17T13:12:18Z</time>
      </trkpt>
      <trkpt lat="48.79345" lon="1.4184">
        <ele>144</ele>
        <time>2023-08-17T13:12:19Z</time>
      </trkpt>
      <trkpt lat="48.7933" lon="1.41869">
        <ele>144</ele>
        <time>2023-08-17T13:12:25Z</time>
      </trkpt>
      <trkpt lat="48.79326" lon="1.41876">
        <ele>144</ele>
        <time>2023-08-17T13:12:26Z</time>
      </trkpt>
      <trkpt lat="48.79323" lon="1.41879">
        <ele>144</ele>
        <time>2023-08-17T13:12:27Z</time>
      </trkpt>
      <trkpt lat="48.79311" lon="1.41896">
        <ele>144.2</ele>
        <time>2023-08-17T13:12:30Z</time>
      </trkpt>
      <trkpt lat="48.79309" lon="1.419">
        <ele>144.2</ele>
        <time>2023-08-17T13:12:31Z</time>
      </trkpt>
      <trkpt lat="48.793" lon="1.41916">
        <ele>144.2</ele>
        <time>2023-08-17T13:12:35Z</time>
      </trkpt>
      <trkpt lat="48.79298" lon="1.4192">
        <ele>144.2</ele>
        <time>2023-08-17T13:12:36Z</time>
      </trkpt>
      <trkpt lat="48.79295" lon="1.41925">
        <ele>144.4</ele>
        <time>2023-08-17T13:12:37Z</time>
      </trkpt>
      <trkpt lat="48.79275" lon="1.4195">
        <ele>144.6</ele>
        <time>2023-08-17T13:12:43Z</time>
      </trkpt>
      <trkpt lat="48.79271" lon="1.41955">
        <ele>144.6</ele>
        <time>2023-08-17T13:12:44Z</time>
      </trkpt>
      <trkpt lat="48.79265" lon="1.41963">
        <ele>144.6</ele>
        <time>2023-08-17T13:12:45Z</time>
      </trkpt>
      <trkpt lat="48.79262" lon="1.41966">
        <ele>144.6</ele>
        <time>2023-08-17T13:12:46Z</time>
      </trkpt>
      <trkpt lat="48.79259" lon="1.41969">
        <ele>144.8</ele>
        <time>2023-08-17T13:12:47Z</time>
      </trkpt>
      <trkpt lat="48.79257" lon="1.41972">
        <ele>144.8</ele>
        <time>2023-08-17T13:12:48Z</time>
      </trkpt>
      <trkpt lat="48.79256" lon="1.41976">
        <ele>144.8</ele>
        <time>2023-08-17T13:12:49Z</time>
      </trkpt>
      <trkpt lat="48.79249" lon="1.41985">
        <ele>144.8</ele>
        <time>2023-08-17T13:12:51Z</time>
      </trkpt>
      <trkpt lat="48.79243" lon="1.41992">
        <ele>145</ele>
        <time>2023-08-17T13:12:53Z</time>
      </trkpt>
      <trkpt lat="48.7924" lon="1.41995">
        <ele>145</ele>
        <time>2023-08-17T13:12:54Z</time>
      </trkpt>
      <trkpt lat="48.79238" lon="1.41998">
        <ele>145</ele>
        <time>2023-08-17T13:12:55Z</time>
      </trkpt>
      <trkpt lat="48.79237" lon="1.42">
        <ele>145</ele>
        <time>2023-08-17T13:12:56Z</time>
      </trkpt>
      <trkpt lat="48.79234" lon="1.42004">
        <ele>145</ele>
        <time>2023-08-17T13:12:57Z</time>
      </trkpt>
      <trkpt lat="48.79231" lon="1.42009">
        <ele>145</ele>
        <time>2023-08-17T13:12:58Z</time>
      </trkpt>
      <trkpt lat="48.79228" lon="1.42013">
        <ele>145</ele>
        <time>2023-08-17T13:12:59Z</time>
      </trkpt>
      <trkpt lat="48.79222" lon="1.42019">
        <ele>145.2</ele>
        <time>2023-08-17T13:13:01Z</time>
      </trkpt>
      <trkpt lat="48.79219" lon="1.42024">
        <ele>145.2</ele>
        <time>2023-08-17T13:13:02Z</time>
      </trkpt>
      <trkpt lat="48.79206" lon="1.42041">
        <ele>145.4</ele>
        <time>2023-08-17T13:13:07Z</time>
      </trkpt>
      <trkpt lat="48.79195" lon="1.4206">
        <ele>145.6</ele>
        <time>2023-08-17T13:13:11Z</time>
      </trkpt>
      <trkpt lat="48.7919" lon="1.42065">
        <ele>145.6</ele>
        <time>2023-08-17T13:13:12Z</time>
      </trkpt>
      <trkpt lat="48.79183" lon="1.42075">
        <ele>145.6</ele>
        <time>2023-08-17T13:13:15Z</time>
      </trkpt>
      <trkpt lat="48.79181" lon="1.42078">
        <ele>145.6</ele>
        <time>2023-08-17T13:13:16Z</time>
      </trkpt>
      <trkpt lat="48.7918" lon="1.4208">
        <ele>145.6</ele>
        <time>2023-08-17T13:13:17Z</time>
      </trkpt>
      <trkpt lat="48.79178" lon="1.42082">
        <ele>145.6</ele>
        <time>2023-08-17T13:13:18Z</time>
      </trkpt>
      <trkpt lat="48.79176" lon="1.42085">
        <ele>145.6</ele>
        <time>2023-08-17T13:13:19Z</time>
      </trkpt>
      <trkpt lat="48.79175" lon="1.42086">
        <ele>145.6</ele>
        <time>2023-08-17T13:13:20Z</time>
      </trkpt>
      <trkpt lat="48.79173" lon="1.42092">
        <ele>145.6</ele>
        <time>2023-08-17T13:13:21Z</time>
      </trkpt>
      <trkpt lat="48.79171" lon="1.42096">
        <ele>145.8</ele>
        <time>2023-08-17T13:13:22Z</time>
      </trkpt>
      <trkpt lat="48.79168" lon="1.421">
        <ele>145.8</ele>
        <time>2023-08-17T13:13:23Z</time>
      </trkpt>
      <trkpt lat="48.79165" lon="1.42106">
        <ele>145.8</ele>
        <time>2023-08-17T13:13:25Z</time>
      </trkpt>
      <trkpt lat="48.79163" lon="1.42108">
        <ele>145.8</ele>
        <time>2023-08-17T13:13:26Z</time>
      </trkpt>
      <trkpt lat="48.7916" lon="1.42112">
        <ele>145.8</ele>
        <time>2023-08-17T13:13:27Z</time>
      </trkpt>
      <trkpt lat="48.79151" lon="1.4212">
        <ele>145.8</ele>
        <time>2023-08-17T13:13:28Z</time>
      </trkpt>
      <trkpt lat="48.79141" lon="1.42132">
        <ele>145.8</ele>
        <time>2023-08-17T13:13:31Z</time>
      </trkpt>
      <trkpt lat="48.79139" lon="1.42135">
        <ele>145.8</ele>
        <time>2023-08-17T13:13:32Z</time>
      </trkpt>
      <trkpt lat="48.79138" lon="1.42137">
        <ele>145.8</ele>
        <time>2023-08-17T13:13:33Z</time>
      </trkpt>
      <trkpt lat="48.79135" lon="1.42141">
        <ele>145.8</ele>
        <time>2023-08-17T13:13:34Z</time>
      </trkpt>
      <trkpt lat="48.79133" lon="1.42145">
        <ele>145.6</ele>
        <time>2023-08-17T13:13:35Z</time>
      </trkpt>
      <trkpt lat="48.79129" lon="1.42151">
        <ele>145.6</ele>
        <time>2023-08-17T13:13:38Z</time>
      </trkpt>
      <trkpt lat="48.79128" lon="1.42154">
        <ele>145.6</ele>
        <time>2023-08-17T13:13:39Z</time>
      </trkpt>
      <trkpt lat="48.79127" lon="1.42157">
        <ele>145.6</ele>
        <time>2023-08-17T13:13:40Z</time>
      </trkpt>
      <trkpt lat="48.79122" lon="1.42165">
        <ele>145.6</ele>
        <time>2023-08-17T13:13:41Z</time>
      </trkpt>
      <trkpt lat="48.79117" lon="1.42172">
        <ele>145.4</ele>
        <time>2023-08-17T13:13:42Z</time>
      </trkpt>
      <trkpt lat="48.79105" lon="1.42185">
        <ele>145.4</ele>
        <time>2023-08-17T13:13:46Z</time>
      </trkpt>
      <trkpt lat="48.79103" lon="1.42189">
        <ele>145.4</ele>
        <time>2023-08-17T13:13:47Z</time>
      </trkpt>
      <trkpt lat="48.79102" lon="1.42192">
        <ele>145.4</ele>
        <time>2023-08-17T13:13:48Z</time>
      </trkpt>
      <trkpt lat="48.79099" lon="1.42196">
        <ele>145.4</ele>
        <time>2023-08-17T13:13:49Z</time>
      </trkpt>
      <trkpt lat="48.7909" lon="1.42206">
        <ele>145.6</ele>
        <time>2023-08-17T13:13:52Z</time>
      </trkpt>
      <trkpt lat="48.79082" lon="1.42221">
        <ele>145.6</ele>
        <time>2023-08-17T13:13:55Z</time>
      </trkpt>
      <trkpt lat="48.79081" lon="1.42224">
        <ele>145.6</ele>
        <time>2023-08-17T13:13:56Z</time>
      </trkpt>
      <trkpt lat="48.79078" lon="1.42226">
        <ele>145.6</ele>
        <time>2023-08-17T13:13:57Z</time>
      </trkpt>
      <trkpt lat="48.79075" lon="1.42229">
        <ele>145.6</ele>
        <time>2023-08-17T13:13:58Z</time>
      </trkpt>
      <trkpt lat="48.79054" lon="1.42256">
        <ele>145.6</ele>
        <time>2023-08-17T13:14:05Z</time>
      </trkpt>
      <trkpt lat="48.79049" lon="1.42258">
        <ele>145.6</ele>
        <time>2023-08-17T13:14:06Z</time>
      </trkpt>
      <trkpt lat="48.79044" lon="1.42259">
        <ele>145.6</ele>
        <time>2023-08-17T13:14:07Z</time>
      </trkpt>
      <trkpt lat="48.79041" lon="1.42256">
        <ele>145.6</ele>
        <time>2023-08-17T13:14:08Z</time>
      </trkpt>
      <trkpt lat="48.79037" lon="1.42253">
        <ele>145.6</ele>
        <time>2023-08-17T13:14:09Z</time>
      </trkpt>
      <trkpt lat="48.79034" lon="1.42249">
        <ele>145.6</ele>
        <time>2023-08-17T13:14:10Z</time>
      </trkpt>
      <trkpt lat="48.79034" lon="1.42249">
        <ele>145.4</ele>
        <time>2023-08-17T13:14:11Z</time>
      </trkpt>
      <trkpt lat="48.79027" lon="1.42242">
        <ele>145.4</ele>
        <time>2023-08-17T13:14:12Z</time>
      </trkpt>
      <trkpt lat="48.79015" lon="1.42225">
        <ele>145.4</ele>
        <time>2023-08-17T13:14:16Z</time>
      </trkpt>
      <trkpt lat="48.79009" lon="1.42217">
        <ele>145.4</ele>
        <time>2023-08-17T13:14:18Z</time>
      </trkpt>
      <trkpt lat="48.78995" lon="1.42201">
        <ele>145.2</ele>
        <time>2023-08-17T13:14:22Z</time>
      </trkpt>
      <trkpt lat="48.78992" lon="1.42197">
        <ele>145.2</ele>
        <time>2023-08-17T13:14:23Z</time>
      </trkpt>
      <trkpt lat="48.78973" lon="1.42164">
        <ele>145.2</ele>
        <time>2023-08-17T13:14:29Z</time>
      </trkpt>
      <trkpt lat="48.78973" lon="1.42164">
        <ele>145.2</ele>
        <time>2023-08-17T13:14:30Z</time>
      </trkpt>
      <trkpt lat="48.78956" lon="1.4214">
        <ele>145.2</ele>
        <time>2023-08-17T13:14:34Z</time>
      </trkpt>
      <trkpt lat="48.78956" lon="1.4214">
        <ele>145.2</ele>
        <time>2023-08-17T13:14:35Z</time>
      </trkpt>
      <trkpt lat="48.78948" lon="1.42128">
        <ele>145</ele>
        <time>2023-08-17T13:14:36Z</time>
      </trkpt>
      <trkpt lat="48.78947" lon="1.42121">
        <ele>145</ele>
        <time>2023-08-17T13:14:37Z</time>
      </trkpt>
      <trkpt lat="48.78941" lon="1.42109">
        <ele>145</ele>
        <time>2023-08-17T13:14:39Z</time>
      </trkpt>
      <trkpt lat="48.7893" lon="1.42094">
        <ele>145</ele>
        <time>2023-08-17T13:14:42Z</time>
      </trkpt>
      <trkpt lat="48.78928" lon="1.42089">
        <ele>145</ele>
        <time>2023-08-17T13:14:43Z</time>
      </trkpt>
      <trkpt lat="48.78927" lon="1.42085">
        <ele>145</ele>
        <time>2023-08-17T13:14:44Z</time>
      </trkpt>
      <trkpt lat="48.78922" lon="1.42076">
        <ele>144.8</ele>
        <time>2023-08-17T13:14:46Z</time>
      </trkpt>
      <trkpt lat="48.78919" lon="1.42072">
        <ele>144.8</ele>
        <time>2023-08-17T13:14:47Z</time>
      </trkpt>
      <trkpt lat="48.78916" lon="1.42067">
        <ele>144.8</ele>
        <time>2023-08-17T13:14:48Z</time>
      </trkpt>
      <trkpt lat="48.78913" lon="1.42063">
        <ele>144.8</ele>
        <time>2023-08-17T13:14:49Z</time>
      </trkpt>
      <trkpt lat="48.78911" lon="1.4206">
        <ele>144.8</ele>
        <time>2023-08-17T13:14:50Z</time>
      </trkpt>
      <trkpt lat="48.78907" lon="1.42054">
        <ele>144.8</ele>
        <time>2023-08-17T13:14:51Z</time>
      </trkpt>
      <trkpt lat="48.78904" lon="1.42051">
        <ele>144.8</ele>
        <time>2023-08-17T13:14:52Z</time>
      </trkpt>
      <trkpt lat="48.78897" lon="1.4205">
        <ele>144.8</ele>
        <time>2023-08-17T13:14:54Z</time>
      </trkpt>
      <trkpt lat="48.78894" lon="1.42052">
        <ele>144.8</ele>
        <time>2023-08-17T13:14:55Z</time>
      </trkpt>
      <trkpt lat="48.78878" lon="1.42067">
        <ele>144.6</ele>
        <time>2023-08-17T13:15:00Z</time>
      </trkpt>
      <trkpt lat="48.78871" lon="1.42073">
        <ele>144.6</ele>
        <time>2023-08-17T13:15:02Z</time>
      </trkpt>
      <trkpt lat="48.78868" lon="1.42076">
        <ele>144.6</ele>
        <time>2023-08-17T13:15:03Z</time>
      </trkpt>
      <trkpt lat="48.78857" lon="1.42085">
        <ele>144.4</ele>
        <time>2023-08-17T13:15:06Z</time>
      </trkpt>
      <trkpt lat="48.78849" lon="1.42091">
        <ele>144.2</ele>
        <time>2023-08-17T13:15:08Z</time>
      </trkpt>
      <trkpt lat="48.78828" lon="1.42109">
        <ele>144.2</ele>
        <time>2023-08-17T13:15:14Z</time>
      </trkpt>
      <trkpt lat="48.78825" lon="1.4211">
        <ele>144.2</ele>
        <time>2023-08-17T13:15:15Z</time>
      </trkpt>
      <trkpt lat="48.78822" lon="1.42112">
        <ele>144.4</ele>
        <time>2023-08-17T13:15:16Z</time>
      </trkpt>
      <trkpt lat="48.78815" lon="1.42117">
        <ele>144.4</ele>
        <time>2023-08-17T13:15:18Z</time>
      </trkpt>
      <trkpt lat="48.78813" lon="1.42119">
        <ele>144.4</ele>
        <time>2023-08-17T13:15:19Z</time>
      </trkpt>
      <trkpt lat="48.78807" lon="1.42122">
        <ele>144.6</ele>
        <time>2023-08-17T13:15:21Z</time>
      </trkpt>
      <trkpt lat="48.78807" lon="1.42122">
        <ele>144.6</ele>
        <time>2023-08-17T13:15:22Z</time>
      </trkpt>
      <trkpt lat="48.78802" lon="1.42126">
        <ele>144.8</ele>
        <time>2023-08-17T13:15:23Z</time>
      </trkpt>
      <trkpt lat="48.78799" lon="1.42128">
        <ele>144.8</ele>
        <time>2023-08-17T13:15:24Z</time>
      </trkpt>
      <trkpt lat="48.78796" lon="1.4213">
        <ele>144.8</ele>
        <time>2023-08-17T13:15:25Z</time>
      </trkpt>
      <trkpt lat="48.78794" lon="1.42134">
        <ele>144.8</ele>
        <time>2023-08-17T13:15:26Z</time>
      </trkpt>
      <trkpt lat="48.7878" lon="1.42148">
        <ele>145.2</ele>
        <time>2023-08-17T13:15:30Z</time>
      </trkpt>
      <trkpt lat="48.78772" lon="1.42153">
        <ele>145.2</ele>
        <time>2023-08-17T13:15:32Z</time>
      </trkpt>
      <trkpt lat="48.78769" lon="1.42156">
        <ele>145.2</ele>
        <time>2023-08-17T13:15:33Z</time>
      </trkpt>
      <trkpt lat="48.7875" lon="1.42174">
        <ele>145</ele>
        <time>2023-08-17T13:15:39Z</time>
      </trkpt>
      <trkpt lat="48.78719" lon="1.42198">
        <ele>144.8</ele>
        <time>2023-08-17T13:15:47Z</time>
      </trkpt>
      <trkpt lat="48.78715" lon="1.42201">
        <ele>144.8</ele>
        <time>2023-08-17T13:15:48Z</time>
      </trkpt>
      <trkpt lat="48.7871" lon="1.42206">
        <ele>144.6</ele>
        <time>2023-08-17T13:15:51Z</time>
      </trkpt>
      <trkpt lat="48.78704" lon="1.42212">
        <ele>144.6</ele>
        <time>2023-08-17T13:15:52Z</time>
      </trkpt>
      <trkpt lat="48.78699" lon="1.42216">
        <ele>144.6</ele>
        <time>2023-08-17T13:15:53Z</time>
      </trkpt>
      <trkpt lat="48.78696" lon="1.42218">
        <ele>144.6</ele>
        <time>2023-08-17T13:15:54Z</time>
      </trkpt>
      <trkpt lat="48.7869" lon="1.42223">
        <ele>144.6</ele>
        <time>2023-08-17T13:15:56Z</time>
      </trkpt>
      <trkpt lat="48.78686" lon="1.42225">
        <ele>144.6</ele>
        <time>2023-08-17T13:15:57Z</time>
      </trkpt>
      <trkpt lat="48.78679" lon="1.4223">
        <ele>144.6</ele>
        <time>2023-08-17T13:15:59Z</time>
      </trkpt>
      <trkpt lat="48.78676" lon="1.42232">
        <ele>144.6</ele>
        <time>2023-08-17T13:16:00Z</time>
      </trkpt>
      <trkpt lat="48.78676" lon="1.42232">
        <ele>144.6</ele>
        <time>2023-08-17T13:16:01Z</time>
      </trkpt>
      <trkpt lat="48.78669" lon="1.42239">
        <ele>144.6</ele>
        <time>2023-08-17T13:16:02Z</time>
      </trkpt>
      <trkpt lat="48.78658" lon="1.42249">
        <ele>144.8</ele>
        <time>2023-08-17T13:16:05Z</time>
      </trkpt>
      <trkpt lat="48.78645" lon="1.42262">
        <ele>145</ele>
        <time>2023-08-17T13:16:09Z</time>
      </trkpt>
      <trkpt lat="48.78642" lon="1.42266">
        <ele>145</ele>
        <time>2023-08-17T13:16:10Z</time>
      </trkpt>
      <trkpt lat="48.78633" lon="1.42271">
        <ele>145</ele>
        <time>2023-08-17T13:16:12Z</time>
      </trkpt>
      <trkpt lat="48.78616" lon="1.42282">
        <ele>145</ele>
        <time>2023-08-17T13:16:16Z</time>
      </trkpt>
      <trkpt lat="48.78612" lon="1.42284">
        <ele>145</ele>
        <time>2023-08-17T13:16:17Z</time>
      </trkpt>
      <trkpt lat="48.78608" lon="1.42287">
        <ele>145.2</ele>
        <time>2023-08-17T13:16:19Z</time>
      </trkpt>
      <trkpt lat="48.7859" lon="1.42304">
        <ele>145.2</ele>
        <time>2023-08-17T13:16:23Z</time>
      </trkpt>
      <trkpt lat="48.7859" lon="1.42304">
        <ele>145.2</ele>
        <time>2023-08-17T13:16:24Z</time>
      </trkpt>
      <trkpt lat="48.78581" lon="1.42308">
        <ele>145.2</ele>
        <time>2023-08-17T13:16:25Z</time>
      </trkpt>
      <trkpt lat="48.78574" lon="1.42314">
        <ele>145.2</ele>
        <time>2023-08-17T13:16:27Z</time>
      </trkpt>
      <trkpt lat="48.78537" lon="1.42346">
        <ele>145.2</ele>
        <time>2023-08-17T13:16:36Z</time>
      </trkpt>
      <trkpt lat="48.78516" lon="1.42363">
        <ele>145</ele>
        <time>2023-08-17T13:16:42Z</time>
      </trkpt>
      <trkpt lat="48.78484" lon="1.42389">
        <ele>144.6</ele>
        <time>2023-08-17T13:16:49Z</time>
      </trkpt>
      <trkpt lat="48.78437" lon="1.42427">
        <ele>144.2</ele>
        <time>2023-08-17T13:16:59Z</time>
      </trkpt>
      <trkpt lat="48.78429" lon="1.42433">
        <ele>144.2</ele>
        <time>2023-08-17T13:17:01Z</time>
      </trkpt>
      <trkpt lat="48.78422" lon="1.42439">
        <ele>144.2</ele>
        <time>2023-08-17T13:17:03Z</time>
      </trkpt>
      <trkpt lat="48.78414" lon="1.42446">
        <ele>144.2</ele>
        <time>2023-08-17T13:17:05Z</time>
      </trkpt>
      <trkpt lat="48.78411" lon="1.42449">
        <ele>144.2</ele>
        <time>2023-08-17T13:17:06Z</time>
      </trkpt>
      <trkpt lat="48.78411" lon="1.42449">
        <ele>144.2</ele>
        <time>2023-08-17T13:17:07Z</time>
      </trkpt>
      <trkpt lat="48.78404" lon="1.42457">
        <ele>144.2</ele>
        <time>2023-08-17T13:17:08Z</time>
      </trkpt>
      <trkpt lat="48.78402" lon="1.42462">
        <ele>144.2</ele>
        <time>2023-08-17T13:17:09Z</time>
      </trkpt>
      <trkpt lat="48.784" lon="1.42468">
        <ele>144.2</ele>
        <time>2023-08-17T13:17:10Z</time>
      </trkpt>
      <trkpt lat="48.78398" lon="1.42473">
        <ele>144.2</ele>
        <time>2023-08-17T13:17:11Z</time>
      </trkpt>
      <trkpt lat="48.78396" lon="1.42479">
        <ele>144</ele>
        <time>2023-08-17T13:17:12Z</time>
      </trkpt>
      <trkpt lat="48.78394" lon="1.42485">
        <ele>144</ele>
        <time>2023-08-17T13:17:13Z</time>
      </trkpt>
      <trkpt lat="48.78392" lon="1.4249">
        <ele>143.8</ele>
        <time>2023-08-17T13:17:14Z</time>
      </trkpt>
      <trkpt lat="48.78389" lon="1.42496">
        <ele>143.8</ele>
        <time>2023-08-17T13:17:15Z</time>
      </trkpt>
      <trkpt lat="48.78385" lon="1.42508">
        <ele>143.6</ele>
        <time>2023-08-17T13:17:17Z</time>
      </trkpt>
      <trkpt lat="48.78376" lon="1.42532">
        <ele>143.6</ele>
        <time>2023-08-17T13:17:21Z</time>
      </trkpt>
      <trkpt lat="48.78373" lon="1.42539">
        <ele>143.6</ele>
        <time>2023-08-17T13:17:22Z</time>
      </trkpt>
      <trkpt lat="48.78366" lon="1.42554">
        <ele>143.6</ele>
        <time>2023-08-17T13:17:25Z</time>
      </trkpt>
      <trkpt lat="48.78363" lon="1.42559">
        <ele>143.6</ele>
        <time>2023-08-17T13:17:26Z</time>
      </trkpt>
      <trkpt lat="48.7836" lon="1.42565">
        <ele>143.6</ele>
        <time>2023-08-17T13:17:27Z</time>
      </trkpt>
      <trkpt lat="48.78339" lon="1.42596">
        <ele>143.6</ele>
        <time>2023-08-17T13:17:33Z</time>
      </trkpt>
      <trkpt lat="48.78332" lon="1.42608">
        <ele>143.6</ele>
        <time>2023-08-17T13:17:35Z</time>
      </trkpt>
      <trkpt lat="48.78327" lon="1.42618">
        <ele>143.6</ele>
        <time>2023-08-17T13:17:37Z</time>
      </trkpt>
      <trkpt lat="48.78326" lon="1.42624">
        <ele>143.6</ele>
        <time>2023-08-17T13:17:38Z</time>
      </trkpt>
      <trkpt lat="48.78324" lon="1.4263">
        <ele>143.6</ele>
        <time>2023-08-17T13:17:39Z</time>
      </trkpt>
      <trkpt lat="48.7832" lon="1.42636">
        <ele>143.6</ele>
        <time>2023-08-17T13:17:40Z</time>
      </trkpt>
      <trkpt lat="48.78315" lon="1.42645">
        <ele>143.6</ele>
        <time>2023-08-17T13:17:42Z</time>
      </trkpt>
      <trkpt lat="48.78311" lon="1.42648">
        <ele>143.6</ele>
        <time>2023-08-17T13:17:43Z</time>
      </trkpt>
      <trkpt lat="48.78308" lon="1.42648">
        <ele>143.6</ele>
        <time>2023-08-17T13:17:44Z</time>
      </trkpt>
      <trkpt lat="48.78305" lon="1.42646">
        <ele>143.6</ele>
        <time>2023-08-17T13:17:45Z</time>
      </trkpt>
      <trkpt lat="48.78303" lon="1.42644">
        <ele>143.6</ele>
        <time>2023-08-17T13:17:46Z</time>
      </trkpt>
      <trkpt lat="48.78303" lon="1.4264">
        <ele>143.6</ele>
        <time>2023-08-17T13:17:47Z</time>
      </trkpt>
      <trkpt lat="48.78302" lon="1.42636">
        <ele>143.6</ele>
        <time>2023-08-17T13:17:48Z</time>
      </trkpt>
      <trkpt lat="48.783" lon="1.42631">
        <ele>143.6</ele>
        <time>2023-08-17T13:17:49Z</time>
      </trkpt>
      <trkpt lat="48.78298" lon="1.42627">
        <ele>143.6</ele>
        <time>2023-08-17T13:17:50Z</time>
      </trkpt>
      <trkpt lat="48.78294" lon="1.42616">
        <ele>143.8</ele>
        <time>2023-08-17T13:17:52Z</time>
      </trkpt>
      <trkpt lat="48.78294" lon="1.42616">
        <ele>143.8</ele>
        <time>2023-08-17T13:17:53Z</time>
      </trkpt>
      <trkpt lat="48.78291" lon="1.42606">
        <ele>143.8</ele>
        <time>2023-08-17T13:17:54Z</time>
      </trkpt>
      <trkpt lat="48.7829" lon="1.426">
        <ele>143.6</ele>
        <time>2023-08-17T13:17:56Z</time>
      </trkpt>
      <trkpt lat="48.78287" lon="1.42585">
        <ele>143.6</ele>
        <time>2023-08-17T13:17:57Z</time>
      </trkpt>
      <trkpt lat="48.78287" lon="1.42577">
        <ele>143.6</ele>
        <time>2023-08-17T13:17:58Z</time>
      </trkpt>
      <trkpt lat="48.78286" lon="1.42571">
        <ele>143.6</ele>
        <time>2023-08-17T13:17:59Z</time>
      </trkpt>
      <trkpt lat="48.78279" lon="1.42534">
        <ele>143.2</ele>
        <time>2023-08-17T13:18:04Z</time>
      </trkpt>
      <trkpt lat="48.78277" lon="1.42526">
        <ele>143.2</ele>
        <time>2023-08-17T13:18:05Z</time>
      </trkpt>
      <trkpt lat="48.7827" lon="1.42495">
        <ele>142.8</ele>
        <time>2023-08-17T13:18:09Z</time>
      </trkpt>
      <trkpt lat="48.78269" lon="1.42488">
        <ele>142.8</ele>
        <time>2023-08-17T13:18:10Z</time>
      </trkpt>
      <trkpt lat="48.78267" lon="1.42482">
        <ele>142.6</ele>
        <time>2023-08-17T13:18:11Z</time>
      </trkpt>
      <trkpt lat="48.78266" lon="1.42476">
        <ele>142.6</ele>
        <time>2023-08-17T13:18:12Z</time>
      </trkpt>
      <trkpt lat="48.78264" lon="1.42468">
        <ele>142.4</ele>
        <time>2023-08-17T13:18:13Z</time>
      </trkpt>
      <trkpt lat="48.78262" lon="1.42461">
        <ele>142.4</ele>
        <time>2023-08-17T13:18:14Z</time>
      </trkpt>
      <trkpt lat="48.7826" lon="1.42454">
        <ele>142.4</ele>
        <time>2023-08-17T13:18:15Z</time>
      </trkpt>
      <trkpt lat="48.7825" lon="1.42406">
        <ele>142.2</ele>
        <time>2023-08-17T13:18:21Z</time>
      </trkpt>
      <trkpt lat="48.78244" lon="1.42389">
        <ele>142</ele>
        <time>2023-08-17T13:18:23Z</time>
      </trkpt>
      <trkpt lat="48.7824" lon="1.4237">
        <ele>141.8</ele>
        <time>2023-08-17T13:18:26Z</time>
      </trkpt>
      <trkpt lat="48.78239" lon="1.42364">
        <ele>141.8</ele>
        <time>2023-08-17T13:18:27Z</time>
      </trkpt>
      <trkpt lat="48.78237" lon="1.42357">
        <ele>141.8</ele>
        <time>2023-08-17T13:18:28Z</time>
      </trkpt>
      <trkpt lat="48.78237" lon="1.42351">
        <ele>141.8</ele>
        <time>2023-08-17T13:18:29Z</time>
      </trkpt>
      <trkpt lat="48.78236" lon="1.42343">
        <ele>142</ele>
        <time>2023-08-17T13:18:30Z</time>
      </trkpt>
      <trkpt lat="48.78235" lon="1.42338">
        <ele>141.8</ele>
        <time>2023-08-17T13:18:31Z</time>
      </trkpt>
      <trkpt lat="48.78233" lon="1.42328">
        <ele>141.8</ele>
        <time>2023-08-17T13:18:33Z</time>
      </trkpt>
      <trkpt lat="48.78232" lon="1.42321">
        <ele>141.8</ele>
        <time>2023-08-17T13:18:34Z</time>
      </trkpt>
      <trkpt lat="48.78231" lon="1.42314">
        <ele>141.8</ele>
        <time>2023-08-17T13:18:35Z</time>
      </trkpt>
      <trkpt lat="48.78226" lon="1.42307">
        <ele>141.8</ele>
        <time>2023-08-17T13:18:36Z</time>
      </trkpt>
      <trkpt lat="48.78215" lon="1.42284">
        <ele>141.6</ele>
        <time>2023-08-17T13:18:40Z</time>
      </trkpt>
      <trkpt lat="48.7821" lon="1.42283">
        <ele>141.6</ele>
        <time>2023-08-17T13:18:41Z</time>
      </trkpt>
      <trkpt lat="48.78205" lon="1.42282">
        <ele>141.6</ele>
        <time>2023-08-17T13:18:42Z</time>
      </trkpt>
      <trkpt lat="48.78194" lon="1.42275">
        <ele>141.6</ele>
        <time>2023-08-17T13:18:44Z</time>
      </trkpt>
      <trkpt lat="48.78189" lon="1.42271">
        <ele>141.6</ele>
        <time>2023-08-17T13:18:45Z</time>
      </trkpt>
      <trkpt lat="48.78185" lon="1.42266">
        <ele>141.6</ele>
        <time>2023-08-17T13:18:46Z</time>
      </trkpt>
      <trkpt lat="48.78181" lon="1.4226">
        <ele>141.6</ele>
        <time>2023-08-17T13:18:47Z</time>
      </trkpt>
      <trkpt lat="48.78178" lon="1.42252">
        <ele>141.4</ele>
        <time>2023-08-17T13:18:48Z</time>
      </trkpt>
      <trkpt lat="48.78178" lon="1.42243">
        <ele>141.4</ele>
        <time>2023-08-17T13:18:49Z</time>
      </trkpt>
      <trkpt lat="48.78179" lon="1.42235">
        <ele>141</ele>
        <time>2023-08-17T13:18:50Z</time>
      </trkpt>
      <trkpt lat="48.78185" lon="1.42218">
        <ele>140.2</ele>
        <time>2023-08-17T13:18:52Z</time>
      </trkpt>
      <trkpt lat="48.78189" lon="1.42212">
        <ele>139.6</ele>
        <time>2023-08-17T13:18:53Z</time>
      </trkpt>
      <trkpt lat="48.78194" lon="1.42205">
        <ele>139.2</ele>
        <time>2023-08-17T13:18:54Z</time>
      </trkpt>
      <trkpt lat="48.78199" lon="1.42197">
        <ele>139</ele>
        <time>2023-08-17T13:18:55Z</time>
      </trkpt>
      <trkpt lat="48.78202" lon="1.42191">
        <ele>138.6</ele>
        <time>2023-08-17T13:18:56Z</time>
      </trkpt>
      <trkpt lat="48.78202" lon="1.42184">
        <ele>138.6</ele>
        <time>2023-08-17T13:18:57Z</time>
      </trkpt>
      <trkpt lat="48.78202" lon="1.42184">
        <ele>138.2</ele>
        <time>2023-08-17T13:18:58Z</time>
      </trkpt>
      <trkpt lat="48.78201" lon="1.42173">
        <ele>137.8</ele>
        <time>2023-08-17T13:18:59Z</time>
      </trkpt>
      <trkpt lat="48.782" lon="1.42168">
        <ele>137.6</ele>
        <time>2023-08-17T13:19:00Z</time>
      </trkpt>
      <trkpt lat="48.78199" lon="1.42165">
        <ele>137.6</ele>
        <time>2023-08-17T13:19:01Z</time>
      </trkpt>
      <trkpt lat="48.78197" lon="1.42162">
        <ele>137.4</ele>
        <time>2023-08-17T13:19:02Z</time>
      </trkpt>
      <trkpt lat="48.78196" lon="1.42158">
        <ele>137.4</ele>
        <time>2023-08-17T13:19:03Z</time>
      </trkpt>
      <trkpt lat="48.78196" lon="1.42156">
        <ele>137.4</ele>
        <time>2023-08-17T13:19:04Z</time>
      </trkpt>
      <trkpt lat="48.78195" lon="1.42152">
        <ele>137.4</ele>
        <time>2023-08-17T13:19:05Z</time>
      </trkpt>
      <trkpt lat="48.78195" lon="1.42152">
        <ele>137.4</ele>
        <time>2023-08-17T13:19:06Z</time>
      </trkpt>
      <trkpt lat="48.78192" lon="1.42142">
        <ele>137.4</ele>
        <time>2023-08-17T13:19:07Z</time>
      </trkpt>
      <trkpt lat="48.78191" lon="1.4214">
        <ele>137.6</ele>
        <time>2023-08-17T13:19:08Z</time>
      </trkpt>
      <trkpt lat="48.7819" lon="1.42139">
        <ele>137.8</ele>
        <time>2023-08-17T13:19:09Z</time>
      </trkpt>
      <trkpt lat="48.7819" lon="1.42136">
        <ele>138</ele>
        <time>2023-08-17T13:19:10Z</time>
      </trkpt>
      <trkpt lat="48.78191" lon="1.42134">
        <ele>138.2</ele>
        <time>2023-08-17T13:19:11Z</time>
      </trkpt>
      <trkpt lat="48.7819" lon="1.4213">
        <ele>138.4</ele>
        <time>2023-08-17T13:19:12Z</time>
      </trkpt>
      <trkpt lat="48.7819" lon="1.42126">
        <ele>138.4</ele>
        <time>2023-08-17T13:19:13Z</time>
      </trkpt>
      <trkpt lat="48.7819" lon="1.42123">
        <ele>138.4</ele>
        <time>2023-08-17T13:19:14Z</time>
      </trkpt>
      <trkpt lat="48.78187" lon="1.42114">
        <ele>139</ele>
        <time>2023-08-17T13:19:18Z</time>
      </trkpt>
      <trkpt lat="48.78187" lon="1.42112">
        <ele>139.2</ele>
        <time>2023-08-17T13:19:19Z</time>
      </trkpt>
      <trkpt lat="48.78183" lon="1.42107">
        <ele>139.4</ele>
        <time>2023-08-17T13:19:20Z</time>
      </trkpt>
      <trkpt lat="48.78184" lon="1.42104">
        <ele>139.4</ele>
        <time>2023-08-17T13:19:21Z</time>
      </trkpt>
      <trkpt lat="48.78183" lon="1.42102">
        <ele>139.6</ele>
        <time>2023-08-17T13:19:22Z</time>
      </trkpt>
      <trkpt lat="48.78183" lon="1.421">
        <ele>139.8</ele>
        <time>2023-08-17T13:19:23Z</time>
      </trkpt>
      <trkpt lat="48.78183" lon="1.42099">
        <ele>139.8</ele>
        <time>2023-08-17T13:19:24Z</time>
      </trkpt>
      <trkpt lat="48.78185" lon="1.42098">
        <ele>140</ele>
        <time>2023-08-17T13:19:25Z</time>
      </trkpt>
      <trkpt lat="48.78184" lon="1.42097">
        <ele>140.2</ele>
        <time>2023-08-17T13:19:26Z</time>
      </trkpt>
      <trkpt lat="48.78184" lon="1.42095">
        <ele>140.4</ele>
        <time>2023-08-17T13:19:27Z</time>
      </trkpt>
      <trkpt lat="48.78182" lon="1.42092">
        <ele>140.4</ele>
        <time>2023-08-17T13:19:28Z</time>
      </trkpt>
      <trkpt lat="48.78182" lon="1.4209">
        <ele>140.6</ele>
        <time>2023-08-17T13:19:29Z</time>
      </trkpt>
      <trkpt lat="48.78182" lon="1.4209">
        <ele>140.6</ele>
        <time>2023-08-17T13:19:30Z</time>
      </trkpt>
      <trkpt lat="48.78176" lon="1.42072">
        <ele>141.2</ele>
        <time>2023-08-17T13:19:36Z</time>
      </trkpt>
      <trkpt lat="48.78175" lon="1.42069">
        <ele>141.2</ele>
        <time>2023-08-17T13:19:37Z</time>
      </trkpt>
      <trkpt lat="48.78175" lon="1.42066">
        <ele>141.2</ele>
        <time>2023-08-17T13:19:38Z</time>
      </trkpt>
      <trkpt lat="48.78174" lon="1.42063">
        <ele>141.2</ele>
        <time>2023-08-17T13:19:39Z</time>
      </trkpt>
      <trkpt lat="48.78173" lon="1.4206">
        <ele>141.4</ele>
        <time>2023-08-17T13:19:40Z</time>
      </trkpt>
      <trkpt lat="48.78171" lon="1.42053">
        <ele>141.4</ele>
        <time>2023-08-17T13:19:43Z</time>
      </trkpt>
      <trkpt lat="48.78168" lon="1.42043">
        <ele>141.6</ele>
        <time>2023-08-17T13:19:45Z</time>
      </trkpt>
      <trkpt lat="48.78166" lon="1.42035">
        <ele>141.8</ele>
        <time>2023-08-17T13:19:47Z</time>
      </trkpt>
      <trkpt lat="48.78164" lon="1.4203">
        <ele>141.8</ele>
        <time>2023-08-17T13:19:48Z</time>
      </trkpt>
      <trkpt lat="48.78158" lon="1.42002">
        <ele>142</ele>
        <time>2023-08-17T13:19:54Z</time>
      </trkpt>
      <trkpt lat="48.78157" lon="1.41997">
        <ele>142.2</ele>
        <time>2023-08-17T13:19:55Z</time>
      </trkpt>
      <trkpt lat="48.78148" lon="1.41953">
        <ele>142.2</ele>
        <time>2023-08-17T13:20:03Z</time>
      </trkpt>
      <trkpt lat="48.7814" lon="1.41918">
        <ele>142.2</ele>
        <time>2023-08-17T13:20:10Z</time>
      </trkpt>
      <trkpt lat="48.78139" lon="1.41914">
        <ele>142.2</ele>
        <time>2023-08-17T13:20:11Z</time>
      </trkpt>
      <trkpt lat="48.78138" lon="1.41911">
        <ele>142.4</ele>
        <time>2023-08-17T13:20:12Z</time>
      </trkpt>
      <trkpt lat="48.78135" lon="1.41905">
        <ele>142.4</ele>
        <time>2023-08-17T13:20:13Z</time>
      </trkpt>
      <trkpt lat="48.78134" lon="1.41899">
        <ele>142.4</ele>
        <time>2023-08-17T13:20:14Z</time>
      </trkpt>
      <trkpt lat="48.78133" lon="1.41894">
        <ele>142.2</ele>
        <time>2023-08-17T13:20:15Z</time>
      </trkpt>
      <trkpt lat="48.78131" lon="1.41888">
        <ele>142.4</ele>
        <time>2023-08-17T13:20:16Z</time>
      </trkpt>
      <trkpt lat="48.7813" lon="1.41884">
        <ele>142.4</ele>
        <time>2023-08-17T13:20:17Z</time>
      </trkpt>
      <trkpt lat="48.78128" lon="1.41877">
        <ele>142.2</ele>
        <time>2023-08-17T13:20:18Z</time>
      </trkpt>
      <trkpt lat="48.78127" lon="1.41869">
        <ele>142.4</ele>
        <time>2023-08-17T13:20:20Z</time>
      </trkpt>
      <trkpt lat="48.78128" lon="1.41864">
        <ele>142.4</ele>
        <time>2023-08-17T13:20:21Z</time>
      </trkpt>
      <trkpt lat="48.78127" lon="1.41858">
        <ele>142.4</ele>
        <time>2023-08-17T13:20:22Z</time>
      </trkpt>
      <trkpt lat="48.78126" lon="1.41854">
        <ele>142.4</ele>
        <time>2023-08-17T13:20:23Z</time>
      </trkpt>
      <trkpt lat="48.78124" lon="1.41848">
        <ele>142.4</ele>
        <time>2023-08-17T13:20:24Z</time>
      </trkpt>
      <trkpt lat="48.78124" lon="1.41845">
        <ele>142.4</ele>
        <time>2023-08-17T13:20:25Z</time>
      </trkpt>
      <trkpt lat="48.78124" lon="1.41845">
        <ele>142.4</ele>
        <time>2023-08-17T13:20:26Z</time>
      </trkpt>
      <trkpt lat="48.78122" lon="1.41838">
        <ele>142.4</ele>
        <time>2023-08-17T13:20:27Z</time>
      </trkpt>
      <trkpt lat="48.78119" lon="1.41814">
        <ele>143.6</ele>
        <time>2023-08-17T13:26:21Z</time>
      </trkpt>
      <trkpt lat="48.78119" lon="1.41813">
        <ele>143.6</ele>
        <time>2023-08-17T13:26:22Z</time>
      </trkpt>
      <trkpt lat="48.78114" lon="1.41796">
        <ele>143.6</ele>
        <time>2023-08-17T13:26:28Z</time>
      </trkpt>
      <trkpt lat="48.78114" lon="1.41792">
        <ele>143.6</ele>
        <time>2023-08-17T13:26:29Z</time>
      </trkpt>
      <trkpt lat="48.7811" lon="1.41775">
        <ele>143.6</ele>
        <time>2023-08-17T13:26:33Z</time>
      </trkpt>
      <trkpt lat="48.78109" lon="1.41771">
        <ele>143.4</ele>
        <time>2023-08-17T13:26:34Z</time>
      </trkpt>
      <trkpt lat="48.78107" lon="1.41767">
        <ele>143.4</ele>
        <time>2023-08-17T13:26:35Z</time>
      </trkpt>
      <trkpt lat="48.78102" lon="1.41752">
        <ele>143.4</ele>
        <time>2023-08-17T13:26:38Z</time>
      </trkpt>
      <trkpt lat="48.781" lon="1.41743">
        <ele>143.4</ele>
        <time>2023-08-17T13:26:40Z</time>
      </trkpt>
      <trkpt lat="48.78098" lon="1.41732">
        <ele>143.4</ele>
        <time>2023-08-17T13:26:42Z</time>
      </trkpt>
      <trkpt lat="48.78096" lon="1.41728">
        <ele>143.4</ele>
        <time>2023-08-17T13:26:43Z</time>
      </trkpt>
      <trkpt lat="48.78094" lon="1.41723">
        <ele>143.4</ele>
        <time>2023-08-17T13:26:44Z</time>
      </trkpt>
      <trkpt lat="48.78093" lon="1.41717">
        <ele>143.4</ele>
        <time>2023-08-17T13:26:45Z</time>
      </trkpt>
      <trkpt lat="48.78085" lon="1.41688">
        <ele>143.4</ele>
        <time>2023-08-17T13:26:49Z</time>
      </trkpt>
      <trkpt lat="48.78077" lon="1.41652">
        <ele>143.2</ele>
        <time>2023-08-17T13:26:55Z</time>
      </trkpt>
      <trkpt lat="48.78075" lon="1.41649">
        <ele>143.2</ele>
        <time>2023-08-17T13:26:56Z</time>
      </trkpt>
      <trkpt lat="48.78075" lon="1.41642">
        <ele>143.2</ele>
        <time>2023-08-17T13:26:57Z</time>
      </trkpt>
      <trkpt lat="48.78075" lon="1.41623">
        <ele>143.2</ele>
        <time>2023-08-17T13:27:00Z</time>
      </trkpt>
      <trkpt lat="48.78074" lon="1.41617">
        <ele>143.2</ele>
        <time>2023-08-17T13:27:01Z</time>
      </trkpt>
      <trkpt lat="48.78073" lon="1.41611">
        <ele>143.2</ele>
        <time>2023-08-17T13:27:02Z</time>
      </trkpt>
      <trkpt lat="48.78071" lon="1.41605">
        <ele>143.2</ele>
        <time>2023-08-17T13:27:03Z</time>
      </trkpt>
      <trkpt lat="48.78069" lon="1.41597">
        <ele>143.2</ele>
        <time>2023-08-17T13:27:04Z</time>
      </trkpt>
      <trkpt lat="48.78064" lon="1.41581">
        <ele>143</ele>
        <time>2023-08-17T13:27:07Z</time>
      </trkpt>
      <trkpt lat="48.78058" lon="1.41561">
        <ele>142</ele>
        <time>2023-08-17T13:27:10Z</time>
      </trkpt>
      <trkpt lat="48.78054" lon="1.41547">
        <ele>141.6</ele>
        <time>2023-08-17T13:27:13Z</time>
      </trkpt>
      <trkpt lat="48.78053" lon="1.41544">
        <ele>141.6</ele>
        <time>2023-08-17T13:27:14Z</time>
      </trkpt>
      <trkpt lat="48.78052" lon="1.41542">
        <ele>141.2</ele>
        <time>2023-08-17T13:27:15Z</time>
      </trkpt>
      <trkpt lat="48.78052" lon="1.4154">
        <ele>141</ele>
        <time>2023-08-17T13:27:16Z</time>
      </trkpt>
      <trkpt lat="48.78051" lon="1.4154">
        <ele>140.8</ele>
        <time>2023-08-17T13:27:17Z</time>
      </trkpt>
      <trkpt lat="48.78051" lon="1.41538">
        <ele>140.2</ele>
        <time>2023-08-17T13:27:18Z</time>
      </trkpt>
      <trkpt lat="48.78051" lon="1.41537">
        <ele>139.8</ele>
        <time>2023-08-17T13:27:19Z</time>
      </trkpt>
      <trkpt lat="48.78051" lon="1.41536">
        <ele>139.8</ele>
        <time>2023-08-17T13:27:20Z</time>
      </trkpt>
      <trkpt lat="48.7805" lon="1.41531">
        <ele>138.8</ele>
        <time>2023-08-17T13:27:23Z</time>
      </trkpt>
      <trkpt lat="48.7805" lon="1.41528">
        <ele>138.6</ele>
        <time>2023-08-17T13:27:24Z</time>
      </trkpt>
      <trkpt lat="48.7805" lon="1.41526">
        <ele>138.4</ele>
        <time>2023-08-17T13:27:25Z</time>
      </trkpt>
      <trkpt lat="48.7805" lon="1.41523">
        <ele>138</ele>
        <time>2023-08-17T13:27:26Z</time>
      </trkpt>
      <trkpt lat="48.78051" lon="1.4152">
        <ele>137.8</ele>
        <time>2023-08-17T13:27:27Z</time>
      </trkpt>
      <trkpt lat="48.78051" lon="1.41517">
        <ele>137.4</ele>
        <time>2023-08-17T13:27:28Z</time>
      </trkpt>
      <trkpt lat="48.7805" lon="1.41513">
        <ele>137.2</ele>
        <time>2023-08-17T13:27:29Z</time>
      </trkpt>
      <trkpt lat="48.78047" lon="1.41507">
        <ele>137</ele>
        <time>2023-08-17T13:27:30Z</time>
      </trkpt>
      <trkpt lat="48.78044" lon="1.41501">
        <ele>136.6</ele>
        <time>2023-08-17T13:27:31Z</time>
      </trkpt>
      <trkpt lat="48.78041" lon="1.41494">
        <ele>136.2</ele>
        <time>2023-08-17T13:27:32Z</time>
      </trkpt>
      <trkpt lat="48.78037" lon="1.41488">
        <ele>135.6</ele>
        <time>2023-08-17T13:27:33Z</time>
      </trkpt>
      <trkpt lat="48.78033" lon="1.41482">
        <ele>135.2</ele>
        <time>2023-08-17T13:27:34Z</time>
      </trkpt>
      <trkpt lat="48.78027" lon="1.41473">
        <ele>134</ele>
        <time>2023-08-17T13:27:36Z</time>
      </trkpt>
      <trkpt lat="48.78024" lon="1.41469">
        <ele>132.8</ele>
        <time>2023-08-17T13:27:37Z</time>
      </trkpt>
      <trkpt lat="48.78022" lon="1.41466">
        <ele>131.8</ele>
        <time>2023-08-17T13:27:38Z</time>
      </trkpt>
      <trkpt lat="48.78019" lon="1.41464">
        <ele>130.4</ele>
        <time>2023-08-17T13:27:39Z</time>
      </trkpt>
      <trkpt lat="48.78017" lon="1.41462">
        <ele>129.4</ele>
        <time>2023-08-17T13:27:40Z</time>
      </trkpt>
      <trkpt lat="48.78015" lon="1.41459">
        <ele>129</ele>
        <time>2023-08-17T13:27:41Z</time>
      </trkpt>
      <trkpt lat="48.78013" lon="1.41457">
        <ele>128.8</ele>
        <time>2023-08-17T13:27:42Z</time>
      </trkpt>
      <trkpt lat="48.78012" lon="1.41454">
        <ele>128.6</ele>
        <time>2023-08-17T13:27:43Z</time>
      </trkpt>
      <trkpt lat="48.7801" lon="1.41452">
        <ele>128.6</ele>
        <time>2023-08-17T13:27:44Z</time>
      </trkpt>
      <trkpt lat="48.78007" lon="1.41449">
        <ele>128.6</ele>
        <time>2023-08-17T13:27:45Z</time>
      </trkpt>
      <trkpt lat="48.78004" lon="1.41447">
        <ele>128.6</ele>
        <time>2023-08-17T13:27:46Z</time>
      </trkpt>
      <trkpt lat="48.77993" lon="1.41436">
        <ele>128.4</ele>
        <time>2023-08-17T13:27:51Z</time>
      </trkpt>
      <trkpt lat="48.77991" lon="1.41432">
        <ele>128.8</ele>
        <time>2023-08-17T13:27:52Z</time>
      </trkpt>
      <trkpt lat="48.77988" lon="1.41429">
        <ele>129</ele>
        <time>2023-08-17T13:27:53Z</time>
      </trkpt>
      <trkpt lat="48.77986" lon="1.41428">
        <ele>129.2</ele>
        <time>2023-08-17T13:27:54Z</time>
      </trkpt>
      <trkpt lat="48.77979" lon="1.41421">
        <ele>129.8</ele>
        <time>2023-08-17T13:27:57Z</time>
      </trkpt>
      <trkpt lat="48.77979" lon="1.41421">
        <ele>129.8</ele>
        <time>2023-08-17T13:27:58Z</time>
      </trkpt>
      <trkpt lat="48.77974" lon="1.41418">
        <ele>130</ele>
        <time>2023-08-17T13:27:59Z</time>
      </trkpt>
      <trkpt lat="48.77972" lon="1.41417">
        <ele>130.2</ele>
        <time>2023-08-17T13:28:00Z</time>
      </trkpt>
      <trkpt lat="48.77972" lon="1.41417">
        <ele>130.4</ele>
        <time>2023-08-17T13:28:01Z</time>
      </trkpt>
      <trkpt lat="48.77969" lon="1.41414">
        <ele>130.6</ele>
        <time>2023-08-17T13:28:02Z</time>
      </trkpt>
      <trkpt lat="48.77967" lon="1.41412">
        <ele>130.6</ele>
        <time>2023-08-17T13:28:03Z</time>
      </trkpt>
      <trkpt lat="48.77965" lon="1.41409">
        <ele>130.8</ele>
        <time>2023-08-17T13:28:04Z</time>
      </trkpt>
      <trkpt lat="48.77962" lon="1.41404">
        <ele>130.8</ele>
        <time>2023-08-17T13:28:05Z</time>
      </trkpt>
      <trkpt lat="48.7796" lon="1.41401">
        <ele>130.8</ele>
        <time>2023-08-17T13:28:06Z</time>
      </trkpt>
      <trkpt lat="48.77958" lon="1.41396">
        <ele>131.2</ele>
        <time>2023-08-17T13:28:09Z</time>
      </trkpt>
      <trkpt lat="48.77956" lon="1.41393">
        <ele>131.2</ele>
        <time>2023-08-17T13:28:10Z</time>
      </trkpt>
      <trkpt lat="48.77955" lon="1.41389">
        <ele>131.6</ele>
        <time>2023-08-17T13:28:12Z</time>
      </trkpt>
      <trkpt lat="48.77952" lon="1.41382">
        <ele>131.8</ele>
        <time>2023-08-17T13:28:13Z</time>
      </trkpt>
      <trkpt lat="48.77952" lon="1.41379">
        <ele>132</ele>
        <time>2023-08-17T13:28:14Z</time>
      </trkpt>
      <trkpt lat="48.77951" lon="1.41377">
        <ele>132.2</ele>
        <time>2023-08-17T13:28:15Z</time>
      </trkpt>
      <trkpt lat="48.77951" lon="1.41375">
        <ele>132.4</ele>
        <time>2023-08-17T13:28:16Z</time>
      </trkpt>
      <trkpt lat="48.77951" lon="1.41372">
        <ele>132.6</ele>
        <time>2023-08-17T13:28:17Z</time>
      </trkpt>
      <trkpt lat="48.77951" lon="1.41372">
        <ele>132.6</ele>
        <time>2023-08-17T13:28:18Z</time>
      </trkpt>
      <trkpt lat="48.77951" lon="1.41368">
        <ele>132.8</ele>
        <time>2023-08-17T13:28:19Z</time>
      </trkpt>
      <trkpt lat="48.7795" lon="1.41366">
        <ele>133</ele>
        <time>2023-08-17T13:28:20Z</time>
      </trkpt>
      <trkpt lat="48.7795" lon="1.41364">
        <ele>133</ele>
        <time>2023-08-17T13:28:21Z</time>
      </trkpt>
      <trkpt lat="48.77949" lon="1.41362">
        <ele>133.2</ele>
        <time>2023-08-17T13:28:22Z</time>
      </trkpt>
      <trkpt lat="48.77948" lon="1.4136">
        <ele>133.2</ele>
        <time>2023-08-17T13:28:23Z</time>
      </trkpt>
      <trkpt lat="48.77948" lon="1.41357">
        <ele>133.2</ele>
        <time>2023-08-17T13:28:24Z</time>
      </trkpt>
      <trkpt lat="48.77947" lon="1.41355">
        <ele>133.4</ele>
        <time>2023-08-17T13:28:25Z</time>
      </trkpt>
      <trkpt lat="48.77945" lon="1.41351">
        <ele>133.6</ele>
        <time>2023-08-17T13:28:26Z</time>
      </trkpt>
      <trkpt lat="48.77942" lon="1.41346">
        <ele>133.8</ele>
        <time>2023-08-17T13:28:27Z</time>
      </trkpt>
      <trkpt lat="48.7794" lon="1.41343">
        <ele>133.8</ele>
        <time>2023-08-17T13:28:28Z</time>
      </trkpt>
      <trkpt lat="48.77939" lon="1.41342">
        <ele>134</ele>
        <time>2023-08-17T13:28:29Z</time>
      </trkpt>
      <trkpt lat="48.77938" lon="1.4134">
        <ele>134</ele>
        <time>2023-08-17T13:28:30Z</time>
      </trkpt>
      <trkpt lat="48.77937" lon="1.41337">
        <ele>134.2</ele>
        <time>2023-08-17T13:28:31Z</time>
      </trkpt>
      <trkpt lat="48.77935" lon="1.41333">
        <ele>134.2</ele>
        <time>2023-08-17T13:28:32Z</time>
      </trkpt>
      <trkpt lat="48.77934" lon="1.41331">
        <ele>134.2</ele>
        <time>2023-08-17T13:28:33Z</time>
      </trkpt>
      <trkpt lat="48.77932" lon="1.41328">
        <ele>134.4</ele>
        <time>2023-08-17T13:28:34Z</time>
      </trkpt>
      <trkpt lat="48.7793" lon="1.41325">
        <ele>134.4</ele>
        <time>2023-08-17T13:28:35Z</time>
      </trkpt>
      <trkpt lat="48.77928" lon="1.41323">
        <ele>134.4</ele>
        <time>2023-08-17T13:28:36Z</time>
      </trkpt>
      <trkpt lat="48.77926" lon="1.4132">
        <ele>134.6</ele>
        <time>2023-08-17T13:28:37Z</time>
      </trkpt>
      <trkpt lat="48.77926" lon="1.41316">
        <ele>134.6</ele>
        <time>2023-08-17T13:28:38Z</time>
      </trkpt>
      <trkpt lat="48.77924" lon="1.41313">
        <ele>134.8</ele>
        <time>2023-08-17T13:28:39Z</time>
      </trkpt>
      <trkpt lat="48.77922" lon="1.41308">
        <ele>134.8</ele>
        <time>2023-08-17T13:28:40Z</time>
      </trkpt>
      <trkpt lat="48.7792" lon="1.41306">
        <ele>135</ele>
        <time>2023-08-17T13:28:41Z</time>
      </trkpt>
      <trkpt lat="48.77918" lon="1.41303">
        <ele>135.2</ele>
        <time>2023-08-17T13:28:42Z</time>
      </trkpt>
      <trkpt lat="48.77917" lon="1.41299">
        <ele>135.2</ele>
        <time>2023-08-17T13:28:43Z</time>
      </trkpt>
      <trkpt lat="48.77917" lon="1.41296">
        <ele>135.2</ele>
        <time>2023-08-17T13:28:44Z</time>
      </trkpt>
      <trkpt lat="48.77917" lon="1.41296">
        <ele>135.4</ele>
        <time>2023-08-17T13:28:45Z</time>
      </trkpt>
      <trkpt lat="48.77913" lon="1.41292">
        <ele>135.4</ele>
        <time>2023-08-17T13:28:46Z</time>
      </trkpt>
      <trkpt lat="48.77911" lon="1.41291">
        <ele>135.4</ele>
        <time>2023-08-17T13:28:47Z</time>
      </trkpt>
      <trkpt lat="48.77908" lon="1.41292">
        <ele>135.6</ele>
        <time>2023-08-17T13:28:48Z</time>
      </trkpt>
      <trkpt lat="48.77905" lon="1.41293">
        <ele>135.6</ele>
        <time>2023-08-17T13:28:49Z</time>
      </trkpt>
      <trkpt lat="48.77898" lon="1.41313">
        <ele>135.6</ele>
        <time>2023-08-17T13:28:53Z</time>
      </trkpt>
      <trkpt lat="48.77896" lon="1.41319">
        <ele>135.6</ele>
        <time>2023-08-17T13:28:54Z</time>
      </trkpt>
      <trkpt lat="48.77892" lon="1.41326">
        <ele>135.6</ele>
        <time>2023-08-17T13:28:55Z</time>
      </trkpt>
      <trkpt lat="48.77888" lon="1.41333">
        <ele>135.6</ele>
        <time>2023-08-17T13:28:56Z</time>
      </trkpt>
      <trkpt lat="48.77884" lon="1.41341">
        <ele>135.6</ele>
        <time>2023-08-17T13:28:57Z</time>
      </trkpt>
      <trkpt lat="48.77876" lon="1.4136">
        <ele>135.6</ele>
        <time>2023-08-17T13:28:59Z</time>
      </trkpt>
      <trkpt lat="48.77873" lon="1.41371">
        <ele>135.4</ele>
        <time>2023-08-17T13:29:00Z</time>
      </trkpt>
      <trkpt lat="48.7787" lon="1.41382">
        <ele>135.2</ele>
        <time>2023-08-17T13:29:01Z</time>
      </trkpt>
      <trkpt lat="48.7786" lon="1.41402">
        <ele>134.4</ele>
        <time>2023-08-17T13:29:03Z</time>
      </trkpt>
      <trkpt lat="48.77854" lon="1.41408">
        <ele>133.6</ele>
        <time>2023-08-17T13:29:04Z</time>
      </trkpt>
      <trkpt lat="48.77846" lon="1.41413">
        <ele>133</ele>
        <time>2023-08-17T13:29:05Z</time>
      </trkpt>
      <trkpt lat="48.7784" lon="1.41415">
        <ele>132.2</ele>
        <time>2023-08-17T13:29:06Z</time>
      </trkpt>
      <trkpt lat="48.7784" lon="1.41415">
        <ele>131.2</ele>
        <time>2023-08-17T13:29:07Z</time>
      </trkpt>
      <trkpt lat="48.77829" lon="1.41416">
        <ele>130.4</ele>
        <time>2023-08-17T13:29:08Z</time>
      </trkpt>
      <trkpt lat="48.77826" lon="1.41415">
        <ele>128.8</ele>
        <time>2023-08-17T13:29:09Z</time>
      </trkpt>
      <trkpt lat="48.77823" lon="1.41415">
        <ele>128.2</ele>
        <time>2023-08-17T13:29:10Z</time>
      </trkpt>
      <trkpt lat="48.77821" lon="1.41415">
        <ele>127.8</ele>
        <time>2023-08-17T13:29:11Z</time>
      </trkpt>
      <trkpt lat="48.7782" lon="1.41415">
        <ele>127.6</ele>
        <time>2023-08-17T13:29:12Z</time>
      </trkpt>
      <trkpt lat="48.77818" lon="1.41415">
        <ele>127.4</ele>
        <time>2023-08-17T13:29:13Z</time>
      </trkpt>
      <trkpt lat="48.77816" lon="1.41416">
        <ele>127.4</ele>
        <time>2023-08-17T13:29:14Z</time>
      </trkpt>
      <trkpt lat="48.77814" lon="1.41416">
        <ele>127.4</ele>
        <time>2023-08-17T13:29:15Z</time>
      </trkpt>
      <trkpt lat="48.77813" lon="1.41415">
        <ele>127.4</ele>
        <time>2023-08-17T13:29:16Z</time>
      </trkpt>
      <trkpt lat="48.7781" lon="1.41416">
        <ele>127.4</ele>
        <time>2023-08-17T13:29:18Z</time>
      </trkpt>
      <trkpt lat="48.77809" lon="1.41416">
        <ele>127.6</ele>
        <time>2023-08-17T13:29:19Z</time>
      </trkpt>
      <trkpt lat="48.77808" lon="1.41416">
        <ele>127.8</ele>
        <time>2023-08-17T13:29:20Z</time>
      </trkpt>
      <trkpt lat="48.77806" lon="1.41416">
        <ele>128.2</ele>
        <time>2023-08-17T13:29:21Z</time>
      </trkpt>
      <trkpt lat="48.77805" lon="1.41417">
        <ele>128.2</ele>
        <time>2023-08-17T13:29:22Z</time>
      </trkpt>
      <trkpt lat="48.77804" lon="1.41418">
        <ele>128.6</ele>
        <time>2023-08-17T13:29:23Z</time>
      </trkpt>
      <trkpt lat="48.77803" lon="1.41419">
        <ele>128.8</ele>
        <time>2023-08-17T13:29:24Z</time>
      </trkpt>
      <trkpt lat="48.77801" lon="1.4142">
        <ele>129</ele>
        <time>2023-08-17T13:29:25Z</time>
      </trkpt>
      <trkpt lat="48.778" lon="1.41422">
        <ele>129.4</ele>
        <time>2023-08-17T13:29:26Z</time>
      </trkpt>
      <trkpt lat="48.77798" lon="1.41423">
        <ele>129.6</ele>
        <time>2023-08-17T13:29:27Z</time>
      </trkpt>
      <trkpt lat="48.77796" lon="1.41423">
        <ele>129.8</ele>
        <time>2023-08-17T13:29:28Z</time>
      </trkpt>
      <trkpt lat="48.77795" lon="1.41421">
        <ele>130</ele>
        <time>2023-08-17T13:29:29Z</time>
      </trkpt>
      <trkpt lat="48.77795" lon="1.41419">
        <ele>130.2</ele>
        <time>2023-08-17T13:29:30Z</time>
      </trkpt>
      <trkpt lat="48.77796" lon="1.41414">
        <ele>130.8</ele>
        <time>2023-08-17T13:29:33Z</time>
      </trkpt>
      <trkpt lat="48.77796" lon="1.41412">
        <ele>131</ele>
        <time>2023-08-17T13:29:34Z</time>
      </trkpt>
      <trkpt lat="48.77798" lon="1.41409">
        <ele>131</ele>
        <time>2023-08-17T13:29:35Z</time>
      </trkpt>
      <trkpt lat="48.778" lon="1.41406">
        <ele>131.2</ele>
        <time>2023-08-17T13:29:37Z</time>
      </trkpt>
      <trkpt lat="48.778" lon="1.41404">
        <ele>131.2</ele>
        <time>2023-08-17T13:29:38Z</time>
      </trkpt>
      <trkpt lat="48.778" lon="1.41401">
        <ele>131.4</ele>
        <time>2023-08-17T13:29:39Z</time>
      </trkpt>
      <trkpt lat="48.778" lon="1.41398">
        <ele>131.6</ele>
        <time>2023-08-17T13:29:40Z</time>
      </trkpt>
      <trkpt lat="48.77799" lon="1.41396">
        <ele>131.8</ele>
        <time>2023-08-17T13:29:41Z</time>
      </trkpt>
      <trkpt lat="48.77798" lon="1.41395">
        <ele>131.8</ele>
        <time>2023-08-17T13:29:42Z</time>
      </trkpt>
      <trkpt lat="48.77794" lon="1.4139">
        <ele>132.2</ele>
        <time>2023-08-17T13:29:45Z</time>
      </trkpt>
      <trkpt lat="48.77792" lon="1.41387">
        <ele>132.4</ele>
        <time>2023-08-17T13:29:46Z</time>
      </trkpt>
      <trkpt lat="48.7779" lon="1.41385">
        <ele>132.4</ele>
        <time>2023-08-17T13:29:47Z</time>
      </trkpt>
      <trkpt lat="48.77788" lon="1.41383">
        <ele>132.4</ele>
        <time>2023-08-17T13:29:48Z</time>
      </trkpt>
      <trkpt lat="48.77786" lon="1.41382">
        <ele>132.6</ele>
        <time>2023-08-17T13:29:49Z</time>
      </trkpt>
      <trkpt lat="48.77785" lon="1.41381">
        <ele>132.8</ele>
        <time>2023-08-17T13:29:50Z</time>
      </trkpt>
      <trkpt lat="48.77783" lon="1.41379">
        <ele>133</ele>
        <time>2023-08-17T13:29:51Z</time>
      </trkpt>
      <trkpt lat="48.77783" lon="1.41379">
        <ele>133.2</ele>
        <time>2023-08-17T13:29:52Z</time>
      </trkpt>
      <trkpt lat="48.7778" lon="1.41377">
        <ele>133.2</ele>
        <time>2023-08-17T13:29:53Z</time>
      </trkpt>
      <trkpt lat="48.77778" lon="1.41376">
        <ele>133.4</ele>
        <time>2023-08-17T13:29:54Z</time>
      </trkpt>
      <trkpt lat="48.77778" lon="1.41376">
        <ele>133.4</ele>
        <time>2023-08-17T13:29:55Z</time>
      </trkpt>
      <trkpt lat="48.77776" lon="1.41376">
        <ele>133.4</ele>
        <time>2023-08-17T13:29:56Z</time>
      </trkpt>
      <trkpt lat="48.77775" lon="1.41374">
        <ele>133.6</ele>
        <time>2023-08-17T13:29:57Z</time>
      </trkpt>
      <trkpt lat="48.77774" lon="1.41373">
        <ele>133.8</ele>
        <time>2023-08-17T13:29:58Z</time>
      </trkpt>
      <trkpt lat="48.77773" lon="1.41371">
        <ele>134</ele>
        <time>2023-08-17T13:29:59Z</time>
      </trkpt>
      <trkpt lat="48.77771" lon="1.41369">
        <ele>134.2</ele>
        <time>2023-08-17T13:30:00Z</time>
      </trkpt>
      <trkpt lat="48.77769" lon="1.41368">
        <ele>134.2</ele>
        <time>2023-08-17T13:30:01Z</time>
      </trkpt>
      <trkpt lat="48.77766" lon="1.41365">
        <ele>134.4</ele>
        <time>2023-08-17T13:30:02Z</time>
      </trkpt>
      <trkpt lat="48.77764" lon="1.41362">
        <ele>134.4</ele>
        <time>2023-08-17T13:30:03Z</time>
      </trkpt>
      <trkpt lat="48.77762" lon="1.41361">
        <ele>134.4</ele>
        <time>2023-08-17T13:30:04Z</time>
      </trkpt>
      <trkpt lat="48.77761" lon="1.4136">
        <ele>134.4</ele>
        <time>2023-08-17T13:30:05Z</time>
      </trkpt>
      <trkpt lat="48.77759" lon="1.41359">
        <ele>134.6</ele>
        <time>2023-08-17T13:30:06Z</time>
      </trkpt>
      <trkpt lat="48.77757" lon="1.41357">
        <ele>134.8</ele>
        <time>2023-08-17T13:30:07Z</time>
      </trkpt>
      <trkpt lat="48.77757" lon="1.41356">
        <ele>135</ele>
        <time>2023-08-17T13:30:08Z</time>
      </trkpt>
      <trkpt lat="48.77755" lon="1.41355">
        <ele>135.2</ele>
        <time>2023-08-17T13:30:09Z</time>
      </trkpt>
      <trkpt lat="48.77752" lon="1.41353">
        <ele>135.2</ele>
        <time>2023-08-17T13:30:10Z</time>
      </trkpt>
      <trkpt lat="48.77749" lon="1.4135">
        <ele>135.2</ele>
        <time>2023-08-17T13:30:11Z</time>
      </trkpt>
      <trkpt lat="48.77746" lon="1.41346">
        <ele>135.4</ele>
        <time>2023-08-17T13:30:12Z</time>
      </trkpt>
      <trkpt lat="48.77744" lon="1.41343">
        <ele>135.6</ele>
        <time>2023-08-17T13:30:13Z</time>
      </trkpt>
      <trkpt lat="48.77743" lon="1.41341">
        <ele>135.6</ele>
        <time>2023-08-17T13:30:14Z</time>
      </trkpt>
      <trkpt lat="48.77743" lon="1.4134">
        <ele>136</ele>
        <time>2023-08-17T13:30:15Z</time>
      </trkpt>
      <trkpt lat="48.77742" lon="1.41339">
        <ele>136</ele>
        <time>2023-08-17T13:30:16Z</time>
      </trkpt>
      <trkpt lat="48.7774" lon="1.41337">
        <ele>136.2</ele>
        <time>2023-08-17T13:30:17Z</time>
      </trkpt>
      <trkpt lat="48.77739" lon="1.41337">
        <ele>136.2</ele>
        <time>2023-08-17T13:30:18Z</time>
      </trkpt>
      <trkpt lat="48.77738" lon="1.41336">
        <ele>136.4</ele>
        <time>2023-08-17T13:30:19Z</time>
      </trkpt>
      <trkpt lat="48.77738" lon="1.41333">
        <ele>136.4</ele>
        <time>2023-08-17T13:30:20Z</time>
      </trkpt>
      <trkpt lat="48.77737" lon="1.41332">
        <ele>136.6</ele>
        <time>2023-08-17T13:30:21Z</time>
      </trkpt>
      <trkpt lat="48.77736" lon="1.41331">
        <ele>136.6</ele>
        <time>2023-08-17T13:30:22Z</time>
      </trkpt>
      <trkpt lat="48.77735" lon="1.4133">
        <ele>136.8</ele>
        <time>2023-08-17T13:30:23Z</time>
      </trkpt>
      <trkpt lat="48.77734" lon="1.41329">
        <ele>137.2</ele>
        <time>2023-08-17T13:30:24Z</time>
      </trkpt>
      <trkpt lat="48.77732" lon="1.41327">
        <ele>137.2</ele>
        <time>2023-08-17T13:30:25Z</time>
      </trkpt>
      <trkpt lat="48.77731" lon="1.41326">
        <ele>137.4</ele>
        <time>2023-08-17T13:30:26Z</time>
      </trkpt>
      <trkpt lat="48.77729" lon="1.41324">
        <ele>137.4</ele>
        <time>2023-08-17T13:30:27Z</time>
      </trkpt>
      <trkpt lat="48.77728" lon="1.41322">
        <ele>137.6</ele>
        <time>2023-08-17T13:30:28Z</time>
      </trkpt>
      <trkpt lat="48.77727" lon="1.4132">
        <ele>137.6</ele>
        <time>2023-08-17T13:30:29Z</time>
      </trkpt>
      <trkpt lat="48.77726" lon="1.41319">
        <ele>137.8</ele>
        <time>2023-08-17T13:30:30Z</time>
      </trkpt>
      <trkpt lat="48.77724" lon="1.41317">
        <ele>137.8</ele>
        <time>2023-08-17T13:30:31Z</time>
      </trkpt>
      <trkpt lat="48.77723" lon="1.41316">
        <ele>137.8</ele>
        <time>2023-08-17T13:30:32Z</time>
      </trkpt>
      <trkpt lat="48.77721" lon="1.41314">
        <ele>138</ele>
        <time>2023-08-17T13:30:33Z</time>
      </trkpt>
      <trkpt lat="48.77718" lon="1.4131">
        <ele>138</ele>
        <time>2023-08-17T13:30:34Z</time>
      </trkpt>
      <trkpt lat="48.77716" lon="1.41308">
        <ele>138.2</ele>
        <time>2023-08-17T13:30:35Z</time>
      </trkpt>
      <trkpt lat="48.77714" lon="1.41306">
        <ele>138.2</ele>
        <time>2023-08-17T13:30:36Z</time>
      </trkpt>
      <trkpt lat="48.77712" lon="1.41305">
        <ele>138.2</ele>
        <time>2023-08-17T13:30:37Z</time>
      </trkpt>
      <trkpt lat="48.77709" lon="1.41303">
        <ele>138.2</ele>
        <time>2023-08-17T13:30:38Z</time>
      </trkpt>
      <trkpt lat="48.77707" lon="1.41301">
        <ele>138.2</ele>
        <time>2023-08-17T13:30:39Z</time>
      </trkpt>
      <trkpt lat="48.77705" lon="1.413">
        <ele>138.4</ele>
        <time>2023-08-17T13:30:40Z</time>
      </trkpt>
      <trkpt lat="48.777" lon="1.41296">
        <ele>138.4</ele>
        <time>2023-08-17T13:30:41Z</time>
      </trkpt>
      <trkpt lat="48.77698" lon="1.41294">
        <ele>138.4</ele>
        <time>2023-08-17T13:30:42Z</time>
      </trkpt>
      <trkpt lat="48.77695" lon="1.41292">
        <ele>138.4</ele>
        <time>2023-08-17T13:30:43Z</time>
      </trkpt>
      <trkpt lat="48.77684" lon="1.41285">
        <ele>138.6</ele>
        <time>2023-08-17T13:30:46Z</time>
      </trkpt>
      <trkpt lat="48.7768" lon="1.41281">
        <ele>138.8</ele>
        <time>2023-08-17T13:30:48Z</time>
      </trkpt>
      <trkpt lat="48.77679" lon="1.41275">
        <ele>138.8</ele>
        <time>2023-08-17T13:30:50Z</time>
      </trkpt>
      <trkpt lat="48.77678" lon="1.41273">
        <ele>138.8</ele>
        <time>2023-08-17T13:30:51Z</time>
      </trkpt>
      <trkpt lat="48.77677" lon="1.4127">
        <ele>138.8</ele>
        <time>2023-08-17T13:30:52Z</time>
      </trkpt>
      <trkpt lat="48.77675" lon="1.41268">
        <ele>138.8</ele>
        <time>2023-08-17T13:30:53Z</time>
      </trkpt>
      <trkpt lat="48.77672" lon="1.41264">
        <ele>138.8</ele>
        <time>2023-08-17T13:30:54Z</time>
      </trkpt>
      <trkpt lat="48.77669" lon="1.4126">
        <ele>139</ele>
        <time>2023-08-17T13:30:56Z</time>
      </trkpt>
      <trkpt lat="48.77667" lon="1.41257">
        <ele>139</ele>
        <time>2023-08-17T13:30:57Z</time>
      </trkpt>
      <trkpt lat="48.77664" lon="1.41255">
        <ele>139.2</ele>
        <time>2023-08-17T13:30:58Z</time>
      </trkpt>
      <trkpt lat="48.77663" lon="1.41254">
        <ele>139.2</ele>
        <time>2023-08-17T13:30:59Z</time>
      </trkpt>
      <trkpt lat="48.77658" lon="1.41248">
        <ele>139.4</ele>
        <time>2023-08-17T13:31:02Z</time>
      </trkpt>
      <trkpt lat="48.77656" lon="1.41244">
        <ele>139.4</ele>
        <time>2023-08-17T13:31:04Z</time>
      </trkpt>
      <trkpt lat="48.77654" lon="1.41241">
        <ele>139.4</ele>
        <time>2023-08-17T13:31:05Z</time>
      </trkpt>
      <trkpt lat="48.77648" lon="1.41237">
        <ele>139.6</ele>
        <time>2023-08-17T13:31:07Z</time>
      </trkpt>
      <trkpt lat="48.77645" lon="1.41235">
        <ele>139.6</ele>
        <time>2023-08-17T13:31:08Z</time>
      </trkpt>
      <trkpt lat="48.77644" lon="1.41233">
        <ele>139.6</ele>
        <time>2023-08-17T13:31:09Z</time>
      </trkpt>
      <trkpt lat="48.77642" lon="1.41232">
        <ele>139.8</ele>
        <time>2023-08-17T13:31:10Z</time>
      </trkpt>
      <trkpt lat="48.77634" lon="1.41226">
        <ele>140</ele>
        <time>2023-08-17T13:31:14Z</time>
      </trkpt>
      <trkpt lat="48.77619" lon="1.41208">
        <ele>140.2</ele>
        <time>2023-08-17T13:31:20Z</time>
      </trkpt>
      <trkpt lat="48.77614" lon="1.41202">
        <ele>140.2</ele>
        <time>2023-08-17T13:31:22Z</time>
      </trkpt>
      <trkpt lat="48.77607" lon="1.41195">
        <ele>140.2</ele>
        <time>2023-08-17T13:31:25Z</time>
      </trkpt>
      <trkpt lat="48.77605" lon="1.41193">
        <ele>140.2</ele>
        <time>2023-08-17T13:31:26Z</time>
      </trkpt>
      <trkpt lat="48.77603" lon="1.41191">
        <ele>140.2</ele>
        <time>2023-08-17T13:31:27Z</time>
      </trkpt>
      <trkpt lat="48.776" lon="1.41188">
        <ele>140.2</ele>
        <time>2023-08-17T13:31:28Z</time>
      </trkpt>
      <trkpt lat="48.77595" lon="1.41185">
        <ele>140.2</ele>
        <time>2023-08-17T13:31:30Z</time>
      </trkpt>
      <trkpt lat="48.77593" lon="1.41182">
        <ele>140.4</ele>
        <time>2023-08-17T13:31:31Z</time>
      </trkpt>
      <trkpt lat="48.77589" lon="1.41177">
        <ele>140.4</ele>
        <time>2023-08-17T13:31:32Z</time>
      </trkpt>
      <trkpt lat="48.77586" lon="1.41174">
        <ele>140.4</ele>
        <time>2023-08-17T13:31:33Z</time>
      </trkpt>
      <trkpt lat="48.7758" lon="1.41169">
        <ele>140.4</ele>
        <time>2023-08-17T13:31:34Z</time>
      </trkpt>
      <trkpt lat="48.77565" lon="1.41154">
        <ele>140.4</ele>
        <time>2023-08-17T13:31:39Z</time>
      </trkpt>
      <trkpt lat="48.77557" lon="1.41146">
        <ele>140.6</ele>
        <time>2023-08-17T13:31:42Z</time>
      </trkpt>
      <trkpt lat="48.77554" lon="1.41145">
        <ele>140.6</ele>
        <time>2023-08-17T13:31:43Z</time>
      </trkpt>
      <trkpt lat="48.77553" lon="1.41143">
        <ele>140.6</ele>
        <time>2023-08-17T13:31:44Z</time>
      </trkpt>
      <trkpt lat="48.77551" lon="1.41141">
        <ele>140.6</ele>
        <time>2023-08-17T13:31:45Z</time>
      </trkpt>
      <trkpt lat="48.77548" lon="1.41134">
        <ele>140.8</ele>
        <time>2023-08-17T13:31:46Z</time>
      </trkpt>
      <trkpt lat="48.77539" lon="1.41126">
        <ele>140.8</ele>
        <time>2023-08-17T13:31:49Z</time>
      </trkpt>
      <trkpt lat="48.77536" lon="1.41124">
        <ele>140.8</ele>
        <time>2023-08-17T13:31:50Z</time>
      </trkpt>
      <trkpt lat="48.77533" lon="1.41118">
        <ele>140.8</ele>
        <time>2023-08-17T13:31:51Z</time>
      </trkpt>
      <trkpt lat="48.7753" lon="1.41115">
        <ele>140.8</ele>
        <time>2023-08-17T13:31:52Z</time>
      </trkpt>
      <trkpt lat="48.77529" lon="1.41111">
        <ele>140.8</ele>
        <time>2023-08-17T13:31:53Z</time>
      </trkpt>
      <trkpt lat="48.77523" lon="1.41105">
        <ele>140.8</ele>
        <time>2023-08-17T13:31:55Z</time>
      </trkpt>
      <trkpt lat="48.77513" lon="1.41091">
        <ele>140.6</ele>
        <time>2023-08-17T13:31:58Z</time>
      </trkpt>
      <trkpt lat="48.7751" lon="1.41086">
        <ele>140.6</ele>
        <time>2023-08-17T13:31:59Z</time>
      </trkpt>
      <trkpt lat="48.77507" lon="1.41083">
        <ele>140.6</ele>
        <time>2023-08-17T13:32:00Z</time>
      </trkpt>
      <trkpt lat="48.77505" lon="1.4108">
        <ele>140.6</ele>
        <time>2023-08-17T13:32:01Z</time>
      </trkpt>
      <trkpt lat="48.77499" lon="1.41076">
        <ele>140.6</ele>
        <time>2023-08-17T13:32:02Z</time>
      </trkpt>
      <trkpt lat="48.77492" lon="1.4107">
        <ele>140.6</ele>
        <time>2023-08-17T13:32:04Z</time>
      </trkpt>
      <trkpt lat="48.77489" lon="1.41068">
        <ele>140.6</ele>
        <time>2023-08-17T13:32:05Z</time>
      </trkpt>
      <trkpt lat="48.77485" lon="1.41062">
        <ele>140.6</ele>
        <time>2023-08-17T13:32:07Z</time>
      </trkpt>
      <trkpt lat="48.77482" lon="1.4106">
        <ele>140.6</ele>
        <time>2023-08-17T13:32:08Z</time>
      </trkpt>
      <trkpt lat="48.77479" lon="1.41057">
        <ele>140.6</ele>
        <time>2023-08-17T13:32:09Z</time>
      </trkpt>
      <trkpt lat="48.77475" lon="1.41055">
        <ele>140.6</ele>
        <time>2023-08-17T13:32:10Z</time>
      </trkpt>
      <trkpt lat="48.77471" lon="1.41049">
        <ele>140.6</ele>
        <time>2023-08-17T13:32:11Z</time>
      </trkpt>
      <trkpt lat="48.77468" lon="1.41046">
        <ele>140.6</ele>
        <time>2023-08-17T13:32:12Z</time>
      </trkpt>
      <trkpt lat="48.77466" lon="1.41043">
        <ele>140.6</ele>
        <time>2023-08-17T13:32:13Z</time>
      </trkpt>
      <trkpt lat="48.77465" lon="1.41036">
        <ele>140.8</ele>
        <time>2023-08-17T13:32:14Z</time>
      </trkpt>
      <trkpt lat="48.77463" lon="1.41034">
        <ele>140.8</ele>
        <time>2023-08-17T13:32:15Z</time>
      </trkpt>
      <trkpt lat="48.77461" lon="1.41032">
        <ele>140.8</ele>
        <time>2023-08-17T13:32:16Z</time>
      </trkpt>
      <trkpt lat="48.77457" lon="1.4103">
        <ele>140.8</ele>
        <time>2023-08-17T13:32:17Z</time>
      </trkpt>
      <trkpt lat="48.77453" lon="1.41027">
        <ele>140.8</ele>
        <time>2023-08-17T13:32:18Z</time>
      </trkpt>
      <trkpt lat="48.77449" lon="1.41026">
        <ele>140.8</ele>
        <time>2023-08-17T13:32:19Z</time>
      </trkpt>
      <trkpt lat="48.77444" lon="1.41023">
        <ele>140.8</ele>
        <time>2023-08-17T13:32:20Z</time>
      </trkpt>
      <trkpt lat="48.7744" lon="1.4102">
        <ele>141</ele>
        <time>2023-08-17T13:32:21Z</time>
      </trkpt>
      <trkpt lat="48.77432" lon="1.4101">
        <ele>141</ele>
        <time>2023-08-17T13:32:24Z</time>
      </trkpt>
      <trkpt lat="48.77429" lon="1.41006">
        <ele>141</ele>
        <time>2023-08-17T13:32:25Z</time>
      </trkpt>
      <trkpt lat="48.77427" lon="1.41002">
        <ele>141</ele>
        <time>2023-08-17T13:32:26Z</time>
      </trkpt>
      <trkpt lat="48.77426" lon="1.40998">
        <ele>141.2</ele>
        <time>2023-08-17T13:32:27Z</time>
      </trkpt>
      <trkpt lat="48.77423" lon="1.40993">
        <ele>141.2</ele>
        <time>2023-08-17T13:32:28Z</time>
      </trkpt>
      <trkpt lat="48.77418" lon="1.40984">
        <ele>141.2</ele>
        <time>2023-08-17T13:32:30Z</time>
      </trkpt>
      <trkpt lat="48.77417" lon="1.4098">
        <ele>141.4</ele>
        <time>2023-08-17T13:32:31Z</time>
      </trkpt>
      <trkpt lat="48.77414" lon="1.40977">
        <ele>141.4</ele>
        <time>2023-08-17T13:32:32Z</time>
      </trkpt>
      <trkpt lat="48.77412" lon="1.40972">
        <ele>141.4</ele>
        <time>2023-08-17T13:32:33Z</time>
      </trkpt>
      <trkpt lat="48.7741" lon="1.40969">
        <ele>141.4</ele>
        <time>2023-08-17T13:32:34Z</time>
      </trkpt>
      <trkpt lat="48.77409" lon="1.40965">
        <ele>141.4</ele>
        <time>2023-08-17T13:32:35Z</time>
      </trkpt>
      <trkpt lat="48.77408" lon="1.40961">
        <ele>141.6</ele>
        <time>2023-08-17T13:32:36Z</time>
      </trkpt>
      <trkpt lat="48.77407" lon="1.40957">
        <ele>141.6</ele>
        <time>2023-08-17T13:32:37Z</time>
      </trkpt>
      <trkpt lat="48.77404" lon="1.4095">
        <ele>141.8</ele>
        <time>2023-08-17T13:32:39Z</time>
      </trkpt>
      <trkpt lat="48.774" lon="1.40926">
        <ele>142.2</ele>
        <time>2023-08-17T13:32:44Z</time>
      </trkpt>
      <trkpt lat="48.77401" lon="1.40904">
        <ele>142.4</ele>
        <time>2023-08-17T13:32:47Z</time>
      </trkpt>
      <trkpt lat="48.774" lon="1.40899">
        <ele>142.4</ele>
        <time>2023-08-17T13:32:48Z</time>
      </trkpt>
      <trkpt lat="48.774" lon="1.40893">
        <ele>142.6</ele>
        <time>2023-08-17T13:32:49Z</time>
      </trkpt>
      <trkpt lat="48.77405" lon="1.40875">
        <ele>142.8</ele>
        <time>2023-08-17T13:32:53Z</time>
      </trkpt>
      <trkpt lat="48.77408" lon="1.4087">
        <ele>142.8</ele>
        <time>2023-08-17T13:32:54Z</time>
      </trkpt>
      <trkpt lat="48.77411" lon="1.40865">
        <ele>143</ele>
        <time>2023-08-17T13:32:55Z</time>
      </trkpt>
      <trkpt lat="48.77411" lon="1.40859">
        <ele>143</ele>
        <time>2023-08-17T13:32:56Z</time>
      </trkpt>
      <trkpt lat="48.7741" lon="1.40855">
        <ele>143.2</ele>
        <time>2023-08-17T13:32:57Z</time>
      </trkpt>
      <trkpt lat="48.77411" lon="1.4085">
        <ele>143.2</ele>
        <time>2023-08-17T13:32:58Z</time>
      </trkpt>
      <trkpt lat="48.77411" lon="1.40845">
        <ele>143.4</ele>
        <time>2023-08-17T13:32:59Z</time>
      </trkpt>
      <trkpt lat="48.77412" lon="1.4084">
        <ele>143.4</ele>
        <time>2023-08-17T13:33:00Z</time>
      </trkpt>
      <trkpt lat="48.77413" lon="1.40835">
        <ele>143.4</ele>
        <time>2023-08-17T13:33:01Z</time>
      </trkpt>
      <trkpt lat="48.77411" lon="1.40816">
        <ele>143.6</ele>
        <time>2023-08-17T13:33:05Z</time>
      </trkpt>
      <trkpt lat="48.7741" lon="1.40812">
        <ele>143.8</ele>
        <time>2023-08-17T13:33:06Z</time>
      </trkpt>
      <trkpt lat="48.77409" lon="1.40808">
        <ele>143.8</ele>
        <time>2023-08-17T13:33:07Z</time>
      </trkpt>
      <trkpt lat="48.77408" lon="1.40803">
        <ele>143.8</ele>
        <time>2023-08-17T13:33:08Z</time>
      </trkpt>
      <trkpt lat="48.77406" lon="1.40797">
        <ele>143.8</ele>
        <time>2023-08-17T13:33:09Z</time>
      </trkpt>
      <trkpt lat="48.77404" lon="1.40793">
        <ele>144</ele>
        <time>2023-08-17T13:33:10Z</time>
      </trkpt>
      <trkpt lat="48.77399" lon="1.40787">
        <ele>144</ele>
        <time>2023-08-17T13:33:12Z</time>
      </trkpt>
      <trkpt lat="48.77397" lon="1.40784">
        <ele>144</ele>
        <time>2023-08-17T13:33:13Z</time>
      </trkpt>
      <trkpt lat="48.77393" lon="1.40777">
        <ele>144.2</ele>
        <time>2023-08-17T13:33:15Z</time>
      </trkpt>
      <trkpt lat="48.77392" lon="1.40773">
        <ele>144.4</ele>
        <time>2023-08-17T13:33:16Z</time>
      </trkpt>
      <trkpt lat="48.77391" lon="1.40768">
        <ele>144.4</ele>
        <time>2023-08-17T13:33:17Z</time>
      </trkpt>
      <trkpt lat="48.77389" lon="1.4076">
        <ele>144.4</ele>
        <time>2023-08-17T13:33:19Z</time>
      </trkpt>
      <trkpt lat="48.77382" lon="1.40748">
        <ele>144.6</ele>
        <time>2023-08-17T13:33:22Z</time>
      </trkpt>
      <trkpt lat="48.77373" lon="1.40739">
        <ele>144.8</ele>
        <time>2023-08-17T13:33:25Z</time>
      </trkpt>
      <trkpt lat="48.77365" lon="1.40721">
        <ele>144.8</ele>
        <time>2023-08-17T13:33:29Z</time>
      </trkpt>
      <trkpt lat="48.77363" lon="1.40717">
        <ele>144.8</ele>
        <time>2023-08-17T13:33:30Z</time>
      </trkpt>
      <trkpt lat="48.77361" lon="1.40713">
        <ele>144.8</ele>
        <time>2023-08-17T13:33:31Z</time>
      </trkpt>
      <trkpt lat="48.77359" lon="1.40706">
        <ele>144.8</ele>
        <time>2023-08-17T13:33:32Z</time>
      </trkpt>
      <trkpt lat="48.77356" lon="1.40703">
        <ele>144.8</ele>
        <time>2023-08-17T13:33:33Z</time>
      </trkpt>
      <trkpt lat="48.77353" lon="1.40701">
        <ele>144.8</ele>
        <time>2023-08-17T13:33:34Z</time>
      </trkpt>
      <trkpt lat="48.77347" lon="1.40694">
        <ele>144.8</ele>
        <time>2023-08-17T13:33:35Z</time>
      </trkpt>
      <trkpt lat="48.77344" lon="1.40689">
        <ele>144.8</ele>
        <time>2023-08-17T13:33:36Z</time>
      </trkpt>
      <trkpt lat="48.77326" lon="1.40662">
        <ele>144.6</ele>
        <time>2023-08-17T13:33:42Z</time>
      </trkpt>
      <trkpt lat="48.77327" lon="1.40658">
        <ele>144.6</ele>
        <time>2023-08-17T13:33:43Z</time>
      </trkpt>
      <trkpt lat="48.77327" lon="1.40655">
        <ele>144.4</ele>
        <time>2023-08-17T13:33:44Z</time>
      </trkpt>
      <trkpt lat="48.77325" lon="1.40648">
        <ele>144.4</ele>
        <time>2023-08-17T13:33:46Z</time>
      </trkpt>
      <trkpt lat="48.77319" lon="1.40642">
        <ele>144.4</ele>
        <time>2023-08-17T13:33:48Z</time>
      </trkpt>
      <trkpt lat="48.77317" lon="1.40638">
        <ele>144.4</ele>
        <time>2023-08-17T13:33:49Z</time>
      </trkpt>
      <trkpt lat="48.77315" lon="1.40634">
        <ele>144.4</ele>
        <time>2023-08-17T13:33:50Z</time>
      </trkpt>
      <trkpt lat="48.77313" lon="1.40629">
        <ele>144.4</ele>
        <time>2023-08-17T13:33:51Z</time>
      </trkpt>
      <trkpt lat="48.77311" lon="1.40625">
        <ele>144.4</ele>
        <time>2023-08-17T13:33:52Z</time>
      </trkpt>
      <trkpt lat="48.7731" lon="1.4062">
        <ele>144.4</ele>
        <time>2023-08-17T13:33:53Z</time>
      </trkpt>
      <trkpt lat="48.77308" lon="1.40616">
        <ele>144.4</ele>
        <time>2023-08-17T13:33:54Z</time>
      </trkpt>
      <trkpt lat="48.77306" lon="1.40612">
        <ele>144.4</ele>
        <time>2023-08-17T13:33:55Z</time>
      </trkpt>
      <trkpt lat="48.77301" lon="1.40602">
        <ele>144.6</ele>
        <time>2023-08-17T13:33:58Z</time>
      </trkpt>
      <trkpt lat="48.77297" lon="1.40598">
        <ele>144.6</ele>
        <time>2023-08-17T13:33:59Z</time>
      </trkpt>
      <trkpt lat="48.77281" lon="1.40573">
        <ele>144.8</ele>
        <time>2023-08-17T13:34:05Z</time>
      </trkpt>
      <trkpt lat="48.77279" lon="1.40569">
        <ele>144.8</ele>
        <time>2023-08-17T13:34:06Z</time>
      </trkpt>
      <trkpt lat="48.77276" lon="1.40565">
        <ele>144.8</ele>
        <time>2023-08-17T13:34:07Z</time>
      </trkpt>
      <trkpt lat="48.77272" lon="1.4056">
        <ele>144.8</ele>
        <time>2023-08-17T13:34:08Z</time>
      </trkpt>
      <trkpt lat="48.77269" lon="1.40556">
        <ele>144.8</ele>
        <time>2023-08-17T13:34:09Z</time>
      </trkpt>
      <trkpt lat="48.77263" lon="1.40543">
        <ele>145</ele>
        <time>2023-08-17T13:34:12Z</time>
      </trkpt>
      <trkpt lat="48.7726" lon="1.4054">
        <ele>144.8</ele>
        <time>2023-08-17T13:34:13Z</time>
      </trkpt>
      <trkpt lat="48.77257" lon="1.40538">
        <ele>144.8</ele>
        <time>2023-08-17T13:34:14Z</time>
      </trkpt>
      <trkpt lat="48.77255" lon="1.40536">
        <ele>145</ele>
        <time>2023-08-17T13:34:15Z</time>
      </trkpt>
      <trkpt lat="48.77253" lon="1.40533">
        <ele>144.8</ele>
        <time>2023-08-17T13:34:16Z</time>
      </trkpt>
      <trkpt lat="48.77251" lon="1.40528">
        <ele>145</ele>
        <time>2023-08-17T13:34:17Z</time>
      </trkpt>
      <trkpt lat="48.77249" lon="1.40525">
        <ele>145</ele>
        <time>2023-08-17T13:34:18Z</time>
      </trkpt>
      <trkpt lat="48.77246" lon="1.4052">
        <ele>145</ele>
        <time>2023-08-17T13:34:19Z</time>
      </trkpt>
      <trkpt lat="48.77244" lon="1.40516">
        <ele>145</ele>
        <time>2023-08-17T13:34:20Z</time>
      </trkpt>
      <trkpt lat="48.77241" lon="1.40499">
        <ele>145</ele>
        <time>2023-08-17T13:34:23Z</time>
      </trkpt>
      <trkpt lat="48.77238" lon="1.40485">
        <ele>145</ele>
        <time>2023-08-17T13:34:26Z</time>
      </trkpt>
      <trkpt lat="48.77237" lon="1.40481">
        <ele>145</ele>
        <time>2023-08-17T13:34:27Z</time>
      </trkpt>
      <trkpt lat="48.77236" lon="1.40462">
        <ele>145</ele>
        <time>2023-08-17T13:34:31Z</time>
      </trkpt>
      <trkpt lat="48.77235" lon="1.40451">
        <ele>145.2</ele>
        <time>2023-08-17T13:34:33Z</time>
      </trkpt>
      <trkpt lat="48.77233" lon="1.40447">
        <ele>145.2</ele>
        <time>2023-08-17T13:34:34Z</time>
      </trkpt>
      <trkpt lat="48.7723" lon="1.40443">
        <ele>145.2</ele>
        <time>2023-08-17T13:34:35Z</time>
      </trkpt>
      <trkpt lat="48.77228" lon="1.40439">
        <ele>145.2</ele>
        <time>2023-08-17T13:34:36Z</time>
      </trkpt>
      <trkpt lat="48.77226" lon="1.40435">
        <ele>145.2</ele>
        <time>2023-08-17T13:34:37Z</time>
      </trkpt>
      <trkpt lat="48.77223" lon="1.40431">
        <ele>145.2</ele>
        <time>2023-08-17T13:34:38Z</time>
      </trkpt>
      <trkpt lat="48.7722" lon="1.40428">
        <ele>145</ele>
        <time>2023-08-17T13:34:39Z</time>
      </trkpt>
      <trkpt lat="48.77217" lon="1.40424">
        <ele>145</ele>
        <time>2023-08-17T13:34:40Z</time>
      </trkpt>
      <trkpt lat="48.77215" lon="1.40419">
        <ele>145</ele>
        <time>2023-08-17T13:34:41Z</time>
      </trkpt>
      <trkpt lat="48.77213" lon="1.40414">
        <ele>145.2</ele>
        <time>2023-08-17T13:34:42Z</time>
      </trkpt>
      <trkpt lat="48.77211" lon="1.40409">
        <ele>145.2</ele>
        <time>2023-08-17T13:34:43Z</time>
      </trkpt>
      <trkpt lat="48.772" lon="1.40393">
        <ele>145</ele>
        <time>2023-08-17T13:34:47Z</time>
      </trkpt>
      <trkpt lat="48.77193" lon="1.40363">
        <ele>145</ele>
        <time>2023-08-17T13:34:52Z</time>
      </trkpt>
      <trkpt lat="48.77193" lon="1.40356">
        <ele>144.8</ele>
        <time>2023-08-17T13:34:53Z</time>
      </trkpt>
      <trkpt lat="48.77193" lon="1.40356">
        <ele>144.8</ele>
        <time>2023-08-17T13:34:54Z</time>
      </trkpt>
      <trkpt lat="48.77193" lon="1.40344">
        <ele>144.8</ele>
        <time>2023-08-17T13:34:55Z</time>
      </trkpt>
      <trkpt lat="48.77192" lon="1.40342">
        <ele>144.8</ele>
        <time>2023-08-17T13:34:56Z</time>
      </trkpt>
      <trkpt lat="48.77197" lon="1.40318">
        <ele>144.6</ele>
        <time>2023-08-17T13:35:00Z</time>
      </trkpt>
      <trkpt lat="48.772" lon="1.40313">
        <ele>144.6</ele>
        <time>2023-08-17T13:35:01Z</time>
      </trkpt>
      <trkpt lat="48.77204" lon="1.40308">
        <ele>144.4</ele>
        <time>2023-08-17T13:35:02Z</time>
      </trkpt>
      <trkpt lat="48.77208" lon="1.40304">
        <ele>144.4</ele>
        <time>2023-08-17T13:35:03Z</time>
      </trkpt>
      <trkpt lat="48.77211" lon="1.40299">
        <ele>144.2</ele>
        <time>2023-08-17T13:35:04Z</time>
      </trkpt>
      <trkpt lat="48.77214" lon="1.40295">
        <ele>144.2</ele>
        <time>2023-08-17T13:35:05Z</time>
      </trkpt>
      <trkpt lat="48.77214" lon="1.40295">
        <ele>143.8</ele>
        <time>2023-08-17T13:35:06Z</time>
      </trkpt>
      <trkpt lat="48.77223" lon="1.40285">
        <ele>143.6</ele>
        <time>2023-08-17T13:35:08Z</time>
      </trkpt>
      <trkpt lat="48.77231" lon="1.40267">
        <ele>143.4</ele>
        <time>2023-08-17T13:35:11Z</time>
      </trkpt>
      <trkpt lat="48.77231" lon="1.40267">
        <ele>143.2</ele>
        <time>2023-08-17T13:35:12Z</time>
      </trkpt>
      <trkpt lat="48.77236" lon="1.40259">
        <ele>143.2</ele>
        <time>2023-08-17T13:35:13Z</time>
      </trkpt>
      <trkpt lat="48.77239" lon="1.40255">
        <ele>143.2</ele>
        <time>2023-08-17T13:35:14Z</time>
      </trkpt>
      <trkpt lat="48.77239" lon="1.40255">
        <ele>143.2</ele>
        <time>2023-08-17T13:35:15Z</time>
      </trkpt>
      <trkpt lat="48.77245" lon="1.40251">
        <ele>143</ele>
        <time>2023-08-17T13:35:16Z</time>
      </trkpt>
      <trkpt lat="48.77248" lon="1.4025">
        <ele>143</ele>
        <time>2023-08-17T13:35:17Z</time>
      </trkpt>
      <trkpt lat="48.77248" lon="1.4025">
        <ele>143</ele>
        <time>2023-08-17T13:35:18Z</time>
      </trkpt>
      <trkpt lat="48.77256" lon="1.40248">
        <ele>142.8</ele>
        <time>2023-08-17T13:35:20Z</time>
      </trkpt>
      <trkpt lat="48.77256" lon="1.40248">
        <ele>142.8</ele>
        <time>2023-08-17T13:35:21Z</time>
      </trkpt>
      <trkpt lat="48.77262" lon="1.40247">
        <ele>142.8</ele>
        <time>2023-08-17T13:35:22Z</time>
      </trkpt>
      <trkpt lat="48.77264" lon="1.40246">
        <ele>143</ele>
        <time>2023-08-17T13:35:23Z</time>
      </trkpt>
      <trkpt lat="48.77267" lon="1.40245">
        <ele>143</ele>
        <time>2023-08-17T13:35:24Z</time>
      </trkpt>
      <trkpt lat="48.7727" lon="1.40244">
        <ele>143</ele>
        <time>2023-08-17T13:35:25Z</time>
      </trkpt>
      <trkpt lat="48.77272" lon="1.40242">
        <ele>143</ele>
        <time>2023-08-17T13:35:26Z</time>
      </trkpt>
      <trkpt lat="48.77275" lon="1.4024">
        <ele>143</ele>
        <time>2023-08-17T13:35:27Z</time>
      </trkpt>
      <trkpt lat="48.77278" lon="1.40237">
        <ele>143</ele>
        <time>2023-08-17T13:35:28Z</time>
      </trkpt>
      <trkpt lat="48.77283" lon="1.40233">
        <ele>143.4</ele>
        <time>2023-08-17T13:35:30Z</time>
      </trkpt>
      <trkpt lat="48.77285" lon="1.40231">
        <ele>143.6</ele>
        <time>2023-08-17T13:35:31Z</time>
      </trkpt>
      <trkpt lat="48.77287" lon="1.40229">
        <ele>143.6</ele>
        <time>2023-08-17T13:35:32Z</time>
      </trkpt>
      <trkpt lat="48.77295" lon="1.40226">
        <ele>144</ele>
        <time>2023-08-17T13:35:35Z</time>
      </trkpt>
      <trkpt lat="48.77297" lon="1.40224">
        <ele>144.2</ele>
        <time>2023-08-17T13:35:36Z</time>
      </trkpt>
      <trkpt lat="48.77299" lon="1.40222">
        <ele>144.2</ele>
        <time>2023-08-17T13:35:37Z</time>
      </trkpt>
      <trkpt lat="48.77301" lon="1.4022">
        <ele>144.2</ele>
        <time>2023-08-17T13:35:38Z</time>
      </trkpt>
      <trkpt lat="48.77302" lon="1.40217">
        <ele>144.2</ele>
        <time>2023-08-17T13:35:39Z</time>
      </trkpt>
      <trkpt lat="48.77303" lon="1.40216">
        <ele>144.4</ele>
        <time>2023-08-17T13:35:40Z</time>
      </trkpt>
      <trkpt lat="48.77303" lon="1.40214">
        <ele>144.4</ele>
        <time>2023-08-17T13:35:41Z</time>
      </trkpt>
      <trkpt lat="48.77304" lon="1.40212">
        <ele>144.4</ele>
        <time>2023-08-17T13:35:42Z</time>
      </trkpt>
      <trkpt lat="48.77304" lon="1.4021">
        <ele>144.4</ele>
        <time>2023-08-17T13:35:43Z</time>
      </trkpt>
      <trkpt lat="48.77304" lon="1.40208">
        <ele>144.4</ele>
        <time>2023-08-17T13:35:44Z</time>
      </trkpt>
      <trkpt lat="48.77303" lon="1.40206">
        <ele>144.4</ele>
        <time>2023-08-17T13:35:45Z</time>
      </trkpt>
      <trkpt lat="48.77302" lon="1.40203">
        <ele>144.4</ele>
        <time>2023-08-17T13:35:46Z</time>
      </trkpt>
      <trkpt lat="48.77301" lon="1.40201">
        <ele>144.4</ele>
        <time>2023-08-17T13:35:47Z</time>
      </trkpt>
      <trkpt lat="48.773" lon="1.40199">
        <ele>144.4</ele>
        <time>2023-08-17T13:35:48Z</time>
      </trkpt>
      <trkpt lat="48.77298" lon="1.40199">
        <ele>144.4</ele>
        <time>2023-08-17T13:35:49Z</time>
      </trkpt>
      <trkpt lat="48.77295" lon="1.40199">
        <ele>144.4</ele>
        <time>2023-08-17T13:35:50Z</time>
      </trkpt>
      <trkpt lat="48.77293" lon="1.40198">
        <ele>144.4</ele>
        <time>2023-08-17T13:35:51Z</time>
      </trkpt>
      <trkpt lat="48.7729" lon="1.40198">
        <ele>144.4</ele>
        <time>2023-08-17T13:35:52Z</time>
      </trkpt>
      <trkpt lat="48.77287" lon="1.40199">
        <ele>144.2</ele>
        <time>2023-08-17T13:35:53Z</time>
      </trkpt>
      <trkpt lat="48.77282" lon="1.402">
        <ele>144</ele>
        <time>2023-08-17T13:35:55Z</time>
      </trkpt>
      <trkpt lat="48.7728" lon="1.40199">
        <ele>143.8</ele>
        <time>2023-08-17T13:35:56Z</time>
      </trkpt>
      <trkpt lat="48.77278" lon="1.40196">
        <ele>143.8</ele>
        <time>2023-08-17T13:35:57Z</time>
      </trkpt>
      <trkpt lat="48.77277" lon="1.40191">
        <ele>143.8</ele>
        <time>2023-08-17T13:35:58Z</time>
      </trkpt>
      <trkpt lat="48.77276" lon="1.40186">
        <ele>143.8</ele>
        <time>2023-08-17T13:35:59Z</time>
      </trkpt>
      <trkpt lat="48.77276" lon="1.40182">
        <ele>143.6</ele>
        <time>2023-08-17T13:36:00Z</time>
      </trkpt>
      <trkpt lat="48.77274" lon="1.40178">
        <ele>143.6</ele>
        <time>2023-08-17T13:36:01Z</time>
      </trkpt>
      <trkpt lat="48.77273" lon="1.40173">
        <ele>143.6</ele>
        <time>2023-08-17T13:36:02Z</time>
      </trkpt>
      <trkpt lat="48.77272" lon="1.40168">
        <ele>143.4</ele>
        <time>2023-08-17T13:36:03Z</time>
      </trkpt>
      <trkpt lat="48.77267" lon="1.40149">
        <ele>143</ele>
        <time>2023-08-17T13:36:07Z</time>
      </trkpt>
      <trkpt lat="48.77265" lon="1.40145">
        <ele>143</ele>
        <time>2023-08-17T13:36:08Z</time>
      </trkpt>
      <trkpt lat="48.77263" lon="1.4014">
        <ele>142.8</ele>
        <time>2023-08-17T13:36:09Z</time>
      </trkpt>
      <trkpt lat="48.77262" lon="1.40136">
        <ele>142.8</ele>
        <time>2023-08-17T13:36:10Z</time>
      </trkpt>
      <trkpt lat="48.77261" lon="1.40131">
        <ele>142.8</ele>
        <time>2023-08-17T13:36:11Z</time>
      </trkpt>
      <trkpt lat="48.77257" lon="1.40118">
        <ele>143</ele>
        <time>2023-08-17T13:36:14Z</time>
      </trkpt>
      <trkpt lat="48.77254" lon="1.40109">
        <ele>143.2</ele>
        <time>2023-08-17T13:36:16Z</time>
      </trkpt>
      <trkpt lat="48.77252" lon="1.401">
        <ele>143.4</ele>
        <time>2023-08-17T13:36:18Z</time>
      </trkpt>
      <trkpt lat="48.7725" lon="1.40094">
        <ele>143.4</ele>
        <time>2023-08-17T13:36:19Z</time>
      </trkpt>
      <trkpt lat="48.7725" lon="1.40089">
        <ele>143.6</ele>
        <time>2023-08-17T13:36:20Z</time>
      </trkpt>
      <trkpt lat="48.7725" lon="1.40084">
        <ele>143.6</ele>
        <time>2023-08-17T13:36:21Z</time>
      </trkpt>
      <trkpt lat="48.77252" lon="1.4008">
        <ele>143.6</ele>
        <time>2023-08-17T13:36:22Z</time>
      </trkpt>
      <trkpt lat="48.77254" lon="1.40076">
        <ele>143.8</ele>
        <time>2023-08-17T13:36:23Z</time>
      </trkpt>
      <trkpt lat="48.77256" lon="1.40071">
        <ele>144</ele>
        <time>2023-08-17T13:36:24Z</time>
      </trkpt>
      <trkpt lat="48.77258" lon="1.40066">
        <ele>144</ele>
        <time>2023-08-17T13:36:25Z</time>
      </trkpt>
      <trkpt lat="48.7726" lon="1.4006">
        <ele>144.2</ele>
        <time>2023-08-17T13:36:26Z</time>
      </trkpt>
      <trkpt lat="48.77265" lon="1.4005">
        <ele>144.2</ele>
        <time>2023-08-17T13:36:28Z</time>
      </trkpt>
      <trkpt lat="48.77266" lon="1.40046">
        <ele>144.4</ele>
        <time>2023-08-17T13:36:29Z</time>
      </trkpt>
      <trkpt lat="48.77266" lon="1.40041">
        <ele>144.6</ele>
        <time>2023-08-17T13:36:30Z</time>
      </trkpt>
      <trkpt lat="48.77268" lon="1.40037">
        <ele>144.6</ele>
        <time>2023-08-17T13:36:31Z</time>
      </trkpt>
      <trkpt lat="48.7727" lon="1.40032">
        <ele>144.8</ele>
        <time>2023-08-17T13:36:32Z</time>
      </trkpt>
      <trkpt lat="48.77276" lon="1.40013">
        <ele>145</ele>
        <time>2023-08-17T13:36:36Z</time>
      </trkpt>
      <trkpt lat="48.77283" lon="1.39992">
        <ele>145.2</ele>
        <time>2023-08-17T13:36:41Z</time>
      </trkpt>
      <trkpt lat="48.77285" lon="1.39987">
        <ele>145.2</ele>
        <time>2023-08-17T13:36:42Z</time>
      </trkpt>
      <trkpt lat="48.77285" lon="1.39987">
        <ele>145.2</ele>
        <time>2023-08-17T13:36:43Z</time>
      </trkpt>
      <trkpt lat="48.77292" lon="1.3996">
        <ele>145.2</ele>
        <time>2023-08-17T13:36:47Z</time>
      </trkpt>
      <trkpt lat="48.77307" lon="1.39927">
        <ele>145.6</ele>
        <time>2023-08-17T13:36:54Z</time>
      </trkpt>
      <trkpt lat="48.77309" lon="1.39915">
        <ele>145.6</ele>
        <time>2023-08-17T13:36:57Z</time>
      </trkpt>
      <trkpt lat="48.77311" lon="1.39904">
        <ele>145.6</ele>
        <time>2023-08-17T13:36:58Z</time>
      </trkpt>
      <trkpt lat="48.77312" lon="1.39899">
        <ele>145.6</ele>
        <time>2023-08-17T13:36:59Z</time>
      </trkpt>
      <trkpt lat="48.77313" lon="1.39895">
        <ele>145.6</ele>
        <time>2023-08-17T13:37:00Z</time>
      </trkpt>
      <trkpt lat="48.77314" lon="1.39886">
        <ele>145.6</ele>
        <time>2023-08-17T13:37:02Z</time>
      </trkpt>
      <trkpt lat="48.77317" lon="1.39872">
        <ele>145.6</ele>
        <time>2023-08-17T13:37:05Z</time>
      </trkpt>
      <trkpt lat="48.77318" lon="1.39867">
        <ele>145.6</ele>
        <time>2023-08-17T13:37:06Z</time>
      </trkpt>
      <trkpt lat="48.77318" lon="1.3986">
        <ele>145.6</ele>
        <time>2023-08-17T13:37:07Z</time>
      </trkpt>
      <trkpt lat="48.77321" lon="1.39836">
        <ele>145.6</ele>
        <time>2023-08-17T13:37:11Z</time>
      </trkpt>
      <trkpt lat="48.77323" lon="1.39825">
        <ele>145.6</ele>
        <time>2023-08-17T13:37:13Z</time>
      </trkpt>
      <trkpt lat="48.77324" lon="1.39819">
        <ele>145.6</ele>
        <time>2023-08-17T13:37:14Z</time>
      </trkpt>
      <trkpt lat="48.77326" lon="1.39801">
        <ele>145.6</ele>
        <time>2023-08-17T13:37:17Z</time>
      </trkpt>
      <trkpt lat="48.77326" lon="1.39794">
        <ele>145.6</ele>
        <time>2023-08-17T13:37:18Z</time>
      </trkpt>
      <trkpt lat="48.77327" lon="1.39789">
        <ele>145.6</ele>
        <time>2023-08-17T13:37:19Z</time>
      </trkpt>
      <trkpt lat="48.77327" lon="1.39783">
        <ele>145.8</ele>
        <time>2023-08-17T13:37:20Z</time>
      </trkpt>
      <trkpt lat="48.77327" lon="1.39776">
        <ele>145.8</ele>
        <time>2023-08-17T13:37:21Z</time>
      </trkpt>
      <trkpt lat="48.7733" lon="1.39752">
        <ele>145.8</ele>
        <time>2023-08-17T13:37:25Z</time>
      </trkpt>
      <trkpt lat="48.77334" lon="1.39723">
        <ele>146</ele>
        <time>2023-08-17T13:37:30Z</time>
      </trkpt>
      <trkpt lat="48.77334" lon="1.39714">
        <ele>146</ele>
        <time>2023-08-17T13:37:31Z</time>
      </trkpt>
      <trkpt lat="48.77337" lon="1.39688">
        <ele>146</ele>
        <time>2023-08-17T13:37:35Z</time>
      </trkpt>
      <trkpt lat="48.77338" lon="1.39681">
        <ele>146</ele>
        <time>2023-08-17T13:37:36Z</time>
      </trkpt>
      <trkpt lat="48.77342" lon="1.39642">
        <ele>146</ele>
        <time>2023-08-17T13:37:42Z</time>
      </trkpt>
      <trkpt lat="48.77343" lon="1.39636">
        <ele>146</ele>
        <time>2023-08-17T13:37:43Z</time>
      </trkpt>
      <trkpt lat="48.77346" lon="1.3963">
        <ele>146</ele>
        <time>2023-08-17T13:37:44Z</time>
      </trkpt>
      <trkpt lat="48.77351" lon="1.3962">
        <ele>146</ele>
        <time>2023-08-17T13:37:46Z</time>
      </trkpt>
      <trkpt lat="48.77349" lon="1.39614">
        <ele>146</ele>
        <time>2023-08-17T13:37:47Z</time>
      </trkpt>
      <trkpt lat="48.77348" lon="1.39607">
        <ele>145.8</ele>
        <time>2023-08-17T13:37:48Z</time>
      </trkpt>
      <trkpt lat="48.77349" lon="1.39601">
        <ele>145.8</ele>
        <time>2023-08-17T13:37:49Z</time>
      </trkpt>
      <trkpt lat="48.77352" lon="1.39596">
        <ele>145.8</ele>
        <time>2023-08-17T13:37:50Z</time>
      </trkpt>
      <trkpt lat="48.77359" lon="1.39571">
        <ele>145.8</ele>
        <time>2023-08-17T13:37:55Z</time>
      </trkpt>
      <trkpt lat="48.77361" lon="1.39566">
        <ele>145.8</ele>
        <time>2023-08-17T13:37:56Z</time>
      </trkpt>
      <trkpt lat="48.77363" lon="1.39561">
        <ele>145.8</ele>
        <time>2023-08-17T13:37:57Z</time>
      </trkpt>
      <trkpt lat="48.77367" lon="1.39551">
        <ele>146</ele>
        <time>2023-08-17T13:37:59Z</time>
      </trkpt>
      <trkpt lat="48.77369" lon="1.39546">
        <ele>146.2</ele>
        <time>2023-08-17T13:38:00Z</time>
      </trkpt>
      <trkpt lat="48.77373" lon="1.39536">
        <ele>146</ele>
        <time>2023-08-17T13:38:02Z</time>
      </trkpt>
      <trkpt lat="48.77375" lon="1.3953">
        <ele>146.2</ele>
        <time>2023-08-17T13:38:03Z</time>
      </trkpt>
      <trkpt lat="48.77382" lon="1.39498">
        <ele>146.2</ele>
        <time>2023-08-17T13:38:08Z</time>
      </trkpt>
      <trkpt lat="48.77387" lon="1.39487">
        <ele>146.2</ele>
        <time>2023-08-17T13:38:10Z</time>
      </trkpt>
      <trkpt lat="48.77399" lon="1.39462">
        <ele>146</ele>
        <time>2023-08-17T13:38:14Z</time>
      </trkpt>
      <trkpt lat="48.77402" lon="1.39454">
        <ele>146</ele>
        <time>2023-08-17T13:38:15Z</time>
      </trkpt>
      <trkpt lat="48.77405" lon="1.39446">
        <ele>146</ele>
        <time>2023-08-17T13:38:16Z</time>
      </trkpt>
      <trkpt lat="48.77415" lon="1.3941">
        <ele>145.2</ele>
        <time>2023-08-17T13:38:20Z</time>
      </trkpt>
      <trkpt lat="48.7742" lon="1.39389">
        <ele>145</ele>
        <time>2023-08-17T13:38:22Z</time>
      </trkpt>
      <trkpt lat="48.77425" lon="1.39364">
        <ele>144.8</ele>
        <time>2023-08-17T13:38:24Z</time>
      </trkpt>
      <trkpt lat="48.77427" lon="1.3935">
        <ele>144.6</ele>
        <time>2023-08-17T13:38:25Z</time>
      </trkpt>
      <trkpt lat="48.7743" lon="1.39336">
        <ele>144.4</ele>
        <time>2023-08-17T13:38:26Z</time>
      </trkpt>
      <trkpt lat="48.77435" lon="1.3931">
        <ele>143.4</ele>
        <time>2023-08-17T13:38:28Z</time>
      </trkpt>
      <trkpt lat="48.77437" lon="1.393">
        <ele>143</ele>
        <time>2023-08-17T13:38:29Z</time>
      </trkpt>
      <trkpt lat="48.77438" lon="1.3929">
        <ele>142.4</ele>
        <time>2023-08-17T13:38:30Z</time>
      </trkpt>
      <trkpt lat="48.7744" lon="1.39282">
        <ele>142</ele>
        <time>2023-08-17T13:38:31Z</time>
      </trkpt>
      <trkpt lat="48.77442" lon="1.39275">
        <ele>141.6</ele>
        <time>2023-08-17T13:38:32Z</time>
      </trkpt>
      <trkpt lat="48.77443" lon="1.39269">
        <ele>141.6</ele>
        <time>2023-08-17T13:38:33Z</time>
      </trkpt>
      <trkpt lat="48.77443" lon="1.39263">
        <ele>141.6</ele>
        <time>2023-08-17T13:38:34Z</time>
      </trkpt>
      <trkpt lat="48.77443" lon="1.39255">
        <ele>141.4</ele>
        <time>2023-08-17T13:38:35Z</time>
      </trkpt>
      <trkpt lat="48.77441" lon="1.39247">
        <ele>141.4</ele>
        <time>2023-08-17T13:38:36Z</time>
      </trkpt>
      <trkpt lat="48.77442" lon="1.39241">
        <ele>141.4</ele>
        <time>2023-08-17T13:38:37Z</time>
      </trkpt>
      <trkpt lat="48.77443" lon="1.39235">
        <ele>141.4</ele>
        <time>2023-08-17T13:38:38Z</time>
      </trkpt>
      <trkpt lat="48.77443" lon="1.39226">
        <ele>141.4</ele>
        <time>2023-08-17T13:38:40Z</time>
      </trkpt>
      <trkpt lat="48.77443" lon="1.39221">
        <ele>141.8</ele>
        <time>2023-08-17T13:38:41Z</time>
      </trkpt>
      <trkpt lat="48.77443" lon="1.39217">
        <ele>142</ele>
        <time>2023-08-17T13:38:42Z</time>
      </trkpt>
      <trkpt lat="48.77443" lon="1.39212">
        <ele>142.2</ele>
        <time>2023-08-17T13:38:43Z</time>
      </trkpt>
      <trkpt lat="48.77445" lon="1.39197">
        <ele>142.6</ele>
        <time>2023-08-17T13:38:46Z</time>
      </trkpt>
      <trkpt lat="48.77447" lon="1.39192">
        <ele>142.6</ele>
        <time>2023-08-17T13:38:47Z</time>
      </trkpt>
      <trkpt lat="48.7745" lon="1.39188">
        <ele>142.6</ele>
        <time>2023-08-17T13:38:48Z</time>
      </trkpt>
      <trkpt lat="48.77452" lon="1.39184">
        <ele>142.8</ele>
        <time>2023-08-17T13:38:49Z</time>
      </trkpt>
      <trkpt lat="48.77454" lon="1.3918">
        <ele>142.8</ele>
        <time>2023-08-17T13:38:50Z</time>
      </trkpt>
      <trkpt lat="48.77456" lon="1.39175">
        <ele>142.8</ele>
        <time>2023-08-17T13:38:51Z</time>
      </trkpt>
      <trkpt lat="48.77458" lon="1.39163">
        <ele>142.8</ele>
        <time>2023-08-17T13:38:53Z</time>
      </trkpt>
      <trkpt lat="48.77458" lon="1.39157">
        <ele>142.8</ele>
        <time>2023-08-17T13:38:54Z</time>
      </trkpt>
      <trkpt lat="48.77456" lon="1.39151">
        <ele>142.8</ele>
        <time>2023-08-17T13:38:55Z</time>
      </trkpt>
      <trkpt lat="48.77455" lon="1.39145">
        <ele>142.8</ele>
        <time>2023-08-17T13:38:56Z</time>
      </trkpt>
      <trkpt lat="48.77453" lon="1.39138">
        <ele>142.8</ele>
        <time>2023-08-17T13:38:57Z</time>
      </trkpt>
      <trkpt lat="48.77452" lon="1.39133">
        <ele>142.8</ele>
        <time>2023-08-17T13:38:58Z</time>
      </trkpt>
      <trkpt lat="48.77451" lon="1.39127">
        <ele>142.8</ele>
        <time>2023-08-17T13:38:59Z</time>
      </trkpt>
      <trkpt lat="48.7745" lon="1.39121">
        <ele>143</ele>
        <time>2023-08-17T13:39:01Z</time>
      </trkpt>
      <trkpt lat="48.77448" lon="1.39099">
        <ele>143</ele>
        <time>2023-08-17T13:39:04Z</time>
      </trkpt>
      <trkpt lat="48.77448" lon="1.39093">
        <ele>143</ele>
        <time>2023-08-17T13:39:05Z</time>
      </trkpt>
      <trkpt lat="48.77447" lon="1.39083">
        <ele>143.2</ele>
        <time>2023-08-17T13:39:07Z</time>
      </trkpt>
      <trkpt lat="48.77448" lon="1.39079">
        <ele>143.2</ele>
        <time>2023-08-17T13:39:08Z</time>
      </trkpt>
      <trkpt lat="48.7745" lon="1.39075">
        <ele>143.4</ele>
        <time>2023-08-17T13:39:09Z</time>
      </trkpt>
      <trkpt lat="48.77452" lon="1.3907">
        <ele>143.4</ele>
        <time>2023-08-17T13:39:10Z</time>
      </trkpt>
      <trkpt lat="48.77454" lon="1.39064">
        <ele>143.6</ele>
        <time>2023-08-17T13:39:11Z</time>
      </trkpt>
      <trkpt lat="48.77454" lon="1.39058">
        <ele>143.6</ele>
        <time>2023-08-17T13:39:12Z</time>
      </trkpt>
      <trkpt lat="48.77455" lon="1.39054">
        <ele>143.6</ele>
        <time>2023-08-17T13:39:13Z</time>
      </trkpt>
      <trkpt lat="48.77455" lon="1.39048">
        <ele>143.6</ele>
        <time>2023-08-17T13:39:14Z</time>
      </trkpt>
      <trkpt lat="48.77454" lon="1.39042">
        <ele>143.8</ele>
        <time>2023-08-17T13:39:15Z</time>
      </trkpt>
      <trkpt lat="48.77454" lon="1.39036">
        <ele>143.8</ele>
        <time>2023-08-17T13:39:16Z</time>
      </trkpt>
      <trkpt lat="48.77455" lon="1.39032">
        <ele>143.8</ele>
        <time>2023-08-17T13:39:17Z</time>
      </trkpt>
      <trkpt lat="48.77456" lon="1.39027">
        <ele>143.8</ele>
        <time>2023-08-17T13:39:18Z</time>
      </trkpt>
      <trkpt lat="48.77459" lon="1.39016">
        <ele>143.8</ele>
        <time>2023-08-17T13:39:20Z</time>
      </trkpt>
      <trkpt lat="48.77459" lon="1.39011">
        <ele>143.8</ele>
        <time>2023-08-17T13:39:21Z</time>
      </trkpt>
      <trkpt lat="48.77459" lon="1.39001">
        <ele>143.8</ele>
        <time>2023-08-17T13:39:23Z</time>
      </trkpt>
      <trkpt lat="48.77459" lon="1.38996">
        <ele>143.8</ele>
        <time>2023-08-17T13:39:24Z</time>
      </trkpt>
      <trkpt lat="48.77458" lon="1.38992">
        <ele>143.8</ele>
        <time>2023-08-17T13:39:25Z</time>
      </trkpt>
      <trkpt lat="48.77459" lon="1.38988">
        <ele>144</ele>
        <time>2023-08-17T13:39:26Z</time>
      </trkpt>
      <trkpt lat="48.7746" lon="1.38983">
        <ele>144</ele>
        <time>2023-08-17T13:39:27Z</time>
      </trkpt>
      <trkpt lat="48.77461" lon="1.38978">
        <ele>144</ele>
        <time>2023-08-17T13:39:28Z</time>
      </trkpt>
      <trkpt lat="48.77461" lon="1.38973">
        <ele>144</ele>
        <time>2023-08-17T13:39:29Z</time>
      </trkpt>
      <trkpt lat="48.77465" lon="1.38951">
        <ele>144.2</ele>
        <time>2023-08-17T13:39:33Z</time>
      </trkpt>
      <trkpt lat="48.77466" lon="1.38946">
        <ele>144.2</ele>
        <time>2023-08-17T13:39:34Z</time>
      </trkpt>
      <trkpt lat="48.77469" lon="1.38926">
        <ele>144.2</ele>
        <time>2023-08-17T13:39:38Z</time>
      </trkpt>
      <trkpt lat="48.77473" lon="1.38912">
        <ele>144.2</ele>
        <time>2023-08-17T13:39:41Z</time>
      </trkpt>
      <trkpt lat="48.77475" lon="1.38908">
        <ele>144.4</ele>
        <time>2023-08-17T13:39:42Z</time>
      </trkpt>
      <trkpt lat="48.77476" lon="1.38904">
        <ele>144.4</ele>
        <time>2023-08-17T13:39:43Z</time>
      </trkpt>
      <trkpt lat="48.77478" lon="1.38899">
        <ele>144.4</ele>
        <time>2023-08-17T13:39:44Z</time>
      </trkpt>
      <trkpt lat="48.77479" lon="1.38895">
        <ele>144.4</ele>
        <time>2023-08-17T13:39:45Z</time>
      </trkpt>
      <trkpt lat="48.77481" lon="1.38889">
        <ele>144.4</ele>
        <time>2023-08-17T13:39:46Z</time>
      </trkpt>
      <trkpt lat="48.77482" lon="1.38884">
        <ele>144.6</ele>
        <time>2023-08-17T13:39:47Z</time>
      </trkpt>
      <trkpt lat="48.77484" lon="1.38874">
        <ele>144.8</ele>
        <time>2023-08-17T13:39:50Z</time>
      </trkpt>
      <trkpt lat="48.77487" lon="1.38864">
        <ele>144.8</ele>
        <time>2023-08-17T13:39:51Z</time>
      </trkpt>
      <trkpt lat="48.77494" lon="1.38839">
        <ele>144.8</ele>
        <time>2023-08-17T13:39:56Z</time>
      </trkpt>
      <trkpt lat="48.77497" lon="1.38817">
        <ele>145</ele>
        <time>2023-08-17T13:40:00Z</time>
      </trkpt>
      <trkpt lat="48.77503" lon="1.38804">
        <ele>145</ele>
        <time>2023-08-17T13:40:03Z</time>
      </trkpt>
      <trkpt lat="48.77507" lon="1.388">
        <ele>145</ele>
        <time>2023-08-17T13:40:04Z</time>
      </trkpt>
      <trkpt lat="48.7751" lon="1.38796">
        <ele>145</ele>
        <time>2023-08-17T13:40:05Z</time>
      </trkpt>
      <trkpt lat="48.77512" lon="1.38791">
        <ele>145</ele>
        <time>2023-08-17T13:40:06Z</time>
      </trkpt>
      <trkpt lat="48.77512" lon="1.38782">
        <ele>145</ele>
        <time>2023-08-17T13:40:08Z</time>
      </trkpt>
      <trkpt lat="48.77512" lon="1.38776">
        <ele>145</ele>
        <time>2023-08-17T13:40:09Z</time>
      </trkpt>
      <trkpt lat="48.77512" lon="1.38771">
        <ele>145</ele>
        <time>2023-08-17T13:40:10Z</time>
      </trkpt>
      <trkpt lat="48.77511" lon="1.38766">
        <ele>145</ele>
        <time>2023-08-17T13:40:11Z</time>
      </trkpt>
      <trkpt lat="48.77512" lon="1.38762">
        <ele>145.2</ele>
        <time>2023-08-17T13:40:12Z</time>
      </trkpt>
      <trkpt lat="48.77514" lon="1.38758">
        <ele>145.2</ele>
        <time>2023-08-17T13:40:13Z</time>
      </trkpt>
      <trkpt lat="48.77516" lon="1.38755">
        <ele>145.2</ele>
        <time>2023-08-17T13:40:14Z</time>
      </trkpt>
      <trkpt lat="48.77517" lon="1.3875">
        <ele>145.2</ele>
        <time>2023-08-17T13:40:15Z</time>
      </trkpt>
      <trkpt lat="48.77519" lon="1.38746">
        <ele>145.2</ele>
        <time>2023-08-17T13:40:16Z</time>
      </trkpt>
      <trkpt lat="48.77521" lon="1.38742">
        <ele>145.2</ele>
        <time>2023-08-17T13:40:17Z</time>
      </trkpt>
      <trkpt lat="48.77531" lon="1.38724">
        <ele>145.2</ele>
        <time>2023-08-17T13:40:22Z</time>
      </trkpt>
      <trkpt lat="48.77542" lon="1.38705">
        <ele>145</ele>
        <time>2023-08-17T13:40:27Z</time>
      </trkpt>
      <trkpt lat="48.77544" lon="1.38701">
        <ele>144.8</ele>
        <time>2023-08-17T13:40:28Z</time>
      </trkpt>
      <trkpt lat="48.77547" lon="1.38696">
        <ele>144.8</ele>
        <time>2023-08-17T13:40:29Z</time>
      </trkpt>
      <trkpt lat="48.77553" lon="1.38675">
        <ele>144.6</ele>
        <time>2023-08-17T13:40:33Z</time>
      </trkpt>
      <trkpt lat="48.77563" lon="1.38652">
        <ele>144.4</ele>
        <time>2023-08-17T13:40:38Z</time>
      </trkpt>
      <trkpt lat="48.77567" lon="1.38642">
        <ele>144.2</ele>
        <time>2023-08-17T13:40:40Z</time>
      </trkpt>
      <trkpt lat="48.77569" lon="1.38636">
        <ele>144</ele>
        <time>2023-08-17T13:40:41Z</time>
      </trkpt>
      <trkpt lat="48.77571" lon="1.38631">
        <ele>144</ele>
        <time>2023-08-17T13:40:42Z</time>
      </trkpt>
      <trkpt lat="48.77577" lon="1.3862">
        <ele>143.8</ele>
        <time>2023-08-17T13:40:44Z</time>
      </trkpt>
      <trkpt lat="48.7759" lon="1.38586">
        <ele>143.6</ele>
        <time>2023-08-17T13:40:50Z</time>
      </trkpt>
      <trkpt lat="48.77599" lon="1.38564">
        <ele>143.6</ele>
        <time>2023-08-17T13:40:54Z</time>
      </trkpt>
      <trkpt lat="48.77602" lon="1.38552">
        <ele>143.4</ele>
        <time>2023-08-17T13:40:56Z</time>
      </trkpt>
      <trkpt lat="48.77605" lon="1.38541">
        <ele>143.4</ele>
        <time>2023-08-17T13:40:58Z</time>
      </trkpt>
      <trkpt lat="48.77608" lon="1.38536">
        <ele>143</ele>
        <time>2023-08-17T13:41:00Z</time>
      </trkpt>
      <trkpt lat="48.77611" lon="1.38526">
        <ele>142.8</ele>
        <time>2023-08-17T13:41:01Z</time>
      </trkpt>
      <trkpt lat="48.77612" lon="1.38522">
        <ele>142.6</ele>
        <time>2023-08-17T13:41:02Z</time>
      </trkpt>
      <trkpt lat="48.77614" lon="1.38519">
        <ele>142.6</ele>
        <time>2023-08-17T13:41:03Z</time>
      </trkpt>
      <trkpt lat="48.77616" lon="1.38516">
        <ele>142.6</ele>
        <time>2023-08-17T13:41:04Z</time>
      </trkpt>
      <trkpt lat="48.77619" lon="1.38511">
        <ele>142.6</ele>
        <time>2023-08-17T13:41:05Z</time>
      </trkpt>
      <trkpt lat="48.77621" lon="1.38507">
        <ele>142.8</ele>
        <time>2023-08-17T13:41:06Z</time>
      </trkpt>
      <trkpt lat="48.77629" lon="1.38489">
        <ele>142.8</ele>
        <time>2023-08-17T13:41:10Z</time>
      </trkpt>
      <trkpt lat="48.77632" lon="1.38485">
        <ele>142.8</ele>
        <time>2023-08-17T13:41:11Z</time>
      </trkpt>
      <trkpt lat="48.77634" lon="1.38481">
        <ele>142.8</ele>
        <time>2023-08-17T13:41:12Z</time>
      </trkpt>
      <trkpt lat="48.7765" lon="1.38452">
        <ele>143.2</ele>
        <time>2023-08-17T13:41:19Z</time>
      </trkpt>
      <trkpt lat="48.77653" lon="1.38448">
        <ele>143.2</ele>
        <time>2023-08-17T13:41:20Z</time>
      </trkpt>
      <trkpt lat="48.77655" lon="1.38446">
        <ele>143.2</ele>
        <time>2023-08-17T13:41:21Z</time>
      </trkpt>
      <trkpt lat="48.77657" lon="1.38444">
        <ele>143.2</ele>
        <time>2023-08-17T13:41:22Z</time>
      </trkpt>
      <trkpt lat="48.7766" lon="1.38443">
        <ele>143.2</ele>
        <time>2023-08-17T13:41:23Z</time>
      </trkpt>
      <trkpt lat="48.77663" lon="1.38441">
        <ele>143.2</ele>
        <time>2023-08-17T13:41:24Z</time>
      </trkpt>
      <trkpt lat="48.77672" lon="1.38425">
        <ele>143.6</ele>
        <time>2023-08-17T13:41:28Z</time>
      </trkpt>
      <trkpt lat="48.77673" lon="1.38422">
        <ele>143.6</ele>
        <time>2023-08-17T13:41:29Z</time>
      </trkpt>
      <trkpt lat="48.77673" lon="1.38422">
        <ele>143.6</ele>
        <time>2023-08-17T13:41:30Z</time>
      </trkpt>
      <trkpt lat="48.77677" lon="1.38419">
        <ele>143.6</ele>
        <time>2023-08-17T13:41:31Z</time>
      </trkpt>
      <trkpt lat="48.77679" lon="1.38417">
        <ele>143.8</ele>
        <time>2023-08-17T13:41:32Z</time>
      </trkpt>
      <trkpt lat="48.77681" lon="1.38415">
        <ele>143.8</ele>
        <time>2023-08-17T13:41:33Z</time>
      </trkpt>
      <trkpt lat="48.77697" lon="1.38392">
        <ele>143.8</ele>
        <time>2023-08-17T13:41:39Z</time>
      </trkpt>
      <trkpt lat="48.77707" lon="1.38375">
        <ele>143.8</ele>
        <time>2023-08-17T13:41:44Z</time>
      </trkpt>
      <trkpt lat="48.7771" lon="1.38372">
        <ele>143.8</ele>
        <time>2023-08-17T13:41:45Z</time>
      </trkpt>
      <trkpt lat="48.77713" lon="1.3837">
        <ele>143.8</ele>
        <time>2023-08-17T13:41:46Z</time>
      </trkpt>
      <trkpt lat="48.77727" lon="1.38355">
        <ele>143.8</ele>
        <time>2023-08-17T13:41:51Z</time>
      </trkpt>
      <trkpt lat="48.77728" lon="1.38351">
        <ele>143.8</ele>
        <time>2023-08-17T13:41:52Z</time>
      </trkpt>
      <trkpt lat="48.77731" lon="1.38343">
        <ele>143.8</ele>
        <time>2023-08-17T13:41:53Z</time>
      </trkpt>
      <trkpt lat="48.77732" lon="1.38337">
        <ele>143.8</ele>
        <time>2023-08-17T13:41:54Z</time>
      </trkpt>
      <trkpt lat="48.77734" lon="1.3833">
        <ele>143.8</ele>
        <time>2023-08-17T13:41:55Z</time>
      </trkpt>
      <trkpt lat="48.77737" lon="1.3832">
        <ele>143.8</ele>
        <time>2023-08-17T13:41:57Z</time>
      </trkpt>
      <trkpt lat="48.77741" lon="1.38311">
        <ele>143.8</ele>
        <time>2023-08-17T13:41:59Z</time>
      </trkpt>
      <trkpt lat="48.77743" lon="1.38308">
        <ele>143.8</ele>
        <time>2023-08-17T13:42:00Z</time>
      </trkpt>
      <trkpt lat="48.77746" lon="1.38305">
        <ele>143.8</ele>
        <time>2023-08-17T13:42:01Z</time>
      </trkpt>
      <trkpt lat="48.77749" lon="1.383">
        <ele>143.8</ele>
        <time>2023-08-17T13:42:02Z</time>
      </trkpt>
      <trkpt lat="48.77749" lon="1.383">
        <ele>143.8</ele>
        <time>2023-08-17T13:42:03Z</time>
      </trkpt>
      <trkpt lat="48.77763" lon="1.38278">
        <ele>143.6</ele>
        <time>2023-08-17T13:42:07Z</time>
      </trkpt>
      <trkpt lat="48.7778" lon="1.38262">
        <ele>143.4</ele>
        <time>2023-08-17T13:42:12Z</time>
      </trkpt>
      <trkpt lat="48.77794" lon="1.38244">
        <ele>142.6</ele>
        <time>2023-08-17T13:42:17Z</time>
      </trkpt>
      <trkpt lat="48.77797" lon="1.3824">
        <ele>142.6</ele>
        <time>2023-08-17T13:42:18Z</time>
      </trkpt>
      <trkpt lat="48.77799" lon="1.38238">
        <ele>142.6</ele>
        <time>2023-08-17T13:42:19Z</time>
      </trkpt>
      <trkpt lat="48.77801" lon="1.38237">
        <ele>142.4</ele>
        <time>2023-08-17T13:42:20Z</time>
      </trkpt>
      <trkpt lat="48.77803" lon="1.38236">
        <ele>142.4</ele>
        <time>2023-08-17T13:42:21Z</time>
      </trkpt>
      <trkpt lat="48.77807" lon="1.38235">
        <ele>142.4</ele>
        <time>2023-08-17T13:42:22Z</time>
      </trkpt>
      <trkpt lat="48.7781" lon="1.38232">
        <ele>142.4</ele>
        <time>2023-08-17T13:42:23Z</time>
      </trkpt>
      <trkpt lat="48.77821" lon="1.38222">
        <ele>142.2</ele>
        <time>2023-08-17T13:42:26Z</time>
      </trkpt>
      <trkpt lat="48.77831" lon="1.3821">
        <ele>142.2</ele>
        <time>2023-08-17T13:42:30Z</time>
      </trkpt>
      <trkpt lat="48.77842" lon="1.38198">
        <ele>142</ele>
        <time>2023-08-17T13:42:33Z</time>
      </trkpt>
      <trkpt lat="48.77848" lon="1.38193">
        <ele>141.8</ele>
        <time>2023-08-17T13:42:35Z</time>
      </trkpt>
      <trkpt lat="48.77851" lon="1.38191">
        <ele>141.8</ele>
        <time>2023-08-17T13:42:36Z</time>
      </trkpt>
      <trkpt lat="48.77854" lon="1.3819">
        <ele>141.8</ele>
        <time>2023-08-17T13:42:37Z</time>
      </trkpt>
      <trkpt lat="48.77865" lon="1.3818">
        <ele>141.8</ele>
        <time>2023-08-17T13:42:40Z</time>
      </trkpt>
      <trkpt lat="48.77878" lon="1.38154">
        <ele>141.4</ele>
        <time>2023-08-17T13:42:46Z</time>
      </trkpt>
      <trkpt lat="48.77888" lon="1.38138">
        <ele>141.2</ele>
        <time>2023-08-17T13:42:50Z</time>
      </trkpt>
      <trkpt lat="48.77895" lon="1.38132">
        <ele>141.2</ele>
        <time>2023-08-17T13:42:52Z</time>
      </trkpt>
      <trkpt lat="48.77899" lon="1.3813">
        <ele>141.2</ele>
        <time>2023-08-17T13:42:53Z</time>
      </trkpt>
      <trkpt lat="48.77899" lon="1.3813">
        <ele>141.2</ele>
        <time>2023-08-17T13:42:54Z</time>
      </trkpt>
      <trkpt lat="48.77907" lon="1.38122">
        <ele>141.2</ele>
        <time>2023-08-17T13:42:55Z</time>
      </trkpt>
      <trkpt lat="48.7791" lon="1.38116">
        <ele>141.2</ele>
        <time>2023-08-17T13:42:56Z</time>
      </trkpt>
      <trkpt lat="48.77912" lon="1.38107">
        <ele>141.2</ele>
        <time>2023-08-17T13:42:58Z</time>
      </trkpt>
      <trkpt lat="48.77913" lon="1.38107">
        <ele>141.2</ele>
        <time>2023-08-17T13:42:59Z</time>
      </trkpt>
      <trkpt lat="48.77915" lon="1.38107">
        <ele>141</ele>
        <time>2023-08-17T13:43:00Z</time>
      </trkpt>
      <trkpt lat="48.77916" lon="1.38107">
        <ele>141</ele>
        <time>2023-08-17T13:43:01Z</time>
      </trkpt>
      <trkpt lat="48.77919" lon="1.38105">
        <ele>140.8</ele>
        <time>2023-08-17T13:43:02Z</time>
      </trkpt>
      <trkpt lat="48.77922" lon="1.38102">
        <ele>140.8</ele>
        <time>2023-08-17T13:43:03Z</time>
      </trkpt>
      <trkpt lat="48.77929" lon="1.38093">
        <ele>140.6</ele>
        <time>2023-08-17T13:43:05Z</time>
      </trkpt>
      <trkpt lat="48.77933" lon="1.38088">
        <ele>140.6</ele>
        <time>2023-08-17T13:43:06Z</time>
      </trkpt>
      <trkpt lat="48.77936" lon="1.38081">
        <ele>140.4</ele>
        <time>2023-08-17T13:43:07Z</time>
      </trkpt>
      <trkpt lat="48.7794" lon="1.38073">
        <ele>140.2</ele>
        <time>2023-08-17T13:43:08Z</time>
      </trkpt>
      <trkpt lat="48.77943" lon="1.38064">
        <ele>140.2</ele>
        <time>2023-08-17T13:43:09Z</time>
      </trkpt>
      <trkpt lat="48.77949" lon="1.38047">
        <ele>140</ele>
        <time>2023-08-17T13:43:11Z</time>
      </trkpt>
      <trkpt lat="48.77953" lon="1.3804">
        <ele>139.6</ele>
        <time>2023-08-17T13:43:12Z</time>
      </trkpt>
      <trkpt lat="48.77958" lon="1.38035">
        <ele>139.2</ele>
        <time>2023-08-17T13:43:13Z</time>
      </trkpt>
      <trkpt lat="48.77962" lon="1.38028">
        <ele>138.8</ele>
        <time>2023-08-17T13:43:14Z</time>
      </trkpt>
      <trkpt lat="48.77966" lon="1.3802">
        <ele>138.6</ele>
        <time>2023-08-17T13:43:15Z</time>
      </trkpt>
      <trkpt lat="48.77975" lon="1.38005">
        <ele>137.8</ele>
        <time>2023-08-17T13:43:17Z</time>
      </trkpt>
      <trkpt lat="48.7798" lon="1.37999">
        <ele>136.6</ele>
        <time>2023-08-17T13:43:18Z</time>
      </trkpt>
      <trkpt lat="48.77986" lon="1.37994">
        <ele>136</ele>
        <time>2023-08-17T13:43:19Z</time>
      </trkpt>
      <trkpt lat="48.77992" lon="1.37991">
        <ele>135.6</ele>
        <time>2023-08-17T13:43:20Z</time>
      </trkpt>
      <trkpt lat="48.78" lon="1.37987">
        <ele>135.4</ele>
        <time>2023-08-17T13:43:21Z</time>
      </trkpt>
      <trkpt lat="48.78019" lon="1.37981">
        <ele>134.8</ele>
        <time>2023-08-17T13:43:23Z</time>
      </trkpt>
      <trkpt lat="48.78029" lon="1.37978">
        <ele>134.4</ele>
        <time>2023-08-17T13:43:24Z</time>
      </trkpt>
      <trkpt lat="48.78051" lon="1.3798">
        <ele>133.2</ele>
        <time>2023-08-17T13:43:27Z</time>
      </trkpt>
      <trkpt lat="48.78056" lon="1.37981">
        <ele>132.8</ele>
        <time>2023-08-17T13:43:28Z</time>
      </trkpt>
      <trkpt lat="48.78059" lon="1.37983">
        <ele>132.4</ele>
        <time>2023-08-17T13:43:29Z</time>
      </trkpt>
      <trkpt lat="48.78061" lon="1.37984">
        <ele>132.2</ele>
        <time>2023-08-17T13:43:30Z</time>
      </trkpt>
      <trkpt lat="48.78062" lon="1.37984">
        <ele>132.2</ele>
        <time>2023-08-17T13:43:31Z</time>
      </trkpt>
      <trkpt lat="48.78065" lon="1.37986">
        <ele>132.2</ele>
        <time>2023-08-17T13:43:32Z</time>
      </trkpt>
      <trkpt lat="48.78068" lon="1.37988">
        <ele>132</ele>
        <time>2023-08-17T13:43:33Z</time>
      </trkpt>
      <trkpt lat="48.78069" lon="1.3799">
        <ele>132</ele>
        <time>2023-08-17T13:43:34Z</time>
      </trkpt>
      <trkpt lat="48.78071" lon="1.37991">
        <ele>132</ele>
        <time>2023-08-17T13:43:35Z</time>
      </trkpt>
      <trkpt lat="48.78072" lon="1.3799">
        <ele>132</ele>
        <time>2023-08-17T13:43:36Z</time>
      </trkpt>
      <trkpt lat="48.78073" lon="1.3799">
        <ele>132</ele>
        <time>2023-08-17T13:43:37Z</time>
      </trkpt>
      <trkpt lat="48.78075" lon="1.3799">
        <ele>132</ele>
        <time>2023-08-17T13:43:38Z</time>
      </trkpt>
      <trkpt lat="48.78076" lon="1.3799">
        <ele>132.2</ele>
        <time>2023-08-17T13:43:39Z</time>
      </trkpt>
      <trkpt lat="48.78077" lon="1.3799">
        <ele>132.6</ele>
        <time>2023-08-17T13:43:40Z</time>
      </trkpt>
      <trkpt lat="48.78079" lon="1.37991">
        <ele>133</ele>
        <time>2023-08-17T13:43:41Z</time>
      </trkpt>
      <trkpt lat="48.78082" lon="1.37993">
        <ele>133.4</ele>
        <time>2023-08-17T13:43:43Z</time>
      </trkpt>
      <trkpt lat="48.78084" lon="1.37994">
        <ele>133.6</ele>
        <time>2023-08-17T13:43:44Z</time>
      </trkpt>
      <trkpt lat="48.78086" lon="1.37995">
        <ele>133.8</ele>
        <time>2023-08-17T13:43:45Z</time>
      </trkpt>
      <trkpt lat="48.78087" lon="1.37996">
        <ele>133.8</ele>
        <time>2023-08-17T13:43:46Z</time>
      </trkpt>
      <trkpt lat="48.7809" lon="1.37997">
        <ele>134.4</ele>
        <time>2023-08-17T13:43:48Z</time>
      </trkpt>
      <trkpt lat="48.78091" lon="1.37998">
        <ele>134.6</ele>
        <time>2023-08-17T13:43:49Z</time>
      </trkpt>
      <trkpt lat="48.78092" lon="1.37998">
        <ele>134.8</ele>
        <time>2023-08-17T13:43:50Z</time>
      </trkpt>
      <trkpt lat="48.78094" lon="1.37998">
        <ele>135</ele>
        <time>2023-08-17T13:43:51Z</time>
      </trkpt>
      <trkpt lat="48.78095" lon="1.37999">
        <ele>135.2</ele>
        <time>2023-08-17T13:43:52Z</time>
      </trkpt>
      <trkpt lat="48.78097" lon="1.38">
        <ele>135.2</ele>
        <time>2023-08-17T13:43:53Z</time>
      </trkpt>
      <trkpt lat="48.78099" lon="1.38">
        <ele>135.4</ele>
        <time>2023-08-17T13:43:54Z</time>
      </trkpt>
      <trkpt lat="48.78101" lon="1.38">
        <ele>135.6</ele>
        <time>2023-08-17T13:43:55Z</time>
      </trkpt>
      <trkpt lat="48.78102" lon="1.38">
        <ele>135.8</ele>
        <time>2023-08-17T13:43:56Z</time>
      </trkpt>
      <trkpt lat="48.78102" lon="1.38">
        <ele>136</ele>
        <time>2023-08-17T13:43:57Z</time>
      </trkpt>
      <trkpt lat="48.78104" lon="1.38">
        <ele>136</ele>
        <time>2023-08-17T13:43:58Z</time>
      </trkpt>
      <trkpt lat="48.78108" lon="1.38002">
        <ele>136.2</ele>
        <time>2023-08-17T13:44:00Z</time>
      </trkpt>
      <trkpt lat="48.7811" lon="1.38003">
        <ele>136.4</ele>
        <time>2023-08-17T13:44:01Z</time>
      </trkpt>
      <trkpt lat="48.78112" lon="1.38004">
        <ele>136.4</ele>
        <time>2023-08-17T13:44:02Z</time>
      </trkpt>
      <trkpt lat="48.78114" lon="1.38004">
        <ele>136.6</ele>
        <time>2023-08-17T13:44:03Z</time>
      </trkpt>
      <trkpt lat="48.78116" lon="1.38005">
        <ele>136.8</ele>
        <time>2023-08-17T13:44:04Z</time>
      </trkpt>
      <trkpt lat="48.78119" lon="1.38006">
        <ele>137</ele>
        <time>2023-08-17T13:44:05Z</time>
      </trkpt>
      <trkpt lat="48.78121" lon="1.38007">
        <ele>137.2</ele>
        <time>2023-08-17T13:44:06Z</time>
      </trkpt>
      <trkpt lat="48.78122" lon="1.38007">
        <ele>137.2</ele>
        <time>2023-08-17T13:44:07Z</time>
      </trkpt>
      <trkpt lat="48.78124" lon="1.38008">
        <ele>137.4</ele>
        <time>2023-08-17T13:44:08Z</time>
      </trkpt>
      <trkpt lat="48.78125" lon="1.38008">
        <ele>137.6</ele>
        <time>2023-08-17T13:44:09Z</time>
      </trkpt>
      <trkpt lat="48.78127" lon="1.38008">
        <ele>137.8</ele>
        <time>2023-08-17T13:44:10Z</time>
      </trkpt>
      <trkpt lat="48.78129" lon="1.38009">
        <ele>138</ele>
        <time>2023-08-17T13:44:11Z</time>
      </trkpt>
      <trkpt lat="48.78131" lon="1.3801">
        <ele>138</ele>
        <time>2023-08-17T13:44:12Z</time>
      </trkpt>
      <trkpt lat="48.78132" lon="1.38012">
        <ele>138.2</ele>
        <time>2023-08-17T13:44:13Z</time>
      </trkpt>
      <trkpt lat="48.78134" lon="1.38013">
        <ele>138.2</ele>
        <time>2023-08-17T13:44:14Z</time>
      </trkpt>
      <trkpt lat="48.78137" lon="1.38014">
        <ele>138.4</ele>
        <time>2023-08-17T13:44:15Z</time>
      </trkpt>
      <trkpt lat="48.78137" lon="1.38016">
        <ele>138.4</ele>
        <time>2023-08-17T13:44:16Z</time>
      </trkpt>
      <trkpt lat="48.78138" lon="1.38017">
        <ele>138.6</ele>
        <time>2023-08-17T13:44:17Z</time>
      </trkpt>
      <trkpt lat="48.7814" lon="1.38019">
        <ele>138.8</ele>
        <time>2023-08-17T13:44:18Z</time>
      </trkpt>
      <trkpt lat="48.78142" lon="1.38022">
        <ele>138.8</ele>
        <time>2023-08-17T13:44:19Z</time>
      </trkpt>
      <trkpt lat="48.78144" lon="1.38024">
        <ele>138.8</ele>
        <time>2023-08-17T13:44:20Z</time>
      </trkpt>
      <trkpt lat="48.78147" lon="1.38025">
        <ele>139.2</ele>
        <time>2023-08-17T13:44:21Z</time>
      </trkpt>
      <trkpt lat="48.7815" lon="1.38024">
        <ele>139.4</ele>
        <time>2023-08-17T13:44:22Z</time>
      </trkpt>
      <trkpt lat="48.78152" lon="1.38024">
        <ele>139.6</ele>
        <time>2023-08-17T13:44:23Z</time>
      </trkpt>
      <trkpt lat="48.78154" lon="1.38025">
        <ele>139.8</ele>
        <time>2023-08-17T13:44:24Z</time>
      </trkpt>
      <trkpt lat="48.78155" lon="1.38025">
        <ele>139.8</ele>
        <time>2023-08-17T13:44:25Z</time>
      </trkpt>
      <trkpt lat="48.78158" lon="1.38025">
        <ele>140</ele>
        <time>2023-08-17T13:44:26Z</time>
      </trkpt>
      <trkpt lat="48.78161" lon="1.38026">
        <ele>140.2</ele>
        <time>2023-08-17T13:44:27Z</time>
      </trkpt>
      <trkpt lat="48.78163" lon="1.38027">
        <ele>140.2</ele>
        <time>2023-08-17T13:44:28Z</time>
      </trkpt>
      <trkpt lat="48.78165" lon="1.38028">
        <ele>140.4</ele>
        <time>2023-08-17T13:44:29Z</time>
      </trkpt>
      <trkpt lat="48.78168" lon="1.38028">
        <ele>140.4</ele>
        <time>2023-08-17T13:44:30Z</time>
      </trkpt>
      <trkpt lat="48.7817" lon="1.38028">
        <ele>140.4</ele>
        <time>2023-08-17T13:44:31Z</time>
      </trkpt>
      <trkpt lat="48.78171" lon="1.3803">
        <ele>140.6</ele>
        <time>2023-08-17T13:44:32Z</time>
      </trkpt>
      <trkpt lat="48.78172" lon="1.38032">
        <ele>140.6</ele>
        <time>2023-08-17T13:44:33Z</time>
      </trkpt>
      <trkpt lat="48.78173" lon="1.38033">
        <ele>141</ele>
        <time>2023-08-17T13:44:34Z</time>
      </trkpt>
      <trkpt lat="48.78175" lon="1.38033">
        <ele>141</ele>
        <time>2023-08-17T13:44:35Z</time>
      </trkpt>
      <trkpt lat="48.78177" lon="1.38033">
        <ele>141.2</ele>
        <time>2023-08-17T13:44:36Z</time>
      </trkpt>
      <trkpt lat="48.7818" lon="1.38035">
        <ele>141.4</ele>
        <time>2023-08-17T13:44:37Z</time>
      </trkpt>
      <trkpt lat="48.78182" lon="1.38035">
        <ele>141.6</ele>
        <time>2023-08-17T13:44:38Z</time>
      </trkpt>
      <trkpt lat="48.78182" lon="1.38037">
        <ele>141.6</ele>
        <time>2023-08-17T13:44:39Z</time>
      </trkpt>
      <trkpt lat="48.78184" lon="1.38037">
        <ele>141.8</ele>
        <time>2023-08-17T13:44:40Z</time>
      </trkpt>
      <trkpt lat="48.78185" lon="1.38037">
        <ele>142</ele>
        <time>2023-08-17T13:44:41Z</time>
      </trkpt>
      <trkpt lat="48.78188" lon="1.38036">
        <ele>142</ele>
        <time>2023-08-17T13:44:42Z</time>
      </trkpt>
      <trkpt lat="48.78189" lon="1.38036">
        <ele>142.2</ele>
        <time>2023-08-17T13:44:43Z</time>
      </trkpt>
      <trkpt lat="48.7819" lon="1.38035">
        <ele>142.2</ele>
        <time>2023-08-17T13:44:44Z</time>
      </trkpt>
      <trkpt lat="48.78192" lon="1.38034">
        <ele>142.4</ele>
        <time>2023-08-17T13:44:45Z</time>
      </trkpt>
      <trkpt lat="48.78193" lon="1.38035">
        <ele>142.6</ele>
        <time>2023-08-17T13:44:46Z</time>
      </trkpt>
      <trkpt lat="48.78194" lon="1.38035">
        <ele>142.6</ele>
        <time>2023-08-17T13:44:47Z</time>
      </trkpt>
      <trkpt lat="48.78195" lon="1.38036">
        <ele>142.8</ele>
        <time>2023-08-17T13:44:48Z</time>
      </trkpt>
      <trkpt lat="48.78196" lon="1.38037">
        <ele>142.8</ele>
        <time>2023-08-17T13:44:49Z</time>
      </trkpt>
      <trkpt lat="48.78198" lon="1.38038">
        <ele>142.8</ele>
        <time>2023-08-17T13:44:50Z</time>
      </trkpt>
      <trkpt lat="48.782" lon="1.38038">
        <ele>143</ele>
        <time>2023-08-17T13:44:51Z</time>
      </trkpt>
      <trkpt lat="48.78201" lon="1.38038">
        <ele>143</ele>
        <time>2023-08-17T13:44:52Z</time>
      </trkpt>
      <trkpt lat="48.78203" lon="1.38037">
        <ele>143</ele>
        <time>2023-08-17T13:44:53Z</time>
      </trkpt>
      <trkpt lat="48.78205" lon="1.38038">
        <ele>143.2</ele>
        <time>2023-08-17T13:44:54Z</time>
      </trkpt>
      <trkpt lat="48.78207" lon="1.38038">
        <ele>143.2</ele>
        <time>2023-08-17T13:44:55Z</time>
      </trkpt>
      <trkpt lat="48.78209" lon="1.38038">
        <ele>143.2</ele>
        <time>2023-08-17T13:44:56Z</time>
      </trkpt>
      <trkpt lat="48.78211" lon="1.38037">
        <ele>143.2</ele>
        <time>2023-08-17T13:44:57Z</time>
      </trkpt>
      <trkpt lat="48.78213" lon="1.38037">
        <ele>143.2</ele>
        <time>2023-08-17T13:44:58Z</time>
      </trkpt>
      <trkpt lat="48.78215" lon="1.38036">
        <ele>143.4</ele>
        <time>2023-08-17T13:44:59Z</time>
      </trkpt>
      <trkpt lat="48.78217" lon="1.38036">
        <ele>143.4</ele>
        <time>2023-08-17T13:45:00Z</time>
      </trkpt>
      <trkpt lat="48.78219" lon="1.38036">
        <ele>143.6</ele>
        <time>2023-08-17T13:45:01Z</time>
      </trkpt>
      <trkpt lat="48.78222" lon="1.38035">
        <ele>143.6</ele>
        <time>2023-08-17T13:45:02Z</time>
      </trkpt>
      <trkpt lat="48.78232" lon="1.38032">
        <ele>144</ele>
        <time>2023-08-17T13:45:06Z</time>
      </trkpt>
      <trkpt lat="48.78235" lon="1.38032">
        <ele>144</ele>
        <time>2023-08-17T13:45:07Z</time>
      </trkpt>
      <trkpt lat="48.7824" lon="1.38032">
        <ele>144</ele>
        <time>2023-08-17T13:45:10Z</time>
      </trkpt>
      <trkpt lat="48.78242" lon="1.38032">
        <ele>144</ele>
        <time>2023-08-17T13:45:11Z</time>
      </trkpt>
      <trkpt lat="48.78248" lon="1.38029">
        <ele>144</ele>
        <time>2023-08-17T13:45:13Z</time>
      </trkpt>
      <trkpt lat="48.78252" lon="1.38027">
        <ele>144</ele>
        <time>2023-08-17T13:45:14Z</time>
      </trkpt>
      <trkpt lat="48.78256" lon="1.38026">
        <ele>144</ele>
        <time>2023-08-17T13:45:15Z</time>
      </trkpt>
      <trkpt lat="48.78278" lon="1.38024">
        <ele>144</ele>
        <time>2023-08-17T13:45:19Z</time>
      </trkpt>
      <trkpt lat="48.78286" lon="1.38024">
        <ele>144</ele>
        <time>2023-08-17T13:45:20Z</time>
      </trkpt>
      <trkpt lat="48.78302" lon="1.38023">
        <ele>143.6</ele>
        <time>2023-08-17T13:45:22Z</time>
      </trkpt>
      <trkpt lat="48.78309" lon="1.38022">
        <ele>143.6</ele>
        <time>2023-08-17T13:45:23Z</time>
      </trkpt>
      <trkpt lat="48.78321" lon="1.38022">
        <ele>143.2</ele>
        <time>2023-08-17T13:45:25Z</time>
      </trkpt>
      <trkpt lat="48.78326" lon="1.38021">
        <ele>143</ele>
        <time>2023-08-17T13:45:26Z</time>
      </trkpt>
      <trkpt lat="48.78329" lon="1.38022">
        <ele>142.8</ele>
        <time>2023-08-17T13:45:27Z</time>
      </trkpt>
      <trkpt lat="48.78332" lon="1.38022">
        <ele>142.2</ele>
        <time>2023-08-17T13:45:28Z</time>
      </trkpt>
      <trkpt lat="48.78334" lon="1.38023">
        <ele>141.8</ele>
        <time>2023-08-17T13:45:29Z</time>
      </trkpt>
      <trkpt lat="48.78337" lon="1.38024">
        <ele>141.6</ele>
        <time>2023-08-17T13:45:30Z</time>
      </trkpt>
      <trkpt lat="48.78341" lon="1.38023">
        <ele>141.6</ele>
        <time>2023-08-17T13:45:31Z</time>
      </trkpt>
      <trkpt lat="48.78344" lon="1.38022">
        <ele>141.4</ele>
        <time>2023-08-17T13:45:32Z</time>
      </trkpt>
      <trkpt lat="48.78347" lon="1.3802">
        <ele>141.4</ele>
        <time>2023-08-17T13:45:33Z</time>
      </trkpt>
      <trkpt lat="48.7835" lon="1.3802">
        <ele>141.4</ele>
        <time>2023-08-17T13:45:34Z</time>
      </trkpt>
      <trkpt lat="48.78353" lon="1.3802">
        <ele>141.4</ele>
        <time>2023-08-17T13:45:35Z</time>
      </trkpt>
      <trkpt lat="48.78356" lon="1.38021">
        <ele>141.4</ele>
        <time>2023-08-17T13:45:36Z</time>
      </trkpt>
      <trkpt lat="48.7836" lon="1.38021">
        <ele>141.4</ele>
        <time>2023-08-17T13:45:37Z</time>
      </trkpt>
      <trkpt lat="48.78362" lon="1.3802">
        <ele>141.4</ele>
        <time>2023-08-17T13:45:38Z</time>
      </trkpt>
      <trkpt lat="48.78366" lon="1.38019">
        <ele>141.4</ele>
        <time>2023-08-17T13:45:39Z</time>
      </trkpt>
      <trkpt lat="48.78376" lon="1.3802">
        <ele>141.4</ele>
        <time>2023-08-17T13:45:42Z</time>
      </trkpt>
      <trkpt lat="48.78381" lon="1.3802">
        <ele>141.6</ele>
        <time>2023-08-17T13:45:43Z</time>
      </trkpt>
      <trkpt lat="48.78397" lon="1.38019">
        <ele>141.8</ele>
        <time>2023-08-17T13:45:48Z</time>
      </trkpt>
      <trkpt lat="48.78412" lon="1.38017">
        <ele>141.8</ele>
        <time>2023-08-17T13:45:50Z</time>
      </trkpt>
      <trkpt lat="48.78425" lon="1.38019">
        <ele>141.8</ele>
        <time>2023-08-17T13:45:52Z</time>
      </trkpt>
      <trkpt lat="48.78437" lon="1.38021">
        <ele>141.8</ele>
        <time>2023-08-17T13:45:54Z</time>
      </trkpt>
      <trkpt lat="48.78447" lon="1.38017">
        <ele>141.2</ele>
        <time>2023-08-17T13:45:56Z</time>
      </trkpt>
      <trkpt lat="48.78451" lon="1.38015">
        <ele>141</ele>
        <time>2023-08-17T13:45:57Z</time>
      </trkpt>
      <trkpt lat="48.78454" lon="1.38014">
        <ele>141</ele>
        <time>2023-08-17T13:45:58Z</time>
      </trkpt>
      <trkpt lat="48.78457" lon="1.38014">
        <ele>141</ele>
        <time>2023-08-17T13:45:59Z</time>
      </trkpt>
      <trkpt lat="48.7846" lon="1.38014">
        <ele>141</ele>
        <time>2023-08-17T13:46:00Z</time>
      </trkpt>
      <trkpt lat="48.78462" lon="1.38013">
        <ele>140.8</ele>
        <time>2023-08-17T13:46:01Z</time>
      </trkpt>
      <trkpt lat="48.78464" lon="1.38015">
        <ele>140.8</ele>
        <time>2023-08-17T13:46:02Z</time>
      </trkpt>
      <trkpt lat="48.78466" lon="1.38016">
        <ele>140.8</ele>
        <time>2023-08-17T13:46:03Z</time>
      </trkpt>
      <trkpt lat="48.7847" lon="1.38016">
        <ele>140.8</ele>
        <time>2023-08-17T13:46:04Z</time>
      </trkpt>
      <trkpt lat="48.7847" lon="1.38016">
        <ele>140.8</ele>
        <time>2023-08-17T13:46:05Z</time>
      </trkpt>
      <trkpt lat="48.78472" lon="1.38016">
        <ele>140.8</ele>
        <time>2023-08-17T13:46:06Z</time>
      </trkpt>
      <trkpt lat="48.78476" lon="1.38017">
        <ele>141.2</ele>
        <time>2023-08-17T13:46:08Z</time>
      </trkpt>
      <trkpt lat="48.78479" lon="1.38019">
        <ele>141.6</ele>
        <time>2023-08-17T13:46:10Z</time>
      </trkpt>
      <trkpt lat="48.78481" lon="1.3802">
        <ele>142</ele>
        <time>2023-08-17T13:46:11Z</time>
      </trkpt>
      <trkpt lat="48.78482" lon="1.38021">
        <ele>142.2</ele>
        <time>2023-08-17T13:46:12Z</time>
      </trkpt>
      <trkpt lat="48.78484" lon="1.38021">
        <ele>142.6</ele>
        <time>2023-08-17T13:46:13Z</time>
      </trkpt>
      <trkpt lat="48.78486" lon="1.3802">
        <ele>142.8</ele>
        <time>2023-08-17T13:46:14Z</time>
      </trkpt>
      <trkpt lat="48.78489" lon="1.3802">
        <ele>143</ele>
        <time>2023-08-17T13:46:15Z</time>
      </trkpt>
      <trkpt lat="48.78491" lon="1.38019">
        <ele>143.2</ele>
        <time>2023-08-17T13:46:16Z</time>
      </trkpt>
      <trkpt lat="48.78501" lon="1.38018">
        <ele>144.2</ele>
        <time>2023-08-17T13:46:22Z</time>
      </trkpt>
      <trkpt lat="48.78503" lon="1.38018">
        <ele>144.2</ele>
        <time>2023-08-17T13:46:23Z</time>
      </trkpt>
      <trkpt lat="48.78504" lon="1.38019">
        <ele>144.4</ele>
        <time>2023-08-17T13:46:24Z</time>
      </trkpt>
      <trkpt lat="48.78505" lon="1.38019">
        <ele>144.4</ele>
        <time>2023-08-17T13:46:25Z</time>
      </trkpt>
      <trkpt lat="48.78507" lon="1.38019">
        <ele>144.6</ele>
        <time>2023-08-17T13:46:26Z</time>
      </trkpt>
      <trkpt lat="48.78509" lon="1.38019">
        <ele>144.8</ele>
        <time>2023-08-17T13:46:27Z</time>
      </trkpt>
      <trkpt lat="48.7851" lon="1.38019">
        <ele>144.8</ele>
        <time>2023-08-17T13:46:28Z</time>
      </trkpt>
      <trkpt lat="48.78512" lon="1.38018">
        <ele>145</ele>
        <time>2023-08-17T13:46:29Z</time>
      </trkpt>
      <trkpt lat="48.78514" lon="1.38017">
        <ele>145</ele>
        <time>2023-08-17T13:46:30Z</time>
      </trkpt>
      <trkpt lat="48.78516" lon="1.38017">
        <ele>145</ele>
        <time>2023-08-17T13:46:31Z</time>
      </trkpt>
      <trkpt lat="48.78518" lon="1.38017">
        <ele>145.4</ele>
        <time>2023-08-17T13:46:32Z</time>
      </trkpt>
      <trkpt lat="48.78519" lon="1.38017">
        <ele>145.4</ele>
        <time>2023-08-17T13:46:33Z</time>
      </trkpt>
      <trkpt lat="48.78521" lon="1.38016">
        <ele>145.4</ele>
        <time>2023-08-17T13:46:34Z</time>
      </trkpt>
      <trkpt lat="48.78523" lon="1.38016">
        <ele>145.4</ele>
        <time>2023-08-17T13:46:35Z</time>
      </trkpt>
      <trkpt lat="48.78525" lon="1.38016">
        <ele>145.4</ele>
        <time>2023-08-17T13:46:36Z</time>
      </trkpt>
      <trkpt lat="48.78527" lon="1.38015">
        <ele>145.4</ele>
        <time>2023-08-17T13:46:37Z</time>
      </trkpt>
      <trkpt lat="48.7853" lon="1.38014">
        <ele>145.4</ele>
        <time>2023-08-17T13:46:38Z</time>
      </trkpt>
      <trkpt lat="48.78533" lon="1.38012">
        <ele>145.4</ele>
        <time>2023-08-17T13:46:39Z</time>
      </trkpt>
      <trkpt lat="48.78536" lon="1.38011">
        <ele>145.4</ele>
        <time>2023-08-17T13:46:40Z</time>
      </trkpt>
      <trkpt lat="48.78539" lon="1.3801">
        <ele>145.4</ele>
        <time>2023-08-17T13:46:41Z</time>
      </trkpt>
      <trkpt lat="48.78543" lon="1.38009">
        <ele>145.4</ele>
        <time>2023-08-17T13:46:43Z</time>
      </trkpt>
      <trkpt lat="48.78546" lon="1.38007">
        <ele>145.4</ele>
        <time>2023-08-17T13:46:44Z</time>
      </trkpt>
      <trkpt lat="48.78549" lon="1.38008">
        <ele>145.4</ele>
        <time>2023-08-17T13:46:46Z</time>
      </trkpt>
      <trkpt lat="48.7855" lon="1.38008">
        <ele>145.4</ele>
        <time>2023-08-17T13:46:47Z</time>
      </trkpt>
      <trkpt lat="48.78552" lon="1.38007">
        <ele>145.4</ele>
        <time>2023-08-17T13:46:48Z</time>
      </trkpt>
      <trkpt lat="48.78554" lon="1.38006">
        <ele>145.4</ele>
        <time>2023-08-17T13:46:49Z</time>
      </trkpt>
      <trkpt lat="48.78559" lon="1.38003">
        <ele>145.4</ele>
        <time>2023-08-17T13:46:50Z</time>
      </trkpt>
      <trkpt lat="48.7857" lon="1.37999">
        <ele>145.4</ele>
        <time>2023-08-17T13:46:52Z</time>
      </trkpt>
      <trkpt lat="48.78586" lon="1.37997">
        <ele>145.2</ele>
        <time>2023-08-17T13:46:56Z</time>
      </trkpt>
      <trkpt lat="48.78591" lon="1.37997">
        <ele>145.2</ele>
        <time>2023-08-17T13:46:57Z</time>
      </trkpt>
      <trkpt lat="48.78595" lon="1.37997">
        <ele>145</ele>
        <time>2023-08-17T13:46:58Z</time>
      </trkpt>
      <trkpt lat="48.78599" lon="1.37996">
        <ele>145</ele>
        <time>2023-08-17T13:46:59Z</time>
      </trkpt>
      <trkpt lat="48.78609" lon="1.37998">
        <ele>145</ele>
        <time>2023-08-17T13:47:02Z</time>
      </trkpt>
      <trkpt lat="48.78614" lon="1.37998">
        <ele>144.8</ele>
        <time>2023-08-17T13:47:03Z</time>
      </trkpt>
      <trkpt lat="48.78619" lon="1.37998">
        <ele>144.8</ele>
        <time>2023-08-17T13:47:04Z</time>
      </trkpt>
      <trkpt lat="48.78623" lon="1.38">
        <ele>144.8</ele>
        <time>2023-08-17T13:47:05Z</time>
      </trkpt>
      <trkpt lat="48.78627" lon="1.38002">
        <ele>144.8</ele>
        <time>2023-08-17T13:47:06Z</time>
      </trkpt>
      <trkpt lat="48.78631" lon="1.38004">
        <ele>144.8</ele>
        <time>2023-08-17T13:47:07Z</time>
      </trkpt>
      <trkpt lat="48.78648" lon="1.38005">
        <ele>144.4</ele>
        <time>2023-08-17T13:47:11Z</time>
      </trkpt>
      <trkpt lat="48.78652" lon="1.38007">
        <ele>144.4</ele>
        <time>2023-08-17T13:47:12Z</time>
      </trkpt>
      <trkpt lat="48.78656" lon="1.38008">
        <ele>144.4</ele>
        <time>2023-08-17T13:47:13Z</time>
      </trkpt>
      <trkpt lat="48.78668" lon="1.38009">
        <ele>144.4</ele>
        <time>2023-08-17T13:47:15Z</time>
      </trkpt>
      <trkpt lat="48.7868" lon="1.3801">
        <ele>144.2</ele>
        <time>2023-08-17T13:47:17Z</time>
      </trkpt>
      <trkpt lat="48.78688" lon="1.38012">
        <ele>144.2</ele>
        <time>2023-08-17T13:47:18Z</time>
      </trkpt>
      <trkpt lat="48.78709" lon="1.38018">
        <ele>143.8</ele>
        <time>2023-08-17T13:47:21Z</time>
      </trkpt>
      <trkpt lat="48.7875" lon="1.38026">
        <ele>143</ele>
        <time>2023-08-17T13:47:26Z</time>
      </trkpt>
      <trkpt lat="48.78755" lon="1.38027">
        <ele>142.8</ele>
        <time>2023-08-17T13:47:27Z</time>
      </trkpt>
      <trkpt lat="48.78759" lon="1.38028">
        <ele>142.6</ele>
        <time>2023-08-17T13:47:28Z</time>
      </trkpt>
      <trkpt lat="48.78763" lon="1.38028">
        <ele>142.4</ele>
        <time>2023-08-17T13:47:29Z</time>
      </trkpt>
      <trkpt lat="48.78767" lon="1.38029">
        <ele>142.4</ele>
        <time>2023-08-17T13:47:30Z</time>
      </trkpt>
      <trkpt lat="48.78772" lon="1.3803">
        <ele>142.4</ele>
        <time>2023-08-17T13:47:31Z</time>
      </trkpt>
      <trkpt lat="48.78775" lon="1.38031">
        <ele>142.4</ele>
        <time>2023-08-17T13:47:32Z</time>
      </trkpt>
      <trkpt lat="48.7878" lon="1.3803">
        <ele>142.4</ele>
        <time>2023-08-17T13:47:33Z</time>
      </trkpt>
      <trkpt lat="48.78785" lon="1.38032">
        <ele>142.4</ele>
        <time>2023-08-17T13:47:34Z</time>
      </trkpt>
      <trkpt lat="48.78796" lon="1.38033">
        <ele>142.4</ele>
        <time>2023-08-17T13:47:36Z</time>
      </trkpt>
      <trkpt lat="48.78808" lon="1.38034">
        <ele>142.4</ele>
        <time>2023-08-17T13:47:38Z</time>
      </trkpt>
      <trkpt lat="48.78821" lon="1.38036">
        <ele>142.6</ele>
        <time>2023-08-17T13:47:41Z</time>
      </trkpt>
      <trkpt lat="48.78824" lon="1.38036">
        <ele>142.6</ele>
        <time>2023-08-17T13:47:42Z</time>
      </trkpt>
      <trkpt lat="48.7883" lon="1.38038">
        <ele>142.6</ele>
        <time>2023-08-17T13:47:43Z</time>
      </trkpt>
      <trkpt lat="48.78834" lon="1.38038">
        <ele>142.6</ele>
        <time>2023-08-17T13:47:44Z</time>
      </trkpt>
      <trkpt lat="48.78842" lon="1.38038">
        <ele>142.8</ele>
        <time>2023-08-17T13:47:46Z</time>
      </trkpt>
      <trkpt lat="48.78853" lon="1.38041">
        <ele>142.8</ele>
        <time>2023-08-17T13:47:49Z</time>
      </trkpt>
      <trkpt lat="48.78856" lon="1.38041">
        <ele>143</ele>
        <time>2023-08-17T13:47:50Z</time>
      </trkpt>
      <trkpt lat="48.7886" lon="1.38041">
        <ele>143</ele>
        <time>2023-08-17T13:47:51Z</time>
      </trkpt>
      <trkpt lat="48.78869" lon="1.38043">
        <ele>143.2</ele>
        <time>2023-08-17T13:47:54Z</time>
      </trkpt>
      <trkpt lat="48.78872" lon="1.38043">
        <ele>143.2</ele>
        <time>2023-08-17T13:47:55Z</time>
      </trkpt>
      <trkpt lat="48.78878" lon="1.38043">
        <ele>143.6</ele>
        <time>2023-08-17T13:47:57Z</time>
      </trkpt>
      <trkpt lat="48.78881" lon="1.38042">
        <ele>143.6</ele>
        <time>2023-08-17T13:47:58Z</time>
      </trkpt>
      <trkpt lat="48.78885" lon="1.38042">
        <ele>143.6</ele>
        <time>2023-08-17T13:47:59Z</time>
      </trkpt>
      <trkpt lat="48.78898" lon="1.38037">
        <ele>143.8</ele>
        <time>2023-08-17T13:48:02Z</time>
      </trkpt>
      <trkpt lat="48.78903" lon="1.38035">
        <ele>143.8</ele>
        <time>2023-08-17T13:48:03Z</time>
      </trkpt>
      <trkpt lat="48.78916" lon="1.3803">
        <ele>143.8</ele>
        <time>2023-08-17T13:48:06Z</time>
      </trkpt>
      <trkpt lat="48.78922" lon="1.38029">
        <ele>143.8</ele>
        <time>2023-08-17T13:48:07Z</time>
      </trkpt>
      <trkpt lat="48.78934" lon="1.38027">
        <ele>143.8</ele>
        <time>2023-08-17T13:48:09Z</time>
      </trkpt>
      <trkpt lat="48.7894" lon="1.38025">
        <ele>143.6</ele>
        <time>2023-08-17T13:48:10Z</time>
      </trkpt>
      <trkpt lat="48.78958" lon="1.38021">
        <ele>143</ele>
        <time>2023-08-17T13:48:13Z</time>
      </trkpt>
      <trkpt lat="48.78968" lon="1.38018">
        <ele>142.8</ele>
        <time>2023-08-17T13:48:15Z</time>
      </trkpt>
      <trkpt lat="48.78973" lon="1.38017">
        <ele>142.6</ele>
        <time>2023-08-17T13:48:16Z</time>
      </trkpt>
      <trkpt lat="48.78981" lon="1.38015">
        <ele>142.6</ele>
        <time>2023-08-17T13:48:17Z</time>
      </trkpt>
      <trkpt lat="48.78986" lon="1.38014">
        <ele>142.2</ele>
        <time>2023-08-17T13:48:18Z</time>
      </trkpt>
      <trkpt lat="48.78991" lon="1.38014">
        <ele>142</ele>
        <time>2023-08-17T13:48:19Z</time>
      </trkpt>
      <trkpt lat="48.78996" lon="1.38014">
        <ele>141.8</ele>
        <time>2023-08-17T13:48:20Z</time>
      </trkpt>
      <trkpt lat="48.79" lon="1.38015">
        <ele>141.6</ele>
        <time>2023-08-17T13:48:21Z</time>
      </trkpt>
      <trkpt lat="48.79007" lon="1.38015">
        <ele>141.6</ele>
        <time>2023-08-17T13:48:22Z</time>
      </trkpt>
      <trkpt lat="48.79021" lon="1.3802">
        <ele>141.4</ele>
        <time>2023-08-17T13:48:25Z</time>
      </trkpt>
      <trkpt lat="48.79025" lon="1.38021">
        <ele>141.4</ele>
        <time>2023-08-17T13:48:26Z</time>
      </trkpt>
      <trkpt lat="48.79029" lon="1.38023">
        <ele>141.4</ele>
        <time>2023-08-17T13:48:27Z</time>
      </trkpt>
      <trkpt lat="48.79035" lon="1.38028">
        <ele>141.4</ele>
        <time>2023-08-17T13:48:28Z</time>
      </trkpt>
      <trkpt lat="48.79037" lon="1.38033">
        <ele>141.4</ele>
        <time>2023-08-17T13:48:29Z</time>
      </trkpt>
      <trkpt lat="48.79039" lon="1.38038">
        <ele>141.2</ele>
        <time>2023-08-17T13:48:30Z</time>
      </trkpt>
      <trkpt lat="48.79039" lon="1.38043">
        <ele>141.2</ele>
        <time>2023-08-17T13:48:31Z</time>
      </trkpt>
      <trkpt lat="48.79039" lon="1.38048">
        <ele>141.2</ele>
        <time>2023-08-17T13:48:32Z</time>
      </trkpt>
      <trkpt lat="48.79038" lon="1.38051">
        <ele>141.2</ele>
        <time>2023-08-17T13:48:33Z</time>
      </trkpt>
      <trkpt lat="48.79038" lon="1.38055">
        <ele>141.4</ele>
        <time>2023-08-17T13:48:34Z</time>
      </trkpt>
      <trkpt lat="48.79037" lon="1.38057">
        <ele>141.4</ele>
        <time>2023-08-17T13:48:35Z</time>
      </trkpt>
      <trkpt lat="48.79037" lon="1.3806">
        <ele>141.4</ele>
        <time>2023-08-17T13:48:36Z</time>
      </trkpt>
      <trkpt lat="48.79037" lon="1.38064">
        <ele>141.4</ele>
        <time>2023-08-17T13:48:37Z</time>
      </trkpt>
      <trkpt lat="48.79037" lon="1.38066">
        <ele>141.4</ele>
        <time>2023-08-17T13:48:38Z</time>
      </trkpt>
      <trkpt lat="48.79037" lon="1.38068">
        <ele>141.4</ele>
        <time>2023-08-17T13:48:39Z</time>
      </trkpt>
      <trkpt lat="48.79037" lon="1.3807">
        <ele>141.4</ele>
        <time>2023-08-17T13:48:40Z</time>
      </trkpt>
      <trkpt lat="48.79037" lon="1.38073">
        <ele>141.6</ele>
        <time>2023-08-17T13:48:41Z</time>
      </trkpt>
      <trkpt lat="48.79036" lon="1.38076">
        <ele>141.6</ele>
        <time>2023-08-17T13:48:42Z</time>
      </trkpt>
      <trkpt lat="48.79036" lon="1.3808">
        <ele>141.8</ele>
        <time>2023-08-17T13:48:43Z</time>
      </trkpt>
      <trkpt lat="48.79036" lon="1.38083">
        <ele>142</ele>
        <time>2023-08-17T13:48:44Z</time>
      </trkpt>
      <trkpt lat="48.79036" lon="1.38086">
        <ele>142.2</ele>
        <time>2023-08-17T13:48:45Z</time>
      </trkpt>
      <trkpt lat="48.79036" lon="1.3809">
        <ele>142.2</ele>
        <time>2023-08-17T13:48:46Z</time>
      </trkpt>
      <trkpt lat="48.79036" lon="1.38093">
        <ele>142.2</ele>
        <time>2023-08-17T13:48:47Z</time>
      </trkpt>
      <trkpt lat="48.79036" lon="1.38096">
        <ele>142.2</ele>
        <time>2023-08-17T13:48:48Z</time>
      </trkpt>
      <trkpt lat="48.79036" lon="1.38098">
        <ele>142.4</ele>
        <time>2023-08-17T13:48:49Z</time>
      </trkpt>
      <trkpt lat="48.79036" lon="1.38101">
        <ele>142.4</ele>
        <time>2023-08-17T13:48:50Z</time>
      </trkpt>
      <trkpt lat="48.79036" lon="1.38106">
        <ele>142.4</ele>
        <time>2023-08-17T13:48:51Z</time>
      </trkpt>
      <trkpt lat="48.79033" lon="1.38117">
        <ele>142.4</ele>
        <time>2023-08-17T13:48:54Z</time>
      </trkpt>
      <trkpt lat="48.79033" lon="1.3812">
        <ele>142.6</ele>
        <time>2023-08-17T13:48:55Z</time>
      </trkpt>
      <trkpt lat="48.79029" lon="1.38137">
        <ele>142.8</ele>
        <time>2023-08-17T13:48:59Z</time>
      </trkpt>
      <trkpt lat="48.79029" lon="1.38139">
        <ele>143</ele>
        <time>2023-08-17T13:49:00Z</time>
      </trkpt>
      <trkpt lat="48.79027" lon="1.38145">
        <ele>143</ele>
        <time>2023-08-17T13:49:02Z</time>
      </trkpt>
      <trkpt lat="48.79026" lon="1.38149">
        <ele>143.2</ele>
        <time>2023-08-17T13:49:03Z</time>
      </trkpt>
      <trkpt lat="48.79025" lon="1.38154">
        <ele>143.2</ele>
        <time>2023-08-17T13:49:04Z</time>
      </trkpt>
      <trkpt lat="48.79025" lon="1.38157">
        <ele>143.4</ele>
        <time>2023-08-17T13:49:05Z</time>
      </trkpt>
      <trkpt lat="48.79024" lon="1.38162">
        <ele>143.4</ele>
        <time>2023-08-17T13:49:06Z</time>
      </trkpt>
      <trkpt lat="48.79019" lon="1.38187">
        <ele>143.8</ele>
        <time>2023-08-17T13:49:11Z</time>
      </trkpt>
      <trkpt lat="48.79019" lon="1.38204">
        <ele>144</ele>
        <time>2023-08-17T13:49:14Z</time>
      </trkpt>
      <trkpt lat="48.79017" lon="1.38213">
        <ele>144</ele>
        <time>2023-08-17T13:49:16Z</time>
      </trkpt>
      <trkpt lat="48.79016" lon="1.38218">
        <ele>144</ele>
        <time>2023-08-17T13:49:17Z</time>
      </trkpt>
      <trkpt lat="48.79016" lon="1.38222">
        <ele>144</ele>
        <time>2023-08-17T13:49:18Z</time>
      </trkpt>
      <trkpt lat="48.79016" lon="1.38226">
        <ele>144</ele>
        <time>2023-08-17T13:49:19Z</time>
      </trkpt>
      <trkpt lat="48.79016" lon="1.38231">
        <ele>144</ele>
        <time>2023-08-17T13:49:20Z</time>
      </trkpt>
      <trkpt lat="48.79015" lon="1.38236">
        <ele>144</ele>
        <time>2023-08-17T13:49:21Z</time>
      </trkpt>
      <trkpt lat="48.79015" lon="1.38254">
        <ele>144</ele>
        <time>2023-08-17T13:49:24Z</time>
      </trkpt>
      <trkpt lat="48.79016" lon="1.3826">
        <ele>144</ele>
        <time>2023-08-17T13:49:25Z</time>
      </trkpt>
      <trkpt lat="48.79017" lon="1.38265">
        <ele>144</ele>
        <time>2023-08-17T13:49:26Z</time>
      </trkpt>
      <trkpt lat="48.79018" lon="1.38272">
        <ele>144</ele>
        <time>2023-08-17T13:49:27Z</time>
      </trkpt>
      <trkpt lat="48.79018" lon="1.38278">
        <ele>144</ele>
        <time>2023-08-17T13:49:28Z</time>
      </trkpt>
      <trkpt lat="48.79017" lon="1.38283">
        <ele>144</ele>
        <time>2023-08-17T13:49:29Z</time>
      </trkpt>
      <trkpt lat="48.79014" lon="1.38291">
        <ele>144</ele>
        <time>2023-08-17T13:49:31Z</time>
      </trkpt>
      <trkpt lat="48.79013" lon="1.38295">
        <ele>144</ele>
        <time>2023-08-17T13:49:32Z</time>
      </trkpt>
      <trkpt lat="48.79011" lon="1.38298">
        <ele>144</ele>
        <time>2023-08-17T13:49:33Z</time>
      </trkpt>
      <trkpt lat="48.79008" lon="1.38302">
        <ele>143.8</ele>
        <time>2023-08-17T13:49:34Z</time>
      </trkpt>
      <trkpt lat="48.79007" lon="1.38306">
        <ele>143.8</ele>
        <time>2023-08-17T13:49:35Z</time>
      </trkpt>
      <trkpt lat="48.79005" lon="1.38309">
        <ele>143.8</ele>
        <time>2023-08-17T13:49:36Z</time>
      </trkpt>
      <trkpt lat="48.79003" lon="1.38313">
        <ele>143.8</ele>
        <time>2023-08-17T13:49:37Z</time>
      </trkpt>
      <trkpt lat="48.79002" lon="1.38316">
        <ele>143.8</ele>
        <time>2023-08-17T13:49:38Z</time>
      </trkpt>
      <trkpt lat="48.79" lon="1.38318">
        <ele>143.8</ele>
        <time>2023-08-17T13:49:39Z</time>
      </trkpt>
      <trkpt lat="48.78997" lon="1.38321">
        <ele>143.8</ele>
        <time>2023-08-17T13:49:40Z</time>
      </trkpt>
      <trkpt lat="48.78996" lon="1.38324">
        <ele>143.8</ele>
        <time>2023-08-17T13:49:41Z</time>
      </trkpt>
      <trkpt lat="48.7899" lon="1.38326">
        <ele>143.8</ele>
        <time>2023-08-17T13:49:42Z</time>
      </trkpt>
      <trkpt lat="48.78989" lon="1.38329">
        <ele>143.8</ele>
        <time>2023-08-17T13:49:43Z</time>
      </trkpt>
      <trkpt lat="48.78985" lon="1.38332">
        <ele>143.8</ele>
        <time>2023-08-17T13:49:44Z</time>
      </trkpt>
      <trkpt lat="48.78984" lon="1.38335">
        <ele>143.8</ele>
        <time>2023-08-17T13:49:45Z</time>
      </trkpt>
      <trkpt lat="48.78983" lon="1.38338">
        <ele>144</ele>
        <time>2023-08-17T13:49:46Z</time>
      </trkpt>
      <trkpt lat="48.7898" lon="1.38343">
        <ele>144.2</ele>
        <time>2023-08-17T13:49:47Z</time>
      </trkpt>
      <trkpt lat="48.78979" lon="1.38347">
        <ele>144.4</ele>
        <time>2023-08-17T13:49:48Z</time>
      </trkpt>
      <trkpt lat="48.78979" lon="1.38352">
        <ele>144.4</ele>
        <time>2023-08-17T13:49:49Z</time>
      </trkpt>
      <trkpt lat="48.78979" lon="1.38355">
        <ele>144.4</ele>
        <time>2023-08-17T13:49:50Z</time>
      </trkpt>
      <trkpt lat="48.78978" lon="1.38362">
        <ele>144.4</ele>
        <time>2023-08-17T13:49:52Z</time>
      </trkpt>
      <trkpt lat="48.78976" lon="1.38365">
        <ele>144.4</ele>
        <time>2023-08-17T13:49:53Z</time>
      </trkpt>
      <trkpt lat="48.78973" lon="1.38367">
        <ele>144.4</ele>
        <time>2023-08-17T13:49:54Z</time>
      </trkpt>
      <trkpt lat="48.78973" lon="1.38368">
        <ele>144.4</ele>
        <time>2023-08-17T13:49:55Z</time>
      </trkpt>
      <trkpt lat="48.78972" lon="1.38369">
        <ele>144.6</ele>
        <time>2023-08-17T13:49:56Z</time>
      </trkpt>
      <trkpt lat="48.78969" lon="1.38373">
        <ele>144.6</ele>
        <time>2023-08-17T13:49:57Z</time>
      </trkpt>
      <trkpt lat="48.78964" lon="1.38383">
        <ele>144.6</ele>
        <time>2023-08-17T13:50:00Z</time>
      </trkpt>
      <trkpt lat="48.78957" lon="1.38397">
        <ele>145.6</ele>
        <time>2023-08-17T13:53:53Z</time>
      </trkpt>
      <trkpt lat="48.78956" lon="1.38398">
        <ele>145.6</ele>
        <time>2023-08-17T13:53:54Z</time>
      </trkpt>
      <trkpt lat="48.78955" lon="1.38403">
        <ele>145.6</ele>
        <time>2023-08-17T13:53:56Z</time>
      </trkpt>
      <trkpt lat="48.78954" lon="1.38406">
        <ele>145.6</ele>
        <time>2023-08-17T13:53:57Z</time>
      </trkpt>
      <trkpt lat="48.78953" lon="1.3841">
        <ele>145.6</ele>
        <time>2023-08-17T13:53:58Z</time>
      </trkpt>
      <trkpt lat="48.78948" lon="1.3842">
        <ele>145.6</ele>
        <time>2023-08-17T13:54:01Z</time>
      </trkpt>
      <trkpt lat="48.78947" lon="1.38423">
        <ele>145.6</ele>
        <time>2023-08-17T13:54:02Z</time>
      </trkpt>
      <trkpt lat="48.78945" lon="1.38428">
        <ele>145.6</ele>
        <time>2023-08-17T13:54:03Z</time>
      </trkpt>
      <trkpt lat="48.78928" lon="1.38457">
        <ele>145.4</ele>
        <time>2023-08-17T13:54:09Z</time>
      </trkpt>
      <trkpt lat="48.78926" lon="1.38461">
        <ele>145.4</ele>
        <time>2023-08-17T13:54:10Z</time>
      </trkpt>
      <trkpt lat="48.7891" lon="1.38495">
        <ele>145</ele>
        <time>2023-08-17T13:54:16Z</time>
      </trkpt>
      <trkpt lat="48.78896" lon="1.38513">
        <ele>144.4</ele>
        <time>2023-08-17T13:54:18Z</time>
      </trkpt>
      <trkpt lat="48.78879" lon="1.3854">
        <ele>143.8</ele>
        <time>2023-08-17T13:54:21Z</time>
      </trkpt>
      <trkpt lat="48.78865" lon="1.38569">
        <ele>142.8</ele>
        <time>2023-08-17T13:54:24Z</time>
      </trkpt>
      <trkpt lat="48.78862" lon="1.38574">
        <ele>142.4</ele>
        <time>2023-08-17T13:54:25Z</time>
      </trkpt>
      <trkpt lat="48.78859" lon="1.3858">
        <ele>142.2</ele>
        <time>2023-08-17T13:54:26Z</time>
      </trkpt>
      <trkpt lat="48.78855" lon="1.38587">
        <ele>141.8</ele>
        <time>2023-08-17T13:54:27Z</time>
      </trkpt>
      <trkpt lat="48.78854" lon="1.3859">
        <ele>141.2</ele>
        <time>2023-08-17T13:54:28Z</time>
      </trkpt>
      <trkpt lat="48.78854" lon="1.38593">
        <ele>141</ele>
        <time>2023-08-17T13:54:29Z</time>
      </trkpt>
      <trkpt lat="48.78854" lon="1.38597">
        <ele>141</ele>
        <time>2023-08-17T13:54:30Z</time>
      </trkpt>
      <trkpt lat="48.78854" lon="1.38601">
        <ele>140.8</ele>
        <time>2023-08-17T13:54:31Z</time>
      </trkpt>
      <trkpt lat="48.78854" lon="1.38601">
        <ele>140.8</ele>
        <time>2023-08-17T13:54:32Z</time>
      </trkpt>
      <trkpt lat="48.78854" lon="1.38601">
        <ele>140.8</ele>
        <time>2023-08-17T13:54:33Z</time>
      </trkpt>
      <trkpt lat="48.78854" lon="1.38601">
        <ele>140.8</ele>
        <time>2023-08-17T13:54:37Z</time>
      </trkpt>
      <trkpt lat="48.7885" lon="1.38604">
        <ele>141.4</ele>
        <time>2023-08-17T13:54:40Z</time>
      </trkpt>
      <trkpt lat="48.78849" lon="1.38607">
        <ele>141.4</ele>
        <time>2023-08-17T13:54:41Z</time>
      </trkpt>
      <trkpt lat="48.78846" lon="1.38609">
        <ele>141.6</ele>
        <time>2023-08-17T13:54:42Z</time>
      </trkpt>
      <trkpt lat="48.78844" lon="1.38612">
        <ele>141.6</ele>
        <time>2023-08-17T13:54:43Z</time>
      </trkpt>
      <trkpt lat="48.7884" lon="1.38618">
        <ele>141.8</ele>
        <time>2023-08-17T13:54:45Z</time>
      </trkpt>
      <trkpt lat="48.78839" lon="1.3862">
        <ele>141.8</ele>
        <time>2023-08-17T13:54:46Z</time>
      </trkpt>
      <trkpt lat="48.78837" lon="1.38624">
        <ele>141.8</ele>
        <time>2023-08-17T13:54:47Z</time>
      </trkpt>
      <trkpt lat="48.78836" lon="1.38631">
        <ele>142</ele>
        <time>2023-08-17T13:54:50Z</time>
      </trkpt>
      <trkpt lat="48.78836" lon="1.38631">
        <ele>142.2</ele>
        <time>2023-08-17T13:54:51Z</time>
      </trkpt>
      <trkpt lat="48.78835" lon="1.38631">
        <ele>142.8</ele>
        <time>2023-08-17T13:54:56Z</time>
      </trkpt>
      <trkpt lat="48.78834" lon="1.38633">
        <ele>143</ele>
        <time>2023-08-17T13:54:57Z</time>
      </trkpt>
      <trkpt lat="48.7883" lon="1.38642">
        <ele>143.4</ele>
        <time>2023-08-17T13:55:02Z</time>
      </trkpt>
      <trkpt lat="48.78827" lon="1.38646">
        <ele>143.4</ele>
        <time>2023-08-17T13:55:04Z</time>
      </trkpt>
      <trkpt lat="48.78826" lon="1.38648">
        <ele>143.4</ele>
        <time>2023-08-17T13:55:05Z</time>
      </trkpt>
      <trkpt lat="48.78821" lon="1.38655">
        <ele>143.6</ele>
        <time>2023-08-17T13:55:09Z</time>
      </trkpt>
      <trkpt lat="48.78819" lon="1.38656">
        <ele>143.8</ele>
        <time>2023-08-17T13:55:10Z</time>
      </trkpt>
      <trkpt lat="48.78817" lon="1.38657">
        <ele>143.8</ele>
        <time>2023-08-17T13:55:11Z</time>
      </trkpt>
      <trkpt lat="48.78815" lon="1.38658">
        <ele>143.8</ele>
        <time>2023-08-17T13:55:12Z</time>
      </trkpt>
      <trkpt lat="48.78814" lon="1.38659">
        <ele>143.8</ele>
        <time>2023-08-17T13:55:13Z</time>
      </trkpt>
      <trkpt lat="48.78811" lon="1.38662">
        <ele>144</ele>
        <time>2023-08-17T13:55:14Z</time>
      </trkpt>
      <trkpt lat="48.78809" lon="1.38671">
        <ele>144</ele>
        <time>2023-08-17T13:55:16Z</time>
      </trkpt>
      <trkpt lat="48.78809" lon="1.38675">
        <ele>144</ele>
        <time>2023-08-17T13:55:17Z</time>
      </trkpt>
      <trkpt lat="48.78808" lon="1.38679">
        <ele>144</ele>
        <time>2023-08-17T13:55:18Z</time>
      </trkpt>
      <trkpt lat="48.78803" lon="1.3869">
        <ele>144</ele>
        <time>2023-08-17T13:55:21Z</time>
      </trkpt>
      <trkpt lat="48.78802" lon="1.38695">
        <ele>144</ele>
        <time>2023-08-17T13:55:22Z</time>
      </trkpt>
      <trkpt lat="48.78802" lon="1.38699">
        <ele>144</ele>
        <time>2023-08-17T13:55:23Z</time>
      </trkpt>
      <trkpt lat="48.78801" lon="1.38702">
        <ele>144</ele>
        <time>2023-08-17T13:55:24Z</time>
      </trkpt>
      <trkpt lat="48.78798" lon="1.38704">
        <ele>144</ele>
        <time>2023-08-17T13:55:25Z</time>
      </trkpt>
      <trkpt lat="48.78795" lon="1.38707">
        <ele>144</ele>
        <time>2023-08-17T13:55:26Z</time>
      </trkpt>
      <trkpt lat="48.78792" lon="1.38712">
        <ele>144</ele>
        <time>2023-08-17T13:55:27Z</time>
      </trkpt>
      <trkpt lat="48.78791" lon="1.38716">
        <ele>144</ele>
        <time>2023-08-17T13:55:28Z</time>
      </trkpt>
      <trkpt lat="48.78789" lon="1.38722">
        <ele>144</ele>
        <time>2023-08-17T13:55:29Z</time>
      </trkpt>
      <trkpt lat="48.78788" lon="1.38729">
        <ele>144.4</ele>
        <time>2023-08-17T13:55:32Z</time>
      </trkpt>
      <trkpt lat="48.78786" lon="1.38735">
        <ele>144.6</ele>
        <time>2023-08-17T13:55:34Z</time>
      </trkpt>
      <trkpt lat="48.78785" lon="1.38742">
        <ele>144.8</ele>
        <time>2023-08-17T13:55:36Z</time>
      </trkpt>
      <trkpt lat="48.78784" lon="1.38745">
        <ele>145</ele>
        <time>2023-08-17T13:55:37Z</time>
      </trkpt>
      <trkpt lat="48.78783" lon="1.38747">
        <ele>145</ele>
        <time>2023-08-17T13:55:38Z</time>
      </trkpt>
      <trkpt lat="48.78782" lon="1.38751">
        <ele>145</ele>
        <time>2023-08-17T13:55:39Z</time>
      </trkpt>
      <trkpt lat="48.78781" lon="1.38754">
        <ele>145.2</ele>
        <time>2023-08-17T13:55:40Z</time>
      </trkpt>
      <trkpt lat="48.78776" lon="1.38768">
        <ele>145.8</ele>
        <time>2023-08-17T13:55:45Z</time>
      </trkpt>
      <trkpt lat="48.78775" lon="1.38771">
        <ele>146</ele>
        <time>2023-08-17T13:55:46Z</time>
      </trkpt>
      <trkpt lat="48.78774" lon="1.38775">
        <ele>146</ele>
        <time>2023-08-17T13:55:47Z</time>
      </trkpt>
      <trkpt lat="48.78772" lon="1.38784">
        <ele>146</ele>
        <time>2023-08-17T13:55:49Z</time>
      </trkpt>
      <trkpt lat="48.78771" lon="1.38788">
        <ele>146</ele>
        <time>2023-08-17T13:55:50Z</time>
      </trkpt>
      <trkpt lat="48.78765" lon="1.38798">
        <ele>146.2</ele>
        <time>2023-08-17T13:55:53Z</time>
      </trkpt>
      <trkpt lat="48.78764" lon="1.38802">
        <ele>146.2</ele>
        <time>2023-08-17T13:55:54Z</time>
      </trkpt>
      <trkpt lat="48.7876" lon="1.38817">
        <ele>146.2</ele>
        <time>2023-08-17T13:55:57Z</time>
      </trkpt>
      <trkpt lat="48.78758" lon="1.38823">
        <ele>146.2</ele>
        <time>2023-08-17T13:55:58Z</time>
      </trkpt>
      <trkpt lat="48.78757" lon="1.38828">
        <ele>146</ele>
        <time>2023-08-17T13:55:59Z</time>
      </trkpt>
      <trkpt lat="48.78754" lon="1.38838">
        <ele>146</ele>
        <time>2023-08-17T13:56:02Z</time>
      </trkpt>
      <trkpt lat="48.78752" lon="1.38844">
        <ele>146</ele>
        <time>2023-08-17T13:56:03Z</time>
      </trkpt>
      <trkpt lat="48.78748" lon="1.3885">
        <ele>145.8</ele>
        <time>2023-08-17T13:56:04Z</time>
      </trkpt>
      <trkpt lat="48.78741" lon="1.38878">
        <ele>145.6</ele>
        <time>2023-08-17T13:56:09Z</time>
      </trkpt>
      <trkpt lat="48.7874" lon="1.38885">
        <ele>145.4</ele>
        <time>2023-08-17T13:56:10Z</time>
      </trkpt>
      <trkpt lat="48.78739" lon="1.3889">
        <ele>145.4</ele>
        <time>2023-08-17T13:56:11Z</time>
      </trkpt>
      <trkpt lat="48.78735" lon="1.38895">
        <ele>145.4</ele>
        <time>2023-08-17T13:56:12Z</time>
      </trkpt>
      <trkpt lat="48.78734" lon="1.389">
        <ele>145.4</ele>
        <time>2023-08-17T13:56:13Z</time>
      </trkpt>
      <trkpt lat="48.78734" lon="1.38903">
        <ele>145.4</ele>
        <time>2023-08-17T13:56:14Z</time>
      </trkpt>
      <trkpt lat="48.78733" lon="1.38907">
        <ele>145.4</ele>
        <time>2023-08-17T13:56:15Z</time>
      </trkpt>
      <trkpt lat="48.78732" lon="1.38912">
        <ele>145.4</ele>
        <time>2023-08-17T13:56:16Z</time>
      </trkpt>
      <trkpt lat="48.7873" lon="1.38917">
        <ele>145.4</ele>
        <time>2023-08-17T13:56:17Z</time>
      </trkpt>
      <trkpt lat="48.78727" lon="1.38925">
        <ele>145.6</ele>
        <time>2023-08-17T13:56:18Z</time>
      </trkpt>
      <trkpt lat="48.78726" lon="1.38928">
        <ele>145.6</ele>
        <time>2023-08-17T13:56:19Z</time>
      </trkpt>
      <trkpt lat="48.78725" lon="1.38933">
        <ele>145.6</ele>
        <time>2023-08-17T13:56:20Z</time>
      </trkpt>
      <trkpt lat="48.78726" lon="1.38939">
        <ele>145.6</ele>
        <time>2023-08-17T13:56:21Z</time>
      </trkpt>
      <trkpt lat="48.78727" lon="1.38944">
        <ele>145.6</ele>
        <time>2023-08-17T13:56:22Z</time>
      </trkpt>
      <trkpt lat="48.78728" lon="1.38951">
        <ele>145.6</ele>
        <time>2023-08-17T13:56:23Z</time>
      </trkpt>
      <trkpt lat="48.78728" lon="1.38955">
        <ele>145.6</ele>
        <time>2023-08-17T13:56:24Z</time>
      </trkpt>
      <trkpt lat="48.78732" lon="1.38969">
        <ele>145.6</ele>
        <time>2023-08-17T13:56:27Z</time>
      </trkpt>
      <trkpt lat="48.7874" lon="1.39001">
        <ele>145.6</ele>
        <time>2023-08-17T13:56:33Z</time>
      </trkpt>
      <trkpt lat="48.78746" lon="1.39033">
        <ele>145.4</ele>
        <time>2023-08-17T13:56:39Z</time>
      </trkpt>
      <trkpt lat="48.7875" lon="1.39061">
        <ele>145.4</ele>
        <time>2023-08-17T13:56:44Z</time>
      </trkpt>
      <trkpt lat="48.78751" lon="1.39067">
        <ele>145.4</ele>
        <time>2023-08-17T13:56:45Z</time>
      </trkpt>
      <trkpt lat="48.78752" lon="1.39073">
        <ele>145.4</ele>
        <time>2023-08-17T13:56:46Z</time>
      </trkpt>
      <trkpt lat="48.78756" lon="1.39094">
        <ele>145.4</ele>
        <time>2023-08-17T13:56:49Z</time>
      </trkpt>
      <trkpt lat="48.78758" lon="1.39103">
        <ele>145.4</ele>
        <time>2023-08-17T13:56:50Z</time>
      </trkpt>
      <trkpt lat="48.78762" lon="1.3913">
        <ele>145.2</ele>
        <time>2023-08-17T13:56:53Z</time>
      </trkpt>
      <trkpt lat="48.78762" lon="1.39139">
        <ele>145.2</ele>
        <time>2023-08-17T13:56:54Z</time>
      </trkpt>
      <trkpt lat="48.78762" lon="1.39149">
        <ele>145.2</ele>
        <time>2023-08-17T13:56:55Z</time>
      </trkpt>
      <trkpt lat="48.78764" lon="1.39168">
        <ele>144.8</ele>
        <time>2023-08-17T13:56:57Z</time>
      </trkpt>
      <trkpt lat="48.78766" lon="1.39178">
        <ele>144.6</ele>
        <time>2023-08-17T13:56:58Z</time>
      </trkpt>
      <trkpt lat="48.78769" lon="1.39195">
        <ele>144</ele>
        <time>2023-08-17T13:57:00Z</time>
      </trkpt>
      <trkpt lat="48.7877" lon="1.39206">
        <ele>143.6</ele>
        <time>2023-08-17T13:57:01Z</time>
      </trkpt>
      <trkpt lat="48.78771" lon="1.39214">
        <ele>143.4</ele>
        <time>2023-08-17T13:57:02Z</time>
      </trkpt>
      <trkpt lat="48.78775" lon="1.39234">
        <ele>143</ele>
        <time>2023-08-17T13:57:04Z</time>
      </trkpt>
      <trkpt lat="48.78777" lon="1.39245">
        <ele>142.8</ele>
        <time>2023-08-17T13:57:05Z</time>
      </trkpt>
      <trkpt lat="48.78782" lon="1.39272">
        <ele>142.6</ele>
        <time>2023-08-17T13:57:07Z</time>
      </trkpt>
      <trkpt lat="48.78787" lon="1.39298">
        <ele>142.4</ele>
        <time>2023-08-17T13:57:09Z</time>
      </trkpt>
      <trkpt lat="48.78792" lon="1.39333">
        <ele>141.8</ele>
        <time>2023-08-17T13:57:12Z</time>
      </trkpt>
      <trkpt lat="48.78792" lon="1.39341">
        <ele>141.8</ele>
        <time>2023-08-17T13:57:13Z</time>
      </trkpt>
      <trkpt lat="48.78793" lon="1.39345">
        <ele>141.8</ele>
        <time>2023-08-17T13:57:14Z</time>
      </trkpt>
      <trkpt lat="48.78793" lon="1.39349">
        <ele>141.6</ele>
        <time>2023-08-17T13:57:15Z</time>
      </trkpt>
      <trkpt lat="48.78794" lon="1.39353">
        <ele>141.6</ele>
        <time>2023-08-17T13:57:16Z</time>
      </trkpt>
      <trkpt lat="48.78795" lon="1.39356">
        <ele>141.6</ele>
        <time>2023-08-17T13:57:17Z</time>
      </trkpt>
      <trkpt lat="48.78796" lon="1.39359">
        <ele>141.6</ele>
        <time>2023-08-17T13:57:18Z</time>
      </trkpt>
      <trkpt lat="48.78796" lon="1.39363">
        <ele>141.6</ele>
        <time>2023-08-17T13:57:19Z</time>
      </trkpt>
      <trkpt lat="48.78797" lon="1.39366">
        <ele>141.6</ele>
        <time>2023-08-17T13:57:20Z</time>
      </trkpt>
      <trkpt lat="48.78799" lon="1.39372">
        <ele>142</ele>
        <time>2023-08-17T13:57:22Z</time>
      </trkpt>
      <trkpt lat="48.788" lon="1.39376">
        <ele>142.4</ele>
        <time>2023-08-17T13:57:23Z</time>
      </trkpt>
      <trkpt lat="48.788" lon="1.39376">
        <ele>142.6</ele>
        <time>2023-08-17T13:57:24Z</time>
      </trkpt>
      <trkpt lat="48.788" lon="1.39388">
        <ele>143.2</ele>
        <time>2023-08-17T13:57:26Z</time>
      </trkpt>
      <trkpt lat="48.788" lon="1.39392">
        <ele>143.6</ele>
        <time>2023-08-17T13:57:27Z</time>
      </trkpt>
      <trkpt lat="48.788" lon="1.39397">
        <ele>143.8</ele>
        <time>2023-08-17T13:57:28Z</time>
      </trkpt>
      <trkpt lat="48.78801" lon="1.394">
        <ele>144</ele>
        <time>2023-08-17T13:57:29Z</time>
      </trkpt>
      <trkpt lat="48.78801" lon="1.39405">
        <ele>144.2</ele>
        <time>2023-08-17T13:57:30Z</time>
      </trkpt>
      <trkpt lat="48.78805" lon="1.39437">
        <ele>144.4</ele>
        <time>2023-08-17T13:57:36Z</time>
      </trkpt>
      <trkpt lat="48.78804" lon="1.39447">
        <ele>144.4</ele>
        <time>2023-08-17T13:57:38Z</time>
      </trkpt>
      <trkpt lat="48.78805" lon="1.39451">
        <ele>144.4</ele>
        <time>2023-08-17T13:57:39Z</time>
      </trkpt>
      <trkpt lat="48.78807" lon="1.39465">
        <ele>144.6</ele>
        <time>2023-08-17T13:57:42Z</time>
      </trkpt>
      <trkpt lat="48.78807" lon="1.39469">
        <ele>144.6</ele>
        <time>2023-08-17T13:57:43Z</time>
      </trkpt>
      <trkpt lat="48.78808" lon="1.39473">
        <ele>144.6</ele>
        <time>2023-08-17T13:57:44Z</time>
      </trkpt>
      <trkpt lat="48.78809" lon="1.39478">
        <ele>144.6</ele>
        <time>2023-08-17T13:57:45Z</time>
      </trkpt>
      <trkpt lat="48.7881" lon="1.39483">
        <ele>144.6</ele>
        <time>2023-08-17T13:57:46Z</time>
      </trkpt>
      <trkpt lat="48.78811" lon="1.39487">
        <ele>144.6</ele>
        <time>2023-08-17T13:57:47Z</time>
      </trkpt>
      <trkpt lat="48.78814" lon="1.39501">
        <ele>144.8</ele>
        <time>2023-08-17T13:57:50Z</time>
      </trkpt>
      <trkpt lat="48.78814" lon="1.39506">
        <ele>144.8</ele>
        <time>2023-08-17T13:57:51Z</time>
      </trkpt>
      <trkpt lat="48.78819" lon="1.3953">
        <ele>145.2</ele>
        <time>2023-08-17T13:57:56Z</time>
      </trkpt>
      <trkpt lat="48.78823" lon="1.39568">
        <ele>145.6</ele>
        <time>2023-08-17T13:58:04Z</time>
      </trkpt>
      <trkpt lat="48.78825" lon="1.39599">
        <ele>145.6</ele>
        <time>2023-08-17T13:58:09Z</time>
      </trkpt>
      <trkpt lat="48.78829" lon="1.39646">
        <ele>145.6</ele>
        <time>2023-08-17T13:58:17Z</time>
      </trkpt>
      <trkpt lat="48.78838" lon="1.39686">
        <ele>145.4</ele>
        <time>2023-08-17T13:58:24Z</time>
      </trkpt>
      <trkpt lat="48.7884" lon="1.39698">
        <ele>145.4</ele>
        <time>2023-08-17T13:58:26Z</time>
      </trkpt>
      <trkpt lat="48.78844" lon="1.39715">
        <ele>145.2</ele>
        <time>2023-08-17T13:58:29Z</time>
      </trkpt>
      <trkpt lat="48.78848" lon="1.39745">
        <ele>145.2</ele>
        <time>2023-08-17T13:58:34Z</time>
      </trkpt>
      <trkpt lat="48.78849" lon="1.39751">
        <ele>145.2</ele>
        <time>2023-08-17T13:58:35Z</time>
      </trkpt>
      <trkpt lat="48.7885" lon="1.39757">
        <ele>145.4</ele>
        <time>2023-08-17T13:58:36Z</time>
      </trkpt>
      <trkpt lat="48.78853" lon="1.39767">
        <ele>145.4</ele>
        <time>2023-08-17T13:58:38Z</time>
      </trkpt>
      <trkpt lat="48.78854" lon="1.39772">
        <ele>145.4</ele>
        <time>2023-08-17T13:58:39Z</time>
      </trkpt>
      <trkpt lat="48.78855" lon="1.39778">
        <ele>145.4</ele>
        <time>2023-08-17T13:58:40Z</time>
      </trkpt>
      <trkpt lat="48.78856" lon="1.39784">
        <ele>145.4</ele>
        <time>2023-08-17T13:58:41Z</time>
      </trkpt>
      <trkpt lat="48.78856" lon="1.39788">
        <ele>145.4</ele>
        <time>2023-08-17T13:58:42Z</time>
      </trkpt>
      <trkpt lat="48.78857" lon="1.39793">
        <ele>145.4</ele>
        <time>2023-08-17T13:58:43Z</time>
      </trkpt>
      <trkpt lat="48.78857" lon="1.39798">
        <ele>145.4</ele>
        <time>2023-08-17T13:58:44Z</time>
      </trkpt>
      <trkpt lat="48.78858" lon="1.39802">
        <ele>145.6</ele>
        <time>2023-08-17T13:58:45Z</time>
      </trkpt>
      <trkpt lat="48.78859" lon="1.39807">
        <ele>145.6</ele>
        <time>2023-08-17T13:58:46Z</time>
      </trkpt>
      <trkpt lat="48.7886" lon="1.39812">
        <ele>145.6</ele>
        <time>2023-08-17T13:58:47Z</time>
      </trkpt>
      <trkpt lat="48.78861" lon="1.39817">
        <ele>145.6</ele>
        <time>2023-08-17T13:58:48Z</time>
      </trkpt>
      <trkpt lat="48.78863" lon="1.39818">
        <ele>145.6</ele>
        <time>2023-08-17T13:58:49Z</time>
      </trkpt>
      <trkpt lat="48.78865" lon="1.39819">
        <ele>145.6</ele>
        <time>2023-08-17T13:58:50Z</time>
      </trkpt>
      <trkpt lat="48.78866" lon="1.3982">
        <ele>145.8</ele>
        <time>2023-08-17T13:58:51Z</time>
      </trkpt>
      <trkpt lat="48.78867" lon="1.39822">
        <ele>145.8</ele>
        <time>2023-08-17T13:58:52Z</time>
      </trkpt>
      <trkpt lat="48.78868" lon="1.39822">
        <ele>145.8</ele>
        <time>2023-08-17T13:58:53Z</time>
      </trkpt>
      <trkpt lat="48.78868" lon="1.39822">
        <ele>145.8</ele>
        <time>2023-08-17T13:58:54Z</time>
      </trkpt>
      <trkpt lat="48.78868" lon="1.39822">
        <ele>146</ele>
        <time>2023-08-17T13:58:56Z</time>
      </trkpt>
      <trkpt lat="48.78868" lon="1.39822">
        <ele>146</ele>
        <time>2023-08-17T13:58:57Z</time>
      </trkpt>
      <trkpt lat="48.78867" lon="1.39821">
        <ele>146.2</ele>
        <time>2023-08-17T13:59:03Z</time>
      </trkpt>
      <trkpt lat="48.78871" lon="1.39823">
        <ele>146.8</ele>
        <time>2023-08-17T14:01:33Z</time>
      </trkpt>
      <trkpt lat="48.7888" lon="1.39829">
        <ele>146.8</ele>
        <time>2023-08-17T14:01:37Z</time>
      </trkpt>
      <trkpt lat="48.78883" lon="1.39832">
        <ele>146.8</ele>
        <time>2023-08-17T14:01:40Z</time>
      </trkpt>
      <trkpt lat="48.78883" lon="1.39832">
        <ele>146.8</ele>
        <time>2023-08-17T14:01:41Z</time>
      </trkpt>
      <trkpt lat="48.78883" lon="1.39832">
        <ele>146.8</ele>
        <time>2023-08-17T14:01:42Z</time>
      </trkpt>
      <trkpt lat="48.78883" lon="1.39832">
        <ele>146.8</ele>
        <time>2023-08-17T14:01:43Z</time>
      </trkpt>
      <trkpt lat="48.78883" lon="1.39832">
        <ele>146.8</ele>
        <time>2023-08-17T14:01:45Z</time>
      </trkpt>
      <trkpt lat="48.78883" lon="1.39832">
        <ele>146.2</ele>
        <time>2023-08-17T14:02:15Z</time>
      </trkpt>
      <trkpt lat="48.78883" lon="1.39832">
        <ele>146.2</ele>
        <time>2023-08-17T14:02:24Z</time>
      </trkpt>
      <trkpt lat="48.78884" lon="1.39836">
        <ele>146.2</ele>
        <time>2023-08-17T14:02:26Z</time>
      </trkpt>
      <trkpt lat="48.78885" lon="1.39836">
        <ele>146.2</ele>
        <time>2023-08-17T14:02:27Z</time>
      </trkpt>
      <trkpt lat="48.78886" lon="1.39836">
        <ele>146.2</ele>
        <time>2023-08-17T14:02:29Z</time>
      </trkpt>
      <trkpt lat="48.78886" lon="1.39836">
        <ele>146.4</ele>
        <time>2023-08-17T14:02:30Z</time>
      </trkpt>
      <trkpt lat="48.78886" lon="1.39837">
        <ele>146.4</ele>
        <time>2023-08-17T14:02:32Z</time>
      </trkpt>
      <trkpt lat="48.78889" lon="1.39836">
        <ele>146.6</ele>
        <time>2023-08-17T14:02:39Z</time>
      </trkpt>
      <trkpt lat="48.78891" lon="1.39832">
        <ele>146.6</ele>
        <time>2023-08-17T14:02:41Z</time>
      </trkpt>
      <trkpt lat="48.78892" lon="1.3983">
        <ele>146.6</ele>
        <time>2023-08-17T14:02:42Z</time>
      </trkpt>
      <trkpt lat="48.78894" lon="1.39828">
        <ele>146.6</ele>
        <time>2023-08-17T14:02:43Z</time>
      </trkpt>
      <trkpt lat="48.78896" lon="1.39825">
        <ele>146.6</ele>
        <time>2023-08-17T14:02:44Z</time>
      </trkpt>
      <trkpt lat="48.789" lon="1.39815">
        <ele>146.6</ele>
        <time>2023-08-17T14:02:47Z</time>
      </trkpt>
      <trkpt lat="48.78908" lon="1.39806">
        <ele>146.6</ele>
        <time>2023-08-17T14:02:50Z</time>
      </trkpt>
      <trkpt lat="48.78912" lon="1.398">
        <ele>146.6</ele>
        <time>2023-08-17T14:02:52Z</time>
      </trkpt>
      <trkpt lat="48.78926" lon="1.3978">
        <ele>146.6</ele>
        <time>2023-08-17T14:02:58Z</time>
      </trkpt>
      <trkpt lat="48.78928" lon="1.39777">
        <ele>146.6</ele>
        <time>2023-08-17T14:02:59Z</time>
      </trkpt>
      <trkpt lat="48.78931" lon="1.39772">
        <ele>146.6</ele>
        <time>2023-08-17T14:03:00Z</time>
      </trkpt>
      <trkpt lat="48.78944" lon="1.39752">
        <ele>146.6</ele>
        <time>2023-08-17T14:03:06Z</time>
      </trkpt>
      <trkpt lat="48.78956" lon="1.3973">
        <ele>146.6</ele>
        <time>2023-08-17T14:03:13Z</time>
      </trkpt>
      <trkpt lat="48.78959" lon="1.39724">
        <ele>146.6</ele>
        <time>2023-08-17T14:03:15Z</time>
      </trkpt>
      <trkpt lat="48.78961" lon="1.39721">
        <ele>146.6</ele>
        <time>2023-08-17T14:03:16Z</time>
      </trkpt>
      <trkpt lat="48.78962" lon="1.39718">
        <ele>146.6</ele>
        <time>2023-08-17T14:03:17Z</time>
      </trkpt>
      <trkpt lat="48.78963" lon="1.39715">
        <ele>146.6</ele>
        <time>2023-08-17T14:03:18Z</time>
      </trkpt>
      <trkpt lat="48.78964" lon="1.39713">
        <ele>146.6</ele>
        <time>2023-08-17T14:03:19Z</time>
      </trkpt>
      <trkpt lat="48.78965" lon="1.3971">
        <ele>146.6</ele>
        <time>2023-08-17T14:03:20Z</time>
      </trkpt>
      <trkpt lat="48.78966" lon="1.39708">
        <ele>146.6</ele>
        <time>2023-08-17T14:03:21Z</time>
      </trkpt>
      <trkpt lat="48.78967" lon="1.39706">
        <ele>146.8</ele>
        <time>2023-08-17T14:03:22Z</time>
      </trkpt>
      <trkpt lat="48.78968" lon="1.39704">
        <ele>146.8</ele>
        <time>2023-08-17T14:03:23Z</time>
      </trkpt>
      <trkpt lat="48.78969" lon="1.39702">
        <ele>146.8</ele>
        <time>2023-08-17T14:03:24Z</time>
      </trkpt>
      <trkpt lat="48.7897" lon="1.39701">
        <ele>146.8</ele>
        <time>2023-08-17T14:03:25Z</time>
      </trkpt>
      <trkpt lat="48.78971" lon="1.39699">
        <ele>146.8</ele>
        <time>2023-08-17T14:03:26Z</time>
      </trkpt>
      <trkpt lat="48.78971" lon="1.39698">
        <ele>146.8</ele>
        <time>2023-08-17T14:03:27Z</time>
      </trkpt>
      <trkpt lat="48.78972" lon="1.39697">
        <ele>146.8</ele>
        <time>2023-08-17T14:03:28Z</time>
      </trkpt>
      <trkpt lat="48.78972" lon="1.39697">
        <ele>146.8</ele>
        <time>2023-08-17T14:03:29Z</time>
      </trkpt>
      <trkpt lat="48.78972" lon="1.39697">
        <ele>146.8</ele>
        <time>2023-08-17T14:03:30Z</time>
      </trkpt>
      <trkpt lat="48.78971" lon="1.39698">
        <ele>146.8</ele>
        <time>2023-08-17T14:03:35Z</time>
      </trkpt>
      <trkpt lat="48.78971" lon="1.39698">
        <ele>146.6</ele>
        <time>2023-08-17T14:03:46Z</time>
      </trkpt>
      <trkpt lat="48.78971" lon="1.39699">
        <ele>146.6</ele>
        <time>2023-08-17T14:03:54Z</time>
      </trkpt>
      <trkpt lat="48.78969" lon="1.39704">
        <ele>146.6</ele>
        <time>2023-08-17T14:03:57Z</time>
      </trkpt>
      <trkpt lat="48.78969" lon="1.39706">
        <ele>146.6</ele>
        <time>2023-08-17T14:03:58Z</time>
      </trkpt>
      <trkpt lat="48.78968" lon="1.39707">
        <ele>146.6</ele>
        <time>2023-08-17T14:03:59Z</time>
      </trkpt>
      <trkpt lat="48.78967" lon="1.39709">
        <ele>146.6</ele>
        <time>2023-08-17T14:04:00Z</time>
      </trkpt>
      <trkpt lat="48.78966" lon="1.39711">
        <ele>146.6</ele>
        <time>2023-08-17T14:04:01Z</time>
      </trkpt>
      <trkpt lat="48.78965" lon="1.39713">
        <ele>146.6</ele>
        <time>2023-08-17T14:04:02Z</time>
      </trkpt>
      <trkpt lat="48.78956" lon="1.39727">
        <ele>146.6</ele>
        <time>2023-08-17T14:04:08Z</time>
      </trkpt>
      <trkpt lat="48.78954" lon="1.39729">
        <ele>146.6</ele>
        <time>2023-08-17T14:04:09Z</time>
      </trkpt>
      <trkpt lat="48.78949" lon="1.39738">
        <ele>146.6</ele>
        <time>2023-08-17T14:04:12Z</time>
      </trkpt>
      <trkpt lat="48.78946" lon="1.3974">
        <ele>146.6</ele>
        <time>2023-08-17T14:04:13Z</time>
      </trkpt>
      <trkpt lat="48.78941" lon="1.39749">
        <ele>146.6</ele>
        <time>2023-08-17T14:04:16Z</time>
      </trkpt>
      <trkpt lat="48.78934" lon="1.39765">
        <ele>146.8</ele>
        <time>2023-08-17T14:04:21Z</time>
      </trkpt>
      <trkpt lat="48.78931" lon="1.39768">
        <ele>146.8</ele>
        <time>2023-08-17T14:04:23Z</time>
      </trkpt>
      <trkpt lat="48.78931" lon="1.39771">
        <ele>146.8</ele>
        <time>2023-08-17T14:04:24Z</time>
      </trkpt>
      <trkpt lat="48.78926" lon="1.39781">
        <ele>146.8</ele>
        <time>2023-08-17T14:04:28Z</time>
      </trkpt>
      <trkpt lat="48.78925" lon="1.39782">
        <ele>146.8</ele>
        <time>2023-08-17T14:04:29Z</time>
      </trkpt>
      <trkpt lat="48.78923" lon="1.39785">
        <ele>146.8</ele>
        <time>2023-08-17T14:04:30Z</time>
      </trkpt>
      <trkpt lat="48.78922" lon="1.39787">
        <ele>146.8</ele>
        <time>2023-08-17T14:04:31Z</time>
      </trkpt>
      <trkpt lat="48.78921" lon="1.39789">
        <ele>146.8</ele>
        <time>2023-08-17T14:04:32Z</time>
      </trkpt>
      <trkpt lat="48.78921" lon="1.39792">
        <ele>146.8</ele>
        <time>2023-08-17T14:04:33Z</time>
      </trkpt>
      <trkpt lat="48.7892" lon="1.39794">
        <ele>146.8</ele>
        <time>2023-08-17T14:04:34Z</time>
      </trkpt>
      <trkpt lat="48.7892" lon="1.39796">
        <ele>146.8</ele>
        <time>2023-08-17T14:04:35Z</time>
      </trkpt>
      <trkpt lat="48.78918" lon="1.39799">
        <ele>146.8</ele>
        <time>2023-08-17T14:04:36Z</time>
      </trkpt>
      <trkpt lat="48.78917" lon="1.39801">
        <ele>146.8</ele>
        <time>2023-08-17T14:04:37Z</time>
      </trkpt>
      <trkpt lat="48.78914" lon="1.39805">
        <ele>146.8</ele>
        <time>2023-08-17T14:04:38Z</time>
      </trkpt>
      <trkpt lat="48.78911" lon="1.39808">
        <ele>146.8</ele>
        <time>2023-08-17T14:04:39Z</time>
      </trkpt>
      <trkpt lat="48.78909" lon="1.39811">
        <ele>146.8</ele>
        <time>2023-08-17T14:04:40Z</time>
      </trkpt>
      <trkpt lat="48.78907" lon="1.39815">
        <ele>146.8</ele>
        <time>2023-08-17T14:04:41Z</time>
      </trkpt>
      <trkpt lat="48.78904" lon="1.3982">
        <ele>146.8</ele>
        <time>2023-08-17T14:04:43Z</time>
      </trkpt>
      <trkpt lat="48.78894" lon="1.39836">
        <ele>147</ele>
        <time>2023-08-17T14:04:48Z</time>
      </trkpt>
      <trkpt lat="48.78894" lon="1.39839">
        <ele>147</ele>
        <time>2023-08-17T14:04:49Z</time>
      </trkpt>
      <trkpt lat="48.78895" lon="1.3984">
        <ele>147</ele>
        <time>2023-08-17T14:04:50Z</time>
      </trkpt>
      <trkpt lat="48.78896" lon="1.39842">
        <ele>147</ele>
        <time>2023-08-17T14:04:51Z</time>
      </trkpt>
      <trkpt lat="48.78898" lon="1.39844">
        <ele>147</ele>
        <time>2023-08-17T14:04:52Z</time>
      </trkpt>
      <trkpt lat="48.78898" lon="1.39844">
        <ele>147</ele>
        <time>2023-08-17T14:04:53Z</time>
      </trkpt>
      <trkpt lat="48.78897" lon="1.39844">
        <ele>147.2</ele>
        <time>2023-08-17T14:05:01Z</time>
      </trkpt>
      <trkpt lat="48.78897" lon="1.39844">
        <ele>147.2</ele>
        <time>2023-08-17T14:05:07Z</time>
      </trkpt>
      <trkpt lat="48.78893" lon="1.39846">
        <ele>147.2</ele>
        <time>2023-08-17T14:05:11Z</time>
      </trkpt>
      <trkpt lat="48.78889" lon="1.39852">
        <ele>147.2</ele>
        <time>2023-08-17T14:05:13Z</time>
      </trkpt>
      <trkpt lat="48.78887" lon="1.39855">
        <ele>147.2</ele>
        <time>2023-08-17T14:05:14Z</time>
      </trkpt>
      <trkpt lat="48.78885" lon="1.39857">
        <ele>147.2</ele>
        <time>2023-08-17T14:05:15Z</time>
      </trkpt>
      <trkpt lat="48.78884" lon="1.3986">
        <ele>147.2</ele>
        <time>2023-08-17T14:05:16Z</time>
      </trkpt>
      <trkpt lat="48.78884" lon="1.39863">
        <ele>147.2</ele>
        <time>2023-08-17T14:05:17Z</time>
      </trkpt>
      <trkpt lat="48.78884" lon="1.39866">
        <ele>147.2</ele>
        <time>2023-08-17T14:05:18Z</time>
      </trkpt>
      <trkpt lat="48.78885" lon="1.39869">
        <ele>147.2</ele>
        <time>2023-08-17T14:05:19Z</time>
      </trkpt>
      <trkpt lat="48.78887" lon="1.39874">
        <ele>147.2</ele>
        <time>2023-08-17T14:05:21Z</time>
      </trkpt>
      <trkpt lat="48.78889" lon="1.39876">
        <ele>147.2</ele>
        <time>2023-08-17T14:05:22Z</time>
      </trkpt>
      <trkpt lat="48.7889" lon="1.39879">
        <ele>147.2</ele>
        <time>2023-08-17T14:05:23Z</time>
      </trkpt>
      <trkpt lat="48.78892" lon="1.39881">
        <ele>147.2</ele>
        <time>2023-08-17T14:05:24Z</time>
      </trkpt>
      <trkpt lat="48.78894" lon="1.39882">
        <ele>147.2</ele>
        <time>2023-08-17T14:05:25Z</time>
      </trkpt>
      <trkpt lat="48.78896" lon="1.39881">
        <ele>147.2</ele>
        <time>2023-08-17T14:05:26Z</time>
      </trkpt>
      <trkpt lat="48.78902" lon="1.3988">
        <ele>147.2</ele>
        <time>2023-08-17T14:05:28Z</time>
      </trkpt>
      <trkpt lat="48.78903" lon="1.3988">
        <ele>147.2</ele>
        <time>2023-08-17T14:05:29Z</time>
      </trkpt>
      <trkpt lat="48.78907" lon="1.39881">
        <ele>147.2</ele>
        <time>2023-08-17T14:05:31Z</time>
      </trkpt>
      <trkpt lat="48.7891" lon="1.39882">
        <ele>147.2</ele>
        <time>2023-08-17T14:05:32Z</time>
      </trkpt>
      <trkpt lat="48.78918" lon="1.3988">
        <ele>147.2</ele>
        <time>2023-08-17T14:05:35Z</time>
      </trkpt>
      <trkpt lat="48.78919" lon="1.39878">
        <ele>147.2</ele>
        <time>2023-08-17T14:05:36Z</time>
      </trkpt>
      <trkpt lat="48.78922" lon="1.39879">
        <ele>147.2</ele>
        <time>2023-08-17T14:05:37Z</time>
      </trkpt>
      <trkpt lat="48.78923" lon="1.39879">
        <ele>147.2</ele>
        <time>2023-08-17T14:05:38Z</time>
      </trkpt>
      <trkpt lat="48.78925" lon="1.39879">
        <ele>147.2</ele>
        <time>2023-08-17T14:05:39Z</time>
      </trkpt>
      <trkpt lat="48.78927" lon="1.39878">
        <ele>147.2</ele>
        <time>2023-08-17T14:05:40Z</time>
      </trkpt>
      <trkpt lat="48.78942" lon="1.39875">
        <ele>147.2</ele>
        <time>2023-08-17T14:05:46Z</time>
      </trkpt>
      <trkpt lat="48.78964" lon="1.3987">
        <ele>147.2</ele>
        <time>2023-08-17T14:05:53Z</time>
      </trkpt>
      <trkpt lat="48.78988" lon="1.39866">
        <ele>147</ele>
        <time>2023-08-17T14:05:59Z</time>
      </trkpt>
      <trkpt lat="48.79004" lon="1.39863">
        <ele>147</ele>
        <time>2023-08-17T14:06:02Z</time>
      </trkpt>
      <trkpt lat="48.79013" lon="1.3986">
        <ele>146.8</ele>
        <time>2023-08-17T14:06:03Z</time>
      </trkpt>
      <trkpt lat="48.79051" lon="1.39851">
        <ele>146</ele>
        <time>2023-08-17T14:06:07Z</time>
      </trkpt>
      <trkpt lat="48.79071" lon="1.39847">
        <ele>145</ele>
        <time>2023-08-17T14:06:10Z</time>
      </trkpt>
      <trkpt lat="48.79075" lon="1.39846">
        <ele>145</ele>
        <time>2023-08-17T14:06:11Z</time>
      </trkpt>
      <trkpt lat="48.79075" lon="1.39845">
        <ele>144.6</ele>
        <time>2023-08-17T14:06:12Z</time>
      </trkpt>
      <trkpt lat="48.79076" lon="1.39845">
        <ele>144.4</ele>
        <time>2023-08-17T14:06:13Z</time>
      </trkpt>
      <trkpt lat="48.79077" lon="1.39845">
        <ele>144.4</ele>
        <time>2023-08-17T14:06:14Z</time>
      </trkpt>
      <trkpt lat="48.79079" lon="1.39845">
        <ele>144.4</ele>
        <time>2023-08-17T14:06:15Z</time>
      </trkpt>
      <trkpt lat="48.79082" lon="1.39843">
        <ele>144.4</ele>
        <time>2023-08-17T14:06:16Z</time>
      </trkpt>
      <trkpt lat="48.79085" lon="1.39842">
        <ele>144.4</ele>
        <time>2023-08-17T14:06:17Z</time>
      </trkpt>
      <trkpt lat="48.79087" lon="1.39841">
        <ele>144.4</ele>
        <time>2023-08-17T14:06:18Z</time>
      </trkpt>
      <trkpt lat="48.79095" lon="1.39841">
        <ele>145.4</ele>
        <time>2023-08-17T14:06:22Z</time>
      </trkpt>
      <trkpt lat="48.79097" lon="1.39841">
        <ele>146</ele>
        <time>2023-08-17T14:06:23Z</time>
      </trkpt>
      <trkpt lat="48.79099" lon="1.3984">
        <ele>146</ele>
        <time>2023-08-17T14:06:24Z</time>
      </trkpt>
      <trkpt lat="48.79102" lon="1.3984">
        <ele>146.2</ele>
        <time>2023-08-17T14:06:25Z</time>
      </trkpt>
      <trkpt lat="48.79109" lon="1.39839">
        <ele>146.6</ele>
        <time>2023-08-17T14:06:28Z</time>
      </trkpt>
      <trkpt lat="48.79138" lon="1.39833">
        <ele>146.6</ele>
        <time>2023-08-17T14:06:38Z</time>
      </trkpt>
      <trkpt lat="48.79148" lon="1.39831">
        <ele>146.6</ele>
        <time>2023-08-17T14:06:41Z</time>
      </trkpt>
      <trkpt lat="48.79151" lon="1.3983">
        <ele>146.6</ele>
        <time>2023-08-17T14:06:42Z</time>
      </trkpt>
      <trkpt lat="48.79154" lon="1.39829">
        <ele>146.6</ele>
        <time>2023-08-17T14:06:43Z</time>
      </trkpt>
      <trkpt lat="48.79157" lon="1.39828">
        <ele>146.6</ele>
        <time>2023-08-17T14:06:44Z</time>
      </trkpt>
      <trkpt lat="48.79167" lon="1.39825">
        <ele>146.6</ele>
        <time>2023-08-17T14:06:47Z</time>
      </trkpt>
      <trkpt lat="48.79189" lon="1.39818">
        <ele>146.6</ele>
        <time>2023-08-17T14:06:54Z</time>
      </trkpt>
      <trkpt lat="48.79206" lon="1.39818">
        <ele>146.2</ele>
        <time>2023-08-17T14:06:59Z</time>
      </trkpt>
      <trkpt lat="48.79209" lon="1.39817">
        <ele>146.2</ele>
        <time>2023-08-17T14:07:00Z</time>
      </trkpt>
      <trkpt lat="48.79212" lon="1.39815">
        <ele>146</ele>
        <time>2023-08-17T14:07:01Z</time>
      </trkpt>
      <trkpt lat="48.79215" lon="1.39815">
        <ele>145.8</ele>
        <time>2023-08-17T14:07:02Z</time>
      </trkpt>
      <trkpt lat="48.79217" lon="1.39816">
        <ele>145.8</ele>
        <time>2023-08-17T14:07:03Z</time>
      </trkpt>
      <trkpt lat="48.79219" lon="1.39816">
        <ele>145.6</ele>
        <time>2023-08-17T14:07:04Z</time>
      </trkpt>
      <trkpt lat="48.79221" lon="1.39816">
        <ele>145.4</ele>
        <time>2023-08-17T14:07:05Z</time>
      </trkpt>
      <trkpt lat="48.79224" lon="1.39816">
        <ele>145.4</ele>
        <time>2023-08-17T14:07:06Z</time>
      </trkpt>
      <trkpt lat="48.7923" lon="1.39814">
        <ele>145.4</ele>
        <time>2023-08-17T14:07:07Z</time>
      </trkpt>
      <trkpt lat="48.79236" lon="1.39812">
        <ele>145</ele>
        <time>2023-08-17T14:07:08Z</time>
      </trkpt>
      <trkpt lat="48.79242" lon="1.3981">
        <ele>144.8</ele>
        <time>2023-08-17T14:07:09Z</time>
      </trkpt>
      <trkpt lat="48.79249" lon="1.39809">
        <ele>144.8</ele>
        <time>2023-08-17T14:07:10Z</time>
      </trkpt>
      <trkpt lat="48.79266" lon="1.39809">
        <ele>144</ele>
        <time>2023-08-17T14:07:12Z</time>
      </trkpt>
      <trkpt lat="48.79273" lon="1.39807">
        <ele>143.8</ele>
        <time>2023-08-17T14:07:13Z</time>
      </trkpt>
      <trkpt lat="48.79285" lon="1.39804">
        <ele>143.6</ele>
        <time>2023-08-17T14:07:15Z</time>
      </trkpt>
      <trkpt lat="48.79291" lon="1.39802">
        <ele>143.4</ele>
        <time>2023-08-17T14:07:16Z</time>
      </trkpt>
      <trkpt lat="48.79296" lon="1.398">
        <ele>142.4</ele>
        <time>2023-08-17T14:07:17Z</time>
      </trkpt>
      <trkpt lat="48.79302" lon="1.39798">
        <ele>141.8</ele>
        <time>2023-08-17T14:07:18Z</time>
      </trkpt>
      <trkpt lat="48.79308" lon="1.39799">
        <ele>141</ele>
        <time>2023-08-17T14:07:19Z</time>
      </trkpt>
      <trkpt lat="48.79314" lon="1.39798">
        <ele>140.4</ele>
        <time>2023-08-17T14:07:20Z</time>
      </trkpt>
      <trkpt lat="48.79319" lon="1.39798">
        <ele>140.2</ele>
        <time>2023-08-17T14:07:21Z</time>
      </trkpt>
      <trkpt lat="48.79323" lon="1.39798">
        <ele>140.2</ele>
        <time>2023-08-17T14:07:22Z</time>
      </trkpt>
      <trkpt lat="48.79327" lon="1.39796">
        <ele>140.2</ele>
        <time>2023-08-17T14:07:23Z</time>
      </trkpt>
      <trkpt lat="48.79331" lon="1.39793">
        <ele>140.2</ele>
        <time>2023-08-17T14:07:24Z</time>
      </trkpt>
      <trkpt lat="48.79332" lon="1.39789">
        <ele>140.2</ele>
        <time>2023-08-17T14:07:25Z</time>
      </trkpt>
      <trkpt lat="48.79331" lon="1.39785">
        <ele>140</ele>
        <time>2023-08-17T14:07:26Z</time>
      </trkpt>
      <trkpt lat="48.7933" lon="1.39783">
        <ele>140</ele>
        <time>2023-08-17T14:07:27Z</time>
      </trkpt>
      <trkpt lat="48.79331" lon="1.39779">
        <ele>140</ele>
        <time>2023-08-17T14:07:28Z</time>
      </trkpt>
      <trkpt lat="48.79332" lon="1.39775">
        <ele>140</ele>
        <time>2023-08-17T14:07:29Z</time>
      </trkpt>
      <trkpt lat="48.79331" lon="1.39772">
        <ele>140.2</ele>
        <time>2023-08-17T14:07:30Z</time>
      </trkpt>
      <trkpt lat="48.79329" lon="1.39769">
        <ele>140.4</ele>
        <time>2023-08-17T14:07:31Z</time>
      </trkpt>
      <trkpt lat="48.79328" lon="1.39766">
        <ele>140.6</ele>
        <time>2023-08-17T14:07:32Z</time>
      </trkpt>
      <trkpt lat="48.79325" lon="1.39761">
        <ele>141</ele>
        <time>2023-08-17T14:07:34Z</time>
      </trkpt>
      <trkpt lat="48.79324" lon="1.3976">
        <ele>141.2</ele>
        <time>2023-08-17T14:07:35Z</time>
      </trkpt>
      <trkpt lat="48.79322" lon="1.39758">
        <ele>141.4</ele>
        <time>2023-08-17T14:07:36Z</time>
      </trkpt>
      <trkpt lat="48.79321" lon="1.39755">
        <ele>141.6</ele>
        <time>2023-08-17T14:07:37Z</time>
      </trkpt>
      <trkpt lat="48.7932" lon="1.39751">
        <ele>141.8</ele>
        <time>2023-08-17T14:07:38Z</time>
      </trkpt>
      <trkpt lat="48.79319" lon="1.39749">
        <ele>142</ele>
        <time>2023-08-17T14:07:39Z</time>
      </trkpt>
      <trkpt lat="48.79315" lon="1.3974">
        <ele>143.2</ele>
        <time>2023-08-17T14:07:43Z</time>
      </trkpt>
      <trkpt lat="48.79313" lon="1.39735">
        <ele>143.8</ele>
        <time>2023-08-17T14:07:45Z</time>
      </trkpt>
      <trkpt lat="48.79312" lon="1.39733">
        <ele>144</ele>
        <time>2023-08-17T14:07:46Z</time>
      </trkpt>
      <trkpt lat="48.79311" lon="1.3973">
        <ele>144.4</ele>
        <time>2023-08-17T14:07:47Z</time>
      </trkpt>
      <trkpt lat="48.79308" lon="1.39722">
        <ele>144.8</ele>
        <time>2023-08-17T14:07:50Z</time>
      </trkpt>
      <trkpt lat="48.79307" lon="1.39719">
        <ele>145</ele>
        <time>2023-08-17T14:07:51Z</time>
      </trkpt>
      <trkpt lat="48.79305" lon="1.39716">
        <ele>145.2</ele>
        <time>2023-08-17T14:07:52Z</time>
      </trkpt>
      <trkpt lat="48.79304" lon="1.39713">
        <ele>145.4</ele>
        <time>2023-08-17T14:07:53Z</time>
      </trkpt>
      <trkpt lat="48.79302" lon="1.39709">
        <ele>145.4</ele>
        <time>2023-08-17T14:07:54Z</time>
      </trkpt>
      <trkpt lat="48.793" lon="1.39705">
        <ele>145.4</ele>
        <time>2023-08-17T14:07:55Z</time>
      </trkpt>
      <trkpt lat="48.79299" lon="1.39702">
        <ele>145.6</ele>
        <time>2023-08-17T14:07:56Z</time>
      </trkpt>
      <trkpt lat="48.79297" lon="1.39699">
        <ele>145.6</ele>
        <time>2023-08-17T14:07:57Z</time>
      </trkpt>
      <trkpt lat="48.79295" lon="1.39696">
        <ele>145.8</ele>
        <time>2023-08-17T14:07:58Z</time>
      </trkpt>
      <trkpt lat="48.79293" lon="1.39692">
        <ele>145.8</ele>
        <time>2023-08-17T14:07:59Z</time>
      </trkpt>
      <trkpt lat="48.79292" lon="1.39687">
        <ele>145.8</ele>
        <time>2023-08-17T14:08:00Z</time>
      </trkpt>
      <trkpt lat="48.7929" lon="1.39683">
        <ele>145.8</ele>
        <time>2023-08-17T14:08:01Z</time>
      </trkpt>
      <trkpt lat="48.79289" lon="1.39678">
        <ele>145.8</ele>
        <time>2023-08-17T14:08:02Z</time>
      </trkpt>
      <trkpt lat="48.79287" lon="1.39674">
        <ele>145.8</ele>
        <time>2023-08-17T14:08:03Z</time>
      </trkpt>
      <trkpt lat="48.79285" lon="1.3967">
        <ele>145.8</ele>
        <time>2023-08-17T14:08:04Z</time>
      </trkpt>
      <trkpt lat="48.79283" lon="1.39666">
        <ele>145.8</ele>
        <time>2023-08-17T14:08:05Z</time>
      </trkpt>
      <trkpt lat="48.79281" lon="1.39661">
        <ele>145.8</ele>
        <time>2023-08-17T14:08:06Z</time>
      </trkpt>
      <trkpt lat="48.79279" lon="1.39656">
        <ele>145.8</ele>
        <time>2023-08-17T14:08:07Z</time>
      </trkpt>
      <trkpt lat="48.79276" lon="1.3965">
        <ele>145.8</ele>
        <time>2023-08-17T14:08:08Z</time>
      </trkpt>
      <trkpt lat="48.79274" lon="1.39645">
        <ele>145.8</ele>
        <time>2023-08-17T14:08:09Z</time>
      </trkpt>
      <trkpt lat="48.79273" lon="1.3964">
        <ele>145.8</ele>
        <time>2023-08-17T14:08:10Z</time>
      </trkpt>
      <trkpt lat="48.79271" lon="1.39635">
        <ele>145.4</ele>
        <time>2023-08-17T14:08:11Z</time>
      </trkpt>
      <trkpt lat="48.79269" lon="1.3963">
        <ele>145.2</ele>
        <time>2023-08-17T14:08:12Z</time>
      </trkpt>
      <trkpt lat="48.79254" lon="1.39598">
        <ele>145.2</ele>
        <time>2023-08-17T14:08:18Z</time>
      </trkpt>
      <trkpt lat="48.79252" lon="1.39594">
        <ele>145.2</ele>
        <time>2023-08-17T14:08:19Z</time>
      </trkpt>
      <trkpt lat="48.79248" lon="1.39583">
        <ele>145.2</ele>
        <time>2023-08-17T14:08:21Z</time>
      </trkpt>
      <trkpt lat="48.79245" lon="1.39578">
        <ele>145.2</ele>
        <time>2023-08-17T14:08:22Z</time>
      </trkpt>
      <trkpt lat="48.79242" lon="1.39574">
        <ele>145.4</ele>
        <time>2023-08-17T14:08:23Z</time>
      </trkpt>
      <trkpt lat="48.79239" lon="1.39568">
        <ele>145.6</ele>
        <time>2023-08-17T14:08:24Z</time>
      </trkpt>
      <trkpt lat="48.79237" lon="1.39564">
        <ele>145.6</ele>
        <time>2023-08-17T14:08:25Z</time>
      </trkpt>
      <trkpt lat="48.79235" lon="1.3956">
        <ele>145.6</ele>
        <time>2023-08-17T14:08:26Z</time>
      </trkpt>
      <trkpt lat="48.79233" lon="1.39555">
        <ele>145.8</ele>
        <time>2023-08-17T14:08:27Z</time>
      </trkpt>
      <trkpt lat="48.79231" lon="1.39551">
        <ele>145.8</ele>
        <time>2023-08-17T14:08:28Z</time>
      </trkpt>
      <trkpt lat="48.79229" lon="1.39546">
        <ele>146</ele>
        <time>2023-08-17T14:08:29Z</time>
      </trkpt>
      <trkpt lat="48.79218" lon="1.39524">
        <ele>145.8</ele>
        <time>2023-08-17T14:08:33Z</time>
      </trkpt>
      <trkpt lat="48.79217" lon="1.39519">
        <ele>146</ele>
        <time>2023-08-17T14:08:34Z</time>
      </trkpt>
      <trkpt lat="48.79201" lon="1.39483">
        <ele>146.2</ele>
        <time>2023-08-17T14:08:41Z</time>
      </trkpt>
      <trkpt lat="48.7919" lon="1.39451">
        <ele>145.8</ele>
        <time>2023-08-17T14:08:47Z</time>
      </trkpt>
      <trkpt lat="48.79188" lon="1.39446">
        <ele>145.8</ele>
        <time>2023-08-17T14:08:48Z</time>
      </trkpt>
      <trkpt lat="48.7918" lon="1.39431">
        <ele>146</ele>
        <time>2023-08-17T14:08:51Z</time>
      </trkpt>
      <trkpt lat="48.79176" lon="1.39421">
        <ele>146</ele>
        <time>2023-08-17T14:08:53Z</time>
      </trkpt>
      <trkpt lat="48.79174" lon="1.39417">
        <ele>146.2</ele>
        <time>2023-08-17T14:08:54Z</time>
      </trkpt>
      <trkpt lat="48.79171" lon="1.39413">
        <ele>146.2</ele>
        <time>2023-08-17T14:08:55Z</time>
      </trkpt>
      <trkpt lat="48.79165" lon="1.39401">
        <ele>146.2</ele>
        <time>2023-08-17T14:08:57Z</time>
      </trkpt>
      <trkpt lat="48.79163" lon="1.39395">
        <ele>146.2</ele>
        <time>2023-08-17T14:08:58Z</time>
      </trkpt>
      <trkpt lat="48.79159" lon="1.39385">
        <ele>146.2</ele>
        <time>2023-08-17T14:09:00Z</time>
      </trkpt>
      <trkpt lat="48.79157" lon="1.3938">
        <ele>146.2</ele>
        <time>2023-08-17T14:09:01Z</time>
      </trkpt>
      <trkpt lat="48.79153" lon="1.39375">
        <ele>146.2</ele>
        <time>2023-08-17T14:09:02Z</time>
      </trkpt>
      <trkpt lat="48.7915" lon="1.39371">
        <ele>146.2</ele>
        <time>2023-08-17T14:09:03Z</time>
      </trkpt>
      <trkpt lat="48.79147" lon="1.39367">
        <ele>146.2</ele>
        <time>2023-08-17T14:09:04Z</time>
      </trkpt>
      <trkpt lat="48.79138" lon="1.39353">
        <ele>146.2</ele>
        <time>2023-08-17T14:09:07Z</time>
      </trkpt>
      <trkpt lat="48.79132" lon="1.39345">
        <ele>146.2</ele>
        <time>2023-08-17T14:09:09Z</time>
      </trkpt>
      <trkpt lat="48.79129" lon="1.39342">
        <ele>146.2</ele>
        <time>2023-08-17T14:09:10Z</time>
      </trkpt>
      <trkpt lat="48.79128" lon="1.39339">
        <ele>146</ele>
        <time>2023-08-17T14:09:11Z</time>
      </trkpt>
      <trkpt lat="48.79124" lon="1.39335">
        <ele>146</ele>
        <time>2023-08-17T14:09:12Z</time>
      </trkpt>
      <trkpt lat="48.79117" lon="1.39327">
        <ele>146</ele>
        <time>2023-08-17T14:09:14Z</time>
      </trkpt>
      <trkpt lat="48.79113" lon="1.39323">
        <ele>145.8</ele>
        <time>2023-08-17T14:09:15Z</time>
      </trkpt>
      <trkpt lat="48.79107" lon="1.39314">
        <ele>145.8</ele>
        <time>2023-08-17T14:09:17Z</time>
      </trkpt>
      <trkpt lat="48.79107" lon="1.3931">
        <ele>145.8</ele>
        <time>2023-08-17T14:09:18Z</time>
      </trkpt>
      <trkpt lat="48.79106" lon="1.39306">
        <ele>145.6</ele>
        <time>2023-08-17T14:09:19Z</time>
      </trkpt>
      <trkpt lat="48.79104" lon="1.39302">
        <ele>145.6</ele>
        <time>2023-08-17T14:09:20Z</time>
      </trkpt>
      <trkpt lat="48.79103" lon="1.39299">
        <ele>145.6</ele>
        <time>2023-08-17T14:09:21Z</time>
      </trkpt>
      <trkpt lat="48.79101" lon="1.39296">
        <ele>145.6</ele>
        <time>2023-08-17T14:09:22Z</time>
      </trkpt>
      <trkpt lat="48.79098" lon="1.39293">
        <ele>145.6</ele>
        <time>2023-08-17T14:09:23Z</time>
      </trkpt>
      <trkpt lat="48.79096" lon="1.3929">
        <ele>145.6</ele>
        <time>2023-08-17T14:09:24Z</time>
      </trkpt>
      <trkpt lat="48.79094" lon="1.39287">
        <ele>145.4</ele>
        <time>2023-08-17T14:09:25Z</time>
      </trkpt>
      <trkpt lat="48.7909" lon="1.39281">
        <ele>145.4</ele>
        <time>2023-08-17T14:09:27Z</time>
      </trkpt>
      <trkpt lat="48.79088" lon="1.39277">
        <ele>145.4</ele>
        <time>2023-08-17T14:09:28Z</time>
      </trkpt>
      <trkpt lat="48.79088" lon="1.39273">
        <ele>145.4</ele>
        <time>2023-08-17T14:09:29Z</time>
      </trkpt>
      <trkpt lat="48.79088" lon="1.39268">
        <ele>145.2</ele>
        <time>2023-08-17T14:09:30Z</time>
      </trkpt>
      <trkpt lat="48.79089" lon="1.39263">
        <ele>145.2</ele>
        <time>2023-08-17T14:09:31Z</time>
      </trkpt>
      <trkpt lat="48.7909" lon="1.3926">
        <ele>145.2</ele>
        <time>2023-08-17T14:09:32Z</time>
      </trkpt>
      <trkpt lat="48.7909" lon="1.39255">
        <ele>145.2</ele>
        <time>2023-08-17T14:09:33Z</time>
      </trkpt>
      <trkpt lat="48.7909" lon="1.39226">
        <ele>144.6</ele>
        <time>2023-08-17T14:09:39Z</time>
      </trkpt>
      <trkpt lat="48.79089" lon="1.39202">
        <ele>144.6</ele>
        <time>2023-08-17T14:09:44Z</time>
      </trkpt>
      <trkpt lat="48.7909" lon="1.39197">
        <ele>144.4</ele>
        <time>2023-08-17T14:09:46Z</time>
      </trkpt>
      <trkpt lat="48.7909" lon="1.39196">
        <ele>144.4</ele>
        <time>2023-08-17T14:09:47Z</time>
      </trkpt>
      <trkpt lat="48.7909" lon="1.39196">
        <ele>144.4</ele>
        <time>2023-08-17T14:09:48Z</time>
      </trkpt>
      <trkpt lat="48.7909" lon="1.39196">
        <ele>144.4</ele>
        <time>2023-08-17T14:09:50Z</time>
      </trkpt>
      <trkpt lat="48.7909" lon="1.39193">
        <ele>144.6</ele>
        <time>2023-08-17T14:10:19Z</time>
      </trkpt>
      <trkpt lat="48.7909" lon="1.3919">
        <ele>144.6</ele>
        <time>2023-08-17T14:10:20Z</time>
      </trkpt>
      <trkpt lat="48.79091" lon="1.39187">
        <ele>144.6</ele>
        <time>2023-08-17T14:10:21Z</time>
      </trkpt>
      <trkpt lat="48.79091" lon="1.39181">
        <ele>144.8</ele>
        <time>2023-08-17T14:10:23Z</time>
      </trkpt>
      <trkpt lat="48.79091" lon="1.39168">
        <ele>144.8</ele>
        <time>2023-08-17T14:10:27Z</time>
      </trkpt>
      <trkpt lat="48.79094" lon="1.39164">
        <ele>144.8</ele>
        <time>2023-08-17T14:10:29Z</time>
      </trkpt>
      <trkpt lat="48.79099" lon="1.39158">
        <ele>145</ele>
        <time>2023-08-17T14:10:32Z</time>
      </trkpt>
      <trkpt lat="48.79104" lon="1.39147">
        <ele>145.2</ele>
        <time>2023-08-17T14:10:35Z</time>
      </trkpt>
      <trkpt lat="48.79104" lon="1.39144">
        <ele>145.2</ele>
        <time>2023-08-17T14:10:36Z</time>
      </trkpt>
      <trkpt lat="48.79104" lon="1.39139">
        <ele>145.2</ele>
        <time>2023-08-17T14:10:37Z</time>
      </trkpt>
      <trkpt lat="48.79105" lon="1.39135">
        <ele>145.4</ele>
        <time>2023-08-17T14:10:38Z</time>
      </trkpt>
      <trkpt lat="48.79113" lon="1.39113">
        <ele>145.4</ele>
        <time>2023-08-17T14:10:44Z</time>
      </trkpt>
      <trkpt lat="48.79124" lon="1.39087">
        <ele>145.4</ele>
        <time>2023-08-17T14:10:51Z</time>
      </trkpt>
      <trkpt lat="48.79139" lon="1.39058">
        <ele>145</ele>
        <time>2023-08-17T14:10:55Z</time>
      </trkpt>
      <trkpt lat="48.79148" lon="1.3904">
        <ele>145</ele>
        <time>2023-08-17T14:10:57Z</time>
      </trkpt>
      <trkpt lat="48.79148" lon="1.39035">
        <ele>144.8</ele>
        <time>2023-08-17T14:10:58Z</time>
      </trkpt>
      <trkpt lat="48.79146" lon="1.39033">
        <ele>144.8</ele>
        <time>2023-08-17T14:10:59Z</time>
      </trkpt>
      <trkpt lat="48.79145" lon="1.39032">
        <ele>144.6</ele>
        <time>2023-08-17T14:11:00Z</time>
      </trkpt>
      <trkpt lat="48.79142" lon="1.39032">
        <ele>143.8</ele>
        <time>2023-08-17T14:11:01Z</time>
      </trkpt>
      <trkpt lat="48.79141" lon="1.39031">
        <ele>143.2</ele>
        <time>2023-08-17T14:11:02Z</time>
      </trkpt>
      <trkpt lat="48.79139" lon="1.3903">
        <ele>143</ele>
        <time>2023-08-17T14:11:03Z</time>
      </trkpt>
      <trkpt lat="48.79137" lon="1.39028">
        <ele>143</ele>
        <time>2023-08-17T14:11:04Z</time>
      </trkpt>
      <trkpt lat="48.79131" lon="1.39023">
        <ele>142.8</ele>
        <time>2023-08-17T14:11:07Z</time>
      </trkpt>
      <trkpt lat="48.79129" lon="1.39022">
        <ele>142.8</ele>
        <time>2023-08-17T14:11:08Z</time>
      </trkpt>
      <trkpt lat="48.79127" lon="1.39021">
        <ele>142.8</ele>
        <time>2023-08-17T14:11:09Z</time>
      </trkpt>
      <trkpt lat="48.7912" lon="1.39015">
        <ele>142.8</ele>
        <time>2023-08-17T14:11:13Z</time>
      </trkpt>
      <trkpt lat="48.79109" lon="1.39008">
        <ele>143.4</ele>
        <time>2023-08-17T14:11:19Z</time>
      </trkpt>
      <trkpt lat="48.79108" lon="1.39007">
        <ele>143.6</ele>
        <time>2023-08-17T14:11:20Z</time>
      </trkpt>
      <trkpt lat="48.79106" lon="1.39006">
        <ele>143.6</ele>
        <time>2023-08-17T14:11:21Z</time>
      </trkpt>
      <trkpt lat="48.79103" lon="1.39005">
        <ele>143.6</ele>
        <time>2023-08-17T14:11:23Z</time>
      </trkpt>
      <trkpt lat="48.791" lon="1.39005">
        <ele>143.8</ele>
        <time>2023-08-17T14:11:24Z</time>
      </trkpt>
      <trkpt lat="48.79095" lon="1.39004">
        <ele>143.8</ele>
        <time>2023-08-17T14:11:26Z</time>
      </trkpt>
      <trkpt lat="48.79074" lon="1.38995">
        <ele>143.8</ele>
        <time>2023-08-17T14:11:32Z</time>
      </trkpt>
      <trkpt lat="48.79065" lon="1.38985">
        <ele>143.8</ele>
        <time>2023-08-17T14:11:35Z</time>
      </trkpt>
      <trkpt lat="48.79063" lon="1.38981">
        <ele>143.8</ele>
        <time>2023-08-17T14:11:36Z</time>
      </trkpt>
      <trkpt lat="48.79061" lon="1.38976">
        <ele>143.6</ele>
        <time>2023-08-17T14:11:37Z</time>
      </trkpt>
      <trkpt lat="48.79058" lon="1.38965">
        <ele>143.2</ele>
        <time>2023-08-17T14:11:39Z</time>
      </trkpt>
      <trkpt lat="48.79058" lon="1.3896">
        <ele>143.2</ele>
        <time>2023-08-17T14:11:40Z</time>
      </trkpt>
      <trkpt lat="48.79058" lon="1.38953">
        <ele>143</ele>
        <time>2023-08-17T14:11:41Z</time>
      </trkpt>
      <trkpt lat="48.79057" lon="1.38948">
        <ele>142.8</ele>
        <time>2023-08-17T14:11:42Z</time>
      </trkpt>
      <trkpt lat="48.79056" lon="1.38935">
        <ele>142.8</ele>
        <time>2023-08-17T14:11:44Z</time>
      </trkpt>
      <trkpt lat="48.79054" lon="1.38928">
        <ele>142.6</ele>
        <time>2023-08-17T14:11:45Z</time>
      </trkpt>
      <trkpt lat="48.79051" lon="1.38911">
        <ele>142.4</ele>
        <time>2023-08-17T14:11:47Z</time>
      </trkpt>
      <trkpt lat="48.79045" lon="1.38882">
        <ele>141.6</ele>
        <time>2023-08-17T14:11:50Z</time>
      </trkpt>
      <trkpt lat="48.79044" lon="1.38871">
        <ele>141.2</ele>
        <time>2023-08-17T14:11:51Z</time>
      </trkpt>
      <trkpt lat="48.79046" lon="1.38852">
        <ele>140.8</ele>
        <time>2023-08-17T14:11:53Z</time>
      </trkpt>
      <trkpt lat="48.79048" lon="1.38843">
        <ele>140.8</ele>
        <time>2023-08-17T14:11:54Z</time>
      </trkpt>
      <trkpt lat="48.79048" lon="1.38833">
        <ele>140.6</ele>
        <time>2023-08-17T14:11:55Z</time>
      </trkpt>
      <trkpt lat="48.79049" lon="1.38825">
        <ele>140.2</ele>
        <time>2023-08-17T14:11:56Z</time>
      </trkpt>
      <trkpt lat="48.79049" lon="1.38818">
        <ele>139.8</ele>
        <time>2023-08-17T14:11:57Z</time>
      </trkpt>
      <trkpt lat="48.79049" lon="1.38811">
        <ele>139.2</ele>
        <time>2023-08-17T14:11:58Z</time>
      </trkpt>
      <trkpt lat="48.79048" lon="1.38806">
        <ele>138.4</ele>
        <time>2023-08-17T14:11:59Z</time>
      </trkpt>
      <trkpt lat="48.79047" lon="1.38801">
        <ele>138.2</ele>
        <time>2023-08-17T14:12:00Z</time>
      </trkpt>
      <trkpt lat="48.79047" lon="1.38797">
        <ele>138</ele>
        <time>2023-08-17T14:12:01Z</time>
      </trkpt>
      <trkpt lat="48.79047" lon="1.38793">
        <ele>137.8</ele>
        <time>2023-08-17T14:12:02Z</time>
      </trkpt>
      <trkpt lat="48.79047" lon="1.3879">
        <ele>137.8</ele>
        <time>2023-08-17T14:12:03Z</time>
      </trkpt>
      <trkpt lat="48.79047" lon="1.38787">
        <ele>137.8</ele>
        <time>2023-08-17T14:12:04Z</time>
      </trkpt>
      <trkpt lat="48.79046" lon="1.38785">
        <ele>137.8</ele>
        <time>2023-08-17T14:12:05Z</time>
      </trkpt>
      <trkpt lat="48.79047" lon="1.38782">
        <ele>137.8</ele>
        <time>2023-08-17T14:12:06Z</time>
      </trkpt>
      <trkpt lat="48.79047" lon="1.38776">
        <ele>137.8</ele>
        <time>2023-08-17T14:12:08Z</time>
      </trkpt>
      <trkpt lat="48.79048" lon="1.38773">
        <ele>137.8</ele>
        <time>2023-08-17T14:12:09Z</time>
      </trkpt>
      <trkpt lat="48.79049" lon="1.38771">
        <ele>138</ele>
        <time>2023-08-17T14:12:10Z</time>
      </trkpt>
      <trkpt lat="48.79051" lon="1.38765">
        <ele>138.4</ele>
        <time>2023-08-17T14:12:12Z</time>
      </trkpt>
      <trkpt lat="48.79051" lon="1.38762">
        <ele>138.8</ele>
        <time>2023-08-17T14:12:13Z</time>
      </trkpt>
      <trkpt lat="48.79053" lon="1.3876">
        <ele>139</ele>
        <time>2023-08-17T14:12:14Z</time>
      </trkpt>
      <trkpt lat="48.79055" lon="1.38758">
        <ele>139</ele>
        <time>2023-08-17T14:12:15Z</time>
      </trkpt>
      <trkpt lat="48.79055" lon="1.38757">
        <ele>139.2</ele>
        <time>2023-08-17T14:12:16Z</time>
      </trkpt>
      <trkpt lat="48.79056" lon="1.38755">
        <ele>139.2</ele>
        <time>2023-08-17T14:12:17Z</time>
      </trkpt>
      <trkpt lat="48.79058" lon="1.38755">
        <ele>139.2</ele>
        <time>2023-08-17T14:12:18Z</time>
      </trkpt>
      <trkpt lat="48.7906" lon="1.38755">
        <ele>139.4</ele>
        <time>2023-08-17T14:12:19Z</time>
      </trkpt>
      <trkpt lat="48.79062" lon="1.38754">
        <ele>139.6</ele>
        <time>2023-08-17T14:12:20Z</time>
      </trkpt>
      <trkpt lat="48.79063" lon="1.38754">
        <ele>139.8</ele>
        <time>2023-08-17T14:12:21Z</time>
      </trkpt>
      <trkpt lat="48.79065" lon="1.38754">
        <ele>139.8</ele>
        <time>2023-08-17T14:12:22Z</time>
      </trkpt>
      <trkpt lat="48.79066" lon="1.38754">
        <ele>139.8</ele>
        <time>2023-08-17T14:12:23Z</time>
      </trkpt>
      <trkpt lat="48.79068" lon="1.38755">
        <ele>140</ele>
        <time>2023-08-17T14:12:24Z</time>
      </trkpt>
      <trkpt lat="48.7907" lon="1.38755">
        <ele>140.2</ele>
        <time>2023-08-17T14:12:25Z</time>
      </trkpt>
      <trkpt lat="48.79071" lon="1.38756">
        <ele>140.2</ele>
        <time>2023-08-17T14:12:26Z</time>
      </trkpt>
      <trkpt lat="48.79073" lon="1.38757">
        <ele>140.4</ele>
        <time>2023-08-17T14:12:27Z</time>
      </trkpt>
      <trkpt lat="48.79078" lon="1.38756">
        <ele>140.6</ele>
        <time>2023-08-17T14:12:30Z</time>
      </trkpt>
      <trkpt lat="48.79093" lon="1.38751">
        <ele>140.8</ele>
        <time>2023-08-17T14:12:37Z</time>
      </trkpt>
      <trkpt lat="48.79106" lon="1.38747">
        <ele>141</ele>
        <time>2023-08-17T14:12:43Z</time>
      </trkpt>
      <trkpt lat="48.79108" lon="1.38746">
        <ele>141</ele>
        <time>2023-08-17T14:12:44Z</time>
      </trkpt>
      <trkpt lat="48.7911" lon="1.38746">
        <ele>141</ele>
        <time>2023-08-17T14:12:45Z</time>
      </trkpt>
      <trkpt lat="48.79111" lon="1.38746">
        <ele>141</ele>
        <time>2023-08-17T14:12:46Z</time>
      </trkpt>
      <trkpt lat="48.79113" lon="1.38746">
        <ele>141</ele>
        <time>2023-08-17T14:12:47Z</time>
      </trkpt>
      <trkpt lat="48.79115" lon="1.38744">
        <ele>141</ele>
        <time>2023-08-17T14:12:48Z</time>
      </trkpt>
      <trkpt lat="48.79123" lon="1.38738">
        <ele>141</ele>
        <time>2023-08-17T14:12:52Z</time>
      </trkpt>
      <trkpt lat="48.79125" lon="1.38737">
        <ele>141</ele>
        <time>2023-08-17T14:12:53Z</time>
      </trkpt>
      <trkpt lat="48.79127" lon="1.38737">
        <ele>141.2</ele>
        <time>2023-08-17T14:12:54Z</time>
      </trkpt>
      <trkpt lat="48.79129" lon="1.38737">
        <ele>141.4</ele>
        <time>2023-08-17T14:12:55Z</time>
      </trkpt>
      <trkpt lat="48.79131" lon="1.38735">
        <ele>141.6</ele>
        <time>2023-08-17T14:12:56Z</time>
      </trkpt>
      <trkpt lat="48.79142" lon="1.38726">
        <ele>141.8</ele>
        <time>2023-08-17T14:13:00Z</time>
      </trkpt>
      <trkpt lat="48.79144" lon="1.38725">
        <ele>142</ele>
        <time>2023-08-17T14:13:01Z</time>
      </trkpt>
      <trkpt lat="48.79146" lon="1.38725">
        <ele>142</ele>
        <time>2023-08-17T14:13:02Z</time>
      </trkpt>
      <trkpt lat="48.79149" lon="1.38724">
        <ele>142</ele>
        <time>2023-08-17T14:13:03Z</time>
      </trkpt>
      <trkpt lat="48.79152" lon="1.38722">
        <ele>142</ele>
        <time>2023-08-17T14:13:04Z</time>
      </trkpt>
      <trkpt lat="48.79154" lon="1.38722">
        <ele>142</ele>
        <time>2023-08-17T14:13:05Z</time>
      </trkpt>
      <trkpt lat="48.79157" lon="1.38721">
        <ele>142</ele>
        <time>2023-08-17T14:13:06Z</time>
      </trkpt>
      <trkpt lat="48.79159" lon="1.3872">
        <ele>142</ele>
        <time>2023-08-17T14:13:07Z</time>
      </trkpt>
      <trkpt lat="48.7916" lon="1.3872">
        <ele>142</ele>
        <time>2023-08-17T14:13:08Z</time>
      </trkpt>
      <trkpt lat="48.79162" lon="1.38719">
        <ele>142</ele>
        <time>2023-08-17T14:13:09Z</time>
      </trkpt>
      <trkpt lat="48.79166" lon="1.38715">
        <ele>142</ele>
        <time>2023-08-17T14:13:11Z</time>
      </trkpt>
      <trkpt lat="48.79168" lon="1.38714">
        <ele>142</ele>
        <time>2023-08-17T14:13:12Z</time>
      </trkpt>
      <trkpt lat="48.7917" lon="1.38713">
        <ele>142.2</ele>
        <time>2023-08-17T14:13:13Z</time>
      </trkpt>
      <trkpt lat="48.79173" lon="1.38712">
        <ele>142.2</ele>
        <time>2023-08-17T14:13:14Z</time>
      </trkpt>
      <trkpt lat="48.79176" lon="1.3871">
        <ele>142.2</ele>
        <time>2023-08-17T14:13:15Z</time>
      </trkpt>
      <trkpt lat="48.79178" lon="1.3871">
        <ele>142.4</ele>
        <time>2023-08-17T14:13:16Z</time>
      </trkpt>
      <trkpt lat="48.7918" lon="1.3871">
        <ele>142.4</ele>
        <time>2023-08-17T14:13:17Z</time>
      </trkpt>
      <trkpt lat="48.79181" lon="1.38709">
        <ele>142.4</ele>
        <time>2023-08-17T14:13:18Z</time>
      </trkpt>
      <trkpt lat="48.79184" lon="1.38705">
        <ele>142.8</ele>
        <time>2023-08-17T14:13:20Z</time>
      </trkpt>
      <trkpt lat="48.79186" lon="1.38702">
        <ele>142.8</ele>
        <time>2023-08-17T14:13:21Z</time>
      </trkpt>
      <trkpt lat="48.79188" lon="1.387">
        <ele>143</ele>
        <time>2023-08-17T14:13:22Z</time>
      </trkpt>
      <trkpt lat="48.79192" lon="1.38697">
        <ele>143.2</ele>
        <time>2023-08-17T14:13:25Z</time>
      </trkpt>
      <trkpt lat="48.79192" lon="1.38698">
        <ele>143.2</ele>
        <time>2023-08-17T14:13:26Z</time>
      </trkpt>
      <trkpt lat="48.79194" lon="1.38697">
        <ele>143.4</ele>
        <time>2023-08-17T14:13:27Z</time>
      </trkpt>
      <trkpt lat="48.79197" lon="1.38696">
        <ele>143.4</ele>
        <time>2023-08-17T14:13:28Z</time>
      </trkpt>
      <trkpt lat="48.792" lon="1.38693">
        <ele>143.4</ele>
        <time>2023-08-17T14:13:30Z</time>
      </trkpt>
      <trkpt lat="48.79203" lon="1.38688">
        <ele>143.4</ele>
        <time>2023-08-17T14:13:32Z</time>
      </trkpt>
      <trkpt lat="48.7921" lon="1.38677">
        <ele>144</ele>
        <time>2023-08-17T14:13:37Z</time>
      </trkpt>
      <trkpt lat="48.79212" lon="1.38675">
        <ele>144.2</ele>
        <time>2023-08-17T14:13:38Z</time>
      </trkpt>
      <trkpt lat="48.79214" lon="1.38674">
        <ele>144.4</ele>
        <time>2023-08-17T14:13:40Z</time>
      </trkpt>
      <trkpt lat="48.79215" lon="1.38674">
        <ele>144.4</ele>
        <time>2023-08-17T14:13:41Z</time>
      </trkpt>
      <trkpt lat="48.79216" lon="1.38672">
        <ele>144.4</ele>
        <time>2023-08-17T14:13:42Z</time>
      </trkpt>
      <trkpt lat="48.79217" lon="1.3867">
        <ele>144.4</ele>
        <time>2023-08-17T14:13:43Z</time>
      </trkpt>
      <trkpt lat="48.79218" lon="1.38667">
        <ele>144.6</ele>
        <time>2023-08-17T14:13:44Z</time>
      </trkpt>
      <trkpt lat="48.79219" lon="1.38665">
        <ele>144.6</ele>
        <time>2023-08-17T14:13:45Z</time>
      </trkpt>
      <trkpt lat="48.79222" lon="1.38664">
        <ele>144.6</ele>
        <time>2023-08-17T14:13:46Z</time>
      </trkpt>
      <trkpt lat="48.79226" lon="1.38661">
        <ele>144.8</ele>
        <time>2023-08-17T14:13:48Z</time>
      </trkpt>
      <trkpt lat="48.79228" lon="1.3866">
        <ele>144.8</ele>
        <time>2023-08-17T14:13:49Z</time>
      </trkpt>
      <trkpt lat="48.79229" lon="1.38658">
        <ele>144.8</ele>
        <time>2023-08-17T14:13:50Z</time>
      </trkpt>
      <trkpt lat="48.79231" lon="1.38656">
        <ele>144.8</ele>
        <time>2023-08-17T14:13:51Z</time>
      </trkpt>
      <trkpt lat="48.79232" lon="1.38655">
        <ele>144.8</ele>
        <time>2023-08-17T14:13:52Z</time>
      </trkpt>
      <trkpt lat="48.79235" lon="1.38653">
        <ele>144.8</ele>
        <time>2023-08-17T14:13:54Z</time>
      </trkpt>
      <trkpt lat="48.79237" lon="1.38651">
        <ele>144.8</ele>
        <time>2023-08-17T14:13:55Z</time>
      </trkpt>
      <trkpt lat="48.79239" lon="1.38648">
        <ele>145</ele>
        <time>2023-08-17T14:13:56Z</time>
      </trkpt>
      <trkpt lat="48.7924" lon="1.38646">
        <ele>145</ele>
        <time>2023-08-17T14:13:57Z</time>
      </trkpt>
      <trkpt lat="48.79241" lon="1.38643">
        <ele>145</ele>
        <time>2023-08-17T14:13:58Z</time>
      </trkpt>
      <trkpt lat="48.79242" lon="1.3864">
        <ele>145</ele>
        <time>2023-08-17T14:13:59Z</time>
      </trkpt>
      <trkpt lat="48.79243" lon="1.38637">
        <ele>145.2</ele>
        <time>2023-08-17T14:14:00Z</time>
      </trkpt>
      <trkpt lat="48.79243" lon="1.38635">
        <ele>145.2</ele>
        <time>2023-08-17T14:14:01Z</time>
      </trkpt>
      <trkpt lat="48.79244" lon="1.38632">
        <ele>145.2</ele>
        <time>2023-08-17T14:14:02Z</time>
      </trkpt>
      <trkpt lat="48.79245" lon="1.3863">
        <ele>145.2</ele>
        <time>2023-08-17T14:14:03Z</time>
      </trkpt>
      <trkpt lat="48.79246" lon="1.38627">
        <ele>145.2</ele>
        <time>2023-08-17T14:14:04Z</time>
      </trkpt>
      <trkpt lat="48.79247" lon="1.38624">
        <ele>145.4</ele>
        <time>2023-08-17T14:14:05Z</time>
      </trkpt>
      <trkpt lat="48.79248" lon="1.38621">
        <ele>145.4</ele>
        <time>2023-08-17T14:14:06Z</time>
      </trkpt>
      <trkpt lat="48.7925" lon="1.38619">
        <ele>145.6</ele>
        <time>2023-08-17T14:14:07Z</time>
      </trkpt>
      <trkpt lat="48.79253" lon="1.38615">
        <ele>145.6</ele>
        <time>2023-08-17T14:14:09Z</time>
      </trkpt>
      <trkpt lat="48.79255" lon="1.38615">
        <ele>145.8</ele>
        <time>2023-08-17T14:14:10Z</time>
      </trkpt>
      <trkpt lat="48.79257" lon="1.38614">
        <ele>146</ele>
        <time>2023-08-17T14:14:11Z</time>
      </trkpt>
      <trkpt lat="48.79258" lon="1.38614">
        <ele>146</ele>
        <time>2023-08-17T14:14:12Z</time>
      </trkpt>
      <trkpt lat="48.79259" lon="1.38613">
        <ele>146</ele>
        <time>2023-08-17T14:14:13Z</time>
      </trkpt>
      <trkpt lat="48.79259" lon="1.38614">
        <ele>146</ele>
        <time>2023-08-17T14:14:14Z</time>
      </trkpt>
      <trkpt lat="48.79261" lon="1.38613">
        <ele>146.2</ele>
        <time>2023-08-17T14:14:15Z</time>
      </trkpt>
      <trkpt lat="48.79266" lon="1.38611">
        <ele>146.2</ele>
        <time>2023-08-17T14:14:17Z</time>
      </trkpt>
      <trkpt lat="48.79268" lon="1.3861">
        <ele>146.4</ele>
        <time>2023-08-17T14:14:18Z</time>
      </trkpt>
      <trkpt lat="48.7927" lon="1.38608">
        <ele>146.4</ele>
        <time>2023-08-17T14:14:19Z</time>
      </trkpt>
      <trkpt lat="48.79276" lon="1.38602">
        <ele>146.6</ele>
        <time>2023-08-17T14:14:21Z</time>
      </trkpt>
      <trkpt lat="48.79277" lon="1.38601">
        <ele>146.8</ele>
        <time>2023-08-17T14:14:22Z</time>
      </trkpt>
      <trkpt lat="48.79279" lon="1.38597">
        <ele>147</ele>
        <time>2023-08-17T14:14:23Z</time>
      </trkpt>
      <trkpt lat="48.7928" lon="1.38594">
        <ele>147</ele>
        <time>2023-08-17T14:14:24Z</time>
      </trkpt>
      <trkpt lat="48.7928" lon="1.38591">
        <ele>147</ele>
        <time>2023-08-17T14:14:25Z</time>
      </trkpt>
      <trkpt lat="48.79284" lon="1.3858">
        <ele>147.4</ele>
        <time>2023-08-17T14:14:28Z</time>
      </trkpt>
      <trkpt lat="48.79286" lon="1.38577">
        <ele>147.4</ele>
        <time>2023-08-17T14:14:29Z</time>
      </trkpt>
      <trkpt lat="48.79288" lon="1.38572">
        <ele>147.4</ele>
        <time>2023-08-17T14:14:30Z</time>
      </trkpt>
      <trkpt lat="48.79301" lon="1.38552">
        <ele>147.6</ele>
        <time>2023-08-17T14:14:37Z</time>
      </trkpt>
      <trkpt lat="48.79309" lon="1.38541">
        <ele>147.6</ele>
        <time>2023-08-17T14:14:40Z</time>
      </trkpt>
      <trkpt lat="48.79317" lon="1.38533">
        <ele>147.6</ele>
        <time>2023-08-17T14:14:44Z</time>
      </trkpt>
      <trkpt lat="48.7933" lon="1.38507">
        <ele>147.6</ele>
        <time>2023-08-17T14:14:51Z</time>
      </trkpt>
      <trkpt lat="48.79337" lon="1.38471">
        <ele>147.2</ele>
        <time>2023-08-17T14:14:57Z</time>
      </trkpt>
      <trkpt lat="48.79342" lon="1.38449">
        <ele>147.2</ele>
        <time>2023-08-17T14:15:00Z</time>
      </trkpt>
      <trkpt lat="48.79344" lon="1.38444">
        <ele>147</ele>
        <time>2023-08-17T14:15:01Z</time>
      </trkpt>
      <trkpt lat="48.79347" lon="1.3844">
        <ele>146.8</ele>
        <time>2023-08-17T14:15:02Z</time>
      </trkpt>
      <trkpt lat="48.79349" lon="1.38437">
        <ele>146.6</ele>
        <time>2023-08-17T14:15:03Z</time>
      </trkpt>
      <trkpt lat="48.79351" lon="1.38435">
        <ele>146.4</ele>
        <time>2023-08-17T14:15:04Z</time>
      </trkpt>
      <trkpt lat="48.79354" lon="1.38433">
        <ele>146.2</ele>
        <time>2023-08-17T14:15:05Z</time>
      </trkpt>
      <trkpt lat="48.79355" lon="1.38431">
        <ele>146</ele>
        <time>2023-08-17T14:15:06Z</time>
      </trkpt>
      <trkpt lat="48.79357" lon="1.3843">
        <ele>146</ele>
        <time>2023-08-17T14:15:07Z</time>
      </trkpt>
      <trkpt lat="48.79359" lon="1.38428">
        <ele>146</ele>
        <time>2023-08-17T14:15:08Z</time>
      </trkpt>
      <trkpt lat="48.79366" lon="1.38419">
        <ele>146</ele>
        <time>2023-08-17T14:15:12Z</time>
      </trkpt>
      <trkpt lat="48.79368" lon="1.38417">
        <ele>146</ele>
        <time>2023-08-17T14:15:13Z</time>
      </trkpt>
      <trkpt lat="48.7937" lon="1.38415">
        <ele>146</ele>
        <time>2023-08-17T14:15:14Z</time>
      </trkpt>
      <trkpt lat="48.79372" lon="1.38414">
        <ele>146</ele>
        <time>2023-08-17T14:15:15Z</time>
      </trkpt>
      <trkpt lat="48.79378" lon="1.38408">
        <ele>146.2</ele>
        <time>2023-08-17T14:15:18Z</time>
      </trkpt>
      <trkpt lat="48.7938" lon="1.38406">
        <ele>146.2</ele>
        <time>2023-08-17T14:15:19Z</time>
      </trkpt>
      <trkpt lat="48.79383" lon="1.38401">
        <ele>146.4</ele>
        <time>2023-08-17T14:15:21Z</time>
      </trkpt>
      <trkpt lat="48.79385" lon="1.38398">
        <ele>146.4</ele>
        <time>2023-08-17T14:15:22Z</time>
      </trkpt>
      <trkpt lat="48.79385" lon="1.38394">
        <ele>146.4</ele>
        <time>2023-08-17T14:15:23Z</time>
      </trkpt>
      <trkpt lat="48.79385" lon="1.38389">
        <ele>146.6</ele>
        <time>2023-08-17T14:15:24Z</time>
      </trkpt>
      <trkpt lat="48.79385" lon="1.38384">
        <ele>146.6</ele>
        <time>2023-08-17T14:15:25Z</time>
      </trkpt>
      <trkpt lat="48.79385" lon="1.38377">
        <ele>146.6</ele>
        <time>2023-08-17T14:15:26Z</time>
      </trkpt>
      <trkpt lat="48.79384" lon="1.3837">
        <ele>146.6</ele>
        <time>2023-08-17T14:15:27Z</time>
      </trkpt>
      <trkpt lat="48.79385" lon="1.38358">
        <ele>146.6</ele>
        <time>2023-08-17T14:15:29Z</time>
      </trkpt>
      <trkpt lat="48.79385" lon="1.38353">
        <ele>146.6</ele>
        <time>2023-08-17T14:15:30Z</time>
      </trkpt>
      <trkpt lat="48.79385" lon="1.38348">
        <ele>146.6</ele>
        <time>2023-08-17T14:15:31Z</time>
      </trkpt>
      <trkpt lat="48.79386" lon="1.38343">
        <ele>146.6</ele>
        <time>2023-08-17T14:15:32Z</time>
      </trkpt>
      <trkpt lat="48.79387" lon="1.38322">
        <ele>146.6</ele>
        <time>2023-08-17T14:15:35Z</time>
      </trkpt>
      <trkpt lat="48.79388" lon="1.38292">
        <ele>146</ele>
        <time>2023-08-17T14:15:39Z</time>
      </trkpt>
      <trkpt lat="48.79389" lon="1.38275">
        <ele>145.8</ele>
        <time>2023-08-17T14:15:41Z</time>
      </trkpt>
      <trkpt lat="48.79387" lon="1.3824">
        <ele>145.2</ele>
        <time>2023-08-17T14:15:45Z</time>
      </trkpt>
      <trkpt lat="48.79387" lon="1.38231">
        <ele>145</ele>
        <time>2023-08-17T14:15:46Z</time>
      </trkpt>
      <trkpt lat="48.79388" lon="1.38224">
        <ele>144.6</ele>
        <time>2023-08-17T14:15:47Z</time>
      </trkpt>
      <trkpt lat="48.79389" lon="1.38198">
        <ele>144</ele>
        <time>2023-08-17T14:15:50Z</time>
      </trkpt>
      <trkpt lat="48.79389" lon="1.38163">
        <ele>142.8</ele>
        <time>2023-08-17T14:15:54Z</time>
      </trkpt>
      <trkpt lat="48.7939" lon="1.38145">
        <ele>142.2</ele>
        <time>2023-08-17T14:15:56Z</time>
      </trkpt>
      <trkpt lat="48.7939" lon="1.3813">
        <ele>141.8</ele>
        <time>2023-08-17T14:15:58Z</time>
      </trkpt>
      <trkpt lat="48.7939" lon="1.38122">
        <ele>141.6</ele>
        <time>2023-08-17T14:15:59Z</time>
      </trkpt>
      <trkpt lat="48.79389" lon="1.38114">
        <ele>141.2</ele>
        <time>2023-08-17T14:16:00Z</time>
      </trkpt>
      <trkpt lat="48.79388" lon="1.38106">
        <ele>141</ele>
        <time>2023-08-17T14:16:01Z</time>
      </trkpt>
      <trkpt lat="48.79388" lon="1.38099">
        <ele>140.8</ele>
        <time>2023-08-17T14:16:02Z</time>
      </trkpt>
      <trkpt lat="48.79388" lon="1.38092">
        <ele>140.8</ele>
        <time>2023-08-17T14:16:03Z</time>
      </trkpt>
      <trkpt lat="48.79388" lon="1.38084">
        <ele>140.6</ele>
        <time>2023-08-17T14:16:04Z</time>
      </trkpt>
      <trkpt lat="48.79388" lon="1.38077">
        <ele>140.4</ele>
        <time>2023-08-17T14:16:05Z</time>
      </trkpt>
      <trkpt lat="48.79387" lon="1.3807">
        <ele>140.4</ele>
        <time>2023-08-17T14:16:06Z</time>
      </trkpt>
      <trkpt lat="48.79387" lon="1.38063">
        <ele>140.2</ele>
        <time>2023-08-17T14:16:07Z</time>
      </trkpt>
      <trkpt lat="48.79387" lon="1.38056">
        <ele>140.2</ele>
        <time>2023-08-17T14:16:08Z</time>
      </trkpt>
      <trkpt lat="48.79387" lon="1.38042">
        <ele>140.2</ele>
        <time>2023-08-17T14:16:10Z</time>
      </trkpt>
      <trkpt lat="48.79388" lon="1.38035">
        <ele>140.2</ele>
        <time>2023-08-17T14:16:11Z</time>
      </trkpt>
      <trkpt lat="48.79389" lon="1.38004">
        <ele>140.2</ele>
        <time>2023-08-17T14:16:15Z</time>
      </trkpt>
      <trkpt lat="48.79389" lon="1.37988">
        <ele>140.2</ele>
        <time>2023-08-17T14:16:17Z</time>
      </trkpt>
      <trkpt lat="48.79393" lon="1.37969">
        <ele>140.2</ele>
        <time>2023-08-17T14:16:20Z</time>
      </trkpt>
      <trkpt lat="48.79394" lon="1.37965">
        <ele>140.2</ele>
        <time>2023-08-17T14:16:21Z</time>
      </trkpt>
      <trkpt lat="48.79395" lon="1.37961">
        <ele>140.2</ele>
        <time>2023-08-17T14:16:22Z</time>
      </trkpt>
      <trkpt lat="48.79396" lon="1.37957">
        <ele>140.2</ele>
        <time>2023-08-17T14:16:23Z</time>
      </trkpt>
      <trkpt lat="48.79397" lon="1.37953">
        <ele>140.2</ele>
        <time>2023-08-17T14:16:24Z</time>
      </trkpt>
      <trkpt lat="48.79397" lon="1.3795">
        <ele>140.2</ele>
        <time>2023-08-17T14:16:25Z</time>
      </trkpt>
      <trkpt lat="48.794" lon="1.3794">
        <ele>140.4</ele>
        <time>2023-08-17T14:16:28Z</time>
      </trkpt>
      <trkpt lat="48.794" lon="1.37936">
        <ele>140.4</ele>
        <time>2023-08-17T14:16:29Z</time>
      </trkpt>
      <trkpt lat="48.794" lon="1.37932">
        <ele>140.6</ele>
        <time>2023-08-17T14:16:30Z</time>
      </trkpt>
      <trkpt lat="48.79401" lon="1.37928">
        <ele>140.6</ele>
        <time>2023-08-17T14:16:31Z</time>
      </trkpt>
      <trkpt lat="48.79403" lon="1.37924">
        <ele>140.8</ele>
        <time>2023-08-17T14:16:32Z</time>
      </trkpt>
      <trkpt lat="48.79406" lon="1.37916">
        <ele>141</ele>
        <time>2023-08-17T14:16:34Z</time>
      </trkpt>
      <trkpt lat="48.79407" lon="1.37912">
        <ele>141.4</ele>
        <time>2023-08-17T14:16:35Z</time>
      </trkpt>
      <trkpt lat="48.79417" lon="1.37885">
        <ele>141.6</ele>
        <time>2023-08-17T14:16:40Z</time>
      </trkpt>
      <trkpt lat="48.7942" lon="1.3788">
        <ele>141.6</ele>
        <time>2023-08-17T14:16:41Z</time>
      </trkpt>
      <trkpt lat="48.79431" lon="1.37869">
        <ele>141.6</ele>
        <time>2023-08-17T14:16:44Z</time>
      </trkpt>
      <trkpt lat="48.79434" lon="1.37865">
        <ele>141.4</ele>
        <time>2023-08-17T14:16:45Z</time>
      </trkpt>
      <trkpt lat="48.79437" lon="1.37862">
        <ele>141.4</ele>
        <time>2023-08-17T14:16:46Z</time>
      </trkpt>
      <trkpt lat="48.7944" lon="1.37858">
        <ele>141.4</ele>
        <time>2023-08-17T14:16:47Z</time>
      </trkpt>
      <trkpt lat="48.79443" lon="1.37856">
        <ele>141.4</ele>
        <time>2023-08-17T14:16:48Z</time>
      </trkpt>
      <trkpt lat="48.79446" lon="1.37854">
        <ele>141.4</ele>
        <time>2023-08-17T14:16:49Z</time>
      </trkpt>
      <trkpt lat="48.79449" lon="1.37851">
        <ele>141.4</ele>
        <time>2023-08-17T14:16:50Z</time>
      </trkpt>
      <trkpt lat="48.79453" lon="1.37848">
        <ele>141.2</ele>
        <time>2023-08-17T14:16:51Z</time>
      </trkpt>
      <trkpt lat="48.79455" lon="1.37844">
        <ele>141.2</ele>
        <time>2023-08-17T14:16:52Z</time>
      </trkpt>
      <trkpt lat="48.79458" lon="1.37841">
        <ele>141.2</ele>
        <time>2023-08-17T14:16:53Z</time>
      </trkpt>
      <trkpt lat="48.7946" lon="1.37839">
        <ele>141.2</ele>
        <time>2023-08-17T14:16:54Z</time>
      </trkpt>
      <trkpt lat="48.79477" lon="1.37825">
        <ele>141.2</ele>
        <time>2023-08-17T14:16:59Z</time>
      </trkpt>
      <trkpt lat="48.79493" lon="1.37811">
        <ele>141.2</ele>
        <time>2023-08-17T14:17:04Z</time>
      </trkpt>
      <trkpt lat="48.79496" lon="1.37808">
        <ele>141.2</ele>
        <time>2023-08-17T14:17:05Z</time>
      </trkpt>
      <trkpt lat="48.79503" lon="1.37804">
        <ele>141.2</ele>
        <time>2023-08-17T14:17:07Z</time>
      </trkpt>
      <trkpt lat="48.79506" lon="1.37801">
        <ele>141.4</ele>
        <time>2023-08-17T14:17:08Z</time>
      </trkpt>
      <trkpt lat="48.79507" lon="1.37799">
        <ele>141.4</ele>
        <time>2023-08-17T14:17:09Z</time>
      </trkpt>
      <trkpt lat="48.79509" lon="1.37798">
        <ele>141.4</ele>
        <time>2023-08-17T14:17:10Z</time>
      </trkpt>
      <trkpt lat="48.79515" lon="1.37794">
        <ele>141.4</ele>
        <time>2023-08-17T14:17:12Z</time>
      </trkpt>
      <trkpt lat="48.79519" lon="1.3779">
        <ele>141.4</ele>
        <time>2023-08-17T14:17:13Z</time>
      </trkpt>
      <trkpt lat="48.79527" lon="1.37782">
        <ele>141.4</ele>
        <time>2023-08-17T14:17:15Z</time>
      </trkpt>
      <trkpt lat="48.79546" lon="1.37766">
        <ele>141.4</ele>
        <time>2023-08-17T14:17:21Z</time>
      </trkpt>
      <trkpt lat="48.79558" lon="1.37759">
        <ele>141.4</ele>
        <time>2023-08-17T14:17:24Z</time>
      </trkpt>
      <trkpt lat="48.79561" lon="1.37758">
        <ele>141.4</ele>
        <time>2023-08-17T14:17:25Z</time>
      </trkpt>
      <trkpt lat="48.79562" lon="1.37759">
        <ele>141.4</ele>
        <time>2023-08-17T14:17:26Z</time>
      </trkpt>
      <trkpt lat="48.79562" lon="1.37759">
        <ele>141.8</ele>
        <time>2023-08-17T14:17:29Z</time>
      </trkpt>
      <trkpt lat="48.79562" lon="1.37759">
        <ele>141.2</ele>
        <time>2023-08-17T14:17:42Z</time>
      </trkpt>
      <trkpt lat="48.79565" lon="1.3776">
        <ele>141</ele>
        <time>2023-08-17T14:17:54Z</time>
      </trkpt>
      <trkpt lat="48.79578" lon="1.37766">
        <ele>141.2</ele>
        <time>2023-08-17T14:17:59Z</time>
      </trkpt>
      <trkpt lat="48.79591" lon="1.3777">
        <ele>141.2</ele>
        <time>2023-08-17T14:18:02Z</time>
      </trkpt>
      <trkpt lat="48.79596" lon="1.37771">
        <ele>141.2</ele>
        <time>2023-08-17T14:18:03Z</time>
      </trkpt>
      <trkpt lat="48.79605" lon="1.37774">
        <ele>141.2</ele>
        <time>2023-08-17T14:18:05Z</time>
      </trkpt>
      <trkpt lat="48.7961" lon="1.37777">
        <ele>141</ele>
        <time>2023-08-17T14:18:06Z</time>
      </trkpt>
      <trkpt lat="48.79624" lon="1.37783">
        <ele>140.2</ele>
        <time>2023-08-17T14:18:09Z</time>
      </trkpt>
      <trkpt lat="48.79628" lon="1.37785">
        <ele>140</ele>
        <time>2023-08-17T14:18:10Z</time>
      </trkpt>
      <trkpt lat="48.79632" lon="1.37787">
        <ele>139.8</ele>
        <time>2023-08-17T14:18:11Z</time>
      </trkpt>
      <trkpt lat="48.79642" lon="1.37789">
        <ele>139.4</ele>
        <time>2023-08-17T14:18:13Z</time>
      </trkpt>
      <trkpt lat="48.79647" lon="1.37791">
        <ele>139.2</ele>
        <time>2023-08-17T14:18:14Z</time>
      </trkpt>
      <trkpt lat="48.79652" lon="1.37794">
        <ele>139</ele>
        <time>2023-08-17T14:18:15Z</time>
      </trkpt>
      <trkpt lat="48.79657" lon="1.37796">
        <ele>138.8</ele>
        <time>2023-08-17T14:18:16Z</time>
      </trkpt>
      <trkpt lat="48.79661" lon="1.37798">
        <ele>138.8</ele>
        <time>2023-08-17T14:18:17Z</time>
      </trkpt>
      <trkpt lat="48.79665" lon="1.378">
        <ele>138.6</ele>
        <time>2023-08-17T14:18:18Z</time>
      </trkpt>
      <trkpt lat="48.79669" lon="1.37802">
        <ele>138.4</ele>
        <time>2023-08-17T14:18:19Z</time>
      </trkpt>
      <trkpt lat="48.79673" lon="1.37803">
        <ele>138.2</ele>
        <time>2023-08-17T14:18:20Z</time>
      </trkpt>
      <trkpt lat="48.79677" lon="1.37805">
        <ele>138</ele>
        <time>2023-08-17T14:18:21Z</time>
      </trkpt>
      <trkpt lat="48.79681" lon="1.37807">
        <ele>138</ele>
        <time>2023-08-17T14:18:22Z</time>
      </trkpt>
      <trkpt lat="48.79685" lon="1.37807">
        <ele>138</ele>
        <time>2023-08-17T14:18:23Z</time>
      </trkpt>
      <trkpt lat="48.79689" lon="1.37809">
        <ele>138</ele>
        <time>2023-08-17T14:18:24Z</time>
      </trkpt>
      <trkpt lat="48.79696" lon="1.37811">
        <ele>137.8</ele>
        <time>2023-08-17T14:18:26Z</time>
      </trkpt>
      <trkpt lat="48.79703" lon="1.37814">
        <ele>137.8</ele>
        <time>2023-08-17T14:18:28Z</time>
      </trkpt>
      <trkpt lat="48.79706" lon="1.37815">
        <ele>137.8</ele>
        <time>2023-08-17T14:18:29Z</time>
      </trkpt>
      <trkpt lat="48.79713" lon="1.37817">
        <ele>137.8</ele>
        <time>2023-08-17T14:18:31Z</time>
      </trkpt>
      <trkpt lat="48.79719" lon="1.3782">
        <ele>137.8</ele>
        <time>2023-08-17T14:18:33Z</time>
      </trkpt>
      <trkpt lat="48.79721" lon="1.37821">
        <ele>137.8</ele>
        <time>2023-08-17T14:18:34Z</time>
      </trkpt>
      <trkpt lat="48.79723" lon="1.37821">
        <ele>137.8</ele>
        <time>2023-08-17T14:18:35Z</time>
      </trkpt>
      <trkpt lat="48.79727" lon="1.37824">
        <ele>138</ele>
        <time>2023-08-17T14:18:37Z</time>
      </trkpt>
      <trkpt lat="48.79729" lon="1.37824">
        <ele>138.2</ele>
        <time>2023-08-17T14:18:38Z</time>
      </trkpt>
      <trkpt lat="48.79731" lon="1.37825">
        <ele>138.2</ele>
        <time>2023-08-17T14:18:39Z</time>
      </trkpt>
      <trkpt lat="48.79733" lon="1.37825">
        <ele>138.4</ele>
        <time>2023-08-17T14:18:40Z</time>
      </trkpt>
      <trkpt lat="48.79734" lon="1.37825">
        <ele>138.4</ele>
        <time>2023-08-17T14:18:41Z</time>
      </trkpt>
      <trkpt lat="48.79736" lon="1.37825">
        <ele>138.8</ele>
        <time>2023-08-17T14:18:42Z</time>
      </trkpt>
      <trkpt lat="48.79738" lon="1.37826">
        <ele>139</ele>
        <time>2023-08-17T14:18:43Z</time>
      </trkpt>
      <trkpt lat="48.7974" lon="1.37827">
        <ele>139.2</ele>
        <time>2023-08-17T14:18:44Z</time>
      </trkpt>
      <trkpt lat="48.79742" lon="1.37828">
        <ele>139.4</ele>
        <time>2023-08-17T14:18:45Z</time>
      </trkpt>
      <trkpt lat="48.79745" lon="1.37829">
        <ele>139.6</ele>
        <time>2023-08-17T14:18:46Z</time>
      </trkpt>
      <trkpt lat="48.79747" lon="1.37829">
        <ele>139.8</ele>
        <time>2023-08-17T14:18:47Z</time>
      </trkpt>
      <trkpt lat="48.79756" lon="1.37832">
        <ele>140.2</ele>
        <time>2023-08-17T14:18:51Z</time>
      </trkpt>
      <trkpt lat="48.79769" lon="1.37837">
        <ele>141</ele>
        <time>2023-08-17T14:18:58Z</time>
      </trkpt>
      <trkpt lat="48.79777" lon="1.37841">
        <ele>141.4</ele>
        <time>2023-08-17T14:19:01Z</time>
      </trkpt>
      <trkpt lat="48.79779" lon="1.37843">
        <ele>141.4</ele>
        <time>2023-08-17T14:19:02Z</time>
      </trkpt>
      <trkpt lat="48.79781" lon="1.37844">
        <ele>141.6</ele>
        <time>2023-08-17T14:19:03Z</time>
      </trkpt>
      <trkpt lat="48.79784" lon="1.37845">
        <ele>141.6</ele>
        <time>2023-08-17T14:19:04Z</time>
      </trkpt>
      <trkpt lat="48.79787" lon="1.37844">
        <ele>141.6</ele>
        <time>2023-08-17T14:19:05Z</time>
      </trkpt>
      <trkpt lat="48.7979" lon="1.37845">
        <ele>141.6</ele>
        <time>2023-08-17T14:19:06Z</time>
      </trkpt>
      <trkpt lat="48.79793" lon="1.37845">
        <ele>141.6</ele>
        <time>2023-08-17T14:19:07Z</time>
      </trkpt>
      <trkpt lat="48.79796" lon="1.37846">
        <ele>141.6</ele>
        <time>2023-08-17T14:19:08Z</time>
      </trkpt>
      <trkpt lat="48.79799" lon="1.37847">
        <ele>141.6</ele>
        <time>2023-08-17T14:19:09Z</time>
      </trkpt>
      <trkpt lat="48.79806" lon="1.37851">
        <ele>141.6</ele>
        <time>2023-08-17T14:19:11Z</time>
      </trkpt>
      <trkpt lat="48.79829" lon="1.3786">
        <ele>141.6</ele>
        <time>2023-08-17T14:19:17Z</time>
      </trkpt>
      <trkpt lat="48.79832" lon="1.37862">
        <ele>141.6</ele>
        <time>2023-08-17T14:19:18Z</time>
      </trkpt>
      <trkpt lat="48.79835" lon="1.37864">
        <ele>141.6</ele>
        <time>2023-08-17T14:19:19Z</time>
      </trkpt>
      <trkpt lat="48.79837" lon="1.37865">
        <ele>141.6</ele>
        <time>2023-08-17T14:19:20Z</time>
      </trkpt>
      <trkpt lat="48.7984" lon="1.37866">
        <ele>141.6</ele>
        <time>2023-08-17T14:19:21Z</time>
      </trkpt>
      <trkpt lat="48.79842" lon="1.37864">
        <ele>141.6</ele>
        <time>2023-08-17T14:19:22Z</time>
      </trkpt>
      <trkpt lat="48.79843" lon="1.37861">
        <ele>141.4</ele>
        <time>2023-08-17T14:19:23Z</time>
      </trkpt>
      <trkpt lat="48.79844" lon="1.37857">
        <ele>140.8</ele>
        <time>2023-08-17T14:19:24Z</time>
      </trkpt>
      <trkpt lat="48.79843" lon="1.37853">
        <ele>140.6</ele>
        <time>2023-08-17T14:19:25Z</time>
      </trkpt>
      <trkpt lat="48.79842" lon="1.37849">
        <ele>140.2</ele>
        <time>2023-08-17T14:19:26Z</time>
      </trkpt>
      <trkpt lat="48.79842" lon="1.37845">
        <ele>140.2</ele>
        <time>2023-08-17T14:19:27Z</time>
      </trkpt>
      <trkpt lat="48.79841" lon="1.37841">
        <ele>140</ele>
        <time>2023-08-17T14:19:28Z</time>
      </trkpt>
      <trkpt lat="48.79841" lon="1.37836">
        <ele>140</ele>
        <time>2023-08-17T14:19:29Z</time>
      </trkpt>
      <trkpt lat="48.79841" lon="1.37831">
        <ele>139.6</ele>
        <time>2023-08-17T14:19:30Z</time>
      </trkpt>
      <trkpt lat="48.79842" lon="1.37825">
        <ele>139.2</ele>
        <time>2023-08-17T14:19:31Z</time>
      </trkpt>
      <trkpt lat="48.79842" lon="1.3782">
        <ele>139</ele>
        <time>2023-08-17T14:19:32Z</time>
      </trkpt>
      <trkpt lat="48.79842" lon="1.37816">
        <ele>138.6</ele>
        <time>2023-08-17T14:19:33Z</time>
      </trkpt>
      <trkpt lat="48.7984" lon="1.37806">
        <ele>137.8</ele>
        <time>2023-08-17T14:19:35Z</time>
      </trkpt>
      <trkpt lat="48.79838" lon="1.37801">
        <ele>137.6</ele>
        <time>2023-08-17T14:19:36Z</time>
      </trkpt>
      <trkpt lat="48.79836" lon="1.37796">
        <ele>137.6</ele>
        <time>2023-08-17T14:19:37Z</time>
      </trkpt>
      <trkpt lat="48.79831" lon="1.37782">
        <ele>137</ele>
        <time>2023-08-17T14:19:39Z</time>
      </trkpt>
      <trkpt lat="48.79829" lon="1.37775">
        <ele>136.6</ele>
        <time>2023-08-17T14:19:40Z</time>
      </trkpt>
      <trkpt lat="48.79827" lon="1.37768">
        <ele>136.4</ele>
        <time>2023-08-17T14:19:41Z</time>
      </trkpt>
      <trkpt lat="48.79826" lon="1.37759">
        <ele>136.2</ele>
        <time>2023-08-17T14:19:42Z</time>
      </trkpt>
      <trkpt lat="48.79825" lon="1.37752">
        <ele>136</ele>
        <time>2023-08-17T14:19:43Z</time>
      </trkpt>
      <trkpt lat="48.79826" lon="1.37746">
        <ele>135.8</ele>
        <time>2023-08-17T14:19:44Z</time>
      </trkpt>
      <trkpt lat="48.79826" lon="1.37739">
        <ele>135.6</ele>
        <time>2023-08-17T14:19:45Z</time>
      </trkpt>
      <trkpt lat="48.79827" lon="1.37734">
        <ele>135.6</ele>
        <time>2023-08-17T14:19:46Z</time>
      </trkpt>
      <trkpt lat="48.79828" lon="1.37728">
        <ele>135.6</ele>
        <time>2023-08-17T14:19:47Z</time>
      </trkpt>
      <trkpt lat="48.79828" lon="1.37724">
        <ele>135.4</ele>
        <time>2023-08-17T14:19:48Z</time>
      </trkpt>
      <trkpt lat="48.79831" lon="1.37708">
        <ele>135.2</ele>
        <time>2023-08-17T14:19:51Z</time>
      </trkpt>
      <trkpt lat="48.79838" lon="1.37694">
        <ele>135</ele>
        <time>2023-08-17T14:19:54Z</time>
      </trkpt>
      <trkpt lat="48.7984" lon="1.3769">
        <ele>135</ele>
        <time>2023-08-17T14:19:55Z</time>
      </trkpt>
      <trkpt lat="48.79851" lon="1.37671">
        <ele>135.4</ele>
        <time>2023-08-17T14:20:00Z</time>
      </trkpt>
      <trkpt lat="48.79864" lon="1.37648">
        <ele>135.4</ele>
        <time>2023-08-17T14:20:06Z</time>
      </trkpt>
      <trkpt lat="48.79865" lon="1.37644">
        <ele>135.4</ele>
        <time>2023-08-17T14:20:07Z</time>
      </trkpt>
      <trkpt lat="48.79868" lon="1.3764">
        <ele>135.4</ele>
        <time>2023-08-17T14:20:08Z</time>
      </trkpt>
      <trkpt lat="48.79873" lon="1.3763">
        <ele>135.4</ele>
        <time>2023-08-17T14:20:11Z</time>
      </trkpt>
      <trkpt lat="48.79875" lon="1.37626">
        <ele>135.4</ele>
        <time>2023-08-17T14:20:12Z</time>
      </trkpt>
      <trkpt lat="48.79877" lon="1.37622">
        <ele>135.4</ele>
        <time>2023-08-17T14:20:13Z</time>
      </trkpt>
      <trkpt lat="48.79881" lon="1.37615">
        <ele>135.6</ele>
        <time>2023-08-17T14:20:15Z</time>
      </trkpt>
      <trkpt lat="48.79885" lon="1.37609">
        <ele>135.8</ele>
        <time>2023-08-17T14:20:17Z</time>
      </trkpt>
      <trkpt lat="48.79886" lon="1.37606">
        <ele>136</ele>
        <time>2023-08-17T14:20:18Z</time>
      </trkpt>
      <trkpt lat="48.79888" lon="1.37602">
        <ele>136</ele>
        <time>2023-08-17T14:20:19Z</time>
      </trkpt>
      <trkpt lat="48.799" lon="1.3757">
        <ele>136.2</ele>
        <time>2023-08-17T14:20:27Z</time>
      </trkpt>
      <trkpt lat="48.79902" lon="1.37563">
        <ele>136.4</ele>
        <time>2023-08-17T14:20:29Z</time>
      </trkpt>
      <trkpt lat="48.79904" lon="1.37559">
        <ele>136.4</ele>
        <time>2023-08-17T14:20:30Z</time>
      </trkpt>
      <trkpt lat="48.79905" lon="1.37556">
        <ele>136.4</ele>
        <time>2023-08-17T14:20:31Z</time>
      </trkpt>
      <trkpt lat="48.79906" lon="1.37552">
        <ele>136.4</ele>
        <time>2023-08-17T14:20:32Z</time>
      </trkpt>
      <trkpt lat="48.79907" lon="1.37549">
        <ele>136.4</ele>
        <time>2023-08-17T14:20:33Z</time>
      </trkpt>
      <trkpt lat="48.79908" lon="1.37545">
        <ele>136.6</ele>
        <time>2023-08-17T14:20:34Z</time>
      </trkpt>
      <trkpt lat="48.79909" lon="1.37542">
        <ele>136.6</ele>
        <time>2023-08-17T14:20:35Z</time>
      </trkpt>
      <trkpt lat="48.7991" lon="1.37539">
        <ele>136.6</ele>
        <time>2023-08-17T14:20:36Z</time>
      </trkpt>
      <trkpt lat="48.79912" lon="1.37536">
        <ele>136.6</ele>
        <time>2023-08-17T14:20:37Z</time>
      </trkpt>
      <trkpt lat="48.79913" lon="1.37533">
        <ele>136.8</ele>
        <time>2023-08-17T14:20:38Z</time>
      </trkpt>
      <trkpt lat="48.79914" lon="1.3753">
        <ele>136.8</ele>
        <time>2023-08-17T14:20:39Z</time>
      </trkpt>
      <trkpt lat="48.79918" lon="1.37517">
        <ele>137.2</ele>
        <time>2023-08-17T14:20:42Z</time>
      </trkpt>
      <trkpt lat="48.79921" lon="1.37509">
        <ele>137.4</ele>
        <time>2023-08-17T14:20:44Z</time>
      </trkpt>
      <trkpt lat="48.79923" lon="1.37506">
        <ele>137.6</ele>
        <time>2023-08-17T14:20:45Z</time>
      </trkpt>
      <trkpt lat="48.79925" lon="1.37502">
        <ele>137.6</ele>
        <time>2023-08-17T14:20:46Z</time>
      </trkpt>
      <trkpt lat="48.79929" lon="1.37493">
        <ele>137.8</ele>
        <time>2023-08-17T14:20:48Z</time>
      </trkpt>
      <trkpt lat="48.79931" lon="1.37489">
        <ele>137.8</ele>
        <time>2023-08-17T14:20:49Z</time>
      </trkpt>
      <trkpt lat="48.79945" lon="1.37455">
        <ele>138</ele>
        <time>2023-08-17T14:20:56Z</time>
      </trkpt>
      <trkpt lat="48.79958" lon="1.37419">
        <ele>138.2</ele>
        <time>2023-08-17T14:21:02Z</time>
      </trkpt>
      <trkpt lat="48.79967" lon="1.37408">
        <ele>138.2</ele>
        <time>2023-08-17T14:21:04Z</time>
      </trkpt>
      <trkpt lat="48.79972" lon="1.37403">
        <ele>138.2</ele>
        <time>2023-08-17T14:21:05Z</time>
      </trkpt>
      <trkpt lat="48.79978" lon="1.37397">
        <ele>138</ele>
        <time>2023-08-17T14:21:06Z</time>
      </trkpt>
      <trkpt lat="48.79989" lon="1.37387">
        <ele>138</ele>
        <time>2023-08-17T14:21:08Z</time>
      </trkpt>
      <trkpt lat="48.79994" lon="1.37383">
        <ele>137.8</ele>
        <time>2023-08-17T14:21:09Z</time>
      </trkpt>
      <trkpt lat="48.79999" lon="1.37379">
        <ele>137</ele>
        <time>2023-08-17T14:21:10Z</time>
      </trkpt>
      <trkpt lat="48.80003" lon="1.37374">
        <ele>136.4</ele>
        <time>2023-08-17T14:21:11Z</time>
      </trkpt>
      <trkpt lat="48.80007" lon="1.3737">
        <ele>136.2</ele>
        <time>2023-08-17T14:21:12Z</time>
      </trkpt>
      <trkpt lat="48.80012" lon="1.37369">
        <ele>135.6</ele>
        <time>2023-08-17T14:21:13Z</time>
      </trkpt>
      <trkpt lat="48.80015" lon="1.3737">
        <ele>135.6</ele>
        <time>2023-08-17T14:21:14Z</time>
      </trkpt>
      <trkpt lat="48.80018" lon="1.37371">
        <ele>134.4</ele>
        <time>2023-08-17T14:21:15Z</time>
      </trkpt>
      <trkpt lat="48.8002" lon="1.37371">
        <ele>133.6</ele>
        <time>2023-08-17T14:21:16Z</time>
      </trkpt>
      <trkpt lat="48.80022" lon="1.37371">
        <ele>133</ele>
        <time>2023-08-17T14:21:17Z</time>
      </trkpt>
      <trkpt lat="48.80023" lon="1.37371">
        <ele>132.8</ele>
        <time>2023-08-17T14:21:18Z</time>
      </trkpt>
      <trkpt lat="48.80024" lon="1.37371">
        <ele>132.6</ele>
        <time>2023-08-17T14:21:19Z</time>
      </trkpt>
      <trkpt lat="48.80027" lon="1.37373">
        <ele>132.4</ele>
        <time>2023-08-17T14:21:21Z</time>
      </trkpt>
      <trkpt lat="48.8003" lon="1.37371">
        <ele>132.4</ele>
        <time>2023-08-17T14:21:23Z</time>
      </trkpt>
      <trkpt lat="48.80032" lon="1.37371">
        <ele>132.4</ele>
        <time>2023-08-17T14:21:24Z</time>
      </trkpt>
      <trkpt lat="48.80034" lon="1.37371">
        <ele>132.4</ele>
        <time>2023-08-17T14:21:25Z</time>
      </trkpt>
      <trkpt lat="48.80036" lon="1.37371">
        <ele>132.6</ele>
        <time>2023-08-17T14:21:26Z</time>
      </trkpt>
      <trkpt lat="48.80041" lon="1.37372">
        <ele>132.8</ele>
        <time>2023-08-17T14:21:29Z</time>
      </trkpt>
      <trkpt lat="48.80044" lon="1.37372">
        <ele>133.2</ele>
        <time>2023-08-17T14:21:31Z</time>
      </trkpt>
      <trkpt lat="48.80053" lon="1.3737">
        <ele>134</ele>
        <time>2023-08-17T14:21:35Z</time>
      </trkpt>
      <trkpt lat="48.80055" lon="1.37369">
        <ele>134.2</ele>
        <time>2023-08-17T14:21:36Z</time>
      </trkpt>
      <trkpt lat="48.80057" lon="1.37368">
        <ele>134.4</ele>
        <time>2023-08-17T14:21:37Z</time>
      </trkpt>
      <trkpt lat="48.80058" lon="1.37368">
        <ele>134.6</ele>
        <time>2023-08-17T14:21:38Z</time>
      </trkpt>
      <trkpt lat="48.8006" lon="1.37368">
        <ele>134.6</ele>
        <time>2023-08-17T14:21:39Z</time>
      </trkpt>
      <trkpt lat="48.80063" lon="1.37367">
        <ele>135</ele>
        <time>2023-08-17T14:21:41Z</time>
      </trkpt>
      <trkpt lat="48.80067" lon="1.37366">
        <ele>135.6</ele>
        <time>2023-08-17T14:21:43Z</time>
      </trkpt>
      <trkpt lat="48.80077" lon="1.37369">
        <ele>136.2</ele>
        <time>2023-08-17T14:21:48Z</time>
      </trkpt>
      <trkpt lat="48.80078" lon="1.37371">
        <ele>136.4</ele>
        <time>2023-08-17T14:21:49Z</time>
      </trkpt>
      <trkpt lat="48.80081" lon="1.37372">
        <ele>136.6</ele>
        <time>2023-08-17T14:21:50Z</time>
      </trkpt>
      <trkpt lat="48.80083" lon="1.3737">
        <ele>136.6</ele>
        <time>2023-08-17T14:21:51Z</time>
      </trkpt>
      <trkpt lat="48.80086" lon="1.37368">
        <ele>136.8</ele>
        <time>2023-08-17T14:21:52Z</time>
      </trkpt>
      <trkpt lat="48.80087" lon="1.37365">
        <ele>137</ele>
        <time>2023-08-17T14:21:53Z</time>
      </trkpt>
      <trkpt lat="48.80089" lon="1.37362">
        <ele>137.4</ele>
        <time>2023-08-17T14:21:54Z</time>
      </trkpt>
      <trkpt lat="48.80092" lon="1.37358">
        <ele>137.4</ele>
        <time>2023-08-17T14:21:55Z</time>
      </trkpt>
      <trkpt lat="48.80093" lon="1.37356">
        <ele>137.6</ele>
        <time>2023-08-17T14:21:56Z</time>
      </trkpt>
      <trkpt lat="48.80095" lon="1.37353">
        <ele>137.8</ele>
        <time>2023-08-17T14:21:57Z</time>
      </trkpt>
      <trkpt lat="48.80097" lon="1.3735">
        <ele>137.8</ele>
        <time>2023-08-17T14:21:58Z</time>
      </trkpt>
      <trkpt lat="48.80098" lon="1.37347">
        <ele>137.8</ele>
        <time>2023-08-17T14:21:59Z</time>
      </trkpt>
      <trkpt lat="48.80101" lon="1.37342">
        <ele>137.8</ele>
        <time>2023-08-17T14:22:00Z</time>
      </trkpt>
      <trkpt lat="48.80104" lon="1.37335">
        <ele>137.8</ele>
        <time>2023-08-17T14:22:01Z</time>
      </trkpt>
      <trkpt lat="48.80108" lon="1.3733">
        <ele>137.8</ele>
        <time>2023-08-17T14:22:02Z</time>
      </trkpt>
      <trkpt lat="48.80111" lon="1.37326">
        <ele>137.8</ele>
        <time>2023-08-17T14:22:03Z</time>
      </trkpt>
      <trkpt lat="48.80114" lon="1.3732">
        <ele>137.8</ele>
        <time>2023-08-17T14:22:04Z</time>
      </trkpt>
      <trkpt lat="48.80118" lon="1.37316">
        <ele>137.8</ele>
        <time>2023-08-17T14:22:05Z</time>
      </trkpt>
      <trkpt lat="48.80123" lon="1.37314">
        <ele>137.8</ele>
        <time>2023-08-17T14:22:06Z</time>
      </trkpt>
      <trkpt lat="48.80126" lon="1.3731">
        <ele>137.6</ele>
        <time>2023-08-17T14:22:07Z</time>
      </trkpt>
      <trkpt lat="48.80129" lon="1.37307">
        <ele>137.2</ele>
        <time>2023-08-17T14:22:08Z</time>
      </trkpt>
      <trkpt lat="48.80131" lon="1.37305">
        <ele>137</ele>
        <time>2023-08-17T14:22:09Z</time>
      </trkpt>
      <trkpt lat="48.80133" lon="1.37304">
        <ele>136.8</ele>
        <time>2023-08-17T14:22:10Z</time>
      </trkpt>
      <trkpt lat="48.80136" lon="1.37302">
        <ele>136.4</ele>
        <time>2023-08-17T14:22:11Z</time>
      </trkpt>
      <trkpt lat="48.80139" lon="1.37299">
        <ele>136.2</ele>
        <time>2023-08-17T14:22:12Z</time>
      </trkpt>
      <trkpt lat="48.80141" lon="1.37297">
        <ele>136</ele>
        <time>2023-08-17T14:22:13Z</time>
      </trkpt>
      <trkpt lat="48.80142" lon="1.37295">
        <ele>136</ele>
        <time>2023-08-17T14:22:14Z</time>
      </trkpt>
      <trkpt lat="48.80145" lon="1.37292">
        <ele>135.8</ele>
        <time>2023-08-17T14:22:15Z</time>
      </trkpt>
      <trkpt lat="48.80149" lon="1.37286">
        <ele>135.8</ele>
        <time>2023-08-17T14:22:17Z</time>
      </trkpt>
      <trkpt lat="48.80163" lon="1.37267">
        <ele>135.4</ele>
        <time>2023-08-17T14:22:22Z</time>
      </trkpt>
      <trkpt lat="48.80179" lon="1.3726">
        <ele>135.4</ele>
        <time>2023-08-17T14:22:26Z</time>
      </trkpt>
      <trkpt lat="48.80183" lon="1.37261">
        <ele>135.4</ele>
        <time>2023-08-17T14:22:27Z</time>
      </trkpt>
      <trkpt lat="48.80187" lon="1.37262">
        <ele>135.2</ele>
        <time>2023-08-17T14:22:28Z</time>
      </trkpt>
      <trkpt lat="48.8019" lon="1.37264">
        <ele>135</ele>
        <time>2023-08-17T14:22:29Z</time>
      </trkpt>
      <trkpt lat="48.80212" lon="1.37266">
        <ele>134.4</ele>
        <time>2023-08-17T14:22:33Z</time>
      </trkpt>
      <trkpt lat="48.80225" lon="1.37274">
        <ele>134</ele>
        <time>2023-08-17T14:22:35Z</time>
      </trkpt>
      <trkpt lat="48.80243" lon="1.37279">
        <ele>133.6</ele>
        <time>2023-08-17T14:22:37Z</time>
      </trkpt>
      <trkpt lat="48.80259" lon="1.37275">
        <ele>133.2</ele>
        <time>2023-08-17T14:22:39Z</time>
      </trkpt>
      <trkpt lat="48.80262" lon="1.37273">
        <ele>133.2</ele>
        <time>2023-08-17T14:22:40Z</time>
      </trkpt>
      <trkpt lat="48.80264" lon="1.37271">
        <ele>133</ele>
        <time>2023-08-17T14:22:41Z</time>
      </trkpt>
      <trkpt lat="48.80266" lon="1.37268">
        <ele>132.8</ele>
        <time>2023-08-17T14:22:42Z</time>
      </trkpt>
      <trkpt lat="48.80266" lon="1.37267">
        <ele>132.6</ele>
        <time>2023-08-17T14:22:43Z</time>
      </trkpt>
      <trkpt lat="48.80267" lon="1.37267">
        <ele>132.6</ele>
        <time>2023-08-17T14:22:44Z</time>
      </trkpt>
      <trkpt lat="48.80267" lon="1.37267">
        <ele>132.4</ele>
        <time>2023-08-17T14:22:45Z</time>
      </trkpt>
      <trkpt lat="48.80267" lon="1.37266">
        <ele>132.4</ele>
        <time>2023-08-17T14:22:46Z</time>
      </trkpt>
      <trkpt lat="48.80268" lon="1.37266">
        <ele>132.4</ele>
        <time>2023-08-17T14:22:47Z</time>
      </trkpt>
      <trkpt lat="48.80269" lon="1.37265">
        <ele>132.4</ele>
        <time>2023-08-17T14:22:48Z</time>
      </trkpt>
      <trkpt lat="48.80272" lon="1.3726">
        <ele>132.4</ele>
        <time>2023-08-17T14:22:50Z</time>
      </trkpt>
      <trkpt lat="48.80274" lon="1.37257">
        <ele>132.4</ele>
        <time>2023-08-17T14:22:51Z</time>
      </trkpt>
      <trkpt lat="48.80277" lon="1.37252">
        <ele>132.6</ele>
        <time>2023-08-17T14:22:54Z</time>
      </trkpt>
      <trkpt lat="48.80279" lon="1.37249">
        <ele>133</ele>
        <time>2023-08-17T14:22:55Z</time>
      </trkpt>
      <trkpt lat="48.8028" lon="1.37247">
        <ele>133.2</ele>
        <time>2023-08-17T14:22:56Z</time>
      </trkpt>
      <trkpt lat="48.80284" lon="1.3724">
        <ele>133.8</ele>
        <time>2023-08-17T14:22:58Z</time>
      </trkpt>
      <trkpt lat="48.80285" lon="1.37236">
        <ele>134.2</ele>
        <time>2023-08-17T14:22:59Z</time>
      </trkpt>
      <trkpt lat="48.80285" lon="1.37233">
        <ele>134.4</ele>
        <time>2023-08-17T14:23:00Z</time>
      </trkpt>
      <trkpt lat="48.80285" lon="1.37229">
        <ele>134.6</ele>
        <time>2023-08-17T14:23:01Z</time>
      </trkpt>
      <trkpt lat="48.80285" lon="1.37227">
        <ele>134.8</ele>
        <time>2023-08-17T14:23:02Z</time>
      </trkpt>
      <trkpt lat="48.80283" lon="1.37213">
        <ele>135</ele>
        <time>2023-08-17T14:23:05Z</time>
      </trkpt>
      <trkpt lat="48.80283" lon="1.37209">
        <ele>135</ele>
        <time>2023-08-17T14:23:06Z</time>
      </trkpt>
      <trkpt lat="48.80282" lon="1.37203">
        <ele>135</ele>
        <time>2023-08-17T14:23:07Z</time>
      </trkpt>
      <trkpt lat="48.80278" lon="1.37186">
        <ele>135</ele>
        <time>2023-08-17T14:23:10Z</time>
      </trkpt>
      <trkpt lat="48.80274" lon="1.37141">
        <ele>134.6</ele>
        <time>2023-08-17T14:23:15Z</time>
      </trkpt>
      <trkpt lat="48.80273" lon="1.37135">
        <ele>134.6</ele>
        <time>2023-08-17T14:23:16Z</time>
      </trkpt>
      <trkpt lat="48.80273" lon="1.3713">
        <ele>134.2</ele>
        <time>2023-08-17T14:23:17Z</time>
      </trkpt>
      <trkpt lat="48.80271" lon="1.37126">
        <ele>134.2</ele>
        <time>2023-08-17T14:23:18Z</time>
      </trkpt>
      <trkpt lat="48.8027" lon="1.37122">
        <ele>133.6</ele>
        <time>2023-08-17T14:23:19Z</time>
      </trkpt>
      <trkpt lat="48.80268" lon="1.37116">
        <ele>133.2</ele>
        <time>2023-08-17T14:23:20Z</time>
      </trkpt>
      <trkpt lat="48.80267" lon="1.37111">
        <ele>133.2</ele>
        <time>2023-08-17T14:23:21Z</time>
      </trkpt>
      <trkpt lat="48.80266" lon="1.37106">
        <ele>133</ele>
        <time>2023-08-17T14:23:22Z</time>
      </trkpt>
      <trkpt lat="48.80266" lon="1.37092">
        <ele>132.6</ele>
        <time>2023-08-17T14:23:24Z</time>
      </trkpt>
      <trkpt lat="48.80267" lon="1.37085">
        <ele>132.6</ele>
        <time>2023-08-17T14:23:25Z</time>
      </trkpt>
      <trkpt lat="48.80269" lon="1.37078">
        <ele>132.6</ele>
        <time>2023-08-17T14:23:26Z</time>
      </trkpt>
      <trkpt lat="48.80271" lon="1.37072">
        <ele>132.6</ele>
        <time>2023-08-17T14:23:27Z</time>
      </trkpt>
      <trkpt lat="48.80274" lon="1.37067">
        <ele>132.4</ele>
        <time>2023-08-17T14:23:28Z</time>
      </trkpt>
      <trkpt lat="48.80276" lon="1.37062">
        <ele>132.4</ele>
        <time>2023-08-17T14:23:29Z</time>
      </trkpt>
      <trkpt lat="48.80279" lon="1.37059">
        <ele>132.4</ele>
        <time>2023-08-17T14:23:30Z</time>
      </trkpt>
      <trkpt lat="48.80282" lon="1.37057">
        <ele>132.2</ele>
        <time>2023-08-17T14:23:31Z</time>
      </trkpt>
      <trkpt lat="48.80284" lon="1.37054">
        <ele>132</ele>
        <time>2023-08-17T14:23:32Z</time>
      </trkpt>
      <trkpt lat="48.80286" lon="1.37051">
        <ele>131.2</ele>
        <time>2023-08-17T14:23:33Z</time>
      </trkpt>
      <trkpt lat="48.80295" lon="1.37038">
        <ele>130</ele>
        <time>2023-08-17T14:23:36Z</time>
      </trkpt>
      <trkpt lat="48.80299" lon="1.37035">
        <ele>130</ele>
        <time>2023-08-17T14:23:37Z</time>
      </trkpt>
      <trkpt lat="48.80302" lon="1.37031">
        <ele>129.8</ele>
        <time>2023-08-17T14:23:38Z</time>
      </trkpt>
      <trkpt lat="48.80306" lon="1.37027">
        <ele>129.8</ele>
        <time>2023-08-17T14:23:39Z</time>
      </trkpt>
      <trkpt lat="48.80309" lon="1.37024">
        <ele>129.8</ele>
        <time>2023-08-17T14:23:40Z</time>
      </trkpt>
      <trkpt lat="48.80326" lon="1.37008">
        <ele>129</ele>
        <time>2023-08-17T14:23:45Z</time>
      </trkpt>
      <trkpt lat="48.80334" lon="1.37003">
        <ele>128.8</ele>
        <time>2023-08-17T14:23:47Z</time>
      </trkpt>
      <trkpt lat="48.80341" lon="1.36998">
        <ele>128.6</ele>
        <time>2023-08-17T14:23:49Z</time>
      </trkpt>
      <trkpt lat="48.80345" lon="1.36995">
        <ele>128.6</ele>
        <time>2023-08-17T14:23:50Z</time>
      </trkpt>
      <trkpt lat="48.80347" lon="1.36992">
        <ele>128.6</ele>
        <time>2023-08-17T14:23:51Z</time>
      </trkpt>
      <trkpt lat="48.80349" lon="1.36989">
        <ele>128.6</ele>
        <time>2023-08-17T14:23:52Z</time>
      </trkpt>
      <trkpt lat="48.80351" lon="1.36987">
        <ele>128.6</ele>
        <time>2023-08-17T14:23:53Z</time>
      </trkpt>
      <trkpt lat="48.80353" lon="1.36985">
        <ele>128.4</ele>
        <time>2023-08-17T14:23:54Z</time>
      </trkpt>
      <trkpt lat="48.80354" lon="1.36983">
        <ele>128.4</ele>
        <time>2023-08-17T14:23:55Z</time>
      </trkpt>
      <trkpt lat="48.80357" lon="1.3698">
        <ele>128.4</ele>
        <time>2023-08-17T14:23:56Z</time>
      </trkpt>
      <trkpt lat="48.80359" lon="1.36978">
        <ele>128.6</ele>
        <time>2023-08-17T14:23:57Z</time>
      </trkpt>
      <trkpt lat="48.80363" lon="1.36974">
        <ele>128.8</ele>
        <time>2023-08-17T14:23:59Z</time>
      </trkpt>
      <trkpt lat="48.80366" lon="1.36971">
        <ele>128.8</ele>
        <time>2023-08-17T14:24:00Z</time>
      </trkpt>
      <trkpt lat="48.80372" lon="1.36963">
        <ele>129.6</ele>
        <time>2023-08-17T14:24:03Z</time>
      </trkpt>
      <trkpt lat="48.80382" lon="1.36957">
        <ele>130</ele>
        <time>2023-08-17T14:24:06Z</time>
      </trkpt>
      <trkpt lat="48.80389" lon="1.36952">
        <ele>130.2</ele>
        <time>2023-08-17T14:24:08Z</time>
      </trkpt>
      <trkpt lat="48.80392" lon="1.36951">
        <ele>130.4</ele>
        <time>2023-08-17T14:24:09Z</time>
      </trkpt>
      <trkpt lat="48.80408" lon="1.36945">
        <ele>130.4</ele>
        <time>2023-08-17T14:24:14Z</time>
      </trkpt>
      <trkpt lat="48.80411" lon="1.36945">
        <ele>130.4</ele>
        <time>2023-08-17T14:24:15Z</time>
      </trkpt>
      <trkpt lat="48.80425" lon="1.36943">
        <ele>130.4</ele>
        <time>2023-08-17T14:24:19Z</time>
      </trkpt>
      <trkpt lat="48.80426" lon="1.36942">
        <ele>130.4</ele>
        <time>2023-08-17T14:24:20Z</time>
      </trkpt>
      <trkpt lat="48.80428" lon="1.3694">
        <ele>130.4</ele>
        <time>2023-08-17T14:24:21Z</time>
      </trkpt>
      <trkpt lat="48.8043" lon="1.36938">
        <ele>130.4</ele>
        <time>2023-08-17T14:24:22Z</time>
      </trkpt>
      <trkpt lat="48.80432" lon="1.36936">
        <ele>130.4</ele>
        <time>2023-08-17T14:24:23Z</time>
      </trkpt>
      <trkpt lat="48.80434" lon="1.36934">
        <ele>130.4</ele>
        <time>2023-08-17T14:24:24Z</time>
      </trkpt>
      <trkpt lat="48.80435" lon="1.36931">
        <ele>130.4</ele>
        <time>2023-08-17T14:24:25Z</time>
      </trkpt>
      <trkpt lat="48.80437" lon="1.36928">
        <ele>130.4</ele>
        <time>2023-08-17T14:24:26Z</time>
      </trkpt>
      <trkpt lat="48.80438" lon="1.36926">
        <ele>130.4</ele>
        <time>2023-08-17T14:24:27Z</time>
      </trkpt>
      <trkpt lat="48.80439" lon="1.36924">
        <ele>130.6</ele>
        <time>2023-08-17T14:24:28Z</time>
      </trkpt>
      <trkpt lat="48.80441" lon="1.36922">
        <ele>130.6</ele>
        <time>2023-08-17T14:24:29Z</time>
      </trkpt>
      <trkpt lat="48.80442" lon="1.3692">
        <ele>130.6</ele>
        <time>2023-08-17T14:24:30Z</time>
      </trkpt>
      <trkpt lat="48.80444" lon="1.36917">
        <ele>131</ele>
        <time>2023-08-17T14:24:31Z</time>
      </trkpt>
      <trkpt lat="48.80445" lon="1.36915">
        <ele>131.4</ele>
        <time>2023-08-17T14:24:32Z</time>
      </trkpt>
      <trkpt lat="48.80446" lon="1.36913">
        <ele>131.6</ele>
        <time>2023-08-17T14:24:33Z</time>
      </trkpt>
      <trkpt lat="48.80448" lon="1.36911">
        <ele>131.8</ele>
        <time>2023-08-17T14:24:34Z</time>
      </trkpt>
      <trkpt lat="48.80449" lon="1.36908">
        <ele>131.8</ele>
        <time>2023-08-17T14:24:35Z</time>
      </trkpt>
      <trkpt lat="48.8045" lon="1.36906">
        <ele>132</ele>
        <time>2023-08-17T14:24:36Z</time>
      </trkpt>
      <trkpt lat="48.80453" lon="1.36903">
        <ele>132.4</ele>
        <time>2023-08-17T14:24:38Z</time>
      </trkpt>
      <trkpt lat="48.80455" lon="1.36901">
        <ele>132.6</ele>
        <time>2023-08-17T14:24:39Z</time>
      </trkpt>
      <trkpt lat="48.80465" lon="1.36893">
        <ele>133.6</ele>
        <time>2023-08-17T14:24:44Z</time>
      </trkpt>
      <trkpt lat="48.80467" lon="1.36892">
        <ele>133.6</ele>
        <time>2023-08-17T14:24:45Z</time>
      </trkpt>
      <trkpt lat="48.8047" lon="1.36889">
        <ele>133.8</ele>
        <time>2023-08-17T14:24:46Z</time>
      </trkpt>
      <trkpt lat="48.80472" lon="1.36887">
        <ele>133.8</ele>
        <time>2023-08-17T14:24:47Z</time>
      </trkpt>
      <trkpt lat="48.80475" lon="1.36885">
        <ele>133.8</ele>
        <time>2023-08-17T14:24:48Z</time>
      </trkpt>
      <trkpt lat="48.80476" lon="1.36883">
        <ele>133.8</ele>
        <time>2023-08-17T14:24:49Z</time>
      </trkpt>
      <trkpt lat="48.80479" lon="1.36881">
        <ele>133.8</ele>
        <time>2023-08-17T14:24:50Z</time>
      </trkpt>
      <trkpt lat="48.80481" lon="1.36878">
        <ele>134</ele>
        <time>2023-08-17T14:24:51Z</time>
      </trkpt>
      <trkpt lat="48.80484" lon="1.36876">
        <ele>134</ele>
        <time>2023-08-17T14:24:52Z</time>
      </trkpt>
      <trkpt lat="48.80487" lon="1.36873">
        <ele>134</ele>
        <time>2023-08-17T14:24:53Z</time>
      </trkpt>
      <trkpt lat="48.80491" lon="1.3687">
        <ele>134</ele>
        <time>2023-08-17T14:24:54Z</time>
      </trkpt>
      <trkpt lat="48.80494" lon="1.36867">
        <ele>134</ele>
        <time>2023-08-17T14:24:55Z</time>
      </trkpt>
      <trkpt lat="48.80497" lon="1.36865">
        <ele>134</ele>
        <time>2023-08-17T14:24:56Z</time>
      </trkpt>
      <trkpt lat="48.80499" lon="1.36862">
        <ele>134</ele>
        <time>2023-08-17T14:24:57Z</time>
      </trkpt>
      <trkpt lat="48.80501" lon="1.3686">
        <ele>134</ele>
        <time>2023-08-17T14:24:58Z</time>
      </trkpt>
      <trkpt lat="48.80511" lon="1.36852">
        <ele>133.8</ele>
        <time>2023-08-17T14:25:01Z</time>
      </trkpt>
      <trkpt lat="48.80526" lon="1.36831">
        <ele>133.6</ele>
        <time>2023-08-17T14:25:06Z</time>
      </trkpt>
      <trkpt lat="48.80545" lon="1.36799">
        <ele>133.2</ele>
        <time>2023-08-17T14:25:11Z</time>
      </trkpt>
      <trkpt lat="48.80556" lon="1.36779">
        <ele>132.4</ele>
        <time>2023-08-17T14:25:14Z</time>
      </trkpt>
      <trkpt lat="48.8056" lon="1.36774">
        <ele>132.2</ele>
        <time>2023-08-17T14:25:15Z</time>
      </trkpt>
      <trkpt lat="48.80564" lon="1.36769">
        <ele>132</ele>
        <time>2023-08-17T14:25:16Z</time>
      </trkpt>
      <trkpt lat="48.80568" lon="1.36764">
        <ele>131.4</ele>
        <time>2023-08-17T14:25:17Z</time>
      </trkpt>
      <trkpt lat="48.80576" lon="1.36756">
        <ele>130.6</ele>
        <time>2023-08-17T14:25:19Z</time>
      </trkpt>
      <trkpt lat="48.80581" lon="1.36754">
        <ele>130.2</ele>
        <time>2023-08-17T14:25:20Z</time>
      </trkpt>
      <trkpt lat="48.80585" lon="1.36754">
        <ele>130</ele>
        <time>2023-08-17T14:25:21Z</time>
      </trkpt>
      <trkpt lat="48.8059" lon="1.36755">
        <ele>129.8</ele>
        <time>2023-08-17T14:25:22Z</time>
      </trkpt>
      <trkpt lat="48.80593" lon="1.36758">
        <ele>129.6</ele>
        <time>2023-08-17T14:25:23Z</time>
      </trkpt>
      <trkpt lat="48.80596" lon="1.36762">
        <ele>129.4</ele>
        <time>2023-08-17T14:25:24Z</time>
      </trkpt>
      <trkpt lat="48.80599" lon="1.36769">
        <ele>129.4</ele>
        <time>2023-08-17T14:25:25Z</time>
      </trkpt>
      <trkpt lat="48.80601" lon="1.36777">
        <ele>129.2</ele>
        <time>2023-08-17T14:25:26Z</time>
      </trkpt>
      <trkpt lat="48.80603" lon="1.36784">
        <ele>129.2</ele>
        <time>2023-08-17T14:25:27Z</time>
      </trkpt>
      <trkpt lat="48.80605" lon="1.36792">
        <ele>129.2</ele>
        <time>2023-08-17T14:25:28Z</time>
      </trkpt>
      <trkpt lat="48.80608" lon="1.36802">
        <ele>129.2</ele>
        <time>2023-08-17T14:25:29Z</time>
      </trkpt>
      <trkpt lat="48.80613" lon="1.36817">
        <ele>129.2</ele>
        <time>2023-08-17T14:25:31Z</time>
      </trkpt>
      <trkpt lat="48.80614" lon="1.36823">
        <ele>129</ele>
        <time>2023-08-17T14:25:32Z</time>
      </trkpt>
      <trkpt lat="48.80615" lon="1.36831">
        <ele>128.8</ele>
        <time>2023-08-17T14:25:33Z</time>
      </trkpt>
      <trkpt lat="48.80617" lon="1.36836">
        <ele>128.6</ele>
        <time>2023-08-17T14:25:34Z</time>
      </trkpt>
      <trkpt lat="48.80619" lon="1.36843">
        <ele>128.4</ele>
        <time>2023-08-17T14:25:35Z</time>
      </trkpt>
      <trkpt lat="48.8062" lon="1.36847">
        <ele>128.4</ele>
        <time>2023-08-17T14:25:36Z</time>
      </trkpt>
      <trkpt lat="48.80621" lon="1.36851">
        <ele>128.4</ele>
        <time>2023-08-17T14:25:37Z</time>
      </trkpt>
      <trkpt lat="48.80622" lon="1.36854">
        <ele>128.2</ele>
        <time>2023-08-17T14:25:38Z</time>
      </trkpt>
      <trkpt lat="48.80623" lon="1.36857">
        <ele>128.2</ele>
        <time>2023-08-17T14:25:39Z</time>
      </trkpt>
      <trkpt lat="48.80625" lon="1.3686">
        <ele>128.2</ele>
        <time>2023-08-17T14:25:40Z</time>
      </trkpt>
      <trkpt lat="48.80626" lon="1.36861">
        <ele>128.2</ele>
        <time>2023-08-17T14:25:41Z</time>
      </trkpt>
      <trkpt lat="48.80628" lon="1.36864">
        <ele>128.2</ele>
        <time>2023-08-17T14:25:42Z</time>
      </trkpt>
      <trkpt lat="48.80638" lon="1.3688">
        <ele>129</ele>
        <time>2023-08-17T14:25:48Z</time>
      </trkpt>
      <trkpt lat="48.80641" lon="1.36886">
        <ele>129.4</ele>
        <time>2023-08-17T14:25:51Z</time>
      </trkpt>
      <trkpt lat="48.8065" lon="1.36896">
        <ele>129.6</ele>
        <time>2023-08-17T14:25:55Z</time>
      </trkpt>
      <trkpt lat="48.80663" lon="1.36913">
        <ele>129.6</ele>
        <time>2023-08-17T14:25:59Z</time>
      </trkpt>
      <trkpt lat="48.80666" lon="1.36919">
        <ele>129.6</ele>
        <time>2023-08-17T14:26:00Z</time>
      </trkpt>
      <trkpt lat="48.80684" lon="1.36939">
        <ele>129.4</ele>
        <time>2023-08-17T14:26:03Z</time>
      </trkpt>
      <trkpt lat="48.80713" lon="1.36974">
        <ele>128.2</ele>
        <time>2023-08-17T14:26:07Z</time>
      </trkpt>
      <trkpt lat="48.80721" lon="1.36983">
        <ele>126.4</ele>
        <time>2023-08-17T14:26:08Z</time>
      </trkpt>
      <trkpt lat="48.80729" lon="1.36993">
        <ele>125.2</ele>
        <time>2023-08-17T14:26:09Z</time>
      </trkpt>
      <trkpt lat="48.80737" lon="1.37002">
        <ele>123.4</ele>
        <time>2023-08-17T14:26:10Z</time>
      </trkpt>
      <trkpt lat="48.80744" lon="1.37011">
        <ele>122</ele>
        <time>2023-08-17T14:26:11Z</time>
      </trkpt>
      <trkpt lat="48.80748" lon="1.37017">
        <ele>120.8</ele>
        <time>2023-08-17T14:26:12Z</time>
      </trkpt>
      <trkpt lat="48.80753" lon="1.37023">
        <ele>119.2</ele>
        <time>2023-08-17T14:26:13Z</time>
      </trkpt>
      <trkpt lat="48.80757" lon="1.37029">
        <ele>118.6</ele>
        <time>2023-08-17T14:26:14Z</time>
      </trkpt>
      <trkpt lat="48.80762" lon="1.37035">
        <ele>118.2</ele>
        <time>2023-08-17T14:26:15Z</time>
      </trkpt>
      <trkpt lat="48.80766" lon="1.3704">
        <ele>118</ele>
        <time>2023-08-17T14:26:16Z</time>
      </trkpt>
      <trkpt lat="48.80769" lon="1.37043">
        <ele>117.6</ele>
        <time>2023-08-17T14:26:17Z</time>
      </trkpt>
      <trkpt lat="48.80772" lon="1.37042">
        <ele>117.4</ele>
        <time>2023-08-17T14:26:18Z</time>
      </trkpt>
      <trkpt lat="48.80775" lon="1.37037">
        <ele>117</ele>
        <time>2023-08-17T14:26:19Z</time>
      </trkpt>
      <trkpt lat="48.80777" lon="1.37028">
        <ele>117</ele>
        <time>2023-08-17T14:26:20Z</time>
      </trkpt>
      <trkpt lat="48.80784" lon="1.37011">
        <ele>116.2</ele>
        <time>2023-08-17T14:26:22Z</time>
      </trkpt>
      <trkpt lat="48.80789" lon="1.37">
        <ele>115.8</ele>
        <time>2023-08-17T14:26:23Z</time>
      </trkpt>
      <trkpt lat="48.80797" lon="1.36983">
        <ele>115.4</ele>
        <time>2023-08-17T14:26:25Z</time>
      </trkpt>
      <trkpt lat="48.80799" lon="1.36979">
        <ele>115.2</ele>
        <time>2023-08-17T14:26:26Z</time>
      </trkpt>
      <trkpt lat="48.80802" lon="1.36975">
        <ele>115.2</ele>
        <time>2023-08-17T14:26:27Z</time>
      </trkpt>
      <trkpt lat="48.80805" lon="1.36973">
        <ele>115.2</ele>
        <time>2023-08-17T14:26:28Z</time>
      </trkpt>
      <trkpt lat="48.80806" lon="1.36973">
        <ele>115.4</ele>
        <time>2023-08-17T14:26:29Z</time>
      </trkpt>
      <trkpt lat="48.80808" lon="1.36972">
        <ele>115.4</ele>
        <time>2023-08-17T14:26:30Z</time>
      </trkpt>
      <trkpt lat="48.8081" lon="1.36971">
        <ele>115.6</ele>
        <time>2023-08-17T14:26:31Z</time>
      </trkpt>
      <trkpt lat="48.8081" lon="1.36972">
        <ele>116</ele>
        <time>2023-08-17T14:26:32Z</time>
      </trkpt>
      <trkpt lat="48.80812" lon="1.36972">
        <ele>116.2</ele>
        <time>2023-08-17T14:26:33Z</time>
      </trkpt>
      <trkpt lat="48.80813" lon="1.36972">
        <ele>116.2</ele>
        <time>2023-08-17T14:26:34Z</time>
      </trkpt>
      <trkpt lat="48.80814" lon="1.36973">
        <ele>116.4</ele>
        <time>2023-08-17T14:26:35Z</time>
      </trkpt>
      <trkpt lat="48.80815" lon="1.36974">
        <ele>116.4</ele>
        <time>2023-08-17T14:26:36Z</time>
      </trkpt>
      <trkpt lat="48.80818" lon="1.36976">
        <ele>116.8</ele>
        <time>2023-08-17T14:26:39Z</time>
      </trkpt>
      <trkpt lat="48.8082" lon="1.36976">
        <ele>117</ele>
        <time>2023-08-17T14:26:40Z</time>
      </trkpt>
      <trkpt lat="48.80825" lon="1.36979">
        <ele>118</ele>
        <time>2023-08-17T14:26:43Z</time>
      </trkpt>
      <trkpt lat="48.80826" lon="1.36979">
        <ele>118.4</ele>
        <time>2023-08-17T14:26:44Z</time>
      </trkpt>
      <trkpt lat="48.8083" lon="1.3698">
        <ele>119.4</ele>
        <time>2023-08-17T14:26:47Z</time>
      </trkpt>
      <trkpt lat="48.80835" lon="1.36978">
        <ele>119.8</ele>
        <time>2023-08-17T14:26:49Z</time>
      </trkpt>
      <trkpt lat="48.80836" lon="1.36979">
        <ele>120.2</ele>
        <time>2023-08-17T14:26:50Z</time>
      </trkpt>
      <trkpt lat="48.80838" lon="1.36979">
        <ele>120.4</ele>
        <time>2023-08-17T14:26:51Z</time>
      </trkpt>
      <trkpt lat="48.8084" lon="1.36978">
        <ele>120.8</ele>
        <time>2023-08-17T14:26:52Z</time>
      </trkpt>
      <trkpt lat="48.80841" lon="1.36977">
        <ele>120.8</ele>
        <time>2023-08-17T14:26:53Z</time>
      </trkpt>
      <trkpt lat="48.80841" lon="1.36975">
        <ele>121.2</ele>
        <time>2023-08-17T14:26:54Z</time>
      </trkpt>
      <trkpt lat="48.80842" lon="1.36972">
        <ele>121.2</ele>
        <time>2023-08-17T14:26:55Z</time>
      </trkpt>
      <trkpt lat="48.80842" lon="1.36969">
        <ele>121.4</ele>
        <time>2023-08-17T14:26:56Z</time>
      </trkpt>
      <trkpt lat="48.80843" lon="1.36966">
        <ele>121.6</ele>
        <time>2023-08-17T14:26:57Z</time>
      </trkpt>
      <trkpt lat="48.80843" lon="1.36964">
        <ele>121.8</ele>
        <time>2023-08-17T14:26:58Z</time>
      </trkpt>
      <trkpt lat="48.80844" lon="1.36961">
        <ele>122</ele>
        <time>2023-08-17T14:26:59Z</time>
      </trkpt>
      <trkpt lat="48.80844" lon="1.36958">
        <ele>122.2</ele>
        <time>2023-08-17T14:27:00Z</time>
      </trkpt>
      <trkpt lat="48.80846" lon="1.36954">
        <ele>122.4</ele>
        <time>2023-08-17T14:27:01Z</time>
      </trkpt>
      <trkpt lat="48.80847" lon="1.36952">
        <ele>122.6</ele>
        <time>2023-08-17T14:27:02Z</time>
      </trkpt>
      <trkpt lat="48.80847" lon="1.36949">
        <ele>122.8</ele>
        <time>2023-08-17T14:27:03Z</time>
      </trkpt>
      <trkpt lat="48.80848" lon="1.36947">
        <ele>122.8</ele>
        <time>2023-08-17T14:27:04Z</time>
      </trkpt>
      <trkpt lat="48.80849" lon="1.36945">
        <ele>123</ele>
        <time>2023-08-17T14:27:05Z</time>
      </trkpt>
      <trkpt lat="48.8085" lon="1.36942">
        <ele>123</ele>
        <time>2023-08-17T14:27:06Z</time>
      </trkpt>
      <trkpt lat="48.80849" lon="1.36937">
        <ele>123</ele>
        <time>2023-08-17T14:27:07Z</time>
      </trkpt>
      <trkpt lat="48.8085" lon="1.36935">
        <ele>123.4</ele>
        <time>2023-08-17T14:27:08Z</time>
      </trkpt>
      <trkpt lat="48.8085" lon="1.36932">
        <ele>123.4</ele>
        <time>2023-08-17T14:27:09Z</time>
      </trkpt>
      <trkpt lat="48.80851" lon="1.36929">
        <ele>123.6</ele>
        <time>2023-08-17T14:27:10Z</time>
      </trkpt>
      <trkpt lat="48.80852" lon="1.36926">
        <ele>123.6</ele>
        <time>2023-08-17T14:27:11Z</time>
      </trkpt>
      <trkpt lat="48.80853" lon="1.36924">
        <ele>124</ele>
        <time>2023-08-17T14:27:12Z</time>
      </trkpt>
      <trkpt lat="48.80854" lon="1.36921">
        <ele>124.2</ele>
        <time>2023-08-17T14:27:13Z</time>
      </trkpt>
      <trkpt lat="48.80855" lon="1.36919">
        <ele>124.4</ele>
        <time>2023-08-17T14:27:14Z</time>
      </trkpt>
      <trkpt lat="48.80855" lon="1.36916">
        <ele>124.4</ele>
        <time>2023-08-17T14:27:15Z</time>
      </trkpt>
      <trkpt lat="48.80856" lon="1.36914">
        <ele>124.6</ele>
        <time>2023-08-17T14:27:16Z</time>
      </trkpt>
      <trkpt lat="48.80856" lon="1.36912">
        <ele>124.8</ele>
        <time>2023-08-17T14:27:17Z</time>
      </trkpt>
      <trkpt lat="48.80857" lon="1.36909">
        <ele>125.2</ele>
        <time>2023-08-17T14:27:18Z</time>
      </trkpt>
      <trkpt lat="48.80857" lon="1.36907">
        <ele>125.2</ele>
        <time>2023-08-17T14:27:19Z</time>
      </trkpt>
      <trkpt lat="48.80857" lon="1.36905">
        <ele>125.6</ele>
        <time>2023-08-17T14:27:20Z</time>
      </trkpt>
      <trkpt lat="48.80858" lon="1.36903">
        <ele>125.8</ele>
        <time>2023-08-17T14:27:21Z</time>
      </trkpt>
      <trkpt lat="48.80859" lon="1.36901">
        <ele>126</ele>
        <time>2023-08-17T14:27:22Z</time>
      </trkpt>
      <trkpt lat="48.8086" lon="1.36899">
        <ele>126.2</ele>
        <time>2023-08-17T14:27:23Z</time>
      </trkpt>
      <trkpt lat="48.8086" lon="1.36897">
        <ele>126.6</ele>
        <time>2023-08-17T14:27:24Z</time>
      </trkpt>
      <trkpt lat="48.80861" lon="1.36895">
        <ele>126.8</ele>
        <time>2023-08-17T14:27:25Z</time>
      </trkpt>
      <trkpt lat="48.80862" lon="1.36892">
        <ele>126.8</ele>
        <time>2023-08-17T14:27:26Z</time>
      </trkpt>
      <trkpt lat="48.80863" lon="1.3689">
        <ele>127</ele>
        <time>2023-08-17T14:27:27Z</time>
      </trkpt>
      <trkpt lat="48.80864" lon="1.36888">
        <ele>127.2</ele>
        <time>2023-08-17T14:27:28Z</time>
      </trkpt>
      <trkpt lat="48.80864" lon="1.36885">
        <ele>127.4</ele>
        <time>2023-08-17T14:27:29Z</time>
      </trkpt>
      <trkpt lat="48.80866" lon="1.36883">
        <ele>127.6</ele>
        <time>2023-08-17T14:27:30Z</time>
      </trkpt>
      <trkpt lat="48.80867" lon="1.36881">
        <ele>127.8</ele>
        <time>2023-08-17T14:27:31Z</time>
      </trkpt>
      <trkpt lat="48.80868" lon="1.36879">
        <ele>128</ele>
        <time>2023-08-17T14:27:32Z</time>
      </trkpt>
      <trkpt lat="48.80869" lon="1.36877">
        <ele>128.2</ele>
        <time>2023-08-17T14:27:33Z</time>
      </trkpt>
      <trkpt lat="48.8087" lon="1.36875">
        <ele>128.4</ele>
        <time>2023-08-17T14:27:34Z</time>
      </trkpt>
      <trkpt lat="48.80871" lon="1.36872">
        <ele>128.8</ele>
        <time>2023-08-17T14:27:35Z</time>
      </trkpt>
      <trkpt lat="48.80872" lon="1.3687">
        <ele>128.8</ele>
        <time>2023-08-17T14:27:36Z</time>
      </trkpt>
      <trkpt lat="48.80873" lon="1.36867">
        <ele>129</ele>
        <time>2023-08-17T14:27:37Z</time>
      </trkpt>
      <trkpt lat="48.80874" lon="1.36866">
        <ele>129.2</ele>
        <time>2023-08-17T14:27:38Z</time>
      </trkpt>
      <trkpt lat="48.80875" lon="1.36864">
        <ele>129.4</ele>
        <time>2023-08-17T14:27:39Z</time>
      </trkpt>
      <trkpt lat="48.80875" lon="1.36861">
        <ele>129.6</ele>
        <time>2023-08-17T14:27:40Z</time>
      </trkpt>
      <trkpt lat="48.80875" lon="1.3686">
        <ele>129.8</ele>
        <time>2023-08-17T14:27:41Z</time>
      </trkpt>
      <trkpt lat="48.80876" lon="1.36859">
        <ele>130</ele>
        <time>2023-08-17T14:27:42Z</time>
      </trkpt>
      <trkpt lat="48.80877" lon="1.36857">
        <ele>130.2</ele>
        <time>2023-08-17T14:27:43Z</time>
      </trkpt>
      <trkpt lat="48.80879" lon="1.36853">
        <ele>130.2</ele>
        <time>2023-08-17T14:27:44Z</time>
      </trkpt>
      <trkpt lat="48.8088" lon="1.3685">
        <ele>130.4</ele>
        <time>2023-08-17T14:27:45Z</time>
      </trkpt>
      <trkpt lat="48.80882" lon="1.36848">
        <ele>130.6</ele>
        <time>2023-08-17T14:27:46Z</time>
      </trkpt>
      <trkpt lat="48.80884" lon="1.36846">
        <ele>130.8</ele>
        <time>2023-08-17T14:27:47Z</time>
      </trkpt>
      <trkpt lat="48.80885" lon="1.36843">
        <ele>130.8</ele>
        <time>2023-08-17T14:27:48Z</time>
      </trkpt>
      <trkpt lat="48.80886" lon="1.36841">
        <ele>131</ele>
        <time>2023-08-17T14:27:49Z</time>
      </trkpt>
      <trkpt lat="48.80888" lon="1.36837">
        <ele>131.2</ele>
        <time>2023-08-17T14:27:50Z</time>
      </trkpt>
      <trkpt lat="48.80887" lon="1.36834">
        <ele>131.2</ele>
        <time>2023-08-17T14:27:51Z</time>
      </trkpt>
      <trkpt lat="48.80889" lon="1.36831">
        <ele>131.4</ele>
        <time>2023-08-17T14:27:52Z</time>
      </trkpt>
      <trkpt lat="48.8089" lon="1.3683">
        <ele>131.4</ele>
        <time>2023-08-17T14:27:53Z</time>
      </trkpt>
      <trkpt lat="48.80893" lon="1.36827">
        <ele>131.6</ele>
        <time>2023-08-17T14:27:54Z</time>
      </trkpt>
      <trkpt lat="48.80895" lon="1.36827">
        <ele>131.6</ele>
        <time>2023-08-17T14:27:55Z</time>
      </trkpt>
      <trkpt lat="48.80897" lon="1.36825">
        <ele>131.4</ele>
        <time>2023-08-17T14:27:56Z</time>
      </trkpt>
      <trkpt lat="48.80899" lon="1.36823">
        <ele>131.8</ele>
        <time>2023-08-17T14:27:57Z</time>
      </trkpt>
      <trkpt lat="48.809" lon="1.36821">
        <ele>131.6</ele>
        <time>2023-08-17T14:27:58Z</time>
      </trkpt>
      <trkpt lat="48.80901" lon="1.3682">
        <ele>131.6</ele>
        <time>2023-08-17T14:27:59Z</time>
      </trkpt>
      <trkpt lat="48.809" lon="1.36817">
        <ele>131.6</ele>
        <time>2023-08-17T14:28:00Z</time>
      </trkpt>
      <trkpt lat="48.80901" lon="1.36816">
        <ele>131.6</ele>
        <time>2023-08-17T14:28:01Z</time>
      </trkpt>
      <trkpt lat="48.809" lon="1.36814">
        <ele>131.8</ele>
        <time>2023-08-17T14:28:02Z</time>
      </trkpt>
      <trkpt lat="48.809" lon="1.36811">
        <ele>132</ele>
        <time>2023-08-17T14:28:03Z</time>
      </trkpt>
      <trkpt lat="48.809" lon="1.36809">
        <ele>132</ele>
        <time>2023-08-17T14:28:04Z</time>
      </trkpt>
      <trkpt lat="48.80899" lon="1.36807">
        <ele>132.2</ele>
        <time>2023-08-17T14:28:05Z</time>
      </trkpt>
      <trkpt lat="48.80898" lon="1.36806">
        <ele>132.2</ele>
        <time>2023-08-17T14:28:06Z</time>
      </trkpt>
      <trkpt lat="48.80898" lon="1.36804">
        <ele>132.2</ele>
        <time>2023-08-17T14:28:07Z</time>
      </trkpt>
      <trkpt lat="48.80897" lon="1.36802">
        <ele>132.4</ele>
        <time>2023-08-17T14:28:08Z</time>
      </trkpt>
      <trkpt lat="48.80897" lon="1.36799">
        <ele>132.4</ele>
        <time>2023-08-17T14:28:09Z</time>
      </trkpt>
      <trkpt lat="48.80897" lon="1.36798">
        <ele>132.4</ele>
        <time>2023-08-17T14:28:10Z</time>
      </trkpt>
      <trkpt lat="48.80897" lon="1.36796">
        <ele>132.4</ele>
        <time>2023-08-17T14:28:11Z</time>
      </trkpt>
      <trkpt lat="48.80896" lon="1.36794">
        <ele>132.8</ele>
        <time>2023-08-17T14:28:12Z</time>
      </trkpt>
      <trkpt lat="48.80896" lon="1.36792">
        <ele>132.8</ele>
        <time>2023-08-17T14:28:13Z</time>
      </trkpt>
      <trkpt lat="48.80897" lon="1.36789">
        <ele>133</ele>
        <time>2023-08-17T14:28:14Z</time>
      </trkpt>
      <trkpt lat="48.80897" lon="1.36786">
        <ele>133.2</ele>
        <time>2023-08-17T14:28:15Z</time>
      </trkpt>
      <trkpt lat="48.80898" lon="1.36784">
        <ele>133.2</ele>
        <time>2023-08-17T14:28:16Z</time>
      </trkpt>
      <trkpt lat="48.80898" lon="1.36782">
        <ele>133.4</ele>
        <time>2023-08-17T14:28:17Z</time>
      </trkpt>
      <trkpt lat="48.80898" lon="1.36776">
        <ele>133.8</ele>
        <time>2023-08-17T14:28:19Z</time>
      </trkpt>
      <trkpt lat="48.80898" lon="1.36773">
        <ele>134.2</ele>
        <time>2023-08-17T14:28:20Z</time>
      </trkpt>
      <trkpt lat="48.80898" lon="1.3677">
        <ele>134.4</ele>
        <time>2023-08-17T14:28:21Z</time>
      </trkpt>
      <trkpt lat="48.80899" lon="1.36767">
        <ele>134.4</ele>
        <time>2023-08-17T14:28:22Z</time>
      </trkpt>
      <trkpt lat="48.80899" lon="1.36765">
        <ele>134.6</ele>
        <time>2023-08-17T14:28:23Z</time>
      </trkpt>
      <trkpt lat="48.809" lon="1.36762">
        <ele>134.8</ele>
        <time>2023-08-17T14:28:24Z</time>
      </trkpt>
      <trkpt lat="48.80901" lon="1.36759">
        <ele>134.8</ele>
        <time>2023-08-17T14:28:25Z</time>
      </trkpt>
      <trkpt lat="48.80901" lon="1.36757">
        <ele>135</ele>
        <time>2023-08-17T14:28:26Z</time>
      </trkpt>
      <trkpt lat="48.80903" lon="1.36755">
        <ele>135.2</ele>
        <time>2023-08-17T14:28:27Z</time>
      </trkpt>
      <trkpt lat="48.80903" lon="1.36752">
        <ele>135.2</ele>
        <time>2023-08-17T14:28:28Z</time>
      </trkpt>
      <trkpt lat="48.80905" lon="1.3675">
        <ele>135.4</ele>
        <time>2023-08-17T14:28:29Z</time>
      </trkpt>
      <trkpt lat="48.80906" lon="1.36747">
        <ele>135.6</ele>
        <time>2023-08-17T14:28:30Z</time>
      </trkpt>
      <trkpt lat="48.80908" lon="1.36745">
        <ele>135.6</ele>
        <time>2023-08-17T14:28:31Z</time>
      </trkpt>
      <trkpt lat="48.80909" lon="1.36742">
        <ele>135.6</ele>
        <time>2023-08-17T14:28:32Z</time>
      </trkpt>
      <trkpt lat="48.8091" lon="1.36739">
        <ele>135.6</ele>
        <time>2023-08-17T14:28:33Z</time>
      </trkpt>
      <trkpt lat="48.80911" lon="1.36737">
        <ele>135.6</ele>
        <time>2023-08-17T14:28:34Z</time>
      </trkpt>
      <trkpt lat="48.80912" lon="1.36733">
        <ele>135.8</ele>
        <time>2023-08-17T14:28:35Z</time>
      </trkpt>
      <trkpt lat="48.80914" lon="1.36731">
        <ele>135.8</ele>
        <time>2023-08-17T14:28:36Z</time>
      </trkpt>
      <trkpt lat="48.80915" lon="1.36728">
        <ele>135.8</ele>
        <time>2023-08-17T14:28:37Z</time>
      </trkpt>
      <trkpt lat="48.80916" lon="1.36724">
        <ele>136</ele>
        <time>2023-08-17T14:28:38Z</time>
      </trkpt>
      <trkpt lat="48.80917" lon="1.36721">
        <ele>136.2</ele>
        <time>2023-08-17T14:28:39Z</time>
      </trkpt>
      <trkpt lat="48.80918" lon="1.36718">
        <ele>136</ele>
        <time>2023-08-17T14:28:40Z</time>
      </trkpt>
      <trkpt lat="48.80919" lon="1.36714">
        <ele>136.2</ele>
        <time>2023-08-17T14:28:41Z</time>
      </trkpt>
      <trkpt lat="48.8092" lon="1.3671">
        <ele>136.2</ele>
        <time>2023-08-17T14:28:42Z</time>
      </trkpt>
      <trkpt lat="48.80921" lon="1.36708">
        <ele>136.4</ele>
        <time>2023-08-17T14:28:43Z</time>
      </trkpt>
      <trkpt lat="48.80923" lon="1.36705">
        <ele>136.4</ele>
        <time>2023-08-17T14:28:44Z</time>
      </trkpt>
      <trkpt lat="48.80925" lon="1.36702">
        <ele>136.4</ele>
        <time>2023-08-17T14:28:45Z</time>
      </trkpt>
      <trkpt lat="48.80929" lon="1.36694">
        <ele>136.6</ele>
        <time>2023-08-17T14:28:47Z</time>
      </trkpt>
      <trkpt lat="48.80932" lon="1.36688">
        <ele>136.6</ele>
        <time>2023-08-17T14:28:49Z</time>
      </trkpt>
      <trkpt lat="48.80935" lon="1.36681">
        <ele>136.8</ele>
        <time>2023-08-17T14:28:51Z</time>
      </trkpt>
      <trkpt lat="48.8094" lon="1.3667">
        <ele>136.8</ele>
        <time>2023-08-17T14:28:54Z</time>
      </trkpt>
      <trkpt lat="48.80942" lon="1.36661">
        <ele>137</ele>
        <time>2023-08-17T14:28:57Z</time>
      </trkpt>
      <trkpt lat="48.80944" lon="1.36657">
        <ele>137</ele>
        <time>2023-08-17T14:28:58Z</time>
      </trkpt>
      <trkpt lat="48.80947" lon="1.3665">
        <ele>137</ele>
        <time>2023-08-17T14:29:00Z</time>
      </trkpt>
      <trkpt lat="48.80954" lon="1.36642">
        <ele>137</ele>
        <time>2023-08-17T14:29:04Z</time>
      </trkpt>
      <trkpt lat="48.80956" lon="1.3664">
        <ele>137</ele>
        <time>2023-08-17T14:29:05Z</time>
      </trkpt>
      <trkpt lat="48.80957" lon="1.36639">
        <ele>137</ele>
        <time>2023-08-17T14:29:06Z</time>
      </trkpt>
      <trkpt lat="48.80959" lon="1.36637">
        <ele>137</ele>
        <time>2023-08-17T14:29:07Z</time>
      </trkpt>
      <trkpt lat="48.80963" lon="1.36629">
        <ele>137.2</ele>
        <time>2023-08-17T14:29:10Z</time>
      </trkpt>
      <trkpt lat="48.80964" lon="1.36627">
        <ele>137.2</ele>
        <time>2023-08-17T14:29:11Z</time>
      </trkpt>
      <trkpt lat="48.80967" lon="1.36622">
        <ele>137.4</ele>
        <time>2023-08-17T14:29:13Z</time>
      </trkpt>
      <trkpt lat="48.8097" lon="1.36619">
        <ele>137.8</ele>
        <time>2023-08-17T14:29:15Z</time>
      </trkpt>
      <trkpt lat="48.80973" lon="1.36618">
        <ele>137.8</ele>
        <time>2023-08-17T14:29:16Z</time>
      </trkpt>
      <trkpt lat="48.80975" lon="1.36618">
        <ele>137.8</ele>
        <time>2023-08-17T14:29:17Z</time>
      </trkpt>
      <trkpt lat="48.80977" lon="1.36616">
        <ele>138</ele>
        <time>2023-08-17T14:29:18Z</time>
      </trkpt>
      <trkpt lat="48.80979" lon="1.36615">
        <ele>138</ele>
        <time>2023-08-17T14:29:19Z</time>
      </trkpt>
      <trkpt lat="48.80981" lon="1.36613">
        <ele>138</ele>
        <time>2023-08-17T14:29:20Z</time>
      </trkpt>
      <trkpt lat="48.80982" lon="1.36611">
        <ele>138</ele>
        <time>2023-08-17T14:29:21Z</time>
      </trkpt>
      <trkpt lat="48.80985" lon="1.36607">
        <ele>138.2</ele>
        <time>2023-08-17T14:29:23Z</time>
      </trkpt>
      <trkpt lat="48.80987" lon="1.36606">
        <ele>138.2</ele>
        <time>2023-08-17T14:29:24Z</time>
      </trkpt>
      <trkpt lat="48.80988" lon="1.36604">
        <ele>138.4</ele>
        <time>2023-08-17T14:29:25Z</time>
      </trkpt>
      <trkpt lat="48.80989" lon="1.36601">
        <ele>138.4</ele>
        <time>2023-08-17T14:29:26Z</time>
      </trkpt>
      <trkpt lat="48.8099" lon="1.36597">
        <ele>138.4</ele>
        <time>2023-08-17T14:29:27Z</time>
      </trkpt>
      <trkpt lat="48.80995" lon="1.3659">
        <ele>138.8</ele>
        <time>2023-08-17T14:29:30Z</time>
      </trkpt>
      <trkpt lat="48.80996" lon="1.36587">
        <ele>139</ele>
        <time>2023-08-17T14:29:31Z</time>
      </trkpt>
      <trkpt lat="48.80997" lon="1.36585">
        <ele>139.2</ele>
        <time>2023-08-17T14:29:32Z</time>
      </trkpt>
      <trkpt lat="48.80998" lon="1.36582">
        <ele>139.2</ele>
        <time>2023-08-17T14:29:33Z</time>
      </trkpt>
      <trkpt lat="48.81001" lon="1.36564">
        <ele>139.8</ele>
        <time>2023-08-17T14:29:39Z</time>
      </trkpt>
      <trkpt lat="48.81002" lon="1.3656">
        <ele>140</ele>
        <time>2023-08-17T14:29:40Z</time>
      </trkpt>
      <trkpt lat="48.81" lon="1.36545">
        <ele>140.4</ele>
        <time>2023-08-17T14:29:45Z</time>
      </trkpt>
      <trkpt lat="48.80997" lon="1.36537">
        <ele>140.6</ele>
        <time>2023-08-17T14:29:47Z</time>
      </trkpt>
      <trkpt lat="48.80995" lon="1.36534">
        <ele>140.6</ele>
        <time>2023-08-17T14:29:48Z</time>
      </trkpt>
      <trkpt lat="48.80988" lon="1.36519">
        <ele>141</ele>
        <time>2023-08-17T14:29:52Z</time>
      </trkpt>
      <trkpt lat="48.80987" lon="1.36515">
        <ele>141</ele>
        <time>2023-08-17T14:29:53Z</time>
      </trkpt>
      <trkpt lat="48.80988" lon="1.3651">
        <ele>141</ele>
        <time>2023-08-17T14:29:54Z</time>
      </trkpt>
      <trkpt lat="48.80989" lon="1.36506">
        <ele>141</ele>
        <time>2023-08-17T14:29:55Z</time>
      </trkpt>
      <trkpt lat="48.8099" lon="1.36501">
        <ele>141</ele>
        <time>2023-08-17T14:29:56Z</time>
      </trkpt>
      <trkpt lat="48.8099" lon="1.36496">
        <ele>141</ele>
        <time>2023-08-17T14:29:57Z</time>
      </trkpt>
      <trkpt lat="48.80991" lon="1.36494">
        <ele>141</ele>
        <time>2023-08-17T14:29:58Z</time>
      </trkpt>
      <trkpt lat="48.80993" lon="1.36492">
        <ele>141</ele>
        <time>2023-08-17T14:29:59Z</time>
      </trkpt>
      <trkpt lat="48.80995" lon="1.36491">
        <ele>141</ele>
        <time>2023-08-17T14:30:00Z</time>
      </trkpt>
      <trkpt lat="48.80997" lon="1.3649">
        <ele>140.8</ele>
        <time>2023-08-17T14:30:01Z</time>
      </trkpt>
      <trkpt lat="48.81004" lon="1.36485">
        <ele>140.8</ele>
        <time>2023-08-17T14:30:05Z</time>
      </trkpt>
      <trkpt lat="48.81005" lon="1.36482">
        <ele>140.8</ele>
        <time>2023-08-17T14:30:06Z</time>
      </trkpt>
      <trkpt lat="48.81008" lon="1.36481">
        <ele>140.8</ele>
        <time>2023-08-17T14:30:07Z</time>
      </trkpt>
      <trkpt lat="48.8101" lon="1.36479">
        <ele>140.8</ele>
        <time>2023-08-17T14:30:08Z</time>
      </trkpt>
      <trkpt lat="48.81012" lon="1.36477">
        <ele>140.8</ele>
        <time>2023-08-17T14:30:09Z</time>
      </trkpt>
      <trkpt lat="48.81019" lon="1.36472">
        <ele>140.8</ele>
        <time>2023-08-17T14:30:12Z</time>
      </trkpt>
      <trkpt lat="48.81034" lon="1.36462">
        <ele>140.8</ele>
        <time>2023-08-17T14:30:18Z</time>
      </trkpt>
      <trkpt lat="48.8105" lon="1.36452">
        <ele>141</ele>
        <time>2023-08-17T14:30:24Z</time>
      </trkpt>
      <trkpt lat="48.81053" lon="1.36451">
        <ele>141</ele>
        <time>2023-08-17T14:30:25Z</time>
      </trkpt>
      <trkpt lat="48.81055" lon="1.3645">
        <ele>141</ele>
        <time>2023-08-17T14:30:26Z</time>
      </trkpt>
      <trkpt lat="48.81058" lon="1.36449">
        <ele>141</ele>
        <time>2023-08-17T14:30:27Z</time>
      </trkpt>
      <trkpt lat="48.81061" lon="1.36448">
        <ele>141.2</ele>
        <time>2023-08-17T14:30:28Z</time>
      </trkpt>
      <trkpt lat="48.81071" lon="1.36442">
        <ele>141.4</ele>
        <time>2023-08-17T14:30:32Z</time>
      </trkpt>
      <trkpt lat="48.81074" lon="1.36441">
        <ele>141.6</ele>
        <time>2023-08-17T14:30:33Z</time>
      </trkpt>
      <trkpt lat="48.81076" lon="1.36439">
        <ele>141.6</ele>
        <time>2023-08-17T14:30:34Z</time>
      </trkpt>
      <trkpt lat="48.81091" lon="1.36426">
        <ele>142.2</ele>
        <time>2023-08-17T14:30:39Z</time>
      </trkpt>
      <trkpt lat="48.81097" lon="1.36422">
        <ele>142.4</ele>
        <time>2023-08-17T14:30:41Z</time>
      </trkpt>
      <trkpt lat="48.811" lon="1.36421">
        <ele>142.4</ele>
        <time>2023-08-17T14:30:42Z</time>
      </trkpt>
      <trkpt lat="48.81102" lon="1.36422">
        <ele>142.4</ele>
        <time>2023-08-17T14:30:43Z</time>
      </trkpt>
      <trkpt lat="48.81104" lon="1.36422">
        <ele>142.4</ele>
        <time>2023-08-17T14:30:44Z</time>
      </trkpt>
      <trkpt lat="48.81107" lon="1.36424">
        <ele>142.4</ele>
        <time>2023-08-17T14:30:45Z</time>
      </trkpt>
      <trkpt lat="48.81111" lon="1.36427">
        <ele>142.6</ele>
        <time>2023-08-17T14:30:46Z</time>
      </trkpt>
      <trkpt lat="48.81115" lon="1.36428">
        <ele>142.6</ele>
        <time>2023-08-17T14:30:47Z</time>
      </trkpt>
      <trkpt lat="48.81122" lon="1.36427">
        <ele>142.6</ele>
        <time>2023-08-17T14:30:49Z</time>
      </trkpt>
      <trkpt lat="48.81125" lon="1.36426">
        <ele>142.6</ele>
        <time>2023-08-17T14:30:50Z</time>
      </trkpt>
      <trkpt lat="48.81127" lon="1.36424">
        <ele>142.6</ele>
        <time>2023-08-17T14:30:51Z</time>
      </trkpt>
      <trkpt lat="48.8113" lon="1.36424">
        <ele>142.6</ele>
        <time>2023-08-17T14:30:52Z</time>
      </trkpt>
      <trkpt lat="48.81133" lon="1.3642">
        <ele>142.4</ele>
        <time>2023-08-17T14:30:53Z</time>
      </trkpt>
      <trkpt lat="48.81135" lon="1.36416">
        <ele>142.4</ele>
        <time>2023-08-17T14:30:54Z</time>
      </trkpt>
      <trkpt lat="48.81138" lon="1.36411">
        <ele>142.4</ele>
        <time>2023-08-17T14:30:55Z</time>
      </trkpt>
      <trkpt lat="48.81141" lon="1.36406">
        <ele>142.4</ele>
        <time>2023-08-17T14:30:56Z</time>
      </trkpt>
      <trkpt lat="48.81144" lon="1.36402">
        <ele>142.4</ele>
        <time>2023-08-17T14:30:57Z</time>
      </trkpt>
      <trkpt lat="48.81149" lon="1.36393">
        <ele>142.2</ele>
        <time>2023-08-17T14:30:59Z</time>
      </trkpt>
      <trkpt lat="48.81152" lon="1.36389">
        <ele>142.2</ele>
        <time>2023-08-17T14:31:00Z</time>
      </trkpt>
      <trkpt lat="48.81158" lon="1.36378">
        <ele>142</ele>
        <time>2023-08-17T14:31:03Z</time>
      </trkpt>
      <trkpt lat="48.81168" lon="1.36372">
        <ele>141.6</ele>
        <time>2023-08-17T14:31:07Z</time>
      </trkpt>
      <trkpt lat="48.8117" lon="1.36371">
        <ele>141.6</ele>
        <time>2023-08-17T14:31:08Z</time>
      </trkpt>
      <trkpt lat="48.81172" lon="1.36372">
        <ele>141.6</ele>
        <time>2023-08-17T14:31:09Z</time>
      </trkpt>
      <trkpt lat="48.81174" lon="1.3637">
        <ele>141.6</ele>
        <time>2023-08-17T14:31:10Z</time>
      </trkpt>
      <trkpt lat="48.81177" lon="1.36368">
        <ele>141.6</ele>
        <time>2023-08-17T14:31:11Z</time>
      </trkpt>
      <trkpt lat="48.8118" lon="1.36368">
        <ele>141.6</ele>
        <time>2023-08-17T14:31:12Z</time>
      </trkpt>
      <trkpt lat="48.81183" lon="1.36367">
        <ele>141.6</ele>
        <time>2023-08-17T14:31:13Z</time>
      </trkpt>
      <trkpt lat="48.81185" lon="1.36365">
        <ele>141.6</ele>
        <time>2023-08-17T14:31:14Z</time>
      </trkpt>
      <trkpt lat="48.8119" lon="1.3636">
        <ele>142</ele>
        <time>2023-08-17T14:31:16Z</time>
      </trkpt>
      <trkpt lat="48.81195" lon="1.36361">
        <ele>142.4</ele>
        <time>2023-08-17T14:31:18Z</time>
      </trkpt>
      <trkpt lat="48.81197" lon="1.36362">
        <ele>142.4</ele>
        <time>2023-08-17T14:31:19Z</time>
      </trkpt>
      <trkpt lat="48.81199" lon="1.36362">
        <ele>142.4</ele>
        <time>2023-08-17T14:31:20Z</time>
      </trkpt>
      <trkpt lat="48.81202" lon="1.36361">
        <ele>142.6</ele>
        <time>2023-08-17T14:31:21Z</time>
      </trkpt>
      <trkpt lat="48.81214" lon="1.36359">
        <ele>142.8</ele>
        <time>2023-08-17T14:31:25Z</time>
      </trkpt>
      <trkpt lat="48.81221" lon="1.36355">
        <ele>142.8</ele>
        <time>2023-08-17T14:31:28Z</time>
      </trkpt>
      <trkpt lat="48.81223" lon="1.36353">
        <ele>142.8</ele>
        <time>2023-08-17T14:31:29Z</time>
      </trkpt>
      <trkpt lat="48.81226" lon="1.36351">
        <ele>143</ele>
        <time>2023-08-17T14:31:30Z</time>
      </trkpt>
      <trkpt lat="48.81228" lon="1.36348">
        <ele>143</ele>
        <time>2023-08-17T14:31:31Z</time>
      </trkpt>
      <trkpt lat="48.8123" lon="1.36345">
        <ele>143</ele>
        <time>2023-08-17T14:31:32Z</time>
      </trkpt>
      <trkpt lat="48.81236" lon="1.36337">
        <ele>143</ele>
        <time>2023-08-17T14:31:35Z</time>
      </trkpt>
      <trkpt lat="48.81238" lon="1.36336">
        <ele>143</ele>
        <time>2023-08-17T14:31:36Z</time>
      </trkpt>
      <trkpt lat="48.8124" lon="1.36335">
        <ele>143.2</ele>
        <time>2023-08-17T14:31:37Z</time>
      </trkpt>
      <trkpt lat="48.81242" lon="1.36334">
        <ele>143.2</ele>
        <time>2023-08-17T14:31:38Z</time>
      </trkpt>
      <trkpt lat="48.81244" lon="1.36332">
        <ele>143.2</ele>
        <time>2023-08-17T14:31:39Z</time>
      </trkpt>
      <trkpt lat="48.81246" lon="1.36333">
        <ele>143.6</ele>
        <time>2023-08-17T14:31:40Z</time>
      </trkpt>
      <trkpt lat="48.81248" lon="1.36333">
        <ele>143.6</ele>
        <time>2023-08-17T14:31:41Z</time>
      </trkpt>
      <trkpt lat="48.8125" lon="1.36333">
        <ele>143.6</ele>
        <time>2023-08-17T14:31:42Z</time>
      </trkpt>
      <trkpt lat="48.81252" lon="1.36332">
        <ele>143.6</ele>
        <time>2023-08-17T14:31:43Z</time>
      </trkpt>
      <trkpt lat="48.81254" lon="1.3633">
        <ele>143.6</ele>
        <time>2023-08-17T14:31:44Z</time>
      </trkpt>
      <trkpt lat="48.81257" lon="1.36329">
        <ele>143.6</ele>
        <time>2023-08-17T14:31:45Z</time>
      </trkpt>
      <trkpt lat="48.8126" lon="1.36326">
        <ele>143.8</ele>
        <time>2023-08-17T14:31:46Z</time>
      </trkpt>
      <trkpt lat="48.81264" lon="1.36323">
        <ele>143.8</ele>
        <time>2023-08-17T14:31:47Z</time>
      </trkpt>
      <trkpt lat="48.81273" lon="1.36315">
        <ele>143.8</ele>
        <time>2023-08-17T14:31:50Z</time>
      </trkpt>
      <trkpt lat="48.81276" lon="1.36312">
        <ele>143.8</ele>
        <time>2023-08-17T14:31:51Z</time>
      </trkpt>
      <trkpt lat="48.81282" lon="1.36308">
        <ele>143.8</ele>
        <time>2023-08-17T14:31:53Z</time>
      </trkpt>
      <trkpt lat="48.8129" lon="1.36306">
        <ele>144.2</ele>
        <time>2023-08-17T14:31:56Z</time>
      </trkpt>
      <trkpt lat="48.81293" lon="1.36306">
        <ele>144.2</ele>
        <time>2023-08-17T14:31:57Z</time>
      </trkpt>
      <trkpt lat="48.81296" lon="1.36305">
        <ele>144.2</ele>
        <time>2023-08-17T14:31:58Z</time>
      </trkpt>
      <trkpt lat="48.81299" lon="1.36304">
        <ele>144.2</ele>
        <time>2023-08-17T14:31:59Z</time>
      </trkpt>
      <trkpt lat="48.81303" lon="1.36303">
        <ele>144.2</ele>
        <time>2023-08-17T14:32:00Z</time>
      </trkpt>
      <trkpt lat="48.81306" lon="1.36303">
        <ele>144.2</ele>
        <time>2023-08-17T14:32:01Z</time>
      </trkpt>
      <trkpt lat="48.81309" lon="1.36303">
        <ele>144.2</ele>
        <time>2023-08-17T14:32:02Z</time>
      </trkpt>
      <trkpt lat="48.81312" lon="1.36307">
        <ele>144.2</ele>
        <time>2023-08-17T14:32:03Z</time>
      </trkpt>
      <trkpt lat="48.81315" lon="1.36309">
        <ele>144.2</ele>
        <time>2023-08-17T14:32:04Z</time>
      </trkpt>
      <trkpt lat="48.81317" lon="1.3631">
        <ele>144.2</ele>
        <time>2023-08-17T14:32:05Z</time>
      </trkpt>
      <trkpt lat="48.8132" lon="1.36312">
        <ele>144.4</ele>
        <time>2023-08-17T14:32:06Z</time>
      </trkpt>
      <trkpt lat="48.81324" lon="1.36314">
        <ele>144.6</ele>
        <time>2023-08-17T14:32:08Z</time>
      </trkpt>
      <trkpt lat="48.81326" lon="1.36313">
        <ele>144.6</ele>
        <time>2023-08-17T14:32:09Z</time>
      </trkpt>
      <trkpt lat="48.81328" lon="1.36313">
        <ele>144.6</ele>
        <time>2023-08-17T14:32:10Z</time>
      </trkpt>
      <trkpt lat="48.8133" lon="1.36313">
        <ele>144.8</ele>
        <time>2023-08-17T14:32:11Z</time>
      </trkpt>
      <trkpt lat="48.81332" lon="1.36313">
        <ele>144.8</ele>
        <time>2023-08-17T14:32:12Z</time>
      </trkpt>
      <trkpt lat="48.81334" lon="1.36314">
        <ele>144.8</ele>
        <time>2023-08-17T14:32:13Z</time>
      </trkpt>
      <trkpt lat="48.81336" lon="1.36315">
        <ele>145</ele>
        <time>2023-08-17T14:32:14Z</time>
      </trkpt>
      <trkpt lat="48.81339" lon="1.36315">
        <ele>145.2</ele>
        <time>2023-08-17T14:32:15Z</time>
      </trkpt>
      <trkpt lat="48.81341" lon="1.36316">
        <ele>145.4</ele>
        <time>2023-08-17T14:32:16Z</time>
      </trkpt>
      <trkpt lat="48.81343" lon="1.36318">
        <ele>145.6</ele>
        <time>2023-08-17T14:32:17Z</time>
      </trkpt>
      <trkpt lat="48.81345" lon="1.36318">
        <ele>145.8</ele>
        <time>2023-08-17T14:32:18Z</time>
      </trkpt>
      <trkpt lat="48.81346" lon="1.36318">
        <ele>145.8</ele>
        <time>2023-08-17T14:32:19Z</time>
      </trkpt>
      <trkpt lat="48.81348" lon="1.36317">
        <ele>146</ele>
        <time>2023-08-17T14:32:20Z</time>
      </trkpt>
      <trkpt lat="48.8135" lon="1.36316">
        <ele>146</ele>
        <time>2023-08-17T14:32:21Z</time>
      </trkpt>
      <trkpt lat="48.81353" lon="1.36315">
        <ele>146</ele>
        <time>2023-08-17T14:32:22Z</time>
      </trkpt>
      <trkpt lat="48.8136" lon="1.36316">
        <ele>146.4</ele>
        <time>2023-08-17T14:32:25Z</time>
      </trkpt>
      <trkpt lat="48.81362" lon="1.36318">
        <ele>146.4</ele>
        <time>2023-08-17T14:32:26Z</time>
      </trkpt>
      <trkpt lat="48.81365" lon="1.3632">
        <ele>146.4</ele>
        <time>2023-08-17T14:32:27Z</time>
      </trkpt>
      <trkpt lat="48.81367" lon="1.36323">
        <ele>146.4</ele>
        <time>2023-08-17T14:32:28Z</time>
      </trkpt>
      <trkpt lat="48.8137" lon="1.36325">
        <ele>146.4</ele>
        <time>2023-08-17T14:32:29Z</time>
      </trkpt>
      <trkpt lat="48.81372" lon="1.36325">
        <ele>146.6</ele>
        <time>2023-08-17T14:32:30Z</time>
      </trkpt>
      <trkpt lat="48.81375" lon="1.36325">
        <ele>146.6</ele>
        <time>2023-08-17T14:32:31Z</time>
      </trkpt>
      <trkpt lat="48.81377" lon="1.36325">
        <ele>146.6</ele>
        <time>2023-08-17T14:32:32Z</time>
      </trkpt>
      <trkpt lat="48.81379" lon="1.36323">
        <ele>146.6</ele>
        <time>2023-08-17T14:32:33Z</time>
      </trkpt>
      <trkpt lat="48.81381" lon="1.36322">
        <ele>146.8</ele>
        <time>2023-08-17T14:32:34Z</time>
      </trkpt>
      <trkpt lat="48.81394" lon="1.36315">
        <ele>146.8</ele>
        <time>2023-08-17T14:32:39Z</time>
      </trkpt>
      <trkpt lat="48.81397" lon="1.36317">
        <ele>146.8</ele>
        <time>2023-08-17T14:32:40Z</time>
      </trkpt>
      <trkpt lat="48.814" lon="1.36317">
        <ele>146.8</ele>
        <time>2023-08-17T14:32:41Z</time>
      </trkpt>
      <trkpt lat="48.81402" lon="1.36317">
        <ele>146.8</ele>
        <time>2023-08-17T14:32:42Z</time>
      </trkpt>
      <trkpt lat="48.81413" lon="1.36314">
        <ele>146.8</ele>
        <time>2023-08-17T14:32:46Z</time>
      </trkpt>
      <trkpt lat="48.81415" lon="1.36312">
        <ele>146.8</ele>
        <time>2023-08-17T14:32:47Z</time>
      </trkpt>
      <trkpt lat="48.81418" lon="1.36312">
        <ele>146.8</ele>
        <time>2023-08-17T14:32:48Z</time>
      </trkpt>
      <trkpt lat="48.81431" lon="1.36299">
        <ele>146.8</ele>
        <time>2023-08-17T14:32:52Z</time>
      </trkpt>
      <trkpt lat="48.81434" lon="1.36295">
        <ele>146.8</ele>
        <time>2023-08-17T14:32:53Z</time>
      </trkpt>
      <trkpt lat="48.81437" lon="1.36294">
        <ele>146.8</ele>
        <time>2023-08-17T14:32:54Z</time>
      </trkpt>
      <trkpt lat="48.81451" lon="1.36273">
        <ele>146.6</ele>
        <time>2023-08-17T14:32:58Z</time>
      </trkpt>
      <trkpt lat="48.81455" lon="1.36268">
        <ele>146.4</ele>
        <time>2023-08-17T14:32:59Z</time>
      </trkpt>
      <trkpt lat="48.81465" lon="1.36262">
        <ele>145.8</ele>
        <time>2023-08-17T14:33:01Z</time>
      </trkpt>
      <trkpt lat="48.8147" lon="1.36258">
        <ele>145.6</ele>
        <time>2023-08-17T14:33:02Z</time>
      </trkpt>
      <trkpt lat="48.81475" lon="1.36256">
        <ele>145.6</ele>
        <time>2023-08-17T14:33:03Z</time>
      </trkpt>
      <trkpt lat="48.81481" lon="1.36254">
        <ele>145.6</ele>
        <time>2023-08-17T14:33:04Z</time>
      </trkpt>
      <trkpt lat="48.81493" lon="1.36252">
        <ele>145.2</ele>
        <time>2023-08-17T14:33:06Z</time>
      </trkpt>
      <trkpt lat="48.81504" lon="1.3625">
        <ele>144.6</ele>
        <time>2023-08-17T14:33:08Z</time>
      </trkpt>
      <trkpt lat="48.81509" lon="1.36249">
        <ele>143.8</ele>
        <time>2023-08-17T14:33:09Z</time>
      </trkpt>
      <trkpt lat="48.81515" lon="1.36249">
        <ele>143.2</ele>
        <time>2023-08-17T14:33:10Z</time>
      </trkpt>
      <trkpt lat="48.81519" lon="1.36251">
        <ele>142.6</ele>
        <time>2023-08-17T14:33:11Z</time>
      </trkpt>
      <trkpt lat="48.81523" lon="1.36254">
        <ele>142.2</ele>
        <time>2023-08-17T14:33:12Z</time>
      </trkpt>
      <trkpt lat="48.81526" lon="1.36256">
        <ele>142</ele>
        <time>2023-08-17T14:33:13Z</time>
      </trkpt>
      <trkpt lat="48.81528" lon="1.36257">
        <ele>141.8</ele>
        <time>2023-08-17T14:33:14Z</time>
      </trkpt>
      <trkpt lat="48.8153" lon="1.36257">
        <ele>141.8</ele>
        <time>2023-08-17T14:33:15Z</time>
      </trkpt>
      <trkpt lat="48.81532" lon="1.36256">
        <ele>141.8</ele>
        <time>2023-08-17T14:33:16Z</time>
      </trkpt>
      <trkpt lat="48.81534" lon="1.36257">
        <ele>141.8</ele>
        <time>2023-08-17T14:33:17Z</time>
      </trkpt>
      <trkpt lat="48.81538" lon="1.36262">
        <ele>141.8</ele>
        <time>2023-08-17T14:33:19Z</time>
      </trkpt>
      <trkpt lat="48.8154" lon="1.36264">
        <ele>141.8</ele>
        <time>2023-08-17T14:33:20Z</time>
      </trkpt>
      <trkpt lat="48.81541" lon="1.36267">
        <ele>141.8</ele>
        <time>2023-08-17T14:33:21Z</time>
      </trkpt>
      <trkpt lat="48.81542" lon="1.36268">
        <ele>142</ele>
        <time>2023-08-17T14:33:22Z</time>
      </trkpt>
      <trkpt lat="48.81545" lon="1.3627">
        <ele>142.4</ele>
        <time>2023-08-17T14:33:24Z</time>
      </trkpt>
      <trkpt lat="48.81546" lon="1.3627">
        <ele>142.6</ele>
        <time>2023-08-17T14:33:25Z</time>
      </trkpt>
      <trkpt lat="48.81548" lon="1.36272">
        <ele>142.8</ele>
        <time>2023-08-17T14:33:26Z</time>
      </trkpt>
      <trkpt lat="48.8155" lon="1.36272">
        <ele>142.8</ele>
        <time>2023-08-17T14:33:27Z</time>
      </trkpt>
      <trkpt lat="48.81553" lon="1.3627">
        <ele>143</ele>
        <time>2023-08-17T14:33:28Z</time>
      </trkpt>
      <trkpt lat="48.81555" lon="1.36269">
        <ele>143.2</ele>
        <time>2023-08-17T14:33:29Z</time>
      </trkpt>
      <trkpt lat="48.8156" lon="1.36269">
        <ele>143.8</ele>
        <time>2023-08-17T14:33:31Z</time>
      </trkpt>
      <trkpt lat="48.81563" lon="1.36269">
        <ele>144</ele>
        <time>2023-08-17T14:33:32Z</time>
      </trkpt>
      <trkpt lat="48.81566" lon="1.36268">
        <ele>144</ele>
        <time>2023-08-17T14:33:33Z</time>
      </trkpt>
      <trkpt lat="48.81568" lon="1.36267">
        <ele>144</ele>
        <time>2023-08-17T14:33:34Z</time>
      </trkpt>
      <trkpt lat="48.81574" lon="1.36264">
        <ele>144</ele>
        <time>2023-08-17T14:33:36Z</time>
      </trkpt>
      <trkpt lat="48.81589" lon="1.36262">
        <ele>144</ele>
        <time>2023-08-17T14:33:40Z</time>
      </trkpt>
      <trkpt lat="48.81599" lon="1.36268">
        <ele>143.8</ele>
        <time>2023-08-17T14:33:43Z</time>
      </trkpt>
      <trkpt lat="48.81603" lon="1.36269">
        <ele>143.8</ele>
        <time>2023-08-17T14:33:44Z</time>
      </trkpt>
      <trkpt lat="48.81607" lon="1.36271">
        <ele>143.4</ele>
        <time>2023-08-17T14:33:45Z</time>
      </trkpt>
      <trkpt lat="48.81622" lon="1.36273">
        <ele>142.8</ele>
        <time>2023-08-17T14:33:49Z</time>
      </trkpt>
      <trkpt lat="48.81626" lon="1.36276">
        <ele>142.8</ele>
        <time>2023-08-17T14:33:50Z</time>
      </trkpt>
      <trkpt lat="48.81629" lon="1.36279">
        <ele>142.6</ele>
        <time>2023-08-17T14:33:51Z</time>
      </trkpt>
      <trkpt lat="48.81633" lon="1.36282">
        <ele>142.6</ele>
        <time>2023-08-17T14:33:52Z</time>
      </trkpt>
      <trkpt lat="48.81636" lon="1.36285">
        <ele>142.4</ele>
        <time>2023-08-17T14:33:53Z</time>
      </trkpt>
      <trkpt lat="48.81639" lon="1.36289">
        <ele>142.2</ele>
        <time>2023-08-17T14:33:54Z</time>
      </trkpt>
      <trkpt lat="48.81641" lon="1.36293">
        <ele>142.2</ele>
        <time>2023-08-17T14:33:55Z</time>
      </trkpt>
      <trkpt lat="48.81644" lon="1.36298">
        <ele>142.2</ele>
        <time>2023-08-17T14:33:56Z</time>
      </trkpt>
      <trkpt lat="48.81647" lon="1.36303">
        <ele>142.2</ele>
        <time>2023-08-17T14:33:57Z</time>
      </trkpt>
      <trkpt lat="48.81649" lon="1.36308">
        <ele>142.2</ele>
        <time>2023-08-17T14:33:58Z</time>
      </trkpt>
      <trkpt lat="48.81656" lon="1.36327">
        <ele>142.4</ele>
        <time>2023-08-17T14:34:02Z</time>
      </trkpt>
      <trkpt lat="48.81662" lon="1.36332">
        <ele>142.6</ele>
        <time>2023-08-17T14:34:04Z</time>
      </trkpt>
      <trkpt lat="48.81665" lon="1.36332">
        <ele>142.6</ele>
        <time>2023-08-17T14:34:05Z</time>
      </trkpt>
      <trkpt lat="48.81667" lon="1.36334">
        <ele>142.6</ele>
        <time>2023-08-17T14:34:06Z</time>
      </trkpt>
      <trkpt lat="48.8167" lon="1.36336">
        <ele>142.6</ele>
        <time>2023-08-17T14:34:07Z</time>
      </trkpt>
      <trkpt lat="48.81672" lon="1.36338">
        <ele>142.8</ele>
        <time>2023-08-17T14:34:08Z</time>
      </trkpt>
      <trkpt lat="48.81681" lon="1.36347">
        <ele>142.8</ele>
        <time>2023-08-17T14:34:11Z</time>
      </trkpt>
      <trkpt lat="48.817" lon="1.36369">
        <ele>142.8</ele>
        <time>2023-08-17T14:34:18Z</time>
      </trkpt>
      <trkpt lat="48.81703" lon="1.36369">
        <ele>142.8</ele>
        <time>2023-08-17T14:34:19Z</time>
      </trkpt>
      <trkpt lat="48.81707" lon="1.36368">
        <ele>142.8</ele>
        <time>2023-08-17T14:34:20Z</time>
      </trkpt>
      <trkpt lat="48.81711" lon="1.36371">
        <ele>142.8</ele>
        <time>2023-08-17T14:34:21Z</time>
      </trkpt>
      <trkpt lat="48.81714" lon="1.36372">
        <ele>142.8</ele>
        <time>2023-08-17T14:34:22Z</time>
      </trkpt>
      <trkpt lat="48.8172" lon="1.36371">
        <ele>142.8</ele>
        <time>2023-08-17T14:34:24Z</time>
      </trkpt>
      <trkpt lat="48.81723" lon="1.36368">
        <ele>142.8</ele>
        <time>2023-08-17T14:34:25Z</time>
      </trkpt>
      <trkpt lat="48.81726" lon="1.36369">
        <ele>142.8</ele>
        <time>2023-08-17T14:34:26Z</time>
      </trkpt>
      <trkpt lat="48.81729" lon="1.36371">
        <ele>142.8</ele>
        <time>2023-08-17T14:34:27Z</time>
      </trkpt>
      <trkpt lat="48.81732" lon="1.36373">
        <ele>142.8</ele>
        <time>2023-08-17T14:34:28Z</time>
      </trkpt>
      <trkpt lat="48.81735" lon="1.36376">
        <ele>142.8</ele>
        <time>2023-08-17T14:34:29Z</time>
      </trkpt>
      <trkpt lat="48.81738" lon="1.36378">
        <ele>142.8</ele>
        <time>2023-08-17T14:34:30Z</time>
      </trkpt>
      <trkpt lat="48.8174" lon="1.36377">
        <ele>142.6</ele>
        <time>2023-08-17T14:34:31Z</time>
      </trkpt>
      <trkpt lat="48.81744" lon="1.36375">
        <ele>142.6</ele>
        <time>2023-08-17T14:34:32Z</time>
      </trkpt>
      <trkpt lat="48.81747" lon="1.36374">
        <ele>142.6</ele>
        <time>2023-08-17T14:34:33Z</time>
      </trkpt>
      <trkpt lat="48.81751" lon="1.36374">
        <ele>142.6</ele>
        <time>2023-08-17T14:34:34Z</time>
      </trkpt>
      <trkpt lat="48.81754" lon="1.36374">
        <ele>142.6</ele>
        <time>2023-08-17T14:34:35Z</time>
      </trkpt>
      <trkpt lat="48.81761" lon="1.36373">
        <ele>142.6</ele>
        <time>2023-08-17T14:34:37Z</time>
      </trkpt>
      <trkpt lat="48.8178" lon="1.36377">
        <ele>142.4</ele>
        <time>2023-08-17T14:34:42Z</time>
      </trkpt>
      <trkpt lat="48.8179" lon="1.36386">
        <ele>142.4</ele>
        <time>2023-08-17T14:34:45Z</time>
      </trkpt>
      <trkpt lat="48.81791" lon="1.36388">
        <ele>142.2</ele>
        <time>2023-08-17T14:34:46Z</time>
      </trkpt>
      <trkpt lat="48.81793" lon="1.36389">
        <ele>142.2</ele>
        <time>2023-08-17T14:34:47Z</time>
      </trkpt>
      <trkpt lat="48.81794" lon="1.36392">
        <ele>142.2</ele>
        <time>2023-08-17T14:34:48Z</time>
      </trkpt>
      <trkpt lat="48.81794" lon="1.36394">
        <ele>142.2</ele>
        <time>2023-08-17T14:34:49Z</time>
      </trkpt>
      <trkpt lat="48.81801" lon="1.36407">
        <ele>142.2</ele>
        <time>2023-08-17T14:34:54Z</time>
      </trkpt>
      <trkpt lat="48.81803" lon="1.36409">
        <ele>142.2</ele>
        <time>2023-08-17T14:34:55Z</time>
      </trkpt>
      <trkpt lat="48.81806" lon="1.36417">
        <ele>142.4</ele>
        <time>2023-08-17T14:34:58Z</time>
      </trkpt>
      <trkpt lat="48.81812" lon="1.36426">
        <ele>143</ele>
        <time>2023-08-17T14:35:02Z</time>
      </trkpt>
      <trkpt lat="48.81814" lon="1.3643">
        <ele>143.2</ele>
        <time>2023-08-17T14:35:04Z</time>
      </trkpt>
      <trkpt lat="48.81815" lon="1.36432">
        <ele>143.2</ele>
        <time>2023-08-17T14:35:05Z</time>
      </trkpt>
      <trkpt lat="48.81816" lon="1.36435">
        <ele>143.2</ele>
        <time>2023-08-17T14:35:06Z</time>
      </trkpt>
      <trkpt lat="48.81817" lon="1.36437">
        <ele>143.2</ele>
        <time>2023-08-17T14:35:07Z</time>
      </trkpt>
      <trkpt lat="48.8182" lon="1.36442">
        <ele>143.4</ele>
        <time>2023-08-17T14:35:09Z</time>
      </trkpt>
      <trkpt lat="48.81824" lon="1.36451">
        <ele>143.8</ele>
        <time>2023-08-17T14:35:12Z</time>
      </trkpt>
      <trkpt lat="48.81828" lon="1.36459">
        <ele>144</ele>
        <time>2023-08-17T14:35:15Z</time>
      </trkpt>
      <trkpt lat="48.81832" lon="1.36464">
        <ele>144.2</ele>
        <time>2023-08-17T14:35:17Z</time>
      </trkpt>
      <trkpt lat="48.81835" lon="1.36466">
        <ele>144.2</ele>
        <time>2023-08-17T14:35:18Z</time>
      </trkpt>
      <trkpt lat="48.81843" lon="1.36473">
        <ele>144.2</ele>
        <time>2023-08-17T14:35:21Z</time>
      </trkpt>
      <trkpt lat="48.81864" lon="1.36485">
        <ele>144.4</ele>
        <time>2023-08-17T14:35:27Z</time>
      </trkpt>
      <trkpt lat="48.8187" lon="1.36493">
        <ele>144.4</ele>
        <time>2023-08-17T14:35:29Z</time>
      </trkpt>
      <trkpt lat="48.81872" lon="1.36498">
        <ele>144.4</ele>
        <time>2023-08-17T14:35:30Z</time>
      </trkpt>
      <trkpt lat="48.81873" lon="1.36503">
        <ele>144.4</ele>
        <time>2023-08-17T14:35:31Z</time>
      </trkpt>
      <trkpt lat="48.81874" lon="1.36507">
        <ele>144.6</ele>
        <time>2023-08-17T14:35:32Z</time>
      </trkpt>
      <trkpt lat="48.81879" lon="1.36519">
        <ele>144.4</ele>
        <time>2023-08-17T14:35:34Z</time>
      </trkpt>
      <trkpt lat="48.81881" lon="1.36523">
        <ele>144.4</ele>
        <time>2023-08-17T14:35:35Z</time>
      </trkpt>
      <trkpt lat="48.81882" lon="1.36527">
        <ele>144.2</ele>
        <time>2023-08-17T14:35:36Z</time>
      </trkpt>
      <trkpt lat="48.81884" lon="1.36531">
        <ele>144.4</ele>
        <time>2023-08-17T14:35:37Z</time>
      </trkpt>
      <trkpt lat="48.81889" lon="1.36544">
        <ele>144.2</ele>
        <time>2023-08-17T14:35:40Z</time>
      </trkpt>
      <trkpt lat="48.8189" lon="1.36548">
        <ele>144</ele>
        <time>2023-08-17T14:35:41Z</time>
      </trkpt>
      <trkpt lat="48.81893" lon="1.36559">
        <ele>144.4</ele>
        <time>2023-08-17T14:35:44Z</time>
      </trkpt>
      <trkpt lat="48.81895" lon="1.36563">
        <ele>144.4</ele>
        <time>2023-08-17T14:35:45Z</time>
      </trkpt>
      <trkpt lat="48.81898" lon="1.36565">
        <ele>144.4</ele>
        <time>2023-08-17T14:35:46Z</time>
      </trkpt>
      <trkpt lat="48.81901" lon="1.36566">
        <ele>144.4</ele>
        <time>2023-08-17T14:35:47Z</time>
      </trkpt>
      <trkpt lat="48.81904" lon="1.36566">
        <ele>144.6</ele>
        <time>2023-08-17T14:35:48Z</time>
      </trkpt>
      <trkpt lat="48.81906" lon="1.36566">
        <ele>144.6</ele>
        <time>2023-08-17T14:35:49Z</time>
      </trkpt>
      <trkpt lat="48.8191" lon="1.36567">
        <ele>144.6</ele>
        <time>2023-08-17T14:35:50Z</time>
      </trkpt>
      <trkpt lat="48.81912" lon="1.36569">
        <ele>144.6</ele>
        <time>2023-08-17T14:35:51Z</time>
      </trkpt>
      <trkpt lat="48.81915" lon="1.36572">
        <ele>144.6</ele>
        <time>2023-08-17T14:35:52Z</time>
      </trkpt>
      <trkpt lat="48.81918" lon="1.36573">
        <ele>144.6</ele>
        <time>2023-08-17T14:35:53Z</time>
      </trkpt>
      <trkpt lat="48.81926" lon="1.36575">
        <ele>144.6</ele>
        <time>2023-08-17T14:35:55Z</time>
      </trkpt>
      <trkpt lat="48.8193" lon="1.36575">
        <ele>144.6</ele>
        <time>2023-08-17T14:35:56Z</time>
      </trkpt>
      <trkpt lat="48.81939" lon="1.36585">
        <ele>144.4</ele>
        <time>2023-08-17T14:35:59Z</time>
      </trkpt>
      <trkpt lat="48.81941" lon="1.3659">
        <ele>144.4</ele>
        <time>2023-08-17T14:36:00Z</time>
      </trkpt>
      <trkpt lat="48.81941" lon="1.36594">
        <ele>144.4</ele>
        <time>2023-08-17T14:36:01Z</time>
      </trkpt>
      <trkpt lat="48.81942" lon="1.36599">
        <ele>144.4</ele>
        <time>2023-08-17T14:36:02Z</time>
      </trkpt>
      <trkpt lat="48.81943" lon="1.36604">
        <ele>144.4</ele>
        <time>2023-08-17T14:36:03Z</time>
      </trkpt>
      <trkpt lat="48.81948" lon="1.36613">
        <ele>144.4</ele>
        <time>2023-08-17T14:36:05Z</time>
      </trkpt>
      <trkpt lat="48.8195" lon="1.36617">
        <ele>144.4</ele>
        <time>2023-08-17T14:36:06Z</time>
      </trkpt>
      <trkpt lat="48.81953" lon="1.36619">
        <ele>144.4</ele>
        <time>2023-08-17T14:36:07Z</time>
      </trkpt>
      <trkpt lat="48.81956" lon="1.36622">
        <ele>144.6</ele>
        <time>2023-08-17T14:36:08Z</time>
      </trkpt>
      <trkpt lat="48.81959" lon="1.36626">
        <ele>144.6</ele>
        <time>2023-08-17T14:36:09Z</time>
      </trkpt>
      <trkpt lat="48.81962" lon="1.3663">
        <ele>144.6</ele>
        <time>2023-08-17T14:36:10Z</time>
      </trkpt>
      <trkpt lat="48.8197" lon="1.36651">
        <ele>144.6</ele>
        <time>2023-08-17T14:36:14Z</time>
      </trkpt>
      <trkpt lat="48.81979" lon="1.36693">
        <ele>144.6</ele>
        <time>2023-08-17T14:36:21Z</time>
      </trkpt>
      <trkpt lat="48.81991" lon="1.36714">
        <ele>144.2</ele>
        <time>2023-08-17T14:36:26Z</time>
      </trkpt>
      <trkpt lat="48.81993" lon="1.36717">
        <ele>144.2</ele>
        <time>2023-08-17T14:36:27Z</time>
      </trkpt>
      <trkpt lat="48.81996" lon="1.36721">
        <ele>144.2</ele>
        <time>2023-08-17T14:36:28Z</time>
      </trkpt>
      <trkpt lat="48.82002" lon="1.36726">
        <ele>144</ele>
        <time>2023-08-17T14:36:30Z</time>
      </trkpt>
      <trkpt lat="48.82005" lon="1.3673">
        <ele>144</ele>
        <time>2023-08-17T14:36:31Z</time>
      </trkpt>
      <trkpt lat="48.82007" lon="1.36733">
        <ele>143.8</ele>
        <time>2023-08-17T14:36:32Z</time>
      </trkpt>
      <trkpt lat="48.8201" lon="1.36737">
        <ele>143.8</ele>
        <time>2023-08-17T14:36:33Z</time>
      </trkpt>
      <trkpt lat="48.82012" lon="1.3674">
        <ele>143.8</ele>
        <time>2023-08-17T14:36:34Z</time>
      </trkpt>
      <trkpt lat="48.82014" lon="1.36744">
        <ele>143.8</ele>
        <time>2023-08-17T14:36:35Z</time>
      </trkpt>
      <trkpt lat="48.82015" lon="1.36749">
        <ele>143.8</ele>
        <time>2023-08-17T14:36:36Z</time>
      </trkpt>
      <trkpt lat="48.82017" lon="1.36753">
        <ele>143.8</ele>
        <time>2023-08-17T14:36:37Z</time>
      </trkpt>
      <trkpt lat="48.82024" lon="1.36772">
        <ele>143.8</ele>
        <time>2023-08-17T14:36:41Z</time>
      </trkpt>
      <trkpt lat="48.82025" lon="1.36777">
        <ele>143.8</ele>
        <time>2023-08-17T14:36:42Z</time>
      </trkpt>
      <trkpt lat="48.82043" lon="1.36807">
        <ele>144.6</ele>
        <time>2023-08-17T14:36:49Z</time>
      </trkpt>
      <trkpt lat="48.82054" lon="1.36824">
        <ele>144.6</ele>
        <time>2023-08-17T14:36:53Z</time>
      </trkpt>
      <trkpt lat="48.82057" lon="1.36829">
        <ele>144.6</ele>
        <time>2023-08-17T14:36:54Z</time>
      </trkpt>
      <trkpt lat="48.82076" lon="1.36854">
        <ele>144.6</ele>
        <time>2023-08-17T14:36:59Z</time>
      </trkpt>
      <trkpt lat="48.8208" lon="1.36858">
        <ele>144.6</ele>
        <time>2023-08-17T14:37:00Z</time>
      </trkpt>
      <trkpt lat="48.82101" lon="1.36887">
        <ele>144.4</ele>
        <time>2023-08-17T14:37:06Z</time>
      </trkpt>
      <trkpt lat="48.82105" lon="1.36892">
        <ele>144.2</ele>
        <time>2023-08-17T14:37:07Z</time>
      </trkpt>
      <trkpt lat="48.82111" lon="1.36904">
        <ele>144</ele>
        <time>2023-08-17T14:37:09Z</time>
      </trkpt>
      <trkpt lat="48.82118" lon="1.36915">
        <ele>143.6</ele>
        <time>2023-08-17T14:37:11Z</time>
      </trkpt>
      <trkpt lat="48.82126" lon="1.36925">
        <ele>143.2</ele>
        <time>2023-08-17T14:37:13Z</time>
      </trkpt>
      <trkpt lat="48.82129" lon="1.36929">
        <ele>143.2</ele>
        <time>2023-08-17T14:37:14Z</time>
      </trkpt>
      <trkpt lat="48.82137" lon="1.36936">
        <ele>143</ele>
        <time>2023-08-17T14:37:16Z</time>
      </trkpt>
      <trkpt lat="48.82142" lon="1.36939">
        <ele>142.8</ele>
        <time>2023-08-17T14:37:17Z</time>
      </trkpt>
      <trkpt lat="48.82146" lon="1.36943">
        <ele>142.8</ele>
        <time>2023-08-17T14:37:18Z</time>
      </trkpt>
      <trkpt lat="48.82151" lon="1.36945">
        <ele>142.4</ele>
        <time>2023-08-17T14:37:19Z</time>
      </trkpt>
      <trkpt lat="48.82156" lon="1.36949">
        <ele>142.2</ele>
        <time>2023-08-17T14:37:20Z</time>
      </trkpt>
      <trkpt lat="48.82159" lon="1.36951">
        <ele>142</ele>
        <time>2023-08-17T14:37:21Z</time>
      </trkpt>
      <trkpt lat="48.82162" lon="1.36953">
        <ele>141.8</ele>
        <time>2023-08-17T14:37:22Z</time>
      </trkpt>
      <trkpt lat="48.82165" lon="1.36955">
        <ele>141.8</ele>
        <time>2023-08-17T14:37:23Z</time>
      </trkpt>
      <trkpt lat="48.82168" lon="1.36958">
        <ele>141.6</ele>
        <time>2023-08-17T14:37:24Z</time>
      </trkpt>
      <trkpt lat="48.82179" lon="1.36969">
        <ele>141.4</ele>
        <time>2023-08-17T14:37:27Z</time>
      </trkpt>
      <trkpt lat="48.82182" lon="1.3697">
        <ele>141.4</ele>
        <time>2023-08-17T14:37:28Z</time>
      </trkpt>
      <trkpt lat="48.82186" lon="1.36972">
        <ele>141.4</ele>
        <time>2023-08-17T14:37:29Z</time>
      </trkpt>
      <trkpt lat="48.82189" lon="1.36974">
        <ele>141.4</ele>
        <time>2023-08-17T14:37:30Z</time>
      </trkpt>
      <trkpt lat="48.82192" lon="1.36977">
        <ele>141.4</ele>
        <time>2023-08-17T14:37:31Z</time>
      </trkpt>
      <trkpt lat="48.82195" lon="1.3698">
        <ele>141.4</ele>
        <time>2023-08-17T14:37:32Z</time>
      </trkpt>
      <trkpt lat="48.82198" lon="1.36985">
        <ele>141.4</ele>
        <time>2023-08-17T14:37:33Z</time>
      </trkpt>
      <trkpt lat="48.82201" lon="1.36988">
        <ele>141.4</ele>
        <time>2023-08-17T14:37:34Z</time>
      </trkpt>
      <trkpt lat="48.82211" lon="1.36993">
        <ele>141.6</ele>
        <time>2023-08-17T14:37:37Z</time>
      </trkpt>
      <trkpt lat="48.82215" lon="1.36993">
        <ele>141.8</ele>
        <time>2023-08-17T14:37:38Z</time>
      </trkpt>
      <trkpt lat="48.82219" lon="1.36994">
        <ele>141.8</ele>
        <time>2023-08-17T14:37:39Z</time>
      </trkpt>
      <trkpt lat="48.82225" lon="1.36994">
        <ele>142.2</ele>
        <time>2023-08-17T14:37:41Z</time>
      </trkpt>
      <trkpt lat="48.82228" lon="1.36995">
        <ele>142.2</ele>
        <time>2023-08-17T14:37:42Z</time>
      </trkpt>
      <trkpt lat="48.82235" lon="1.36999">
        <ele>142.2</ele>
        <time>2023-08-17T14:37:44Z</time>
      </trkpt>
      <trkpt lat="48.82238" lon="1.37002">
        <ele>142.2</ele>
        <time>2023-08-17T14:37:45Z</time>
      </trkpt>
      <trkpt lat="48.82241" lon="1.37007">
        <ele>142.2</ele>
        <time>2023-08-17T14:37:46Z</time>
      </trkpt>
      <trkpt lat="48.82243" lon="1.37013">
        <ele>142.2</ele>
        <time>2023-08-17T14:37:47Z</time>
      </trkpt>
      <trkpt lat="48.82246" lon="1.37018">
        <ele>142.2</ele>
        <time>2023-08-17T14:37:48Z</time>
      </trkpt>
      <trkpt lat="48.82254" lon="1.37031">
        <ele>142.2</ele>
        <time>2023-08-17T14:37:51Z</time>
      </trkpt>
      <trkpt lat="48.82256" lon="1.37035">
        <ele>142.2</ele>
        <time>2023-08-17T14:37:52Z</time>
      </trkpt>
      <trkpt lat="48.82258" lon="1.37039">
        <ele>142</ele>
        <time>2023-08-17T14:37:53Z</time>
      </trkpt>
      <trkpt lat="48.82258" lon="1.37044">
        <ele>142</ele>
        <time>2023-08-17T14:37:54Z</time>
      </trkpt>
      <trkpt lat="48.82258" lon="1.37048">
        <ele>142</ele>
        <time>2023-08-17T14:37:55Z</time>
      </trkpt>
      <trkpt lat="48.82258" lon="1.37052">
        <ele>142</ele>
        <time>2023-08-17T14:37:56Z</time>
      </trkpt>
      <trkpt lat="48.82258" lon="1.37056">
        <ele>142</ele>
        <time>2023-08-17T14:37:57Z</time>
      </trkpt>
      <trkpt lat="48.82257" lon="1.3706">
        <ele>142</ele>
        <time>2023-08-17T14:37:58Z</time>
      </trkpt>
      <trkpt lat="48.82256" lon="1.37078">
        <ele>141.8</ele>
        <time>2023-08-17T14:38:01Z</time>
      </trkpt>
      <trkpt lat="48.82255" lon="1.37083">
        <ele>141.8</ele>
        <time>2023-08-17T14:38:02Z</time>
      </trkpt>
      <trkpt lat="48.82252" lon="1.37093">
        <ele>141.8</ele>
        <time>2023-08-17T14:38:04Z</time>
      </trkpt>
      <trkpt lat="48.82251" lon="1.37099">
        <ele>141.8</ele>
        <time>2023-08-17T14:38:05Z</time>
      </trkpt>
      <trkpt lat="48.82249" lon="1.3711">
        <ele>142</ele>
        <time>2023-08-17T14:38:08Z</time>
      </trkpt>
      <trkpt lat="48.82249" lon="1.37114">
        <ele>142</ele>
        <time>2023-08-17T14:38:09Z</time>
      </trkpt>
      <trkpt lat="48.82249" lon="1.3712">
        <ele>142</ele>
        <time>2023-08-17T14:38:10Z</time>
      </trkpt>
      <trkpt lat="48.8225" lon="1.37129">
        <ele>142</ele>
        <time>2023-08-17T14:38:11Z</time>
      </trkpt>
      <trkpt lat="48.82249" lon="1.37141">
        <ele>142</ele>
        <time>2023-08-17T14:38:13Z</time>
      </trkpt>
      <trkpt lat="48.82248" lon="1.37158">
        <ele>142.2</ele>
        <time>2023-08-17T14:38:16Z</time>
      </trkpt>
      <trkpt lat="48.82252" lon="1.37176">
        <ele>142.4</ele>
        <time>2023-08-17T14:38:19Z</time>
      </trkpt>
      <trkpt lat="48.82254" lon="1.3718">
        <ele>142.4</ele>
        <time>2023-08-17T14:38:20Z</time>
      </trkpt>
      <trkpt lat="48.82256" lon="1.37184">
        <ele>142.4</ele>
        <time>2023-08-17T14:38:21Z</time>
      </trkpt>
      <trkpt lat="48.82258" lon="1.37189">
        <ele>142.4</ele>
        <time>2023-08-17T14:38:22Z</time>
      </trkpt>
      <trkpt lat="48.82261" lon="1.37194">
        <ele>142.6</ele>
        <time>2023-08-17T14:38:23Z</time>
      </trkpt>
      <trkpt lat="48.82263" lon="1.37198">
        <ele>142.6</ele>
        <time>2023-08-17T14:38:24Z</time>
      </trkpt>
      <trkpt lat="48.82266" lon="1.37207">
        <ele>142.8</ele>
        <time>2023-08-17T14:38:26Z</time>
      </trkpt>
      <trkpt lat="48.82268" lon="1.3721">
        <ele>143</ele>
        <time>2023-08-17T14:38:27Z</time>
      </trkpt>
      <trkpt lat="48.82271" lon="1.37215">
        <ele>143</ele>
        <time>2023-08-17T14:38:28Z</time>
      </trkpt>
      <trkpt lat="48.82272" lon="1.37222">
        <ele>143.2</ele>
        <time>2023-08-17T14:38:30Z</time>
      </trkpt>
      <trkpt lat="48.82274" lon="1.37231">
        <ele>143.2</ele>
        <time>2023-08-17T14:38:32Z</time>
      </trkpt>
      <trkpt lat="48.82275" lon="1.37233">
        <ele>143.4</ele>
        <time>2023-08-17T14:38:33Z</time>
      </trkpt>
      <trkpt lat="48.82276" lon="1.37236">
        <ele>143.4</ele>
        <time>2023-08-17T14:38:34Z</time>
      </trkpt>
      <trkpt lat="48.82278" lon="1.37238">
        <ele>143.6</ele>
        <time>2023-08-17T14:38:35Z</time>
      </trkpt>
      <trkpt lat="48.8228" lon="1.37242">
        <ele>143.6</ele>
        <time>2023-08-17T14:38:36Z</time>
      </trkpt>
      <trkpt lat="48.82281" lon="1.37243">
        <ele>143.8</ele>
        <time>2023-08-17T14:38:37Z</time>
      </trkpt>
      <trkpt lat="48.82285" lon="1.37248">
        <ele>144</ele>
        <time>2023-08-17T14:38:39Z</time>
      </trkpt>
      <trkpt lat="48.82287" lon="1.37249">
        <ele>144.2</ele>
        <time>2023-08-17T14:38:40Z</time>
      </trkpt>
      <trkpt lat="48.82289" lon="1.37251">
        <ele>144.2</ele>
        <time>2023-08-17T14:38:41Z</time>
      </trkpt>
      <trkpt lat="48.8229" lon="1.37254">
        <ele>144.4</ele>
        <time>2023-08-17T14:38:42Z</time>
      </trkpt>
      <trkpt lat="48.82291" lon="1.37256">
        <ele>144.4</ele>
        <time>2023-08-17T14:38:43Z</time>
      </trkpt>
      <trkpt lat="48.82292" lon="1.3726">
        <ele>144.4</ele>
        <time>2023-08-17T14:38:44Z</time>
      </trkpt>
      <trkpt lat="48.82294" lon="1.37263">
        <ele>144.4</ele>
        <time>2023-08-17T14:38:45Z</time>
      </trkpt>
      <trkpt lat="48.82296" lon="1.37268">
        <ele>144.8</ele>
        <time>2023-08-17T14:38:47Z</time>
      </trkpt>
      <trkpt lat="48.82297" lon="1.3727">
        <ele>144.8</ele>
        <time>2023-08-17T14:38:48Z</time>
      </trkpt>
      <trkpt lat="48.82298" lon="1.37272">
        <ele>145</ele>
        <time>2023-08-17T14:38:49Z</time>
      </trkpt>
      <trkpt lat="48.82298" lon="1.37275">
        <ele>145</ele>
        <time>2023-08-17T14:38:50Z</time>
      </trkpt>
      <trkpt lat="48.82297" lon="1.37278">
        <ele>145.2</ele>
        <time>2023-08-17T14:38:51Z</time>
      </trkpt>
      <trkpt lat="48.82297" lon="1.37281">
        <ele>145.2</ele>
        <time>2023-08-17T14:38:52Z</time>
      </trkpt>
      <trkpt lat="48.82296" lon="1.37283">
        <ele>145.4</ele>
        <time>2023-08-17T14:38:53Z</time>
      </trkpt>
      <trkpt lat="48.82294" lon="1.37287">
        <ele>145.6</ele>
        <time>2023-08-17T14:38:54Z</time>
      </trkpt>
      <trkpt lat="48.82292" lon="1.3729">
        <ele>145.6</ele>
        <time>2023-08-17T14:38:55Z</time>
      </trkpt>
      <trkpt lat="48.8229" lon="1.37293">
        <ele>145.6</ele>
        <time>2023-08-17T14:38:56Z</time>
      </trkpt>
      <trkpt lat="48.82287" lon="1.37297">
        <ele>145.6</ele>
        <time>2023-08-17T14:38:57Z</time>
      </trkpt>
      <trkpt lat="48.8228" lon="1.37306">
        <ele>145.8</ele>
        <time>2023-08-17T14:39:00Z</time>
      </trkpt>
      <trkpt lat="48.82278" lon="1.37308">
        <ele>146</ele>
        <time>2023-08-17T14:39:01Z</time>
      </trkpt>
      <trkpt lat="48.82275" lon="1.37311">
        <ele>146</ele>
        <time>2023-08-17T14:39:02Z</time>
      </trkpt>
      <trkpt lat="48.82258" lon="1.37333">
        <ele>146.2</ele>
        <time>2023-08-17T14:39:09Z</time>
      </trkpt>
      <trkpt lat="48.82253" lon="1.3734">
        <ele>146.2</ele>
        <time>2023-08-17T14:39:11Z</time>
      </trkpt>
      <trkpt lat="48.82242" lon="1.37354">
        <ele>146.2</ele>
        <time>2023-08-17T14:39:15Z</time>
      </trkpt>
      <trkpt lat="48.82229" lon="1.37376">
        <ele>146.4</ele>
        <time>2023-08-17T14:39:21Z</time>
      </trkpt>
      <trkpt lat="48.82227" lon="1.3738">
        <ele>146.4</ele>
        <time>2023-08-17T14:39:22Z</time>
      </trkpt>
      <trkpt lat="48.82211" lon="1.37398">
        <ele>146.6</ele>
        <time>2023-08-17T14:39:27Z</time>
      </trkpt>
      <trkpt lat="48.82209" lon="1.37401">
        <ele>146.6</ele>
        <time>2023-08-17T14:39:28Z</time>
      </trkpt>
      <trkpt lat="48.82207" lon="1.37405">
        <ele>146.6</ele>
        <time>2023-08-17T14:39:29Z</time>
      </trkpt>
      <trkpt lat="48.82201" lon="1.37411">
        <ele>146.6</ele>
        <time>2023-08-17T14:39:31Z</time>
      </trkpt>
      <trkpt lat="48.82182" lon="1.37437">
        <ele>147</ele>
        <time>2023-08-17T14:39:38Z</time>
      </trkpt>
      <trkpt lat="48.82179" lon="1.3744">
        <ele>147</ele>
        <time>2023-08-17T14:39:39Z</time>
      </trkpt>
      <trkpt lat="48.82175" lon="1.37446">
        <ele>147</ele>
        <time>2023-08-17T14:39:41Z</time>
      </trkpt>
      <trkpt lat="48.82168" lon="1.37454">
        <ele>147.2</ele>
        <time>2023-08-17T14:39:44Z</time>
      </trkpt>
      <trkpt lat="48.82165" lon="1.37457">
        <ele>147.2</ele>
        <time>2023-08-17T14:39:45Z</time>
      </trkpt>
      <trkpt lat="48.82163" lon="1.3746">
        <ele>147.2</ele>
        <time>2023-08-17T14:39:46Z</time>
      </trkpt>
      <trkpt lat="48.82148" lon="1.37473">
        <ele>147.4</ele>
        <time>2023-08-17T14:39:51Z</time>
      </trkpt>
      <trkpt lat="48.82137" lon="1.37484">
        <ele>147.4</ele>
        <time>2023-08-17T14:39:55Z</time>
      </trkpt>
      <trkpt lat="48.82124" lon="1.37492">
        <ele>147.4</ele>
        <time>2023-08-17T14:39:59Z</time>
      </trkpt>
      <trkpt lat="48.821" lon="1.37497">
        <ele>147.6</ele>
        <time>2023-08-17T14:40:05Z</time>
      </trkpt>
      <trkpt lat="48.82088" lon="1.37498">
        <ele>147.6</ele>
        <time>2023-08-17T14:40:08Z</time>
      </trkpt>
      <trkpt lat="48.8208" lon="1.37499">
        <ele>147.6</ele>
        <time>2023-08-17T14:40:10Z</time>
      </trkpt>
      <trkpt lat="48.82056" lon="1.37505">
        <ele>147.8</ele>
        <time>2023-08-17T14:40:16Z</time>
      </trkpt>
      <trkpt lat="48.82045" lon="1.37505">
        <ele>147.8</ele>
        <time>2023-08-17T14:40:19Z</time>
      </trkpt>
      <trkpt lat="48.82041" lon="1.37504">
        <ele>147.8</ele>
        <time>2023-08-17T14:40:20Z</time>
      </trkpt>
      <trkpt lat="48.8203" lon="1.37505">
        <ele>147.8</ele>
        <time>2023-08-17T14:40:23Z</time>
      </trkpt>
      <trkpt lat="48.82026" lon="1.37506">
        <ele>147.8</ele>
        <time>2023-08-17T14:40:24Z</time>
      </trkpt>
      <trkpt lat="48.82022" lon="1.37506">
        <ele>147.8</ele>
        <time>2023-08-17T14:40:25Z</time>
      </trkpt>
      <trkpt lat="48.81997" lon="1.37508">
        <ele>147.8</ele>
        <time>2023-08-17T14:40:31Z</time>
      </trkpt>
      <trkpt lat="48.8197" lon="1.37509">
        <ele>147.6</ele>
        <time>2023-08-17T14:40:38Z</time>
      </trkpt>
      <trkpt lat="48.81967" lon="1.37511">
        <ele>147.6</ele>
        <time>2023-08-17T14:40:39Z</time>
      </trkpt>
      <trkpt lat="48.81964" lon="1.37512">
        <ele>147.6</ele>
        <time>2023-08-17T14:40:40Z</time>
      </trkpt>
      <trkpt lat="48.81961" lon="1.37514">
        <ele>147.6</ele>
        <time>2023-08-17T14:40:41Z</time>
      </trkpt>
      <trkpt lat="48.81957" lon="1.37515">
        <ele>147.6</ele>
        <time>2023-08-17T14:40:42Z</time>
      </trkpt>
      <trkpt lat="48.81954" lon="1.37517">
        <ele>147.6</ele>
        <time>2023-08-17T14:40:43Z</time>
      </trkpt>
      <trkpt lat="48.81951" lon="1.37519">
        <ele>147.6</ele>
        <time>2023-08-17T14:40:44Z</time>
      </trkpt>
      <trkpt lat="48.81947" lon="1.3752">
        <ele>147.6</ele>
        <time>2023-08-17T14:40:45Z</time>
      </trkpt>
      <trkpt lat="48.81944" lon="1.37522">
        <ele>147.6</ele>
        <time>2023-08-17T14:40:46Z</time>
      </trkpt>
      <trkpt lat="48.81942" lon="1.37525">
        <ele>147.6</ele>
        <time>2023-08-17T14:40:47Z</time>
      </trkpt>
      <trkpt lat="48.81939" lon="1.37528">
        <ele>147.6</ele>
        <time>2023-08-17T14:40:48Z</time>
      </trkpt>
      <trkpt lat="48.81937" lon="1.37531">
        <ele>147.6</ele>
        <time>2023-08-17T14:40:49Z</time>
      </trkpt>
      <trkpt lat="48.81934" lon="1.37531">
        <ele>147.6</ele>
        <time>2023-08-17T14:40:50Z</time>
      </trkpt>
      <trkpt lat="48.81931" lon="1.37531">
        <ele>147.6</ele>
        <time>2023-08-17T14:40:51Z</time>
      </trkpt>
      <trkpt lat="48.81927" lon="1.37531">
        <ele>147.4</ele>
        <time>2023-08-17T14:40:52Z</time>
      </trkpt>
      <trkpt lat="48.81924" lon="1.37531">
        <ele>147.6</ele>
        <time>2023-08-17T14:40:53Z</time>
      </trkpt>
      <trkpt lat="48.8192" lon="1.37532">
        <ele>147.6</ele>
        <time>2023-08-17T14:40:54Z</time>
      </trkpt>
      <trkpt lat="48.81917" lon="1.37532">
        <ele>147.6</ele>
        <time>2023-08-17T14:40:55Z</time>
      </trkpt>
      <trkpt lat="48.81913" lon="1.37532">
        <ele>147.6</ele>
        <time>2023-08-17T14:40:56Z</time>
      </trkpt>
      <trkpt lat="48.8191" lon="1.37532">
        <ele>147.6</ele>
        <time>2023-08-17T14:40:57Z</time>
      </trkpt>
      <trkpt lat="48.81906" lon="1.37532">
        <ele>147.6</ele>
        <time>2023-08-17T14:40:58Z</time>
      </trkpt>
      <trkpt lat="48.81883" lon="1.3753">
        <ele>147.8</ele>
        <time>2023-08-17T14:41:04Z</time>
      </trkpt>
      <trkpt lat="48.81859" lon="1.37537">
        <ele>147.6</ele>
        <time>2023-08-17T14:41:10Z</time>
      </trkpt>
      <trkpt lat="48.81838" lon="1.37545">
        <ele>147.6</ele>
        <time>2023-08-17T14:41:16Z</time>
      </trkpt>
      <trkpt lat="48.81834" lon="1.37547">
        <ele>147.6</ele>
        <time>2023-08-17T14:41:17Z</time>
      </trkpt>
      <trkpt lat="48.81831" lon="1.37549">
        <ele>147.6</ele>
        <time>2023-08-17T14:41:18Z</time>
      </trkpt>
      <trkpt lat="48.81828" lon="1.37551">
        <ele>147.6</ele>
        <time>2023-08-17T14:41:19Z</time>
      </trkpt>
      <trkpt lat="48.81826" lon="1.37553">
        <ele>147.6</ele>
        <time>2023-08-17T14:41:20Z</time>
      </trkpt>
      <trkpt lat="48.81823" lon="1.37556">
        <ele>147.6</ele>
        <time>2023-08-17T14:41:21Z</time>
      </trkpt>
      <trkpt lat="48.81818" lon="1.3756">
        <ele>148</ele>
        <time>2023-08-17T14:41:23Z</time>
      </trkpt>
      <trkpt lat="48.81815" lon="1.37562">
        <ele>148</ele>
        <time>2023-08-17T14:41:24Z</time>
      </trkpt>
      <trkpt lat="48.81812" lon="1.37564">
        <ele>148</ele>
        <time>2023-08-17T14:41:25Z</time>
      </trkpt>
      <trkpt lat="48.81809" lon="1.37567">
        <ele>148</ele>
        <time>2023-08-17T14:41:26Z</time>
      </trkpt>
      <trkpt lat="48.81806" lon="1.3757">
        <ele>148</ele>
        <time>2023-08-17T14:41:27Z</time>
      </trkpt>
      <trkpt lat="48.81797" lon="1.37581">
        <ele>148</ele>
        <time>2023-08-17T14:41:31Z</time>
      </trkpt>
      <trkpt lat="48.81788" lon="1.37585">
        <ele>148</ele>
        <time>2023-08-17T14:41:34Z</time>
      </trkpt>
      <trkpt lat="48.81786" lon="1.37586">
        <ele>148.2</ele>
        <time>2023-08-17T14:41:35Z</time>
      </trkpt>
      <trkpt lat="48.81784" lon="1.37588">
        <ele>148.2</ele>
        <time>2023-08-17T14:41:36Z</time>
      </trkpt>
      <trkpt lat="48.81781" lon="1.37589">
        <ele>148.2</ele>
        <time>2023-08-17T14:41:37Z</time>
      </trkpt>
      <trkpt lat="48.81778" lon="1.37592">
        <ele>148.2</ele>
        <time>2023-08-17T14:41:38Z</time>
      </trkpt>
      <trkpt lat="48.81776" lon="1.37594">
        <ele>148.2</ele>
        <time>2023-08-17T14:41:39Z</time>
      </trkpt>
      <trkpt lat="48.81774" lon="1.37596">
        <ele>148.2</ele>
        <time>2023-08-17T14:41:40Z</time>
      </trkpt>
      <trkpt lat="48.81772" lon="1.376">
        <ele>148.4</ele>
        <time>2023-08-17T14:41:41Z</time>
      </trkpt>
      <trkpt lat="48.81771" lon="1.37603">
        <ele>148.4</ele>
        <time>2023-08-17T14:41:42Z</time>
      </trkpt>
      <trkpt lat="48.81769" lon="1.37607">
        <ele>148.4</ele>
        <time>2023-08-17T14:41:43Z</time>
      </trkpt>
      <trkpt lat="48.81766" lon="1.3761">
        <ele>148.4</ele>
        <time>2023-08-17T14:41:44Z</time>
      </trkpt>
      <trkpt lat="48.81764" lon="1.37614">
        <ele>148.4</ele>
        <time>2023-08-17T14:41:45Z</time>
      </trkpt>
      <trkpt lat="48.81761" lon="1.37618">
        <ele>148.8</ele>
        <time>2023-08-17T14:41:46Z</time>
      </trkpt>
      <trkpt lat="48.8176" lon="1.3762">
        <ele>148.8</ele>
        <time>2023-08-17T14:41:47Z</time>
      </trkpt>
      <trkpt lat="48.81758" lon="1.37623">
        <ele>148.8</ele>
        <time>2023-08-17T14:41:48Z</time>
      </trkpt>
      <trkpt lat="48.81757" lon="1.37626">
        <ele>148.8</ele>
        <time>2023-08-17T14:41:49Z</time>
      </trkpt>
      <trkpt lat="48.81756" lon="1.37628">
        <ele>148.8</ele>
        <time>2023-08-17T14:41:50Z</time>
      </trkpt>
      <trkpt lat="48.81754" lon="1.37632">
        <ele>148.8</ele>
        <time>2023-08-17T14:41:51Z</time>
      </trkpt>
      <trkpt lat="48.81749" lon="1.37641">
        <ele>148.8</ele>
        <time>2023-08-17T14:41:53Z</time>
      </trkpt>
      <trkpt lat="48.81742" lon="1.37655">
        <ele>148.8</ele>
        <time>2023-08-17T14:41:56Z</time>
      </trkpt>
      <trkpt lat="48.81742" lon="1.37658">
        <ele>148.8</ele>
        <time>2023-08-17T14:41:57Z</time>
      </trkpt>
      <trkpt lat="48.81741" lon="1.37663">
        <ele>148.8</ele>
        <time>2023-08-17T14:41:58Z</time>
      </trkpt>
      <trkpt lat="48.81742" lon="1.3767">
        <ele>148.8</ele>
        <time>2023-08-17T14:41:59Z</time>
      </trkpt>
      <trkpt lat="48.81741" lon="1.37674">
        <ele>149</ele>
        <time>2023-08-17T14:42:00Z</time>
      </trkpt>
      <trkpt lat="48.81741" lon="1.37695">
        <ele>149</ele>
        <time>2023-08-17T14:42:05Z</time>
      </trkpt>
      <trkpt lat="48.81742" lon="1.37698">
        <ele>149</ele>
        <time>2023-08-17T14:42:06Z</time>
      </trkpt>
      <trkpt lat="48.81744" lon="1.37699">
        <ele>149</ele>
        <time>2023-08-17T14:42:07Z</time>
      </trkpt>
      <trkpt lat="48.81751" lon="1.37702">
        <ele>149</ele>
        <time>2023-08-17T14:42:10Z</time>
      </trkpt>
      <trkpt lat="48.81753" lon="1.37702">
        <ele>149</ele>
        <time>2023-08-17T14:42:11Z</time>
      </trkpt>
      <trkpt lat="48.81755" lon="1.37702">
        <ele>149</ele>
        <time>2023-08-17T14:42:12Z</time>
      </trkpt>
      <trkpt lat="48.81758" lon="1.37703">
        <ele>149.2</ele>
        <time>2023-08-17T14:42:13Z</time>
      </trkpt>
      <trkpt lat="48.81761" lon="1.37703">
        <ele>149.2</ele>
        <time>2023-08-17T14:42:14Z</time>
      </trkpt>
      <trkpt lat="48.81763" lon="1.37703">
        <ele>149.2</ele>
        <time>2023-08-17T14:42:15Z</time>
      </trkpt>
      <trkpt lat="48.81772" lon="1.37704">
        <ele>149.2</ele>
        <time>2023-08-17T14:42:18Z</time>
      </trkpt>
      <trkpt lat="48.81783" lon="1.37705">
        <ele>149.2</ele>
        <time>2023-08-17T14:42:23Z</time>
      </trkpt>
      <trkpt lat="48.81785" lon="1.37704">
        <ele>149.2</ele>
        <time>2023-08-17T14:42:24Z</time>
      </trkpt>
      <trkpt lat="48.81786" lon="1.37702">
        <ele>149.2</ele>
        <time>2023-08-17T14:42:25Z</time>
      </trkpt>
      <trkpt lat="48.81787" lon="1.37701">
        <ele>149.2</ele>
        <time>2023-08-17T14:42:26Z</time>
      </trkpt>
      <trkpt lat="48.81787" lon="1.377">
        <ele>149.2</ele>
        <time>2023-08-17T14:42:27Z</time>
      </trkpt>
      <trkpt lat="48.81787" lon="1.37699">
        <ele>149.2</ele>
        <time>2023-08-17T14:42:28Z</time>
      </trkpt>
      <trkpt lat="48.81787" lon="1.37698">
        <ele>149.2</ele>
        <time>2023-08-17T14:42:29Z</time>
      </trkpt>
      <trkpt lat="48.81787" lon="1.37698">
        <ele>149.2</ele>
        <time>2023-08-17T14:42:30Z</time>
      </trkpt>
      <trkpt lat="48.81786" lon="1.37695">
        <ele>149.8</ele>
        <time>2023-08-17T14:50:15Z</time>
      </trkpt>
      <trkpt lat="48.81781" lon="1.37691">
        <ele>149.8</ele>
        <time>2023-08-17T14:50:18Z</time>
      </trkpt>
      <trkpt lat="48.81771" lon="1.37686">
        <ele>149.8</ele>
        <time>2023-08-17T14:50:23Z</time>
      </trkpt>
      <trkpt lat="48.81768" lon="1.37686">
        <ele>149.8</ele>
        <time>2023-08-17T14:50:24Z</time>
      </trkpt>
      <trkpt lat="48.81766" lon="1.37687">
        <ele>149.8</ele>
        <time>2023-08-17T14:50:25Z</time>
      </trkpt>
      <trkpt lat="48.81755" lon="1.37694">
        <ele>149.8</ele>
        <time>2023-08-17T14:50:30Z</time>
      </trkpt>
      <trkpt lat="48.81743" lon="1.37701">
        <ele>149.8</ele>
        <time>2023-08-17T14:50:35Z</time>
      </trkpt>
      <trkpt lat="48.81741" lon="1.377">
        <ele>149.8</ele>
        <time>2023-08-17T14:50:36Z</time>
      </trkpt>
      <trkpt lat="48.81739" lon="1.37698">
        <ele>149.8</ele>
        <time>2023-08-17T14:50:37Z</time>
      </trkpt>
      <trkpt lat="48.81735" lon="1.37691">
        <ele>150</ele>
        <time>2023-08-17T14:50:39Z</time>
      </trkpt>
      <trkpt lat="48.81733" lon="1.3769">
        <ele>150</ele>
        <time>2023-08-17T14:50:40Z</time>
      </trkpt>
      <trkpt lat="48.81732" lon="1.37691">
        <ele>150</ele>
        <time>2023-08-17T14:50:41Z</time>
      </trkpt>
      <trkpt lat="48.8173" lon="1.37694">
        <ele>150</ele>
        <time>2023-08-17T14:50:42Z</time>
      </trkpt>
      <trkpt lat="48.81728" lon="1.37696">
        <ele>150</ele>
        <time>2023-08-17T14:50:43Z</time>
      </trkpt>
      <trkpt lat="48.81713" lon="1.37713">
        <ele>150</ele>
        <time>2023-08-17T14:50:50Z</time>
      </trkpt>
      <trkpt lat="48.81698" lon="1.37721">
        <ele>150</ele>
        <time>2023-08-17T14:50:55Z</time>
      </trkpt>
      <trkpt lat="48.81681" lon="1.37728">
        <ele>150.2</ele>
        <time>2023-08-17T14:51:00Z</time>
      </trkpt>
      <trkpt lat="48.81654" lon="1.37743">
        <ele>150.2</ele>
        <time>2023-08-17T14:51:08Z</time>
      </trkpt>
      <trkpt lat="48.81636" lon="1.37755">
        <ele>150.2</ele>
        <time>2023-08-17T14:51:14Z</time>
      </trkpt>
      <trkpt lat="48.81633" lon="1.37758">
        <ele>150.2</ele>
        <time>2023-08-17T14:51:15Z</time>
      </trkpt>
      <trkpt lat="48.81629" lon="1.37761">
        <ele>150.2</ele>
        <time>2023-08-17T14:51:16Z</time>
      </trkpt>
      <trkpt lat="48.81616" lon="1.37776">
        <ele>150.2</ele>
        <time>2023-08-17T14:51:20Z</time>
      </trkpt>
      <trkpt lat="48.81607" lon="1.37785">
        <ele>150</ele>
        <time>2023-08-17T14:51:23Z</time>
      </trkpt>
      <trkpt lat="48.81593" lon="1.37796">
        <ele>149.8</ele>
        <time>2023-08-17T14:51:27Z</time>
      </trkpt>
      <trkpt lat="48.81579" lon="1.37807">
        <ele>149.6</ele>
        <time>2023-08-17T14:51:31Z</time>
      </trkpt>
      <trkpt lat="48.81575" lon="1.37809">
        <ele>149.4</ele>
        <time>2023-08-17T14:51:32Z</time>
      </trkpt>
      <trkpt lat="48.81554" lon="1.3783">
        <ele>149.2</ele>
        <time>2023-08-17T14:51:38Z</time>
      </trkpt>
      <trkpt lat="48.81551" lon="1.37833">
        <ele>149.2</ele>
        <time>2023-08-17T14:51:39Z</time>
      </trkpt>
      <trkpt lat="48.81548" lon="1.37836">
        <ele>149</ele>
        <time>2023-08-17T14:51:40Z</time>
      </trkpt>
      <trkpt lat="48.81533" lon="1.37849">
        <ele>148.6</ele>
        <time>2023-08-17T14:51:44Z</time>
      </trkpt>
      <trkpt lat="48.81529" lon="1.37853">
        <ele>148.6</ele>
        <time>2023-08-17T14:51:45Z</time>
      </trkpt>
      <trkpt lat="48.81521" lon="1.3786">
        <ele>148.6</ele>
        <time>2023-08-17T14:51:47Z</time>
      </trkpt>
      <trkpt lat="48.81515" lon="1.37869">
        <ele>148.4</ele>
        <time>2023-08-17T14:51:49Z</time>
      </trkpt>
      <trkpt lat="48.81514" lon="1.37875">
        <ele>148.2</ele>
        <time>2023-08-17T14:51:50Z</time>
      </trkpt>
      <trkpt lat="48.81513" lon="1.3788">
        <ele>148</ele>
        <time>2023-08-17T14:51:51Z</time>
      </trkpt>
      <trkpt lat="48.81512" lon="1.37885">
        <ele>148</ele>
        <time>2023-08-17T14:51:52Z</time>
      </trkpt>
      <trkpt lat="48.8151" lon="1.3789">
        <ele>148</ele>
        <time>2023-08-17T14:51:53Z</time>
      </trkpt>
      <trkpt lat="48.81508" lon="1.37894">
        <ele>147.8</ele>
        <time>2023-08-17T14:51:54Z</time>
      </trkpt>
      <trkpt lat="48.81506" lon="1.37898">
        <ele>147.8</ele>
        <time>2023-08-17T14:51:55Z</time>
      </trkpt>
      <trkpt lat="48.81501" lon="1.37912">
        <ele>147.6</ele>
        <time>2023-08-17T14:51:58Z</time>
      </trkpt>
      <trkpt lat="48.81499" lon="1.37916">
        <ele>147.6</ele>
        <time>2023-08-17T14:51:59Z</time>
      </trkpt>
      <trkpt lat="48.81497" lon="1.37921">
        <ele>147.6</ele>
        <time>2023-08-17T14:52:00Z</time>
      </trkpt>
      <trkpt lat="48.81495" lon="1.37927">
        <ele>147.6</ele>
        <time>2023-08-17T14:52:01Z</time>
      </trkpt>
      <trkpt lat="48.81492" lon="1.37944">
        <ele>147.6</ele>
        <time>2023-08-17T14:52:04Z</time>
      </trkpt>
      <trkpt lat="48.81486" lon="1.37961">
        <ele>147.4</ele>
        <time>2023-08-17T14:52:07Z</time>
      </trkpt>
      <trkpt lat="48.81483" lon="1.37965">
        <ele>147.4</ele>
        <time>2023-08-17T14:52:08Z</time>
      </trkpt>
      <trkpt lat="48.8148" lon="1.3797">
        <ele>147.4</ele>
        <time>2023-08-17T14:52:09Z</time>
      </trkpt>
      <trkpt lat="48.81477" lon="1.37975">
        <ele>147.4</ele>
        <time>2023-08-17T14:52:10Z</time>
      </trkpt>
      <trkpt lat="48.81459" lon="1.37994">
        <ele>147.4</ele>
        <time>2023-08-17T14:52:15Z</time>
      </trkpt>
      <trkpt lat="48.81438" lon="1.38007">
        <ele>147.4</ele>
        <time>2023-08-17T14:52:20Z</time>
      </trkpt>
      <trkpt lat="48.81435" lon="1.38011">
        <ele>147.4</ele>
        <time>2023-08-17T14:52:21Z</time>
      </trkpt>
      <trkpt lat="48.81433" lon="1.38015">
        <ele>147.4</ele>
        <time>2023-08-17T14:52:22Z</time>
      </trkpt>
      <trkpt lat="48.81431" lon="1.38021">
        <ele>147.2</ele>
        <time>2023-08-17T14:52:23Z</time>
      </trkpt>
      <trkpt lat="48.8143" lon="1.38024">
        <ele>147.2</ele>
        <time>2023-08-17T14:52:24Z</time>
      </trkpt>
      <trkpt lat="48.81426" lon="1.3803">
        <ele>147.2</ele>
        <time>2023-08-17T14:52:25Z</time>
      </trkpt>
      <trkpt lat="48.81404" lon="1.38052">
        <ele>147</ele>
        <time>2023-08-17T14:52:31Z</time>
      </trkpt>
      <trkpt lat="48.81399" lon="1.3806">
        <ele>146.8</ele>
        <time>2023-08-17T14:52:33Z</time>
      </trkpt>
      <trkpt lat="48.81398" lon="1.38065">
        <ele>146.8</ele>
        <time>2023-08-17T14:52:34Z</time>
      </trkpt>
      <trkpt lat="48.81399" lon="1.3807">
        <ele>146.8</ele>
        <time>2023-08-17T14:52:35Z</time>
      </trkpt>
      <trkpt lat="48.81402" lon="1.38075">
        <ele>146.8</ele>
        <time>2023-08-17T14:52:36Z</time>
      </trkpt>
      <trkpt lat="48.81405" lon="1.38079">
        <ele>146.8</ele>
        <time>2023-08-17T14:52:37Z</time>
      </trkpt>
      <trkpt lat="48.81407" lon="1.38083">
        <ele>146.8</ele>
        <time>2023-08-17T14:52:38Z</time>
      </trkpt>
      <trkpt lat="48.8141" lon="1.38087">
        <ele>146.6</ele>
        <time>2023-08-17T14:52:39Z</time>
      </trkpt>
      <trkpt lat="48.81412" lon="1.38093">
        <ele>146.6</ele>
        <time>2023-08-17T14:52:40Z</time>
      </trkpt>
      <trkpt lat="48.81414" lon="1.38098">
        <ele>146.6</ele>
        <time>2023-08-17T14:52:41Z</time>
      </trkpt>
      <trkpt lat="48.81415" lon="1.38102">
        <ele>146.6</ele>
        <time>2023-08-17T14:52:42Z</time>
      </trkpt>
      <trkpt lat="48.81417" lon="1.38105">
        <ele>146.6</ele>
        <time>2023-08-17T14:52:43Z</time>
      </trkpt>
      <trkpt lat="48.81419" lon="1.38108">
        <ele>146.6</ele>
        <time>2023-08-17T14:52:44Z</time>
      </trkpt>
      <trkpt lat="48.81422" lon="1.38112">
        <ele>146.8</ele>
        <time>2023-08-17T14:52:45Z</time>
      </trkpt>
      <trkpt lat="48.81422" lon="1.38116">
        <ele>146.8</ele>
        <time>2023-08-17T14:52:46Z</time>
      </trkpt>
      <trkpt lat="48.81422" lon="1.3812">
        <ele>146.8</ele>
        <time>2023-08-17T14:52:47Z</time>
      </trkpt>
      <trkpt lat="48.81422" lon="1.38125">
        <ele>146.8</ele>
        <time>2023-08-17T14:52:48Z</time>
      </trkpt>
      <trkpt lat="48.81423" lon="1.3813">
        <ele>146.8</ele>
        <time>2023-08-17T14:52:49Z</time>
      </trkpt>
      <trkpt lat="48.81423" lon="1.38134">
        <ele>146.8</ele>
        <time>2023-08-17T14:52:50Z</time>
      </trkpt>
      <trkpt lat="48.81422" lon="1.38145">
        <ele>146.8</ele>
        <time>2023-08-17T14:52:52Z</time>
      </trkpt>
      <trkpt lat="48.8142" lon="1.38155">
        <ele>147</ele>
        <time>2023-08-17T14:52:54Z</time>
      </trkpt>
      <trkpt lat="48.81418" lon="1.3816">
        <ele>147</ele>
        <time>2023-08-17T14:52:55Z</time>
      </trkpt>
      <trkpt lat="48.81416" lon="1.38165">
        <ele>147</ele>
        <time>2023-08-17T14:52:56Z</time>
      </trkpt>
      <trkpt lat="48.81415" lon="1.38169">
        <ele>147</ele>
        <time>2023-08-17T14:52:57Z</time>
      </trkpt>
      <trkpt lat="48.81411" lon="1.38192">
        <ele>147</ele>
        <time>2023-08-17T14:53:02Z</time>
      </trkpt>
      <trkpt lat="48.8141" lon="1.38197">
        <ele>147</ele>
        <time>2023-08-17T14:53:03Z</time>
      </trkpt>
      <trkpt lat="48.81405" lon="1.38208">
        <ele>147</ele>
        <time>2023-08-17T14:53:05Z</time>
      </trkpt>
      <trkpt lat="48.81403" lon="1.38212">
        <ele>147</ele>
        <time>2023-08-17T14:53:06Z</time>
      </trkpt>
      <trkpt lat="48.814" lon="1.38217">
        <ele>147.2</ele>
        <time>2023-08-17T14:53:07Z</time>
      </trkpt>
      <trkpt lat="48.81399" lon="1.3822">
        <ele>147.2</ele>
        <time>2023-08-17T14:53:08Z</time>
      </trkpt>
      <trkpt lat="48.81398" lon="1.38223">
        <ele>147.2</ele>
        <time>2023-08-17T14:53:09Z</time>
      </trkpt>
      <trkpt lat="48.81398" lon="1.38227">
        <ele>147.2</ele>
        <time>2023-08-17T14:53:10Z</time>
      </trkpt>
      <trkpt lat="48.81398" lon="1.38227">
        <ele>147.2</ele>
        <time>2023-08-17T14:53:11Z</time>
      </trkpt>
      <trkpt lat="48.81398" lon="1.38227">
        <ele>147.2</ele>
        <time>2023-08-17T14:53:13Z</time>
      </trkpt>
      <trkpt lat="48.81398" lon="1.38227">
        <ele>147.8</ele>
        <time>2023-08-17T14:53:21Z</time>
      </trkpt>
      <trkpt lat="48.81396" lon="1.38231">
        <ele>148</ele>
        <time>2023-08-17T14:53:31Z</time>
      </trkpt>
      <trkpt lat="48.81394" lon="1.38234">
        <ele>148</ele>
        <time>2023-08-17T14:53:32Z</time>
      </trkpt>
      <trkpt lat="48.81392" lon="1.38238">
        <ele>148</ele>
        <time>2023-08-17T14:53:33Z</time>
      </trkpt>
      <trkpt lat="48.8139" lon="1.38241">
        <ele>148</ele>
        <time>2023-08-17T14:53:34Z</time>
      </trkpt>
      <trkpt lat="48.81387" lon="1.38248">
        <ele>148</ele>
        <time>2023-08-17T14:53:36Z</time>
      </trkpt>
      <trkpt lat="48.81382" lon="1.38255">
        <ele>148</ele>
        <time>2023-08-17T14:53:38Z</time>
      </trkpt>
      <trkpt lat="48.81376" lon="1.3827">
        <ele>148</ele>
        <time>2023-08-17T14:53:42Z</time>
      </trkpt>
      <trkpt lat="48.81376" lon="1.38274">
        <ele>148</ele>
        <time>2023-08-17T14:53:43Z</time>
      </trkpt>
      <trkpt lat="48.81376" lon="1.38277">
        <ele>148</ele>
        <time>2023-08-17T14:53:44Z</time>
      </trkpt>
      <trkpt lat="48.81376" lon="1.38282">
        <ele>148</ele>
        <time>2023-08-17T14:53:45Z</time>
      </trkpt>
      <trkpt lat="48.81376" lon="1.38306">
        <ele>148</ele>
        <time>2023-08-17T14:53:50Z</time>
      </trkpt>
      <trkpt lat="48.81377" lon="1.3831">
        <ele>148</ele>
        <time>2023-08-17T14:53:51Z</time>
      </trkpt>
      <trkpt lat="48.81379" lon="1.38314">
        <ele>148</ele>
        <time>2023-08-17T14:53:52Z</time>
      </trkpt>
      <trkpt lat="48.81381" lon="1.38334">
        <ele>148.2</ele>
        <time>2023-08-17T14:53:56Z</time>
      </trkpt>
      <trkpt lat="48.81382" lon="1.38339">
        <ele>148.2</ele>
        <time>2023-08-17T14:53:57Z</time>
      </trkpt>
      <trkpt lat="48.81382" lon="1.3834">
        <ele>148.2</ele>
        <time>2023-08-17T14:53:58Z</time>
      </trkpt>
      <trkpt lat="48.81382" lon="1.3834">
        <ele>148.2</ele>
        <time>2023-08-17T14:53:59Z</time>
      </trkpt>
      <trkpt lat="48.81382" lon="1.3834">
        <ele>148.2</ele>
        <time>2023-08-17T14:54:04Z</time>
      </trkpt>
      <trkpt lat="48.81382" lon="1.3834">
        <ele>148</ele>
        <time>2023-08-17T14:54:17Z</time>
      </trkpt>
      <trkpt lat="48.81382" lon="1.3834">
        <ele>148</ele>
        <time>2023-08-17T14:54:26Z</time>
      </trkpt>
      <trkpt lat="48.81382" lon="1.38345">
        <ele>148.2</ele>
        <time>2023-08-17T14:54:32Z</time>
      </trkpt>
      <trkpt lat="48.81381" lon="1.38347">
        <ele>148.4</ele>
        <time>2023-08-17T14:54:33Z</time>
      </trkpt>
      <trkpt lat="48.8138" lon="1.38354">
        <ele>148.4</ele>
        <time>2023-08-17T14:54:35Z</time>
      </trkpt>
      <trkpt lat="48.81375" lon="1.38366">
        <ele>148.4</ele>
        <time>2023-08-17T14:54:38Z</time>
      </trkpt>
      <trkpt lat="48.81362" lon="1.38386">
        <ele>148.6</ele>
        <time>2023-08-17T14:54:44Z</time>
      </trkpt>
      <trkpt lat="48.81348" lon="1.38412">
        <ele>148.8</ele>
        <time>2023-08-17T14:54:51Z</time>
      </trkpt>
      <trkpt lat="48.81342" lon="1.38425">
        <ele>148.8</ele>
        <time>2023-08-17T14:54:54Z</time>
      </trkpt>
      <trkpt lat="48.8134" lon="1.38428">
        <ele>148.8</ele>
        <time>2023-08-17T14:54:55Z</time>
      </trkpt>
      <trkpt lat="48.81324" lon="1.38451">
        <ele>149</ele>
        <time>2023-08-17T14:55:01Z</time>
      </trkpt>
      <trkpt lat="48.81316" lon="1.38468">
        <ele>149</ele>
        <time>2023-08-17T14:55:05Z</time>
      </trkpt>
      <trkpt lat="48.81315" lon="1.38472">
        <ele>149</ele>
        <time>2023-08-17T14:55:06Z</time>
      </trkpt>
      <trkpt lat="48.81313" lon="1.38477">
        <ele>149</ele>
        <time>2023-08-17T14:55:07Z</time>
      </trkpt>
      <trkpt lat="48.813" lon="1.38502">
        <ele>149</ele>
        <time>2023-08-17T14:55:13Z</time>
      </trkpt>
      <trkpt lat="48.81283" lon="1.38519">
        <ele>149.2</ele>
        <time>2023-08-17T14:55:19Z</time>
      </trkpt>
      <trkpt lat="48.81267" lon="1.38532">
        <ele>149.2</ele>
        <time>2023-08-17T14:55:24Z</time>
      </trkpt>
      <trkpt lat="48.81257" lon="1.38541">
        <ele>149.2</ele>
        <time>2023-08-17T14:55:27Z</time>
      </trkpt>
      <trkpt lat="48.81232" lon="1.38564">
        <ele>149.2</ele>
        <time>2023-08-17T14:55:34Z</time>
      </trkpt>
      <trkpt lat="48.81223" lon="1.38574">
        <ele>149.2</ele>
        <time>2023-08-17T14:55:37Z</time>
      </trkpt>
      <trkpt lat="48.8122" lon="1.38577">
        <ele>149.2</ele>
        <time>2023-08-17T14:55:38Z</time>
      </trkpt>
      <trkpt lat="48.81217" lon="1.3858">
        <ele>149.2</ele>
        <time>2023-08-17T14:55:39Z</time>
      </trkpt>
      <trkpt lat="48.81215" lon="1.38584">
        <ele>149.2</ele>
        <time>2023-08-17T14:55:40Z</time>
      </trkpt>
      <trkpt lat="48.81212" lon="1.38587">
        <ele>149.2</ele>
        <time>2023-08-17T14:55:41Z</time>
      </trkpt>
      <trkpt lat="48.81195" lon="1.38605">
        <ele>149.2</ele>
        <time>2023-08-17T14:55:46Z</time>
      </trkpt>
      <trkpt lat="48.81178" lon="1.3862">
        <ele>149.2</ele>
        <time>2023-08-17T14:55:51Z</time>
      </trkpt>
      <trkpt lat="48.81154" lon="1.38636">
        <ele>149.4</ele>
        <time>2023-08-17T14:55:57Z</time>
      </trkpt>
      <trkpt lat="48.81138" lon="1.38656">
        <ele>149.4</ele>
        <time>2023-08-17T14:56:02Z</time>
      </trkpt>
      <trkpt lat="48.81125" lon="1.38686">
        <ele>149.4</ele>
        <time>2023-08-17T14:56:08Z</time>
      </trkpt>
      <trkpt lat="48.81124" lon="1.38691">
        <ele>149.4</ele>
        <time>2023-08-17T14:56:09Z</time>
      </trkpt>
      <trkpt lat="48.81124" lon="1.38696">
        <ele>149.4</ele>
        <time>2023-08-17T14:56:10Z</time>
      </trkpt>
      <trkpt lat="48.81124" lon="1.38701">
        <ele>149.4</ele>
        <time>2023-08-17T14:56:11Z</time>
      </trkpt>
      <trkpt lat="48.81124" lon="1.38706">
        <ele>149.4</ele>
        <time>2023-08-17T14:56:12Z</time>
      </trkpt>
      <trkpt lat="48.81123" lon="1.38712">
        <ele>149.4</ele>
        <time>2023-08-17T14:56:13Z</time>
      </trkpt>
      <trkpt lat="48.8112" lon="1.38737">
        <ele>149.4</ele>
        <time>2023-08-17T14:56:17Z</time>
      </trkpt>
      <trkpt lat="48.81119" lon="1.38745">
        <ele>149.4</ele>
        <time>2023-08-17T14:56:18Z</time>
      </trkpt>
      <trkpt lat="48.81118" lon="1.38749">
        <ele>149.4</ele>
        <time>2023-08-17T14:56:19Z</time>
      </trkpt>
      <trkpt lat="48.81118" lon="1.38755">
        <ele>149.2</ele>
        <time>2023-08-17T14:56:20Z</time>
      </trkpt>
      <trkpt lat="48.81116" lon="1.38783">
        <ele>149.2</ele>
        <time>2023-08-17T14:56:24Z</time>
      </trkpt>
      <trkpt lat="48.81115" lon="1.38788">
        <ele>149.2</ele>
        <time>2023-08-17T14:56:25Z</time>
      </trkpt>
      <trkpt lat="48.81113" lon="1.38817">
        <ele>149.2</ele>
        <time>2023-08-17T14:56:29Z</time>
      </trkpt>
      <trkpt lat="48.81112" lon="1.38822">
        <ele>149.2</ele>
        <time>2023-08-17T14:56:30Z</time>
      </trkpt>
      <trkpt lat="48.81109" lon="1.38834">
        <ele>149.2</ele>
        <time>2023-08-17T14:56:32Z</time>
      </trkpt>
      <trkpt lat="48.81107" lon="1.38841">
        <ele>149.2</ele>
        <time>2023-08-17T14:56:33Z</time>
      </trkpt>
      <trkpt lat="48.81107" lon="1.38864">
        <ele>149.2</ele>
        <time>2023-08-17T14:56:36Z</time>
      </trkpt>
      <trkpt lat="48.81108" lon="1.38869">
        <ele>149.2</ele>
        <time>2023-08-17T14:56:37Z</time>
      </trkpt>
      <trkpt lat="48.81109" lon="1.38876">
        <ele>149.2</ele>
        <time>2023-08-17T14:56:38Z</time>
      </trkpt>
      <trkpt lat="48.81108" lon="1.38884">
        <ele>149.2</ele>
        <time>2023-08-17T14:56:39Z</time>
      </trkpt>
      <trkpt lat="48.81107" lon="1.38897">
        <ele>149.2</ele>
        <time>2023-08-17T14:56:41Z</time>
      </trkpt>
      <trkpt lat="48.81107" lon="1.38932">
        <ele>149.2</ele>
        <time>2023-08-17T14:56:46Z</time>
      </trkpt>
      <trkpt lat="48.81105" lon="1.38956">
        <ele>149.2</ele>
        <time>2023-08-17T14:56:49Z</time>
      </trkpt>
      <trkpt lat="48.81104" lon="1.38962">
        <ele>149.2</ele>
        <time>2023-08-17T14:56:50Z</time>
      </trkpt>
      <trkpt lat="48.81103" lon="1.38969">
        <ele>149</ele>
        <time>2023-08-17T14:56:51Z</time>
      </trkpt>
      <trkpt lat="48.81103" lon="1.38976">
        <ele>149</ele>
        <time>2023-08-17T14:56:52Z</time>
      </trkpt>
      <trkpt lat="48.81104" lon="1.38986">
        <ele>149</ele>
        <time>2023-08-17T14:56:53Z</time>
      </trkpt>
      <trkpt lat="48.81106" lon="1.38992">
        <ele>149</ele>
        <time>2023-08-17T14:56:54Z</time>
      </trkpt>
      <trkpt lat="48.81108" lon="1.38998">
        <ele>149</ele>
        <time>2023-08-17T14:56:55Z</time>
      </trkpt>
      <trkpt lat="48.81111" lon="1.39004">
        <ele>149</ele>
        <time>2023-08-17T14:56:56Z</time>
      </trkpt>
      <trkpt lat="48.81113" lon="1.39011">
        <ele>149</ele>
        <time>2023-08-17T14:56:57Z</time>
      </trkpt>
      <trkpt lat="48.81116" lon="1.39016">
        <ele>149</ele>
        <time>2023-08-17T14:56:58Z</time>
      </trkpt>
      <trkpt lat="48.81118" lon="1.39022">
        <ele>149</ele>
        <time>2023-08-17T14:56:59Z</time>
      </trkpt>
      <trkpt lat="48.8112" lon="1.39027">
        <ele>149</ele>
        <time>2023-08-17T14:57:00Z</time>
      </trkpt>
      <trkpt lat="48.81123" lon="1.39038">
        <ele>148.8</ele>
        <time>2023-08-17T14:57:02Z</time>
      </trkpt>
      <trkpt lat="48.81122" lon="1.39046">
        <ele>148.8</ele>
        <time>2023-08-17T14:57:03Z</time>
      </trkpt>
      <trkpt lat="48.81124" lon="1.39056">
        <ele>148.8</ele>
        <time>2023-08-17T14:57:04Z</time>
      </trkpt>
      <trkpt lat="48.81125" lon="1.39069">
        <ele>148.8</ele>
        <time>2023-08-17T14:57:06Z</time>
      </trkpt>
      <trkpt lat="48.8113" lon="1.39104">
        <ele>148.6</ele>
        <time>2023-08-17T14:57:11Z</time>
      </trkpt>
      <trkpt lat="48.81131" lon="1.39132">
        <ele>148.6</ele>
        <time>2023-08-17T14:57:15Z</time>
      </trkpt>
      <trkpt lat="48.8113" lon="1.39137">
        <ele>148.6</ele>
        <time>2023-08-17T14:57:16Z</time>
      </trkpt>
      <trkpt lat="48.8113" lon="1.39145">
        <ele>148.6</ele>
        <time>2023-08-17T14:57:17Z</time>
      </trkpt>
      <trkpt lat="48.8113" lon="1.3915">
        <ele>148.6</ele>
        <time>2023-08-17T14:57:18Z</time>
      </trkpt>
      <trkpt lat="48.81131" lon="1.39157">
        <ele>148.6</ele>
        <time>2023-08-17T14:57:19Z</time>
      </trkpt>
      <trkpt lat="48.81138" lon="1.39192">
        <ele>148.6</ele>
        <time>2023-08-17T14:57:24Z</time>
      </trkpt>
      <trkpt lat="48.81137" lon="1.392">
        <ele>148.6</ele>
        <time>2023-08-17T14:57:25Z</time>
      </trkpt>
      <trkpt lat="48.81138" lon="1.39206">
        <ele>148.6</ele>
        <time>2023-08-17T14:57:26Z</time>
      </trkpt>
      <trkpt lat="48.81142" lon="1.3923">
        <ele>148.4</ele>
        <time>2023-08-17T14:57:30Z</time>
      </trkpt>
      <trkpt lat="48.81143" lon="1.39235">
        <ele>148.4</ele>
        <time>2023-08-17T14:57:31Z</time>
      </trkpt>
      <trkpt lat="48.81147" lon="1.39269">
        <ele>148.2</ele>
        <time>2023-08-17T14:57:36Z</time>
      </trkpt>
      <trkpt lat="48.81151" lon="1.39274">
        <ele>148.2</ele>
        <time>2023-08-17T14:57:37Z</time>
      </trkpt>
      <trkpt lat="48.81154" lon="1.39278">
        <ele>148</ele>
        <time>2023-08-17T14:57:38Z</time>
      </trkpt>
      <trkpt lat="48.81157" lon="1.39283">
        <ele>148</ele>
        <time>2023-08-17T14:57:39Z</time>
      </trkpt>
      <trkpt lat="48.81158" lon="1.39289">
        <ele>148</ele>
        <time>2023-08-17T14:57:40Z</time>
      </trkpt>
      <trkpt lat="48.81167" lon="1.39301">
        <ele>148</ele>
        <time>2023-08-17T14:57:43Z</time>
      </trkpt>
      <trkpt lat="48.81171" lon="1.39302">
        <ele>148</ele>
        <time>2023-08-17T14:57:44Z</time>
      </trkpt>
      <trkpt lat="48.81175" lon="1.39304">
        <ele>148</ele>
        <time>2023-08-17T14:57:45Z</time>
      </trkpt>
      <trkpt lat="48.81179" lon="1.39305">
        <ele>148</ele>
        <time>2023-08-17T14:57:46Z</time>
      </trkpt>
      <trkpt lat="48.81181" lon="1.39305">
        <ele>148</ele>
        <time>2023-08-17T14:57:47Z</time>
      </trkpt>
      <trkpt lat="48.81184" lon="1.39304">
        <ele>148</ele>
        <time>2023-08-17T14:57:48Z</time>
      </trkpt>
      <trkpt lat="48.81188" lon="1.39302">
        <ele>147.8</ele>
        <time>2023-08-17T14:57:49Z</time>
      </trkpt>
      <trkpt lat="48.81191" lon="1.39301">
        <ele>147.8</ele>
        <time>2023-08-17T14:57:50Z</time>
      </trkpt>
      <trkpt lat="48.81202" lon="1.39301">
        <ele>147.8</ele>
        <time>2023-08-17T14:57:53Z</time>
      </trkpt>
      <trkpt lat="48.81207" lon="1.39301">
        <ele>147.8</ele>
        <time>2023-08-17T14:57:54Z</time>
      </trkpt>
      <trkpt lat="48.81225" lon="1.39303">
        <ele>147.8</ele>
        <time>2023-08-17T14:57:58Z</time>
      </trkpt>
      <trkpt lat="48.81233" lon="1.393">
        <ele>147.8</ele>
        <time>2023-08-17T14:58:00Z</time>
      </trkpt>
      <trkpt lat="48.81236" lon="1.39299">
        <ele>147.8</ele>
        <time>2023-08-17T14:58:01Z</time>
      </trkpt>
      <trkpt lat="48.8124" lon="1.39297">
        <ele>148</ele>
        <time>2023-08-17T14:58:02Z</time>
      </trkpt>
      <trkpt lat="48.81244" lon="1.39295">
        <ele>148</ele>
        <time>2023-08-17T14:58:03Z</time>
      </trkpt>
      <trkpt lat="48.81257" lon="1.39292">
        <ele>148</ele>
        <time>2023-08-17T14:58:06Z</time>
      </trkpt>
      <trkpt lat="48.81261" lon="1.39293">
        <ele>148</ele>
        <time>2023-08-17T14:58:07Z</time>
      </trkpt>
      <trkpt lat="48.81266" lon="1.39294">
        <ele>148</ele>
        <time>2023-08-17T14:58:08Z</time>
      </trkpt>
      <trkpt lat="48.8127" lon="1.39295">
        <ele>148</ele>
        <time>2023-08-17T14:58:09Z</time>
      </trkpt>
      <trkpt lat="48.81274" lon="1.39293">
        <ele>148</ele>
        <time>2023-08-17T14:58:10Z</time>
      </trkpt>
      <trkpt lat="48.81286" lon="1.39292">
        <ele>147.8</ele>
        <time>2023-08-17T14:58:13Z</time>
      </trkpt>
      <trkpt lat="48.8129" lon="1.39292">
        <ele>147.8</ele>
        <time>2023-08-17T14:58:14Z</time>
      </trkpt>
      <trkpt lat="48.81295" lon="1.39291">
        <ele>147.8</ele>
        <time>2023-08-17T14:58:15Z</time>
      </trkpt>
      <trkpt lat="48.81299" lon="1.39291">
        <ele>147.8</ele>
        <time>2023-08-17T14:58:16Z</time>
      </trkpt>
      <trkpt lat="48.81303" lon="1.39292">
        <ele>147.8</ele>
        <time>2023-08-17T14:58:17Z</time>
      </trkpt>
      <trkpt lat="48.81306" lon="1.39292">
        <ele>147.8</ele>
        <time>2023-08-17T14:58:18Z</time>
      </trkpt>
      <trkpt lat="48.81324" lon="1.39292">
        <ele>147.6</ele>
        <time>2023-08-17T14:58:22Z</time>
      </trkpt>
      <trkpt lat="48.81328" lon="1.3929">
        <ele>147.6</ele>
        <time>2023-08-17T14:58:23Z</time>
      </trkpt>
      <trkpt lat="48.81348" lon="1.39288">
        <ele>147.6</ele>
        <time>2023-08-17T14:58:27Z</time>
      </trkpt>
      <trkpt lat="48.81351" lon="1.39289">
        <ele>147.6</ele>
        <time>2023-08-17T14:58:28Z</time>
      </trkpt>
      <trkpt lat="48.81356" lon="1.3929">
        <ele>147.6</ele>
        <time>2023-08-17T14:58:29Z</time>
      </trkpt>
      <trkpt lat="48.81361" lon="1.3929">
        <ele>147.6</ele>
        <time>2023-08-17T14:58:30Z</time>
      </trkpt>
      <trkpt lat="48.81364" lon="1.3929">
        <ele>147.4</ele>
        <time>2023-08-17T14:58:31Z</time>
      </trkpt>
      <trkpt lat="48.81369" lon="1.3929">
        <ele>147.4</ele>
        <time>2023-08-17T14:58:32Z</time>
      </trkpt>
      <trkpt lat="48.81374" lon="1.39292">
        <ele>147.4</ele>
        <time>2023-08-17T14:58:33Z</time>
      </trkpt>
      <trkpt lat="48.81382" lon="1.39297">
        <ele>147.4</ele>
        <time>2023-08-17T14:58:35Z</time>
      </trkpt>
      <trkpt lat="48.81386" lon="1.393">
        <ele>147.4</ele>
        <time>2023-08-17T14:58:36Z</time>
      </trkpt>
      <trkpt lat="48.81392" lon="1.39304">
        <ele>147.4</ele>
        <time>2023-08-17T14:58:38Z</time>
      </trkpt>
      <trkpt lat="48.81395" lon="1.39309">
        <ele>147.4</ele>
        <time>2023-08-17T14:58:39Z</time>
      </trkpt>
      <trkpt lat="48.81398" lon="1.39314">
        <ele>147.4</ele>
        <time>2023-08-17T14:58:40Z</time>
      </trkpt>
      <trkpt lat="48.81402" lon="1.39318">
        <ele>147.4</ele>
        <time>2023-08-17T14:58:41Z</time>
      </trkpt>
      <trkpt lat="48.81406" lon="1.39319">
        <ele>147.4</ele>
        <time>2023-08-17T14:58:42Z</time>
      </trkpt>
      <trkpt lat="48.81408" lon="1.39319">
        <ele>147.4</ele>
        <time>2023-08-17T14:58:43Z</time>
      </trkpt>
      <trkpt lat="48.81411" lon="1.39319">
        <ele>147.4</ele>
        <time>2023-08-17T14:58:44Z</time>
      </trkpt>
      <trkpt lat="48.81414" lon="1.39319">
        <ele>147.4</ele>
        <time>2023-08-17T14:58:45Z</time>
      </trkpt>
      <trkpt lat="48.81418" lon="1.3932">
        <ele>147.4</ele>
        <time>2023-08-17T14:58:46Z</time>
      </trkpt>
      <trkpt lat="48.81422" lon="1.39321">
        <ele>147.4</ele>
        <time>2023-08-17T14:58:47Z</time>
      </trkpt>
      <trkpt lat="48.81426" lon="1.39321">
        <ele>147.4</ele>
        <time>2023-08-17T14:58:48Z</time>
      </trkpt>
      <trkpt lat="48.81429" lon="1.39322">
        <ele>147.4</ele>
        <time>2023-08-17T14:58:49Z</time>
      </trkpt>
      <trkpt lat="48.81436" lon="1.39329">
        <ele>147.4</ele>
        <time>2023-08-17T14:58:51Z</time>
      </trkpt>
      <trkpt lat="48.8144" lon="1.39332">
        <ele>147.4</ele>
        <time>2023-08-17T14:58:52Z</time>
      </trkpt>
      <trkpt lat="48.81443" lon="1.39334">
        <ele>147.4</ele>
        <time>2023-08-17T14:58:53Z</time>
      </trkpt>
      <trkpt lat="48.81446" lon="1.39337">
        <ele>147.4</ele>
        <time>2023-08-17T14:58:54Z</time>
      </trkpt>
      <trkpt lat="48.81457" lon="1.39343">
        <ele>147.6</ele>
        <time>2023-08-17T14:58:57Z</time>
      </trkpt>
      <trkpt lat="48.8147" lon="1.39355">
        <ele>147.6</ele>
        <time>2023-08-17T14:59:01Z</time>
      </trkpt>
      <trkpt lat="48.81474" lon="1.3936">
        <ele>147.6</ele>
        <time>2023-08-17T14:59:02Z</time>
      </trkpt>
      <trkpt lat="48.81477" lon="1.39365">
        <ele>147.6</ele>
        <time>2023-08-17T14:59:03Z</time>
      </trkpt>
      <trkpt lat="48.81486" lon="1.39375">
        <ele>147.8</ele>
        <time>2023-08-17T14:59:06Z</time>
      </trkpt>
      <trkpt lat="48.81491" lon="1.39381">
        <ele>148</ele>
        <time>2023-08-17T14:59:08Z</time>
      </trkpt>
      <trkpt lat="48.81493" lon="1.39383">
        <ele>148</ele>
        <time>2023-08-17T14:59:09Z</time>
      </trkpt>
      <trkpt lat="48.81495" lon="1.39386">
        <ele>148</ele>
        <time>2023-08-17T14:59:10Z</time>
      </trkpt>
      <trkpt lat="48.81505" lon="1.39402">
        <ele>148.2</ele>
        <time>2023-08-17T14:59:14Z</time>
      </trkpt>
      <trkpt lat="48.81507" lon="1.39406">
        <ele>148.2</ele>
        <time>2023-08-17T14:59:15Z</time>
      </trkpt>
      <trkpt lat="48.81508" lon="1.39409">
        <ele>148.2</ele>
        <time>2023-08-17T14:59:16Z</time>
      </trkpt>
      <trkpt lat="48.8151" lon="1.39413">
        <ele>148.2</ele>
        <time>2023-08-17T14:59:17Z</time>
      </trkpt>
      <trkpt lat="48.81513" lon="1.39417">
        <ele>148.2</ele>
        <time>2023-08-17T14:59:18Z</time>
      </trkpt>
      <trkpt lat="48.81514" lon="1.3942">
        <ele>148.2</ele>
        <time>2023-08-17T14:59:19Z</time>
      </trkpt>
      <trkpt lat="48.81525" lon="1.39432">
        <ele>148.4</ele>
        <time>2023-08-17T14:59:23Z</time>
      </trkpt>
      <trkpt lat="48.81534" lon="1.3944">
        <ele>148.2</ele>
        <time>2023-08-17T14:59:26Z</time>
      </trkpt>
      <trkpt lat="48.81537" lon="1.39444">
        <ele>148.2</ele>
        <time>2023-08-17T14:59:27Z</time>
      </trkpt>
      <trkpt lat="48.81555" lon="1.39461">
        <ele>148.2</ele>
        <time>2023-08-17T14:59:32Z</time>
      </trkpt>
      <trkpt lat="48.81567" lon="1.39474">
        <ele>148.2</ele>
        <time>2023-08-17T14:59:36Z</time>
      </trkpt>
      <trkpt lat="48.81572" lon="1.3948">
        <ele>148</ele>
        <time>2023-08-17T14:59:38Z</time>
      </trkpt>
      <trkpt lat="48.81576" lon="1.39482">
        <ele>148</ele>
        <time>2023-08-17T14:59:39Z</time>
      </trkpt>
      <trkpt lat="48.81578" lon="1.39484">
        <ele>148</ele>
        <time>2023-08-17T14:59:40Z</time>
      </trkpt>
      <trkpt lat="48.81581" lon="1.39486">
        <ele>148</ele>
        <time>2023-08-17T14:59:41Z</time>
      </trkpt>
      <trkpt lat="48.81584" lon="1.39487">
        <ele>148</ele>
        <time>2023-08-17T14:59:42Z</time>
      </trkpt>
      <trkpt lat="48.81588" lon="1.39489">
        <ele>148</ele>
        <time>2023-08-17T14:59:43Z</time>
      </trkpt>
      <trkpt lat="48.81592" lon="1.3949">
        <ele>148</ele>
        <time>2023-08-17T14:59:44Z</time>
      </trkpt>
      <trkpt lat="48.81595" lon="1.39492">
        <ele>148.2</ele>
        <time>2023-08-17T14:59:45Z</time>
      </trkpt>
      <trkpt lat="48.81599" lon="1.39495">
        <ele>148.2</ele>
        <time>2023-08-17T14:59:46Z</time>
      </trkpt>
      <trkpt lat="48.81608" lon="1.39502">
        <ele>148.4</ele>
        <time>2023-08-17T14:59:49Z</time>
      </trkpt>
      <trkpt lat="48.8162" lon="1.39502">
        <ele>148.2</ele>
        <time>2023-08-17T14:59:52Z</time>
      </trkpt>
      <trkpt lat="48.81624" lon="1.39503">
        <ele>148.2</ele>
        <time>2023-08-17T14:59:53Z</time>
      </trkpt>
      <trkpt lat="48.81629" lon="1.39506">
        <ele>148.2</ele>
        <time>2023-08-17T14:59:54Z</time>
      </trkpt>
      <trkpt lat="48.81648" lon="1.39512">
        <ele>148</ele>
        <time>2023-08-17T14:59:59Z</time>
      </trkpt>
      <trkpt lat="48.81651" lon="1.39514">
        <ele>148</ele>
        <time>2023-08-17T15:00:00Z</time>
      </trkpt>
      <trkpt lat="48.81664" lon="1.39516">
        <ele>147.8</ele>
        <time>2023-08-17T15:00:03Z</time>
      </trkpt>
      <trkpt lat="48.81671" lon="1.39522">
        <ele>147.8</ele>
        <time>2023-08-17T15:00:05Z</time>
      </trkpt>
      <trkpt lat="48.81676" lon="1.39524">
        <ele>147.6</ele>
        <time>2023-08-17T15:00:06Z</time>
      </trkpt>
      <trkpt lat="48.8168" lon="1.39525">
        <ele>147.6</ele>
        <time>2023-08-17T15:00:07Z</time>
      </trkpt>
      <trkpt lat="48.81683" lon="1.39526">
        <ele>147.6</ele>
        <time>2023-08-17T15:00:08Z</time>
      </trkpt>
      <trkpt lat="48.81686" lon="1.39527">
        <ele>147.6</ele>
        <time>2023-08-17T15:00:09Z</time>
      </trkpt>
      <trkpt lat="48.81689" lon="1.39529">
        <ele>147.6</ele>
        <time>2023-08-17T15:00:10Z</time>
      </trkpt>
      <trkpt lat="48.81692" lon="1.39529">
        <ele>147.6</ele>
        <time>2023-08-17T15:00:11Z</time>
      </trkpt>
      <trkpt lat="48.81699" lon="1.39531">
        <ele>147.6</ele>
        <time>2023-08-17T15:00:13Z</time>
      </trkpt>
      <trkpt lat="48.8172" lon="1.39545">
        <ele>147.6</ele>
        <time>2023-08-17T15:00:19Z</time>
      </trkpt>
      <trkpt lat="48.81731" lon="1.39546">
        <ele>147.6</ele>
        <time>2023-08-17T15:00:22Z</time>
      </trkpt>
      <trkpt lat="48.81737" lon="1.39546">
        <ele>147.8</ele>
        <time>2023-08-17T15:00:23Z</time>
      </trkpt>
      <trkpt lat="48.81741" lon="1.39545">
        <ele>147.6</ele>
        <time>2023-08-17T15:00:24Z</time>
      </trkpt>
      <trkpt lat="48.81743" lon="1.39545">
        <ele>147.6</ele>
        <time>2023-08-17T15:00:25Z</time>
      </trkpt>
      <trkpt lat="48.81747" lon="1.39545">
        <ele>147.6</ele>
        <time>2023-08-17T15:00:26Z</time>
      </trkpt>
      <trkpt lat="48.81754" lon="1.39548">
        <ele>147.6</ele>
        <time>2023-08-17T15:00:28Z</time>
      </trkpt>
      <trkpt lat="48.81759" lon="1.39551">
        <ele>147.6</ele>
        <time>2023-08-17T15:00:29Z</time>
      </trkpt>
      <trkpt lat="48.81762" lon="1.39554">
        <ele>147.8</ele>
        <time>2023-08-17T15:00:30Z</time>
      </trkpt>
      <trkpt lat="48.81765" lon="1.39558">
        <ele>147.6</ele>
        <time>2023-08-17T15:00:31Z</time>
      </trkpt>
      <trkpt lat="48.81783" lon="1.39573">
        <ele>147.4</ele>
        <time>2023-08-17T15:00:36Z</time>
      </trkpt>
      <trkpt lat="48.81806" lon="1.39586">
        <ele>147.2</ele>
        <time>2023-08-17T15:00:42Z</time>
      </trkpt>
      <trkpt lat="48.81822" lon="1.39602">
        <ele>146.8</ele>
        <time>2023-08-17T15:00:47Z</time>
      </trkpt>
      <trkpt lat="48.81825" lon="1.39606">
        <ele>146.8</ele>
        <time>2023-08-17T15:00:48Z</time>
      </trkpt>
      <trkpt lat="48.81828" lon="1.39611">
        <ele>146.8</ele>
        <time>2023-08-17T15:00:49Z</time>
      </trkpt>
      <trkpt lat="48.81833" lon="1.39619">
        <ele>146.6</ele>
        <time>2023-08-17T15:00:51Z</time>
      </trkpt>
      <trkpt lat="48.81838" lon="1.39627">
        <ele>146.6</ele>
        <time>2023-08-17T15:00:53Z</time>
      </trkpt>
      <trkpt lat="48.8184" lon="1.39631">
        <ele>146.6</ele>
        <time>2023-08-17T15:00:54Z</time>
      </trkpt>
      <trkpt lat="48.81842" lon="1.39636">
        <ele>146.6</ele>
        <time>2023-08-17T15:00:55Z</time>
      </trkpt>
      <trkpt lat="48.81844" lon="1.3964">
        <ele>146.6</ele>
        <time>2023-08-17T15:00:56Z</time>
      </trkpt>
      <trkpt lat="48.81853" lon="1.39655">
        <ele>146.6</ele>
        <time>2023-08-17T15:01:00Z</time>
      </trkpt>
      <trkpt lat="48.81857" lon="1.39656">
        <ele>146.6</ele>
        <time>2023-08-17T15:01:01Z</time>
      </trkpt>
      <trkpt lat="48.8186" lon="1.39655">
        <ele>146.6</ele>
        <time>2023-08-17T15:01:02Z</time>
      </trkpt>
      <trkpt lat="48.81863" lon="1.39654">
        <ele>146.6</ele>
        <time>2023-08-17T15:01:03Z</time>
      </trkpt>
      <trkpt lat="48.81873" lon="1.39661">
        <ele>146.4</ele>
        <time>2023-08-17T15:01:06Z</time>
      </trkpt>
      <trkpt lat="48.81877" lon="1.39664">
        <ele>146.4</ele>
        <time>2023-08-17T15:01:07Z</time>
      </trkpt>
      <trkpt lat="48.8188" lon="1.39666">
        <ele>146.4</ele>
        <time>2023-08-17T15:01:08Z</time>
      </trkpt>
      <trkpt lat="48.81883" lon="1.39666">
        <ele>146.4</ele>
        <time>2023-08-17T15:01:09Z</time>
      </trkpt>
      <trkpt lat="48.81887" lon="1.39665">
        <ele>146</ele>
        <time>2023-08-17T15:01:10Z</time>
      </trkpt>
      <trkpt lat="48.81891" lon="1.39665">
        <ele>146</ele>
        <time>2023-08-17T15:01:11Z</time>
      </trkpt>
      <trkpt lat="48.81903" lon="1.39667">
        <ele>145.6</ele>
        <time>2023-08-17T15:01:14Z</time>
      </trkpt>
      <trkpt lat="48.81906" lon="1.39667">
        <ele>145.6</ele>
        <time>2023-08-17T15:01:15Z</time>
      </trkpt>
      <trkpt lat="48.8191" lon="1.39667">
        <ele>145.4</ele>
        <time>2023-08-17T15:01:16Z</time>
      </trkpt>
      <trkpt lat="48.81922" lon="1.39672">
        <ele>145.2</ele>
        <time>2023-08-17T15:01:19Z</time>
      </trkpt>
      <trkpt lat="48.8193" lon="1.39673">
        <ele>145</ele>
        <time>2023-08-17T15:01:21Z</time>
      </trkpt>
      <trkpt lat="48.81932" lon="1.39673">
        <ele>145</ele>
        <time>2023-08-17T15:01:22Z</time>
      </trkpt>
      <trkpt lat="48.8194" lon="1.39674">
        <ele>144.8</ele>
        <time>2023-08-17T15:01:24Z</time>
      </trkpt>
      <trkpt lat="48.81944" lon="1.39676">
        <ele>144.8</ele>
        <time>2023-08-17T15:01:25Z</time>
      </trkpt>
      <trkpt lat="48.81949" lon="1.39675">
        <ele>144.6</ele>
        <time>2023-08-17T15:01:26Z</time>
      </trkpt>
      <trkpt lat="48.81954" lon="1.39674">
        <ele>144.6</ele>
        <time>2023-08-17T15:01:27Z</time>
      </trkpt>
      <trkpt lat="48.81957" lon="1.39674">
        <ele>144.4</ele>
        <time>2023-08-17T15:01:28Z</time>
      </trkpt>
      <trkpt lat="48.8196" lon="1.39673">
        <ele>144.4</ele>
        <time>2023-08-17T15:01:29Z</time>
      </trkpt>
      <trkpt lat="48.81963" lon="1.39674">
        <ele>144.4</ele>
        <time>2023-08-17T15:01:30Z</time>
      </trkpt>
      <trkpt lat="48.81967" lon="1.39676">
        <ele>144.4</ele>
        <time>2023-08-17T15:01:31Z</time>
      </trkpt>
      <trkpt lat="48.8197" lon="1.39678">
        <ele>144.4</ele>
        <time>2023-08-17T15:01:32Z</time>
      </trkpt>
      <trkpt lat="48.81972" lon="1.3968">
        <ele>144.2</ele>
        <time>2023-08-17T15:01:33Z</time>
      </trkpt>
      <trkpt lat="48.81974" lon="1.3968">
        <ele>144.2</ele>
        <time>2023-08-17T15:01:34Z</time>
      </trkpt>
      <trkpt lat="48.81977" lon="1.3968">
        <ele>144.2</ele>
        <time>2023-08-17T15:01:35Z</time>
      </trkpt>
      <trkpt lat="48.8198" lon="1.3968">
        <ele>144.2</ele>
        <time>2023-08-17T15:01:36Z</time>
      </trkpt>
      <trkpt lat="48.81982" lon="1.39678">
        <ele>144.2</ele>
        <time>2023-08-17T15:01:37Z</time>
      </trkpt>
      <trkpt lat="48.81985" lon="1.39675">
        <ele>144.4</ele>
        <time>2023-08-17T15:01:38Z</time>
      </trkpt>
      <trkpt lat="48.81987" lon="1.39671">
        <ele>144.4</ele>
        <time>2023-08-17T15:01:39Z</time>
      </trkpt>
      <trkpt lat="48.81989" lon="1.39668">
        <ele>144.4</ele>
        <time>2023-08-17T15:01:40Z</time>
      </trkpt>
      <trkpt lat="48.81992" lon="1.39666">
        <ele>144.6</ele>
        <time>2023-08-17T15:01:41Z</time>
      </trkpt>
      <trkpt lat="48.81996" lon="1.39666">
        <ele>144.6</ele>
        <time>2023-08-17T15:01:42Z</time>
      </trkpt>
      <trkpt lat="48.81998" lon="1.39666">
        <ele>144.8</ele>
        <time>2023-08-17T15:01:43Z</time>
      </trkpt>
      <trkpt lat="48.82" lon="1.39664">
        <ele>144.8</ele>
        <time>2023-08-17T15:01:44Z</time>
      </trkpt>
      <trkpt lat="48.82002" lon="1.39662">
        <ele>144.8</ele>
        <time>2023-08-17T15:01:45Z</time>
      </trkpt>
      <trkpt lat="48.82003" lon="1.39662">
        <ele>144.8</ele>
        <time>2023-08-17T15:01:46Z</time>
      </trkpt>
      <trkpt lat="48.82005" lon="1.39664">
        <ele>145</ele>
        <time>2023-08-17T15:01:47Z</time>
      </trkpt>
      <trkpt lat="48.82008" lon="1.39665">
        <ele>145</ele>
        <time>2023-08-17T15:01:48Z</time>
      </trkpt>
      <trkpt lat="48.82013" lon="1.39668">
        <ele>145.2</ele>
        <time>2023-08-17T15:01:50Z</time>
      </trkpt>
      <trkpt lat="48.82016" lon="1.39668">
        <ele>145.4</ele>
        <time>2023-08-17T15:01:51Z</time>
      </trkpt>
      <trkpt lat="48.82018" lon="1.39668">
        <ele>145.4</ele>
        <time>2023-08-17T15:01:52Z</time>
      </trkpt>
      <trkpt lat="48.8202" lon="1.39668">
        <ele>145.6</ele>
        <time>2023-08-17T15:01:53Z</time>
      </trkpt>
      <trkpt lat="48.82022" lon="1.39668">
        <ele>145.6</ele>
        <time>2023-08-17T15:01:54Z</time>
      </trkpt>
      <trkpt lat="48.82034" lon="1.39664">
        <ele>145.8</ele>
        <time>2023-08-17T15:02:00Z</time>
      </trkpt>
      <trkpt lat="48.82037" lon="1.39663">
        <ele>146</ele>
        <time>2023-08-17T15:02:01Z</time>
      </trkpt>
      <trkpt lat="48.82052" lon="1.39657">
        <ele>146.2</ele>
        <time>2023-08-17T15:02:06Z</time>
      </trkpt>
      <trkpt lat="48.82072" lon="1.39657">
        <ele>146.2</ele>
        <time>2023-08-17T15:02:12Z</time>
      </trkpt>
      <trkpt lat="48.82075" lon="1.39661">
        <ele>146.2</ele>
        <time>2023-08-17T15:02:13Z</time>
      </trkpt>
      <trkpt lat="48.82079" lon="1.39664">
        <ele>146.2</ele>
        <time>2023-08-17T15:02:14Z</time>
      </trkpt>
      <trkpt lat="48.82084" lon="1.39669">
        <ele>146.2</ele>
        <time>2023-08-17T15:02:16Z</time>
      </trkpt>
      <trkpt lat="48.82086" lon="1.39673">
        <ele>146.2</ele>
        <time>2023-08-17T15:02:17Z</time>
      </trkpt>
      <trkpt lat="48.82085" lon="1.39675">
        <ele>146</ele>
        <time>2023-08-17T15:02:18Z</time>
      </trkpt>
      <trkpt lat="48.82084" lon="1.39676">
        <ele>146</ele>
        <time>2023-08-17T15:02:19Z</time>
      </trkpt>
      <trkpt lat="48.82082" lon="1.39677">
        <ele>146</ele>
        <time>2023-08-17T15:02:20Z</time>
      </trkpt>
      <trkpt lat="48.82081" lon="1.39678">
        <ele>146</ele>
        <time>2023-08-17T15:02:21Z</time>
      </trkpt>
      <trkpt lat="48.8208" lon="1.3968">
        <ele>146</ele>
        <time>2023-08-17T15:02:22Z</time>
      </trkpt>
      <trkpt lat="48.82079" lon="1.39685">
        <ele>146.2</ele>
        <time>2023-08-17T15:02:24Z</time>
      </trkpt>
      <trkpt lat="48.82081" lon="1.39691">
        <ele>146.2</ele>
        <time>2023-08-17T15:02:26Z</time>
      </trkpt>
      <trkpt lat="48.82082" lon="1.39693">
        <ele>146.2</ele>
        <time>2023-08-17T15:02:27Z</time>
      </trkpt>
      <trkpt lat="48.82083" lon="1.39697">
        <ele>146.4</ele>
        <time>2023-08-17T15:02:28Z</time>
      </trkpt>
      <trkpt lat="48.82084" lon="1.39699">
        <ele>146.4</ele>
        <time>2023-08-17T15:02:29Z</time>
      </trkpt>
      <trkpt lat="48.82088" lon="1.39706">
        <ele>146.6</ele>
        <time>2023-08-17T15:02:32Z</time>
      </trkpt>
      <trkpt lat="48.82089" lon="1.39708">
        <ele>146.6</ele>
        <time>2023-08-17T15:02:33Z</time>
      </trkpt>
      <trkpt lat="48.82093" lon="1.3972">
        <ele>146.8</ele>
        <time>2023-08-17T15:02:37Z</time>
      </trkpt>
      <trkpt lat="48.82103" lon="1.39747">
        <ele>146.8</ele>
        <time>2023-08-17T15:02:44Z</time>
      </trkpt>
      <trkpt lat="48.82103" lon="1.39754">
        <ele>146.8</ele>
        <time>2023-08-17T15:02:46Z</time>
      </trkpt>
      <trkpt lat="48.82103" lon="1.39757">
        <ele>146.8</ele>
        <time>2023-08-17T15:02:47Z</time>
      </trkpt>
      <trkpt lat="48.82102" lon="1.3976">
        <ele>146.8</ele>
        <time>2023-08-17T15:02:48Z</time>
      </trkpt>
      <trkpt lat="48.82102" lon="1.39764">
        <ele>146.8</ele>
        <time>2023-08-17T15:02:49Z</time>
      </trkpt>
      <trkpt lat="48.82101" lon="1.39768">
        <ele>146.8</ele>
        <time>2023-08-17T15:02:50Z</time>
      </trkpt>
      <trkpt lat="48.82101" lon="1.39771">
        <ele>146.8</ele>
        <time>2023-08-17T15:02:51Z</time>
      </trkpt>
      <trkpt lat="48.82101" lon="1.39774">
        <ele>146.8</ele>
        <time>2023-08-17T15:02:52Z</time>
      </trkpt>
      <trkpt lat="48.82099" lon="1.39778">
        <ele>147</ele>
        <time>2023-08-17T15:02:53Z</time>
      </trkpt>
      <trkpt lat="48.82099" lon="1.39782">
        <ele>147</ele>
        <time>2023-08-17T15:02:54Z</time>
      </trkpt>
      <trkpt lat="48.82098" lon="1.39785">
        <ele>147</ele>
        <time>2023-08-17T15:02:55Z</time>
      </trkpt>
      <trkpt lat="48.82096" lon="1.39789">
        <ele>147</ele>
        <time>2023-08-17T15:02:56Z</time>
      </trkpt>
      <trkpt lat="48.82095" lon="1.39793">
        <ele>147.2</ele>
        <time>2023-08-17T15:02:57Z</time>
      </trkpt>
      <trkpt lat="48.82094" lon="1.39798">
        <ele>147.2</ele>
        <time>2023-08-17T15:02:58Z</time>
      </trkpt>
      <trkpt lat="48.82093" lon="1.39809">
        <ele>147.4</ele>
        <time>2023-08-17T15:03:01Z</time>
      </trkpt>
      <trkpt lat="48.82094" lon="1.39813">
        <ele>147.4</ele>
        <time>2023-08-17T15:03:02Z</time>
      </trkpt>
      <trkpt lat="48.82093" lon="1.39817">
        <ele>147.4</ele>
        <time>2023-08-17T15:03:03Z</time>
      </trkpt>
      <trkpt lat="48.82092" lon="1.39824">
        <ele>147.4</ele>
        <time>2023-08-17T15:03:05Z</time>
      </trkpt>
      <trkpt lat="48.82091" lon="1.39826">
        <ele>147.6</ele>
        <time>2023-08-17T15:03:06Z</time>
      </trkpt>
      <trkpt lat="48.82091" lon="1.39832">
        <ele>147.6</ele>
        <time>2023-08-17T15:03:07Z</time>
      </trkpt>
      <trkpt lat="48.82092" lon="1.39835">
        <ele>147.6</ele>
        <time>2023-08-17T15:03:08Z</time>
      </trkpt>
      <trkpt lat="48.82094" lon="1.39839">
        <ele>147.6</ele>
        <time>2023-08-17T15:03:09Z</time>
      </trkpt>
      <trkpt lat="48.82094" lon="1.39843">
        <ele>147.6</ele>
        <time>2023-08-17T15:03:10Z</time>
      </trkpt>
      <trkpt lat="48.82095" lon="1.39846">
        <ele>147.6</ele>
        <time>2023-08-17T15:03:11Z</time>
      </trkpt>
      <trkpt lat="48.821" lon="1.3986">
        <ele>147.6</ele>
        <time>2023-08-17T15:03:15Z</time>
      </trkpt>
      <trkpt lat="48.82102" lon="1.39863">
        <ele>147.6</ele>
        <time>2023-08-17T15:03:16Z</time>
      </trkpt>
      <trkpt lat="48.82107" lon="1.39871">
        <ele>147.6</ele>
        <time>2023-08-17T15:03:18Z</time>
      </trkpt>
      <trkpt lat="48.82105" lon="1.39879">
        <ele>147.6</ele>
        <time>2023-08-17T15:03:20Z</time>
      </trkpt>
      <trkpt lat="48.82106" lon="1.39884">
        <ele>147.6</ele>
        <time>2023-08-17T15:03:21Z</time>
      </trkpt>
      <trkpt lat="48.82108" lon="1.39892">
        <ele>147.6</ele>
        <time>2023-08-17T15:03:23Z</time>
      </trkpt>
      <trkpt lat="48.82108" lon="1.39896">
        <ele>147.6</ele>
        <time>2023-08-17T15:03:24Z</time>
      </trkpt>
      <trkpt lat="48.8211" lon="1.39899">
        <ele>147.6</ele>
        <time>2023-08-17T15:03:25Z</time>
      </trkpt>
      <trkpt lat="48.8211" lon="1.39903">
        <ele>147.6</ele>
        <time>2023-08-17T15:03:26Z</time>
      </trkpt>
      <trkpt lat="48.82111" lon="1.39908">
        <ele>147.6</ele>
        <time>2023-08-17T15:03:27Z</time>
      </trkpt>
      <trkpt lat="48.82112" lon="1.3991">
        <ele>147.6</ele>
        <time>2023-08-17T15:03:28Z</time>
      </trkpt>
      <trkpt lat="48.82112" lon="1.39912">
        <ele>147.6</ele>
        <time>2023-08-17T15:03:29Z</time>
      </trkpt>
      <trkpt lat="48.82112" lon="1.39914">
        <ele>147.6</ele>
        <time>2023-08-17T15:03:30Z</time>
      </trkpt>
      <trkpt lat="48.8211" lon="1.39919">
        <ele>147.6</ele>
        <time>2023-08-17T15:03:31Z</time>
      </trkpt>
      <trkpt lat="48.82108" lon="1.3992">
        <ele>147.6</ele>
        <time>2023-08-17T15:03:32Z</time>
      </trkpt>
      <trkpt lat="48.82106" lon="1.39922">
        <ele>147.6</ele>
        <time>2023-08-17T15:03:33Z</time>
      </trkpt>
      <trkpt lat="48.82103" lon="1.39923">
        <ele>147.6</ele>
        <time>2023-08-17T15:03:34Z</time>
      </trkpt>
      <trkpt lat="48.82101" lon="1.39924">
        <ele>147.6</ele>
        <time>2023-08-17T15:03:35Z</time>
      </trkpt>
      <trkpt lat="48.82098" lon="1.39925">
        <ele>147.6</ele>
        <time>2023-08-17T15:03:36Z</time>
      </trkpt>
      <trkpt lat="48.82093" lon="1.39928">
        <ele>147.6</ele>
        <time>2023-08-17T15:03:39Z</time>
      </trkpt>
      <trkpt lat="48.82092" lon="1.39931">
        <ele>147.6</ele>
        <time>2023-08-17T15:03:40Z</time>
      </trkpt>
      <trkpt lat="48.82091" lon="1.39934">
        <ele>147.8</ele>
        <time>2023-08-17T15:03:41Z</time>
      </trkpt>
      <trkpt lat="48.82091" lon="1.39941">
        <ele>147.8</ele>
        <time>2023-08-17T15:03:43Z</time>
      </trkpt>
      <trkpt lat="48.82091" lon="1.39944">
        <ele>147.8</ele>
        <time>2023-08-17T15:03:44Z</time>
      </trkpt>
      <trkpt lat="48.82091" lon="1.39947">
        <ele>147.8</ele>
        <time>2023-08-17T15:03:45Z</time>
      </trkpt>
      <trkpt lat="48.82091" lon="1.3995">
        <ele>147.8</ele>
        <time>2023-08-17T15:03:46Z</time>
      </trkpt>
      <trkpt lat="48.82091" lon="1.39953">
        <ele>147.8</ele>
        <time>2023-08-17T15:03:47Z</time>
      </trkpt>
      <trkpt lat="48.82091" lon="1.39956">
        <ele>147.8</ele>
        <time>2023-08-17T15:03:48Z</time>
      </trkpt>
      <trkpt lat="48.8209" lon="1.3996">
        <ele>147.8</ele>
        <time>2023-08-17T15:03:49Z</time>
      </trkpt>
      <trkpt lat="48.82089" lon="1.39963">
        <ele>147.8</ele>
        <time>2023-08-17T15:03:50Z</time>
      </trkpt>
      <trkpt lat="48.82088" lon="1.39966">
        <ele>147.8</ele>
        <time>2023-08-17T15:03:51Z</time>
      </trkpt>
      <trkpt lat="48.82082" lon="1.39989">
        <ele>147.8</ele>
        <time>2023-08-17T15:03:56Z</time>
      </trkpt>
      <trkpt lat="48.82079" lon="1.39993">
        <ele>147.8</ele>
        <time>2023-08-17T15:03:57Z</time>
      </trkpt>
      <trkpt lat="48.82078" lon="1.39997">
        <ele>148</ele>
        <time>2023-08-17T15:03:58Z</time>
      </trkpt>
      <trkpt lat="48.82074" lon="1.40011">
        <ele>148</ele>
        <time>2023-08-17T15:04:01Z</time>
      </trkpt>
      <trkpt lat="48.82069" lon="1.40024">
        <ele>147.6</ele>
        <time>2023-08-17T15:04:04Z</time>
      </trkpt>
      <trkpt lat="48.82067" lon="1.40029">
        <ele>147.8</ele>
        <time>2023-08-17T15:04:05Z</time>
      </trkpt>
      <trkpt lat="48.82065" lon="1.40032">
        <ele>147.6</ele>
        <time>2023-08-17T15:04:06Z</time>
      </trkpt>
      <trkpt lat="48.82049" lon="1.40058">
        <ele>148</ele>
        <time>2023-08-17T15:04:13Z</time>
      </trkpt>
      <trkpt lat="48.82046" lon="1.40061">
        <ele>148</ele>
        <time>2023-08-17T15:04:14Z</time>
      </trkpt>
      <trkpt lat="48.82037" lon="1.40073">
        <ele>148.2</ele>
        <time>2023-08-17T15:04:18Z</time>
      </trkpt>
      <trkpt lat="48.82027" lon="1.40083">
        <ele>148.4</ele>
        <time>2023-08-17T15:04:21Z</time>
      </trkpt>
      <trkpt lat="48.82025" lon="1.40086">
        <ele>148.4</ele>
        <time>2023-08-17T15:04:22Z</time>
      </trkpt>
      <trkpt lat="48.82023" lon="1.40089">
        <ele>148.4</ele>
        <time>2023-08-17T15:04:23Z</time>
      </trkpt>
      <trkpt lat="48.82021" lon="1.40093">
        <ele>148.6</ele>
        <time>2023-08-17T15:04:24Z</time>
      </trkpt>
      <trkpt lat="48.8202" lon="1.40097">
        <ele>148.6</ele>
        <time>2023-08-17T15:04:25Z</time>
      </trkpt>
      <trkpt lat="48.82017" lon="1.40104">
        <ele>148.8</ele>
        <time>2023-08-17T15:04:27Z</time>
      </trkpt>
      <trkpt lat="48.82014" lon="1.40109">
        <ele>148.8</ele>
        <time>2023-08-17T15:04:28Z</time>
      </trkpt>
      <trkpt lat="48.82012" lon="1.40114">
        <ele>148.8</ele>
        <time>2023-08-17T15:04:29Z</time>
      </trkpt>
      <trkpt lat="48.8201" lon="1.40117">
        <ele>148.8</ele>
        <time>2023-08-17T15:04:30Z</time>
      </trkpt>
      <trkpt lat="48.82005" lon="1.40126">
        <ele>148.8</ele>
        <time>2023-08-17T15:04:32Z</time>
      </trkpt>
      <trkpt lat="48.82004" lon="1.40129">
        <ele>149</ele>
        <time>2023-08-17T15:04:33Z</time>
      </trkpt>
      <trkpt lat="48.82001" lon="1.40131">
        <ele>149</ele>
        <time>2023-08-17T15:04:34Z</time>
      </trkpt>
      <trkpt lat="48.81999" lon="1.40132">
        <ele>149</ele>
        <time>2023-08-17T15:04:35Z</time>
      </trkpt>
      <trkpt lat="48.81996" lon="1.40132">
        <ele>149</ele>
        <time>2023-08-17T15:04:36Z</time>
      </trkpt>
      <trkpt lat="48.81993" lon="1.40131">
        <ele>149</ele>
        <time>2023-08-17T15:04:37Z</time>
      </trkpt>
      <trkpt lat="48.81989" lon="1.40134">
        <ele>149.2</ele>
        <time>2023-08-17T15:04:39Z</time>
      </trkpt>
      <trkpt lat="48.81987" lon="1.40137">
        <ele>149.2</ele>
        <time>2023-08-17T15:04:40Z</time>
      </trkpt>
      <trkpt lat="48.81986" lon="1.40139">
        <ele>149.2</ele>
        <time>2023-08-17T15:04:41Z</time>
      </trkpt>
      <trkpt lat="48.81984" lon="1.40142">
        <ele>149.2</ele>
        <time>2023-08-17T15:04:42Z</time>
      </trkpt>
      <trkpt lat="48.81983" lon="1.40145">
        <ele>149.4</ele>
        <time>2023-08-17T15:04:43Z</time>
      </trkpt>
      <trkpt lat="48.81981" lon="1.40147">
        <ele>149.6</ele>
        <time>2023-08-17T15:04:44Z</time>
      </trkpt>
      <trkpt lat="48.8198" lon="1.4015">
        <ele>149.6</ele>
        <time>2023-08-17T15:04:45Z</time>
      </trkpt>
      <trkpt lat="48.81978" lon="1.40152">
        <ele>149.8</ele>
        <time>2023-08-17T15:04:46Z</time>
      </trkpt>
      <trkpt lat="48.8197" lon="1.40157">
        <ele>149.8</ele>
        <time>2023-08-17T15:04:49Z</time>
      </trkpt>
      <trkpt lat="48.81966" lon="1.40157">
        <ele>149.8</ele>
        <time>2023-08-17T15:04:50Z</time>
      </trkpt>
      <trkpt lat="48.81965" lon="1.40158">
        <ele>149.8</ele>
        <time>2023-08-17T15:04:51Z</time>
      </trkpt>
      <trkpt lat="48.81962" lon="1.40159">
        <ele>150</ele>
        <time>2023-08-17T15:04:52Z</time>
      </trkpt>
      <trkpt lat="48.81947" lon="1.4016">
        <ele>150</ele>
        <time>2023-08-17T15:04:57Z</time>
      </trkpt>
      <trkpt lat="48.81944" lon="1.4016">
        <ele>150</ele>
        <time>2023-08-17T15:04:58Z</time>
      </trkpt>
      <trkpt lat="48.81941" lon="1.40159">
        <ele>150.2</ele>
        <time>2023-08-17T15:04:59Z</time>
      </trkpt>
      <trkpt lat="48.81931" lon="1.40157">
        <ele>150.2</ele>
        <time>2023-08-17T15:05:02Z</time>
      </trkpt>
      <trkpt lat="48.81922" lon="1.40156">
        <ele>150.2</ele>
        <time>2023-08-17T15:05:05Z</time>
      </trkpt>
      <trkpt lat="48.81919" lon="1.40155">
        <ele>150.4</ele>
        <time>2023-08-17T15:05:06Z</time>
      </trkpt>
      <trkpt lat="48.81894" lon="1.40153">
        <ele>150.4</ele>
        <time>2023-08-17T15:05:13Z</time>
      </trkpt>
      <trkpt lat="48.81879" lon="1.40163">
        <ele>150.4</ele>
        <time>2023-08-17T15:05:18Z</time>
      </trkpt>
      <trkpt lat="48.81876" lon="1.40166">
        <ele>150.4</ele>
        <time>2023-08-17T15:05:19Z</time>
      </trkpt>
      <trkpt lat="48.81874" lon="1.4017">
        <ele>150.4</ele>
        <time>2023-08-17T15:05:20Z</time>
      </trkpt>
      <trkpt lat="48.81873" lon="1.40175">
        <ele>150.4</ele>
        <time>2023-08-17T15:05:21Z</time>
      </trkpt>
      <trkpt lat="48.81871" lon="1.40179">
        <ele>150.4</ele>
        <time>2023-08-17T15:05:22Z</time>
      </trkpt>
      <trkpt lat="48.8187" lon="1.40183">
        <ele>150.6</ele>
        <time>2023-08-17T15:05:23Z</time>
      </trkpt>
      <trkpt lat="48.81869" lon="1.40186">
        <ele>150.6</ele>
        <time>2023-08-17T15:05:24Z</time>
      </trkpt>
      <trkpt lat="48.81866" lon="1.40193">
        <ele>150.6</ele>
        <time>2023-08-17T15:05:26Z</time>
      </trkpt>
      <trkpt lat="48.81865" lon="1.40196">
        <ele>150.6</ele>
        <time>2023-08-17T15:05:27Z</time>
      </trkpt>
      <trkpt lat="48.81863" lon="1.40199">
        <ele>150.6</ele>
        <time>2023-08-17T15:05:28Z</time>
      </trkpt>
      <trkpt lat="48.81861" lon="1.40203">
        <ele>150.6</ele>
        <time>2023-08-17T15:05:29Z</time>
      </trkpt>
      <trkpt lat="48.8186" lon="1.40207">
        <ele>150.6</ele>
        <time>2023-08-17T15:05:30Z</time>
      </trkpt>
      <trkpt lat="48.81858" lon="1.4021">
        <ele>150.8</ele>
        <time>2023-08-17T15:05:31Z</time>
      </trkpt>
      <trkpt lat="48.81858" lon="1.40213">
        <ele>150.8</ele>
        <time>2023-08-17T15:05:32Z</time>
      </trkpt>
      <trkpt lat="48.81858" lon="1.40218">
        <ele>150.8</ele>
        <time>2023-08-17T15:05:33Z</time>
      </trkpt>
      <trkpt lat="48.81858" lon="1.40222">
        <ele>150.8</ele>
        <time>2023-08-17T15:05:34Z</time>
      </trkpt>
      <trkpt lat="48.81857" lon="1.40227">
        <ele>151</ele>
        <time>2023-08-17T15:05:35Z</time>
      </trkpt>
      <trkpt lat="48.81857" lon="1.4027">
        <ele>151</ele>
        <time>2023-08-17T15:05:43Z</time>
      </trkpt>
      <trkpt lat="48.81851" lon="1.40314">
        <ele>151.2</ele>
        <time>2023-08-17T15:05:51Z</time>
      </trkpt>
      <trkpt lat="48.8185" lon="1.40319">
        <ele>151.2</ele>
        <time>2023-08-17T15:05:52Z</time>
      </trkpt>
      <trkpt lat="48.81849" lon="1.4033">
        <ele>151.2</ele>
        <time>2023-08-17T15:05:54Z</time>
      </trkpt>
      <trkpt lat="48.81849" lon="1.40335">
        <ele>151.2</ele>
        <time>2023-08-17T15:05:55Z</time>
      </trkpt>
      <trkpt lat="48.81851" lon="1.40358">
        <ele>151.4</ele>
        <time>2023-08-17T15:05:59Z</time>
      </trkpt>
      <trkpt lat="48.81851" lon="1.40365">
        <ele>151.4</ele>
        <time>2023-08-17T15:06:00Z</time>
      </trkpt>
      <trkpt lat="48.81851" lon="1.40379">
        <ele>151.4</ele>
        <time>2023-08-17T15:06:02Z</time>
      </trkpt>
      <trkpt lat="48.81852" lon="1.40386">
        <ele>151.4</ele>
        <time>2023-08-17T15:06:04Z</time>
      </trkpt>
      <trkpt lat="48.81851" lon="1.40396">
        <ele>151.6</ele>
        <time>2023-08-17T15:06:06Z</time>
      </trkpt>
      <trkpt lat="48.81851" lon="1.404">
        <ele>151.6</ele>
        <time>2023-08-17T15:06:07Z</time>
      </trkpt>
      <trkpt lat="48.81851" lon="1.40405">
        <ele>151.6</ele>
        <time>2023-08-17T15:06:08Z</time>
      </trkpt>
      <trkpt lat="48.81851" lon="1.40407">
        <ele>151.6</ele>
        <time>2023-08-17T15:06:09Z</time>
      </trkpt>
      <trkpt lat="48.81851" lon="1.40411">
        <ele>151.6</ele>
        <time>2023-08-17T15:06:10Z</time>
      </trkpt>
      <trkpt lat="48.81847" lon="1.40424">
        <ele>151.8</ele>
        <time>2023-08-17T15:06:12Z</time>
      </trkpt>
      <trkpt lat="48.81847" lon="1.4043">
        <ele>151.8</ele>
        <time>2023-08-17T15:06:13Z</time>
      </trkpt>
      <trkpt lat="48.81847" lon="1.40434">
        <ele>151.8</ele>
        <time>2023-08-17T15:06:14Z</time>
      </trkpt>
      <trkpt lat="48.81848" lon="1.40439">
        <ele>152</ele>
        <time>2023-08-17T15:06:15Z</time>
      </trkpt>
      <trkpt lat="48.8185" lon="1.40442">
        <ele>152</ele>
        <time>2023-08-17T15:06:16Z</time>
      </trkpt>
      <trkpt lat="48.81852" lon="1.40444">
        <ele>152.2</ele>
        <time>2023-08-17T15:06:17Z</time>
      </trkpt>
      <trkpt lat="48.81855" lon="1.40448">
        <ele>152.2</ele>
        <time>2023-08-17T15:06:18Z</time>
      </trkpt>
      <trkpt lat="48.81856" lon="1.40452">
        <ele>152.2</ele>
        <time>2023-08-17T15:06:19Z</time>
      </trkpt>
      <trkpt lat="48.81859" lon="1.40461">
        <ele>152.2</ele>
        <time>2023-08-17T15:06:21Z</time>
      </trkpt>
      <trkpt lat="48.81862" lon="1.40471">
        <ele>152.4</ele>
        <time>2023-08-17T15:06:24Z</time>
      </trkpt>
      <trkpt lat="48.81866" lon="1.40482">
        <ele>152.4</ele>
        <time>2023-08-17T15:06:27Z</time>
      </trkpt>
      <trkpt lat="48.81874" lon="1.40498">
        <ele>152.6</ele>
        <time>2023-08-17T15:06:31Z</time>
      </trkpt>
      <trkpt lat="48.81876" lon="1.40507">
        <ele>152.6</ele>
        <time>2023-08-17T15:06:33Z</time>
      </trkpt>
      <trkpt lat="48.81885" lon="1.40537">
        <ele>152.6</ele>
        <time>2023-08-17T15:06:39Z</time>
      </trkpt>
      <trkpt lat="48.81885" lon="1.40541">
        <ele>152.6</ele>
        <time>2023-08-17T15:06:40Z</time>
      </trkpt>
      <trkpt lat="48.81883" lon="1.40544">
        <ele>152.6</ele>
        <time>2023-08-17T15:06:41Z</time>
      </trkpt>
      <trkpt lat="48.81881" lon="1.40548">
        <ele>152.6</ele>
        <time>2023-08-17T15:06:42Z</time>
      </trkpt>
      <trkpt lat="48.81872" lon="1.40558">
        <ele>152.8</ele>
        <time>2023-08-17T15:06:46Z</time>
      </trkpt>
      <trkpt lat="48.81869" lon="1.40561">
        <ele>152.8</ele>
        <time>2023-08-17T15:06:47Z</time>
      </trkpt>
      <trkpt lat="48.81867" lon="1.40564">
        <ele>152.8</ele>
        <time>2023-08-17T15:06:48Z</time>
      </trkpt>
      <trkpt lat="48.81867" lon="1.40564">
        <ele>152.8</ele>
        <time>2023-08-17T15:06:49Z</time>
      </trkpt>
      <trkpt lat="48.81847" lon="1.40584">
        <ele>152.8</ele>
        <time>2023-08-17T15:06:55Z</time>
      </trkpt>
      <trkpt lat="48.81832" lon="1.40598">
        <ele>153</ele>
        <time>2023-08-17T15:07:00Z</time>
      </trkpt>
      <trkpt lat="48.81826" lon="1.40603">
        <ele>153</ele>
        <time>2023-08-17T15:07:02Z</time>
      </trkpt>
      <trkpt lat="48.81807" lon="1.40622">
        <ele>153.2</ele>
        <time>2023-08-17T15:07:08Z</time>
      </trkpt>
      <trkpt lat="48.81797" lon="1.40632">
        <ele>153.2</ele>
        <time>2023-08-17T15:07:12Z</time>
      </trkpt>
      <trkpt lat="48.81795" lon="1.40635">
        <ele>153.2</ele>
        <time>2023-08-17T15:07:13Z</time>
      </trkpt>
      <trkpt lat="48.81795" lon="1.40638">
        <ele>153.2</ele>
        <time>2023-08-17T15:07:14Z</time>
      </trkpt>
      <trkpt lat="48.81797" lon="1.40642">
        <ele>153.2</ele>
        <time>2023-08-17T15:07:15Z</time>
      </trkpt>
      <trkpt lat="48.81798" lon="1.40645">
        <ele>153.2</ele>
        <time>2023-08-17T15:07:16Z</time>
      </trkpt>
      <trkpt lat="48.81802" lon="1.40666">
        <ele>153.2</ele>
        <time>2023-08-17T15:07:20Z</time>
      </trkpt>
      <trkpt lat="48.81808" lon="1.407">
        <ele>153</ele>
        <time>2023-08-17T15:07:26Z</time>
      </trkpt>
      <trkpt lat="48.81814" lon="1.40742">
        <ele>153</ele>
        <time>2023-08-17T15:07:32Z</time>
      </trkpt>
      <trkpt lat="48.81816" lon="1.40757">
        <ele>153</ele>
        <time>2023-08-17T15:07:34Z</time>
      </trkpt>
      <trkpt lat="48.81819" lon="1.40772">
        <ele>152.8</ele>
        <time>2023-08-17T15:07:36Z</time>
      </trkpt>
      <trkpt lat="48.81821" lon="1.40779">
        <ele>152.8</ele>
        <time>2023-08-17T15:07:37Z</time>
      </trkpt>
      <trkpt lat="48.81822" lon="1.40786">
        <ele>152.8</ele>
        <time>2023-08-17T15:07:38Z</time>
      </trkpt>
      <trkpt lat="48.81824" lon="1.40795">
        <ele>152.8</ele>
        <time>2023-08-17T15:07:39Z</time>
      </trkpt>
      <trkpt lat="48.81826" lon="1.40802">
        <ele>152.6</ele>
        <time>2023-08-17T15:07:40Z</time>
      </trkpt>
      <trkpt lat="48.81827" lon="1.40809">
        <ele>152.6</ele>
        <time>2023-08-17T15:07:41Z</time>
      </trkpt>
      <trkpt lat="48.81828" lon="1.40815">
        <ele>152.6</ele>
        <time>2023-08-17T15:07:42Z</time>
      </trkpt>
      <trkpt lat="48.8183" lon="1.40822">
        <ele>152.6</ele>
        <time>2023-08-17T15:07:43Z</time>
      </trkpt>
      <trkpt lat="48.8183" lon="1.4083">
        <ele>152.4</ele>
        <time>2023-08-17T15:07:44Z</time>
      </trkpt>
      <trkpt lat="48.8183" lon="1.40836">
        <ele>152.2</ele>
        <time>2023-08-17T15:07:45Z</time>
      </trkpt>
      <trkpt lat="48.81831" lon="1.40842">
        <ele>152</ele>
        <time>2023-08-17T15:07:46Z</time>
      </trkpt>
      <trkpt lat="48.81833" lon="1.40848">
        <ele>152</ele>
        <time>2023-08-17T15:07:47Z</time>
      </trkpt>
      <trkpt lat="48.81835" lon="1.40855">
        <ele>151.8</ele>
        <time>2023-08-17T15:07:48Z</time>
      </trkpt>
      <trkpt lat="48.81836" lon="1.4086">
        <ele>151.8</ele>
        <time>2023-08-17T15:07:49Z</time>
      </trkpt>
      <trkpt lat="48.81837" lon="1.40866">
        <ele>151.6</ele>
        <time>2023-08-17T15:07:50Z</time>
      </trkpt>
      <trkpt lat="48.81838" lon="1.40875">
        <ele>151.6</ele>
        <time>2023-08-17T15:07:51Z</time>
      </trkpt>
      <trkpt lat="48.81838" lon="1.40882">
        <ele>151.6</ele>
        <time>2023-08-17T15:07:52Z</time>
      </trkpt>
      <trkpt lat="48.81838" lon="1.40887">
        <ele>151.4</ele>
        <time>2023-08-17T15:07:53Z</time>
      </trkpt>
      <trkpt lat="48.8184" lon="1.40893">
        <ele>151.4</ele>
        <time>2023-08-17T15:07:54Z</time>
      </trkpt>
      <trkpt lat="48.81848" lon="1.40932">
        <ele>151</ele>
        <time>2023-08-17T15:08:00Z</time>
      </trkpt>
      <trkpt lat="48.8185" lon="1.40943">
        <ele>150.8</ele>
        <time>2023-08-17T15:08:02Z</time>
      </trkpt>
      <trkpt lat="48.81857" lon="1.40976">
        <ele>150.6</ele>
        <time>2023-08-17T15:08:07Z</time>
      </trkpt>
      <trkpt lat="48.81863" lon="1.41001">
        <ele>150.4</ele>
        <time>2023-08-17T15:08:11Z</time>
      </trkpt>
      <trkpt lat="48.81864" lon="1.41007">
        <ele>150.2</ele>
        <time>2023-08-17T15:08:12Z</time>
      </trkpt>
      <trkpt lat="48.81869" lon="1.4104">
        <ele>149.8</ele>
        <time>2023-08-17T15:08:16Z</time>
      </trkpt>
      <trkpt lat="48.81872" lon="1.41056">
        <ele>149.4</ele>
        <time>2023-08-17T15:08:18Z</time>
      </trkpt>
      <trkpt lat="48.81873" lon="1.41073">
        <ele>149.2</ele>
        <time>2023-08-17T15:08:20Z</time>
      </trkpt>
      <trkpt lat="48.81876" lon="1.41087">
        <ele>148.8</ele>
        <time>2023-08-17T15:08:22Z</time>
      </trkpt>
      <trkpt lat="48.81877" lon="1.41095">
        <ele>148.8</ele>
        <time>2023-08-17T15:08:23Z</time>
      </trkpt>
      <trkpt lat="48.81877" lon="1.41103">
        <ele>148.6</ele>
        <time>2023-08-17T15:08:24Z</time>
      </trkpt>
      <trkpt lat="48.81879" lon="1.4111">
        <ele>148.6</ele>
        <time>2023-08-17T15:08:25Z</time>
      </trkpt>
      <trkpt lat="48.8188" lon="1.41116">
        <ele>148.6</ele>
        <time>2023-08-17T15:08:26Z</time>
      </trkpt>
      <trkpt lat="48.81882" lon="1.41124">
        <ele>148.6</ele>
        <time>2023-08-17T15:08:27Z</time>
      </trkpt>
      <trkpt lat="48.81884" lon="1.41132">
        <ele>148.4</ele>
        <time>2023-08-17T15:08:28Z</time>
      </trkpt>
      <trkpt lat="48.81886" lon="1.41151">
        <ele>148.4</ele>
        <time>2023-08-17T15:08:31Z</time>
      </trkpt>
      <trkpt lat="48.81895" lon="1.41208">
        <ele>148.4</ele>
        <time>2023-08-17T15:08:39Z</time>
      </trkpt>
      <trkpt lat="48.81896" lon="1.41214">
        <ele>148.4</ele>
        <time>2023-08-17T15:08:40Z</time>
      </trkpt>
      <trkpt lat="48.81896" lon="1.41219">
        <ele>148.4</ele>
        <time>2023-08-17T15:08:41Z</time>
      </trkpt>
      <trkpt lat="48.81898" lon="1.41222">
        <ele>148.4</ele>
        <time>2023-08-17T15:08:42Z</time>
      </trkpt>
      <trkpt lat="48.819" lon="1.41224">
        <ele>148.4</ele>
        <time>2023-08-17T15:08:43Z</time>
      </trkpt>
      <trkpt lat="48.81903" lon="1.41225">
        <ele>148.4</ele>
        <time>2023-08-17T15:08:44Z</time>
      </trkpt>
      <trkpt lat="48.81905" lon="1.41226">
        <ele>148.4</ele>
        <time>2023-08-17T15:08:45Z</time>
      </trkpt>
      <trkpt lat="48.81907" lon="1.41226">
        <ele>148.2</ele>
        <time>2023-08-17T15:08:46Z</time>
      </trkpt>
      <trkpt lat="48.81909" lon="1.41227">
        <ele>148.2</ele>
        <time>2023-08-17T15:08:47Z</time>
      </trkpt>
      <trkpt lat="48.81911" lon="1.41228">
        <ele>148.2</ele>
        <time>2023-08-17T15:08:48Z</time>
      </trkpt>
      <trkpt lat="48.81913" lon="1.41231">
        <ele>148.2</ele>
        <time>2023-08-17T15:08:49Z</time>
      </trkpt>
      <trkpt lat="48.81914" lon="1.41233">
        <ele>148.2</ele>
        <time>2023-08-17T15:08:50Z</time>
      </trkpt>
      <trkpt lat="48.81915" lon="1.41236">
        <ele>148.2</ele>
        <time>2023-08-17T15:08:51Z</time>
      </trkpt>
      <trkpt lat="48.81916" lon="1.41238">
        <ele>148.2</ele>
        <time>2023-08-17T15:08:52Z</time>
      </trkpt>
      <trkpt lat="48.81916" lon="1.41241">
        <ele>148.2</ele>
        <time>2023-08-17T15:08:53Z</time>
      </trkpt>
      <trkpt lat="48.81915" lon="1.41242">
        <ele>148.2</ele>
        <time>2023-08-17T15:08:54Z</time>
      </trkpt>
      <trkpt lat="48.81914" lon="1.41244">
        <ele>148.2</ele>
        <time>2023-08-17T15:08:55Z</time>
      </trkpt>
      <trkpt lat="48.81912" lon="1.41244">
        <ele>148.2</ele>
        <time>2023-08-17T15:08:56Z</time>
      </trkpt>
      <trkpt lat="48.81911" lon="1.41244">
        <ele>148.2</ele>
        <time>2023-08-17T15:08:57Z</time>
      </trkpt>
      <trkpt lat="48.81907" lon="1.41242">
        <ele>147.6</ele>
        <time>2023-08-17T15:18:47Z</time>
      </trkpt>
      <trkpt lat="48.81909" lon="1.41247">
        <ele>147.6</ele>
        <time>2023-08-17T15:18:53Z</time>
      </trkpt>
      <trkpt lat="48.8191" lon="1.41249">
        <ele>147.6</ele>
        <time>2023-08-17T15:18:54Z</time>
      </trkpt>
      <trkpt lat="48.81912" lon="1.41251">
        <ele>147.4</ele>
        <time>2023-08-17T15:18:55Z</time>
      </trkpt>
      <trkpt lat="48.81914" lon="1.41252">
        <ele>147.4</ele>
        <time>2023-08-17T15:18:56Z</time>
      </trkpt>
      <trkpt lat="48.81915" lon="1.41254">
        <ele>147.4</ele>
        <time>2023-08-17T15:18:57Z</time>
      </trkpt>
      <trkpt lat="48.81916" lon="1.41256">
        <ele>147.4</ele>
        <time>2023-08-17T15:18:58Z</time>
      </trkpt>
      <trkpt lat="48.81917" lon="1.41256">
        <ele>147.4</ele>
        <time>2023-08-17T15:18:59Z</time>
      </trkpt>
      <trkpt lat="48.81918" lon="1.41257">
        <ele>147.4</ele>
        <time>2023-08-17T15:19:00Z</time>
      </trkpt>
      <trkpt lat="48.81919" lon="1.41257">
        <ele>147.6</ele>
        <time>2023-08-17T15:19:01Z</time>
      </trkpt>
      <trkpt lat="48.8192" lon="1.41255">
        <ele>147.6</ele>
        <time>2023-08-17T15:19:02Z</time>
      </trkpt>
      <trkpt lat="48.81922" lon="1.41255">
        <ele>147.6</ele>
        <time>2023-08-17T15:19:05Z</time>
      </trkpt>
      <trkpt lat="48.81924" lon="1.41257">
        <ele>147.6</ele>
        <time>2023-08-17T15:19:06Z</time>
      </trkpt>
      <trkpt lat="48.81925" lon="1.41259">
        <ele>147.6</ele>
        <time>2023-08-17T15:19:07Z</time>
      </trkpt>
      <trkpt lat="48.81926" lon="1.41259">
        <ele>147.6</ele>
        <time>2023-08-17T15:19:08Z</time>
      </trkpt>
      <trkpt lat="48.81927" lon="1.41259">
        <ele>147.6</ele>
        <time>2023-08-17T15:19:09Z</time>
      </trkpt>
      <trkpt lat="48.81927" lon="1.41259">
        <ele>147.6</ele>
        <time>2023-08-17T15:19:10Z</time>
      </trkpt>
      <trkpt lat="48.81928" lon="1.41258">
        <ele>147.6</ele>
        <time>2023-08-17T15:19:12Z</time>
      </trkpt>
      <trkpt lat="48.81929" lon="1.41257">
        <ele>147.6</ele>
        <time>2023-08-17T15:19:13Z</time>
      </trkpt>
      <trkpt lat="48.81931" lon="1.41255">
        <ele>147.6</ele>
        <time>2023-08-17T15:19:15Z</time>
      </trkpt>
      <trkpt lat="48.81937" lon="1.41249">
        <ele>147.6</ele>
        <time>2023-08-17T15:19:19Z</time>
      </trkpt>
      <trkpt lat="48.81939" lon="1.41248">
        <ele>147.6</ele>
        <time>2023-08-17T15:19:20Z</time>
      </trkpt>
      <trkpt lat="48.81941" lon="1.41245">
        <ele>147.6</ele>
        <time>2023-08-17T15:19:21Z</time>
      </trkpt>
      <trkpt lat="48.81948" lon="1.41236">
        <ele>147.4</ele>
        <time>2023-08-17T15:19:25Z</time>
      </trkpt>
      <trkpt lat="48.81968" lon="1.41213">
        <ele>147.2</ele>
        <time>2023-08-17T15:19:33Z</time>
      </trkpt>
      <trkpt lat="48.81976" lon="1.41206">
        <ele>147</ele>
        <time>2023-08-17T15:19:36Z</time>
      </trkpt>
      <trkpt lat="48.81985" lon="1.41197">
        <ele>147</ele>
        <time>2023-08-17T15:19:39Z</time>
      </trkpt>
      <trkpt lat="48.82009" lon="1.41171">
        <ele>146.8</ele>
        <time>2023-08-17T15:19:47Z</time>
      </trkpt>
      <trkpt lat="48.8201" lon="1.41173">
        <ele>146.8</ele>
        <time>2023-08-17T15:19:48Z</time>
      </trkpt>
      <trkpt lat="48.82012" lon="1.41171">
        <ele>146.8</ele>
        <time>2023-08-17T15:19:49Z</time>
      </trkpt>
      <trkpt lat="48.82012" lon="1.4117">
        <ele>146.8</ele>
        <time>2023-08-17T15:19:50Z</time>
      </trkpt>
      <trkpt lat="48.82012" lon="1.4117">
        <ele>146.8</ele>
        <time>2023-08-17T15:19:51Z</time>
      </trkpt>
      <trkpt lat="48.82015" lon="1.41164">
        <ele>146.6</ele>
        <time>2023-08-17T15:19:59Z</time>
      </trkpt>
      <trkpt lat="48.82017" lon="1.41161">
        <ele>146.6</ele>
        <time>2023-08-17T15:20:00Z</time>
      </trkpt>
      <trkpt lat="48.82027" lon="1.41146">
        <ele>146.6</ele>
        <time>2023-08-17T15:20:05Z</time>
      </trkpt>
      <trkpt lat="48.82029" lon="1.41143">
        <ele>146.6</ele>
        <time>2023-08-17T15:20:06Z</time>
      </trkpt>
      <trkpt lat="48.82032" lon="1.4114">
        <ele>146.6</ele>
        <time>2023-08-17T15:20:07Z</time>
      </trkpt>
      <trkpt lat="48.82039" lon="1.41129">
        <ele>146.4</ele>
        <time>2023-08-17T15:20:11Z</time>
      </trkpt>
      <trkpt lat="48.82049" lon="1.41119">
        <ele>146.2</ele>
        <time>2023-08-17T15:20:14Z</time>
      </trkpt>
      <trkpt lat="48.82065" lon="1.41098">
        <ele>146</ele>
        <time>2023-08-17T15:20:19Z</time>
      </trkpt>
      <trkpt lat="48.82081" lon="1.41076">
        <ele>145.6</ele>
        <time>2023-08-17T15:20:25Z</time>
      </trkpt>
      <trkpt lat="48.82093" lon="1.4106">
        <ele>145.6</ele>
        <time>2023-08-17T15:20:29Z</time>
      </trkpt>
      <trkpt lat="48.82095" lon="1.41057">
        <ele>145.4</ele>
        <time>2023-08-17T15:20:30Z</time>
      </trkpt>
      <trkpt lat="48.82103" lon="1.41047">
        <ele>145.4</ele>
        <time>2023-08-17T15:20:32Z</time>
      </trkpt>
      <trkpt lat="48.82105" lon="1.41044">
        <ele>145.4</ele>
        <time>2023-08-17T15:20:33Z</time>
      </trkpt>
      <trkpt lat="48.82107" lon="1.41041">
        <ele>145.4</ele>
        <time>2023-08-17T15:20:34Z</time>
      </trkpt>
      <trkpt lat="48.82108" lon="1.4104">
        <ele>145.4</ele>
        <time>2023-08-17T15:20:35Z</time>
      </trkpt>
      <trkpt lat="48.82111" lon="1.41037">
        <ele>145.4</ele>
        <time>2023-08-17T15:20:36Z</time>
      </trkpt>
      <trkpt lat="48.82114" lon="1.41034">
        <ele>145.4</ele>
        <time>2023-08-17T15:20:37Z</time>
      </trkpt>
      <trkpt lat="48.82116" lon="1.41031">
        <ele>145.4</ele>
        <time>2023-08-17T15:20:38Z</time>
      </trkpt>
      <trkpt lat="48.82119" lon="1.41029">
        <ele>145.4</ele>
        <time>2023-08-17T15:20:39Z</time>
      </trkpt>
      <trkpt lat="48.82121" lon="1.41027">
        <ele>145.4</ele>
        <time>2023-08-17T15:20:40Z</time>
      </trkpt>
      <trkpt lat="48.82123" lon="1.41024">
        <ele>145.4</ele>
        <time>2023-08-17T15:20:41Z</time>
      </trkpt>
      <trkpt lat="48.82126" lon="1.4102">
        <ele>145.6</ele>
        <time>2023-08-17T15:20:42Z</time>
      </trkpt>
      <trkpt lat="48.82129" lon="1.41017">
        <ele>145.8</ele>
        <time>2023-08-17T15:20:43Z</time>
      </trkpt>
      <trkpt lat="48.82131" lon="1.41014">
        <ele>145.8</ele>
        <time>2023-08-17T15:20:44Z</time>
      </trkpt>
      <trkpt lat="48.82136" lon="1.41007">
        <ele>146</ele>
        <time>2023-08-17T15:20:46Z</time>
      </trkpt>
      <trkpt lat="48.82137" lon="1.41006">
        <ele>146</ele>
        <time>2023-08-17T15:20:47Z</time>
      </trkpt>
      <trkpt lat="48.82142" lon="1.41">
        <ele>146.2</ele>
        <time>2023-08-17T15:20:49Z</time>
      </trkpt>
      <trkpt lat="48.8216" lon="1.40978">
        <ele>146.8</ele>
        <time>2023-08-17T15:20:56Z</time>
      </trkpt>
      <trkpt lat="48.82175" lon="1.40958">
        <ele>147</ele>
        <time>2023-08-17T15:21:02Z</time>
      </trkpt>
      <trkpt lat="48.8218" lon="1.40952">
        <ele>147</ele>
        <time>2023-08-17T15:21:04Z</time>
      </trkpt>
      <trkpt lat="48.82181" lon="1.40949">
        <ele>147</ele>
        <time>2023-08-17T15:21:05Z</time>
      </trkpt>
      <trkpt lat="48.82183" lon="1.40947">
        <ele>147</ele>
        <time>2023-08-17T15:21:06Z</time>
      </trkpt>
      <trkpt lat="48.82185" lon="1.40945">
        <ele>147.2</ele>
        <time>2023-08-17T15:21:07Z</time>
      </trkpt>
      <trkpt lat="48.82192" lon="1.40934">
        <ele>147.2</ele>
        <time>2023-08-17T15:21:10Z</time>
      </trkpt>
      <trkpt lat="48.82194" lon="1.40931">
        <ele>147.2</ele>
        <time>2023-08-17T15:21:11Z</time>
      </trkpt>
      <trkpt lat="48.82195" lon="1.40928">
        <ele>147.2</ele>
        <time>2023-08-17T15:21:12Z</time>
      </trkpt>
      <trkpt lat="48.82197" lon="1.40924">
        <ele>147.2</ele>
        <time>2023-08-17T15:21:13Z</time>
      </trkpt>
      <trkpt lat="48.82199" lon="1.4092">
        <ele>147.4</ele>
        <time>2023-08-17T15:21:14Z</time>
      </trkpt>
      <trkpt lat="48.82202" lon="1.40916">
        <ele>147.4</ele>
        <time>2023-08-17T15:21:16Z</time>
      </trkpt>
      <trkpt lat="48.82215" lon="1.40904">
        <ele>147.4</ele>
        <time>2023-08-17T15:21:21Z</time>
      </trkpt>
      <trkpt lat="48.82233" lon="1.40885">
        <ele>147.2</ele>
        <time>2023-08-17T15:21:27Z</time>
      </trkpt>
      <trkpt lat="48.82247" lon="1.40867">
        <ele>147</ele>
        <time>2023-08-17T15:21:31Z</time>
      </trkpt>
      <trkpt lat="48.8225" lon="1.40863">
        <ele>147</ele>
        <time>2023-08-17T15:21:32Z</time>
      </trkpt>
      <trkpt lat="48.82254" lon="1.40858">
        <ele>147</ele>
        <time>2023-08-17T15:21:33Z</time>
      </trkpt>
      <trkpt lat="48.82277" lon="1.40828">
        <ele>146.4</ele>
        <time>2023-08-17T15:21:38Z</time>
      </trkpt>
      <trkpt lat="48.82285" lon="1.40819">
        <ele>146</ele>
        <time>2023-08-17T15:21:40Z</time>
      </trkpt>
      <trkpt lat="48.82289" lon="1.40814">
        <ele>145.8</ele>
        <time>2023-08-17T15:21:41Z</time>
      </trkpt>
      <trkpt lat="48.82292" lon="1.4081">
        <ele>145.8</ele>
        <time>2023-08-17T15:21:42Z</time>
      </trkpt>
      <trkpt lat="48.82295" lon="1.40807">
        <ele>145.4</ele>
        <time>2023-08-17T15:21:43Z</time>
      </trkpt>
      <trkpt lat="48.82298" lon="1.40803">
        <ele>145.4</ele>
        <time>2023-08-17T15:21:44Z</time>
      </trkpt>
      <trkpt lat="48.82301" lon="1.408">
        <ele>145.2</ele>
        <time>2023-08-17T15:21:45Z</time>
      </trkpt>
      <trkpt lat="48.82303" lon="1.40796">
        <ele>145.2</ele>
        <time>2023-08-17T15:21:46Z</time>
      </trkpt>
      <trkpt lat="48.82305" lon="1.40794">
        <ele>145.2</ele>
        <time>2023-08-17T15:21:47Z</time>
      </trkpt>
      <trkpt lat="48.82308" lon="1.40791">
        <ele>145.2</ele>
        <time>2023-08-17T15:21:48Z</time>
      </trkpt>
      <trkpt lat="48.82311" lon="1.40787">
        <ele>145.2</ele>
        <time>2023-08-17T15:21:49Z</time>
      </trkpt>
      <trkpt lat="48.82313" lon="1.40784">
        <ele>145.2</ele>
        <time>2023-08-17T15:21:50Z</time>
      </trkpt>
      <trkpt lat="48.82316" lon="1.40781">
        <ele>145.2</ele>
        <time>2023-08-17T15:21:51Z</time>
      </trkpt>
      <trkpt lat="48.82318" lon="1.40779">
        <ele>145.2</ele>
        <time>2023-08-17T15:21:52Z</time>
      </trkpt>
      <trkpt lat="48.8232" lon="1.40776">
        <ele>145.2</ele>
        <time>2023-08-17T15:21:53Z</time>
      </trkpt>
      <trkpt lat="48.82323" lon="1.40773">
        <ele>145.2</ele>
        <time>2023-08-17T15:21:54Z</time>
      </trkpt>
      <trkpt lat="48.82345" lon="1.40747">
        <ele>145.6</ele>
        <time>2023-08-17T15:22:02Z</time>
      </trkpt>
      <trkpt lat="48.82363" lon="1.40726">
        <ele>146</ele>
        <time>2023-08-17T15:22:08Z</time>
      </trkpt>
      <trkpt lat="48.82366" lon="1.40722">
        <ele>146</ele>
        <time>2023-08-17T15:22:09Z</time>
      </trkpt>
      <trkpt lat="48.82377" lon="1.40709">
        <ele>146.4</ele>
        <time>2023-08-17T15:22:13Z</time>
      </trkpt>
      <trkpt lat="48.82383" lon="1.40701">
        <ele>146.4</ele>
        <time>2023-08-17T15:22:15Z</time>
      </trkpt>
      <trkpt lat="48.82386" lon="1.40699">
        <ele>146.6</ele>
        <time>2023-08-17T15:22:16Z</time>
      </trkpt>
      <trkpt lat="48.82388" lon="1.40695">
        <ele>146.6</ele>
        <time>2023-08-17T15:22:17Z</time>
      </trkpt>
      <trkpt lat="48.82393" lon="1.40687">
        <ele>146.8</ele>
        <time>2023-08-17T15:22:19Z</time>
      </trkpt>
      <trkpt lat="48.82398" lon="1.40679">
        <ele>146.8</ele>
        <time>2023-08-17T15:22:21Z</time>
      </trkpt>
      <trkpt lat="48.824" lon="1.40676">
        <ele>147</ele>
        <time>2023-08-17T15:22:22Z</time>
      </trkpt>
      <trkpt lat="48.82402" lon="1.40673">
        <ele>147</ele>
        <time>2023-08-17T15:22:23Z</time>
      </trkpt>
      <trkpt lat="48.82404" lon="1.4067">
        <ele>147</ele>
        <time>2023-08-17T15:22:24Z</time>
      </trkpt>
      <trkpt lat="48.8241" lon="1.40663">
        <ele>147.2</ele>
        <time>2023-08-17T15:22:26Z</time>
      </trkpt>
      <trkpt lat="48.82413" lon="1.4066">
        <ele>147.2</ele>
        <time>2023-08-17T15:22:27Z</time>
      </trkpt>
      <trkpt lat="48.8243" lon="1.40639">
        <ele>147.6</ele>
        <time>2023-08-17T15:22:34Z</time>
      </trkpt>
      <trkpt lat="48.82444" lon="1.40622">
        <ele>148</ele>
        <time>2023-08-17T15:22:40Z</time>
      </trkpt>
      <trkpt lat="48.82445" lon="1.40616">
        <ele>148</ele>
        <time>2023-08-17T15:22:41Z</time>
      </trkpt>
      <trkpt lat="48.82446" lon="1.40611">
        <ele>148</ele>
        <time>2023-08-17T15:22:42Z</time>
      </trkpt>
      <trkpt lat="48.82447" lon="1.40607">
        <ele>148</ele>
        <time>2023-08-17T15:22:43Z</time>
      </trkpt>
      <trkpt lat="48.82447" lon="1.40602">
        <ele>148</ele>
        <time>2023-08-17T15:22:44Z</time>
      </trkpt>
      <trkpt lat="48.8245" lon="1.40578">
        <ele>148.2</ele>
        <time>2023-08-17T15:22:49Z</time>
      </trkpt>
      <trkpt lat="48.82453" lon="1.40557">
        <ele>148.4</ele>
        <time>2023-08-17T15:22:52Z</time>
      </trkpt>
      <trkpt lat="48.82455" lon="1.40545">
        <ele>148.2</ele>
        <time>2023-08-17T15:22:54Z</time>
      </trkpt>
      <trkpt lat="48.82458" lon="1.40513">
        <ele>148.2</ele>
        <time>2023-08-17T15:22:59Z</time>
      </trkpt>
      <trkpt lat="48.8246" lon="1.40506">
        <ele>148.2</ele>
        <time>2023-08-17T15:23:00Z</time>
      </trkpt>
      <trkpt lat="48.82461" lon="1.405">
        <ele>148.2</ele>
        <time>2023-08-17T15:23:01Z</time>
      </trkpt>
      <trkpt lat="48.82462" lon="1.40494">
        <ele>148</ele>
        <time>2023-08-17T15:23:02Z</time>
      </trkpt>
      <trkpt lat="48.82463" lon="1.40476">
        <ele>147.8</ele>
        <time>2023-08-17T15:23:05Z</time>
      </trkpt>
      <trkpt lat="48.82463" lon="1.40468">
        <ele>147.8</ele>
        <time>2023-08-17T15:23:06Z</time>
      </trkpt>
      <trkpt lat="48.82463" lon="1.40461">
        <ele>147.6</ele>
        <time>2023-08-17T15:23:07Z</time>
      </trkpt>
      <trkpt lat="48.82464" lon="1.40455">
        <ele>147.6</ele>
        <time>2023-08-17T15:23:08Z</time>
      </trkpt>
      <trkpt lat="48.82465" lon="1.4045">
        <ele>147.6</ele>
        <time>2023-08-17T15:23:09Z</time>
      </trkpt>
      <trkpt lat="48.82467" lon="1.4043">
        <ele>147.6</ele>
        <time>2023-08-17T15:23:12Z</time>
      </trkpt>
      <trkpt lat="48.82471" lon="1.40393">
        <ele>147.6</ele>
        <time>2023-08-17T15:23:18Z</time>
      </trkpt>
      <trkpt lat="48.82476" lon="1.40339">
        <ele>147.6</ele>
        <time>2023-08-17T15:23:26Z</time>
      </trkpt>
      <trkpt lat="48.82478" lon="1.40323">
        <ele>147.6</ele>
        <time>2023-08-17T15:23:29Z</time>
      </trkpt>
      <trkpt lat="48.82479" lon="1.40317">
        <ele>147.6</ele>
        <time>2023-08-17T15:23:30Z</time>
      </trkpt>
      <trkpt lat="48.8248" lon="1.4031">
        <ele>147.6</ele>
        <time>2023-08-17T15:23:31Z</time>
      </trkpt>
      <trkpt lat="48.82481" lon="1.40303">
        <ele>147.6</ele>
        <time>2023-08-17T15:23:32Z</time>
      </trkpt>
      <trkpt lat="48.82482" lon="1.40297">
        <ele>147.6</ele>
        <time>2023-08-17T15:23:33Z</time>
      </trkpt>
      <trkpt lat="48.82484" lon="1.40293">
        <ele>147.6</ele>
        <time>2023-08-17T15:23:34Z</time>
      </trkpt>
      <trkpt lat="48.82484" lon="1.40285">
        <ele>147.6</ele>
        <time>2023-08-17T15:23:35Z</time>
      </trkpt>
      <trkpt lat="48.82487" lon="1.4026">
        <ele>147.8</ele>
        <time>2023-08-17T15:23:39Z</time>
      </trkpt>
      <trkpt lat="48.82491" lon="1.40227">
        <ele>148</ele>
        <time>2023-08-17T15:23:44Z</time>
      </trkpt>
      <trkpt lat="48.82499" lon="1.40186">
        <ele>148</ele>
        <time>2023-08-17T15:23:51Z</time>
      </trkpt>
      <trkpt lat="48.82499" lon="1.40181">
        <ele>148</ele>
        <time>2023-08-17T15:23:52Z</time>
      </trkpt>
      <trkpt lat="48.825" lon="1.40175">
        <ele>148.2</ele>
        <time>2023-08-17T15:23:53Z</time>
      </trkpt>
      <trkpt lat="48.825" lon="1.4017">
        <ele>148.2</ele>
        <time>2023-08-17T15:23:54Z</time>
      </trkpt>
      <trkpt lat="48.825" lon="1.40166">
        <ele>148.2</ele>
        <time>2023-08-17T15:23:55Z</time>
      </trkpt>
      <trkpt lat="48.82501" lon="1.40162">
        <ele>148.2</ele>
        <time>2023-08-17T15:23:56Z</time>
      </trkpt>
      <trkpt lat="48.82501" lon="1.40157">
        <ele>148.2</ele>
        <time>2023-08-17T15:23:57Z</time>
      </trkpt>
      <trkpt lat="48.82501" lon="1.40154">
        <ele>148.4</ele>
        <time>2023-08-17T15:23:58Z</time>
      </trkpt>
      <trkpt lat="48.82504" lon="1.40136">
        <ele>148.4</ele>
        <time>2023-08-17T15:24:02Z</time>
      </trkpt>
      <trkpt lat="48.82504" lon="1.40131">
        <ele>148.6</ele>
        <time>2023-08-17T15:24:03Z</time>
      </trkpt>
      <trkpt lat="48.82505" lon="1.40126">
        <ele>148.6</ele>
        <time>2023-08-17T15:24:04Z</time>
      </trkpt>
      <trkpt lat="48.82506" lon="1.40123">
        <ele>148.8</ele>
        <time>2023-08-17T15:24:05Z</time>
      </trkpt>
      <trkpt lat="48.82506" lon="1.40118">
        <ele>149</ele>
        <time>2023-08-17T15:24:06Z</time>
      </trkpt>
      <trkpt lat="48.82506" lon="1.40114">
        <ele>149.2</ele>
        <time>2023-08-17T15:24:07Z</time>
      </trkpt>
      <trkpt lat="48.82505" lon="1.40109">
        <ele>149.2</ele>
        <time>2023-08-17T15:24:08Z</time>
      </trkpt>
      <trkpt lat="48.82506" lon="1.40105">
        <ele>149.2</ele>
        <time>2023-08-17T15:24:09Z</time>
      </trkpt>
      <trkpt lat="48.82507" lon="1.40102">
        <ele>149.2</ele>
        <time>2023-08-17T15:24:10Z</time>
      </trkpt>
      <trkpt lat="48.82508" lon="1.40097">
        <ele>149.2</ele>
        <time>2023-08-17T15:24:11Z</time>
      </trkpt>
      <trkpt lat="48.82509" lon="1.40092">
        <ele>149.4</ele>
        <time>2023-08-17T15:24:12Z</time>
      </trkpt>
      <trkpt lat="48.82517" lon="1.40061">
        <ele>149.6</ele>
        <time>2023-08-17T15:24:19Z</time>
      </trkpt>
      <trkpt lat="48.82522" lon="1.40062">
        <ele>149.6</ele>
        <time>2023-08-17T15:24:22Z</time>
      </trkpt>
      <trkpt lat="48.82525" lon="1.40063">
        <ele>149.6</ele>
        <time>2023-08-17T15:24:23Z</time>
      </trkpt>
      <trkpt lat="48.82528" lon="1.40065">
        <ele>149.8</ele>
        <time>2023-08-17T15:24:24Z</time>
      </trkpt>
      <trkpt lat="48.82531" lon="1.40066">
        <ele>149.8</ele>
        <time>2023-08-17T15:24:25Z</time>
      </trkpt>
      <trkpt lat="48.82534" lon="1.40068">
        <ele>149.8</ele>
        <time>2023-08-17T15:24:26Z</time>
      </trkpt>
      <trkpt lat="48.82543" lon="1.40075">
        <ele>150</ele>
        <time>2023-08-17T15:24:29Z</time>
      </trkpt>
      <trkpt lat="48.82565" lon="1.40093">
        <ele>150</ele>
        <time>2023-08-17T15:24:36Z</time>
      </trkpt>
      <trkpt lat="48.82588" lon="1.40123">
        <ele>149.8</ele>
        <time>2023-08-17T15:24:44Z</time>
      </trkpt>
      <trkpt lat="48.82598" lon="1.40138">
        <ele>149.4</ele>
        <time>2023-08-17T15:24:48Z</time>
      </trkpt>
      <trkpt lat="48.826" lon="1.40142">
        <ele>149.4</ele>
        <time>2023-08-17T15:24:49Z</time>
      </trkpt>
      <trkpt lat="48.82603" lon="1.40145">
        <ele>149.4</ele>
        <time>2023-08-17T15:24:50Z</time>
      </trkpt>
      <trkpt lat="48.82604" lon="1.40147">
        <ele>149.4</ele>
        <time>2023-08-17T15:24:51Z</time>
      </trkpt>
      <trkpt lat="48.82607" lon="1.40151">
        <ele>149.4</ele>
        <time>2023-08-17T15:24:52Z</time>
      </trkpt>
      <trkpt lat="48.8261" lon="1.40153">
        <ele>149.4</ele>
        <time>2023-08-17T15:24:53Z</time>
      </trkpt>
      <trkpt lat="48.82613" lon="1.40153">
        <ele>149.4</ele>
        <time>2023-08-17T15:24:54Z</time>
      </trkpt>
      <trkpt lat="48.82614" lon="1.40149">
        <ele>149.4</ele>
        <time>2023-08-17T15:24:55Z</time>
      </trkpt>
      <trkpt lat="48.82615" lon="1.40146">
        <ele>149.4</ele>
        <time>2023-08-17T15:24:56Z</time>
      </trkpt>
      <trkpt lat="48.82616" lon="1.40143">
        <ele>149.4</ele>
        <time>2023-08-17T15:24:57Z</time>
      </trkpt>
      <trkpt lat="48.82617" lon="1.4014">
        <ele>149.4</ele>
        <time>2023-08-17T15:24:58Z</time>
      </trkpt>
      <trkpt lat="48.82619" lon="1.40136">
        <ele>149.4</ele>
        <time>2023-08-17T15:24:59Z</time>
      </trkpt>
      <trkpt lat="48.82622" lon="1.40134">
        <ele>149.4</ele>
        <time>2023-08-17T15:25:01Z</time>
      </trkpt>
      <trkpt lat="48.82624" lon="1.40134">
        <ele>149.6</ele>
        <time>2023-08-17T15:25:02Z</time>
      </trkpt>
      <trkpt lat="48.82626" lon="1.40132">
        <ele>149.6</ele>
        <time>2023-08-17T15:25:03Z</time>
      </trkpt>
      <trkpt lat="48.8264" lon="1.40123">
        <ele>149.8</ele>
        <time>2023-08-17T15:25:08Z</time>
      </trkpt>
      <trkpt lat="48.82645" lon="1.40118">
        <ele>150</ele>
        <time>2023-08-17T15:25:10Z</time>
      </trkpt>
      <trkpt lat="48.82647" lon="1.40117">
        <ele>150</ele>
        <time>2023-08-17T15:25:11Z</time>
      </trkpt>
      <trkpt lat="48.82649" lon="1.40116">
        <ele>150</ele>
        <time>2023-08-17T15:25:12Z</time>
      </trkpt>
      <trkpt lat="48.82653" lon="1.40113">
        <ele>150</ele>
        <time>2023-08-17T15:25:13Z</time>
      </trkpt>
      <trkpt lat="48.82667" lon="1.40102">
        <ele>150.2</ele>
        <time>2023-08-17T15:25:18Z</time>
      </trkpt>
      <trkpt lat="48.82677" lon="1.40094">
        <ele>150.4</ele>
        <time>2023-08-17T15:25:21Z</time>
      </trkpt>
      <trkpt lat="48.82689" lon="1.40085">
        <ele>150.4</ele>
        <time>2023-08-17T15:25:25Z</time>
      </trkpt>
      <trkpt lat="48.82701" lon="1.40075">
        <ele>150.8</ele>
        <time>2023-08-17T15:25:29Z</time>
      </trkpt>
      <trkpt lat="48.82703" lon="1.40073">
        <ele>150.8</ele>
        <time>2023-08-17T15:25:30Z</time>
      </trkpt>
      <trkpt lat="48.82706" lon="1.40069">
        <ele>150.8</ele>
        <time>2023-08-17T15:25:31Z</time>
      </trkpt>
      <trkpt lat="48.82725" lon="1.40056">
        <ele>151</ele>
        <time>2023-08-17T15:25:36Z</time>
      </trkpt>
      <trkpt lat="48.82728" lon="1.40054">
        <ele>151</ele>
        <time>2023-08-17T15:25:37Z</time>
      </trkpt>
      <trkpt lat="48.82745" lon="1.40044">
        <ele>151</ele>
        <time>2023-08-17T15:25:42Z</time>
      </trkpt>
      <trkpt lat="48.82774" lon="1.40023">
        <ele>150.6</ele>
        <time>2023-08-17T15:25:49Z</time>
      </trkpt>
      <trkpt lat="48.82788" lon="1.40011">
        <ele>150.4</ele>
        <time>2023-08-17T15:25:53Z</time>
      </trkpt>
      <trkpt lat="48.82792" lon="1.40007">
        <ele>150.2</ele>
        <time>2023-08-17T15:25:54Z</time>
      </trkpt>
      <trkpt lat="48.82813" lon="1.39994">
        <ele>149.8</ele>
        <time>2023-08-17T15:25:58Z</time>
      </trkpt>
      <trkpt lat="48.82822" lon="1.39988">
        <ele>149.4</ele>
        <time>2023-08-17T15:26:00Z</time>
      </trkpt>
      <trkpt lat="48.82826" lon="1.39986">
        <ele>149.2</ele>
        <time>2023-08-17T15:26:01Z</time>
      </trkpt>
      <trkpt lat="48.82831" lon="1.39982">
        <ele>149</ele>
        <time>2023-08-17T15:26:02Z</time>
      </trkpt>
      <trkpt lat="48.82834" lon="1.3998">
        <ele>148.8</ele>
        <time>2023-08-17T15:26:03Z</time>
      </trkpt>
      <trkpt lat="48.82838" lon="1.39976">
        <ele>148.8</ele>
        <time>2023-08-17T15:26:04Z</time>
      </trkpt>
      <trkpt lat="48.82841" lon="1.39974">
        <ele>148.8</ele>
        <time>2023-08-17T15:26:05Z</time>
      </trkpt>
      <trkpt lat="48.82852" lon="1.39968">
        <ele>148.4</ele>
        <time>2023-08-17T15:26:07Z</time>
      </trkpt>
      <trkpt lat="48.82863" lon="1.39959">
        <ele>148</ele>
        <time>2023-08-17T15:26:10Z</time>
      </trkpt>
      <trkpt lat="48.82868" lon="1.39955">
        <ele>147.8</ele>
        <time>2023-08-17T15:26:11Z</time>
      </trkpt>
      <trkpt lat="48.82876" lon="1.39948">
        <ele>147.6</ele>
        <time>2023-08-17T15:26:13Z</time>
      </trkpt>
      <trkpt lat="48.82879" lon="1.39946">
        <ele>147.4</ele>
        <time>2023-08-17T15:26:14Z</time>
      </trkpt>
      <trkpt lat="48.82883" lon="1.39943">
        <ele>147.2</ele>
        <time>2023-08-17T15:26:15Z</time>
      </trkpt>
      <trkpt lat="48.82887" lon="1.3994">
        <ele>147</ele>
        <time>2023-08-17T15:26:16Z</time>
      </trkpt>
      <trkpt lat="48.82891" lon="1.39937">
        <ele>146.8</ele>
        <time>2023-08-17T15:26:17Z</time>
      </trkpt>
      <trkpt lat="48.82894" lon="1.39935">
        <ele>146.4</ele>
        <time>2023-08-17T15:26:18Z</time>
      </trkpt>
      <trkpt lat="48.82897" lon="1.39933">
        <ele>146.2</ele>
        <time>2023-08-17T15:26:19Z</time>
      </trkpt>
      <trkpt lat="48.82899" lon="1.39931">
        <ele>146</ele>
        <time>2023-08-17T15:26:20Z</time>
      </trkpt>
      <trkpt lat="48.82903" lon="1.39928">
        <ele>145.6</ele>
        <time>2023-08-17T15:26:21Z</time>
      </trkpt>
      <trkpt lat="48.82905" lon="1.39927">
        <ele>145.4</ele>
        <time>2023-08-17T15:26:22Z</time>
      </trkpt>
      <trkpt lat="48.82907" lon="1.39925">
        <ele>145.2</ele>
        <time>2023-08-17T15:26:23Z</time>
      </trkpt>
      <trkpt lat="48.82912" lon="1.39921">
        <ele>144.8</ele>
        <time>2023-08-17T15:26:25Z</time>
      </trkpt>
      <trkpt lat="48.82917" lon="1.39921">
        <ele>144.2</ele>
        <time>2023-08-17T15:26:27Z</time>
      </trkpt>
      <trkpt lat="48.82919" lon="1.39921">
        <ele>144.2</ele>
        <time>2023-08-17T15:26:28Z</time>
      </trkpt>
      <trkpt lat="48.82921" lon="1.39921">
        <ele>143.6</ele>
        <time>2023-08-17T15:26:29Z</time>
      </trkpt>
      <trkpt lat="48.82923" lon="1.39921">
        <ele>143.4</ele>
        <time>2023-08-17T15:26:30Z</time>
      </trkpt>
      <trkpt lat="48.82927" lon="1.39922">
        <ele>142.8</ele>
        <time>2023-08-17T15:26:32Z</time>
      </trkpt>
      <trkpt lat="48.82928" lon="1.39923">
        <ele>142.4</ele>
        <time>2023-08-17T15:26:33Z</time>
      </trkpt>
      <trkpt lat="48.8293" lon="1.39923">
        <ele>141.8</ele>
        <time>2023-08-17T15:26:34Z</time>
      </trkpt>
      <trkpt lat="48.82932" lon="1.39922">
        <ele>141.4</ele>
        <time>2023-08-17T15:26:35Z</time>
      </trkpt>
      <trkpt lat="48.82935" lon="1.39922">
        <ele>141.2</ele>
        <time>2023-08-17T15:26:36Z</time>
      </trkpt>
      <trkpt lat="48.82937" lon="1.39921">
        <ele>141</ele>
        <time>2023-08-17T15:26:37Z</time>
      </trkpt>
      <trkpt lat="48.82939" lon="1.3992">
        <ele>141</ele>
        <time>2023-08-17T15:26:38Z</time>
      </trkpt>
      <trkpt lat="48.8294" lon="1.39921">
        <ele>140.8</ele>
        <time>2023-08-17T15:26:39Z</time>
      </trkpt>
      <trkpt lat="48.82942" lon="1.39921">
        <ele>140.8</ele>
        <time>2023-08-17T15:26:40Z</time>
      </trkpt>
      <trkpt lat="48.82944" lon="1.39921">
        <ele>140.8</ele>
        <time>2023-08-17T15:26:41Z</time>
      </trkpt>
      <trkpt lat="48.82945" lon="1.39922">
        <ele>140.6</ele>
        <time>2023-08-17T15:26:42Z</time>
      </trkpt>
      <trkpt lat="48.82946" lon="1.39923">
        <ele>140.6</ele>
        <time>2023-08-17T15:26:43Z</time>
      </trkpt>
      <trkpt lat="48.82948" lon="1.39923">
        <ele>140.6</ele>
        <time>2023-08-17T15:26:44Z</time>
      </trkpt>
      <trkpt lat="48.8295" lon="1.39923">
        <ele>140.6</ele>
        <time>2023-08-17T15:26:45Z</time>
      </trkpt>
      <trkpt lat="48.82952" lon="1.39923">
        <ele>140.6</ele>
        <time>2023-08-17T15:26:46Z</time>
      </trkpt>
      <trkpt lat="48.82954" lon="1.39924">
        <ele>140.6</ele>
        <time>2023-08-17T15:26:47Z</time>
      </trkpt>
      <trkpt lat="48.82956" lon="1.39924">
        <ele>140.6</ele>
        <time>2023-08-17T15:26:48Z</time>
      </trkpt>
      <trkpt lat="48.82959" lon="1.39924">
        <ele>140.6</ele>
        <time>2023-08-17T15:26:49Z</time>
      </trkpt>
      <trkpt lat="48.82962" lon="1.39925">
        <ele>140.6</ele>
        <time>2023-08-17T15:26:50Z</time>
      </trkpt>
      <trkpt lat="48.82966" lon="1.39925">
        <ele>140.6</ele>
        <time>2023-08-17T15:26:51Z</time>
      </trkpt>
      <trkpt lat="48.82975" lon="1.3993">
        <ele>140.6</ele>
        <time>2023-08-17T15:26:54Z</time>
      </trkpt>
      <trkpt lat="48.82981" lon="1.39936">
        <ele>140.6</ele>
        <time>2023-08-17T15:26:57Z</time>
      </trkpt>
      <trkpt lat="48.8299" lon="1.3994">
        <ele>141</ele>
        <time>2023-08-17T15:27:01Z</time>
      </trkpt>
      <trkpt lat="48.82992" lon="1.39941">
        <ele>141</ele>
        <time>2023-08-17T15:27:02Z</time>
      </trkpt>
      <trkpt lat="48.82994" lon="1.39941">
        <ele>141</ele>
        <time>2023-08-17T15:27:03Z</time>
      </trkpt>
      <trkpt lat="48.82995" lon="1.39943">
        <ele>141</ele>
        <time>2023-08-17T15:27:04Z</time>
      </trkpt>
      <trkpt lat="48.82997" lon="1.39946">
        <ele>141</ele>
        <time>2023-08-17T15:27:05Z</time>
      </trkpt>
      <trkpt lat="48.83" lon="1.39951">
        <ele>141.2</ele>
        <time>2023-08-17T15:27:07Z</time>
      </trkpt>
      <trkpt lat="48.83001" lon="1.39952">
        <ele>141.4</ele>
        <time>2023-08-17T15:27:08Z</time>
      </trkpt>
      <trkpt lat="48.83002" lon="1.39953">
        <ele>141.4</ele>
        <time>2023-08-17T15:27:09Z</time>
      </trkpt>
      <trkpt lat="48.83004" lon="1.39953">
        <ele>141.6</ele>
        <time>2023-08-17T15:27:10Z</time>
      </trkpt>
      <trkpt lat="48.83015" lon="1.3995">
        <ele>141.8</ele>
        <time>2023-08-17T15:27:15Z</time>
      </trkpt>
      <trkpt lat="48.83017" lon="1.39949">
        <ele>141.8</ele>
        <time>2023-08-17T15:27:16Z</time>
      </trkpt>
      <trkpt lat="48.83018" lon="1.3995">
        <ele>141.8</ele>
        <time>2023-08-17T15:27:17Z</time>
      </trkpt>
      <trkpt lat="48.8302" lon="1.39951">
        <ele>141.8</ele>
        <time>2023-08-17T15:27:18Z</time>
      </trkpt>
      <trkpt lat="48.83025" lon="1.39954">
        <ele>141.8</ele>
        <time>2023-08-17T15:27:20Z</time>
      </trkpt>
      <trkpt lat="48.83027" lon="1.39955">
        <ele>141.8</ele>
        <time>2023-08-17T15:27:21Z</time>
      </trkpt>
      <trkpt lat="48.83028" lon="1.39958">
        <ele>141.2</ele>
        <time>2023-08-17T15:27:23Z</time>
      </trkpt>
      <trkpt lat="48.83031" lon="1.3996">
        <ele>141</ele>
        <time>2023-08-17T15:27:24Z</time>
      </trkpt>
      <trkpt lat="48.83032" lon="1.39961">
        <ele>140.8</ele>
        <time>2023-08-17T15:27:25Z</time>
      </trkpt>
      <trkpt lat="48.83034" lon="1.39962">
        <ele>140.6</ele>
        <time>2023-08-17T15:27:26Z</time>
      </trkpt>
      <trkpt lat="48.83036" lon="1.39964">
        <ele>140.4</ele>
        <time>2023-08-17T15:27:27Z</time>
      </trkpt>
      <trkpt lat="48.83038" lon="1.39965">
        <ele>140.4</ele>
        <time>2023-08-17T15:27:28Z</time>
      </trkpt>
      <trkpt lat="48.83041" lon="1.3997">
        <ele>140.2</ele>
        <time>2023-08-17T15:27:30Z</time>
      </trkpt>
      <trkpt lat="48.83043" lon="1.39972">
        <ele>140.2</ele>
        <time>2023-08-17T15:27:31Z</time>
      </trkpt>
      <trkpt lat="48.83045" lon="1.39974">
        <ele>140.2</ele>
        <time>2023-08-17T15:27:32Z</time>
      </trkpt>
      <trkpt lat="48.83053" lon="1.39981">
        <ele>140.2</ele>
        <time>2023-08-17T15:27:36Z</time>
      </trkpt>
      <trkpt lat="48.83054" lon="1.39984">
        <ele>140.2</ele>
        <time>2023-08-17T15:27:37Z</time>
      </trkpt>
      <trkpt lat="48.83058" lon="1.39991">
        <ele>140.2</ele>
        <time>2023-08-17T15:27:39Z</time>
      </trkpt>
      <trkpt lat="48.83059" lon="1.39994">
        <ele>140.4</ele>
        <time>2023-08-17T15:27:40Z</time>
      </trkpt>
      <trkpt lat="48.8306" lon="1.39998">
        <ele>140.4</ele>
        <time>2023-08-17T15:27:42Z</time>
      </trkpt>
      <trkpt lat="48.83062" lon="1.4">
        <ele>140.4</ele>
        <time>2023-08-17T15:27:43Z</time>
      </trkpt>
      <trkpt lat="48.83064" lon="1.4">
        <ele>140.4</ele>
        <time>2023-08-17T15:27:44Z</time>
      </trkpt>
      <trkpt lat="48.83067" lon="1.40003">
        <ele>140.4</ele>
        <time>2023-08-17T15:27:46Z</time>
      </trkpt>
      <trkpt lat="48.8307" lon="1.40009">
        <ele>140.4</ele>
        <time>2023-08-17T15:27:48Z</time>
      </trkpt>
      <trkpt lat="48.83071" lon="1.40013">
        <ele>140.4</ele>
        <time>2023-08-17T15:27:49Z</time>
      </trkpt>
      <trkpt lat="48.83072" lon="1.40016">
        <ele>140.4</ele>
        <time>2023-08-17T15:27:50Z</time>
      </trkpt>
      <trkpt lat="48.83072" lon="1.4002">
        <ele>140.4</ele>
        <time>2023-08-17T15:27:51Z</time>
      </trkpt>
      <trkpt lat="48.83073" lon="1.40023">
        <ele>140.2</ele>
        <time>2023-08-17T15:27:52Z</time>
      </trkpt>
      <trkpt lat="48.83074" lon="1.40027">
        <ele>140.2</ele>
        <time>2023-08-17T15:27:53Z</time>
      </trkpt>
      <trkpt lat="48.83072" lon="1.4003">
        <ele>140.2</ele>
        <time>2023-08-17T15:27:54Z</time>
      </trkpt>
      <trkpt lat="48.83072" lon="1.40034">
        <ele>140.2</ele>
        <time>2023-08-17T15:27:55Z</time>
      </trkpt>
      <trkpt lat="48.83074" lon="1.40044">
        <ele>140.2</ele>
        <time>2023-08-17T15:27:58Z</time>
      </trkpt>
      <trkpt lat="48.83074" lon="1.40048">
        <ele>140.2</ele>
        <time>2023-08-17T15:27:59Z</time>
      </trkpt>
      <trkpt lat="48.83077" lon="1.40072">
        <ele>140.2</ele>
        <time>2023-08-17T15:28:07Z</time>
      </trkpt>
      <trkpt lat="48.83078" lon="1.40074">
        <ele>140.4</ele>
        <time>2023-08-17T15:28:08Z</time>
      </trkpt>
      <trkpt lat="48.83079" lon="1.40077">
        <ele>140.6</ele>
        <time>2023-08-17T15:28:09Z</time>
      </trkpt>
      <trkpt lat="48.8308" lon="1.40081">
        <ele>140.8</ele>
        <time>2023-08-17T15:28:10Z</time>
      </trkpt>
      <trkpt lat="48.83081" lon="1.40084">
        <ele>141</ele>
        <time>2023-08-17T15:28:11Z</time>
      </trkpt>
      <trkpt lat="48.8308" lon="1.40087">
        <ele>141.2</ele>
        <time>2023-08-17T15:28:12Z</time>
      </trkpt>
      <trkpt lat="48.83081" lon="1.4009">
        <ele>141.2</ele>
        <time>2023-08-17T15:28:13Z</time>
      </trkpt>
      <trkpt lat="48.8308" lon="1.40092">
        <ele>141.2</ele>
        <time>2023-08-17T15:28:14Z</time>
      </trkpt>
      <trkpt lat="48.8308" lon="1.40095">
        <ele>141.4</ele>
        <time>2023-08-17T15:28:15Z</time>
      </trkpt>
      <trkpt lat="48.83082" lon="1.40106">
        <ele>141.8</ele>
        <time>2023-08-17T15:28:19Z</time>
      </trkpt>
      <trkpt lat="48.83083" lon="1.40115">
        <ele>142.2</ele>
        <time>2023-08-17T15:28:22Z</time>
      </trkpt>
      <trkpt lat="48.83084" lon="1.40128">
        <ele>142.6</ele>
        <time>2023-08-17T15:28:26Z</time>
      </trkpt>
      <trkpt lat="48.83083" lon="1.40137">
        <ele>142.8</ele>
        <time>2023-08-17T15:28:29Z</time>
      </trkpt>
      <trkpt lat="48.83082" lon="1.4014">
        <ele>142.8</ele>
        <time>2023-08-17T15:28:30Z</time>
      </trkpt>
      <trkpt lat="48.83082" lon="1.40144">
        <ele>143</ele>
        <time>2023-08-17T15:28:31Z</time>
      </trkpt>
      <trkpt lat="48.83082" lon="1.40151">
        <ele>143</ele>
        <time>2023-08-17T15:28:33Z</time>
      </trkpt>
      <trkpt lat="48.83081" lon="1.40154">
        <ele>143.2</ele>
        <time>2023-08-17T15:28:34Z</time>
      </trkpt>
      <trkpt lat="48.8308" lon="1.40157">
        <ele>143.4</ele>
        <time>2023-08-17T15:28:35Z</time>
      </trkpt>
      <trkpt lat="48.83081" lon="1.4016">
        <ele>143.4</ele>
        <time>2023-08-17T15:28:36Z</time>
      </trkpt>
      <trkpt lat="48.83081" lon="1.40163">
        <ele>143.6</ele>
        <time>2023-08-17T15:28:37Z</time>
      </trkpt>
      <trkpt lat="48.8308" lon="1.40166">
        <ele>143.6</ele>
        <time>2023-08-17T15:28:38Z</time>
      </trkpt>
      <trkpt lat="48.8308" lon="1.40169">
        <ele>143.6</ele>
        <time>2023-08-17T15:28:39Z</time>
      </trkpt>
      <trkpt lat="48.83079" lon="1.40172">
        <ele>143.8</ele>
        <time>2023-08-17T15:28:40Z</time>
      </trkpt>
      <trkpt lat="48.83079" lon="1.40175">
        <ele>144</ele>
        <time>2023-08-17T15:28:41Z</time>
      </trkpt>
      <trkpt lat="48.83079" lon="1.40184">
        <ele>144.2</ele>
        <time>2023-08-17T15:28:44Z</time>
      </trkpt>
      <trkpt lat="48.83079" lon="1.40211">
        <ele>144.8</ele>
        <time>2023-08-17T15:28:52Z</time>
      </trkpt>
      <trkpt lat="48.83079" lon="1.40214">
        <ele>144.8</ele>
        <time>2023-08-17T15:28:53Z</time>
      </trkpt>
      <trkpt lat="48.83077" lon="1.40223">
        <ele>145</ele>
        <time>2023-08-17T15:28:57Z</time>
      </trkpt>
      <trkpt lat="48.83076" lon="1.40226">
        <ele>145</ele>
        <time>2023-08-17T15:28:58Z</time>
      </trkpt>
      <trkpt lat="48.83075" lon="1.40229">
        <ele>145</ele>
        <time>2023-08-17T15:28:59Z</time>
      </trkpt>
      <trkpt lat="48.83074" lon="1.40232">
        <ele>145.2</ele>
        <time>2023-08-17T15:29:00Z</time>
      </trkpt>
      <trkpt lat="48.83073" lon="1.40235">
        <ele>145.2</ele>
        <time>2023-08-17T15:29:01Z</time>
      </trkpt>
      <trkpt lat="48.83073" lon="1.40239">
        <ele>145.4</ele>
        <time>2023-08-17T15:29:02Z</time>
      </trkpt>
      <trkpt lat="48.83073" lon="1.40243">
        <ele>145.4</ele>
        <time>2023-08-17T15:29:03Z</time>
      </trkpt>
      <trkpt lat="48.83073" lon="1.40245">
        <ele>145.6</ele>
        <time>2023-08-17T15:29:04Z</time>
      </trkpt>
      <trkpt lat="48.83073" lon="1.40248">
        <ele>145.6</ele>
        <time>2023-08-17T15:29:05Z</time>
      </trkpt>
      <trkpt lat="48.83071" lon="1.40256">
        <ele>145.6</ele>
        <time>2023-08-17T15:29:07Z</time>
      </trkpt>
      <trkpt lat="48.8307" lon="1.40259">
        <ele>145.8</ele>
        <time>2023-08-17T15:29:08Z</time>
      </trkpt>
      <trkpt lat="48.83069" lon="1.40261">
        <ele>145.8</ele>
        <time>2023-08-17T15:29:09Z</time>
      </trkpt>
      <trkpt lat="48.83066" lon="1.40265">
        <ele>145.8</ele>
        <time>2023-08-17T15:29:10Z</time>
      </trkpt>
      <trkpt lat="48.83065" lon="1.40269">
        <ele>146</ele>
        <time>2023-08-17T15:29:11Z</time>
      </trkpt>
      <trkpt lat="48.83063" lon="1.40276">
        <ele>146.2</ele>
        <time>2023-08-17T15:29:13Z</time>
      </trkpt>
      <trkpt lat="48.83061" lon="1.40284">
        <ele>146.2</ele>
        <time>2023-08-17T15:29:15Z</time>
      </trkpt>
      <trkpt lat="48.83055" lon="1.40302">
        <ele>146.2</ele>
        <time>2023-08-17T15:29:19Z</time>
      </trkpt>
      <trkpt lat="48.83048" lon="1.40322">
        <ele>146.2</ele>
        <time>2023-08-17T15:29:22Z</time>
      </trkpt>
      <trkpt lat="48.83047" lon="1.40328">
        <ele>146.2</ele>
        <time>2023-08-17T15:29:23Z</time>
      </trkpt>
      <trkpt lat="48.83046" lon="1.40344">
        <ele>146</ele>
        <time>2023-08-17T15:29:25Z</time>
      </trkpt>
      <trkpt lat="48.83046" lon="1.40351">
        <ele>146</ele>
        <time>2023-08-17T15:29:26Z</time>
      </trkpt>
      <trkpt lat="48.83046" lon="1.40359">
        <ele>146</ele>
        <time>2023-08-17T15:29:27Z</time>
      </trkpt>
      <trkpt lat="48.83047" lon="1.40365">
        <ele>145.8</ele>
        <time>2023-08-17T15:29:28Z</time>
      </trkpt>
      <trkpt lat="48.83049" lon="1.40372">
        <ele>145.4</ele>
        <time>2023-08-17T15:29:29Z</time>
      </trkpt>
      <trkpt lat="48.83051" lon="1.40387">
        <ele>145</ele>
        <time>2023-08-17T15:29:31Z</time>
      </trkpt>
      <trkpt lat="48.83056" lon="1.40401">
        <ele>144.6</ele>
        <time>2023-08-17T15:29:33Z</time>
      </trkpt>
      <trkpt lat="48.83058" lon="1.40408">
        <ele>144.4</ele>
        <time>2023-08-17T15:29:34Z</time>
      </trkpt>
      <trkpt lat="48.83061" lon="1.40415">
        <ele>144.2</ele>
        <time>2023-08-17T15:29:35Z</time>
      </trkpt>
      <trkpt lat="48.83073" lon="1.40448">
        <ele>144</ele>
        <time>2023-08-17T15:29:39Z</time>
      </trkpt>
      <trkpt lat="48.83076" lon="1.40455">
        <ele>143.8</ele>
        <time>2023-08-17T15:29:40Z</time>
      </trkpt>
      <trkpt lat="48.83078" lon="1.40461">
        <ele>143.6</ele>
        <time>2023-08-17T15:29:41Z</time>
      </trkpt>
      <trkpt lat="48.83078" lon="1.40466">
        <ele>143.4</ele>
        <time>2023-08-17T15:29:42Z</time>
      </trkpt>
      <trkpt lat="48.8308" lon="1.40471">
        <ele>143.2</ele>
        <time>2023-08-17T15:29:43Z</time>
      </trkpt>
      <trkpt lat="48.83083" lon="1.40476">
        <ele>143.2</ele>
        <time>2023-08-17T15:29:44Z</time>
      </trkpt>
      <trkpt lat="48.83084" lon="1.40481">
        <ele>143</ele>
        <time>2023-08-17T15:29:45Z</time>
      </trkpt>
      <trkpt lat="48.83085" lon="1.40484">
        <ele>143</ele>
        <time>2023-08-17T15:29:46Z</time>
      </trkpt>
      <trkpt lat="48.83085" lon="1.40487">
        <ele>143</ele>
        <time>2023-08-17T15:29:47Z</time>
      </trkpt>
      <trkpt lat="48.83086" lon="1.4049">
        <ele>143</ele>
        <time>2023-08-17T15:29:48Z</time>
      </trkpt>
      <trkpt lat="48.83086" lon="1.40493">
        <ele>143</ele>
        <time>2023-08-17T15:29:49Z</time>
      </trkpt>
      <trkpt lat="48.83088" lon="1.40496">
        <ele>143</ele>
        <time>2023-08-17T15:29:50Z</time>
      </trkpt>
      <trkpt lat="48.8309" lon="1.40505">
        <ele>143.2</ele>
        <time>2023-08-17T15:29:53Z</time>
      </trkpt>
      <trkpt lat="48.83091" lon="1.40508">
        <ele>143.4</ele>
        <time>2023-08-17T15:29:54Z</time>
      </trkpt>
      <trkpt lat="48.83092" lon="1.40512">
        <ele>143.8</ele>
        <time>2023-08-17T15:29:55Z</time>
      </trkpt>
      <trkpt lat="48.83093" lon="1.40515">
        <ele>144</ele>
        <time>2023-08-17T15:29:56Z</time>
      </trkpt>
      <trkpt lat="48.83094" lon="1.40518">
        <ele>144.2</ele>
        <time>2023-08-17T15:29:57Z</time>
      </trkpt>
      <trkpt lat="48.83095" lon="1.40522">
        <ele>144.6</ele>
        <time>2023-08-17T15:29:59Z</time>
      </trkpt>
      <trkpt lat="48.83099" lon="1.40531">
        <ele>145.6</ele>
        <time>2023-08-17T15:30:02Z</time>
      </trkpt>
      <trkpt lat="48.831" lon="1.40536">
        <ele>145.8</ele>
        <time>2023-08-17T15:30:04Z</time>
      </trkpt>
      <trkpt lat="48.83104" lon="1.4055">
        <ele>146.6</ele>
        <time>2023-08-17T15:30:09Z</time>
      </trkpt>
      <trkpt lat="48.83105" lon="1.40552">
        <ele>147</ele>
        <time>2023-08-17T15:30:10Z</time>
      </trkpt>
      <trkpt lat="48.83106" lon="1.40555">
        <ele>147.2</ele>
        <time>2023-08-17T15:30:11Z</time>
      </trkpt>
      <trkpt lat="48.83108" lon="1.40558">
        <ele>147.2</ele>
        <time>2023-08-17T15:30:12Z</time>
      </trkpt>
      <trkpt lat="48.8311" lon="1.4056">
        <ele>147.4</ele>
        <time>2023-08-17T15:30:13Z</time>
      </trkpt>
      <trkpt lat="48.83111" lon="1.40562">
        <ele>147.4</ele>
        <time>2023-08-17T15:30:14Z</time>
      </trkpt>
      <trkpt lat="48.83113" lon="1.40565">
        <ele>147.4</ele>
        <time>2023-08-17T15:30:15Z</time>
      </trkpt>
      <trkpt lat="48.83115" lon="1.40567">
        <ele>147.6</ele>
        <time>2023-08-17T15:30:16Z</time>
      </trkpt>
      <trkpt lat="48.83117" lon="1.4057">
        <ele>147.6</ele>
        <time>2023-08-17T15:30:17Z</time>
      </trkpt>
      <trkpt lat="48.8312" lon="1.40572">
        <ele>147.8</ele>
        <time>2023-08-17T15:30:18Z</time>
      </trkpt>
      <trkpt lat="48.83122" lon="1.40573">
        <ele>147.8</ele>
        <time>2023-08-17T15:30:19Z</time>
      </trkpt>
      <trkpt lat="48.83125" lon="1.40574">
        <ele>147.8</ele>
        <time>2023-08-17T15:30:20Z</time>
      </trkpt>
      <trkpt lat="48.83128" lon="1.40576">
        <ele>148</ele>
        <time>2023-08-17T15:30:21Z</time>
      </trkpt>
      <trkpt lat="48.8313" lon="1.40577">
        <ele>148</ele>
        <time>2023-08-17T15:30:22Z</time>
      </trkpt>
      <trkpt lat="48.83134" lon="1.40579">
        <ele>148</ele>
        <time>2023-08-17T15:30:23Z</time>
      </trkpt>
      <trkpt lat="48.83136" lon="1.40581">
        <ele>148</ele>
        <time>2023-08-17T15:30:24Z</time>
      </trkpt>
      <trkpt lat="48.83139" lon="1.40583">
        <ele>148</ele>
        <time>2023-08-17T15:30:25Z</time>
      </trkpt>
      <trkpt lat="48.83141" lon="1.40585">
        <ele>148</ele>
        <time>2023-08-17T15:30:26Z</time>
      </trkpt>
      <trkpt lat="48.83144" lon="1.40587">
        <ele>148</ele>
        <time>2023-08-17T15:30:27Z</time>
      </trkpt>
      <trkpt lat="48.83147" lon="1.40591">
        <ele>148</ele>
        <time>2023-08-17T15:30:28Z</time>
      </trkpt>
      <trkpt lat="48.83149" lon="1.40594">
        <ele>147.8</ele>
        <time>2023-08-17T15:30:29Z</time>
      </trkpt>
      <trkpt lat="48.83152" lon="1.40597">
        <ele>147.8</ele>
        <time>2023-08-17T15:30:30Z</time>
      </trkpt>
      <trkpt lat="48.83158" lon="1.40606">
        <ele>147.8</ele>
        <time>2023-08-17T15:30:32Z</time>
      </trkpt>
      <trkpt lat="48.8317" lon="1.40619">
        <ele>147.6</ele>
        <time>2023-08-17T15:30:36Z</time>
      </trkpt>
      <trkpt lat="48.83179" lon="1.40628">
        <ele>147.6</ele>
        <time>2023-08-17T15:30:38Z</time>
      </trkpt>
      <trkpt lat="48.83197" lon="1.40643">
        <ele>147.4</ele>
        <time>2023-08-17T15:30:42Z</time>
      </trkpt>
      <trkpt lat="48.83201" lon="1.40649">
        <ele>147</ele>
        <time>2023-08-17T15:30:43Z</time>
      </trkpt>
      <trkpt lat="48.83203" lon="1.40654">
        <ele>146.8</ele>
        <time>2023-08-17T15:30:44Z</time>
      </trkpt>
      <trkpt lat="48.83217" lon="1.40679">
        <ele>145.6</ele>
        <time>2023-08-17T15:30:49Z</time>
      </trkpt>
      <trkpt lat="48.8322" lon="1.40686">
        <ele>145.6</ele>
        <time>2023-08-17T15:30:50Z</time>
      </trkpt>
      <trkpt lat="48.83235" lon="1.407">
        <ele>144.6</ele>
        <time>2023-08-17T15:30:54Z</time>
      </trkpt>
      <trkpt lat="48.8324" lon="1.40704">
        <ele>144.4</ele>
        <time>2023-08-17T15:30:55Z</time>
      </trkpt>
      <trkpt lat="48.83248" lon="1.40708">
        <ele>144.2</ele>
        <time>2023-08-17T15:30:57Z</time>
      </trkpt>
      <trkpt lat="48.83251" lon="1.40708">
        <ele>144.2</ele>
        <time>2023-08-17T15:30:58Z</time>
      </trkpt>
      <trkpt lat="48.83254" lon="1.40708">
        <ele>144</ele>
        <time>2023-08-17T15:30:59Z</time>
      </trkpt>
      <trkpt lat="48.83257" lon="1.40706">
        <ele>144</ele>
        <time>2023-08-17T15:31:00Z</time>
      </trkpt>
      <trkpt lat="48.83261" lon="1.40706">
        <ele>143.8</ele>
        <time>2023-08-17T15:31:01Z</time>
      </trkpt>
      <trkpt lat="48.83272" lon="1.40703">
        <ele>143.8</ele>
        <time>2023-08-17T15:31:04Z</time>
      </trkpt>
      <trkpt lat="48.83276" lon="1.40703">
        <ele>143.8</ele>
        <time>2023-08-17T15:31:05Z</time>
      </trkpt>
      <trkpt lat="48.83279" lon="1.40702">
        <ele>143.8</ele>
        <time>2023-08-17T15:31:06Z</time>
      </trkpt>
      <trkpt lat="48.83283" lon="1.40701">
        <ele>143.8</ele>
        <time>2023-08-17T15:31:07Z</time>
      </trkpt>
      <trkpt lat="48.83294" lon="1.40702">
        <ele>143.8</ele>
        <time>2023-08-17T15:31:10Z</time>
      </trkpt>
      <trkpt lat="48.83297" lon="1.40703">
        <ele>143.8</ele>
        <time>2023-08-17T15:31:11Z</time>
      </trkpt>
      <trkpt lat="48.83302" lon="1.40704">
        <ele>144</ele>
        <time>2023-08-17T15:31:12Z</time>
      </trkpt>
      <trkpt lat="48.83305" lon="1.40706">
        <ele>144.2</ele>
        <time>2023-08-17T15:31:13Z</time>
      </trkpt>
      <trkpt lat="48.83308" lon="1.40707">
        <ele>144.4</ele>
        <time>2023-08-17T15:31:14Z</time>
      </trkpt>
      <trkpt lat="48.83311" lon="1.40709">
        <ele>144.4</ele>
        <time>2023-08-17T15:31:15Z</time>
      </trkpt>
      <trkpt lat="48.83314" lon="1.40708">
        <ele>144.6</ele>
        <time>2023-08-17T15:31:16Z</time>
      </trkpt>
      <trkpt lat="48.83317" lon="1.40709">
        <ele>144.6</ele>
        <time>2023-08-17T15:31:17Z</time>
      </trkpt>
      <trkpt lat="48.83319" lon="1.40711">
        <ele>144.8</ele>
        <time>2023-08-17T15:31:18Z</time>
      </trkpt>
      <trkpt lat="48.83322" lon="1.40714">
        <ele>144.8</ele>
        <time>2023-08-17T15:31:19Z</time>
      </trkpt>
      <trkpt lat="48.83324" lon="1.40717">
        <ele>145</ele>
        <time>2023-08-17T15:31:20Z</time>
      </trkpt>
      <trkpt lat="48.83326" lon="1.4072">
        <ele>145</ele>
        <time>2023-08-17T15:31:21Z</time>
      </trkpt>
      <trkpt lat="48.83329" lon="1.40722">
        <ele>145.4</ele>
        <time>2023-08-17T15:31:23Z</time>
      </trkpt>
      <trkpt lat="48.83332" lon="1.40724">
        <ele>145.6</ele>
        <time>2023-08-17T15:31:24Z</time>
      </trkpt>
      <trkpt lat="48.83335" lon="1.40727">
        <ele>145.6</ele>
        <time>2023-08-17T15:31:25Z</time>
      </trkpt>
      <trkpt lat="48.83337" lon="1.4073">
        <ele>145.8</ele>
        <time>2023-08-17T15:31:26Z</time>
      </trkpt>
      <trkpt lat="48.83339" lon="1.40733">
        <ele>145.8</ele>
        <time>2023-08-17T15:31:27Z</time>
      </trkpt>
      <trkpt lat="48.83341" lon="1.40737">
        <ele>145.8</ele>
        <time>2023-08-17T15:31:28Z</time>
      </trkpt>
      <trkpt lat="48.83352" lon="1.40757">
        <ele>146</ele>
        <time>2023-08-17T15:31:34Z</time>
      </trkpt>
      <trkpt lat="48.83363" lon="1.40779">
        <ele>146.6</ele>
        <time>2023-08-17T15:31:40Z</time>
      </trkpt>
      <trkpt lat="48.83365" lon="1.40782">
        <ele>146.8</ele>
        <time>2023-08-17T15:31:41Z</time>
      </trkpt>
      <trkpt lat="48.83382" lon="1.4081">
        <ele>147.2</ele>
        <time>2023-08-17T15:31:49Z</time>
      </trkpt>
      <trkpt lat="48.83399" lon="1.40835">
        <ele>147.8</ele>
        <time>2023-08-17T15:31:56Z</time>
      </trkpt>
      <trkpt lat="48.83401" lon="1.40837">
        <ele>147.8</ele>
        <time>2023-08-17T15:31:57Z</time>
      </trkpt>
      <trkpt lat="48.83404" lon="1.40839">
        <ele>148</ele>
        <time>2023-08-17T15:31:58Z</time>
      </trkpt>
      <trkpt lat="48.83415" lon="1.40853">
        <ele>148.2</ele>
        <time>2023-08-17T15:32:02Z</time>
      </trkpt>
      <trkpt lat="48.83417" lon="1.40856">
        <ele>148.2</ele>
        <time>2023-08-17T15:32:03Z</time>
      </trkpt>
      <trkpt lat="48.83423" lon="1.40861">
        <ele>148.4</ele>
        <time>2023-08-17T15:32:05Z</time>
      </trkpt>
      <trkpt lat="48.83435" lon="1.40873">
        <ele>148.4</ele>
        <time>2023-08-17T15:32:09Z</time>
      </trkpt>
      <trkpt lat="48.83436" lon="1.40874">
        <ele>148.4</ele>
        <time>2023-08-17T15:32:10Z</time>
      </trkpt>
      <trkpt lat="48.8345" lon="1.40884">
        <ele>148.4</ele>
        <time>2023-08-17T15:32:15Z</time>
      </trkpt>
      <trkpt lat="48.83453" lon="1.40885">
        <ele>148.4</ele>
        <time>2023-08-17T15:32:16Z</time>
      </trkpt>
      <trkpt lat="48.83456" lon="1.40886">
        <ele>148.4</ele>
        <time>2023-08-17T15:32:17Z</time>
      </trkpt>
      <trkpt lat="48.83459" lon="1.40888">
        <ele>148.4</ele>
        <time>2023-08-17T15:32:18Z</time>
      </trkpt>
      <trkpt lat="48.83462" lon="1.40887">
        <ele>148.4</ele>
        <time>2023-08-17T15:32:19Z</time>
      </trkpt>
      <trkpt lat="48.83465" lon="1.40887">
        <ele>148.4</ele>
        <time>2023-08-17T15:32:20Z</time>
      </trkpt>
      <trkpt lat="48.83477" lon="1.40887">
        <ele>148.4</ele>
        <time>2023-08-17T15:32:23Z</time>
      </trkpt>
      <trkpt lat="48.83482" lon="1.40887">
        <ele>148.4</ele>
        <time>2023-08-17T15:32:24Z</time>
      </trkpt>
      <trkpt lat="48.83486" lon="1.40886">
        <ele>148.4</ele>
        <time>2023-08-17T15:32:25Z</time>
      </trkpt>
      <trkpt lat="48.83502" lon="1.40889">
        <ele>148.4</ele>
        <time>2023-08-17T15:32:29Z</time>
      </trkpt>
      <trkpt lat="48.83513" lon="1.40893">
        <ele>148.4</ele>
        <time>2023-08-17T15:32:32Z</time>
      </trkpt>
      <trkpt lat="48.83522" lon="1.409">
        <ele>148.4</ele>
        <time>2023-08-17T15:32:35Z</time>
      </trkpt>
      <trkpt lat="48.8353" lon="1.40906">
        <ele>148.4</ele>
        <time>2023-08-17T15:32:37Z</time>
      </trkpt>
      <trkpt lat="48.83532" lon="1.40909">
        <ele>148.4</ele>
        <time>2023-08-17T15:32:38Z</time>
      </trkpt>
      <trkpt lat="48.83536" lon="1.40911">
        <ele>148.4</ele>
        <time>2023-08-17T15:32:39Z</time>
      </trkpt>
      <trkpt lat="48.83539" lon="1.40915">
        <ele>148.2</ele>
        <time>2023-08-17T15:32:40Z</time>
      </trkpt>
      <trkpt lat="48.83542" lon="1.40918">
        <ele>148.2</ele>
        <time>2023-08-17T15:32:41Z</time>
      </trkpt>
      <trkpt lat="48.83545" lon="1.40921">
        <ele>148.2</ele>
        <time>2023-08-17T15:32:42Z</time>
      </trkpt>
      <trkpt lat="48.83565" lon="1.40931">
        <ele>148.2</ele>
        <time>2023-08-17T15:32:47Z</time>
      </trkpt>
      <trkpt lat="48.83593" lon="1.40941">
        <ele>148</ele>
        <time>2023-08-17T15:32:54Z</time>
      </trkpt>
      <trkpt lat="48.83599" lon="1.40944">
        <ele>148</ele>
        <time>2023-08-17T15:32:56Z</time>
      </trkpt>
      <trkpt lat="48.83602" lon="1.40946">
        <ele>148</ele>
        <time>2023-08-17T15:32:57Z</time>
      </trkpt>
      <trkpt lat="48.83611" lon="1.40953">
        <ele>148</ele>
        <time>2023-08-17T15:32:59Z</time>
      </trkpt>
      <trkpt lat="48.83624" lon="1.4096">
        <ele>148</ele>
        <time>2023-08-17T15:33:03Z</time>
      </trkpt>
      <trkpt lat="48.83627" lon="1.40962">
        <ele>148</ele>
        <time>2023-08-17T15:33:04Z</time>
      </trkpt>
      <trkpt lat="48.83634" lon="1.40965">
        <ele>148</ele>
        <time>2023-08-17T15:33:06Z</time>
      </trkpt>
      <trkpt lat="48.83638" lon="1.40967">
        <ele>148</ele>
        <time>2023-08-17T15:33:07Z</time>
      </trkpt>
      <trkpt lat="48.83641" lon="1.40973">
        <ele>148</ele>
        <time>2023-08-17T15:33:08Z</time>
      </trkpt>
      <trkpt lat="48.83643" lon="1.40977">
        <ele>148</ele>
        <time>2023-08-17T15:33:09Z</time>
      </trkpt>
      <trkpt lat="48.83645" lon="1.4098">
        <ele>148</ele>
        <time>2023-08-17T15:33:10Z</time>
      </trkpt>
      <trkpt lat="48.83646" lon="1.40983">
        <ele>148</ele>
        <time>2023-08-17T15:33:11Z</time>
      </trkpt>
      <trkpt lat="48.83649" lon="1.40991">
        <ele>148</ele>
        <time>2023-08-17T15:33:13Z</time>
      </trkpt>
      <trkpt lat="48.8365" lon="1.40993">
        <ele>148</ele>
        <time>2023-08-17T15:33:14Z</time>
      </trkpt>
      <trkpt lat="48.83652" lon="1.40996">
        <ele>148</ele>
        <time>2023-08-17T15:33:15Z</time>
      </trkpt>
      <trkpt lat="48.83654" lon="1.41001">
        <ele>148</ele>
        <time>2023-08-17T15:33:16Z</time>
      </trkpt>
      <trkpt lat="48.83657" lon="1.41008">
        <ele>148</ele>
        <time>2023-08-17T15:33:17Z</time>
      </trkpt>
      <trkpt lat="48.83667" lon="1.41036">
        <ele>147.6</ele>
        <time>2023-08-17T15:33:22Z</time>
      </trkpt>
      <trkpt lat="48.83669" lon="1.41041">
        <ele>147.4</ele>
        <time>2023-08-17T15:33:23Z</time>
      </trkpt>
      <trkpt lat="48.8367" lon="1.41045">
        <ele>147.4</ele>
        <time>2023-08-17T15:33:24Z</time>
      </trkpt>
      <trkpt lat="48.83672" lon="1.4105">
        <ele>147.4</ele>
        <time>2023-08-17T15:33:25Z</time>
      </trkpt>
      <trkpt lat="48.83674" lon="1.41055">
        <ele>147.4</ele>
        <time>2023-08-17T15:33:26Z</time>
      </trkpt>
      <trkpt lat="48.83676" lon="1.41064">
        <ele>147.4</ele>
        <time>2023-08-17T15:33:28Z</time>
      </trkpt>
      <trkpt lat="48.83676" lon="1.41068">
        <ele>147.4</ele>
        <time>2023-08-17T15:33:29Z</time>
      </trkpt>
      <trkpt lat="48.83678" lon="1.41073">
        <ele>147.4</ele>
        <time>2023-08-17T15:33:30Z</time>
      </trkpt>
      <trkpt lat="48.8368" lon="1.41079">
        <ele>147.4</ele>
        <time>2023-08-17T15:33:31Z</time>
      </trkpt>
      <trkpt lat="48.83681" lon="1.41083">
        <ele>147.4</ele>
        <time>2023-08-17T15:33:32Z</time>
      </trkpt>
      <trkpt lat="48.83683" lon="1.41089">
        <ele>147.4</ele>
        <time>2023-08-17T15:33:33Z</time>
      </trkpt>
      <trkpt lat="48.83685" lon="1.41093">
        <ele>147.4</ele>
        <time>2023-08-17T15:33:34Z</time>
      </trkpt>
      <trkpt lat="48.83686" lon="1.41097">
        <ele>147.4</ele>
        <time>2023-08-17T15:33:35Z</time>
      </trkpt>
      <trkpt lat="48.83688" lon="1.41102">
        <ele>147.4</ele>
        <time>2023-08-17T15:33:36Z</time>
      </trkpt>
      <trkpt lat="48.83691" lon="1.4111">
        <ele>147.4</ele>
        <time>2023-08-17T15:33:38Z</time>
      </trkpt>
      <trkpt lat="48.83691" lon="1.41114">
        <ele>147.6</ele>
        <time>2023-08-17T15:33:39Z</time>
      </trkpt>
      <trkpt lat="48.83691" lon="1.4112">
        <ele>147.8</ele>
        <time>2023-08-17T15:33:40Z</time>
      </trkpt>
      <trkpt lat="48.83691" lon="1.41126">
        <ele>148</ele>
        <time>2023-08-17T15:33:41Z</time>
      </trkpt>
      <trkpt lat="48.83691" lon="1.41132">
        <ele>148</ele>
        <time>2023-08-17T15:33:42Z</time>
      </trkpt>
      <trkpt lat="48.83691" lon="1.41136">
        <ele>148.2</ele>
        <time>2023-08-17T15:33:43Z</time>
      </trkpt>
      <trkpt lat="48.83691" lon="1.41139">
        <ele>148.2</ele>
        <time>2023-08-17T15:33:44Z</time>
      </trkpt>
      <trkpt lat="48.8369" lon="1.41142">
        <ele>148.2</ele>
        <time>2023-08-17T15:33:45Z</time>
      </trkpt>
      <trkpt lat="48.83689" lon="1.41146">
        <ele>148.2</ele>
        <time>2023-08-17T15:33:46Z</time>
      </trkpt>
      <trkpt lat="48.8369" lon="1.41151">
        <ele>148.4</ele>
        <time>2023-08-17T15:33:47Z</time>
      </trkpt>
      <trkpt lat="48.83692" lon="1.41155">
        <ele>148.4</ele>
        <time>2023-08-17T15:33:48Z</time>
      </trkpt>
      <trkpt lat="48.83694" lon="1.41156">
        <ele>148.4</ele>
        <time>2023-08-17T15:33:49Z</time>
      </trkpt>
      <trkpt lat="48.83696" lon="1.41159">
        <ele>148.4</ele>
        <time>2023-08-17T15:33:50Z</time>
      </trkpt>
      <trkpt lat="48.83699" lon="1.4116">
        <ele>148.4</ele>
        <time>2023-08-17T15:33:51Z</time>
      </trkpt>
      <trkpt lat="48.83701" lon="1.41162">
        <ele>148.6</ele>
        <time>2023-08-17T15:33:52Z</time>
      </trkpt>
      <trkpt lat="48.83702" lon="1.41164">
        <ele>148.8</ele>
        <time>2023-08-17T15:33:53Z</time>
      </trkpt>
      <trkpt lat="48.83704" lon="1.41166">
        <ele>148.8</ele>
        <time>2023-08-17T15:33:54Z</time>
      </trkpt>
      <trkpt lat="48.83707" lon="1.41169">
        <ele>149</ele>
        <time>2023-08-17T15:33:55Z</time>
      </trkpt>
      <trkpt lat="48.83709" lon="1.41172">
        <ele>149</ele>
        <time>2023-08-17T15:33:56Z</time>
      </trkpt>
      <trkpt lat="48.83713" lon="1.41179">
        <ele>149.2</ele>
        <time>2023-08-17T15:33:58Z</time>
      </trkpt>
      <trkpt lat="48.83728" lon="1.41197">
        <ele>149.2</ele>
        <time>2023-08-17T15:34:03Z</time>
      </trkpt>
      <trkpt lat="48.83731" lon="1.41199">
        <ele>149.2</ele>
        <time>2023-08-17T15:34:04Z</time>
      </trkpt>
      <trkpt lat="48.83733" lon="1.41202">
        <ele>149.2</ele>
        <time>2023-08-17T15:34:05Z</time>
      </trkpt>
      <trkpt lat="48.8375" lon="1.4122">
        <ele>149</ele>
        <time>2023-08-17T15:34:11Z</time>
      </trkpt>
      <trkpt lat="48.83753" lon="1.41224">
        <ele>149</ele>
        <time>2023-08-17T15:34:12Z</time>
      </trkpt>
      <trkpt lat="48.8376" lon="1.41232">
        <ele>148.8</ele>
        <time>2023-08-17T15:34:15Z</time>
      </trkpt>
      <trkpt lat="48.8377" lon="1.41246">
        <ele>148.8</ele>
        <time>2023-08-17T15:34:19Z</time>
      </trkpt>
      <trkpt lat="48.83786" lon="1.41276">
        <ele>149</ele>
        <time>2023-08-17T15:34:27Z</time>
      </trkpt>
      <trkpt lat="48.83788" lon="1.41285">
        <ele>149</ele>
        <time>2023-08-17T15:34:29Z</time>
      </trkpt>
      <trkpt lat="48.8379" lon="1.41289">
        <ele>149</ele>
        <time>2023-08-17T15:34:30Z</time>
      </trkpt>
      <trkpt lat="48.83792" lon="1.41298">
        <ele>149</ele>
        <time>2023-08-17T15:34:32Z</time>
      </trkpt>
      <trkpt lat="48.83793" lon="1.41302">
        <ele>149.2</ele>
        <time>2023-08-17T15:34:33Z</time>
      </trkpt>
      <trkpt lat="48.83795" lon="1.4131">
        <ele>149.2</ele>
        <time>2023-08-17T15:34:35Z</time>
      </trkpt>
      <trkpt lat="48.83797" lon="1.41313">
        <ele>149.2</ele>
        <time>2023-08-17T15:34:36Z</time>
      </trkpt>
      <trkpt lat="48.83798" lon="1.41318">
        <ele>149.2</ele>
        <time>2023-08-17T15:34:37Z</time>
      </trkpt>
      <trkpt lat="48.838" lon="1.41323">
        <ele>149.2</ele>
        <time>2023-08-17T15:34:38Z</time>
      </trkpt>
      <trkpt lat="48.83801" lon="1.41329">
        <ele>149.2</ele>
        <time>2023-08-17T15:34:39Z</time>
      </trkpt>
      <trkpt lat="48.83807" lon="1.41349">
        <ele>149.4</ele>
        <time>2023-08-17T15:34:43Z</time>
      </trkpt>
      <trkpt lat="48.83819" lon="1.41385">
        <ele>149.6</ele>
        <time>2023-08-17T15:34:50Z</time>
      </trkpt>
      <trkpt lat="48.83822" lon="1.41389">
        <ele>149.6</ele>
        <time>2023-08-17T15:34:51Z</time>
      </trkpt>
      <trkpt lat="48.83824" lon="1.41394">
        <ele>149.6</ele>
        <time>2023-08-17T15:34:52Z</time>
      </trkpt>
      <trkpt lat="48.83826" lon="1.41398">
        <ele>149.6</ele>
        <time>2023-08-17T15:34:53Z</time>
      </trkpt>
      <trkpt lat="48.83828" lon="1.414">
        <ele>149.6</ele>
        <time>2023-08-17T15:34:54Z</time>
      </trkpt>
      <trkpt lat="48.83831" lon="1.41404">
        <ele>149.6</ele>
        <time>2023-08-17T15:34:55Z</time>
      </trkpt>
      <trkpt lat="48.83834" lon="1.41407">
        <ele>149.6</ele>
        <time>2023-08-17T15:34:56Z</time>
      </trkpt>
      <trkpt lat="48.83843" lon="1.41412">
        <ele>149.6</ele>
        <time>2023-08-17T15:34:59Z</time>
      </trkpt>
      <trkpt lat="48.83846" lon="1.41415">
        <ele>149.4</ele>
        <time>2023-08-17T15:35:00Z</time>
      </trkpt>
      <trkpt lat="48.83849" lon="1.41416">
        <ele>149.4</ele>
        <time>2023-08-17T15:35:01Z</time>
      </trkpt>
      <trkpt lat="48.83853" lon="1.41418">
        <ele>149.4</ele>
        <time>2023-08-17T15:35:02Z</time>
      </trkpt>
      <trkpt lat="48.83856" lon="1.4142">
        <ele>149.4</ele>
        <time>2023-08-17T15:35:03Z</time>
      </trkpt>
      <trkpt lat="48.8386" lon="1.41422">
        <ele>149.4</ele>
        <time>2023-08-17T15:35:04Z</time>
      </trkpt>
      <trkpt lat="48.83862" lon="1.41425">
        <ele>149.4</ele>
        <time>2023-08-17T15:35:05Z</time>
      </trkpt>
      <trkpt lat="48.83865" lon="1.41427">
        <ele>149.4</ele>
        <time>2023-08-17T15:35:06Z</time>
      </trkpt>
      <trkpt lat="48.83868" lon="1.41429">
        <ele>149.4</ele>
        <time>2023-08-17T15:35:07Z</time>
      </trkpt>
      <trkpt lat="48.83887" lon="1.41443">
        <ele>149</ele>
        <time>2023-08-17T15:35:13Z</time>
      </trkpt>
      <trkpt lat="48.83889" lon="1.41444">
        <ele>149</ele>
        <time>2023-08-17T15:35:14Z</time>
      </trkpt>
      <trkpt lat="48.83891" lon="1.41446">
        <ele>149</ele>
        <time>2023-08-17T15:35:15Z</time>
      </trkpt>
      <trkpt lat="48.83893" lon="1.41447">
        <ele>149</ele>
        <time>2023-08-17T15:35:16Z</time>
      </trkpt>
      <trkpt lat="48.83894" lon="1.41448">
        <ele>149</ele>
        <time>2023-08-17T15:35:17Z</time>
      </trkpt>
      <trkpt lat="48.83896" lon="1.41448">
        <ele>149</ele>
        <time>2023-08-17T15:35:18Z</time>
      </trkpt>
      <trkpt lat="48.83896" lon="1.41451">
        <ele>149</ele>
        <time>2023-08-17T15:35:19Z</time>
      </trkpt>
      <trkpt lat="48.83896" lon="1.41453">
        <ele>149</ele>
        <time>2023-08-17T15:35:20Z</time>
      </trkpt>
      <trkpt lat="48.83895" lon="1.41454">
        <ele>149</ele>
        <time>2023-08-17T15:35:21Z</time>
      </trkpt>
      <trkpt lat="48.83894" lon="1.41454">
        <ele>149</ele>
        <time>2023-08-17T15:35:22Z</time>
      </trkpt>
      <trkpt lat="48.83889" lon="1.41456">
        <ele>149</ele>
        <time>2023-08-17T15:35:25Z</time>
      </trkpt>
      <trkpt lat="48.83887" lon="1.41457">
        <ele>149</ele>
        <time>2023-08-17T15:35:26Z</time>
      </trkpt>
      <trkpt lat="48.83881" lon="1.4146">
        <ele>149</ele>
        <time>2023-08-17T15:35:29Z</time>
      </trkpt>
      <trkpt lat="48.83866" lon="1.41469">
        <ele>149.2</ele>
        <time>2023-08-17T15:35:36Z</time>
      </trkpt>
      <trkpt lat="48.83851" lon="1.4148">
        <ele>149.4</ele>
        <time>2023-08-17T15:35:42Z</time>
      </trkpt>
      <trkpt lat="48.8383" lon="1.41495">
        <ele>149.4</ele>
        <time>2023-08-17T15:35:49Z</time>
      </trkpt>
      <trkpt lat="48.8381" lon="1.41508">
        <ele>149.6</ele>
        <time>2023-08-17T15:35:55Z</time>
      </trkpt>
      <trkpt lat="48.83785" lon="1.41525">
        <ele>149.6</ele>
        <time>2023-08-17T15:36:02Z</time>
      </trkpt>
      <trkpt lat="48.8377" lon="1.41534">
        <ele>149.6</ele>
        <time>2023-08-17T15:36:07Z</time>
      </trkpt>
      <trkpt lat="48.83763" lon="1.41539">
        <ele>149.6</ele>
        <time>2023-08-17T15:36:09Z</time>
      </trkpt>
      <trkpt lat="48.83761" lon="1.41542">
        <ele>149.6</ele>
        <time>2023-08-17T15:36:10Z</time>
      </trkpt>
      <trkpt lat="48.83758" lon="1.41545">
        <ele>149.6</ele>
        <time>2023-08-17T15:36:11Z</time>
      </trkpt>
      <trkpt lat="48.83743" lon="1.41555">
        <ele>149.4</ele>
        <time>2023-08-17T15:36:15Z</time>
      </trkpt>
      <trkpt lat="48.8374" lon="1.41558">
        <ele>149.4</ele>
        <time>2023-08-17T15:36:16Z</time>
      </trkpt>
      <trkpt lat="48.83739" lon="1.41561">
        <ele>149.4</ele>
        <time>2023-08-17T15:36:17Z</time>
      </trkpt>
      <trkpt lat="48.83738" lon="1.41565">
        <ele>149.4</ele>
        <time>2023-08-17T15:36:18Z</time>
      </trkpt>
      <trkpt lat="48.83739" lon="1.41567">
        <ele>149.4</ele>
        <time>2023-08-17T15:36:19Z</time>
      </trkpt>
      <trkpt lat="48.83741" lon="1.4157">
        <ele>149.4</ele>
        <time>2023-08-17T15:36:20Z</time>
      </trkpt>
      <trkpt lat="48.83752" lon="1.41581">
        <ele>149.4</ele>
        <time>2023-08-17T15:36:25Z</time>
      </trkpt>
      <trkpt lat="48.83754" lon="1.41583">
        <ele>149.4</ele>
        <time>2023-08-17T15:36:26Z</time>
      </trkpt>
      <trkpt lat="48.83755" lon="1.41585">
        <ele>149.4</ele>
        <time>2023-08-17T15:36:27Z</time>
      </trkpt>
      <trkpt lat="48.83757" lon="1.41587">
        <ele>149.4</ele>
        <time>2023-08-17T15:36:28Z</time>
      </trkpt>
      <trkpt lat="48.83766" lon="1.41598">
        <ele>149.4</ele>
        <time>2023-08-17T15:36:32Z</time>
      </trkpt>
      <trkpt lat="48.83782" lon="1.41612">
        <ele>149.4</ele>
        <time>2023-08-17T15:36:38Z</time>
      </trkpt>
      <trkpt lat="48.83804" lon="1.41633">
        <ele>149.4</ele>
        <time>2023-08-17T15:36:45Z</time>
      </trkpt>
      <trkpt lat="48.83806" lon="1.41635">
        <ele>149.4</ele>
        <time>2023-08-17T15:36:46Z</time>
      </trkpt>
      <trkpt lat="48.8381" lon="1.41638">
        <ele>149.4</ele>
        <time>2023-08-17T15:36:47Z</time>
      </trkpt>
      <trkpt lat="48.83814" lon="1.41641">
        <ele>149.4</ele>
        <time>2023-08-17T15:36:48Z</time>
      </trkpt>
      <trkpt lat="48.83825" lon="1.41648">
        <ele>149.4</ele>
        <time>2023-08-17T15:36:51Z</time>
      </trkpt>
      <trkpt lat="48.8383" lon="1.41652">
        <ele>149.2</ele>
        <time>2023-08-17T15:36:52Z</time>
      </trkpt>
      <trkpt lat="48.83834" lon="1.41655">
        <ele>149.2</ele>
        <time>2023-08-17T15:36:53Z</time>
      </trkpt>
      <trkpt lat="48.83837" lon="1.41657">
        <ele>149.2</ele>
        <time>2023-08-17T15:36:54Z</time>
      </trkpt>
      <trkpt lat="48.83841" lon="1.4166">
        <ele>149.2</ele>
        <time>2023-08-17T15:36:55Z</time>
      </trkpt>
      <trkpt lat="48.83849" lon="1.41663">
        <ele>149.2</ele>
        <time>2023-08-17T15:36:57Z</time>
      </trkpt>
      <trkpt lat="48.83858" lon="1.41666">
        <ele>149.2</ele>
        <time>2023-08-17T15:36:59Z</time>
      </trkpt>
      <trkpt lat="48.83862" lon="1.41668">
        <ele>149.2</ele>
        <time>2023-08-17T15:37:00Z</time>
      </trkpt>
      <trkpt lat="48.83877" lon="1.41674">
        <ele>149.2</ele>
        <time>2023-08-17T15:37:04Z</time>
      </trkpt>
      <trkpt lat="48.83887" lon="1.41678">
        <ele>149.2</ele>
        <time>2023-08-17T15:37:07Z</time>
      </trkpt>
      <trkpt lat="48.8389" lon="1.4168">
        <ele>149.2</ele>
        <time>2023-08-17T15:37:08Z</time>
      </trkpt>
      <trkpt lat="48.83893" lon="1.41682">
        <ele>149.2</ele>
        <time>2023-08-17T15:37:09Z</time>
      </trkpt>
      <trkpt lat="48.83896" lon="1.41684">
        <ele>149.2</ele>
        <time>2023-08-17T15:37:10Z</time>
      </trkpt>
      <trkpt lat="48.839" lon="1.41688">
        <ele>149.2</ele>
        <time>2023-08-17T15:37:11Z</time>
      </trkpt>
      <trkpt lat="48.83903" lon="1.41691">
        <ele>149.2</ele>
        <time>2023-08-17T15:37:12Z</time>
      </trkpt>
      <trkpt lat="48.83918" lon="1.41699">
        <ele>149.4</ele>
        <time>2023-08-17T15:37:16Z</time>
      </trkpt>
      <trkpt lat="48.83922" lon="1.41705">
        <ele>149.4</ele>
        <time>2023-08-17T15:37:17Z</time>
      </trkpt>
      <trkpt lat="48.83936" lon="1.41723">
        <ele>149.4</ele>
        <time>2023-08-17T15:37:22Z</time>
      </trkpt>
      <trkpt lat="48.83937" lon="1.41727">
        <ele>149.4</ele>
        <time>2023-08-17T15:37:23Z</time>
      </trkpt>
      <trkpt lat="48.83938" lon="1.41731">
        <ele>149.4</ele>
        <time>2023-08-17T15:37:24Z</time>
      </trkpt>
      <trkpt lat="48.8394" lon="1.41737">
        <ele>149.4</ele>
        <time>2023-08-17T15:37:25Z</time>
      </trkpt>
      <trkpt lat="48.83943" lon="1.41742">
        <ele>149.4</ele>
        <time>2023-08-17T15:37:26Z</time>
      </trkpt>
      <trkpt lat="48.83945" lon="1.41747">
        <ele>149.4</ele>
        <time>2023-08-17T15:37:27Z</time>
      </trkpt>
      <trkpt lat="48.83956" lon="1.41776">
        <ele>149.2</ele>
        <time>2023-08-17T15:37:33Z</time>
      </trkpt>
      <trkpt lat="48.8397" lon="1.41809">
        <ele>149</ele>
        <time>2023-08-17T15:37:39Z</time>
      </trkpt>
      <trkpt lat="48.83977" lon="1.41837">
        <ele>149</ele>
        <time>2023-08-17T15:37:44Z</time>
      </trkpt>
      <trkpt lat="48.83978" lon="1.41842">
        <ele>149</ele>
        <time>2023-08-17T15:37:45Z</time>
      </trkpt>
      <trkpt lat="48.8398" lon="1.41847">
        <ele>149</ele>
        <time>2023-08-17T15:37:46Z</time>
      </trkpt>
      <trkpt lat="48.83982" lon="1.41852">
        <ele>149</ele>
        <time>2023-08-17T15:37:47Z</time>
      </trkpt>
      <trkpt lat="48.83983" lon="1.41857">
        <ele>149</ele>
        <time>2023-08-17T15:37:48Z</time>
      </trkpt>
      <trkpt lat="48.83984" lon="1.41875">
        <ele>148.8</ele>
        <time>2023-08-17T15:37:51Z</time>
      </trkpt>
      <trkpt lat="48.83983" lon="1.41879">
        <ele>148.8</ele>
        <time>2023-08-17T15:37:52Z</time>
      </trkpt>
      <trkpt lat="48.83983" lon="1.41884">
        <ele>148.8</ele>
        <time>2023-08-17T15:37:53Z</time>
      </trkpt>
      <trkpt lat="48.83982" lon="1.41888">
        <ele>148.8</ele>
        <time>2023-08-17T15:37:54Z</time>
      </trkpt>
      <trkpt lat="48.8398" lon="1.41904">
        <ele>148.8</ele>
        <time>2023-08-17T15:37:57Z</time>
      </trkpt>
      <trkpt lat="48.83978" lon="1.41938">
        <ele>148.8</ele>
        <time>2023-08-17T15:38:03Z</time>
      </trkpt>
      <trkpt lat="48.83977" lon="1.41974">
        <ele>148.6</ele>
        <time>2023-08-17T15:38:09Z</time>
      </trkpt>
      <trkpt lat="48.83979" lon="1.41981">
        <ele>148.6</ele>
        <time>2023-08-17T15:38:10Z</time>
      </trkpt>
      <trkpt lat="48.83981" lon="1.41987">
        <ele>148.6</ele>
        <time>2023-08-17T15:38:11Z</time>
      </trkpt>
      <trkpt lat="48.83991" lon="1.42017">
        <ele>148.6</ele>
        <time>2023-08-17T15:38:16Z</time>
      </trkpt>
      <trkpt lat="48.84007" lon="1.42058">
        <ele>148.8</ele>
        <time>2023-08-17T15:38:23Z</time>
      </trkpt>
      <trkpt lat="48.84017" lon="1.4208">
        <ele>148.8</ele>
        <time>2023-08-17T15:38:27Z</time>
      </trkpt>
      <trkpt lat="48.84019" lon="1.42085">
        <ele>148.8</ele>
        <time>2023-08-17T15:38:28Z</time>
      </trkpt>
      <trkpt lat="48.84021" lon="1.4209">
        <ele>148.8</ele>
        <time>2023-08-17T15:38:29Z</time>
      </trkpt>
      <trkpt lat="48.84027" lon="1.42106">
        <ele>148.8</ele>
        <time>2023-08-17T15:38:32Z</time>
      </trkpt>
      <trkpt lat="48.8403" lon="1.42112">
        <ele>148.8</ele>
        <time>2023-08-17T15:38:33Z</time>
      </trkpt>
      <trkpt lat="48.84031" lon="1.42116">
        <ele>148.8</ele>
        <time>2023-08-17T15:38:34Z</time>
      </trkpt>
      <trkpt lat="48.84038" lon="1.4214">
        <ele>148.8</ele>
        <time>2023-08-17T15:38:38Z</time>
      </trkpt>
      <trkpt lat="48.84039" lon="1.42146">
        <ele>148.8</ele>
        <time>2023-08-17T15:38:39Z</time>
      </trkpt>
      <trkpt lat="48.84042" lon="1.42178">
        <ele>148.8</ele>
        <time>2023-08-17T15:38:44Z</time>
      </trkpt>
      <trkpt lat="48.84044" lon="1.4219">
        <ele>148.6</ele>
        <time>2023-08-17T15:38:46Z</time>
      </trkpt>
      <trkpt lat="48.84044" lon="1.42195">
        <ele>148.6</ele>
        <time>2023-08-17T15:38:47Z</time>
      </trkpt>
      <trkpt lat="48.84043" lon="1.42207">
        <ele>148.6</ele>
        <time>2023-08-17T15:38:49Z</time>
      </trkpt>
      <trkpt lat="48.84043" lon="1.42214">
        <ele>148.6</ele>
        <time>2023-08-17T15:38:50Z</time>
      </trkpt>
      <trkpt lat="48.84042" lon="1.42221">
        <ele>148.4</ele>
        <time>2023-08-17T15:38:51Z</time>
      </trkpt>
      <trkpt lat="48.84042" lon="1.42226">
        <ele>148.4</ele>
        <time>2023-08-17T15:38:52Z</time>
      </trkpt>
      <trkpt lat="48.84041" lon="1.42232">
        <ele>148.4</ele>
        <time>2023-08-17T15:38:53Z</time>
      </trkpt>
      <trkpt lat="48.84041" lon="1.42238">
        <ele>148.6</ele>
        <time>2023-08-17T15:38:54Z</time>
      </trkpt>
      <trkpt lat="48.84038" lon="1.42288">
        <ele>148.6</ele>
        <time>2023-08-17T15:39:02Z</time>
      </trkpt>
      <trkpt lat="48.84037" lon="1.42326">
        <ele>148.6</ele>
        <time>2023-08-17T15:39:08Z</time>
      </trkpt>
      <trkpt lat="48.84036" lon="1.42339">
        <ele>148.6</ele>
        <time>2023-08-17T15:39:10Z</time>
      </trkpt>
      <trkpt lat="48.84036" lon="1.42344">
        <ele>148.6</ele>
        <time>2023-08-17T15:39:11Z</time>
      </trkpt>
      <trkpt lat="48.84035" lon="1.42349">
        <ele>148.6</ele>
        <time>2023-08-17T15:39:12Z</time>
      </trkpt>
      <trkpt lat="48.84036" lon="1.42353">
        <ele>148.6</ele>
        <time>2023-08-17T15:39:13Z</time>
      </trkpt>
      <trkpt lat="48.84035" lon="1.42359">
        <ele>148.6</ele>
        <time>2023-08-17T15:39:14Z</time>
      </trkpt>
      <trkpt lat="48.84035" lon="1.42363">
        <ele>148.6</ele>
        <time>2023-08-17T15:39:15Z</time>
      </trkpt>
      <trkpt lat="48.84034" lon="1.42367">
        <ele>148.6</ele>
        <time>2023-08-17T15:39:16Z</time>
      </trkpt>
      <trkpt lat="48.84033" lon="1.42371">
        <ele>148.6</ele>
        <time>2023-08-17T15:39:17Z</time>
      </trkpt>
      <trkpt lat="48.84032" lon="1.42374">
        <ele>148.8</ele>
        <time>2023-08-17T15:39:18Z</time>
      </trkpt>
      <trkpt lat="48.84031" lon="1.42391">
        <ele>149</ele>
        <time>2023-08-17T15:39:22Z</time>
      </trkpt>
      <trkpt lat="48.8403" lon="1.42438">
        <ele>149.2</ele>
        <time>2023-08-17T15:39:31Z</time>
      </trkpt>
      <trkpt lat="48.84034" lon="1.42483">
        <ele>149</ele>
        <time>2023-08-17T15:39:39Z</time>
      </trkpt>
      <trkpt lat="48.84038" lon="1.42494">
        <ele>149</ele>
        <time>2023-08-17T15:39:42Z</time>
      </trkpt>
      <trkpt lat="48.8404" lon="1.42498">
        <ele>149</ele>
        <time>2023-08-17T15:39:43Z</time>
      </trkpt>
      <trkpt lat="48.84041" lon="1.42502">
        <ele>149.2</ele>
        <time>2023-08-17T15:39:44Z</time>
      </trkpt>
      <trkpt lat="48.84041" lon="1.42505">
        <ele>149</ele>
        <time>2023-08-17T15:39:45Z</time>
      </trkpt>
      <trkpt lat="48.84042" lon="1.42509">
        <ele>149</ele>
        <time>2023-08-17T15:39:46Z</time>
      </trkpt>
      <trkpt lat="48.84042" lon="1.42512">
        <ele>149</ele>
        <time>2023-08-17T15:39:47Z</time>
      </trkpt>
      <trkpt lat="48.84042" lon="1.42514">
        <ele>149</ele>
        <time>2023-08-17T15:39:48Z</time>
      </trkpt>
      <trkpt lat="48.84041" lon="1.42515">
        <ele>149</ele>
        <time>2023-08-17T15:39:49Z</time>
      </trkpt>
      <trkpt lat="48.84044" lon="1.42525">
        <ele>149.6</ele>
        <time>2023-08-17T15:45:10Z</time>
      </trkpt>
      <trkpt lat="48.84045" lon="1.42528">
        <ele>149.6</ele>
        <time>2023-08-17T15:45:11Z</time>
      </trkpt>
      <trkpt lat="48.84047" lon="1.42531">
        <ele>149.6</ele>
        <time>2023-08-17T15:45:12Z</time>
      </trkpt>
      <trkpt lat="48.84048" lon="1.42535">
        <ele>149.6</ele>
        <time>2023-08-17T15:45:13Z</time>
      </trkpt>
      <trkpt lat="48.84055" lon="1.42548">
        <ele>149.8</ele>
        <time>2023-08-17T15:45:17Z</time>
      </trkpt>
      <trkpt lat="48.84056" lon="1.42552">
        <ele>149.8</ele>
        <time>2023-08-17T15:45:18Z</time>
      </trkpt>
      <trkpt lat="48.84058" lon="1.42555">
        <ele>149.8</ele>
        <time>2023-08-17T15:45:19Z</time>
      </trkpt>
      <trkpt lat="48.8406" lon="1.42558">
        <ele>149.6</ele>
        <time>2023-08-17T15:45:20Z</time>
      </trkpt>
      <trkpt lat="48.84062" lon="1.42562">
        <ele>149.6</ele>
        <time>2023-08-17T15:45:21Z</time>
      </trkpt>
      <trkpt lat="48.84075" lon="1.42586">
        <ele>149.8</ele>
        <time>2023-08-17T15:45:28Z</time>
      </trkpt>
      <trkpt lat="48.84094" lon="1.42621">
        <ele>149.8</ele>
        <time>2023-08-17T15:45:37Z</time>
      </trkpt>
      <trkpt lat="48.84114" lon="1.42657">
        <ele>149.8</ele>
        <time>2023-08-17T15:45:46Z</time>
      </trkpt>
      <trkpt lat="48.84116" lon="1.4266">
        <ele>149.8</ele>
        <time>2023-08-17T15:45:47Z</time>
      </trkpt>
      <trkpt lat="48.84118" lon="1.42664">
        <ele>149.8</ele>
        <time>2023-08-17T15:45:48Z</time>
      </trkpt>
      <trkpt lat="48.8412" lon="1.42668">
        <ele>149.8</ele>
        <time>2023-08-17T15:45:49Z</time>
      </trkpt>
      <trkpt lat="48.84122" lon="1.42672">
        <ele>149.8</ele>
        <time>2023-08-17T15:45:50Z</time>
      </trkpt>
      <trkpt lat="48.84135" lon="1.4269">
        <ele>149.8</ele>
        <time>2023-08-17T15:45:55Z</time>
      </trkpt>
      <trkpt lat="48.84159" lon="1.42732">
        <ele>149.8</ele>
        <time>2023-08-17T15:46:05Z</time>
      </trkpt>
      <trkpt lat="48.84176" lon="1.4277">
        <ele>149.6</ele>
        <time>2023-08-17T15:46:13Z</time>
      </trkpt>
      <trkpt lat="48.84178" lon="1.42775">
        <ele>149.6</ele>
        <time>2023-08-17T15:46:14Z</time>
      </trkpt>
      <trkpt lat="48.84179" lon="1.4278">
        <ele>149.6</ele>
        <time>2023-08-17T15:46:15Z</time>
      </trkpt>
      <trkpt lat="48.84181" lon="1.42784">
        <ele>149.6</ele>
        <time>2023-08-17T15:46:16Z</time>
      </trkpt>
      <trkpt lat="48.84183" lon="1.42789">
        <ele>149.6</ele>
        <time>2023-08-17T15:46:17Z</time>
      </trkpt>
      <trkpt lat="48.84185" lon="1.42794">
        <ele>149.6</ele>
        <time>2023-08-17T15:46:18Z</time>
      </trkpt>
      <trkpt lat="48.84186" lon="1.42798">
        <ele>149.6</ele>
        <time>2023-08-17T15:46:19Z</time>
      </trkpt>
      <trkpt lat="48.84187" lon="1.42803">
        <ele>149.6</ele>
        <time>2023-08-17T15:46:20Z</time>
      </trkpt>
      <trkpt lat="48.84188" lon="1.42808">
        <ele>149.6</ele>
        <time>2023-08-17T15:46:21Z</time>
      </trkpt>
      <trkpt lat="48.84189" lon="1.42813">
        <ele>149.6</ele>
        <time>2023-08-17T15:46:22Z</time>
      </trkpt>
      <trkpt lat="48.8419" lon="1.42817">
        <ele>149.4</ele>
        <time>2023-08-17T15:46:23Z</time>
      </trkpt>
      <trkpt lat="48.8419" lon="1.42821">
        <ele>149.4</ele>
        <time>2023-08-17T15:46:24Z</time>
      </trkpt>
      <trkpt lat="48.84189" lon="1.42825">
        <ele>149.4</ele>
        <time>2023-08-17T15:46:25Z</time>
      </trkpt>
      <trkpt lat="48.84188" lon="1.42829">
        <ele>149.4</ele>
        <time>2023-08-17T15:46:26Z</time>
      </trkpt>
      <trkpt lat="48.84186" lon="1.42831">
        <ele>149.4</ele>
        <time>2023-08-17T15:46:27Z</time>
      </trkpt>
      <trkpt lat="48.84183" lon="1.42833">
        <ele>149.4</ele>
        <time>2023-08-17T15:46:28Z</time>
      </trkpt>
      <trkpt lat="48.84181" lon="1.42835">
        <ele>149.4</ele>
        <time>2023-08-17T15:46:29Z</time>
      </trkpt>
      <trkpt lat="48.84179" lon="1.42837">
        <ele>149.4</ele>
        <time>2023-08-17T15:46:30Z</time>
      </trkpt>
      <trkpt lat="48.84179" lon="1.42841">
        <ele>149.4</ele>
        <time>2023-08-17T15:46:31Z</time>
      </trkpt>
      <trkpt lat="48.84178" lon="1.42844">
        <ele>149.6</ele>
        <time>2023-08-17T15:46:32Z</time>
      </trkpt>
      <trkpt lat="48.84178" lon="1.42847">
        <ele>149.6</ele>
        <time>2023-08-17T15:46:33Z</time>
      </trkpt>
      <trkpt lat="48.84177" lon="1.4285">
        <ele>149.6</ele>
        <time>2023-08-17T15:46:34Z</time>
      </trkpt>
      <trkpt lat="48.84176" lon="1.42854">
        <ele>149.6</ele>
        <time>2023-08-17T15:46:35Z</time>
      </trkpt>
      <trkpt lat="48.84175" lon="1.42857">
        <ele>149.6</ele>
        <time>2023-08-17T15:46:36Z</time>
      </trkpt>
      <trkpt lat="48.84171" lon="1.42864">
        <ele>149.6</ele>
        <time>2023-08-17T15:46:38Z</time>
      </trkpt>
      <trkpt lat="48.84161" lon="1.42889">
        <ele>149.8</ele>
        <time>2023-08-17T15:46:45Z</time>
      </trkpt>
      <trkpt lat="48.84162" lon="1.42893">
        <ele>149.8</ele>
        <time>2023-08-17T15:46:46Z</time>
      </trkpt>
      <trkpt lat="48.84163" lon="1.42896">
        <ele>149.8</ele>
        <time>2023-08-17T15:46:47Z</time>
      </trkpt>
      <trkpt lat="48.84164" lon="1.429">
        <ele>149.8</ele>
        <time>2023-08-17T15:46:48Z</time>
      </trkpt>
      <trkpt lat="48.84164" lon="1.42904">
        <ele>149.8</ele>
        <time>2023-08-17T15:46:49Z</time>
      </trkpt>
      <trkpt lat="48.84167" lon="1.42917">
        <ele>149.8</ele>
        <time>2023-08-17T15:46:52Z</time>
      </trkpt>
      <trkpt lat="48.84169" lon="1.42926">
        <ele>150</ele>
        <time>2023-08-17T15:46:54Z</time>
      </trkpt>
      <trkpt lat="48.84177" lon="1.42956">
        <ele>150.2</ele>
        <time>2023-08-17T15:47:00Z</time>
      </trkpt>
      <trkpt lat="48.84185" lon="1.42994">
        <ele>150.2</ele>
        <time>2023-08-17T15:47:07Z</time>
      </trkpt>
      <trkpt lat="48.84192" lon="1.43025">
        <ele>150</ele>
        <time>2023-08-17T15:47:13Z</time>
      </trkpt>
      <trkpt lat="48.84193" lon="1.4303">
        <ele>150</ele>
        <time>2023-08-17T15:47:14Z</time>
      </trkpt>
      <trkpt lat="48.84199" lon="1.4305">
        <ele>149.8</ele>
        <time>2023-08-17T15:47:18Z</time>
      </trkpt>
      <trkpt lat="48.84203" lon="1.4306">
        <ele>149.8</ele>
        <time>2023-08-17T15:47:20Z</time>
      </trkpt>
      <trkpt lat="48.84213" lon="1.43089">
        <ele>149.6</ele>
        <time>2023-08-17T15:47:26Z</time>
      </trkpt>
      <trkpt lat="48.84219" lon="1.43108">
        <ele>149.6</ele>
        <time>2023-08-17T15:47:30Z</time>
      </trkpt>
      <trkpt lat="48.84221" lon="1.43118">
        <ele>149.6</ele>
        <time>2023-08-17T15:47:32Z</time>
      </trkpt>
      <trkpt lat="48.84222" lon="1.43122">
        <ele>149.6</ele>
        <time>2023-08-17T15:47:33Z</time>
      </trkpt>
      <trkpt lat="48.84223" lon="1.43127">
        <ele>149.6</ele>
        <time>2023-08-17T15:47:34Z</time>
      </trkpt>
      <trkpt lat="48.84224" lon="1.43131">
        <ele>149.6</ele>
        <time>2023-08-17T15:47:35Z</time>
      </trkpt>
      <trkpt lat="48.84224" lon="1.43135">
        <ele>149.6</ele>
        <time>2023-08-17T15:47:36Z</time>
      </trkpt>
      <trkpt lat="48.84225" lon="1.4314">
        <ele>149.6</ele>
        <time>2023-08-17T15:47:37Z</time>
      </trkpt>
      <trkpt lat="48.84226" lon="1.43143">
        <ele>149.6</ele>
        <time>2023-08-17T15:47:38Z</time>
      </trkpt>
      <trkpt lat="48.84227" lon="1.43147">
        <ele>149.6</ele>
        <time>2023-08-17T15:47:39Z</time>
      </trkpt>
      <trkpt lat="48.84228" lon="1.4315">
        <ele>149.6</ele>
        <time>2023-08-17T15:47:40Z</time>
      </trkpt>
      <trkpt lat="48.8423" lon="1.43153">
        <ele>149.6</ele>
        <time>2023-08-17T15:47:41Z</time>
      </trkpt>
      <trkpt lat="48.84234" lon="1.4317">
        <ele>149.6</ele>
        <time>2023-08-17T15:47:46Z</time>
      </trkpt>
      <trkpt lat="48.84235" lon="1.43175">
        <ele>149.6</ele>
        <time>2023-08-17T15:47:47Z</time>
      </trkpt>
      <trkpt lat="48.84237" lon="1.43184">
        <ele>149.6</ele>
        <time>2023-08-17T15:47:49Z</time>
      </trkpt>
      <trkpt lat="48.8424" lon="1.43192">
        <ele>149.4</ele>
        <time>2023-08-17T15:47:51Z</time>
      </trkpt>
      <trkpt lat="48.84251" lon="1.43215">
        <ele>149.2</ele>
        <time>2023-08-17T15:47:57Z</time>
      </trkpt>
      <trkpt lat="48.84254" lon="1.43222">
        <ele>149</ele>
        <time>2023-08-17T15:47:59Z</time>
      </trkpt>
      <trkpt lat="48.84255" lon="1.43226">
        <ele>149</ele>
        <time>2023-08-17T15:48:00Z</time>
      </trkpt>
      <trkpt lat="48.8426" lon="1.43251">
        <ele>149</ele>
        <time>2023-08-17T15:48:05Z</time>
      </trkpt>
      <trkpt lat="48.84269" lon="1.43286">
        <ele>149</ele>
        <time>2023-08-17T15:48:11Z</time>
      </trkpt>
      <trkpt lat="48.84271" lon="1.43292">
        <ele>149</ele>
        <time>2023-08-17T15:48:12Z</time>
      </trkpt>
      <trkpt lat="48.84281" lon="1.43329">
        <ele>149</ele>
        <time>2023-08-17T15:48:18Z</time>
      </trkpt>
      <trkpt lat="48.84284" lon="1.43342">
        <ele>148.8</ele>
        <time>2023-08-17T15:48:20Z</time>
      </trkpt>
      <trkpt lat="48.84294" lon="1.43382">
        <ele>148.6</ele>
        <time>2023-08-17T15:48:26Z</time>
      </trkpt>
      <trkpt lat="48.84301" lon="1.43409">
        <ele>148.6</ele>
        <time>2023-08-17T15:48:30Z</time>
      </trkpt>
      <trkpt lat="48.84305" lon="1.43422">
        <ele>148.4</ele>
        <time>2023-08-17T15:48:32Z</time>
      </trkpt>
      <trkpt lat="48.84313" lon="1.43453">
        <ele>148.2</ele>
        <time>2023-08-17T15:48:37Z</time>
      </trkpt>
      <trkpt lat="48.84317" lon="1.43465">
        <ele>148.2</ele>
        <time>2023-08-17T15:48:39Z</time>
      </trkpt>
      <trkpt lat="48.8432" lon="1.43478">
        <ele>148</ele>
        <time>2023-08-17T15:48:41Z</time>
      </trkpt>
      <trkpt lat="48.84322" lon="1.43484">
        <ele>148</ele>
        <time>2023-08-17T15:48:42Z</time>
      </trkpt>
      <trkpt lat="48.84328" lon="1.43503">
        <ele>147.8</ele>
        <time>2023-08-17T15:48:45Z</time>
      </trkpt>
      <trkpt lat="48.84336" lon="1.43529">
        <ele>147.6</ele>
        <time>2023-08-17T15:48:49Z</time>
      </trkpt>
      <trkpt lat="48.8434" lon="1.43541">
        <ele>147.4</ele>
        <time>2023-08-17T15:48:51Z</time>
      </trkpt>
      <trkpt lat="48.84343" lon="1.43555">
        <ele>147.4</ele>
        <time>2023-08-17T15:48:53Z</time>
      </trkpt>
      <trkpt lat="48.84345" lon="1.43561">
        <ele>147.4</ele>
        <time>2023-08-17T15:48:54Z</time>
      </trkpt>
      <trkpt lat="48.84347" lon="1.43567">
        <ele>147.2</ele>
        <time>2023-08-17T15:48:55Z</time>
      </trkpt>
      <trkpt lat="48.84348" lon="1.43574">
        <ele>147.2</ele>
        <time>2023-08-17T15:48:56Z</time>
      </trkpt>
      <trkpt lat="48.84352" lon="1.43588">
        <ele>147.2</ele>
        <time>2023-08-17T15:48:58Z</time>
      </trkpt>
      <trkpt lat="48.84355" lon="1.43595">
        <ele>147.2</ele>
        <time>2023-08-17T15:48:59Z</time>
      </trkpt>
      <trkpt lat="48.84357" lon="1.43603">
        <ele>147</ele>
        <time>2023-08-17T15:49:00Z</time>
      </trkpt>
      <trkpt lat="48.84362" lon="1.43617">
        <ele>147</ele>
        <time>2023-08-17T15:49:02Z</time>
      </trkpt>
      <trkpt lat="48.84364" lon="1.43623">
        <ele>147</ele>
        <time>2023-08-17T15:49:03Z</time>
      </trkpt>
      <trkpt lat="48.84369" lon="1.43635">
        <ele>147</ele>
        <time>2023-08-17T15:49:05Z</time>
      </trkpt>
      <trkpt lat="48.84372" lon="1.43649">
        <ele>146.8</ele>
        <time>2023-08-17T15:49:07Z</time>
      </trkpt>
      <trkpt lat="48.84374" lon="1.43656">
        <ele>146.8</ele>
        <time>2023-08-17T15:49:08Z</time>
      </trkpt>
      <trkpt lat="48.84376" lon="1.43663">
        <ele>146.8</ele>
        <time>2023-08-17T15:49:09Z</time>
      </trkpt>
      <trkpt lat="48.8438" lon="1.43677">
        <ele>146.8</ele>
        <time>2023-08-17T15:49:11Z</time>
      </trkpt>
      <trkpt lat="48.84394" lon="1.43724">
        <ele>146.6</ele>
        <time>2023-08-17T15:49:18Z</time>
      </trkpt>
      <trkpt lat="48.84397" lon="1.43737">
        <ele>146.6</ele>
        <time>2023-08-17T15:49:20Z</time>
      </trkpt>
      <trkpt lat="48.84399" lon="1.43743">
        <ele>146.8</ele>
        <time>2023-08-17T15:49:21Z</time>
      </trkpt>
      <trkpt lat="48.84401" lon="1.43749">
        <ele>146.8</ele>
        <time>2023-08-17T15:49:22Z</time>
      </trkpt>
      <trkpt lat="48.84403" lon="1.43755">
        <ele>146.8</ele>
        <time>2023-08-17T15:49:23Z</time>
      </trkpt>
      <trkpt lat="48.84405" lon="1.43762">
        <ele>146.8</ele>
        <time>2023-08-17T15:49:24Z</time>
      </trkpt>
      <trkpt lat="48.84407" lon="1.43768">
        <ele>146.8</ele>
        <time>2023-08-17T15:49:25Z</time>
      </trkpt>
      <trkpt lat="48.84409" lon="1.43773">
        <ele>146.8</ele>
        <time>2023-08-17T15:49:26Z</time>
      </trkpt>
      <trkpt lat="48.84411" lon="1.43779">
        <ele>146.8</ele>
        <time>2023-08-17T15:49:27Z</time>
      </trkpt>
      <trkpt lat="48.84413" lon="1.43785">
        <ele>147</ele>
        <time>2023-08-17T15:49:28Z</time>
      </trkpt>
      <trkpt lat="48.84415" lon="1.43792">
        <ele>147</ele>
        <time>2023-08-17T15:49:29Z</time>
      </trkpt>
      <trkpt lat="48.84423" lon="1.43817">
        <ele>147</ele>
        <time>2023-08-17T15:49:33Z</time>
      </trkpt>
      <trkpt lat="48.84427" lon="1.43831">
        <ele>147</ele>
        <time>2023-08-17T15:49:35Z</time>
      </trkpt>
      <trkpt lat="48.84432" lon="1.43849">
        <ele>147</ele>
        <time>2023-08-17T15:49:38Z</time>
      </trkpt>
      <trkpt lat="48.84434" lon="1.43855">
        <ele>147</ele>
        <time>2023-08-17T15:49:39Z</time>
      </trkpt>
      <trkpt lat="48.84435" lon="1.43862">
        <ele>147</ele>
        <time>2023-08-17T15:49:40Z</time>
      </trkpt>
      <trkpt lat="48.84443" lon="1.43895">
        <ele>147</ele>
        <time>2023-08-17T15:49:45Z</time>
      </trkpt>
      <trkpt lat="48.84447" lon="1.43909">
        <ele>147</ele>
        <time>2023-08-17T15:49:47Z</time>
      </trkpt>
      <trkpt lat="48.84458" lon="1.43946">
        <ele>147</ele>
        <time>2023-08-17T15:49:53Z</time>
      </trkpt>
      <trkpt lat="48.8446" lon="1.43953">
        <ele>147</ele>
        <time>2023-08-17T15:49:54Z</time>
      </trkpt>
      <trkpt lat="48.84466" lon="1.43972">
        <ele>147</ele>
        <time>2023-08-17T15:49:57Z</time>
      </trkpt>
      <trkpt lat="48.84468" lon="1.43978">
        <ele>147</ele>
        <time>2023-08-17T15:49:58Z</time>
      </trkpt>
      <trkpt lat="48.84471" lon="1.43985">
        <ele>147</ele>
        <time>2023-08-17T15:49:59Z</time>
      </trkpt>
      <trkpt lat="48.84472" lon="1.43992">
        <ele>147</ele>
        <time>2023-08-17T15:50:00Z</time>
      </trkpt>
      <trkpt lat="48.84474" lon="1.43999">
        <ele>147</ele>
        <time>2023-08-17T15:50:01Z</time>
      </trkpt>
      <trkpt lat="48.84479" lon="1.44019">
        <ele>146.8</ele>
        <time>2023-08-17T15:50:04Z</time>
      </trkpt>
      <trkpt lat="48.84483" lon="1.44032">
        <ele>146.8</ele>
        <time>2023-08-17T15:50:06Z</time>
      </trkpt>
      <trkpt lat="48.84485" lon="1.44038">
        <ele>146.8</ele>
        <time>2023-08-17T15:50:07Z</time>
      </trkpt>
      <trkpt lat="48.84487" lon="1.44045">
        <ele>146.8</ele>
        <time>2023-08-17T15:50:08Z</time>
      </trkpt>
      <trkpt lat="48.84491" lon="1.44059">
        <ele>146.8</ele>
        <time>2023-08-17T15:50:10Z</time>
      </trkpt>
      <trkpt lat="48.84493" lon="1.44065">
        <ele>146.8</ele>
        <time>2023-08-17T15:50:11Z</time>
      </trkpt>
      <trkpt lat="48.84495" lon="1.44073">
        <ele>146.6</ele>
        <time>2023-08-17T15:50:12Z</time>
      </trkpt>
      <trkpt lat="48.84496" lon="1.44079">
        <ele>146.6</ele>
        <time>2023-08-17T15:50:13Z</time>
      </trkpt>
      <trkpt lat="48.84498" lon="1.44086">
        <ele>146.6</ele>
        <time>2023-08-17T15:50:14Z</time>
      </trkpt>
      <trkpt lat="48.84499" lon="1.44092">
        <ele>146.6</ele>
        <time>2023-08-17T15:50:15Z</time>
      </trkpt>
      <trkpt lat="48.84501" lon="1.44097">
        <ele>146.6</ele>
        <time>2023-08-17T15:50:16Z</time>
      </trkpt>
      <trkpt lat="48.84502" lon="1.44102">
        <ele>146.6</ele>
        <time>2023-08-17T15:50:17Z</time>
      </trkpt>
      <trkpt lat="48.84504" lon="1.44105">
        <ele>146.6</ele>
        <time>2023-08-17T15:50:18Z</time>
      </trkpt>
      <trkpt lat="48.84504" lon="1.44109">
        <ele>146.6</ele>
        <time>2023-08-17T15:50:19Z</time>
      </trkpt>
      <trkpt lat="48.84505" lon="1.44112">
        <ele>146.6</ele>
        <time>2023-08-17T15:50:20Z</time>
      </trkpt>
      <trkpt lat="48.84506" lon="1.44116">
        <ele>146.6</ele>
        <time>2023-08-17T15:50:21Z</time>
      </trkpt>
      <trkpt lat="48.84507" lon="1.44119">
        <ele>146.8</ele>
        <time>2023-08-17T15:50:22Z</time>
      </trkpt>
      <trkpt lat="48.84509" lon="1.44121">
        <ele>146.8</ele>
        <time>2023-08-17T15:50:23Z</time>
      </trkpt>
      <trkpt lat="48.8451" lon="1.44123">
        <ele>146.8</ele>
        <time>2023-08-17T15:50:24Z</time>
      </trkpt>
      <trkpt lat="48.8451" lon="1.44125">
        <ele>146.8</ele>
        <time>2023-08-17T15:50:25Z</time>
      </trkpt>
      <trkpt lat="48.8451" lon="1.44127">
        <ele>146.8</ele>
        <time>2023-08-17T15:50:26Z</time>
      </trkpt>
      <trkpt lat="48.84511" lon="1.4413">
        <ele>146.8</ele>
        <time>2023-08-17T15:50:27Z</time>
      </trkpt>
      <trkpt lat="48.84511" lon="1.44132">
        <ele>147</ele>
        <time>2023-08-17T15:50:28Z</time>
      </trkpt>
      <trkpt lat="48.84512" lon="1.44135">
        <ele>147</ele>
        <time>2023-08-17T15:50:29Z</time>
      </trkpt>
      <trkpt lat="48.84512" lon="1.44137">
        <ele>147</ele>
        <time>2023-08-17T15:50:30Z</time>
      </trkpt>
      <trkpt lat="48.84512" lon="1.44138">
        <ele>147</ele>
        <time>2023-08-17T15:50:31Z</time>
      </trkpt>
      <trkpt lat="48.84512" lon="1.44138">
        <ele>147</ele>
        <time>2023-08-17T15:50:36Z</time>
      </trkpt>
      <trkpt lat="48.84512" lon="1.44138">
        <ele>146.8</ele>
        <time>2023-08-17T15:50:49Z</time>
      </trkpt>
      <trkpt lat="48.84516" lon="1.44147">
        <ele>146.8</ele>
        <time>2023-08-17T15:51:02Z</time>
      </trkpt>
      <trkpt lat="48.84518" lon="1.44157">
        <ele>146.6</ele>
        <time>2023-08-17T15:51:05Z</time>
      </trkpt>
      <trkpt lat="48.84522" lon="1.44169">
        <ele>146.6</ele>
        <time>2023-08-17T15:51:08Z</time>
      </trkpt>
      <trkpt lat="48.84529" lon="1.442">
        <ele>146.4</ele>
        <time>2023-08-17T15:51:15Z</time>
      </trkpt>
      <trkpt lat="48.84535" lon="1.44221">
        <ele>146.4</ele>
        <time>2023-08-17T15:51:20Z</time>
      </trkpt>
      <trkpt lat="48.8454" lon="1.44237">
        <ele>146.4</ele>
        <time>2023-08-17T15:51:24Z</time>
      </trkpt>
      <trkpt lat="48.84541" lon="1.44242">
        <ele>146.4</ele>
        <time>2023-08-17T15:51:25Z</time>
      </trkpt>
      <trkpt lat="48.84542" lon="1.44245">
        <ele>146.4</ele>
        <time>2023-08-17T15:51:26Z</time>
      </trkpt>
      <trkpt lat="48.8455" lon="1.44271">
        <ele>146.2</ele>
        <time>2023-08-17T15:51:31Z</time>
      </trkpt>
      <trkpt lat="48.84555" lon="1.44287">
        <ele>146.2</ele>
        <time>2023-08-17T15:51:34Z</time>
      </trkpt>
      <trkpt lat="48.84557" lon="1.44293">
        <ele>146</ele>
        <time>2023-08-17T15:51:35Z</time>
      </trkpt>
      <trkpt lat="48.84558" lon="1.44298">
        <ele>146</ele>
        <time>2023-08-17T15:51:36Z</time>
      </trkpt>
      <trkpt lat="48.84561" lon="1.44307">
        <ele>145.8</ele>
        <time>2023-08-17T15:51:38Z</time>
      </trkpt>
      <trkpt lat="48.84564" lon="1.44317">
        <ele>145.8</ele>
        <time>2023-08-17T15:51:40Z</time>
      </trkpt>
      <trkpt lat="48.84567" lon="1.44326">
        <ele>145.6</ele>
        <time>2023-08-17T15:51:42Z</time>
      </trkpt>
      <trkpt lat="48.84568" lon="1.4433">
        <ele>145.6</ele>
        <time>2023-08-17T15:51:43Z</time>
      </trkpt>
      <trkpt lat="48.84569" lon="1.44335">
        <ele>145.6</ele>
        <time>2023-08-17T15:51:44Z</time>
      </trkpt>
      <trkpt lat="48.84571" lon="1.44338">
        <ele>145.6</ele>
        <time>2023-08-17T15:51:45Z</time>
      </trkpt>
      <trkpt lat="48.84571" lon="1.44342">
        <ele>145.6</ele>
        <time>2023-08-17T15:51:46Z</time>
      </trkpt>
      <trkpt lat="48.84572" lon="1.44347">
        <ele>145.6</ele>
        <time>2023-08-17T15:51:47Z</time>
      </trkpt>
      <trkpt lat="48.84574" lon="1.44352">
        <ele>145.6</ele>
        <time>2023-08-17T15:51:48Z</time>
      </trkpt>
      <trkpt lat="48.84575" lon="1.44356">
        <ele>145.6</ele>
        <time>2023-08-17T15:51:49Z</time>
      </trkpt>
      <trkpt lat="48.84576" lon="1.4436">
        <ele>145.6</ele>
        <time>2023-08-17T15:51:50Z</time>
      </trkpt>
      <trkpt lat="48.84577" lon="1.44364">
        <ele>145.6</ele>
        <time>2023-08-17T15:51:51Z</time>
      </trkpt>
      <trkpt lat="48.84578" lon="1.44368">
        <ele>145.6</ele>
        <time>2023-08-17T15:51:52Z</time>
      </trkpt>
      <trkpt lat="48.84507" lon="1.44122">
        <ele>146.2</ele>
        <time>2023-08-17T15:53:43Z</time>
      </trkpt>
      <trkpt lat="48.84506" lon="1.44117">
        <ele>146.2</ele>
        <time>2023-08-17T15:53:44Z</time>
      </trkpt>
      <trkpt lat="48.84505" lon="1.44113">
        <ele>146.2</ele>
        <time>2023-08-17T15:53:45Z</time>
      </trkpt>
      <trkpt lat="48.84503" lon="1.44111">
        <ele>146.2</ele>
        <time>2023-08-17T15:53:46Z</time>
      </trkpt>
      <trkpt lat="48.845" lon="1.44111">
        <ele>146.2</ele>
        <time>2023-08-17T15:53:47Z</time>
      </trkpt>
      <trkpt lat="48.84498" lon="1.44112">
        <ele>146.2</ele>
        <time>2023-08-17T15:53:48Z</time>
      </trkpt>
      <trkpt lat="48.84495" lon="1.44113">
        <ele>146.4</ele>
        <time>2023-08-17T15:53:49Z</time>
      </trkpt>
      <trkpt lat="48.84493" lon="1.44113">
        <ele>146.4</ele>
        <time>2023-08-17T15:53:50Z</time>
      </trkpt>
      <trkpt lat="48.8449" lon="1.44114">
        <ele>146.4</ele>
        <time>2023-08-17T15:53:51Z</time>
      </trkpt>
      <trkpt lat="48.84481" lon="1.44116">
        <ele>146.4</ele>
        <time>2023-08-17T15:53:54Z</time>
      </trkpt>
      <trkpt lat="48.84478" lon="1.44117">
        <ele>146.4</ele>
        <time>2023-08-17T15:53:55Z</time>
      </trkpt>
      <trkpt lat="48.84475" lon="1.44118">
        <ele>146.4</ele>
        <time>2023-08-17T15:53:56Z</time>
      </trkpt>
      <trkpt lat="48.84466" lon="1.44122">
        <ele>146.4</ele>
        <time>2023-08-17T15:53:59Z</time>
      </trkpt>
      <trkpt lat="48.84462" lon="1.44123">
        <ele>146.4</ele>
        <time>2023-08-17T15:54:00Z</time>
      </trkpt>
      <trkpt lat="48.8446" lon="1.44124">
        <ele>146.4</ele>
        <time>2023-08-17T15:54:01Z</time>
      </trkpt>
      <trkpt lat="48.8445" lon="1.44127">
        <ele>146</ele>
        <time>2023-08-17T15:54:04Z</time>
      </trkpt>
      <trkpt lat="48.84444" lon="1.44131">
        <ele>146.2</ele>
        <time>2023-08-17T15:54:06Z</time>
      </trkpt>
      <trkpt lat="48.84421" lon="1.44139">
        <ele>145.8</ele>
        <time>2023-08-17T15:54:13Z</time>
      </trkpt>
      <trkpt lat="48.84415" lon="1.44142">
        <ele>145.8</ele>
        <time>2023-08-17T15:54:15Z</time>
      </trkpt>
      <trkpt lat="48.84405" lon="1.44146">
        <ele>145.6</ele>
        <time>2023-08-17T15:54:18Z</time>
      </trkpt>
      <trkpt lat="48.84392" lon="1.44151">
        <ele>145.4</ele>
        <time>2023-08-17T15:54:22Z</time>
      </trkpt>
      <trkpt lat="48.84364" lon="1.44161">
        <ele>145</ele>
        <time>2023-08-17T15:54:29Z</time>
      </trkpt>
      <trkpt lat="48.84344" lon="1.4417">
        <ele>144.8</ele>
        <time>2023-08-17T15:54:34Z</time>
      </trkpt>
      <trkpt lat="48.8434" lon="1.4417">
        <ele>144.8</ele>
        <time>2023-08-17T15:54:35Z</time>
      </trkpt>
      <trkpt lat="48.84336" lon="1.44171">
        <ele>144.8</ele>
        <time>2023-08-17T15:54:36Z</time>
      </trkpt>
      <trkpt lat="48.84329" lon="1.44173">
        <ele>144.8</ele>
        <time>2023-08-17T15:54:38Z</time>
      </trkpt>
      <trkpt lat="48.84326" lon="1.44173">
        <ele>144.6</ele>
        <time>2023-08-17T15:54:39Z</time>
      </trkpt>
      <trkpt lat="48.84322" lon="1.44174">
        <ele>144.6</ele>
        <time>2023-08-17T15:54:40Z</time>
      </trkpt>
      <trkpt lat="48.84319" lon="1.44176">
        <ele>144.6</ele>
        <time>2023-08-17T15:54:41Z</time>
      </trkpt>
      <trkpt lat="48.8431" lon="1.44178">
        <ele>144.4</ele>
        <time>2023-08-17T15:54:43Z</time>
      </trkpt>
      <trkpt lat="48.84299" lon="1.44182">
        <ele>144.4</ele>
        <time>2023-08-17T15:54:46Z</time>
      </trkpt>
      <trkpt lat="48.84284" lon="1.4419">
        <ele>144.2</ele>
        <time>2023-08-17T15:54:51Z</time>
      </trkpt>
      <trkpt lat="48.8428" lon="1.44192">
        <ele>144.2</ele>
        <time>2023-08-17T15:54:52Z</time>
      </trkpt>
      <trkpt lat="48.84277" lon="1.44193">
        <ele>144.2</ele>
        <time>2023-08-17T15:54:53Z</time>
      </trkpt>
      <trkpt lat="48.8427" lon="1.44195">
        <ele>144.2</ele>
        <time>2023-08-17T15:54:55Z</time>
      </trkpt>
      <trkpt lat="48.84266" lon="1.44196">
        <ele>144.2</ele>
        <time>2023-08-17T15:54:56Z</time>
      </trkpt>
      <trkpt lat="48.84263" lon="1.44198">
        <ele>144.2</ele>
        <time>2023-08-17T15:54:57Z</time>
      </trkpt>
      <trkpt lat="48.84251" lon="1.44203">
        <ele>144.2</ele>
        <time>2023-08-17T15:55:00Z</time>
      </trkpt>
      <trkpt lat="48.84236" lon="1.44209">
        <ele>144.2</ele>
        <time>2023-08-17T15:55:04Z</time>
      </trkpt>
      <trkpt lat="48.84225" lon="1.44211">
        <ele>144.2</ele>
        <time>2023-08-17T15:55:07Z</time>
      </trkpt>
      <trkpt lat="48.84223" lon="1.44212">
        <ele>144.2</ele>
        <time>2023-08-17T15:55:08Z</time>
      </trkpt>
      <trkpt lat="48.84218" lon="1.44217">
        <ele>144.2</ele>
        <time>2023-08-17T15:55:10Z</time>
      </trkpt>
      <trkpt lat="48.84218" lon="1.44219">
        <ele>144.2</ele>
        <time>2023-08-17T15:55:11Z</time>
      </trkpt>
      <trkpt lat="48.84217" lon="1.44223">
        <ele>144.2</ele>
        <time>2023-08-17T15:55:12Z</time>
      </trkpt>
      <trkpt lat="48.84218" lon="1.44231">
        <ele>144.2</ele>
        <time>2023-08-17T15:55:14Z</time>
      </trkpt>
      <trkpt lat="48.84219" lon="1.44236">
        <ele>144.2</ele>
        <time>2023-08-17T15:55:15Z</time>
      </trkpt>
      <trkpt lat="48.84219" lon="1.4424">
        <ele>144.2</ele>
        <time>2023-08-17T15:55:16Z</time>
      </trkpt>
      <trkpt lat="48.84225" lon="1.44263">
        <ele>144.2</ele>
        <time>2023-08-17T15:55:21Z</time>
      </trkpt>
      <trkpt lat="48.84226" lon="1.44267">
        <ele>144.2</ele>
        <time>2023-08-17T15:55:22Z</time>
      </trkpt>
      <trkpt lat="48.84225" lon="1.44271">
        <ele>144.2</ele>
        <time>2023-08-17T15:55:23Z</time>
      </trkpt>
      <trkpt lat="48.84223" lon="1.44274">
        <ele>144</ele>
        <time>2023-08-17T15:55:24Z</time>
      </trkpt>
      <trkpt lat="48.84221" lon="1.44276">
        <ele>144</ele>
        <time>2023-08-17T15:55:25Z</time>
      </trkpt>
      <trkpt lat="48.84218" lon="1.44277">
        <ele>144</ele>
        <time>2023-08-17T15:55:26Z</time>
      </trkpt>
      <trkpt lat="48.84216" lon="1.44277">
        <ele>144</ele>
        <time>2023-08-17T15:55:27Z</time>
      </trkpt>
      <trkpt lat="48.84213" lon="1.44277">
        <ele>144</ele>
        <time>2023-08-17T15:55:28Z</time>
      </trkpt>
      <trkpt lat="48.8421" lon="1.44278">
        <ele>144</ele>
        <time>2023-08-17T15:55:29Z</time>
      </trkpt>
      <trkpt lat="48.84203" lon="1.44279">
        <ele>144</ele>
        <time>2023-08-17T15:55:32Z</time>
      </trkpt>
      <trkpt lat="48.842" lon="1.4428">
        <ele>144</ele>
        <time>2023-08-17T15:55:33Z</time>
      </trkpt>
      <trkpt lat="48.84194" lon="1.44281">
        <ele>144</ele>
        <time>2023-08-17T15:55:35Z</time>
      </trkpt>
      <trkpt lat="48.84191" lon="1.44282">
        <ele>144</ele>
        <time>2023-08-17T15:55:36Z</time>
      </trkpt>
      <trkpt lat="48.84179" lon="1.44283">
        <ele>144.2</ele>
        <time>2023-08-17T15:55:41Z</time>
      </trkpt>
      <trkpt lat="48.84177" lon="1.44283">
        <ele>144.2</ele>
        <time>2023-08-17T15:55:42Z</time>
      </trkpt>
      <trkpt lat="48.84163" lon="1.44287">
        <ele>144.4</ele>
        <time>2023-08-17T15:55:47Z</time>
      </trkpt>
      <trkpt lat="48.84139" lon="1.4429">
        <ele>144.6</ele>
        <time>2023-08-17T15:55:55Z</time>
      </trkpt>
      <trkpt lat="48.84135" lon="1.4429">
        <ele>144.6</ele>
        <time>2023-08-17T15:55:56Z</time>
      </trkpt>
      <trkpt lat="48.84132" lon="1.44291">
        <ele>144.6</ele>
        <time>2023-08-17T15:55:57Z</time>
      </trkpt>
      <trkpt lat="48.84113" lon="1.44295">
        <ele>144.6</ele>
        <time>2023-08-17T15:56:04Z</time>
      </trkpt>
      <trkpt lat="48.84102" lon="1.44296">
        <ele>144.6</ele>
        <time>2023-08-17T15:56:08Z</time>
      </trkpt>
      <trkpt lat="48.84092" lon="1.44299">
        <ele>144.6</ele>
        <time>2023-08-17T15:56:12Z</time>
      </trkpt>
      <trkpt lat="48.84066" lon="1.44304">
        <ele>144.6</ele>
        <time>2023-08-17T15:56:21Z</time>
      </trkpt>
      <trkpt lat="48.84063" lon="1.44304">
        <ele>144.8</ele>
        <time>2023-08-17T15:56:22Z</time>
      </trkpt>
      <trkpt lat="48.8406" lon="1.44305">
        <ele>144.8</ele>
        <time>2023-08-17T15:56:23Z</time>
      </trkpt>
      <trkpt lat="48.84058" lon="1.44305">
        <ele>144.8</ele>
        <time>2023-08-17T15:56:24Z</time>
      </trkpt>
      <trkpt lat="48.84055" lon="1.44305">
        <ele>144.8</ele>
        <time>2023-08-17T15:56:25Z</time>
      </trkpt>
      <trkpt lat="48.84052" lon="1.44306">
        <ele>144.8</ele>
        <time>2023-08-17T15:56:26Z</time>
      </trkpt>
      <trkpt lat="48.84046" lon="1.44306">
        <ele>144.8</ele>
        <time>2023-08-17T15:56:28Z</time>
      </trkpt>
      <trkpt lat="48.8404" lon="1.44307">
        <ele>144.8</ele>
        <time>2023-08-17T15:56:30Z</time>
      </trkpt>
      <trkpt lat="48.84037" lon="1.44307">
        <ele>145</ele>
        <time>2023-08-17T15:56:31Z</time>
      </trkpt>
      <trkpt lat="48.84018" lon="1.44309">
        <ele>145.2</ele>
        <time>2023-08-17T15:56:37Z</time>
      </trkpt>
      <trkpt lat="48.84015" lon="1.44311">
        <ele>145.2</ele>
        <time>2023-08-17T15:56:38Z</time>
      </trkpt>
      <trkpt lat="48.84014" lon="1.44314">
        <ele>145.4</ele>
        <time>2023-08-17T15:56:39Z</time>
      </trkpt>
      <trkpt lat="48.84014" lon="1.44316">
        <ele>145.4</ele>
        <time>2023-08-17T15:56:40Z</time>
      </trkpt>
      <trkpt lat="48.84015" lon="1.44318">
        <ele>145.4</ele>
        <time>2023-08-17T15:56:41Z</time>
      </trkpt>
      <trkpt lat="48.84017" lon="1.4432">
        <ele>145.4</ele>
        <time>2023-08-17T15:56:42Z</time>
      </trkpt>
      <trkpt lat="48.84022" lon="1.44328">
        <ele>145.6</ele>
        <time>2023-08-17T15:56:45Z</time>
      </trkpt>
      <trkpt lat="48.84029" lon="1.44335">
        <ele>145.6</ele>
        <time>2023-08-17T15:56:48Z</time>
      </trkpt>
      <trkpt lat="48.84046" lon="1.44358">
        <ele>145.6</ele>
        <time>2023-08-17T15:56:55Z</time>
      </trkpt>
      <trkpt lat="48.8405" lon="1.4436">
        <ele>145.6</ele>
        <time>2023-08-17T15:56:56Z</time>
      </trkpt>
      <trkpt lat="48.84054" lon="1.44363">
        <ele>145.4</ele>
        <time>2023-08-17T15:56:57Z</time>
      </trkpt>
      <trkpt lat="48.84058" lon="1.4437">
        <ele>145.4</ele>
        <time>2023-08-17T15:56:59Z</time>
      </trkpt>
      <trkpt lat="48.84062" lon="1.44374">
        <ele>145.4</ele>
        <time>2023-08-17T15:57:00Z</time>
      </trkpt>
      <trkpt lat="48.84079" lon="1.44392">
        <ele>145.2</ele>
        <time>2023-08-17T15:57:05Z</time>
      </trkpt>
      <trkpt lat="48.84091" lon="1.44408">
        <ele>144.8</ele>
        <time>2023-08-17T15:57:09Z</time>
      </trkpt>
      <trkpt lat="48.8411" lon="1.44434">
        <ele>144.6</ele>
        <time>2023-08-17T15:57:15Z</time>
      </trkpt>
      <trkpt lat="48.84114" lon="1.44439">
        <ele>144.8</ele>
        <time>2023-08-17T15:57:16Z</time>
      </trkpt>
      <trkpt lat="48.84121" lon="1.44447">
        <ele>144.6</ele>
        <time>2023-08-17T15:57:18Z</time>
      </trkpt>
      <trkpt lat="48.84132" lon="1.4446">
        <ele>144.8</ele>
        <time>2023-08-17T15:57:21Z</time>
      </trkpt>
      <trkpt lat="48.84135" lon="1.44464">
        <ele>144.6</ele>
        <time>2023-08-17T15:57:22Z</time>
      </trkpt>
      <trkpt lat="48.84138" lon="1.44469">
        <ele>144.6</ele>
        <time>2023-08-17T15:57:23Z</time>
      </trkpt>
      <trkpt lat="48.8414" lon="1.44473">
        <ele>144.6</ele>
        <time>2023-08-17T15:57:24Z</time>
      </trkpt>
      <trkpt lat="48.84143" lon="1.44477">
        <ele>144.6</ele>
        <time>2023-08-17T15:57:25Z</time>
      </trkpt>
      <trkpt lat="48.84146" lon="1.44481">
        <ele>144.4</ele>
        <time>2023-08-17T15:57:26Z</time>
      </trkpt>
      <trkpt lat="48.8416" lon="1.445">
        <ele>144.4</ele>
        <time>2023-08-17T15:57:30Z</time>
      </trkpt>
      <trkpt lat="48.84163" lon="1.44506">
        <ele>144.4</ele>
        <time>2023-08-17T15:57:31Z</time>
      </trkpt>
      <trkpt lat="48.84166" lon="1.44511">
        <ele>144.2</ele>
        <time>2023-08-17T15:57:32Z</time>
      </trkpt>
      <trkpt lat="48.84169" lon="1.44514">
        <ele>144.2</ele>
        <time>2023-08-17T15:57:33Z</time>
      </trkpt>
      <trkpt lat="48.84183" lon="1.44528">
        <ele>143.8</ele>
        <time>2023-08-17T15:57:37Z</time>
      </trkpt>
      <trkpt lat="48.84186" lon="1.44533">
        <ele>143.8</ele>
        <time>2023-08-17T15:57:38Z</time>
      </trkpt>
      <trkpt lat="48.84192" lon="1.44539">
        <ele>143.6</ele>
        <time>2023-08-17T15:57:39Z</time>
      </trkpt>
      <trkpt lat="48.84197" lon="1.44541">
        <ele>143.6</ele>
        <time>2023-08-17T15:57:40Z</time>
      </trkpt>
      <trkpt lat="48.84207" lon="1.44549">
        <ele>143.6</ele>
        <time>2023-08-17T15:57:42Z</time>
      </trkpt>
      <trkpt lat="48.8422" lon="1.44563">
        <ele>143.4</ele>
        <time>2023-08-17T15:57:45Z</time>
      </trkpt>
      <trkpt lat="48.84224" lon="1.44569">
        <ele>143.4</ele>
        <time>2023-08-17T15:57:46Z</time>
      </trkpt>
      <trkpt lat="48.84228" lon="1.44576">
        <ele>143.4</ele>
        <time>2023-08-17T15:57:47Z</time>
      </trkpt>
      <trkpt lat="48.84236" lon="1.44588">
        <ele>143.4</ele>
        <time>2023-08-17T15:57:49Z</time>
      </trkpt>
      <trkpt lat="48.84243" lon="1.44599">
        <ele>143.2</ele>
        <time>2023-08-17T15:57:51Z</time>
      </trkpt>
      <trkpt lat="48.84249" lon="1.44611">
        <ele>143.2</ele>
        <time>2023-08-17T15:57:53Z</time>
      </trkpt>
      <trkpt lat="48.84252" lon="1.44616">
        <ele>143</ele>
        <time>2023-08-17T15:57:54Z</time>
      </trkpt>
      <trkpt lat="48.84255" lon="1.4462">
        <ele>143</ele>
        <time>2023-08-17T15:57:55Z</time>
      </trkpt>
      <trkpt lat="48.84258" lon="1.44624">
        <ele>143</ele>
        <time>2023-08-17T15:57:56Z</time>
      </trkpt>
      <trkpt lat="48.8426" lon="1.44627">
        <ele>142.8</ele>
        <time>2023-08-17T15:57:57Z</time>
      </trkpt>
      <trkpt lat="48.84262" lon="1.44631">
        <ele>142.8</ele>
        <time>2023-08-17T15:57:58Z</time>
      </trkpt>
      <trkpt lat="48.84265" lon="1.44637">
        <ele>142.8</ele>
        <time>2023-08-17T15:57:59Z</time>
      </trkpt>
      <trkpt lat="48.84271" lon="1.44645">
        <ele>142.6</ele>
        <time>2023-08-17T15:58:01Z</time>
      </trkpt>
      <trkpt lat="48.84271" lon="1.44649">
        <ele>142.6</ele>
        <time>2023-08-17T15:58:02Z</time>
      </trkpt>
      <trkpt lat="48.8427" lon="1.44652">
        <ele>142.6</ele>
        <time>2023-08-17T15:58:03Z</time>
      </trkpt>
      <trkpt lat="48.84269" lon="1.44654">
        <ele>142.6</ele>
        <time>2023-08-17T15:58:04Z</time>
      </trkpt>
      <trkpt lat="48.84268" lon="1.44658">
        <ele>142.6</ele>
        <time>2023-08-17T15:58:05Z</time>
      </trkpt>
      <trkpt lat="48.84268" lon="1.4466">
        <ele>142.6</ele>
        <time>2023-08-17T15:58:06Z</time>
      </trkpt>
      <trkpt lat="48.84267" lon="1.44663">
        <ele>142.6</ele>
        <time>2023-08-17T15:58:07Z</time>
      </trkpt>
      <trkpt lat="48.84261" lon="1.4467">
        <ele>142.8</ele>
        <time>2023-08-17T15:58:10Z</time>
      </trkpt>
      <trkpt lat="48.84259" lon="1.44672">
        <ele>142.8</ele>
        <time>2023-08-17T15:58:11Z</time>
      </trkpt>
      <trkpt lat="48.84256" lon="1.44673">
        <ele>142.8</ele>
        <time>2023-08-17T15:58:12Z</time>
      </trkpt>
      <trkpt lat="48.84234" lon="1.44686">
        <ele>143.2</ele>
        <time>2023-08-17T15:58:20Z</time>
      </trkpt>
      <trkpt lat="48.8421" lon="1.44697">
        <ele>143.4</ele>
        <time>2023-08-17T15:58:27Z</time>
      </trkpt>
      <trkpt lat="48.84198" lon="1.44703">
        <ele>143.8</ele>
        <time>2023-08-17T15:58:30Z</time>
      </trkpt>
      <trkpt lat="48.84188" lon="1.44709">
        <ele>143.8</ele>
        <time>2023-08-17T15:58:33Z</time>
      </trkpt>
      <trkpt lat="48.84166" lon="1.44724">
        <ele>144.2</ele>
        <time>2023-08-17T15:58:39Z</time>
      </trkpt>
      <trkpt lat="48.84148" lon="1.44734">
        <ele>144.2</ele>
        <time>2023-08-17T15:58:44Z</time>
      </trkpt>
      <trkpt lat="48.84145" lon="1.44736">
        <ele>144.4</ele>
        <time>2023-08-17T15:58:45Z</time>
      </trkpt>
      <trkpt lat="48.84123" lon="1.44749">
        <ele>144.6</ele>
        <time>2023-08-17T15:58:51Z</time>
      </trkpt>
      <trkpt lat="48.8412" lon="1.44751">
        <ele>144.6</ele>
        <time>2023-08-17T15:58:52Z</time>
      </trkpt>
      <trkpt lat="48.84117" lon="1.44753">
        <ele>144.6</ele>
        <time>2023-08-17T15:58:53Z</time>
      </trkpt>
      <trkpt lat="48.84115" lon="1.44755">
        <ele>144.8</ele>
        <time>2023-08-17T15:58:54Z</time>
      </trkpt>
      <trkpt lat="48.84101" lon="1.44764">
        <ele>145</ele>
        <time>2023-08-17T15:58:58Z</time>
      </trkpt>
      <trkpt lat="48.84081" lon="1.44774">
        <ele>145.2</ele>
        <time>2023-08-17T15:59:04Z</time>
      </trkpt>
      <trkpt lat="48.84078" lon="1.44776">
        <ele>145.2</ele>
        <time>2023-08-17T15:59:05Z</time>
      </trkpt>
      <trkpt lat="48.84068" lon="1.44781">
        <ele>145.2</ele>
        <time>2023-08-17T15:59:08Z</time>
      </trkpt>
      <trkpt lat="48.84065" lon="1.44782">
        <ele>145.2</ele>
        <time>2023-08-17T15:59:09Z</time>
      </trkpt>
      <trkpt lat="48.84039" lon="1.44797">
        <ele>145.2</ele>
        <time>2023-08-17T15:59:16Z</time>
      </trkpt>
      <trkpt lat="48.84004" lon="1.44815">
        <ele>145.2</ele>
        <time>2023-08-17T15:59:24Z</time>
      </trkpt>
      <trkpt lat="48.83974" lon="1.44829">
        <ele>145</ele>
        <time>2023-08-17T15:59:31Z</time>
      </trkpt>
      <trkpt lat="48.83948" lon="1.44844">
        <ele>144.8</ele>
        <time>2023-08-17T15:59:37Z</time>
      </trkpt>
      <trkpt lat="48.8394" lon="1.44849">
        <ele>144.8</ele>
        <time>2023-08-17T15:59:39Z</time>
      </trkpt>
      <trkpt lat="48.83927" lon="1.44857">
        <ele>144.8</ele>
        <time>2023-08-17T15:59:42Z</time>
      </trkpt>
      <trkpt lat="48.83923" lon="1.4486">
        <ele>144.8</ele>
        <time>2023-08-17T15:59:43Z</time>
      </trkpt>
      <trkpt lat="48.83908" lon="1.44871">
        <ele>144.6</ele>
        <time>2023-08-17T15:59:47Z</time>
      </trkpt>
      <trkpt lat="48.839" lon="1.44875">
        <ele>144.6</ele>
        <time>2023-08-17T15:59:49Z</time>
      </trkpt>
      <trkpt lat="48.83892" lon="1.4488">
        <ele>144.4</ele>
        <time>2023-08-17T15:59:51Z</time>
      </trkpt>
      <trkpt lat="48.83881" lon="1.44888">
        <ele>144.4</ele>
        <time>2023-08-17T15:59:54Z</time>
      </trkpt>
      <trkpt lat="48.83877" lon="1.4489">
        <ele>144.4</ele>
        <time>2023-08-17T15:59:55Z</time>
      </trkpt>
      <trkpt lat="48.83874" lon="1.44892">
        <ele>144.4</ele>
        <time>2023-08-17T15:59:56Z</time>
      </trkpt>
      <trkpt lat="48.83869" lon="1.44894">
        <ele>144.4</ele>
        <time>2023-08-17T15:59:57Z</time>
      </trkpt>
      <trkpt lat="48.83866" lon="1.44896">
        <ele>144.4</ele>
        <time>2023-08-17T15:59:58Z</time>
      </trkpt>
      <trkpt lat="48.83847" lon="1.44907">
        <ele>144.4</ele>
        <time>2023-08-17T16:00:03Z</time>
      </trkpt>
      <trkpt lat="48.83843" lon="1.44909">
        <ele>144.4</ele>
        <time>2023-08-17T16:00:04Z</time>
      </trkpt>
      <trkpt lat="48.8384" lon="1.44911">
        <ele>144.4</ele>
        <time>2023-08-17T16:00:05Z</time>
      </trkpt>
      <trkpt lat="48.83836" lon="1.44913">
        <ele>144.4</ele>
        <time>2023-08-17T16:00:06Z</time>
      </trkpt>
      <trkpt lat="48.83833" lon="1.44915">
        <ele>144.4</ele>
        <time>2023-08-17T16:00:07Z</time>
      </trkpt>
      <trkpt lat="48.8383" lon="1.44917">
        <ele>144.4</ele>
        <time>2023-08-17T16:00:08Z</time>
      </trkpt>
      <trkpt lat="48.83826" lon="1.44919">
        <ele>144.6</ele>
        <time>2023-08-17T16:00:09Z</time>
      </trkpt>
      <trkpt lat="48.83823" lon="1.44922">
        <ele>144.6</ele>
        <time>2023-08-17T16:00:10Z</time>
      </trkpt>
      <trkpt lat="48.83819" lon="1.44923">
        <ele>144.6</ele>
        <time>2023-08-17T16:00:11Z</time>
      </trkpt>
      <trkpt lat="48.8381" lon="1.44926">
        <ele>144.6</ele>
        <time>2023-08-17T16:00:13Z</time>
      </trkpt>
      <trkpt lat="48.83798" lon="1.44932">
        <ele>144.8</ele>
        <time>2023-08-17T16:00:16Z</time>
      </trkpt>
      <trkpt lat="48.83781" lon="1.44941">
        <ele>145</ele>
        <time>2023-08-17T16:00:21Z</time>
      </trkpt>
      <trkpt lat="48.83777" lon="1.44943">
        <ele>145</ele>
        <time>2023-08-17T16:00:22Z</time>
      </trkpt>
      <trkpt lat="48.83768" lon="1.44946">
        <ele>145</ele>
        <time>2023-08-17T16:00:24Z</time>
      </trkpt>
      <trkpt lat="48.83765" lon="1.44947">
        <ele>145</ele>
        <time>2023-08-17T16:00:25Z</time>
      </trkpt>
      <trkpt lat="48.83762" lon="1.44949">
        <ele>145</ele>
        <time>2023-08-17T16:00:26Z</time>
      </trkpt>
      <trkpt lat="48.8376" lon="1.44951">
        <ele>145</ele>
        <time>2023-08-17T16:00:27Z</time>
      </trkpt>
      <trkpt lat="48.83757" lon="1.44953">
        <ele>145</ele>
        <time>2023-08-17T16:00:28Z</time>
      </trkpt>
      <trkpt lat="48.83755" lon="1.44955">
        <ele>145</ele>
        <time>2023-08-17T16:00:29Z</time>
      </trkpt>
      <trkpt lat="48.83753" lon="1.44956">
        <ele>145</ele>
        <time>2023-08-17T16:00:30Z</time>
      </trkpt>
      <trkpt lat="48.83751" lon="1.44957">
        <ele>145</ele>
        <time>2023-08-17T16:00:31Z</time>
      </trkpt>
      <trkpt lat="48.8375" lon="1.44959">
        <ele>145</ele>
        <time>2023-08-17T16:00:32Z</time>
      </trkpt>
      <trkpt lat="48.83747" lon="1.44961">
        <ele>145</ele>
        <time>2023-08-17T16:00:33Z</time>
      </trkpt>
      <trkpt lat="48.83745" lon="1.44962">
        <ele>145</ele>
        <time>2023-08-17T16:00:34Z</time>
      </trkpt>
      <trkpt lat="48.83743" lon="1.44963">
        <ele>145</ele>
        <time>2023-08-17T16:00:35Z</time>
      </trkpt>
      <trkpt lat="48.83741" lon="1.44964">
        <ele>145</ele>
        <time>2023-08-17T16:00:36Z</time>
      </trkpt>
      <trkpt lat="48.83739" lon="1.44965">
        <ele>145</ele>
        <time>2023-08-17T16:00:37Z</time>
      </trkpt>
      <trkpt lat="48.83736" lon="1.44966">
        <ele>145</ele>
        <time>2023-08-17T16:00:38Z</time>
      </trkpt>
      <trkpt lat="48.83733" lon="1.44968">
        <ele>145</ele>
        <time>2023-08-17T16:00:39Z</time>
      </trkpt>
      <trkpt lat="48.83718" lon="1.44976">
        <ele>144.8</ele>
        <time>2023-08-17T16:00:44Z</time>
      </trkpt>
      <trkpt lat="48.83698" lon="1.44988">
        <ele>144.8</ele>
        <time>2023-08-17T16:00:49Z</time>
      </trkpt>
      <trkpt lat="48.83693" lon="1.4499">
        <ele>144.6</ele>
        <time>2023-08-17T16:00:50Z</time>
      </trkpt>
      <trkpt lat="48.83689" lon="1.44992">
        <ele>144.4</ele>
        <time>2023-08-17T16:00:51Z</time>
      </trkpt>
      <trkpt lat="48.83686" lon="1.44994">
        <ele>144.4</ele>
        <time>2023-08-17T16:00:52Z</time>
      </trkpt>
      <trkpt lat="48.83682" lon="1.44995">
        <ele>144.2</ele>
        <time>2023-08-17T16:00:53Z</time>
      </trkpt>
      <trkpt lat="48.83679" lon="1.44997">
        <ele>144.2</ele>
        <time>2023-08-17T16:00:54Z</time>
      </trkpt>
      <trkpt lat="48.83667" lon="1.45006">
        <ele>143.8</ele>
        <time>2023-08-17T16:00:58Z</time>
      </trkpt>
      <trkpt lat="48.83664" lon="1.45008">
        <ele>143.8</ele>
        <time>2023-08-17T16:00:59Z</time>
      </trkpt>
      <trkpt lat="48.83661" lon="1.45009">
        <ele>143.8</ele>
        <time>2023-08-17T16:01:00Z</time>
      </trkpt>
      <trkpt lat="48.83638" lon="1.45027">
        <ele>143.4</ele>
        <time>2023-08-17T16:01:06Z</time>
      </trkpt>
      <trkpt lat="48.83627" lon="1.45032">
        <ele>143.4</ele>
        <time>2023-08-17T16:01:09Z</time>
      </trkpt>
      <trkpt lat="48.83621" lon="1.45037">
        <ele>143.2</ele>
        <time>2023-08-17T16:01:11Z</time>
      </trkpt>
      <trkpt lat="48.8362" lon="1.45039">
        <ele>143.2</ele>
        <time>2023-08-17T16:01:12Z</time>
      </trkpt>
      <trkpt lat="48.83619" lon="1.45041">
        <ele>143.2</ele>
        <time>2023-08-17T16:01:13Z</time>
      </trkpt>
      <trkpt lat="48.83618" lon="1.45043">
        <ele>142.8</ele>
        <time>2023-08-17T16:01:14Z</time>
      </trkpt>
      <trkpt lat="48.83618" lon="1.45047">
        <ele>142.6</ele>
        <time>2023-08-17T16:01:15Z</time>
      </trkpt>
      <trkpt lat="48.83616" lon="1.45051">
        <ele>142.6</ele>
        <time>2023-08-17T16:01:16Z</time>
      </trkpt>
      <trkpt lat="48.83608" lon="1.45069">
        <ele>142.2</ele>
        <time>2023-08-17T16:01:20Z</time>
      </trkpt>
      <trkpt lat="48.83604" lon="1.45077">
        <ele>142</ele>
        <time>2023-08-17T16:01:22Z</time>
      </trkpt>
      <trkpt lat="48.83602" lon="1.4508">
        <ele>141.8</ele>
        <time>2023-08-17T16:01:23Z</time>
      </trkpt>
      <trkpt lat="48.83599" lon="1.45081">
        <ele>141.6</ele>
        <time>2023-08-17T16:01:24Z</time>
      </trkpt>
      <trkpt lat="48.83596" lon="1.45083">
        <ele>141.6</ele>
        <time>2023-08-17T16:01:25Z</time>
      </trkpt>
      <trkpt lat="48.83593" lon="1.45084">
        <ele>141.2</ele>
        <time>2023-08-17T16:01:26Z</time>
      </trkpt>
      <trkpt lat="48.83591" lon="1.45084">
        <ele>141</ele>
        <time>2023-08-17T16:01:27Z</time>
      </trkpt>
      <trkpt lat="48.8359" lon="1.45082">
        <ele>140.8</ele>
        <time>2023-08-17T16:01:28Z</time>
      </trkpt>
      <trkpt lat="48.83588" lon="1.4508">
        <ele>140.4</ele>
        <time>2023-08-17T16:01:29Z</time>
      </trkpt>
      <trkpt lat="48.83586" lon="1.45079">
        <ele>140.2</ele>
        <time>2023-08-17T16:01:30Z</time>
      </trkpt>
      <trkpt lat="48.83583" lon="1.45078">
        <ele>140</ele>
        <time>2023-08-17T16:01:31Z</time>
      </trkpt>
      <trkpt lat="48.8358" lon="1.45079">
        <ele>140</ele>
        <time>2023-08-17T16:01:32Z</time>
      </trkpt>
      <trkpt lat="48.83569" lon="1.45093">
        <ele>139.6</ele>
        <time>2023-08-17T16:01:36Z</time>
      </trkpt>
      <trkpt lat="48.83563" lon="1.45102">
        <ele>139.6</ele>
        <time>2023-08-17T16:01:38Z</time>
      </trkpt>
      <trkpt lat="48.83554" lon="1.45112">
        <ele>139.4</ele>
        <time>2023-08-17T16:01:40Z</time>
      </trkpt>
      <trkpt lat="48.83549" lon="1.45116">
        <ele>139.4</ele>
        <time>2023-08-17T16:01:41Z</time>
      </trkpt>
      <trkpt lat="48.83544" lon="1.4512">
        <ele>139.4</ele>
        <time>2023-08-17T16:01:42Z</time>
      </trkpt>
      <trkpt lat="48.8354" lon="1.45121">
        <ele>139.2</ele>
        <time>2023-08-17T16:01:43Z</time>
      </trkpt>
      <trkpt lat="48.83536" lon="1.4512">
        <ele>139</ele>
        <time>2023-08-17T16:01:44Z</time>
      </trkpt>
      <trkpt lat="48.83532" lon="1.45118">
        <ele>139</ele>
        <time>2023-08-17T16:01:45Z</time>
      </trkpt>
      <trkpt lat="48.83528" lon="1.45115">
        <ele>138.8</ele>
        <time>2023-08-17T16:01:46Z</time>
      </trkpt>
      <trkpt lat="48.83526" lon="1.45114">
        <ele>138.6</ele>
        <time>2023-08-17T16:01:47Z</time>
      </trkpt>
      <trkpt lat="48.83522" lon="1.45116">
        <ele>138.4</ele>
        <time>2023-08-17T16:01:48Z</time>
      </trkpt>
      <trkpt lat="48.8352" lon="1.45115">
        <ele>138</ele>
        <time>2023-08-17T16:01:49Z</time>
      </trkpt>
      <trkpt lat="48.83516" lon="1.45109">
        <ele>137.4</ele>
        <time>2023-08-17T16:01:51Z</time>
      </trkpt>
      <trkpt lat="48.83515" lon="1.45105">
        <ele>136.8</ele>
        <time>2023-08-17T16:01:52Z</time>
      </trkpt>
      <trkpt lat="48.83514" lon="1.45102">
        <ele>136.6</ele>
        <time>2023-08-17T16:01:53Z</time>
      </trkpt>
      <trkpt lat="48.83513" lon="1.451">
        <ele>136.2</ele>
        <time>2023-08-17T16:01:54Z</time>
      </trkpt>
      <trkpt lat="48.83511" lon="1.45097">
        <ele>135.8</ele>
        <time>2023-08-17T16:01:55Z</time>
      </trkpt>
      <trkpt lat="48.83511" lon="1.45094">
        <ele>135</ele>
        <time>2023-08-17T16:01:56Z</time>
      </trkpt>
      <trkpt lat="48.83511" lon="1.4508">
        <ele>134.4</ele>
        <time>2023-08-17T16:01:58Z</time>
      </trkpt>
      <trkpt lat="48.83511" lon="1.4507">
        <ele>133.6</ele>
        <time>2023-08-17T16:01:59Z</time>
      </trkpt>
      <trkpt lat="48.83512" lon="1.45059">
        <ele>132.8</ele>
        <time>2023-08-17T16:02:00Z</time>
      </trkpt>
      <trkpt lat="48.83513" lon="1.45047">
        <ele>132</ele>
        <time>2023-08-17T16:02:01Z</time>
      </trkpt>
      <trkpt lat="48.83517" lon="1.45026">
        <ele>130.4</ele>
        <time>2023-08-17T16:02:03Z</time>
      </trkpt>
      <trkpt lat="48.83518" lon="1.45017">
        <ele>130</ele>
        <time>2023-08-17T16:02:04Z</time>
      </trkpt>
      <trkpt lat="48.83519" lon="1.45008">
        <ele>129.4</ele>
        <time>2023-08-17T16:02:05Z</time>
      </trkpt>
      <trkpt lat="48.8352" lon="1.45001">
        <ele>128.4</ele>
        <time>2023-08-17T16:02:06Z</time>
      </trkpt>
      <trkpt lat="48.83521" lon="1.44994">
        <ele>127.2</ele>
        <time>2023-08-17T16:02:07Z</time>
      </trkpt>
      <trkpt lat="48.83521" lon="1.44988">
        <ele>125.8</ele>
        <time>2023-08-17T16:02:08Z</time>
      </trkpt>
      <trkpt lat="48.83521" lon="1.44982">
        <ele>125</ele>
        <time>2023-08-17T16:02:09Z</time>
      </trkpt>
      <trkpt lat="48.83521" lon="1.44978">
        <ele>124.4</ele>
        <time>2023-08-17T16:02:10Z</time>
      </trkpt>
      <trkpt lat="48.83521" lon="1.44973">
        <ele>124.2</ele>
        <time>2023-08-17T16:02:11Z</time>
      </trkpt>
      <trkpt lat="48.83521" lon="1.4497">
        <ele>124.2</ele>
        <time>2023-08-17T16:02:12Z</time>
      </trkpt>
      <trkpt lat="48.83521" lon="1.44967">
        <ele>124.2</ele>
        <time>2023-08-17T16:02:13Z</time>
      </trkpt>
      <trkpt lat="48.83521" lon="1.44964">
        <ele>124</ele>
        <time>2023-08-17T16:02:14Z</time>
      </trkpt>
      <trkpt lat="48.83521" lon="1.44961">
        <ele>124</ele>
        <time>2023-08-17T16:02:15Z</time>
      </trkpt>
      <trkpt lat="48.83521" lon="1.44959">
        <ele>124</ele>
        <time>2023-08-17T16:02:16Z</time>
      </trkpt>
      <trkpt lat="48.83521" lon="1.44951">
        <ele>124.4</ele>
        <time>2023-08-17T16:02:19Z</time>
      </trkpt>
      <trkpt lat="48.83521" lon="1.44948">
        <ele>124.6</ele>
        <time>2023-08-17T16:02:20Z</time>
      </trkpt>
      <trkpt lat="48.83521" lon="1.44946">
        <ele>124.6</ele>
        <time>2023-08-17T16:02:21Z</time>
      </trkpt>
      <trkpt lat="48.83521" lon="1.44943">
        <ele>124.8</ele>
        <time>2023-08-17T16:02:22Z</time>
      </trkpt>
      <trkpt lat="48.83522" lon="1.4494">
        <ele>125.2</ele>
        <time>2023-08-17T16:02:23Z</time>
      </trkpt>
      <trkpt lat="48.83522" lon="1.44938">
        <ele>125.4</ele>
        <time>2023-08-17T16:02:24Z</time>
      </trkpt>
      <trkpt lat="48.83522" lon="1.44935">
        <ele>125.4</ele>
        <time>2023-08-17T16:02:25Z</time>
      </trkpt>
      <trkpt lat="48.83522" lon="1.44933">
        <ele>125.8</ele>
        <time>2023-08-17T16:02:26Z</time>
      </trkpt>
      <trkpt lat="48.83522" lon="1.4493">
        <ele>126</ele>
        <time>2023-08-17T16:02:27Z</time>
      </trkpt>
      <trkpt lat="48.8352" lon="1.44912">
        <ele>127</ele>
        <time>2023-08-17T16:02:31Z</time>
      </trkpt>
      <trkpt lat="48.8352" lon="1.44904">
        <ele>127.8</ele>
        <time>2023-08-17T16:02:33Z</time>
      </trkpt>
      <trkpt lat="48.8352" lon="1.44901">
        <ele>128.2</ele>
        <time>2023-08-17T16:02:34Z</time>
      </trkpt>
      <trkpt lat="48.8352" lon="1.449">
        <ele>128.4</ele>
        <time>2023-08-17T16:02:35Z</time>
      </trkpt>
      <trkpt lat="48.8352" lon="1.449">
        <ele>128.4</ele>
        <time>2023-08-17T16:02:36Z</time>
      </trkpt>
      <trkpt lat="48.8352" lon="1.44899">
        <ele>128.6</ele>
        <time>2023-08-17T16:02:38Z</time>
      </trkpt>
      <trkpt lat="48.8352" lon="1.44898">
        <ele>128.8</ele>
        <time>2023-08-17T16:02:40Z</time>
      </trkpt>
      <trkpt lat="48.83521" lon="1.44897">
        <ele>129</ele>
        <time>2023-08-17T16:02:42Z</time>
      </trkpt>
      <trkpt lat="48.8352" lon="1.44895">
        <ele>129.2</ele>
        <time>2023-08-17T16:02:43Z</time>
      </trkpt>
      <trkpt lat="48.8352" lon="1.44894">
        <ele>129.4</ele>
        <time>2023-08-17T16:02:44Z</time>
      </trkpt>
      <trkpt lat="48.8352" lon="1.44893">
        <ele>129.8</ele>
        <time>2023-08-17T16:02:45Z</time>
      </trkpt>
      <trkpt lat="48.8352" lon="1.44893">
        <ele>129.8</ele>
        <time>2023-08-17T16:02:46Z</time>
      </trkpt>
      <trkpt lat="48.8352" lon="1.44891">
        <ele>130</ele>
        <time>2023-08-17T16:02:47Z</time>
      </trkpt>
      <trkpt lat="48.83519" lon="1.44891">
        <ele>130</ele>
        <time>2023-08-17T16:02:48Z</time>
      </trkpt>
      <trkpt lat="48.83519" lon="1.4489">
        <ele>130.2</ele>
        <time>2023-08-17T16:02:49Z</time>
      </trkpt>
      <trkpt lat="48.83519" lon="1.4489">
        <ele>130.2</ele>
        <time>2023-08-17T16:02:50Z</time>
      </trkpt>
      <trkpt lat="48.8352" lon="1.44888">
        <ele>130.4</ele>
        <time>2023-08-17T16:02:51Z</time>
      </trkpt>
      <trkpt lat="48.83521" lon="1.44886">
        <ele>130.6</ele>
        <time>2023-08-17T16:02:52Z</time>
      </trkpt>
      <trkpt lat="48.83521" lon="1.44886">
        <ele>130.6</ele>
        <time>2023-08-17T16:02:53Z</time>
      </trkpt>
      <trkpt lat="48.83521" lon="1.44884">
        <ele>131</ele>
        <time>2023-08-17T16:02:54Z</time>
      </trkpt>
      <trkpt lat="48.83521" lon="1.44883">
        <ele>131.2</ele>
        <time>2023-08-17T16:02:55Z</time>
      </trkpt>
      <trkpt lat="48.83521" lon="1.44881">
        <ele>131.2</ele>
        <time>2023-08-17T16:02:56Z</time>
      </trkpt>
      <trkpt lat="48.83521" lon="1.4488">
        <ele>131.4</ele>
        <time>2023-08-17T16:02:57Z</time>
      </trkpt>
      <trkpt lat="48.83521" lon="1.44878">
        <ele>131.6</ele>
        <time>2023-08-17T16:02:58Z</time>
      </trkpt>
      <trkpt lat="48.83521" lon="1.44876">
        <ele>131.8</ele>
        <time>2023-08-17T16:02:59Z</time>
      </trkpt>
      <trkpt lat="48.83521" lon="1.44875">
        <ele>132</ele>
        <time>2023-08-17T16:03:00Z</time>
      </trkpt>
      <trkpt lat="48.83521" lon="1.44875">
        <ele>132.2</ele>
        <time>2023-08-17T16:03:01Z</time>
      </trkpt>
      <trkpt lat="48.83521" lon="1.44874">
        <ele>132.4</ele>
        <time>2023-08-17T16:03:02Z</time>
      </trkpt>
      <trkpt lat="48.83522" lon="1.44873">
        <ele>132.6</ele>
        <time>2023-08-17T16:03:03Z</time>
      </trkpt>
      <trkpt lat="48.83522" lon="1.44873">
        <ele>132.6</ele>
        <time>2023-08-17T16:03:04Z</time>
      </trkpt>
      <trkpt lat="48.83522" lon="1.44873">
        <ele>133.4</ele>
        <time>2023-08-17T16:03:09Z</time>
      </trkpt>
      <trkpt lat="48.83522" lon="1.44873">
        <ele>133.6</ele>
        <time>2023-08-17T16:03:11Z</time>
      </trkpt>
      <trkpt lat="48.83522" lon="1.44873">
        <ele>134</ele>
        <time>2023-08-17T16:03:19Z</time>
      </trkpt>
      <trkpt lat="48.83522" lon="1.44873">
        <ele>134</ele>
        <time>2023-08-17T16:03:24Z</time>
      </trkpt>
      <trkpt lat="48.83501" lon="1.44814">
        <ele>133.6</ele>
        <time>2023-08-17T16:08:09Z</time>
      </trkpt>
      <trkpt lat="48.83499" lon="1.44811">
        <ele>133.6</ele>
        <time>2023-08-17T16:08:10Z</time>
      </trkpt>
      <trkpt lat="48.83499" lon="1.44811">
        <ele>133.6</ele>
        <time>2023-08-17T16:08:11Z</time>
      </trkpt>
      <trkpt lat="48.83496" lon="1.44805">
        <ele>133.8</ele>
        <time>2023-08-17T16:08:16Z</time>
      </trkpt>
      <trkpt lat="48.83492" lon="1.44795">
        <ele>133.6</ele>
        <time>2023-08-17T16:08:18Z</time>
      </trkpt>
      <trkpt lat="48.83487" lon="1.4479">
        <ele>133.4</ele>
        <time>2023-08-17T16:08:19Z</time>
      </trkpt>
      <trkpt lat="48.83484" lon="1.44789">
        <ele>133.2</ele>
        <time>2023-08-17T16:08:20Z</time>
      </trkpt>
      <trkpt lat="48.83482" lon="1.44786">
        <ele>133.2</ele>
        <time>2023-08-17T16:08:21Z</time>
      </trkpt>
      <trkpt lat="48.83481" lon="1.44784">
        <ele>133</ele>
        <time>2023-08-17T16:08:22Z</time>
      </trkpt>
      <trkpt lat="48.83481" lon="1.44782">
        <ele>132.8</ele>
        <time>2023-08-17T16:08:23Z</time>
      </trkpt>
      <trkpt lat="48.8348" lon="1.44779">
        <ele>132.2</ele>
        <time>2023-08-17T16:08:24Z</time>
      </trkpt>
      <trkpt lat="48.8348" lon="1.44777">
        <ele>132.2</ele>
        <time>2023-08-17T16:08:25Z</time>
      </trkpt>
      <trkpt lat="48.8348" lon="1.44774">
        <ele>131.6</ele>
        <time>2023-08-17T16:08:26Z</time>
      </trkpt>
      <trkpt lat="48.83479" lon="1.44771">
        <ele>131.2</ele>
        <time>2023-08-17T16:08:27Z</time>
      </trkpt>
      <trkpt lat="48.83478" lon="1.44767">
        <ele>131</ele>
        <time>2023-08-17T16:08:28Z</time>
      </trkpt>
      <trkpt lat="48.83478" lon="1.44765">
        <ele>131</ele>
        <time>2023-08-17T16:08:29Z</time>
      </trkpt>
      <trkpt lat="48.83478" lon="1.44762">
        <ele>131</ele>
        <time>2023-08-17T16:08:30Z</time>
      </trkpt>
      <trkpt lat="48.83478" lon="1.4476">
        <ele>131</ele>
        <time>2023-08-17T16:08:31Z</time>
      </trkpt>
      <trkpt lat="48.83478" lon="1.44758">
        <ele>131</ele>
        <time>2023-08-17T16:08:32Z</time>
      </trkpt>
      <trkpt lat="48.83477" lon="1.44756">
        <ele>131</ele>
        <time>2023-08-17T16:08:33Z</time>
      </trkpt>
      <trkpt lat="48.83475" lon="1.4475">
        <ele>131</ele>
        <time>2023-08-17T16:08:36Z</time>
      </trkpt>
      <trkpt lat="48.83474" lon="1.44748">
        <ele>131</ele>
        <time>2023-08-17T16:08:37Z</time>
      </trkpt>
      <trkpt lat="48.83473" lon="1.44746">
        <ele>131</ele>
        <time>2023-08-17T16:08:38Z</time>
      </trkpt>
      <trkpt lat="48.83473" lon="1.44744">
        <ele>131.2</ele>
        <time>2023-08-17T16:08:39Z</time>
      </trkpt>
      <trkpt lat="48.83473" lon="1.44742">
        <ele>131.4</ele>
        <time>2023-08-17T16:08:40Z</time>
      </trkpt>
      <trkpt lat="48.83473" lon="1.4474">
        <ele>131.6</ele>
        <time>2023-08-17T16:08:41Z</time>
      </trkpt>
      <trkpt lat="48.83472" lon="1.44738">
        <ele>131.8</ele>
        <time>2023-08-17T16:08:42Z</time>
      </trkpt>
      <trkpt lat="48.83472" lon="1.44736">
        <ele>131.8</ele>
        <time>2023-08-17T16:08:43Z</time>
      </trkpt>
      <trkpt lat="48.83472" lon="1.44732">
        <ele>132.2</ele>
        <time>2023-08-17T16:08:45Z</time>
      </trkpt>
      <trkpt lat="48.83472" lon="1.44729">
        <ele>132.2</ele>
        <time>2023-08-17T16:08:46Z</time>
      </trkpt>
      <trkpt lat="48.83471" lon="1.44728">
        <ele>132.4</ele>
        <time>2023-08-17T16:08:47Z</time>
      </trkpt>
      <trkpt lat="48.83471" lon="1.44726">
        <ele>132.6</ele>
        <time>2023-08-17T16:08:48Z</time>
      </trkpt>
      <trkpt lat="48.83471" lon="1.44723">
        <ele>132.8</ele>
        <time>2023-08-17T16:08:49Z</time>
      </trkpt>
      <trkpt lat="48.83471" lon="1.44721">
        <ele>132.8</ele>
        <time>2023-08-17T16:08:50Z</time>
      </trkpt>
      <trkpt lat="48.83471" lon="1.44718">
        <ele>133</ele>
        <time>2023-08-17T16:08:51Z</time>
      </trkpt>
      <trkpt lat="48.83471" lon="1.44716">
        <ele>133</ele>
        <time>2023-08-17T16:08:52Z</time>
      </trkpt>
      <trkpt lat="48.83471" lon="1.44713">
        <ele>133.4</ele>
        <time>2023-08-17T16:08:53Z</time>
      </trkpt>
      <trkpt lat="48.83471" lon="1.44711">
        <ele>133.6</ele>
        <time>2023-08-17T16:08:54Z</time>
      </trkpt>
      <trkpt lat="48.83473" lon="1.44696">
        <ele>134.4</ele>
        <time>2023-08-17T16:09:00Z</time>
      </trkpt>
      <trkpt lat="48.83473" lon="1.44691">
        <ele>134.8</ele>
        <time>2023-08-17T16:09:02Z</time>
      </trkpt>
      <trkpt lat="48.83473" lon="1.44688">
        <ele>135</ele>
        <time>2023-08-17T16:09:03Z</time>
      </trkpt>
      <trkpt lat="48.83473" lon="1.44686">
        <ele>135.2</ele>
        <time>2023-08-17T16:09:04Z</time>
      </trkpt>
      <trkpt lat="48.83473" lon="1.44682">
        <ele>135.4</ele>
        <time>2023-08-17T16:09:05Z</time>
      </trkpt>
      <trkpt lat="48.83473" lon="1.44679">
        <ele>135.6</ele>
        <time>2023-08-17T16:09:06Z</time>
      </trkpt>
      <trkpt lat="48.83474" lon="1.44677">
        <ele>135.6</ele>
        <time>2023-08-17T16:09:07Z</time>
      </trkpt>
      <trkpt lat="48.83475" lon="1.44674">
        <ele>135.8</ele>
        <time>2023-08-17T16:09:08Z</time>
      </trkpt>
      <trkpt lat="48.83475" lon="1.44671">
        <ele>136</ele>
        <time>2023-08-17T16:09:09Z</time>
      </trkpt>
      <trkpt lat="48.83476" lon="1.44669">
        <ele>136.2</ele>
        <time>2023-08-17T16:09:10Z</time>
      </trkpt>
      <trkpt lat="48.83477" lon="1.44667">
        <ele>136.2</ele>
        <time>2023-08-17T16:09:11Z</time>
      </trkpt>
      <trkpt lat="48.83477" lon="1.44666">
        <ele>136.4</ele>
        <time>2023-08-17T16:09:12Z</time>
      </trkpt>
      <trkpt lat="48.83477" lon="1.44663">
        <ele>136.4</ele>
        <time>2023-08-17T16:09:13Z</time>
      </trkpt>
      <trkpt lat="48.83478" lon="1.4466">
        <ele>136.4</ele>
        <time>2023-08-17T16:09:14Z</time>
      </trkpt>
      <trkpt lat="48.83478" lon="1.44658">
        <ele>136.6</ele>
        <time>2023-08-17T16:09:15Z</time>
      </trkpt>
      <trkpt lat="48.83479" lon="1.44656">
        <ele>136.6</ele>
        <time>2023-08-17T16:09:16Z</time>
      </trkpt>
      <trkpt lat="48.8348" lon="1.44653">
        <ele>136.8</ele>
        <time>2023-08-17T16:09:17Z</time>
      </trkpt>
      <trkpt lat="48.83482" lon="1.44651">
        <ele>136.8</ele>
        <time>2023-08-17T16:09:18Z</time>
      </trkpt>
      <trkpt lat="48.83483" lon="1.44649">
        <ele>137.2</ele>
        <time>2023-08-17T16:09:19Z</time>
      </trkpt>
      <trkpt lat="48.83485" lon="1.44647">
        <ele>137.2</ele>
        <time>2023-08-17T16:09:20Z</time>
      </trkpt>
      <trkpt lat="48.83486" lon="1.44646">
        <ele>137.4</ele>
        <time>2023-08-17T16:09:21Z</time>
      </trkpt>
      <trkpt lat="48.83487" lon="1.44644">
        <ele>137.4</ele>
        <time>2023-08-17T16:09:22Z</time>
      </trkpt>
      <trkpt lat="48.83488" lon="1.44641">
        <ele>137.6</ele>
        <time>2023-08-17T16:09:23Z</time>
      </trkpt>
      <trkpt lat="48.8349" lon="1.4464">
        <ele>137.6</ele>
        <time>2023-08-17T16:09:24Z</time>
      </trkpt>
      <trkpt lat="48.83491" lon="1.44638">
        <ele>137.8</ele>
        <time>2023-08-17T16:09:25Z</time>
      </trkpt>
      <trkpt lat="48.83492" lon="1.44636">
        <ele>137.8</ele>
        <time>2023-08-17T16:09:26Z</time>
      </trkpt>
      <trkpt lat="48.83491" lon="1.44634">
        <ele>138</ele>
        <time>2023-08-17T16:09:27Z</time>
      </trkpt>
      <trkpt lat="48.83492" lon="1.44631">
        <ele>138</ele>
        <time>2023-08-17T16:09:28Z</time>
      </trkpt>
      <trkpt lat="48.83493" lon="1.44629">
        <ele>138.2</ele>
        <time>2023-08-17T16:09:29Z</time>
      </trkpt>
      <trkpt lat="48.83495" lon="1.44628">
        <ele>138.2</ele>
        <time>2023-08-17T16:09:30Z</time>
      </trkpt>
      <trkpt lat="48.83497" lon="1.44627">
        <ele>138.4</ele>
        <time>2023-08-17T16:09:31Z</time>
      </trkpt>
      <trkpt lat="48.83498" lon="1.44626">
        <ele>138.4</ele>
        <time>2023-08-17T16:09:32Z</time>
      </trkpt>
      <trkpt lat="48.83498" lon="1.44626">
        <ele>138.6</ele>
        <time>2023-08-17T16:09:33Z</time>
      </trkpt>
      <trkpt lat="48.83499" lon="1.44625">
        <ele>138.8</ele>
        <time>2023-08-17T16:09:34Z</time>
      </trkpt>
      <trkpt lat="48.83501" lon="1.44623">
        <ele>138.8</ele>
        <time>2023-08-17T16:09:35Z</time>
      </trkpt>
      <trkpt lat="48.83504" lon="1.44621">
        <ele>139</ele>
        <time>2023-08-17T16:09:36Z</time>
      </trkpt>
      <trkpt lat="48.83505" lon="1.44619">
        <ele>139.2</ele>
        <time>2023-08-17T16:09:37Z</time>
      </trkpt>
      <trkpt lat="48.83503" lon="1.44615">
        <ele>139.2</ele>
        <time>2023-08-17T16:09:38Z</time>
      </trkpt>
      <trkpt lat="48.83502" lon="1.44613">
        <ele>139.4</ele>
        <time>2023-08-17T16:09:39Z</time>
      </trkpt>
      <trkpt lat="48.835" lon="1.44611">
        <ele>139.4</ele>
        <time>2023-08-17T16:09:40Z</time>
      </trkpt>
      <trkpt lat="48.83498" lon="1.44609">
        <ele>139.6</ele>
        <time>2023-08-17T16:09:41Z</time>
      </trkpt>
      <trkpt lat="48.83497" lon="1.44607">
        <ele>139.8</ele>
        <time>2023-08-17T16:09:42Z</time>
      </trkpt>
      <trkpt lat="48.83495" lon="1.44605">
        <ele>139.8</ele>
        <time>2023-08-17T16:09:43Z</time>
      </trkpt>
      <trkpt lat="48.83494" lon="1.44602">
        <ele>140</ele>
        <time>2023-08-17T16:09:44Z</time>
      </trkpt>
      <trkpt lat="48.83493" lon="1.44599">
        <ele>140.2</ele>
        <time>2023-08-17T16:09:45Z</time>
      </trkpt>
      <trkpt lat="48.83491" lon="1.44596">
        <ele>140.4</ele>
        <time>2023-08-17T16:09:46Z</time>
      </trkpt>
      <trkpt lat="48.83489" lon="1.44593">
        <ele>140.6</ele>
        <time>2023-08-17T16:09:47Z</time>
      </trkpt>
      <trkpt lat="48.83488" lon="1.44591">
        <ele>140.8</ele>
        <time>2023-08-17T16:09:48Z</time>
      </trkpt>
      <trkpt lat="48.83488" lon="1.44589">
        <ele>140.8</ele>
        <time>2023-08-17T16:09:49Z</time>
      </trkpt>
      <trkpt lat="48.83487" lon="1.44588">
        <ele>140.8</ele>
        <time>2023-08-17T16:09:50Z</time>
      </trkpt>
      <trkpt lat="48.83486" lon="1.44587">
        <ele>140.8</ele>
        <time>2023-08-17T16:09:51Z</time>
      </trkpt>
      <trkpt lat="48.83485" lon="1.44585">
        <ele>140.8</ele>
        <time>2023-08-17T16:09:52Z</time>
      </trkpt>
      <trkpt lat="48.83482" lon="1.44581">
        <ele>141</ele>
        <time>2023-08-17T16:09:53Z</time>
      </trkpt>
      <trkpt lat="48.8348" lon="1.44577">
        <ele>140.8</ele>
        <time>2023-08-17T16:09:54Z</time>
      </trkpt>
      <trkpt lat="48.83478" lon="1.44573">
        <ele>140.8</ele>
        <time>2023-08-17T16:09:55Z</time>
      </trkpt>
      <trkpt lat="48.83476" lon="1.4457">
        <ele>140.8</ele>
        <time>2023-08-17T16:09:56Z</time>
      </trkpt>
      <trkpt lat="48.83474" lon="1.44568">
        <ele>140.8</ele>
        <time>2023-08-17T16:09:57Z</time>
      </trkpt>
      <trkpt lat="48.83471" lon="1.44565">
        <ele>141</ele>
        <time>2023-08-17T16:09:58Z</time>
      </trkpt>
      <trkpt lat="48.83469" lon="1.44563">
        <ele>141</ele>
        <time>2023-08-17T16:09:59Z</time>
      </trkpt>
      <trkpt lat="48.83466" lon="1.4456">
        <ele>141</ele>
        <time>2023-08-17T16:10:00Z</time>
      </trkpt>
      <trkpt lat="48.83464" lon="1.44557">
        <ele>141</ele>
        <time>2023-08-17T16:10:01Z</time>
      </trkpt>
      <trkpt lat="48.83462" lon="1.44553">
        <ele>141</ele>
        <time>2023-08-17T16:10:02Z</time>
      </trkpt>
      <trkpt lat="48.83454" lon="1.44542">
        <ele>140.8</ele>
        <time>2023-08-17T16:10:06Z</time>
      </trkpt>
      <trkpt lat="48.83448" lon="1.44535">
        <ele>140.6</ele>
        <time>2023-08-17T16:10:08Z</time>
      </trkpt>
      <trkpt lat="48.83446" lon="1.44533">
        <ele>140.6</ele>
        <time>2023-08-17T16:10:09Z</time>
      </trkpt>
      <trkpt lat="48.83442" lon="1.4453">
        <ele>140.6</ele>
        <time>2023-08-17T16:10:10Z</time>
      </trkpt>
      <trkpt lat="48.83429" lon="1.44513">
        <ele>140.6</ele>
        <time>2023-08-17T16:10:14Z</time>
      </trkpt>
      <trkpt lat="48.83407" lon="1.44483">
        <ele>140.4</ele>
        <time>2023-08-17T16:10:19Z</time>
      </trkpt>
      <trkpt lat="48.83404" lon="1.44477">
        <ele>140.4</ele>
        <time>2023-08-17T16:10:20Z</time>
      </trkpt>
      <trkpt lat="48.83402" lon="1.44473">
        <ele>140.2</ele>
        <time>2023-08-17T16:10:21Z</time>
      </trkpt>
      <trkpt lat="48.83399" lon="1.44469">
        <ele>139.8</ele>
        <time>2023-08-17T16:10:22Z</time>
      </trkpt>
      <trkpt lat="48.83397" lon="1.44465">
        <ele>139.6</ele>
        <time>2023-08-17T16:10:23Z</time>
      </trkpt>
      <trkpt lat="48.83393" lon="1.44461">
        <ele>139.4</ele>
        <time>2023-08-17T16:10:24Z</time>
      </trkpt>
      <trkpt lat="48.83382" lon="1.44444">
        <ele>139.4</ele>
        <time>2023-08-17T16:10:28Z</time>
      </trkpt>
      <trkpt lat="48.83381" lon="1.4444">
        <ele>139.4</ele>
        <time>2023-08-17T16:10:29Z</time>
      </trkpt>
      <trkpt lat="48.83378" lon="1.44439">
        <ele>139.4</ele>
        <time>2023-08-17T16:10:30Z</time>
      </trkpt>
      <trkpt lat="48.83375" lon="1.44437">
        <ele>139.4</ele>
        <time>2023-08-17T16:10:31Z</time>
      </trkpt>
      <trkpt lat="48.83372" lon="1.44433">
        <ele>139.4</ele>
        <time>2023-08-17T16:10:32Z</time>
      </trkpt>
      <trkpt lat="48.83368" lon="1.44428">
        <ele>139.4</ele>
        <time>2023-08-17T16:10:34Z</time>
      </trkpt>
      <trkpt lat="48.83367" lon="1.44425">
        <ele>139.4</ele>
        <time>2023-08-17T16:10:35Z</time>
      </trkpt>
      <trkpt lat="48.83359" lon="1.44415">
        <ele>139.4</ele>
        <time>2023-08-17T16:10:38Z</time>
      </trkpt>
      <trkpt lat="48.83357" lon="1.44412">
        <ele>139.4</ele>
        <time>2023-08-17T16:10:39Z</time>
      </trkpt>
      <trkpt lat="48.83356" lon="1.44411">
        <ele>139.4</ele>
        <time>2023-08-17T16:10:40Z</time>
      </trkpt>
      <trkpt lat="48.83353" lon="1.44408">
        <ele>139.4</ele>
        <time>2023-08-17T16:10:41Z</time>
      </trkpt>
      <trkpt lat="48.83351" lon="1.44404">
        <ele>139.4</ele>
        <time>2023-08-17T16:10:42Z</time>
      </trkpt>
      <trkpt lat="48.83347" lon="1.44398">
        <ele>139.4</ele>
        <time>2023-08-17T16:10:44Z</time>
      </trkpt>
      <trkpt lat="48.83343" lon="1.44394">
        <ele>139.4</ele>
        <time>2023-08-17T16:10:46Z</time>
      </trkpt>
      <trkpt lat="48.83341" lon="1.44392">
        <ele>139.4</ele>
        <time>2023-08-17T16:10:47Z</time>
      </trkpt>
      <trkpt lat="48.83339" lon="1.4439">
        <ele>139.4</ele>
        <time>2023-08-17T16:10:48Z</time>
      </trkpt>
      <trkpt lat="48.83336" lon="1.44386">
        <ele>139.4</ele>
        <time>2023-08-17T16:10:49Z</time>
      </trkpt>
      <trkpt lat="48.83334" lon="1.44384">
        <ele>139.4</ele>
        <time>2023-08-17T16:10:50Z</time>
      </trkpt>
      <trkpt lat="48.83331" lon="1.44381">
        <ele>139.4</ele>
        <time>2023-08-17T16:10:51Z</time>
      </trkpt>
      <trkpt lat="48.83329" lon="1.44378">
        <ele>139.4</ele>
        <time>2023-08-17T16:10:52Z</time>
      </trkpt>
      <trkpt lat="48.83326" lon="1.44376">
        <ele>139.4</ele>
        <time>2023-08-17T16:10:53Z</time>
      </trkpt>
      <trkpt lat="48.83325" lon="1.44374">
        <ele>139.4</ele>
        <time>2023-08-17T16:10:54Z</time>
      </trkpt>
      <trkpt lat="48.83324" lon="1.44372">
        <ele>139.4</ele>
        <time>2023-08-17T16:10:55Z</time>
      </trkpt>
      <trkpt lat="48.83321" lon="1.44368">
        <ele>139.2</ele>
        <time>2023-08-17T16:10:56Z</time>
      </trkpt>
      <trkpt lat="48.83319" lon="1.44365">
        <ele>139.2</ele>
        <time>2023-08-17T16:10:57Z</time>
      </trkpt>
      <trkpt lat="48.83316" lon="1.44358">
        <ele>139.2</ele>
        <time>2023-08-17T16:10:59Z</time>
      </trkpt>
      <trkpt lat="48.83313" lon="1.44356">
        <ele>139.2</ele>
        <time>2023-08-17T16:11:00Z</time>
      </trkpt>
      <trkpt lat="48.83311" lon="1.44354">
        <ele>139.2</ele>
        <time>2023-08-17T16:11:01Z</time>
      </trkpt>
      <trkpt lat="48.83308" lon="1.44354">
        <ele>139</ele>
        <time>2023-08-17T16:11:02Z</time>
      </trkpt>
      <trkpt lat="48.83306" lon="1.44355">
        <ele>139</ele>
        <time>2023-08-17T16:11:03Z</time>
      </trkpt>
      <trkpt lat="48.83295" lon="1.44357">
        <ele>138.6</ele>
        <time>2023-08-17T16:11:05Z</time>
      </trkpt>
      <trkpt lat="48.83287" lon="1.44358">
        <ele>138.4</ele>
        <time>2023-08-17T16:11:06Z</time>
      </trkpt>
      <trkpt lat="48.83264" lon="1.44361">
        <ele>137.8</ele>
        <time>2023-08-17T16:11:08Z</time>
      </trkpt>
      <trkpt lat="48.83252" lon="1.44362">
        <ele>137.8</ele>
        <time>2023-08-17T16:11:09Z</time>
      </trkpt>
      <trkpt lat="48.83231" lon="1.44367">
        <ele>136.8</ele>
        <time>2023-08-17T16:11:11Z</time>
      </trkpt>
      <trkpt lat="48.8322" lon="1.44369">
        <ele>135.6</ele>
        <time>2023-08-17T16:11:12Z</time>
      </trkpt>
      <trkpt lat="48.83209" lon="1.44372">
        <ele>134.4</ele>
        <time>2023-08-17T16:11:13Z</time>
      </trkpt>
      <trkpt lat="48.83199" lon="1.44374">
        <ele>132.6</ele>
        <time>2023-08-17T16:11:14Z</time>
      </trkpt>
      <trkpt lat="48.83181" lon="1.44376">
        <ele>130.2</ele>
        <time>2023-08-17T16:11:16Z</time>
      </trkpt>
      <trkpt lat="48.83173" lon="1.44378">
        <ele>126.6</ele>
        <time>2023-08-17T16:11:17Z</time>
      </trkpt>
      <trkpt lat="48.83167" lon="1.44379">
        <ele>124</ele>
        <time>2023-08-17T16:11:18Z</time>
      </trkpt>
      <trkpt lat="48.83162" lon="1.44381">
        <ele>122</ele>
        <time>2023-08-17T16:11:19Z</time>
      </trkpt>
      <trkpt lat="48.83157" lon="1.44382">
        <ele>121.2</ele>
        <time>2023-08-17T16:11:20Z</time>
      </trkpt>
      <trkpt lat="48.83153" lon="1.44382">
        <ele>120.6</ele>
        <time>2023-08-17T16:11:21Z</time>
      </trkpt>
      <trkpt lat="48.83149" lon="1.44383">
        <ele>120.4</ele>
        <time>2023-08-17T16:11:22Z</time>
      </trkpt>
      <trkpt lat="48.83146" lon="1.44385">
        <ele>120.4</ele>
        <time>2023-08-17T16:11:23Z</time>
      </trkpt>
      <trkpt lat="48.83143" lon="1.44386">
        <ele>120.2</ele>
        <time>2023-08-17T16:11:24Z</time>
      </trkpt>
      <trkpt lat="48.83141" lon="1.44386">
        <ele>120.2</ele>
        <time>2023-08-17T16:11:25Z</time>
      </trkpt>
      <trkpt lat="48.8314" lon="1.44387">
        <ele>120.2</ele>
        <time>2023-08-17T16:11:26Z</time>
      </trkpt>
      <trkpt lat="48.83138" lon="1.44387">
        <ele>120.2</ele>
        <time>2023-08-17T16:11:27Z</time>
      </trkpt>
      <trkpt lat="48.83137" lon="1.44388">
        <ele>120.2</ele>
        <time>2023-08-17T16:11:28Z</time>
      </trkpt>
      <trkpt lat="48.83135" lon="1.44388">
        <ele>120.6</ele>
        <time>2023-08-17T16:11:29Z</time>
      </trkpt>
      <trkpt lat="48.83131" lon="1.44389">
        <ele>121.4</ele>
        <time>2023-08-17T16:11:31Z</time>
      </trkpt>
      <trkpt lat="48.83129" lon="1.44388">
        <ele>122</ele>
        <time>2023-08-17T16:11:32Z</time>
      </trkpt>
      <trkpt lat="48.83127" lon="1.44389">
        <ele>122.6</ele>
        <time>2023-08-17T16:11:33Z</time>
      </trkpt>
      <trkpt lat="48.83125" lon="1.44389">
        <ele>123.2</ele>
        <time>2023-08-17T16:11:34Z</time>
      </trkpt>
      <trkpt lat="48.83119" lon="1.4439">
        <ele>124.2</ele>
        <time>2023-08-17T16:11:37Z</time>
      </trkpt>
      <trkpt lat="48.83115" lon="1.44391">
        <ele>124.8</ele>
        <time>2023-08-17T16:11:40Z</time>
      </trkpt>
      <trkpt lat="48.83111" lon="1.44393">
        <ele>125.4</ele>
        <time>2023-08-17T16:11:42Z</time>
      </trkpt>
      <trkpt lat="48.83108" lon="1.44393">
        <ele>126.2</ele>
        <time>2023-08-17T16:11:44Z</time>
      </trkpt>
      <trkpt lat="48.83106" lon="1.44394">
        <ele>126.6</ele>
        <time>2023-08-17T16:11:45Z</time>
      </trkpt>
      <trkpt lat="48.83102" lon="1.44394">
        <ele>127</ele>
        <time>2023-08-17T16:11:47Z</time>
      </trkpt>
      <trkpt lat="48.83098" lon="1.44395">
        <ele>127.4</ele>
        <time>2023-08-17T16:11:49Z</time>
      </trkpt>
      <trkpt lat="48.83097" lon="1.44395">
        <ele>127.6</ele>
        <time>2023-08-17T16:11:50Z</time>
      </trkpt>
      <trkpt lat="48.83095" lon="1.44395">
        <ele>127.8</ele>
        <time>2023-08-17T16:11:51Z</time>
      </trkpt>
      <trkpt lat="48.83093" lon="1.44395">
        <ele>128</ele>
        <time>2023-08-17T16:11:52Z</time>
      </trkpt>
      <trkpt lat="48.83091" lon="1.44396">
        <ele>128</ele>
        <time>2023-08-17T16:11:53Z</time>
      </trkpt>
      <trkpt lat="48.83089" lon="1.44396">
        <ele>128.2</ele>
        <time>2023-08-17T16:11:54Z</time>
      </trkpt>
      <trkpt lat="48.83087" lon="1.44396">
        <ele>128.2</ele>
        <time>2023-08-17T16:11:55Z</time>
      </trkpt>
      <trkpt lat="48.83085" lon="1.44397">
        <ele>128.4</ele>
        <time>2023-08-17T16:11:56Z</time>
      </trkpt>
      <trkpt lat="48.83083" lon="1.44397">
        <ele>128.4</ele>
        <time>2023-08-17T16:11:57Z</time>
      </trkpt>
      <trkpt lat="48.83081" lon="1.44398">
        <ele>128.4</ele>
        <time>2023-08-17T16:11:58Z</time>
      </trkpt>
      <trkpt lat="48.83079" lon="1.44398">
        <ele>128.6</ele>
        <time>2023-08-17T16:11:59Z</time>
      </trkpt>
      <trkpt lat="48.83077" lon="1.44398">
        <ele>128.6</ele>
        <time>2023-08-17T16:12:00Z</time>
      </trkpt>
      <trkpt lat="48.83075" lon="1.44398">
        <ele>128.6</ele>
        <time>2023-08-17T16:12:01Z</time>
      </trkpt>
      <trkpt lat="48.83073" lon="1.44399">
        <ele>128.6</ele>
        <time>2023-08-17T16:12:02Z</time>
      </trkpt>
      <trkpt lat="48.83071" lon="1.44399">
        <ele>128.6</ele>
        <time>2023-08-17T16:12:03Z</time>
      </trkpt>
      <trkpt lat="48.83069" lon="1.444">
        <ele>128.6</ele>
        <time>2023-08-17T16:12:04Z</time>
      </trkpt>
      <trkpt lat="48.83067" lon="1.44401">
        <ele>128.8</ele>
        <time>2023-08-17T16:12:05Z</time>
      </trkpt>
      <trkpt lat="48.83065" lon="1.44402">
        <ele>128.8</ele>
        <time>2023-08-17T16:12:06Z</time>
      </trkpt>
      <trkpt lat="48.83063" lon="1.44402">
        <ele>128.8</ele>
        <time>2023-08-17T16:12:07Z</time>
      </trkpt>
      <trkpt lat="48.83061" lon="1.44402">
        <ele>129</ele>
        <time>2023-08-17T16:12:08Z</time>
      </trkpt>
      <trkpt lat="48.83058" lon="1.44402">
        <ele>129</ele>
        <time>2023-08-17T16:12:09Z</time>
      </trkpt>
      <trkpt lat="48.83056" lon="1.44402">
        <ele>129</ele>
        <time>2023-08-17T16:12:10Z</time>
      </trkpt>
      <trkpt lat="48.83054" lon="1.44402">
        <ele>129.2</ele>
        <time>2023-08-17T16:12:11Z</time>
      </trkpt>
      <trkpt lat="48.83051" lon="1.44401">
        <ele>129.2</ele>
        <time>2023-08-17T16:12:12Z</time>
      </trkpt>
      <trkpt lat="48.83049" lon="1.44401">
        <ele>129.2</ele>
        <time>2023-08-17T16:12:13Z</time>
      </trkpt>
      <trkpt lat="48.83046" lon="1.44402">
        <ele>129.4</ele>
        <time>2023-08-17T16:12:14Z</time>
      </trkpt>
      <trkpt lat="48.83043" lon="1.44403">
        <ele>129.6</ele>
        <time>2023-08-17T16:12:15Z</time>
      </trkpt>
      <trkpt lat="48.83041" lon="1.44404">
        <ele>129.6</ele>
        <time>2023-08-17T16:12:16Z</time>
      </trkpt>
      <trkpt lat="48.83038" lon="1.44404">
        <ele>129.6</ele>
        <time>2023-08-17T16:12:17Z</time>
      </trkpt>
      <trkpt lat="48.83035" lon="1.44405">
        <ele>129.6</ele>
        <time>2023-08-17T16:12:18Z</time>
      </trkpt>
      <trkpt lat="48.83033" lon="1.44405">
        <ele>129.8</ele>
        <time>2023-08-17T16:12:19Z</time>
      </trkpt>
      <trkpt lat="48.83031" lon="1.44405">
        <ele>129.8</ele>
        <time>2023-08-17T16:12:20Z</time>
      </trkpt>
      <trkpt lat="48.83031" lon="1.44407">
        <ele>129.8</ele>
        <time>2023-08-17T16:12:21Z</time>
      </trkpt>
      <trkpt lat="48.83029" lon="1.44408">
        <ele>129.8</ele>
        <time>2023-08-17T16:12:22Z</time>
      </trkpt>
      <trkpt lat="48.8302" lon="1.4441">
        <ele>130</ele>
        <time>2023-08-17T16:12:25Z</time>
      </trkpt>
      <trkpt lat="48.83007" lon="1.4441">
        <ele>130.2</ele>
        <time>2023-08-17T16:12:29Z</time>
      </trkpt>
      <trkpt lat="48.83002" lon="1.44412">
        <ele>130.4</ele>
        <time>2023-08-17T16:12:31Z</time>
      </trkpt>
      <trkpt lat="48.82997" lon="1.44414">
        <ele>130.4</ele>
        <time>2023-08-17T16:12:33Z</time>
      </trkpt>
      <trkpt lat="48.82986" lon="1.44416">
        <ele>130.4</ele>
        <time>2023-08-17T16:12:36Z</time>
      </trkpt>
      <trkpt lat="48.82982" lon="1.44416">
        <ele>130.4</ele>
        <time>2023-08-17T16:12:37Z</time>
      </trkpt>
      <trkpt lat="48.82952" lon="1.44421">
        <ele>130.6</ele>
        <time>2023-08-17T16:12:46Z</time>
      </trkpt>
      <trkpt lat="48.82941" lon="1.44422">
        <ele>130.4</ele>
        <time>2023-08-17T16:12:50Z</time>
      </trkpt>
      <trkpt lat="48.82938" lon="1.44423">
        <ele>130.2</ele>
        <time>2023-08-17T16:12:51Z</time>
      </trkpt>
      <trkpt lat="48.82936" lon="1.44423">
        <ele>130.2</ele>
        <time>2023-08-17T16:12:52Z</time>
      </trkpt>
      <trkpt lat="48.82935" lon="1.44424">
        <ele>130.2</ele>
        <time>2023-08-17T16:12:53Z</time>
      </trkpt>
      <trkpt lat="48.82934" lon="1.44424">
        <ele>130.2</ele>
        <time>2023-08-17T16:12:54Z</time>
      </trkpt>
      <trkpt lat="48.82934" lon="1.44424">
        <ele>130</ele>
        <time>2023-08-17T16:12:59Z</time>
      </trkpt>
      <trkpt lat="48.82934" lon="1.44425">
        <ele>130.2</ele>
        <time>2023-08-17T16:13:03Z</time>
      </trkpt>
      <trkpt lat="48.82933" lon="1.44429">
        <ele>130</ele>
        <time>2023-08-17T16:13:04Z</time>
      </trkpt>
      <trkpt lat="48.82932" lon="1.44432">
        <ele>130</ele>
        <time>2023-08-17T16:13:05Z</time>
      </trkpt>
      <trkpt lat="48.8293" lon="1.44457">
        <ele>130.2</ele>
        <time>2023-08-17T16:13:10Z</time>
      </trkpt>
      <trkpt lat="48.82929" lon="1.44463">
        <ele>130</ele>
        <time>2023-08-17T16:13:11Z</time>
      </trkpt>
      <trkpt lat="48.82928" lon="1.44478">
        <ele>129.6</ele>
        <time>2023-08-17T16:13:13Z</time>
      </trkpt>
      <trkpt lat="48.82922" lon="1.44513">
        <ele>129.4</ele>
        <time>2023-08-17T16:13:16Z</time>
      </trkpt>
      <trkpt lat="48.82913" lon="1.44554">
        <ele>128.6</ele>
        <time>2023-08-17T16:13:19Z</time>
      </trkpt>
      <trkpt lat="48.82911" lon="1.44569">
        <ele>128.2</ele>
        <time>2023-08-17T16:13:20Z</time>
      </trkpt>
      <trkpt lat="48.82908" lon="1.44583">
        <ele>127.6</ele>
        <time>2023-08-17T16:13:21Z</time>
      </trkpt>
      <trkpt lat="48.82906" lon="1.44596">
        <ele>126.8</ele>
        <time>2023-08-17T16:13:22Z</time>
      </trkpt>
      <trkpt lat="48.82904" lon="1.44605">
        <ele>126.4</ele>
        <time>2023-08-17T16:13:23Z</time>
      </trkpt>
      <trkpt lat="48.82903" lon="1.44611">
        <ele>125.6</ele>
        <time>2023-08-17T16:13:24Z</time>
      </trkpt>
      <trkpt lat="48.82902" lon="1.44615">
        <ele>125.4</ele>
        <time>2023-08-17T16:13:25Z</time>
      </trkpt>
      <trkpt lat="48.82902" lon="1.44616">
        <ele>125.2</ele>
        <time>2023-08-17T16:13:26Z</time>
      </trkpt>
      <trkpt lat="48.82902" lon="1.44616">
        <ele>125.2</ele>
        <time>2023-08-17T16:13:27Z</time>
      </trkpt>
      <trkpt lat="48.82902" lon="1.44621">
        <ele>126.2</ele>
        <time>2023-08-17T16:13:34Z</time>
      </trkpt>
      <trkpt lat="48.82903" lon="1.44622">
        <ele>127</ele>
        <time>2023-08-17T16:13:35Z</time>
      </trkpt>
      <trkpt lat="48.82904" lon="1.44623">
        <ele>127.4</ele>
        <time>2023-08-17T16:13:36Z</time>
      </trkpt>
      <trkpt lat="48.82903" lon="1.44624">
        <ele>127.6</ele>
        <time>2023-08-17T16:13:37Z</time>
      </trkpt>
      <trkpt lat="48.82902" lon="1.44625">
        <ele>127.6</ele>
        <time>2023-08-17T16:13:38Z</time>
      </trkpt>
      <trkpt lat="48.82902" lon="1.44626">
        <ele>128</ele>
        <time>2023-08-17T16:13:39Z</time>
      </trkpt>
      <trkpt lat="48.82901" lon="1.44627">
        <ele>128</ele>
        <time>2023-08-17T16:13:40Z</time>
      </trkpt>
      <trkpt lat="48.82901" lon="1.44628">
        <ele>128.6</ele>
        <time>2023-08-17T16:13:44Z</time>
      </trkpt>
      <trkpt lat="48.829" lon="1.4463">
        <ele>129.2</ele>
        <time>2023-08-17T16:13:47Z</time>
      </trkpt>
      <trkpt lat="48.829" lon="1.44631">
        <ele>129.6</ele>
        <time>2023-08-17T16:13:48Z</time>
      </trkpt>
      <trkpt lat="48.82899" lon="1.44632">
        <ele>129.8</ele>
        <time>2023-08-17T16:13:49Z</time>
      </trkpt>
      <trkpt lat="48.82899" lon="1.44633">
        <ele>129.8</ele>
        <time>2023-08-17T16:13:50Z</time>
      </trkpt>
      <trkpt lat="48.82898" lon="1.44635">
        <ele>130.2</ele>
        <time>2023-08-17T16:13:52Z</time>
      </trkpt>
      <trkpt lat="48.82898" lon="1.44636">
        <ele>130.4</ele>
        <time>2023-08-17T16:13:53Z</time>
      </trkpt>
      <trkpt lat="48.82898" lon="1.44637">
        <ele>130.6</ele>
        <time>2023-08-17T16:13:54Z</time>
      </trkpt>
      <trkpt lat="48.82898" lon="1.44639">
        <ele>131</ele>
        <time>2023-08-17T16:13:55Z</time>
      </trkpt>
      <trkpt lat="48.82898" lon="1.44639">
        <ele>131.2</ele>
        <time>2023-08-17T16:13:56Z</time>
      </trkpt>
      <trkpt lat="48.82898" lon="1.44639">
        <ele>131.4</ele>
        <time>2023-08-17T16:13:57Z</time>
      </trkpt>
      <trkpt lat="48.82898" lon="1.44639">
        <ele>132.2</ele>
        <time>2023-08-17T16:14:02Z</time>
      </trkpt>
      <trkpt lat="48.82898" lon="1.44639">
        <ele>132.4</ele>
        <time>2023-08-17T16:14:03Z</time>
      </trkpt>
      <trkpt lat="48.82898" lon="1.44639">
        <ele>133.6</ele>
        <time>2023-08-17T16:14:37Z</time>
      </trkpt>
      <trkpt lat="48.82896" lon="1.44651">
        <ele>134.8</ele>
        <time>2023-08-17T16:14:43Z</time>
      </trkpt>
      <trkpt lat="48.82896" lon="1.44653">
        <ele>134.8</ele>
        <time>2023-08-17T16:14:44Z</time>
      </trkpt>
      <trkpt lat="48.82894" lon="1.44662">
        <ele>135.8</ele>
        <time>2023-08-17T16:14:49Z</time>
      </trkpt>
      <trkpt lat="48.82893" lon="1.44666">
        <ele>136.2</ele>
        <time>2023-08-17T16:14:51Z</time>
      </trkpt>
      <trkpt lat="48.82893" lon="1.44666">
        <ele>136.4</ele>
        <time>2023-08-17T16:14:52Z</time>
      </trkpt>
      <trkpt lat="48.82892" lon="1.44668">
        <ele>136.6</ele>
        <time>2023-08-17T16:14:53Z</time>
      </trkpt>
      <trkpt lat="48.82892" lon="1.4467">
        <ele>136.8</ele>
        <time>2023-08-17T16:14:54Z</time>
      </trkpt>
      <trkpt lat="48.82892" lon="1.44672">
        <ele>137.2</ele>
        <time>2023-08-17T16:14:55Z</time>
      </trkpt>
      <trkpt lat="48.82891" lon="1.44673">
        <ele>137.2</ele>
        <time>2023-08-17T16:14:56Z</time>
      </trkpt>
      <trkpt lat="48.82891" lon="1.44674">
        <ele>137.4</ele>
        <time>2023-08-17T16:14:57Z</time>
      </trkpt>
      <trkpt lat="48.82891" lon="1.44674">
        <ele>137.6</ele>
        <time>2023-08-17T16:14:58Z</time>
      </trkpt>
      <trkpt lat="48.82891" lon="1.44674">
        <ele>137.6</ele>
        <time>2023-08-17T16:14:59Z</time>
      </trkpt>
      <trkpt lat="48.82891" lon="1.44674">
        <ele>138</ele>
        <time>2023-08-17T16:15:00Z</time>
      </trkpt>
      <trkpt lat="48.82891" lon="1.44674">
        <ele>139</ele>
        <time>2023-08-17T16:15:04Z</time>
      </trkpt>
      <trkpt lat="48.82891" lon="1.44674">
        <ele>139.6</ele>
        <time>2023-08-17T16:15:12Z</time>
      </trkpt>
      <trkpt lat="48.82891" lon="1.44674">
        <ele>139.6</ele>
        <time>2023-08-17T16:15:26Z</time>
      </trkpt>
      <trkpt lat="48.8289" lon="1.44677">
        <ele>139.6</ele>
        <time>2023-08-17T16:15:28Z</time>
      </trkpt>
      <trkpt lat="48.82888" lon="1.44691">
        <ele>139.8</ele>
        <time>2023-08-17T16:15:35Z</time>
      </trkpt>
      <trkpt lat="48.82887" lon="1.44696">
        <ele>140.2</ele>
        <time>2023-08-17T16:15:38Z</time>
      </trkpt>
      <trkpt lat="48.82886" lon="1.44697">
        <ele>140.4</ele>
        <time>2023-08-17T16:15:39Z</time>
      </trkpt>
      <trkpt lat="48.82886" lon="1.44699">
        <ele>140.6</ele>
        <time>2023-08-17T16:15:40Z</time>
      </trkpt>
      <trkpt lat="48.82886" lon="1.44701">
        <ele>140.6</ele>
        <time>2023-08-17T16:15:41Z</time>
      </trkpt>
      <trkpt lat="48.82886" lon="1.44703">
        <ele>140.8</ele>
        <time>2023-08-17T16:15:42Z</time>
      </trkpt>
      <trkpt lat="48.82886" lon="1.44705">
        <ele>141</ele>
        <time>2023-08-17T16:15:44Z</time>
      </trkpt>
      <trkpt lat="48.82886" lon="1.4471">
        <ele>141.2</ele>
        <time>2023-08-17T16:15:46Z</time>
      </trkpt>
      <trkpt lat="48.82885" lon="1.44716">
        <ele>141.8</ele>
        <time>2023-08-17T16:15:49Z</time>
      </trkpt>
      <trkpt lat="48.82885" lon="1.44718">
        <ele>141.8</ele>
        <time>2023-08-17T16:15:50Z</time>
      </trkpt>
      <trkpt lat="48.82884" lon="1.4472">
        <ele>142</ele>
        <time>2023-08-17T16:15:51Z</time>
      </trkpt>
      <trkpt lat="48.82883" lon="1.44722">
        <ele>142.2</ele>
        <time>2023-08-17T16:15:53Z</time>
      </trkpt>
      <trkpt lat="48.82882" lon="1.44728">
        <ele>142.6</ele>
        <time>2023-08-17T16:15:56Z</time>
      </trkpt>
      <trkpt lat="48.82883" lon="1.44729">
        <ele>142.6</ele>
        <time>2023-08-17T16:15:57Z</time>
      </trkpt>
      <trkpt lat="48.82882" lon="1.44731">
        <ele>142.8</ele>
        <time>2023-08-17T16:15:58Z</time>
      </trkpt>
      <trkpt lat="48.82881" lon="1.44733">
        <ele>142.8</ele>
        <time>2023-08-17T16:15:59Z</time>
      </trkpt>
      <trkpt lat="48.8288" lon="1.44734">
        <ele>143</ele>
        <time>2023-08-17T16:16:00Z</time>
      </trkpt>
      <trkpt lat="48.8288" lon="1.44736">
        <ele>143.2</ele>
        <time>2023-08-17T16:16:01Z</time>
      </trkpt>
      <trkpt lat="48.82878" lon="1.44738">
        <ele>143.4</ele>
        <time>2023-08-17T16:16:02Z</time>
      </trkpt>
      <trkpt lat="48.82878" lon="1.44739">
        <ele>143.6</ele>
        <time>2023-08-17T16:16:03Z</time>
      </trkpt>
      <trkpt lat="48.82878" lon="1.4474">
        <ele>143.6</ele>
        <time>2023-08-17T16:16:04Z</time>
      </trkpt>
      <trkpt lat="48.82878" lon="1.44742">
        <ele>143.8</ele>
        <time>2023-08-17T16:16:05Z</time>
      </trkpt>
      <trkpt lat="48.82877" lon="1.44743">
        <ele>143.8</ele>
        <time>2023-08-17T16:16:06Z</time>
      </trkpt>
      <trkpt lat="48.82877" lon="1.44744">
        <ele>144</ele>
        <time>2023-08-17T16:16:07Z</time>
      </trkpt>
      <trkpt lat="48.82878" lon="1.44743">
        <ele>144</ele>
        <time>2023-08-17T16:16:08Z</time>
      </trkpt>
      <trkpt lat="48.82878" lon="1.44743">
        <ele>144</ele>
        <time>2023-08-17T16:16:09Z</time>
      </trkpt>
      <trkpt lat="48.82878" lon="1.44744">
        <ele>144.2</ele>
        <time>2023-08-17T16:16:10Z</time>
      </trkpt>
      <trkpt lat="48.82878" lon="1.44745">
        <ele>144.2</ele>
        <time>2023-08-17T16:16:11Z</time>
      </trkpt>
      <trkpt lat="48.82878" lon="1.44746">
        <ele>144.4</ele>
        <time>2023-08-17T16:16:12Z</time>
      </trkpt>
      <trkpt lat="48.82877" lon="1.44746">
        <ele>144.4</ele>
        <time>2023-08-17T16:16:13Z</time>
      </trkpt>
      <trkpt lat="48.82877" lon="1.44747">
        <ele>144.4</ele>
        <time>2023-08-17T16:16:14Z</time>
      </trkpt>
      <trkpt lat="48.82877" lon="1.44748">
        <ele>144.6</ele>
        <time>2023-08-17T16:16:15Z</time>
      </trkpt>
      <trkpt lat="48.82878" lon="1.44749">
        <ele>144.6</ele>
        <time>2023-08-17T16:16:16Z</time>
      </trkpt>
      <trkpt lat="48.82877" lon="1.4475">
        <ele>144.6</ele>
        <time>2023-08-17T16:16:17Z</time>
      </trkpt>
      <trkpt lat="48.82877" lon="1.44752">
        <ele>144.6</ele>
        <time>2023-08-17T16:16:18Z</time>
      </trkpt>
      <trkpt lat="48.82877" lon="1.44753">
        <ele>144.8</ele>
        <time>2023-08-17T16:16:19Z</time>
      </trkpt>
      <trkpt lat="48.82876" lon="1.44754">
        <ele>144.8</ele>
        <time>2023-08-17T16:16:20Z</time>
      </trkpt>
      <trkpt lat="48.82876" lon="1.44755">
        <ele>144.8</ele>
        <time>2023-08-17T16:16:21Z</time>
      </trkpt>
      <trkpt lat="48.82876" lon="1.44762">
        <ele>145</ele>
        <time>2023-08-17T16:16:25Z</time>
      </trkpt>
      <trkpt lat="48.82874" lon="1.4477">
        <ele>145.2</ele>
        <time>2023-08-17T16:16:30Z</time>
      </trkpt>
      <trkpt lat="48.82874" lon="1.44772">
        <ele>145.2</ele>
        <time>2023-08-17T16:16:31Z</time>
      </trkpt>
      <trkpt lat="48.82874" lon="1.44774">
        <ele>145.4</ele>
        <time>2023-08-17T16:16:33Z</time>
      </trkpt>
      <trkpt lat="48.82873" lon="1.44776">
        <ele>145.4</ele>
        <time>2023-08-17T16:16:34Z</time>
      </trkpt>
      <trkpt lat="48.82873" lon="1.44776">
        <ele>145.4</ele>
        <time>2023-08-17T16:16:35Z</time>
      </trkpt>
      <trkpt lat="48.82873" lon="1.44778">
        <ele>145.4</ele>
        <time>2023-08-17T16:16:36Z</time>
      </trkpt>
      <trkpt lat="48.82872" lon="1.44782">
        <ele>145.6</ele>
        <time>2023-08-17T16:16:38Z</time>
      </trkpt>
      <trkpt lat="48.82871" lon="1.44788">
        <ele>145.6</ele>
        <time>2023-08-17T16:16:41Z</time>
      </trkpt>
      <trkpt lat="48.82871" lon="1.4479">
        <ele>145.6</ele>
        <time>2023-08-17T16:16:42Z</time>
      </trkpt>
      <trkpt lat="48.82871" lon="1.44791">
        <ele>145.8</ele>
        <time>2023-08-17T16:16:43Z</time>
      </trkpt>
      <trkpt lat="48.82869" lon="1.44795">
        <ele>145.8</ele>
        <time>2023-08-17T16:16:45Z</time>
      </trkpt>
      <trkpt lat="48.82868" lon="1.44796">
        <ele>145.8</ele>
        <time>2023-08-17T16:16:46Z</time>
      </trkpt>
      <trkpt lat="48.82868" lon="1.44798">
        <ele>145.8</ele>
        <time>2023-08-17T16:16:47Z</time>
      </trkpt>
      <trkpt lat="48.82868" lon="1.44799">
        <ele>145.8</ele>
        <time>2023-08-17T16:16:48Z</time>
      </trkpt>
      <trkpt lat="48.82868" lon="1.44799">
        <ele>146</ele>
        <time>2023-08-17T16:16:51Z</time>
      </trkpt>
      <trkpt lat="48.82868" lon="1.44799">
        <ele>146</ele>
        <time>2023-08-17T16:16:53Z</time>
      </trkpt>
      <trkpt lat="48.82866" lon="1.448">
        <ele>146</ele>
        <time>2023-08-17T16:16:57Z</time>
      </trkpt>
      <trkpt lat="48.82866" lon="1.448">
        <ele>146</ele>
        <time>2023-08-17T16:17:12Z</time>
      </trkpt>
      <trkpt lat="48.82866" lon="1.448">
        <ele>146.4</ele>
        <time>2023-08-17T16:17:21Z</time>
      </trkpt>
      <trkpt lat="48.82866" lon="1.448">
        <ele>146.6</ele>
        <time>2023-08-17T16:17:28Z</time>
      </trkpt>
      <trkpt lat="48.82863" lon="1.44806">
        <ele>146</ele>
        <time>2023-08-17T16:17:50Z</time>
      </trkpt>
      <trkpt lat="48.82864" lon="1.44807">
        <ele>146</ele>
        <time>2023-08-17T16:17:51Z</time>
      </trkpt>
      <trkpt lat="48.82864" lon="1.44808">
        <ele>146</ele>
        <time>2023-08-17T16:17:52Z</time>
      </trkpt>
      <trkpt lat="48.82865" lon="1.44809">
        <ele>146</ele>
        <time>2023-08-17T16:17:53Z</time>
      </trkpt>
      <trkpt lat="48.82866" lon="1.44811">
        <ele>146</ele>
        <time>2023-08-17T16:17:54Z</time>
      </trkpt>
      <trkpt lat="48.82867" lon="1.4481">
        <ele>146</ele>
        <time>2023-08-17T16:17:55Z</time>
      </trkpt>
      <trkpt lat="48.82868" lon="1.4481">
        <ele>146.2</ele>
        <time>2023-08-17T16:17:56Z</time>
      </trkpt>
      <trkpt lat="48.82869" lon="1.4481">
        <ele>146.2</ele>
        <time>2023-08-17T16:17:57Z</time>
      </trkpt>
      <trkpt lat="48.82869" lon="1.4481">
        <ele>146.2</ele>
        <time>2023-08-17T16:17:58Z</time>
      </trkpt>
      <trkpt lat="48.82869" lon="1.4481">
        <ele>146.4</ele>
        <time>2023-08-17T16:17:59Z</time>
      </trkpt>
      <trkpt lat="48.82869" lon="1.44811">
        <ele>146.4</ele>
        <time>2023-08-17T16:18:00Z</time>
      </trkpt>
      <trkpt lat="48.82869" lon="1.44814">
        <ele>146.4</ele>
        <time>2023-08-17T16:18:05Z</time>
      </trkpt>
      <trkpt lat="48.82868" lon="1.44818">
        <ele>146.4</ele>
        <time>2023-08-17T16:18:07Z</time>
      </trkpt>
      <trkpt lat="48.82868" lon="1.44818">
        <ele>146.6</ele>
        <time>2023-08-17T16:18:12Z</time>
      </trkpt>
      <trkpt lat="48.82868" lon="1.44819">
        <ele>146.6</ele>
        <time>2023-08-17T16:18:14Z</time>
      </trkpt>
      <trkpt lat="48.82868" lon="1.44821">
        <ele>146.4</ele>
        <time>2023-08-17T16:18:15Z</time>
      </trkpt>
      <trkpt lat="48.82866" lon="1.44827">
        <ele>146.4</ele>
        <time>2023-08-17T16:18:17Z</time>
      </trkpt>
      <trkpt lat="48.82865" lon="1.44829">
        <ele>146.4</ele>
        <time>2023-08-17T16:18:18Z</time>
      </trkpt>
      <trkpt lat="48.82864" lon="1.44832">
        <ele>146.6</ele>
        <time>2023-08-17T16:18:19Z</time>
      </trkpt>
      <trkpt lat="48.82864" lon="1.44835">
        <ele>146.6</ele>
        <time>2023-08-17T16:18:20Z</time>
      </trkpt>
      <trkpt lat="48.82864" lon="1.44838">
        <ele>146.6</ele>
        <time>2023-08-17T16:18:21Z</time>
      </trkpt>
      <trkpt lat="48.82864" lon="1.44841">
        <ele>146.6</ele>
        <time>2023-08-17T16:18:22Z</time>
      </trkpt>
      <trkpt lat="48.82864" lon="1.44844">
        <ele>146.6</ele>
        <time>2023-08-17T16:18:23Z</time>
      </trkpt>
      <trkpt lat="48.82858" lon="1.4487">
        <ele>146.8</ele>
        <time>2023-08-17T16:18:32Z</time>
      </trkpt>
      <trkpt lat="48.82852" lon="1.44884">
        <ele>146.8</ele>
        <time>2023-08-17T16:18:37Z</time>
      </trkpt>
      <trkpt lat="48.82852" lon="1.44886">
        <ele>146.8</ele>
        <time>2023-08-17T16:18:38Z</time>
      </trkpt>
      <trkpt lat="48.82851" lon="1.44887">
        <ele>146.8</ele>
        <time>2023-08-17T16:18:39Z</time>
      </trkpt>
      <trkpt lat="48.82851" lon="1.4489">
        <ele>146.8</ele>
        <time>2023-08-17T16:18:40Z</time>
      </trkpt>
      <trkpt lat="48.82852" lon="1.44893">
        <ele>146.8</ele>
        <time>2023-08-17T16:18:41Z</time>
      </trkpt>
      <trkpt lat="48.82852" lon="1.44906">
        <ele>146.8</ele>
        <time>2023-08-17T16:18:44Z</time>
      </trkpt>
      <trkpt lat="48.8285" lon="1.44909">
        <ele>146.8</ele>
        <time>2023-08-17T16:18:45Z</time>
      </trkpt>
      <trkpt lat="48.82849" lon="1.44912">
        <ele>146.8</ele>
        <time>2023-08-17T16:18:46Z</time>
      </trkpt>
      <trkpt lat="48.82848" lon="1.44914">
        <ele>146.8</ele>
        <time>2023-08-17T16:18:47Z</time>
      </trkpt>
      <trkpt lat="48.8284" lon="1.4493">
        <ele>146.8</ele>
        <time>2023-08-17T16:18:53Z</time>
      </trkpt>
      <trkpt lat="48.82839" lon="1.44931">
        <ele>146.8</ele>
        <time>2023-08-17T16:18:54Z</time>
      </trkpt>
      <trkpt lat="48.82839" lon="1.44943">
        <ele>146.8</ele>
        <time>2023-08-17T16:18:58Z</time>
      </trkpt>
      <trkpt lat="48.82838" lon="1.44948">
        <ele>146.8</ele>
        <time>2023-08-17T16:19:00Z</time>
      </trkpt>
      <trkpt lat="48.82837" lon="1.44951">
        <ele>146.8</ele>
        <time>2023-08-17T16:19:01Z</time>
      </trkpt>
      <trkpt lat="48.82837" lon="1.44954">
        <ele>146.8</ele>
        <time>2023-08-17T16:19:02Z</time>
      </trkpt>
      <trkpt lat="48.82836" lon="1.44962">
        <ele>147</ele>
        <time>2023-08-17T16:19:05Z</time>
      </trkpt>
      <trkpt lat="48.82835" lon="1.44964">
        <ele>147</ele>
        <time>2023-08-17T16:19:06Z</time>
      </trkpt>
      <trkpt lat="48.82833" lon="1.44975">
        <ele>147</ele>
        <time>2023-08-17T16:19:10Z</time>
      </trkpt>
      <trkpt lat="48.82831" lon="1.4498">
        <ele>147.2</ele>
        <time>2023-08-17T16:19:12Z</time>
      </trkpt>
      <trkpt lat="48.82831" lon="1.44982">
        <ele>147.2</ele>
        <time>2023-08-17T16:19:13Z</time>
      </trkpt>
      <trkpt lat="48.82831" lon="1.44985">
        <ele>147.2</ele>
        <time>2023-08-17T16:19:14Z</time>
      </trkpt>
      <trkpt lat="48.8283" lon="1.44988">
        <ele>147.2</ele>
        <time>2023-08-17T16:19:15Z</time>
      </trkpt>
      <trkpt lat="48.82827" lon="1.44992">
        <ele>147.4</ele>
        <time>2023-08-17T16:19:17Z</time>
      </trkpt>
      <trkpt lat="48.82826" lon="1.44994">
        <ele>147.4</ele>
        <time>2023-08-17T16:19:18Z</time>
      </trkpt>
      <trkpt lat="48.82823" lon="1.44995">
        <ele>147.4</ele>
        <time>2023-08-17T16:19:19Z</time>
      </trkpt>
      <trkpt lat="48.82822" lon="1.44996">
        <ele>147.6</ele>
        <time>2023-08-17T16:19:20Z</time>
      </trkpt>
      <trkpt lat="48.82805" lon="1.45006">
        <ele>147.8</ele>
        <time>2023-08-17T16:19:28Z</time>
      </trkpt>
      <trkpt lat="48.82786" lon="1.4501">
        <ele>148.2</ele>
        <time>2023-08-17T16:19:35Z</time>
      </trkpt>
      <trkpt lat="48.8278" lon="1.45012">
        <ele>148.4</ele>
        <time>2023-08-17T16:19:38Z</time>
      </trkpt>
      <trkpt lat="48.82773" lon="1.45015">
        <ele>148.8</ele>
        <time>2023-08-17T16:19:41Z</time>
      </trkpt>
      <trkpt lat="48.82769" lon="1.45016">
        <ele>148.8</ele>
        <time>2023-08-17T16:19:42Z</time>
      </trkpt>
      <trkpt lat="48.82751" lon="1.45024">
        <ele>149.4</ele>
        <time>2023-08-17T16:19:49Z</time>
      </trkpt>
      <trkpt lat="48.82742" lon="1.45028">
        <ele>149.4</ele>
        <time>2023-08-17T16:19:52Z</time>
      </trkpt>
      <trkpt lat="48.82725" lon="1.45037">
        <ele>149.6</ele>
        <time>2023-08-17T16:19:58Z</time>
      </trkpt>
      <trkpt lat="48.8271" lon="1.45051">
        <ele>149.8</ele>
        <time>2023-08-17T16:20:04Z</time>
      </trkpt>
      <trkpt lat="48.82687" lon="1.45069">
        <ele>150</ele>
        <time>2023-08-17T16:20:13Z</time>
      </trkpt>
      <trkpt lat="48.8267" lon="1.4508">
        <ele>150</ele>
        <time>2023-08-17T16:20:19Z</time>
      </trkpt>
      <trkpt lat="48.82664" lon="1.45084">
        <ele>150</ele>
        <time>2023-08-17T16:20:21Z</time>
      </trkpt>
      <trkpt lat="48.82661" lon="1.45087">
        <ele>150</ele>
        <time>2023-08-17T16:20:22Z</time>
      </trkpt>
      <trkpt lat="48.82656" lon="1.45093">
        <ele>150</ele>
        <time>2023-08-17T16:20:24Z</time>
      </trkpt>
      <trkpt lat="48.82651" lon="1.45099">
        <ele>150</ele>
        <time>2023-08-17T16:20:26Z</time>
      </trkpt>
      <trkpt lat="48.82632" lon="1.45122">
        <ele>150</ele>
        <time>2023-08-17T16:20:33Z</time>
      </trkpt>
      <trkpt lat="48.82609" lon="1.45154">
        <ele>150</ele>
        <time>2023-08-17T16:20:41Z</time>
      </trkpt>
      <trkpt lat="48.82606" lon="1.45158">
        <ele>150</ele>
        <time>2023-08-17T16:20:42Z</time>
      </trkpt>
      <trkpt lat="48.82591" lon="1.45189">
        <ele>150</ele>
        <time>2023-08-17T16:20:48Z</time>
      </trkpt>
      <trkpt lat="48.82583" lon="1.4521">
        <ele>150</ele>
        <time>2023-08-17T16:20:52Z</time>
      </trkpt>
      <trkpt lat="48.8258" lon="1.45214">
        <ele>150</ele>
        <time>2023-08-17T16:20:53Z</time>
      </trkpt>
      <trkpt lat="48.82576" lon="1.45217">
        <ele>150</ele>
        <time>2023-08-17T16:20:54Z</time>
      </trkpt>
      <trkpt lat="48.82574" lon="1.4522">
        <ele>150</ele>
        <time>2023-08-17T16:20:55Z</time>
      </trkpt>
      <trkpt lat="48.82572" lon="1.45226">
        <ele>150</ele>
        <time>2023-08-17T16:20:56Z</time>
      </trkpt>
      <trkpt lat="48.82569" lon="1.45232">
        <ele>150</ele>
        <time>2023-08-17T16:20:57Z</time>
      </trkpt>
      <trkpt lat="48.82568" lon="1.45236">
        <ele>150</ele>
        <time>2023-08-17T16:20:58Z</time>
      </trkpt>
      <trkpt lat="48.82565" lon="1.45242">
        <ele>150</ele>
        <time>2023-08-17T16:20:59Z</time>
      </trkpt>
      <trkpt lat="48.82552" lon="1.45272">
        <ele>149.8</ele>
        <time>2023-08-17T16:21:05Z</time>
      </trkpt>
      <trkpt lat="48.82544" lon="1.4529">
        <ele>149.8</ele>
        <time>2023-08-17T16:21:09Z</time>
      </trkpt>
      <trkpt lat="48.82542" lon="1.45295">
        <ele>149.8</ele>
        <time>2023-08-17T16:21:10Z</time>
      </trkpt>
      <trkpt lat="48.82541" lon="1.45299">
        <ele>149.8</ele>
        <time>2023-08-17T16:21:11Z</time>
      </trkpt>
      <trkpt lat="48.82534" lon="1.45312">
        <ele>149.8</ele>
        <time>2023-08-17T16:21:14Z</time>
      </trkpt>
      <trkpt lat="48.82532" lon="1.45316">
        <ele>149.8</ele>
        <time>2023-08-17T16:21:15Z</time>
      </trkpt>
      <trkpt lat="48.82529" lon="1.4532">
        <ele>149.8</ele>
        <time>2023-08-17T16:21:16Z</time>
      </trkpt>
      <trkpt lat="48.82526" lon="1.45322">
        <ele>149.6</ele>
        <time>2023-08-17T16:21:17Z</time>
      </trkpt>
      <trkpt lat="48.82523" lon="1.45325">
        <ele>149.6</ele>
        <time>2023-08-17T16:21:18Z</time>
      </trkpt>
      <trkpt lat="48.82516" lon="1.45329">
        <ele>149.6</ele>
        <time>2023-08-17T16:21:20Z</time>
      </trkpt>
      <trkpt lat="48.82513" lon="1.45331">
        <ele>149.8</ele>
        <time>2023-08-17T16:21:21Z</time>
      </trkpt>
      <trkpt lat="48.8251" lon="1.45333">
        <ele>149.8</ele>
        <time>2023-08-17T16:21:22Z</time>
      </trkpt>
      <trkpt lat="48.82507" lon="1.45336">
        <ele>149.8</ele>
        <time>2023-08-17T16:21:23Z</time>
      </trkpt>
      <trkpt lat="48.82502" lon="1.45341">
        <ele>149.8</ele>
        <time>2023-08-17T16:21:25Z</time>
      </trkpt>
      <trkpt lat="48.82482" lon="1.45354">
        <ele>149.8</ele>
        <time>2023-08-17T16:21:31Z</time>
      </trkpt>
      <trkpt lat="48.82461" lon="1.45368">
        <ele>150</ele>
        <time>2023-08-17T16:21:37Z</time>
      </trkpt>
      <trkpt lat="48.82455" lon="1.45375">
        <ele>150</ele>
        <time>2023-08-17T16:21:39Z</time>
      </trkpt>
      <trkpt lat="48.82452" lon="1.45379">
        <ele>150</ele>
        <time>2023-08-17T16:21:40Z</time>
      </trkpt>
      <trkpt lat="48.82447" lon="1.45387">
        <ele>150</ele>
        <time>2023-08-17T16:21:42Z</time>
      </trkpt>
      <trkpt lat="48.8244" lon="1.45397">
        <ele>150</ele>
        <time>2023-08-17T16:21:45Z</time>
      </trkpt>
      <trkpt lat="48.82438" lon="1.45401">
        <ele>150.2</ele>
        <time>2023-08-17T16:21:46Z</time>
      </trkpt>
      <trkpt lat="48.82433" lon="1.45408">
        <ele>150.2</ele>
        <time>2023-08-17T16:21:48Z</time>
      </trkpt>
      <trkpt lat="48.82428" lon="1.45414">
        <ele>150.2</ele>
        <time>2023-08-17T16:21:50Z</time>
      </trkpt>
      <trkpt lat="48.82419" lon="1.4543">
        <ele>150.2</ele>
        <time>2023-08-17T16:21:54Z</time>
      </trkpt>
      <trkpt lat="48.82404" lon="1.45463">
        <ele>150.2</ele>
        <time>2023-08-17T16:22:01Z</time>
      </trkpt>
      <trkpt lat="48.824" lon="1.45472">
        <ele>150.4</ele>
        <time>2023-08-17T16:22:03Z</time>
      </trkpt>
      <trkpt lat="48.82399" lon="1.45476">
        <ele>150.4</ele>
        <time>2023-08-17T16:22:04Z</time>
      </trkpt>
      <trkpt lat="48.82398" lon="1.45479">
        <ele>150.4</ele>
        <time>2023-08-17T16:22:05Z</time>
      </trkpt>
      <trkpt lat="48.82396" lon="1.45483">
        <ele>150.4</ele>
        <time>2023-08-17T16:22:06Z</time>
      </trkpt>
      <trkpt lat="48.82394" lon="1.45488">
        <ele>150.4</ele>
        <time>2023-08-17T16:22:07Z</time>
      </trkpt>
      <trkpt lat="48.82392" lon="1.45492">
        <ele>150.4</ele>
        <time>2023-08-17T16:22:08Z</time>
      </trkpt>
      <trkpt lat="48.8239" lon="1.45497">
        <ele>150.4</ele>
        <time>2023-08-17T16:22:09Z</time>
      </trkpt>
      <trkpt lat="48.82387" lon="1.45501">
        <ele>150.4</ele>
        <time>2023-08-17T16:22:10Z</time>
      </trkpt>
      <trkpt lat="48.82377" lon="1.45517">
        <ele>150.4</ele>
        <time>2023-08-17T16:22:14Z</time>
      </trkpt>
      <trkpt lat="48.82363" lon="1.4554">
        <ele>150.4</ele>
        <time>2023-08-17T16:22:20Z</time>
      </trkpt>
      <trkpt lat="48.82351" lon="1.45562">
        <ele>150.4</ele>
        <time>2023-08-17T16:22:25Z</time>
      </trkpt>
      <trkpt lat="48.82349" lon="1.45567">
        <ele>150.4</ele>
        <time>2023-08-17T16:22:26Z</time>
      </trkpt>
      <trkpt lat="48.82348" lon="1.45571">
        <ele>150.4</ele>
        <time>2023-08-17T16:22:27Z</time>
      </trkpt>
      <trkpt lat="48.82346" lon="1.45576">
        <ele>150.2</ele>
        <time>2023-08-17T16:22:28Z</time>
      </trkpt>
      <trkpt lat="48.82341" lon="1.45586">
        <ele>150.2</ele>
        <time>2023-08-17T16:22:30Z</time>
      </trkpt>
      <trkpt lat="48.82331" lon="1.45617">
        <ele>150.2</ele>
        <time>2023-08-17T16:22:36Z</time>
      </trkpt>
      <trkpt lat="48.82325" lon="1.45631">
        <ele>150.2</ele>
        <time>2023-08-17T16:22:39Z</time>
      </trkpt>
      <trkpt lat="48.82324" lon="1.45634">
        <ele>150.2</ele>
        <time>2023-08-17T16:22:40Z</time>
      </trkpt>
      <trkpt lat="48.82321" lon="1.45632">
        <ele>150.2</ele>
        <time>2023-08-17T16:22:41Z</time>
      </trkpt>
      <trkpt lat="48.82319" lon="1.4563">
        <ele>150.2</ele>
        <time>2023-08-17T16:22:42Z</time>
      </trkpt>
      <trkpt lat="48.82317" lon="1.45629">
        <ele>150.2</ele>
        <time>2023-08-17T16:22:43Z</time>
      </trkpt>
      <trkpt lat="48.82315" lon="1.45627">
        <ele>150.4</ele>
        <time>2023-08-17T16:22:44Z</time>
      </trkpt>
      <trkpt lat="48.82306" lon="1.45609">
        <ele>150.6</ele>
        <time>2023-08-17T16:22:50Z</time>
      </trkpt>
      <trkpt lat="48.82294" lon="1.45578">
        <ele>150.4</ele>
        <time>2023-08-17T16:22:58Z</time>
      </trkpt>
      <trkpt lat="48.82285" lon="1.45554">
        <ele>150.2</ele>
        <time>2023-08-17T16:23:03Z</time>
      </trkpt>
      <trkpt lat="48.82276" lon="1.45532">
        <ele>150.2</ele>
        <time>2023-08-17T16:23:07Z</time>
      </trkpt>
      <trkpt lat="48.82272" lon="1.45522">
        <ele>150.2</ele>
        <time>2023-08-17T16:23:09Z</time>
      </trkpt>
      <trkpt lat="48.82261" lon="1.45497">
        <ele>150</ele>
        <time>2023-08-17T16:23:14Z</time>
      </trkpt>
      <trkpt lat="48.82258" lon="1.45486">
        <ele>150</ele>
        <time>2023-08-17T16:23:16Z</time>
      </trkpt>
      <trkpt lat="48.8225" lon="1.45461">
        <ele>150</ele>
        <time>2023-08-17T16:23:20Z</time>
      </trkpt>
      <trkpt lat="48.82231" lon="1.45412">
        <ele>149.8</ele>
        <time>2023-08-17T16:23:28Z</time>
      </trkpt>
      <trkpt lat="48.82224" lon="1.45388">
        <ele>149.6</ele>
        <time>2023-08-17T16:23:32Z</time>
      </trkpt>
      <trkpt lat="48.82222" lon="1.4538">
        <ele>149.6</ele>
        <time>2023-08-17T16:23:33Z</time>
      </trkpt>
      <trkpt lat="48.82219" lon="1.45372">
        <ele>149.4</ele>
        <time>2023-08-17T16:23:34Z</time>
      </trkpt>
      <trkpt lat="48.82216" lon="1.45359">
        <ele>149.4</ele>
        <time>2023-08-17T16:23:36Z</time>
      </trkpt>
      <trkpt lat="48.82212" lon="1.45347">
        <ele>149.2</ele>
        <time>2023-08-17T16:23:38Z</time>
      </trkpt>
      <trkpt lat="48.82211" lon="1.45343">
        <ele>149.2</ele>
        <time>2023-08-17T16:23:39Z</time>
      </trkpt>
      <trkpt lat="48.8221" lon="1.45339">
        <ele>149.2</ele>
        <time>2023-08-17T16:23:40Z</time>
      </trkpt>
      <trkpt lat="48.82209" lon="1.45336">
        <ele>149.2</ele>
        <time>2023-08-17T16:23:41Z</time>
      </trkpt>
      <trkpt lat="48.82206" lon="1.45331">
        <ele>149.2</ele>
        <time>2023-08-17T16:23:42Z</time>
      </trkpt>
      <trkpt lat="48.82197" lon="1.45304">
        <ele>148.8</ele>
        <time>2023-08-17T16:23:47Z</time>
      </trkpt>
      <trkpt lat="48.82195" lon="1.45298">
        <ele>148.8</ele>
        <time>2023-08-17T16:23:48Z</time>
      </trkpt>
      <trkpt lat="48.82193" lon="1.45294">
        <ele>148.8</ele>
        <time>2023-08-17T16:23:49Z</time>
      </trkpt>
      <trkpt lat="48.82183" lon="1.45276">
        <ele>148.8</ele>
        <time>2023-08-17T16:23:53Z</time>
      </trkpt>
      <trkpt lat="48.82182" lon="1.45272">
        <ele>148.8</ele>
        <time>2023-08-17T16:23:54Z</time>
      </trkpt>
      <trkpt lat="48.82181" lon="1.45267">
        <ele>148.8</ele>
        <time>2023-08-17T16:23:55Z</time>
      </trkpt>
      <trkpt lat="48.8218" lon="1.45263">
        <ele>148.8</ele>
        <time>2023-08-17T16:23:56Z</time>
      </trkpt>
      <trkpt lat="48.82179" lon="1.45259">
        <ele>148.8</ele>
        <time>2023-08-17T16:23:57Z</time>
      </trkpt>
      <trkpt lat="48.82175" lon="1.45243">
        <ele>148.8</ele>
        <time>2023-08-17T16:24:00Z</time>
      </trkpt>
      <trkpt lat="48.82176" lon="1.45239">
        <ele>148.8</ele>
        <time>2023-08-17T16:24:01Z</time>
      </trkpt>
      <trkpt lat="48.82177" lon="1.45235">
        <ele>148.8</ele>
        <time>2023-08-17T16:24:02Z</time>
      </trkpt>
      <trkpt lat="48.82174" lon="1.4523">
        <ele>148.8</ele>
        <time>2023-08-17T16:24:03Z</time>
      </trkpt>
      <trkpt lat="48.82172" lon="1.45226">
        <ele>148.8</ele>
        <time>2023-08-17T16:24:04Z</time>
      </trkpt>
      <trkpt lat="48.82171" lon="1.45224">
        <ele>148.6</ele>
        <time>2023-08-17T16:24:05Z</time>
      </trkpt>
      <trkpt lat="48.82164" lon="1.45224">
        <ele>148.6</ele>
        <time>2023-08-17T16:24:09Z</time>
      </trkpt>
      <trkpt lat="48.82163" lon="1.45226">
        <ele>148.6</ele>
        <time>2023-08-17T16:24:10Z</time>
      </trkpt>
      <trkpt lat="48.82162" lon="1.45228">
        <ele>148.6</ele>
        <time>2023-08-17T16:24:11Z</time>
      </trkpt>
      <trkpt lat="48.82161" lon="1.45234">
        <ele>148.6</ele>
        <time>2023-08-17T16:24:13Z</time>
      </trkpt>
      <trkpt lat="48.8216" lon="1.45236">
        <ele>148.4</ele>
        <time>2023-08-17T16:24:14Z</time>
      </trkpt>
      <trkpt lat="48.82159" lon="1.45237">
        <ele>148.4</ele>
        <time>2023-08-17T16:24:15Z</time>
      </trkpt>
      <trkpt lat="48.82158" lon="1.45239">
        <ele>148.4</ele>
        <time>2023-08-17T16:24:16Z</time>
      </trkpt>
      <trkpt lat="48.82156" lon="1.4524">
        <ele>148.4</ele>
        <time>2023-08-17T16:24:17Z</time>
      </trkpt>
      <trkpt lat="48.82154" lon="1.45241">
        <ele>148.4</ele>
        <time>2023-08-17T16:24:18Z</time>
      </trkpt>
      <trkpt lat="48.82152" lon="1.45241">
        <ele>148.4</ele>
        <time>2023-08-17T16:24:19Z</time>
      </trkpt>
      <trkpt lat="48.82146" lon="1.45242">
        <ele>148.4</ele>
        <time>2023-08-17T16:24:21Z</time>
      </trkpt>
      <trkpt lat="48.82144" lon="1.45242">
        <ele>148.4</ele>
        <time>2023-08-17T16:24:22Z</time>
      </trkpt>
      <trkpt lat="48.82141" lon="1.45241">
        <ele>148.4</ele>
        <time>2023-08-17T16:24:23Z</time>
      </trkpt>
      <trkpt lat="48.82125" lon="1.45236">
        <ele>148.4</ele>
        <time>2023-08-17T16:24:28Z</time>
      </trkpt>
      <trkpt lat="48.82122" lon="1.45237">
        <ele>148.4</ele>
        <time>2023-08-17T16:24:29Z</time>
      </trkpt>
      <trkpt lat="48.8212" lon="1.45238">
        <ele>148.2</ele>
        <time>2023-08-17T16:24:30Z</time>
      </trkpt>
      <trkpt lat="48.82116" lon="1.4524">
        <ele>148.4</ele>
        <time>2023-08-17T16:24:31Z</time>
      </trkpt>
      <trkpt lat="48.82113" lon="1.45242">
        <ele>148.4</ele>
        <time>2023-08-17T16:24:32Z</time>
      </trkpt>
      <trkpt lat="48.8211" lon="1.45244">
        <ele>148.2</ele>
        <time>2023-08-17T16:24:33Z</time>
      </trkpt>
      <trkpt lat="48.82098" lon="1.4525">
        <ele>148</ele>
        <time>2023-08-17T16:24:37Z</time>
      </trkpt>
      <trkpt lat="48.82092" lon="1.45248">
        <ele>148</ele>
        <time>2023-08-17T16:24:38Z</time>
      </trkpt>
      <trkpt lat="48.82088" lon="1.45246">
        <ele>148</ele>
        <time>2023-08-17T16:24:39Z</time>
      </trkpt>
      <trkpt lat="48.82083" lon="1.45244">
        <ele>147.8</ele>
        <time>2023-08-17T16:24:40Z</time>
      </trkpt>
      <trkpt lat="48.82077" lon="1.45242">
        <ele>147.8</ele>
        <time>2023-08-17T16:24:42Z</time>
      </trkpt>
      <trkpt lat="48.82064" lon="1.45245">
        <ele>147.6</ele>
        <time>2023-08-17T16:24:45Z</time>
      </trkpt>
      <trkpt lat="48.82061" lon="1.45248">
        <ele>147.6</ele>
        <time>2023-08-17T16:24:46Z</time>
      </trkpt>
      <trkpt lat="48.82058" lon="1.4525">
        <ele>147.4</ele>
        <time>2023-08-17T16:24:47Z</time>
      </trkpt>
      <trkpt lat="48.82048" lon="1.4525">
        <ele>147.2</ele>
        <time>2023-08-17T16:24:49Z</time>
      </trkpt>
      <trkpt lat="48.82043" lon="1.45246">
        <ele>147.2</ele>
        <time>2023-08-17T16:24:50Z</time>
      </trkpt>
      <trkpt lat="48.82039" lon="1.45244">
        <ele>147.2</ele>
        <time>2023-08-17T16:24:51Z</time>
      </trkpt>
      <trkpt lat="48.82038" lon="1.45242">
        <ele>147</ele>
        <time>2023-08-17T16:24:52Z</time>
      </trkpt>
      <trkpt lat="48.82035" lon="1.45239">
        <ele>147</ele>
        <time>2023-08-17T16:24:53Z</time>
      </trkpt>
      <trkpt lat="48.82032" lon="1.45237">
        <ele>146.6</ele>
        <time>2023-08-17T16:24:54Z</time>
      </trkpt>
      <trkpt lat="48.82029" lon="1.45236">
        <ele>146.6</ele>
        <time>2023-08-17T16:24:55Z</time>
      </trkpt>
      <trkpt lat="48.82026" lon="1.45235">
        <ele>146.4</ele>
        <time>2023-08-17T16:24:56Z</time>
      </trkpt>
      <trkpt lat="48.82024" lon="1.45236">
        <ele>146.4</ele>
        <time>2023-08-17T16:24:57Z</time>
      </trkpt>
      <trkpt lat="48.8202" lon="1.45238">
        <ele>146.2</ele>
        <time>2023-08-17T16:24:58Z</time>
      </trkpt>
      <trkpt lat="48.82017" lon="1.45237">
        <ele>146.2</ele>
        <time>2023-08-17T16:24:59Z</time>
      </trkpt>
      <trkpt lat="48.8201" lon="1.45234">
        <ele>146.2</ele>
        <time>2023-08-17T16:25:01Z</time>
      </trkpt>
      <trkpt lat="48.82005" lon="1.45231">
        <ele>146</ele>
        <time>2023-08-17T16:25:02Z</time>
      </trkpt>
      <trkpt lat="48.81999" lon="1.45227">
        <ele>146</ele>
        <time>2023-08-17T16:25:03Z</time>
      </trkpt>
      <trkpt lat="48.8199" lon="1.45227">
        <ele>145.8</ele>
        <time>2023-08-17T16:25:05Z</time>
      </trkpt>
      <trkpt lat="48.81982" lon="1.45223">
        <ele>145.4</ele>
        <time>2023-08-17T16:25:07Z</time>
      </trkpt>
      <trkpt lat="48.81977" lon="1.45218">
        <ele>145.2</ele>
        <time>2023-08-17T16:25:08Z</time>
      </trkpt>
      <trkpt lat="48.81973" lon="1.45214">
        <ele>145</ele>
        <time>2023-08-17T16:25:09Z</time>
      </trkpt>
      <trkpt lat="48.81959" lon="1.45201">
        <ele>144.2</ele>
        <time>2023-08-17T16:25:12Z</time>
      </trkpt>
      <trkpt lat="48.81957" lon="1.45197">
        <ele>143.6</ele>
        <time>2023-08-17T16:25:13Z</time>
      </trkpt>
      <trkpt lat="48.81954" lon="1.45194">
        <ele>143.4</ele>
        <time>2023-08-17T16:25:14Z</time>
      </trkpt>
      <trkpt lat="48.81951" lon="1.45191">
        <ele>143.4</ele>
        <time>2023-08-17T16:25:15Z</time>
      </trkpt>
      <trkpt lat="48.81949" lon="1.45188">
        <ele>143.2</ele>
        <time>2023-08-17T16:25:16Z</time>
      </trkpt>
      <trkpt lat="48.81945" lon="1.45183">
        <ele>143.2</ele>
        <time>2023-08-17T16:25:17Z</time>
      </trkpt>
      <trkpt lat="48.81943" lon="1.45182">
        <ele>143.2</ele>
        <time>2023-08-17T16:25:18Z</time>
      </trkpt>
      <trkpt lat="48.81932" lon="1.45177">
        <ele>143.2</ele>
        <time>2023-08-17T16:25:22Z</time>
      </trkpt>
      <trkpt lat="48.81929" lon="1.45176">
        <ele>143.2</ele>
        <time>2023-08-17T16:25:23Z</time>
      </trkpt>
      <trkpt lat="48.81926" lon="1.45173">
        <ele>143.2</ele>
        <time>2023-08-17T16:25:24Z</time>
      </trkpt>
      <trkpt lat="48.81921" lon="1.45169">
        <ele>143.2</ele>
        <time>2023-08-17T16:25:25Z</time>
      </trkpt>
      <trkpt lat="48.81919" lon="1.4517">
        <ele>143.4</ele>
        <time>2023-08-17T16:25:26Z</time>
      </trkpt>
      <trkpt lat="48.81917" lon="1.45169">
        <ele>143.4</ele>
        <time>2023-08-17T16:25:27Z</time>
      </trkpt>
      <trkpt lat="48.81912" lon="1.45166">
        <ele>143.6</ele>
        <time>2023-08-17T16:25:29Z</time>
      </trkpt>
      <trkpt lat="48.81909" lon="1.45162">
        <ele>143.8</ele>
        <time>2023-08-17T16:25:30Z</time>
      </trkpt>
      <trkpt lat="48.81903" lon="1.45157">
        <ele>143.8</ele>
        <time>2023-08-17T16:25:32Z</time>
      </trkpt>
      <trkpt lat="48.819" lon="1.45155">
        <ele>144</ele>
        <time>2023-08-17T16:25:33Z</time>
      </trkpt>
      <trkpt lat="48.81889" lon="1.45145">
        <ele>144.2</ele>
        <time>2023-08-17T16:25:37Z</time>
      </trkpt>
      <trkpt lat="48.81886" lon="1.45143">
        <ele>144.2</ele>
        <time>2023-08-17T16:25:38Z</time>
      </trkpt>
      <trkpt lat="48.81883" lon="1.4514">
        <ele>144.2</ele>
        <time>2023-08-17T16:25:39Z</time>
      </trkpt>
      <trkpt lat="48.81877" lon="1.45135">
        <ele>144.2</ele>
        <time>2023-08-17T16:25:41Z</time>
      </trkpt>
      <trkpt lat="48.81871" lon="1.45129">
        <ele>144.4</ele>
        <time>2023-08-17T16:25:43Z</time>
      </trkpt>
      <trkpt lat="48.81865" lon="1.45126">
        <ele>144.4</ele>
        <time>2023-08-17T16:25:45Z</time>
      </trkpt>
      <trkpt lat="48.81863" lon="1.45125">
        <ele>144.6</ele>
        <time>2023-08-17T16:25:46Z</time>
      </trkpt>
      <trkpt lat="48.81861" lon="1.45122">
        <ele>144.6</ele>
        <time>2023-08-17T16:25:47Z</time>
      </trkpt>
      <trkpt lat="48.81859" lon="1.4512">
        <ele>144.6</ele>
        <time>2023-08-17T16:25:48Z</time>
      </trkpt>
      <trkpt lat="48.81858" lon="1.45119">
        <ele>144.6</ele>
        <time>2023-08-17T16:25:49Z</time>
      </trkpt>
      <trkpt lat="48.81856" lon="1.45116">
        <ele>144.6</ele>
        <time>2023-08-17T16:25:50Z</time>
      </trkpt>
      <trkpt lat="48.81854" lon="1.45114">
        <ele>144.8</ele>
        <time>2023-08-17T16:25:51Z</time>
      </trkpt>
      <trkpt lat="48.81852" lon="1.45113">
        <ele>144.8</ele>
        <time>2023-08-17T16:25:52Z</time>
      </trkpt>
      <trkpt lat="48.81846" lon="1.45115">
        <ele>144.8</ele>
        <time>2023-08-17T16:25:54Z</time>
      </trkpt>
      <trkpt lat="48.81843" lon="1.45116">
        <ele>144.8</ele>
        <time>2023-08-17T16:25:55Z</time>
      </trkpt>
      <trkpt lat="48.81841" lon="1.45118">
        <ele>144.8</ele>
        <time>2023-08-17T16:25:56Z</time>
      </trkpt>
      <trkpt lat="48.81839" lon="1.45119">
        <ele>144.8</ele>
        <time>2023-08-17T16:25:57Z</time>
      </trkpt>
      <trkpt lat="48.81833" lon="1.45121">
        <ele>145</ele>
        <time>2023-08-17T16:26:00Z</time>
      </trkpt>
      <trkpt lat="48.81826" lon="1.45123">
        <ele>145.2</ele>
        <time>2023-08-17T16:26:03Z</time>
      </trkpt>
      <trkpt lat="48.81823" lon="1.45125">
        <ele>145.2</ele>
        <time>2023-08-17T16:26:04Z</time>
      </trkpt>
      <trkpt lat="48.81822" lon="1.45128">
        <ele>145.4</ele>
        <time>2023-08-17T16:26:05Z</time>
      </trkpt>
      <trkpt lat="48.81821" lon="1.45131">
        <ele>145.4</ele>
        <time>2023-08-17T16:26:06Z</time>
      </trkpt>
      <trkpt lat="48.81819" lon="1.45133">
        <ele>145.4</ele>
        <time>2023-08-17T16:26:07Z</time>
      </trkpt>
      <trkpt lat="48.81817" lon="1.45135">
        <ele>145.6</ele>
        <time>2023-08-17T16:26:08Z</time>
      </trkpt>
      <trkpt lat="48.81816" lon="1.45137">
        <ele>145.6</ele>
        <time>2023-08-17T16:26:09Z</time>
      </trkpt>
      <trkpt lat="48.81815" lon="1.45139">
        <ele>145.8</ele>
        <time>2023-08-17T16:26:10Z</time>
      </trkpt>
      <trkpt lat="48.81814" lon="1.45141">
        <ele>145.8</ele>
        <time>2023-08-17T16:26:11Z</time>
      </trkpt>
      <trkpt lat="48.81812" lon="1.45143">
        <ele>146</ele>
        <time>2023-08-17T16:26:12Z</time>
      </trkpt>
      <trkpt lat="48.81811" lon="1.45145">
        <ele>146</ele>
        <time>2023-08-17T16:26:13Z</time>
      </trkpt>
      <trkpt lat="48.8181" lon="1.45149">
        <ele>146</ele>
        <time>2023-08-17T16:26:14Z</time>
      </trkpt>
      <trkpt lat="48.81808" lon="1.45153">
        <ele>146</ele>
        <time>2023-08-17T16:26:15Z</time>
      </trkpt>
      <trkpt lat="48.81806" lon="1.45156">
        <ele>146.2</ele>
        <time>2023-08-17T16:26:16Z</time>
      </trkpt>
      <trkpt lat="48.818" lon="1.45167">
        <ele>146.4</ele>
        <time>2023-08-17T16:26:19Z</time>
      </trkpt>
      <trkpt lat="48.81798" lon="1.45169">
        <ele>146.4</ele>
        <time>2023-08-17T16:26:20Z</time>
      </trkpt>
      <trkpt lat="48.81781" lon="1.45187">
        <ele>147.2</ele>
        <time>2023-08-17T16:26:27Z</time>
      </trkpt>
      <trkpt lat="48.81778" lon="1.4519">
        <ele>147.2</ele>
        <time>2023-08-17T16:26:28Z</time>
      </trkpt>
      <trkpt lat="48.81776" lon="1.45194">
        <ele>147.4</ele>
        <time>2023-08-17T16:26:29Z</time>
      </trkpt>
      <trkpt lat="48.81772" lon="1.45208">
        <ele>147.6</ele>
        <time>2023-08-17T16:26:32Z</time>
      </trkpt>
      <trkpt lat="48.81768" lon="1.45216">
        <ele>147.6</ele>
        <time>2023-08-17T16:26:34Z</time>
      </trkpt>
      <trkpt lat="48.81767" lon="1.4522">
        <ele>147.6</ele>
        <time>2023-08-17T16:26:35Z</time>
      </trkpt>
      <trkpt lat="48.81765" lon="1.45222">
        <ele>147.8</ele>
        <time>2023-08-17T16:26:36Z</time>
      </trkpt>
      <trkpt lat="48.81762" lon="1.45225">
        <ele>147.8</ele>
        <time>2023-08-17T16:26:37Z</time>
      </trkpt>
      <trkpt lat="48.8176" lon="1.45228">
        <ele>147.8</ele>
        <time>2023-08-17T16:26:38Z</time>
      </trkpt>
      <trkpt lat="48.81758" lon="1.45231">
        <ele>147.8</ele>
        <time>2023-08-17T16:26:39Z</time>
      </trkpt>
      <trkpt lat="48.81755" lon="1.4524">
        <ele>148</ele>
        <time>2023-08-17T16:26:41Z</time>
      </trkpt>
      <trkpt lat="48.81753" lon="1.45245">
        <ele>148</ele>
        <time>2023-08-17T16:26:42Z</time>
      </trkpt>
      <trkpt lat="48.81753" lon="1.45249">
        <ele>148</ele>
        <time>2023-08-17T16:26:43Z</time>
      </trkpt>
      <trkpt lat="48.81752" lon="1.45253">
        <ele>148</ele>
        <time>2023-08-17T16:26:44Z</time>
      </trkpt>
      <trkpt lat="48.81745" lon="1.45267">
        <ele>148.2</ele>
        <time>2023-08-17T16:26:48Z</time>
      </trkpt>
      <trkpt lat="48.81744" lon="1.45272">
        <ele>148.4</ele>
        <time>2023-08-17T16:26:49Z</time>
      </trkpt>
      <trkpt lat="48.8174" lon="1.4528">
        <ele>148.4</ele>
        <time>2023-08-17T16:26:51Z</time>
      </trkpt>
      <trkpt lat="48.81739" lon="1.45283">
        <ele>148.4</ele>
        <time>2023-08-17T16:26:52Z</time>
      </trkpt>
      <trkpt lat="48.81738" lon="1.45287">
        <ele>148.4</ele>
        <time>2023-08-17T16:26:53Z</time>
      </trkpt>
      <trkpt lat="48.81738" lon="1.45291">
        <ele>148.4</ele>
        <time>2023-08-17T16:26:54Z</time>
      </trkpt>
      <trkpt lat="48.81737" lon="1.45295">
        <ele>148.6</ele>
        <time>2023-08-17T16:26:55Z</time>
      </trkpt>
      <trkpt lat="48.81733" lon="1.45308">
        <ele>148.6</ele>
        <time>2023-08-17T16:26:58Z</time>
      </trkpt>
      <trkpt lat="48.8173" lon="1.45314">
        <ele>148.6</ele>
        <time>2023-08-17T16:27:00Z</time>
      </trkpt>
      <trkpt lat="48.81728" lon="1.45317">
        <ele>148.6</ele>
        <time>2023-08-17T16:27:01Z</time>
      </trkpt>
      <trkpt lat="48.81727" lon="1.45321">
        <ele>148.6</ele>
        <time>2023-08-17T16:27:02Z</time>
      </trkpt>
      <trkpt lat="48.81725" lon="1.4533">
        <ele>148.6</ele>
        <time>2023-08-17T16:27:04Z</time>
      </trkpt>
      <trkpt lat="48.81722" lon="1.45337">
        <ele>148.6</ele>
        <time>2023-08-17T16:27:06Z</time>
      </trkpt>
      <trkpt lat="48.81719" lon="1.45341">
        <ele>148.4</ele>
        <time>2023-08-17T16:27:07Z</time>
      </trkpt>
      <trkpt lat="48.81717" lon="1.45345">
        <ele>148.4</ele>
        <time>2023-08-17T16:27:08Z</time>
      </trkpt>
      <trkpt lat="48.81717" lon="1.45348">
        <ele>148.6</ele>
        <time>2023-08-17T16:27:09Z</time>
      </trkpt>
      <trkpt lat="48.81715" lon="1.45353">
        <ele>148.4</ele>
        <time>2023-08-17T16:27:10Z</time>
      </trkpt>
      <trkpt lat="48.8171" lon="1.45359">
        <ele>148.6</ele>
        <time>2023-08-17T16:27:12Z</time>
      </trkpt>
      <trkpt lat="48.81707" lon="1.45361">
        <ele>148.6</ele>
        <time>2023-08-17T16:27:13Z</time>
      </trkpt>
      <trkpt lat="48.81704" lon="1.45363">
        <ele>148.6</ele>
        <time>2023-08-17T16:27:14Z</time>
      </trkpt>
      <trkpt lat="48.81701" lon="1.45365">
        <ele>148.6</ele>
        <time>2023-08-17T16:27:15Z</time>
      </trkpt>
      <trkpt lat="48.8169" lon="1.45372">
        <ele>148.6</ele>
        <time>2023-08-17T16:27:18Z</time>
      </trkpt>
      <trkpt lat="48.8167" lon="1.4538">
        <ele>148.6</ele>
        <time>2023-08-17T16:27:23Z</time>
      </trkpt>
      <trkpt lat="48.81644" lon="1.4539">
        <ele>148.6</ele>
        <time>2023-08-17T16:27:31Z</time>
      </trkpt>
      <trkpt lat="48.81642" lon="1.45391">
        <ele>148.6</ele>
        <time>2023-08-17T16:27:32Z</time>
      </trkpt>
      <trkpt lat="48.81639" lon="1.45392">
        <ele>148.6</ele>
        <time>2023-08-17T16:27:33Z</time>
      </trkpt>
      <trkpt lat="48.81637" lon="1.45393">
        <ele>148.6</ele>
        <time>2023-08-17T16:27:34Z</time>
      </trkpt>
      <trkpt lat="48.81635" lon="1.45394">
        <ele>148.6</ele>
        <time>2023-08-17T16:27:35Z</time>
      </trkpt>
      <trkpt lat="48.81631" lon="1.45396">
        <ele>148.6</ele>
        <time>2023-08-17T16:27:36Z</time>
      </trkpt>
      <trkpt lat="48.81629" lon="1.45398">
        <ele>148.6</ele>
        <time>2023-08-17T16:27:37Z</time>
      </trkpt>
      <trkpt lat="48.81626" lon="1.45399">
        <ele>148.6</ele>
        <time>2023-08-17T16:27:38Z</time>
      </trkpt>
      <trkpt lat="48.81623" lon="1.45401">
        <ele>148.6</ele>
        <time>2023-08-17T16:27:39Z</time>
      </trkpt>
      <trkpt lat="48.81621" lon="1.45402">
        <ele>148.6</ele>
        <time>2023-08-17T16:27:40Z</time>
      </trkpt>
      <trkpt lat="48.81619" lon="1.45403">
        <ele>148.6</ele>
        <time>2023-08-17T16:27:41Z</time>
      </trkpt>
      <trkpt lat="48.81613" lon="1.45405">
        <ele>148.6</ele>
        <time>2023-08-17T16:27:43Z</time>
      </trkpt>
      <trkpt lat="48.8161" lon="1.45407">
        <ele>148.6</ele>
        <time>2023-08-17T16:27:44Z</time>
      </trkpt>
      <trkpt lat="48.81607" lon="1.45409">
        <ele>148.6</ele>
        <time>2023-08-17T16:27:45Z</time>
      </trkpt>
      <trkpt lat="48.81597" lon="1.45415">
        <ele>148.4</ele>
        <time>2023-08-17T16:27:48Z</time>
      </trkpt>
      <trkpt lat="48.81583" lon="1.45422">
        <ele>148.2</ele>
        <time>2023-08-17T16:27:51Z</time>
      </trkpt>
      <trkpt lat="48.81578" lon="1.45424">
        <ele>148</ele>
        <time>2023-08-17T16:27:52Z</time>
      </trkpt>
      <trkpt lat="48.81574" lon="1.45427">
        <ele>148</ele>
        <time>2023-08-17T16:27:53Z</time>
      </trkpt>
      <trkpt lat="48.8157" lon="1.4543">
        <ele>148</ele>
        <time>2023-08-17T16:27:54Z</time>
      </trkpt>
      <trkpt lat="48.81566" lon="1.45432">
        <ele>147.8</ele>
        <time>2023-08-17T16:27:55Z</time>
      </trkpt>
      <trkpt lat="48.81562" lon="1.45433">
        <ele>147.8</ele>
        <time>2023-08-17T16:27:56Z</time>
      </trkpt>
      <trkpt lat="48.81557" lon="1.45435">
        <ele>147.8</ele>
        <time>2023-08-17T16:27:57Z</time>
      </trkpt>
      <trkpt lat="48.81553" lon="1.45437">
        <ele>147.6</ele>
        <time>2023-08-17T16:27:58Z</time>
      </trkpt>
      <trkpt lat="48.81541" lon="1.45442">
        <ele>147.4</ele>
        <time>2023-08-17T16:28:01Z</time>
      </trkpt>
      <trkpt lat="48.81536" lon="1.45444">
        <ele>147.4</ele>
        <time>2023-08-17T16:28:02Z</time>
      </trkpt>
      <trkpt lat="48.81527" lon="1.45447">
        <ele>147.2</ele>
        <time>2023-08-17T16:28:04Z</time>
      </trkpt>
      <trkpt lat="48.81518" lon="1.4545">
        <ele>147</ele>
        <time>2023-08-17T16:28:06Z</time>
      </trkpt>
      <trkpt lat="48.81513" lon="1.45451">
        <ele>147</ele>
        <time>2023-08-17T16:28:07Z</time>
      </trkpt>
      <trkpt lat="48.81508" lon="1.45453">
        <ele>147</ele>
        <time>2023-08-17T16:28:08Z</time>
      </trkpt>
      <trkpt lat="48.81503" lon="1.45455">
        <ele>147</ele>
        <time>2023-08-17T16:28:09Z</time>
      </trkpt>
      <trkpt lat="48.81499" lon="1.45458">
        <ele>146.8</ele>
        <time>2023-08-17T16:28:10Z</time>
      </trkpt>
      <trkpt lat="48.81495" lon="1.45461">
        <ele>146.8</ele>
        <time>2023-08-17T16:28:11Z</time>
      </trkpt>
      <trkpt lat="48.81474" lon="1.45472">
        <ele>147</ele>
        <time>2023-08-17T16:28:16Z</time>
      </trkpt>
      <trkpt lat="48.81472" lon="1.45473">
        <ele>147</ele>
        <time>2023-08-17T16:28:17Z</time>
      </trkpt>
      <trkpt lat="48.81468" lon="1.45474">
        <ele>147.2</ele>
        <time>2023-08-17T16:28:18Z</time>
      </trkpt>
      <trkpt lat="48.81465" lon="1.45475">
        <ele>147.2</ele>
        <time>2023-08-17T16:28:19Z</time>
      </trkpt>
      <trkpt lat="48.81461" lon="1.45476">
        <ele>147.2</ele>
        <time>2023-08-17T16:28:20Z</time>
      </trkpt>
      <trkpt lat="48.81457" lon="1.45478">
        <ele>147.2</ele>
        <time>2023-08-17T16:28:21Z</time>
      </trkpt>
      <trkpt lat="48.81445" lon="1.45484">
        <ele>147.6</ele>
        <time>2023-08-17T16:28:24Z</time>
      </trkpt>
      <trkpt lat="48.81441" lon="1.45486">
        <ele>147.6</ele>
        <time>2023-08-17T16:28:25Z</time>
      </trkpt>
      <trkpt lat="48.81438" lon="1.45487">
        <ele>147.6</ele>
        <time>2023-08-17T16:28:26Z</time>
      </trkpt>
      <trkpt lat="48.81434" lon="1.45488">
        <ele>147.8</ele>
        <time>2023-08-17T16:28:27Z</time>
      </trkpt>
      <trkpt lat="48.8143" lon="1.4549">
        <ele>147.8</ele>
        <time>2023-08-17T16:28:28Z</time>
      </trkpt>
      <trkpt lat="48.81409" lon="1.455">
        <ele>148</ele>
        <time>2023-08-17T16:28:34Z</time>
      </trkpt>
      <trkpt lat="48.81406" lon="1.45501">
        <ele>148</ele>
        <time>2023-08-17T16:28:35Z</time>
      </trkpt>
      <trkpt lat="48.81403" lon="1.45502">
        <ele>148</ele>
        <time>2023-08-17T16:28:36Z</time>
      </trkpt>
      <trkpt lat="48.81399" lon="1.45503">
        <ele>148</ele>
        <time>2023-08-17T16:28:37Z</time>
      </trkpt>
      <trkpt lat="48.81395" lon="1.45505">
        <ele>148.2</ele>
        <time>2023-08-17T16:28:38Z</time>
      </trkpt>
      <trkpt lat="48.81392" lon="1.45507">
        <ele>148.2</ele>
        <time>2023-08-17T16:28:39Z</time>
      </trkpt>
      <trkpt lat="48.81389" lon="1.45509">
        <ele>148.2</ele>
        <time>2023-08-17T16:28:40Z</time>
      </trkpt>
      <trkpt lat="48.81385" lon="1.45511">
        <ele>148.2</ele>
        <time>2023-08-17T16:28:41Z</time>
      </trkpt>
      <trkpt lat="48.81381" lon="1.45514">
        <ele>148.4</ele>
        <time>2023-08-17T16:28:42Z</time>
      </trkpt>
      <trkpt lat="48.81356" lon="1.45524">
        <ele>148.6</ele>
        <time>2023-08-17T16:28:49Z</time>
      </trkpt>
      <trkpt lat="48.81337" lon="1.45529">
        <ele>148.6</ele>
        <time>2023-08-17T16:28:55Z</time>
      </trkpt>
      <trkpt lat="48.81335" lon="1.4553">
        <ele>148.6</ele>
        <time>2023-08-17T16:28:56Z</time>
      </trkpt>
      <trkpt lat="48.81332" lon="1.45531">
        <ele>148.6</ele>
        <time>2023-08-17T16:28:57Z</time>
      </trkpt>
      <trkpt lat="48.81328" lon="1.45533">
        <ele>148.6</ele>
        <time>2023-08-17T16:28:58Z</time>
      </trkpt>
      <trkpt lat="48.81326" lon="1.45534">
        <ele>148.6</ele>
        <time>2023-08-17T16:28:59Z</time>
      </trkpt>
      <trkpt lat="48.81323" lon="1.45536">
        <ele>148.6</ele>
        <time>2023-08-17T16:29:00Z</time>
      </trkpt>
      <trkpt lat="48.8132" lon="1.45537">
        <ele>148.6</ele>
        <time>2023-08-17T16:29:01Z</time>
      </trkpt>
      <trkpt lat="48.81317" lon="1.45538">
        <ele>148.6</ele>
        <time>2023-08-17T16:29:02Z</time>
      </trkpt>
      <trkpt lat="48.81314" lon="1.45539">
        <ele>148.6</ele>
        <time>2023-08-17T16:29:03Z</time>
      </trkpt>
      <trkpt lat="48.8131" lon="1.45541">
        <ele>148.6</ele>
        <time>2023-08-17T16:29:04Z</time>
      </trkpt>
      <trkpt lat="48.81308" lon="1.45543">
        <ele>148.6</ele>
        <time>2023-08-17T16:29:05Z</time>
      </trkpt>
      <trkpt lat="48.81307" lon="1.45543">
        <ele>148.6</ele>
        <time>2023-08-17T16:29:06Z</time>
      </trkpt>
      <trkpt lat="48.81304" lon="1.45545">
        <ele>148.6</ele>
        <time>2023-08-17T16:29:07Z</time>
      </trkpt>
      <trkpt lat="48.81303" lon="1.45546">
        <ele>148.6</ele>
        <time>2023-08-17T16:29:08Z</time>
      </trkpt>
      <trkpt lat="48.81301" lon="1.45548">
        <ele>148.6</ele>
        <time>2023-08-17T16:29:09Z</time>
      </trkpt>
      <trkpt lat="48.81297" lon="1.45551">
        <ele>148.6</ele>
        <time>2023-08-17T16:29:11Z</time>
      </trkpt>
      <trkpt lat="48.81296" lon="1.45552">
        <ele>148.6</ele>
        <time>2023-08-17T16:29:12Z</time>
      </trkpt>
      <trkpt lat="48.81294" lon="1.45554">
        <ele>148.6</ele>
        <time>2023-08-17T16:29:13Z</time>
      </trkpt>
      <trkpt lat="48.81293" lon="1.45556">
        <ele>148.6</ele>
        <time>2023-08-17T16:29:14Z</time>
      </trkpt>
      <trkpt lat="48.81291" lon="1.45557">
        <ele>148.6</ele>
        <time>2023-08-17T16:29:15Z</time>
      </trkpt>
      <trkpt lat="48.8129" lon="1.45559">
        <ele>148.6</ele>
        <time>2023-08-17T16:29:16Z</time>
      </trkpt>
      <trkpt lat="48.81289" lon="1.4556">
        <ele>148.6</ele>
        <time>2023-08-17T16:29:17Z</time>
      </trkpt>
      <trkpt lat="48.81288" lon="1.45562">
        <ele>148.8</ele>
        <time>2023-08-17T16:29:18Z</time>
      </trkpt>
      <trkpt lat="48.81286" lon="1.45563">
        <ele>148.8</ele>
        <time>2023-08-17T16:29:19Z</time>
      </trkpt>
      <trkpt lat="48.81284" lon="1.45563">
        <ele>148.8</ele>
        <time>2023-08-17T16:29:20Z</time>
      </trkpt>
      <trkpt lat="48.8127" lon="1.45568">
        <ele>149</ele>
        <time>2023-08-17T16:29:26Z</time>
      </trkpt>
      <trkpt lat="48.81269" lon="1.45567">
        <ele>149</ele>
        <time>2023-08-17T16:29:27Z</time>
      </trkpt>
    </trkseg>
  </trk>
</gpx>